<?xml version='1.0' encoding='UTF-8'?><gpx version="1.1" creator="JPX - https://github.com/jenetics/jpx" xmlns="http://www.topografix.com/GPX/1/1"><trk><trkseg><trkpt lat="44.7316019" lon="9.6977636"><ele>704.0</ele><time>2026-04-19T10:12:30.332Z</time></trkpt><trkpt lat="44.731554" lon="9.6978342"><ele>704.0</ele><time>2026-04-19T10:15:52.325Z</time></trkpt><trkpt lat="44.7315665" lon="9.6979315"><ele>704.0</ele><time>2026-04-19T10:15:54.341Z</time></trkpt><trkpt lat="44.7315667" lon="9.698067"><ele>704.0</ele><time>2026-04-19T10:15:56.342Z</time></trkpt><trkpt lat="44.7315784" lon="9.6981584"><ele>704.0</ele><time>2026-04-19T10:15:57.331Z</time></trkpt><trkpt lat="44.7315879" lon="9.6982599"><ele>704.0</ele><time>2026-04-19T10:15:58.335Z</time></trkpt><trkpt lat="44.7316016" lon="9.6984486"><ele>704.0</ele><time>2026-04-19T10:16:00.326Z</time></trkpt><trkpt lat="44.7316048" lon="9.6985497"><ele>704.0</ele><time>2026-04-19T10:16:01.33Z</time></trkpt><trkpt lat="44.7316126" lon="9.6986619"><ele>704.0</ele><time>2026-04-19T10:16:02.347Z</time></trkpt><trkpt lat="44.7316221" lon="9.6987789"><ele>704.0</ele><time>2026-04-19T10:16:03.335Z</time></trkpt><trkpt lat="44.7316317" lon="9.6988929"><ele>704.0</ele><time>2026-04-19T10:16:04.337Z</time></trkpt><trkpt lat="44.7316384" lon="9.6990013"><ele>704.0</ele><time>2026-04-19T10:16:05.335Z</time></trkpt><trkpt lat="44.7316407" lon="9.6991269"><ele>703.8333333333333</ele><time>2026-04-19T10:16:06.336Z</time></trkpt><trkpt lat="44.731643" lon="9.6992511"><ele>703.6666666666666</ele><time>2026-04-19T10:16:07.331Z</time></trkpt><trkpt lat="44.7316377" lon="9.6993681"><ele>703.5</ele><time>2026-04-19T10:16:08.337Z</time></trkpt><trkpt lat="44.7316315" lon="9.699487"><ele>703.3333333333334</ele><time>2026-04-19T10:16:09.33Z</time></trkpt><trkpt lat="44.7316233" lon="9.6996137"><ele>703.1666666666667</ele><time>2026-04-19T10:16:10.345Z</time></trkpt><trkpt lat="44.73161" lon="9.6997342"><ele>703.0</ele><time>2026-04-19T10:16:11.332Z</time></trkpt><trkpt lat="44.7315896" lon="9.6998512"><ele>702.3333333333334</ele><time>2026-04-19T10:16:12.344Z</time></trkpt><trkpt lat="44.7315622" lon="9.6999766"><ele>701.6666666666667</ele><time>2026-04-19T10:16:13.339Z</time></trkpt><trkpt lat="44.7315336" lon="9.7000963"><ele>701.0</ele><time>2026-04-19T10:16:14.329Z</time></trkpt><trkpt lat="44.7315084" lon="9.7002095"><ele>700.3333333333334</ele><time>2026-04-19T10:16:15.326Z</time></trkpt><trkpt lat="44.731491" lon="9.7003175"><ele>699.6666666666666</ele><time>2026-04-19T10:16:16.332Z</time></trkpt><trkpt lat="44.7314872" lon="9.7004307"><ele>699.0</ele><time>2026-04-19T10:16:17.333Z</time></trkpt><trkpt lat="44.7314894" lon="9.7005506"><ele>698.2</ele><time>2026-04-19T10:16:18.329Z</time></trkpt><trkpt lat="44.7315007" lon="9.700653"><ele>697.4000000000001</ele><time>2026-04-19T10:16:19.34Z</time></trkpt><trkpt lat="44.7315113" lon="9.7007443"><ele>696.6</ele><time>2026-04-19T10:16:20.335Z</time></trkpt><trkpt lat="44.7315017" lon="9.700903"><ele>695.8</ele><time>2026-04-19T10:16:22.329Z</time></trkpt><trkpt lat="44.7314811" lon="9.7010486"><ele>695.0</ele><time>2026-04-19T10:16:24.333Z</time></trkpt><trkpt lat="44.7314196" lon="9.7011696"><ele>694.3333333333333</ele><time>2026-04-19T10:16:26.329Z</time></trkpt><trkpt lat="44.7313574" lon="9.7012181"><ele>693.6666666666666</ele><time>2026-04-19T10:16:27.328Z</time></trkpt><trkpt lat="44.7312761" lon="9.7012481"><ele>693.0</ele><time>2026-04-19T10:16:28.336Z</time></trkpt><trkpt lat="44.7311842" lon="9.7012571"><ele>692.3333333333334</ele><time>2026-04-19T10:16:29.329Z</time></trkpt><trkpt lat="44.7310894" lon="9.7012522"><ele>691.6666666666667</ele><time>2026-04-19T10:16:30.332Z</time></trkpt><trkpt lat="44.7309986" lon="9.7012484"><ele>691.0</ele><time>2026-04-19T10:16:31.326Z</time></trkpt><trkpt lat="44.7309159" lon="9.7012507"><ele>689.1999999999999</ele><time>2026-04-19T10:16:32.342Z</time></trkpt><trkpt lat="44.7308515" lon="9.7012766"><ele>687.4</ele><time>2026-04-19T10:16:33.324Z</time></trkpt><trkpt lat="44.7307575" lon="9.7014033"><ele>685.6</ele><time>2026-04-19T10:16:35.332Z</time></trkpt><trkpt lat="44.7306729" lon="9.7015093"><ele>683.8</ele><time>2026-04-19T10:16:37.329Z</time></trkpt><trkpt lat="44.7305592" lon="9.7015115"><ele>682.0</ele><time>2026-04-19T10:16:39.326Z</time></trkpt><trkpt lat="44.7304755" lon="9.7013907"><ele>682.0</ele><time>2026-04-19T10:16:41.33Z</time></trkpt><trkpt lat="44.7304519" lon="9.7012895"><ele>682.0</ele><time>2026-04-19T10:16:42.321Z</time></trkpt><trkpt lat="44.7304256" lon="9.7011867"><ele>682.0</ele><time>2026-04-19T10:16:43.327Z</time></trkpt><trkpt lat="44.7303885" lon="9.7010794"><ele>682.0</ele><time>2026-04-19T10:16:44.334Z</time></trkpt><trkpt lat="44.7303518" lon="9.7009757"><ele>682.0</ele><time>2026-04-19T10:16:45.331Z</time></trkpt><trkpt lat="44.7303131" lon="9.7008784"><ele>682.0</ele><time>2026-04-19T10:16:46.331Z</time></trkpt><trkpt lat="44.7302768" lon="9.7007872"><ele>683.2</ele><time>2026-04-19T10:16:47.331Z</time></trkpt><trkpt lat="44.7302415" lon="9.7007053"><ele>684.4000000000001</ele><time>2026-04-19T10:16:48.328Z</time></trkpt><trkpt lat="44.7301753" lon="9.7005625"><ele>685.5999999999999</ele><time>2026-04-19T10:16:50.326Z</time></trkpt><trkpt lat="44.7301394" lon="9.7004392"><ele>686.8</ele><time>2026-04-19T10:16:52.328Z</time></trkpt><trkpt lat="44.7301673" lon="9.7005935"><ele>688.0</ele><time>2026-04-19T10:17:08.332Z</time></trkpt><trkpt lat="44.7302083" lon="9.7006729"><ele>688.0</ele><time>2026-04-19T10:17:09.328Z</time></trkpt><trkpt lat="44.730245" lon="9.7007582"><ele>688.0</ele><time>2026-04-19T10:17:10.327Z</time></trkpt><trkpt lat="44.7302864" lon="9.7008591"><ele>688.0</ele><time>2026-04-19T10:17:11.328Z</time></trkpt><trkpt lat="44.7303351" lon="9.7009727"><ele>688.0</ele><time>2026-04-19T10:17:12.318Z</time></trkpt><trkpt lat="44.7303835" lon="9.7010943"><ele>688.0</ele><time>2026-04-19T10:17:13.322Z</time></trkpt><trkpt lat="44.7304249" lon="9.7012189"><ele>688.0</ele><time>2026-04-19T10:17:14.334Z</time></trkpt><trkpt lat="44.7304537" lon="9.7013371"><ele>687.0</ele><time>2026-04-19T10:17:15.32Z</time></trkpt><trkpt lat="44.7304768" lon="9.7014318"><ele>686.0</ele><time>2026-04-19T10:17:16.315Z</time></trkpt><trkpt lat="44.7305134" lon="9.7015079"><ele>685.0</ele><time>2026-04-19T10:17:22.322Z</time></trkpt><trkpt lat="44.7304721" lon="9.7016068"><ele>684.0</ele><time>2026-04-19T10:17:26.319Z</time></trkpt><trkpt lat="44.730534" lon="9.7017017"><ele>683.0</ele><time>2026-04-19T10:17:29.318Z</time></trkpt><trkpt lat="44.730573" lon="9.7017927"><ele>682.0</ele><time>2026-04-19T10:17:31.319Z</time></trkpt><trkpt lat="44.730583" lon="9.7018974"><ele>681.6666666666667</ele><time>2026-04-19T10:17:34.329Z</time></trkpt><trkpt lat="44.7305673" lon="9.7019998"><ele>681.3333333333334</ele><time>2026-04-19T10:17:38.322Z</time></trkpt><trkpt lat="44.7305494" lon="9.7021205"><ele>681.0</ele><time>2026-04-19T10:17:41.319Z</time></trkpt><trkpt lat="44.7304934" lon="9.7021949"><ele>680.6666666666666</ele><time>2026-04-19T10:17:50.337Z</time></trkpt><trkpt lat="44.7304559" lon="9.7022714"><ele>680.3333333333333</ele><time>2026-04-19T10:17:56.34Z</time></trkpt><trkpt lat="44.7304565" lon="9.7023808"><ele>680.0</ele><time>2026-04-19T10:17:59.335Z</time></trkpt><trkpt lat="44.7304587" lon="9.7025066"><ele>680.0</ele><time>2026-04-19T10:18:02.338Z</time></trkpt><trkpt lat="44.7304433" lon="9.702595"><ele>680.0</ele><time>2026-04-19T10:18:05.322Z</time></trkpt><trkpt lat="44.7303623" lon="9.7026157"><ele>680.0</ele><time>2026-04-19T10:18:08.317Z</time></trkpt><trkpt lat="44.7302994" lon="9.7025718"><ele>680.0</ele><time>2026-04-19T10:18:10.324Z</time></trkpt><trkpt lat="44.7302466" lon="9.7025139"><ele>680.0</ele><time>2026-04-19T10:18:12.345Z</time></trkpt><trkpt lat="44.7302147" lon="9.7024147"><ele>680.0</ele><time>2026-04-19T10:18:14.318Z</time></trkpt><trkpt lat="44.7301931" lon="9.7023188"><ele>680.0</ele><time>2026-04-19T10:18:16.327Z</time></trkpt><trkpt lat="44.7301375" lon="9.7022567"><ele>677.6666666666666</ele><time>2026-04-19T10:18:19.326Z</time></trkpt><trkpt lat="44.7300553" lon="9.7022753"><ele>675.3333333333333</ele><time>2026-04-19T10:18:22.323Z</time></trkpt><trkpt lat="44.7299803" lon="9.7022952"><ele>673.0</ele><time>2026-04-19T10:18:25.33Z</time></trkpt><trkpt lat="44.7299023" lon="9.7022924"><ele>670.6666666666666</ele><time>2026-04-19T10:18:28.325Z</time></trkpt><trkpt lat="44.729833" lon="9.7023053"><ele>668.3333333333334</ele><time>2026-04-19T10:18:31.328Z</time></trkpt><trkpt lat="44.7297758" lon="9.7023449"><ele>666.0</ele><time>2026-04-19T10:18:34.319Z</time></trkpt><trkpt lat="44.7297224" lon="9.7024748"><ele>666.0</ele><time>2026-04-19T10:18:37.334Z</time></trkpt><trkpt lat="44.7296568" lon="9.7025786"><ele>666.0</ele><time>2026-04-19T10:18:39.338Z</time></trkpt><trkpt lat="44.7295789" lon="9.7026895"><ele>666.0</ele><time>2026-04-19T10:18:41.322Z</time></trkpt><trkpt lat="44.7294949" lon="9.7027923"><ele>666.0</ele><time>2026-04-19T10:18:43.317Z</time></trkpt><trkpt lat="44.7294559" lon="9.7028635"><ele>666.0</ele><time>2026-04-19T10:18:45.321Z</time></trkpt><trkpt lat="44.7294236" lon="9.703001"><ele>662.8333333333334</ele><time>2026-04-19T10:18:48.321Z</time></trkpt><trkpt lat="44.7293764" lon="9.7031209"><ele>659.6666666666666</ele><time>2026-04-19T10:18:50.317Z</time></trkpt><trkpt lat="44.7293246" lon="9.7032401"><ele>656.5</ele><time>2026-04-19T10:18:52.318Z</time></trkpt><trkpt lat="44.7292809" lon="9.703355"><ele>653.3333333333333</ele><time>2026-04-19T10:18:54.323Z</time></trkpt><trkpt lat="44.7292705" lon="9.7034555"><ele>650.1666666666666</ele><time>2026-04-19T10:18:56.343Z</time></trkpt><trkpt lat="44.7293046" lon="9.7035427"><ele>647.0</ele><time>2026-04-19T10:18:58.315Z</time></trkpt><trkpt lat="44.7292995" lon="9.7036431"><ele>645.8</ele><time>2026-04-19T10:19:00.323Z</time></trkpt><trkpt lat="44.7293237" lon="9.7037903"><ele>644.6</ele><time>2026-04-19T10:19:02.321Z</time></trkpt><trkpt lat="44.729364" lon="9.7038756"><ele>643.4</ele><time>2026-04-19T10:19:03.33Z</time></trkpt><trkpt lat="44.7294299" lon="9.7039908"><ele>642.1999999999999</ele><time>2026-04-19T10:19:05.322Z</time></trkpt><trkpt lat="44.7294246" lon="9.7041235"><ele>641.0</ele><time>2026-04-19T10:19:08.322Z</time></trkpt><trkpt lat="44.7294085" lon="9.7042447"><ele>640.4</ele><time>2026-04-19T10:19:10.328Z</time></trkpt><trkpt lat="44.7294162" lon="9.7043828"><ele>639.8</ele><time>2026-04-19T10:19:12.328Z</time></trkpt><trkpt lat="44.729402" lon="9.7045081"><ele>639.1999999999999</ele><time>2026-04-19T10:19:14.32Z</time></trkpt><trkpt lat="44.7293968" lon="9.7046584"><ele>638.5999999999999</ele><time>2026-04-19T10:19:16.319Z</time></trkpt><trkpt lat="44.7293843" lon="9.7048237"><ele>638.0</ele><time>2026-04-19T10:19:18.324Z</time></trkpt><trkpt lat="44.729363" lon="9.7049152"><ele>638.0</ele><time>2026-04-19T10:19:19.323Z</time></trkpt><trkpt lat="44.729347" lon="9.7050235"><ele>638.0</ele><time>2026-04-19T10:19:20.318Z</time></trkpt><trkpt lat="44.7293476" lon="9.7051169"><ele>638.0</ele><time>2026-04-19T10:19:21.319Z</time></trkpt><trkpt lat="44.7293529" lon="9.7052193"><ele>638.0</ele><time>2026-04-19T10:19:22.326Z</time></trkpt><trkpt lat="44.7293646" lon="9.7053172"><ele>638.0</ele><time>2026-04-19T10:19:23.328Z</time></trkpt><trkpt lat="44.7293309" lon="9.7054538"><ele>638.0</ele><time>2026-04-19T10:19:25.325Z</time></trkpt><trkpt lat="44.7292869" lon="9.7055888"><ele>637.8333333333333</ele><time>2026-04-19T10:19:27.331Z</time></trkpt><trkpt lat="44.7292851" lon="9.7057747"><ele>637.6666666666666</ele><time>2026-04-19T10:19:29.331Z</time></trkpt><trkpt lat="44.7292951" lon="9.7058684"><ele>637.5</ele><time>2026-04-19T10:19:30.323Z</time></trkpt><trkpt lat="44.7292994" lon="9.705971"><ele>637.3333333333334</ele><time>2026-04-19T10:19:31.335Z</time></trkpt><trkpt lat="44.7292972" lon="9.706073"><ele>637.1666666666667</ele><time>2026-04-19T10:19:32.329Z</time></trkpt><trkpt lat="44.7292966" lon="9.7061679"><ele>637.0</ele><time>2026-04-19T10:19:33.329Z</time></trkpt><trkpt lat="44.7293002" lon="9.7062659"><ele>637.1666666666667</ele><time>2026-04-19T10:19:34.319Z</time></trkpt><trkpt lat="44.7293027" lon="9.7063552"><ele>637.3333333333334</ele><time>2026-04-19T10:19:35.336Z</time></trkpt><trkpt lat="44.7293166" lon="9.7065123"><ele>637.5</ele><time>2026-04-19T10:19:37.334Z</time></trkpt><trkpt lat="44.729354" lon="9.7066625"><ele>637.6666666666666</ele><time>2026-04-19T10:19:39.324Z</time></trkpt><trkpt lat="44.7293775" lon="9.7067657"><ele>637.8333333333333</ele><time>2026-04-19T10:19:40.322Z</time></trkpt><trkpt lat="44.7294087" lon="9.7068687"><ele>638.0</ele><time>2026-04-19T10:19:41.33Z</time></trkpt><trkpt lat="44.7294341" lon="9.70697"><ele>638.0</ele><time>2026-04-19T10:19:42.317Z</time></trkpt><trkpt lat="44.7294601" lon="9.7070571"><ele>638.0</ele><time>2026-04-19T10:19:43.326Z</time></trkpt><trkpt lat="44.7295089" lon="9.7072116"><ele>638.0</ele><time>2026-04-19T10:19:45.321Z</time></trkpt><trkpt lat="44.7295804" lon="9.707326"><ele>638.0</ele><time>2026-04-19T10:19:47.327Z</time></trkpt><trkpt lat="44.7296171" lon="9.7073986"><ele>638.0</ele><time>2026-04-19T10:19:49.322Z</time></trkpt><trkpt lat="44.7295808" lon="9.7074969"><ele>638.0</ele><time>2026-04-19T10:19:52.325Z</time></trkpt><trkpt lat="44.7295085" lon="9.7075769"><ele>638.0</ele><time>2026-04-19T10:19:54.329Z</time></trkpt><trkpt lat="44.7294349" lon="9.7077182"><ele>638.0</ele><time>2026-04-19T10:19:56.323Z</time></trkpt><trkpt lat="44.7293637" lon="9.7078607"><ele>638.0</ele><time>2026-04-19T10:19:58.322Z</time></trkpt><trkpt lat="44.729317" lon="9.7079299"><ele>638.0</ele><time>2026-04-19T10:19:59.327Z</time></trkpt><trkpt lat="44.7292682" lon="9.7079963"><ele>638.0</ele><time>2026-04-19T10:20:00.325Z</time></trkpt><trkpt lat="44.7292184" lon="9.7080819"><ele>635.1666666666666</ele><time>2026-04-19T10:20:01.318Z</time></trkpt><trkpt lat="44.7291706" lon="9.708165"><ele>632.3333333333333</ele><time>2026-04-19T10:20:02.33Z</time></trkpt><trkpt lat="44.7291301" lon="9.7082589"><ele>629.5</ele><time>2026-04-19T10:20:03.314Z</time></trkpt><trkpt lat="44.7290806" lon="9.7083439"><ele>626.6666666666666</ele><time>2026-04-19T10:20:04.334Z</time></trkpt><trkpt lat="44.7290396" lon="9.7084393"><ele>623.8333333333334</ele><time>2026-04-19T10:20:05.325Z</time></trkpt><trkpt lat="44.7290019" lon="9.7085374"><ele>621.0</ele><time>2026-04-19T10:20:06.321Z</time></trkpt><trkpt lat="44.7289589" lon="9.7086275"><ele>619.0</ele><time>2026-04-19T10:20:07.32Z</time></trkpt><trkpt lat="44.7289094" lon="9.7087005"><ele>617.0</ele><time>2026-04-19T10:20:08.324Z</time></trkpt><trkpt lat="44.72886" lon="9.7087578"><ele>615.0</ele><time>2026-04-19T10:20:09.324Z</time></trkpt><trkpt lat="44.7287723" lon="9.7088422"><ele>613.0</ele><time>2026-04-19T10:20:11.32Z</time></trkpt><trkpt lat="44.7287051" lon="9.7089304"><ele>611.0</ele><time>2026-04-19T10:20:13.321Z</time></trkpt><trkpt lat="44.7286656" lon="9.7090158"><ele>609.0</ele><time>2026-04-19T10:20:15.352Z</time></trkpt><trkpt lat="44.7286814" lon="9.7091411"><ele>609.0</ele><time>2026-04-19T10:20:17.337Z</time></trkpt><trkpt lat="44.728729" lon="9.7092179"><ele>609.0</ele><time>2026-04-19T10:20:18.328Z</time></trkpt><trkpt lat="44.728788" lon="9.7092866"><ele>609.0</ele><time>2026-04-19T10:20:19.318Z</time></trkpt><trkpt lat="44.7288422" lon="9.7093627"><ele>609.0</ele><time>2026-04-19T10:20:20.331Z</time></trkpt><trkpt lat="44.7289023" lon="9.7094478"><ele>609.0</ele><time>2026-04-19T10:20:21.324Z</time></trkpt><trkpt lat="44.7289649" lon="9.7095529"><ele>609.0</ele><time>2026-04-19T10:20:22.332Z</time></trkpt><trkpt lat="44.7290232" lon="9.7096623"><ele>609.0</ele><time>2026-04-19T10:20:23.326Z</time></trkpt><trkpt lat="44.7290751" lon="9.7098031"><ele>609.0</ele><time>2026-04-19T10:20:24.336Z</time></trkpt><trkpt lat="44.7290985" lon="9.7099478"><ele>609.0</ele><time>2026-04-19T10:20:25.323Z</time></trkpt><trkpt lat="44.7290914" lon="9.7100976"><ele>609.0</ele><time>2026-04-19T10:20:26.331Z</time></trkpt><trkpt lat="44.7290622" lon="9.710221"><ele>609.0</ele><time>2026-04-19T10:20:27.331Z</time></trkpt><trkpt lat="44.7290347" lon="9.7103606"><ele>609.0</ele><time>2026-04-19T10:20:28.337Z</time></trkpt><trkpt lat="44.729018" lon="9.7105063"><ele>609.0</ele><time>2026-04-19T10:20:29.334Z</time></trkpt><trkpt lat="44.7290196" lon="9.7106697"><ele>609.0</ele><time>2026-04-19T10:20:30.336Z</time></trkpt><trkpt lat="44.7290423" lon="9.7108195"><ele>609.0</ele><time>2026-04-19T10:20:31.324Z</time></trkpt><trkpt lat="44.7290797" lon="9.7109661"><ele>609.0</ele><time>2026-04-19T10:20:32.337Z</time></trkpt><trkpt lat="44.7291178" lon="9.7110744"><ele>608.8</ele><time>2026-04-19T10:20:33.339Z</time></trkpt><trkpt lat="44.7291653" lon="9.7111681"><ele>608.5999999999999</ele><time>2026-04-19T10:20:34.351Z</time></trkpt><trkpt lat="44.7292274" lon="9.711243"><ele>608.4</ele><time>2026-04-19T10:20:35.332Z</time></trkpt><trkpt lat="44.7293399" lon="9.7112729"><ele>608.1999999999999</ele><time>2026-04-19T10:20:36.336Z</time></trkpt><trkpt lat="44.7294721" lon="9.7112895"><ele>608.0</ele><time>2026-04-19T10:20:37.324Z</time></trkpt><trkpt lat="44.7296024" lon="9.7113092"><ele>608.0</ele><time>2026-04-19T10:20:38.318Z</time></trkpt><trkpt lat="44.7297291" lon="9.7113582"><ele>608.0</ele><time>2026-04-19T10:20:39.33Z</time></trkpt><trkpt lat="44.7298574" lon="9.711419"><ele>608.0</ele><time>2026-04-19T10:20:40.33Z</time></trkpt><trkpt lat="44.7299854" lon="9.7114801"><ele>608.0</ele><time>2026-04-19T10:20:41.339Z</time></trkpt><trkpt lat="44.7301006" lon="9.7115377"><ele>608.0</ele><time>2026-04-19T10:20:42.34Z</time></trkpt><trkpt lat="44.7302105" lon="9.7115736"><ele>608.0</ele><time>2026-04-19T10:20:43.329Z</time></trkpt><trkpt lat="44.730325" lon="9.7115653"><ele>608.0</ele><time>2026-04-19T10:20:44.332Z</time></trkpt><trkpt lat="44.7304307" lon="9.7115247"><ele>608.0</ele><time>2026-04-19T10:20:45.329Z</time></trkpt><trkpt lat="44.7305264" lon="9.7114461"><ele>608.0</ele><time>2026-04-19T10:20:46.336Z</time></trkpt><trkpt lat="44.7306003" lon="9.7113648"><ele>610.1666666666666</ele><time>2026-04-19T10:20:47.321Z</time></trkpt><trkpt lat="44.7306771" lon="9.7113184"><ele>612.3333333333333</ele><time>2026-04-19T10:20:48.345Z</time></trkpt><trkpt lat="44.7307602" lon="9.711323"><ele>614.5</ele><time>2026-04-19T10:20:49.323Z</time></trkpt><trkpt lat="44.7308372" lon="9.7113908"><ele>616.6666666666666</ele><time>2026-04-19T10:20:50.331Z</time></trkpt><trkpt lat="44.7308691" lon="9.7115002"><ele>618.8333333333334</ele><time>2026-04-19T10:20:51.329Z</time></trkpt><trkpt lat="44.7308538" lon="9.7116229"><ele>621.0</ele><time>2026-04-19T10:20:52.332Z</time></trkpt><trkpt lat="44.7308293" lon="9.7117699"><ele>621.25</ele><time>2026-04-19T10:20:53.339Z</time></trkpt><trkpt lat="44.7307895" lon="9.7119288"><ele>621.5</ele><time>2026-04-19T10:20:54.324Z</time></trkpt><trkpt lat="44.7307615" lon="9.7121031"><ele>621.75</ele><time>2026-04-19T10:20:55.322Z</time></trkpt><trkpt lat="44.7307514" lon="9.7122796"><ele>622.0</ele><time>2026-04-19T10:20:56.319Z</time></trkpt><trkpt lat="44.7307532" lon="9.712466"><ele>622.0</ele><time>2026-04-19T10:20:57.328Z</time></trkpt><trkpt lat="44.7307739" lon="9.7126614"><ele>622.0</ele><time>2026-04-19T10:20:58.33Z</time></trkpt><trkpt lat="44.7308052" lon="9.7128561"><ele>622.0</ele><time>2026-04-19T10:20:59.326Z</time></trkpt><trkpt lat="44.7308329" lon="9.7130371"><ele>622.0</ele><time>2026-04-19T10:21:00.336Z</time></trkpt><trkpt lat="44.7308394" lon="9.7131848"><ele>621.8000000000001</ele><time>2026-04-19T10:21:01.335Z</time></trkpt><trkpt lat="44.7308344" lon="9.7133237"><ele>621.6</ele><time>2026-04-19T10:21:02.329Z</time></trkpt><trkpt lat="44.7308512" lon="9.7134578"><ele>621.4000000000001</ele><time>2026-04-19T10:21:03.34Z</time></trkpt><trkpt lat="44.7308921" lon="9.7135862"><ele>621.2</ele><time>2026-04-19T10:21:04.338Z</time></trkpt><trkpt lat="44.730952" lon="9.7137314"><ele>621.0</ele><time>2026-04-19T10:21:05.343Z</time></trkpt><trkpt lat="44.7310148" lon="9.713893"><ele>624.0</ele><time>2026-04-19T10:21:06.334Z</time></trkpt><trkpt lat="44.7310618" lon="9.7140602"><ele>627.0</ele><time>2026-04-19T10:21:07.327Z</time></trkpt><trkpt lat="44.731076" lon="9.7142189"><ele>630.0</ele><time>2026-04-19T10:21:08.324Z</time></trkpt><trkpt lat="44.7310699" lon="9.7143676"><ele>633.0</ele><time>2026-04-19T10:21:09.322Z</time></trkpt><trkpt lat="44.731062" lon="9.7144909"><ele>636.0</ele><time>2026-04-19T10:21:10.33Z</time></trkpt><trkpt lat="44.7310599" lon="9.7146002"><ele>636.0</ele><time>2026-04-19T10:21:11.324Z</time></trkpt><trkpt lat="44.7310903" lon="9.714708"><ele>636.0</ele><time>2026-04-19T10:21:12.333Z</time></trkpt><trkpt lat="44.7311558" lon="9.7148097"><ele>636.0</ele><time>2026-04-19T10:21:13.325Z</time></trkpt><trkpt lat="44.7312548" lon="9.7149067"><ele>636.0</ele><time>2026-04-19T10:21:14.322Z</time></trkpt><trkpt lat="44.7313596" lon="9.7150036"><ele>636.0</ele><time>2026-04-19T10:21:15.327Z</time></trkpt><trkpt lat="44.7314562" lon="9.7151152"><ele>635.0</ele><time>2026-04-19T10:21:16.335Z</time></trkpt><trkpt lat="44.7315365" lon="9.7152478"><ele>634.0</ele><time>2026-04-19T10:21:17.329Z</time></trkpt><trkpt lat="44.7315924" lon="9.7153913"><ele>633.0</ele><time>2026-04-19T10:21:18.329Z</time></trkpt><trkpt lat="44.7316488" lon="9.715545"><ele>632.0</ele><time>2026-04-19T10:21:19.343Z</time></trkpt><trkpt lat="44.7317167" lon="9.7157064"><ele>632.0</ele><time>2026-04-19T10:21:20.333Z</time></trkpt><trkpt lat="44.7317926" lon="9.7158716"><ele>632.0</ele><time>2026-04-19T10:21:21.354Z</time></trkpt><trkpt lat="44.7318857" lon="9.7160308"><ele>632.0</ele><time>2026-04-19T10:21:22.331Z</time></trkpt><trkpt lat="44.7319805" lon="9.7161802"><ele>632.0</ele><time>2026-04-19T10:21:23.35Z</time></trkpt><trkpt lat="44.7320825" lon="9.716328"><ele>633.5</ele><time>2026-04-19T10:21:24.33Z</time></trkpt><trkpt lat="44.7321843" lon="9.7164919"><ele>635.0</ele><time>2026-04-19T10:21:25.32Z</time></trkpt><trkpt lat="44.7322822" lon="9.7166499"><ele>636.5</ele><time>2026-04-19T10:21:26.338Z</time></trkpt><trkpt lat="44.7323743" lon="9.7167976"><ele>638.0</ele><time>2026-04-19T10:21:27.321Z</time></trkpt><trkpt lat="44.7324712" lon="9.7169408"><ele>638.0</ele><time>2026-04-19T10:21:28.349Z</time></trkpt><trkpt lat="44.7325656" lon="9.7170891"><ele>638.0</ele><time>2026-04-19T10:21:29.335Z</time></trkpt><trkpt lat="44.7326646" lon="9.7172323"><ele>638.0</ele><time>2026-04-19T10:21:30.321Z</time></trkpt><trkpt lat="44.7327624" lon="9.7173613"><ele>638.0</ele><time>2026-04-19T10:21:31.335Z</time></trkpt><trkpt lat="44.732843" lon="9.7174694"><ele>638.8</ele><time>2026-04-19T10:21:32.325Z</time></trkpt><trkpt lat="44.7329139" lon="9.717564"><ele>639.5999999999999</ele><time>2026-04-19T10:21:33.339Z</time></trkpt><trkpt lat="44.7329812" lon="9.7176344"><ele>640.4000000000001</ele><time>2026-04-19T10:21:34.327Z</time></trkpt><trkpt lat="44.7330558" lon="9.7176653"><ele>641.2</ele><time>2026-04-19T10:21:35.322Z</time></trkpt><trkpt lat="44.7331523" lon="9.717647"><ele>642.0</ele><time>2026-04-19T10:21:36.316Z</time></trkpt><trkpt lat="44.7332573" lon="9.7175859"><ele>642.0</ele><time>2026-04-19T10:21:37.327Z</time></trkpt><trkpt lat="44.7333645" lon="9.7175252"><ele>642.0</ele><time>2026-04-19T10:21:38.336Z</time></trkpt><trkpt lat="44.7334668" lon="9.7174885"><ele>642.0</ele><time>2026-04-19T10:21:39.322Z</time></trkpt><trkpt lat="44.7335637" lon="9.7174681"><ele>642.0</ele><time>2026-04-19T10:21:40.325Z</time></trkpt><trkpt lat="44.7336557" lon="9.717469"><ele>642.0</ele><time>2026-04-19T10:21:41.328Z</time></trkpt><trkpt lat="44.7337289" lon="9.7175052"><ele>641.2</ele><time>2026-04-19T10:21:42.329Z</time></trkpt><trkpt lat="44.7337897" lon="9.7175698"><ele>640.4000000000001</ele><time>2026-04-19T10:21:43.33Z</time></trkpt><trkpt lat="44.7338255" lon="9.717659"><ele>639.5999999999999</ele><time>2026-04-19T10:21:44.334Z</time></trkpt><trkpt lat="44.7338287" lon="9.717777"><ele>638.8</ele><time>2026-04-19T10:21:45.336Z</time></trkpt><trkpt lat="44.7338241" lon="9.7179235"><ele>638.0</ele><time>2026-04-19T10:21:46.331Z</time></trkpt><trkpt lat="44.7338049" lon="9.7180932"><ele>638.0</ele><time>2026-04-19T10:21:47.328Z</time></trkpt><trkpt lat="44.7337799" lon="9.7182646"><ele>638.0</ele><time>2026-04-19T10:21:48.33Z</time></trkpt><trkpt lat="44.7337419" lon="9.7184543"><ele>638.0</ele><time>2026-04-19T10:21:49.336Z</time></trkpt><trkpt lat="44.7336862" lon="9.7186423"><ele>638.0</ele><time>2026-04-19T10:21:50.34Z</time></trkpt><trkpt lat="44.733618" lon="9.7188287"><ele>636.0</ele><time>2026-04-19T10:21:51.326Z</time></trkpt><trkpt lat="44.7335502" lon="9.719002"><ele>634.0</ele><time>2026-04-19T10:21:52.333Z</time></trkpt><trkpt lat="44.7334865" lon="9.7191587"><ele>632.0</ele><time>2026-04-19T10:21:53.327Z</time></trkpt><trkpt lat="44.7334408" lon="9.7192956"><ele>630.0</ele><time>2026-04-19T10:21:54.324Z</time></trkpt><trkpt lat="44.7334184" lon="9.7194299"><ele>630.6666666666666</ele><time>2026-04-19T10:21:55.325Z</time></trkpt><trkpt lat="44.7334155" lon="9.7195553"><ele>631.3333333333334</ele><time>2026-04-19T10:21:56.327Z</time></trkpt><trkpt lat="44.733436" lon="9.7196563"><ele>632.0</ele><time>2026-04-19T10:21:57.322Z</time></trkpt><trkpt lat="44.7334818" lon="9.7197386"><ele>632.6666666666667</ele><time>2026-04-19T10:21:58.329Z</time></trkpt><trkpt lat="44.7335548" lon="9.7197905"><ele>633.3333333333334</ele><time>2026-04-19T10:21:59.325Z</time></trkpt><trkpt lat="44.7336584" lon="9.7198098"><ele>634.0</ele><time>2026-04-19T10:22:00.326Z</time></trkpt><trkpt lat="44.7337547" lon="9.7198241"><ele>634.0</ele><time>2026-04-19T10:22:01.321Z</time></trkpt><trkpt lat="44.7338345" lon="9.7198444"><ele>634.0</ele><time>2026-04-19T10:22:02.326Z</time></trkpt><trkpt lat="44.7338967" lon="9.7199094"><ele>634.0</ele><time>2026-04-19T10:22:03.327Z</time></trkpt><trkpt lat="44.7339146" lon="9.7200148"><ele>634.0</ele><time>2026-04-19T10:22:04.324Z</time></trkpt><trkpt lat="44.7338798" lon="9.7201393"><ele>634.0</ele><time>2026-04-19T10:22:05.327Z</time></trkpt><trkpt lat="44.7338405" lon="9.720252"><ele>634.0</ele><time>2026-04-19T10:22:06.32Z</time></trkpt><trkpt lat="44.7337849" lon="9.7203883"><ele>633.8</ele><time>2026-04-19T10:22:07.33Z</time></trkpt><trkpt lat="44.7337274" lon="9.7205349"><ele>633.5999999999999</ele><time>2026-04-19T10:22:08.331Z</time></trkpt><trkpt lat="44.7336756" lon="9.720669"><ele>633.4</ele><time>2026-04-19T10:22:09.327Z</time></trkpt><trkpt lat="44.7336343" lon="9.7207897"><ele>633.1999999999999</ele><time>2026-04-19T10:22:10.327Z</time></trkpt><trkpt lat="44.7336023" lon="9.7208883"><ele>633.0</ele><time>2026-04-19T10:22:11.331Z</time></trkpt><trkpt lat="44.7335673" lon="9.7210357"><ele>632.8333333333334</ele><time>2026-04-19T10:22:13.326Z</time></trkpt><trkpt lat="44.7336077" lon="9.7211492"><ele>632.6666666666666</ele><time>2026-04-19T10:22:15.334Z</time></trkpt><trkpt lat="44.7336639" lon="9.7212148"><ele>632.5</ele><time>2026-04-19T10:22:16.328Z</time></trkpt><trkpt lat="44.7337295" lon="9.7212905"><ele>632.3333333333333</ele><time>2026-04-19T10:22:17.345Z</time></trkpt><trkpt lat="44.7338046" lon="9.7213757"><ele>632.1666666666666</ele><time>2026-04-19T10:22:18.325Z</time></trkpt><trkpt lat="44.7338879" lon="9.7214486"><ele>632.0</ele><time>2026-04-19T10:22:19.334Z</time></trkpt><trkpt lat="44.7339794" lon="9.721508"><ele>632.0</ele><time>2026-04-19T10:22:20.325Z</time></trkpt><trkpt lat="44.7340738" lon="9.7215549"><ele>632.0</ele><time>2026-04-19T10:22:21.322Z</time></trkpt><trkpt lat="44.7341674" lon="9.7215892"><ele>632.0</ele><time>2026-04-19T10:22:22.329Z</time></trkpt><trkpt lat="44.7342578" lon="9.7216278"><ele>632.0</ele><time>2026-04-19T10:22:23.33Z</time></trkpt><trkpt lat="44.734357" lon="9.7216796"><ele>632.0</ele><time>2026-04-19T10:22:24.32Z</time></trkpt><trkpt lat="44.7344593" lon="9.7217265"><ele>635.8</ele><time>2026-04-19T10:22:25.32Z</time></trkpt><trkpt lat="44.7345537" lon="9.7217778"><ele>639.6</ele><time>2026-04-19T10:22:26.324Z</time></trkpt><trkpt lat="44.7346263" lon="9.7218383"><ele>643.4</ele><time>2026-04-19T10:22:27.32Z</time></trkpt><trkpt lat="44.7346798" lon="9.7219629"><ele>647.1999999999999</ele><time>2026-04-19T10:22:28.331Z</time></trkpt><trkpt lat="44.7347299" lon="9.7220971"><ele>651.0</ele><time>2026-04-19T10:22:29.315Z</time></trkpt><trkpt lat="44.7347769" lon="9.7222543"><ele>651.25</ele><time>2026-04-19T10:22:30.331Z</time></trkpt><trkpt lat="44.7348211" lon="9.7224202"><ele>651.5</ele><time>2026-04-19T10:22:31.327Z</time></trkpt><trkpt lat="44.7348732" lon="9.7225851"><ele>651.75</ele><time>2026-04-19T10:22:32.319Z</time></trkpt><trkpt lat="44.7349324" lon="9.7227577"><ele>652.0</ele><time>2026-04-19T10:22:33.322Z</time></trkpt><trkpt lat="44.7349853" lon="9.7229158"><ele>652.0</ele><time>2026-04-19T10:22:34.323Z</time></trkpt><trkpt lat="44.7350271" lon="9.7230668"><ele>652.0</ele><time>2026-04-19T10:22:35.327Z</time></trkpt><trkpt lat="44.7350732" lon="9.7232134"><ele>652.0</ele><time>2026-04-19T10:22:36.329Z</time></trkpt><trkpt lat="44.7351277" lon="9.7233679"><ele>652.0</ele><time>2026-04-19T10:22:37.328Z</time></trkpt><trkpt lat="44.7351821" lon="9.7235281"><ele>651.6</ele><time>2026-04-19T10:22:38.33Z</time></trkpt><trkpt lat="44.7352132" lon="9.7237019"><ele>651.2</ele><time>2026-04-19T10:22:39.321Z</time></trkpt><trkpt lat="44.7352231" lon="9.723883"><ele>650.8</ele><time>2026-04-19T10:22:40.333Z</time></trkpt><trkpt lat="44.7352271" lon="9.7240278"><ele>650.4</ele><time>2026-04-19T10:22:41.327Z</time></trkpt><trkpt lat="44.7352434" lon="9.7241392"><ele>650.0</ele><time>2026-04-19T10:22:42.322Z</time></trkpt><trkpt lat="44.7352707" lon="9.7242422"><ele>653.0</ele><time>2026-04-19T10:22:43.337Z</time></trkpt><trkpt lat="44.7353091" lon="9.7243449"><ele>656.0</ele><time>2026-04-19T10:22:44.319Z</time></trkpt><trkpt lat="44.7353891" lon="9.7244429"><ele>659.0</ele><time>2026-04-19T10:22:45.34Z</time></trkpt><trkpt lat="44.7354873" lon="9.724543"><ele>662.0</ele><time>2026-04-19T10:22:46.337Z</time></trkpt><trkpt lat="44.7355864" lon="9.724651"><ele>665.0</ele><time>2026-04-19T10:22:47.324Z</time></trkpt><trkpt lat="44.7356707" lon="9.7247544"><ele>665.0</ele><time>2026-04-19T10:22:48.322Z</time></trkpt><trkpt lat="44.7357481" lon="9.7248676"><ele>665.0</ele><time>2026-04-19T10:22:49.336Z</time></trkpt><trkpt lat="44.7358321" lon="9.7249882"><ele>665.0</ele><time>2026-04-19T10:22:50.328Z</time></trkpt><trkpt lat="44.7359119" lon="9.7251198"><ele>665.0</ele><time>2026-04-19T10:22:51.325Z</time></trkpt><trkpt lat="44.7359838" lon="9.7252308"><ele>666.2</ele><time>2026-04-19T10:22:52.324Z</time></trkpt><trkpt lat="44.7360543" lon="9.7253454"><ele>667.4</ele><time>2026-04-19T10:22:53.334Z</time></trkpt><trkpt lat="44.736113" lon="9.7254636"><ele>668.5999999999999</ele><time>2026-04-19T10:22:54.327Z</time></trkpt><trkpt lat="44.7361622" lon="9.725597"><ele>669.8</ele><time>2026-04-19T10:22:55.343Z</time></trkpt><trkpt lat="44.7362026" lon="9.7257383"><ele>671.0</ele><time>2026-04-19T10:22:56.317Z</time></trkpt><trkpt lat="44.7362237" lon="9.7258849"><ele>671.0</ele><time>2026-04-19T10:22:57.33Z</time></trkpt><trkpt lat="44.7362154" lon="9.7260428"><ele>671.0</ele><time>2026-04-19T10:22:58.329Z</time></trkpt><trkpt lat="44.7361857" lon="9.7261972"><ele>671.0</ele><time>2026-04-19T10:22:59.328Z</time></trkpt><trkpt lat="44.7361575" lon="9.7263603"><ele>671.0</ele><time>2026-04-19T10:23:00.322Z</time></trkpt><trkpt lat="44.7361148" lon="9.7265075"><ele>671.25</ele><time>2026-04-19T10:23:01.329Z</time></trkpt><trkpt lat="44.7360522" lon="9.7266409"><ele>671.5</ele><time>2026-04-19T10:23:02.323Z</time></trkpt><trkpt lat="44.7359738" lon="9.7267748"><ele>671.75</ele><time>2026-04-19T10:23:03.325Z</time></trkpt><trkpt lat="44.7358836" lon="9.7269052"><ele>672.0</ele><time>2026-04-19T10:23:04.321Z</time></trkpt><trkpt lat="44.7358003" lon="9.7270277"><ele>672.0</ele><time>2026-04-19T10:23:05.323Z</time></trkpt><trkpt lat="44.7357255" lon="9.7271439"><ele>672.0</ele><time>2026-04-19T10:23:06.33Z</time></trkpt><trkpt lat="44.7356567" lon="9.7272427"><ele>672.0</ele><time>2026-04-19T10:23:07.332Z</time></trkpt><trkpt lat="44.7355819" lon="9.7273323"><ele>672.0</ele><time>2026-04-19T10:23:08.329Z</time></trkpt><trkpt lat="44.7355069" lon="9.7274006"><ele>672.0</ele><time>2026-04-19T10:23:09.329Z</time></trkpt><trkpt lat="44.7354313" lon="9.7274715"><ele>672.0</ele><time>2026-04-19T10:23:10.326Z</time></trkpt><trkpt lat="44.7353607" lon="9.7275374"><ele>672.0</ele><time>2026-04-19T10:23:11.332Z</time></trkpt><trkpt lat="44.7352915" lon="9.7276063"><ele>672.0</ele><time>2026-04-19T10:23:12.329Z</time></trkpt><trkpt lat="44.7352298" lon="9.7276756"><ele>672.0</ele><time>2026-04-19T10:23:13.329Z</time></trkpt><trkpt lat="44.7351737" lon="9.727745"><ele>672.0</ele><time>2026-04-19T10:23:14.327Z</time></trkpt><trkpt lat="44.7350974" lon="9.7278732"><ele>672.0</ele><time>2026-04-19T10:23:16.327Z</time></trkpt><trkpt lat="44.7350744" lon="9.7279571"><ele>671.0</ele><time>2026-04-19T10:23:17.33Z</time></trkpt><trkpt lat="44.7351" lon="9.7280958"><ele>670.0</ele><time>2026-04-19T10:23:19.324Z</time></trkpt><trkpt lat="44.735142" lon="9.7281714"><ele>669.0</ele><time>2026-04-19T10:23:20.333Z</time></trkpt><trkpt lat="44.7351848" lon="9.7282535"><ele>668.0</ele><time>2026-04-19T10:23:21.32Z</time></trkpt><trkpt lat="44.7352324" lon="9.7283337"><ele>667.0</ele><time>2026-04-19T10:23:22.322Z</time></trkpt><trkpt lat="44.7352869" lon="9.7284075"><ele>666.0</ele><time>2026-04-19T10:23:23.332Z</time></trkpt><trkpt lat="44.7353464" lon="9.7284933"><ele>669.8</ele><time>2026-04-19T10:23:24.321Z</time></trkpt><trkpt lat="44.7353937" lon="9.7285709"><ele>673.5999999999999</ele><time>2026-04-19T10:23:25.325Z</time></trkpt><trkpt lat="44.7354295" lon="9.7286441"><ele>677.4</ele><time>2026-04-19T10:23:26.335Z</time></trkpt><trkpt lat="44.7354565" lon="9.7287799"><ele>681.2</ele><time>2026-04-19T10:23:28.317Z</time></trkpt><trkpt lat="44.7354541" lon="9.728974"><ele>685.0</ele><time>2026-04-19T10:23:30.319Z</time></trkpt><trkpt lat="44.7354435" lon="9.7290815"><ele>685.0</ele><time>2026-04-19T10:23:31.322Z</time></trkpt><trkpt lat="44.7354371" lon="9.7291846"><ele>685.0</ele><time>2026-04-19T10:23:32.33Z</time></trkpt><trkpt lat="44.7354336" lon="9.729289"><ele>685.0</ele><time>2026-04-19T10:23:33.322Z</time></trkpt><trkpt lat="44.7354553" lon="9.7294523"><ele>685.0</ele><time>2026-04-19T10:23:35.317Z</time></trkpt><trkpt lat="44.7355147" lon="9.7295293"><ele>685.0</ele><time>2026-04-19T10:23:37.323Z</time></trkpt><trkpt lat="44.735623" lon="9.7295395"><ele>685.0</ele><time>2026-04-19T10:23:39.333Z</time></trkpt><trkpt lat="44.735727" lon="9.7294886"><ele>685.0</ele><time>2026-04-19T10:23:41.342Z</time></trkpt><trkpt lat="44.735789" lon="9.7294374"><ele>685.0</ele><time>2026-04-19T10:23:42.354Z</time></trkpt><trkpt lat="44.7358521" lon="9.7293905"><ele>685.0</ele><time>2026-04-19T10:23:43.317Z</time></trkpt><trkpt lat="44.7359225" lon="9.7293396"><ele>685.0</ele><time>2026-04-19T10:23:44.318Z</time></trkpt><trkpt lat="44.7359942" lon="9.7292918"><ele>685.0</ele><time>2026-04-19T10:23:45.335Z</time></trkpt><trkpt lat="44.7360589" lon="9.7292487"><ele>685.7142857142857</ele><time>2026-04-19T10:23:46.32Z</time></trkpt><trkpt lat="44.7361678" lon="9.7292558"><ele>686.4285714285714</ele><time>2026-04-19T10:23:48.331Z</time></trkpt><trkpt lat="44.7362267" lon="9.7292909"><ele>687.1428571428571</ele><time>2026-04-19T10:23:49.337Z</time></trkpt><trkpt lat="44.7362882" lon="9.7293182"><ele>687.8571428571429</ele><time>2026-04-19T10:23:50.316Z</time></trkpt><trkpt lat="44.736348" lon="9.7293599"><ele>688.5714285714286</ele><time>2026-04-19T10:23:51.331Z</time></trkpt><trkpt lat="44.7364026" lon="9.7294113"><ele>689.2857142857143</ele><time>2026-04-19T10:23:52.342Z</time></trkpt><trkpt lat="44.7364408" lon="9.7294878"><ele>690.0</ele><time>2026-04-19T10:23:53.332Z</time></trkpt><trkpt lat="44.7365286" lon="9.7295917"><ele>690.0</ele><time>2026-04-19T10:23:55.325Z</time></trkpt><trkpt lat="44.7365914" lon="9.7296014"><ele>690.0</ele><time>2026-04-19T10:23:56.336Z</time></trkpt><trkpt lat="44.7366608" lon="9.7296043"><ele>690.0</ele><time>2026-04-19T10:23:57.336Z</time></trkpt><trkpt lat="44.7367866" lon="9.7296119"><ele>690.0</ele><time>2026-04-19T10:23:59.328Z</time></trkpt><trkpt lat="44.7369166" lon="9.7296559"><ele>690.0</ele><time>2026-04-19T10:24:01.329Z</time></trkpt><trkpt lat="44.7369949" lon="9.7296941"><ele>691.3333333333334</ele><time>2026-04-19T10:24:02.353Z</time></trkpt><trkpt lat="44.7370738" lon="9.7297279"><ele>692.6666666666666</ele><time>2026-04-19T10:24:03.328Z</time></trkpt><trkpt lat="44.7371393" lon="9.7297581"><ele>694.0</ele><time>2026-04-19T10:24:04.321Z</time></trkpt><trkpt lat="44.7372506" lon="9.729779"><ele>695.3333333333333</ele><time>2026-04-19T10:24:06.325Z</time></trkpt><trkpt lat="44.7373205" lon="9.7297746"><ele>696.6666666666666</ele><time>2026-04-19T10:24:07.34Z</time></trkpt><trkpt lat="44.7373979" lon="9.7297233"><ele>698.0</ele><time>2026-04-19T10:24:08.34Z</time></trkpt><trkpt lat="44.7375041" lon="9.7296529"><ele>698.0</ele><time>2026-04-19T10:24:09.33Z</time></trkpt><trkpt lat="44.7376053" lon="9.7295991"><ele>698.0</ele><time>2026-04-19T10:24:10.326Z</time></trkpt><trkpt lat="44.7376899" lon="9.7295466"><ele>698.0</ele><time>2026-04-19T10:24:11.326Z</time></trkpt><trkpt lat="44.7377591" lon="9.7294978"><ele>698.0</ele><time>2026-04-19T10:24:12.318Z</time></trkpt><trkpt lat="44.7378265" lon="9.7294307"><ele>698.0</ele><time>2026-04-19T10:24:13.319Z</time></trkpt><trkpt lat="44.7379111" lon="9.7293498"><ele>701.0</ele><time>2026-04-19T10:24:14.337Z</time></trkpt><trkpt lat="44.7380038" lon="9.7292755"><ele>704.0</ele><time>2026-04-19T10:24:15.328Z</time></trkpt><trkpt lat="44.7380854" lon="9.729201"><ele>707.0</ele><time>2026-04-19T10:24:16.333Z</time></trkpt><trkpt lat="44.7381603" lon="9.7291388"><ele>710.0</ele><time>2026-04-19T10:24:17.322Z</time></trkpt><trkpt lat="44.738237" lon="9.7290706"><ele>713.0</ele><time>2026-04-19T10:24:18.326Z</time></trkpt><trkpt lat="44.738307" lon="9.7289912"><ele>713.0</ele><time>2026-04-19T10:24:19.322Z</time></trkpt><trkpt lat="44.7383703" lon="9.7289145"><ele>713.0</ele><time>2026-04-19T10:24:20.334Z</time></trkpt><trkpt lat="44.7384375" lon="9.7288569"><ele>713.0</ele><time>2026-04-19T10:24:21.328Z</time></trkpt><trkpt lat="44.7385555" lon="9.728827"><ele>713.0</ele><time>2026-04-19T10:24:23.339Z</time></trkpt><trkpt lat="44.738622" lon="9.7289098"><ele>713.0</ele><time>2026-04-19T10:24:25.337Z</time></trkpt><trkpt lat="44.7386694" lon="9.7290593"><ele>715.2</ele><time>2026-04-19T10:24:27.33Z</time></trkpt><trkpt lat="44.738714" lon="9.7291779"><ele>717.4</ele><time>2026-04-19T10:24:28.335Z</time></trkpt><trkpt lat="44.7387718" lon="9.7293086"><ele>719.6</ele><time>2026-04-19T10:24:29.337Z</time></trkpt><trkpt lat="44.738818" lon="9.7294278"><ele>721.8000000000001</ele><time>2026-04-19T10:24:30.322Z</time></trkpt><trkpt lat="44.7388724" lon="9.7295237"><ele>724.0</ele><time>2026-04-19T10:24:31.324Z</time></trkpt><trkpt lat="44.7389177" lon="9.7296031"><ele>724.0</ele><time>2026-04-19T10:24:32.313Z</time></trkpt><trkpt lat="44.7389793" lon="9.7297362"><ele>724.0</ele><time>2026-04-19T10:24:34.319Z</time></trkpt><trkpt lat="44.7390159" lon="9.7298127"><ele>724.0</ele><time>2026-04-19T10:24:35.322Z</time></trkpt><trkpt lat="44.7390891" lon="9.7299239"><ele>724.0</ele><time>2026-04-19T10:24:37.329Z</time></trkpt><trkpt lat="44.7391506" lon="9.7299492"><ele>724.0</ele><time>2026-04-19T10:24:39.326Z</time></trkpt><trkpt lat="44.7392165" lon="9.729886"><ele>724.0</ele><time>2026-04-19T10:24:41.333Z</time></trkpt><trkpt lat="44.7392824" lon="9.7297602"><ele>724.0</ele><time>2026-04-19T10:24:43.325Z</time></trkpt><trkpt lat="44.7393493" lon="9.7296275"><ele>724.0</ele><time>2026-04-19T10:24:45.335Z</time></trkpt><trkpt lat="44.7393949" lon="9.7295498"><ele>724.0</ele><time>2026-04-19T10:24:46.34Z</time></trkpt><trkpt lat="44.7394512" lon="9.729469"><ele>724.0</ele><time>2026-04-19T10:24:47.344Z</time></trkpt><trkpt lat="44.7395026" lon="9.7293923"><ele>724.0</ele><time>2026-04-19T10:24:48.337Z</time></trkpt><trkpt lat="44.7395561" lon="9.7293214"><ele>724.0</ele><time>2026-04-19T10:24:49.344Z</time></trkpt><trkpt lat="44.7396204" lon="9.7292568"><ele>726.8333333333334</ele><time>2026-04-19T10:24:50.329Z</time></trkpt><trkpt lat="44.7396928" lon="9.7292057"><ele>729.6666666666667</ele><time>2026-04-19T10:24:51.34Z</time></trkpt><trkpt lat="44.7397772" lon="9.7291664"><ele>732.5</ele><time>2026-04-19T10:24:52.325Z</time></trkpt><trkpt lat="44.7398486" lon="9.7291537"><ele>735.3333333333334</ele><time>2026-04-19T10:24:53.326Z</time></trkpt><trkpt lat="44.739971" lon="9.7291355"><ele>738.1666666666666</ele><time>2026-04-19T10:24:55.321Z</time></trkpt><trkpt lat="44.7400343" lon="9.7290733"><ele>741.0</ele><time>2026-04-19T10:24:56.341Z</time></trkpt><trkpt lat="44.740089" lon="9.7290071"><ele>741.0</ele><time>2026-04-19T10:24:57.327Z</time></trkpt><trkpt lat="44.7401384" lon="9.7289449"><ele>741.0</ele><time>2026-04-19T10:24:58.35Z</time></trkpt><trkpt lat="44.7401879" lon="9.7288884"><ele>741.0</ele><time>2026-04-19T10:24:59.328Z</time></trkpt><trkpt lat="44.7402478" lon="9.7288324"><ele>741.0</ele><time>2026-04-19T10:25:00.334Z</time></trkpt><trkpt lat="44.7403217" lon="9.7287696"><ele>741.0</ele><time>2026-04-19T10:25:01.323Z</time></trkpt><trkpt lat="44.7404066" lon="9.728708"><ele>741.0</ele><time>2026-04-19T10:25:02.347Z</time></trkpt><trkpt lat="44.7404979" lon="9.7286552"><ele>742.6666666666666</ele><time>2026-04-19T10:25:03.344Z</time></trkpt><trkpt lat="44.7405853" lon="9.7286145"><ele>744.3333333333334</ele><time>2026-04-19T10:25:04.319Z</time></trkpt><trkpt lat="44.7406683" lon="9.7285775"><ele>746.0</ele><time>2026-04-19T10:25:05.343Z</time></trkpt><trkpt lat="44.7407526" lon="9.7285323"><ele>747.6666666666667</ele><time>2026-04-19T10:25:06.328Z</time></trkpt><trkpt lat="44.7408408" lon="9.7284775"><ele>749.3333333333334</ele><time>2026-04-19T10:25:07.325Z</time></trkpt><trkpt lat="44.7409151" lon="9.728428"><ele>751.0</ele><time>2026-04-19T10:25:08.337Z</time></trkpt><trkpt lat="44.7409729" lon="9.7283876"><ele>754.0</ele><time>2026-04-19T10:25:09.34Z</time></trkpt><trkpt lat="44.7410812" lon="9.7283817"><ele>757.0</ele><time>2026-04-19T10:25:11.344Z</time></trkpt><trkpt lat="44.7412026" lon="9.7284485"><ele>760.0</ele><time>2026-04-19T10:25:13.338Z</time></trkpt><trkpt lat="44.7412688" lon="9.7284678"><ele>763.0</ele><time>2026-04-19T10:25:14.339Z</time></trkpt><trkpt lat="44.7414051" lon="9.7284402"><ele>766.0</ele><time>2026-04-19T10:25:16.349Z</time></trkpt><trkpt lat="44.741499" lon="9.7283819"><ele>766.0</ele><time>2026-04-19T10:25:17.344Z</time></trkpt><trkpt lat="44.7415915" lon="9.7283188"><ele>766.0</ele><time>2026-04-19T10:25:18.335Z</time></trkpt><trkpt lat="44.7416765" lon="9.7282667"><ele>766.0</ele><time>2026-04-19T10:25:19.349Z</time></trkpt><trkpt lat="44.7417462" lon="9.7282214"><ele>766.0</ele><time>2026-04-19T10:25:20.348Z</time></trkpt><trkpt lat="44.7418131" lon="9.728194"><ele>766.0</ele><time>2026-04-19T10:25:21.326Z</time></trkpt><trkpt lat="44.7418856" lon="9.7281772"><ele>766.0</ele><time>2026-04-19T10:25:22.344Z</time></trkpt><trkpt lat="44.7419567" lon="9.728171"><ele>768.0</ele><time>2026-04-19T10:25:23.328Z</time></trkpt><trkpt lat="44.7420404" lon="9.7281647"><ele>770.0</ele><time>2026-04-19T10:25:24.34Z</time></trkpt><trkpt lat="44.7421283" lon="9.7281659"><ele>772.0</ele><time>2026-04-19T10:25:25.335Z</time></trkpt><trkpt lat="44.7422124" lon="9.7281613"><ele>774.0</ele><time>2026-04-19T10:25:26.329Z</time></trkpt><trkpt lat="44.7422934" lon="9.728143"><ele>775.9999999999999</ele><time>2026-04-19T10:25:27.342Z</time></trkpt><trkpt lat="44.7423747" lon="9.7281109"><ele>778.0</ele><time>2026-04-19T10:25:28.346Z</time></trkpt><trkpt lat="44.742451" lon="9.7280889"><ele>777.9999999999999</ele><time>2026-04-19T10:25:29.342Z</time></trkpt><trkpt lat="44.742519" lon="9.7280716"><ele>778.0</ele><time>2026-04-19T10:25:30.346Z</time></trkpt><trkpt lat="44.7426512" lon="9.7280629"><ele>778.0</ele><time>2026-04-19T10:25:32.326Z</time></trkpt><trkpt lat="44.7427267" lon="9.7280456"><ele>778.0</ele><time>2026-04-19T10:25:33.332Z</time></trkpt><trkpt lat="44.7428084" lon="9.7280125"><ele>777.9999999999999</ele><time>2026-04-19T10:25:34.341Z</time></trkpt><trkpt lat="44.7428872" lon="9.727967"><ele>778.0</ele><time>2026-04-19T10:25:35.328Z</time></trkpt><trkpt lat="44.742962" lon="9.7279091"><ele>780.8333333333333</ele><time>2026-04-19T10:25:36.336Z</time></trkpt><trkpt lat="44.7430295" lon="9.7278631"><ele>783.6666666666666</ele><time>2026-04-19T10:25:37.335Z</time></trkpt><trkpt lat="44.7430916" lon="9.7278324"><ele>786.5</ele><time>2026-04-19T10:25:38.346Z</time></trkpt><trkpt lat="44.7432022" lon="9.7278173"><ele>789.3333333333333</ele><time>2026-04-19T10:25:40.338Z</time></trkpt><trkpt lat="44.7432635" lon="9.7277526"><ele>792.1666666666666</ele><time>2026-04-19T10:25:42.335Z</time></trkpt><trkpt lat="44.7433275" lon="9.7276753"><ele>795.0</ele><time>2026-04-19T10:25:44.334Z</time></trkpt><trkpt lat="44.7434017" lon="9.7276037"><ele>796.2</ele><time>2026-04-19T10:25:46.334Z</time></trkpt><trkpt lat="44.7434329" lon="9.7274657"><ele>797.4</ele><time>2026-04-19T10:25:48.318Z</time></trkpt><trkpt lat="44.7434206" lon="9.7272971"><ele>798.5999999999999</ele><time>2026-04-19T10:25:50.332Z</time></trkpt><trkpt lat="44.7434314" lon="9.7271956"><ele>799.8</ele><time>2026-04-19T10:25:51.335Z</time></trkpt><trkpt lat="44.7434599" lon="9.7270753"><ele>801.0</ele><time>2026-04-19T10:25:52.329Z</time></trkpt><trkpt lat="44.7434854" lon="9.7269624"><ele>802.0</ele><time>2026-04-19T10:25:53.335Z</time></trkpt><trkpt lat="44.7435084" lon="9.7268563"><ele>803.0</ele><time>2026-04-19T10:25:54.329Z</time></trkpt><trkpt lat="44.7435253" lon="9.7267688"><ele>804.0</ele><time>2026-04-19T10:25:55.332Z</time></trkpt><trkpt lat="44.7435732" lon="9.7266277"><ele>805.0</ele><time>2026-04-19T10:25:57.333Z</time></trkpt><trkpt lat="44.7436662" lon="9.7265028"><ele>806.0</ele><time>2026-04-19T10:25:59.332Z</time></trkpt><trkpt lat="44.7437279" lon="9.7264336"><ele>808.2857142857143</ele><time>2026-04-19T10:26:00.329Z</time></trkpt><trkpt lat="44.7437911" lon="9.7263544"><ele>810.5714285714286</ele><time>2026-04-19T10:26:01.326Z</time></trkpt><trkpt lat="44.7438473" lon="9.7262828"><ele>812.8571428571429</ele><time>2026-04-19T10:26:02.323Z</time></trkpt><trkpt lat="44.7438976" lon="9.7262122"><ele>815.1428571428571</ele><time>2026-04-19T10:26:03.328Z</time></trkpt><trkpt lat="44.7439491" lon="9.7261338"><ele>817.4285714285713</ele><time>2026-04-19T10:26:04.32Z</time></trkpt><trkpt lat="44.7439997" lon="9.7260586"><ele>819.7142857142857</ele><time>2026-04-19T10:26:05.333Z</time></trkpt><trkpt lat="44.7440413" lon="9.725986"><ele>822.0</ele><time>2026-04-19T10:26:06.317Z</time></trkpt><trkpt lat="44.7441111" lon="9.7258907"><ele>822.8333333333334</ele><time>2026-04-19T10:26:08.321Z</time></trkpt><trkpt lat="44.7441824" lon="9.7258229"><ele>823.6666666666667</ele><time>2026-04-19T10:26:10.335Z</time></trkpt><trkpt lat="44.7442356" lon="9.7257474"><ele>824.5</ele><time>2026-04-19T10:26:11.334Z</time></trkpt><trkpt lat="44.7442853" lon="9.7256596"><ele>825.3333333333334</ele><time>2026-04-19T10:26:12.328Z</time></trkpt><trkpt lat="44.744328" lon="9.7255864"><ele>826.1666666666667</ele><time>2026-04-19T10:26:13.325Z</time></trkpt><trkpt lat="44.744374" lon="9.725515"><ele>827.0</ele><time>2026-04-19T10:26:14.33Z</time></trkpt><trkpt lat="44.7444257" lon="9.7253829"><ele>827.3333333333334</ele><time>2026-04-19T10:26:16.328Z</time></trkpt><trkpt lat="44.7445063" lon="9.7252484"><ele>827.6666666666667</ele><time>2026-04-19T10:26:18.328Z</time></trkpt><trkpt lat="44.7445425" lon="9.7251692"><ele>828.0</ele><time>2026-04-19T10:26:19.324Z</time></trkpt><trkpt lat="44.7445731" lon="9.7250865"><ele>828.3333333333333</ele><time>2026-04-19T10:26:20.34Z</time></trkpt><trkpt lat="44.7446125" lon="9.7250141"><ele>828.6666666666666</ele><time>2026-04-19T10:26:21.322Z</time></trkpt><trkpt lat="44.7446623" lon="9.7249384"><ele>829.0</ele><time>2026-04-19T10:26:22.336Z</time></trkpt><trkpt lat="44.7447208" lon="9.7248672"><ele>830.5714285714286</ele><time>2026-04-19T10:26:23.324Z</time></trkpt><trkpt lat="44.7447848" lon="9.7248028"><ele>832.1428571428571</ele><time>2026-04-19T10:26:24.33Z</time></trkpt><trkpt lat="44.7448483" lon="9.7247597"><ele>833.7142857142858</ele><time>2026-04-19T10:26:25.326Z</time></trkpt><trkpt lat="44.7449137" lon="9.7247219"><ele>835.2857142857142</ele><time>2026-04-19T10:26:26.351Z</time></trkpt><trkpt lat="44.7449741" lon="9.7246871"><ele>836.8571428571429</ele><time>2026-04-19T10:26:27.334Z</time></trkpt><trkpt lat="44.7450364" lon="9.7246357"><ele>838.4285714285714</ele><time>2026-04-19T10:26:28.327Z</time></trkpt><trkpt lat="44.7451041" lon="9.7245627"><ele>840.0</ele><time>2026-04-19T10:26:29.336Z</time></trkpt><trkpt lat="44.7451575" lon="9.7244978"><ele>840.0</ele><time>2026-04-19T10:26:30.334Z</time></trkpt><trkpt lat="44.7452112" lon="9.7244442"><ele>840.0</ele><time>2026-04-19T10:26:31.326Z</time></trkpt><trkpt lat="44.7453355" lon="9.7244223"><ele>840.0</ele><time>2026-04-19T10:26:33.32Z</time></trkpt><trkpt lat="44.7454129" lon="9.7243995"><ele>840.0</ele><time>2026-04-19T10:26:34.333Z</time></trkpt><trkpt lat="44.7454877" lon="9.724386"><ele>840.0</ele><time>2026-04-19T10:26:35.326Z</time></trkpt><trkpt lat="44.7455615" lon="9.7243743"><ele>840.0</ele><time>2026-04-19T10:26:36.34Z</time></trkpt><trkpt lat="44.7456367" lon="9.7243718"><ele>844.0</ele><time>2026-04-19T10:26:37.323Z</time></trkpt><trkpt lat="44.7457209" lon="9.7243692"><ele>848.0</ele><time>2026-04-19T10:26:38.335Z</time></trkpt><trkpt lat="44.7458153" lon="9.724371"><ele>852.0</ele><time>2026-04-19T10:26:39.327Z</time></trkpt><trkpt lat="44.7459187" lon="9.7243676"><ele>856.0</ele><time>2026-04-19T10:26:40.324Z</time></trkpt><trkpt lat="44.7460124" lon="9.7243585"><ele>860.0</ele><time>2026-04-19T10:26:41.336Z</time></trkpt><trkpt lat="44.746088" lon="9.7243527"><ele>862.6666666666667</ele><time>2026-04-19T10:26:42.334Z</time></trkpt><trkpt lat="44.7461564" lon="9.7243433"><ele>865.3333333333334</ele><time>2026-04-19T10:26:43.332Z</time></trkpt><trkpt lat="44.7462225" lon="9.724323"><ele>868.0</ele><time>2026-04-19T10:26:44.334Z</time></trkpt><trkpt lat="44.7462854" lon="9.7242835"><ele>870.6666666666667</ele><time>2026-04-19T10:26:45.326Z</time></trkpt><trkpt lat="44.7463902" lon="9.7241812"><ele>873.3333333333334</ele><time>2026-04-19T10:26:47.327Z</time></trkpt><trkpt lat="44.7464397" lon="9.7241213"><ele>876.0</ele><time>2026-04-19T10:26:48.339Z</time></trkpt><trkpt lat="44.7465252" lon="9.7240162"><ele>876.0</ele><time>2026-04-19T10:26:50.324Z</time></trkpt><trkpt lat="44.7466131" lon="9.7239215"><ele>875.9999999999999</ele><time>2026-04-19T10:26:52.34Z</time></trkpt><trkpt lat="44.7467081" lon="9.7238211"><ele>875.9999999999999</ele><time>2026-04-19T10:26:54.33Z</time></trkpt><trkpt lat="44.7468056" lon="9.7237449"><ele>876.0</ele><time>2026-04-19T10:26:56.316Z</time></trkpt><trkpt lat="44.7468818" lon="9.723667"><ele>876.0</ele><time>2026-04-19T10:26:58.33Z</time></trkpt><trkpt lat="44.746972" lon="9.7236192"><ele>881.1999999999999</ele><time>2026-04-19T10:27:00.325Z</time></trkpt><trkpt lat="44.7470484" lon="9.7236053"><ele>886.3999999999999</ele><time>2026-04-19T10:27:02.321Z</time></trkpt><trkpt lat="44.7470931" lon="9.7237122"><ele>891.6</ele><time>2026-04-19T10:27:24.324Z</time></trkpt><trkpt lat="44.7471516" lon="9.7238471"><ele>896.8</ele><time>2026-04-19T10:27:26.318Z</time></trkpt><trkpt lat="44.7472233" lon="9.7239566"><ele>902.0</ele><time>2026-04-19T10:27:28.323Z</time></trkpt><trkpt lat="44.7473132" lon="9.7240904"><ele>902.0000000000001</ele><time>2026-04-19T10:27:30.324Z</time></trkpt><trkpt lat="44.7473699" lon="9.7241537"><ele>902.0</ele><time>2026-04-19T10:27:31.339Z</time></trkpt><trkpt lat="44.7474241" lon="9.7242368"><ele>902.0</ele><time>2026-04-19T10:27:32.334Z</time></trkpt><trkpt lat="44.747468" lon="9.7243168"><ele>902.0</ele><time>2026-04-19T10:27:33.339Z</time></trkpt><trkpt lat="44.747502" lon="9.7243955"><ele>902.0000000000001</ele><time>2026-04-19T10:27:34.336Z</time></trkpt><trkpt lat="44.7475398" lon="9.7245377"><ele>902.0</ele><time>2026-04-19T10:27:36.329Z</time></trkpt><trkpt lat="44.7475655" lon="9.7246499"><ele>898.8</ele><time>2026-04-19T10:27:38.343Z</time></trkpt><trkpt lat="44.7475867" lon="9.7247781"><ele>895.6</ele><time>2026-04-19T10:27:40.326Z</time></trkpt><trkpt lat="44.7476246" lon="9.7249261"><ele>892.3999999999999</ele><time>2026-04-19T10:27:42.32Z</time></trkpt><trkpt lat="44.7476651" lon="9.7250768"><ele>889.1999999999999</ele><time>2026-04-19T10:27:44.322Z</time></trkpt><trkpt lat="44.7476808" lon="9.7252146"><ele>886.0</ele><time>2026-04-19T10:27:46.333Z</time></trkpt><trkpt lat="44.7476844" lon="9.7253964"><ele>883.2857142857143</ele><time>2026-04-19T10:27:48.345Z</time></trkpt><trkpt lat="44.7476809" lon="9.7255083"><ele>880.5714285714287</ele><time>2026-04-19T10:27:49.333Z</time></trkpt><trkpt lat="44.7476737" lon="9.7256353"><ele>877.8571428571429</ele><time>2026-04-19T10:27:50.33Z</time></trkpt><trkpt lat="44.7476784" lon="9.7257295"><ele>875.1428571428571</ele><time>2026-04-19T10:27:51.329Z</time></trkpt><trkpt lat="44.747683" lon="9.7258223"><ele>872.4285714285714</ele><time>2026-04-19T10:27:52.332Z</time></trkpt><trkpt lat="44.7476871" lon="9.725928"><ele>869.7142857142857</ele><time>2026-04-19T10:27:53.323Z</time></trkpt><trkpt lat="44.7476907" lon="9.7260213"><ele>867.0</ele><time>2026-04-19T10:27:54.32Z</time></trkpt><trkpt lat="44.7476947" lon="9.7261161"><ele>865.1666666666666</ele><time>2026-04-19T10:27:55.319Z</time></trkpt><trkpt lat="44.7476879" lon="9.726219"><ele>863.3333333333333</ele><time>2026-04-19T10:27:56.329Z</time></trkpt><trkpt lat="44.7476755" lon="9.726338"><ele>861.5</ele><time>2026-04-19T10:27:57.328Z</time></trkpt><trkpt lat="44.7476545" lon="9.7264406"><ele>859.6666666666666</ele><time>2026-04-19T10:27:58.331Z</time></trkpt><trkpt lat="44.7476235" lon="9.7265587"><ele>857.8333333333333</ele><time>2026-04-19T10:27:59.327Z</time></trkpt><trkpt lat="44.7475856" lon="9.7266652"><ele>856.0</ele><time>2026-04-19T10:28:00.324Z</time></trkpt><trkpt lat="44.7475474" lon="9.726767"><ele>855.9999999999999</ele><time>2026-04-19T10:28:01.33Z</time></trkpt><trkpt lat="44.7475274" lon="9.7268754"><ele>856.0</ele><time>2026-04-19T10:28:02.326Z</time></trkpt><trkpt lat="44.7475304" lon="9.7269845"><ele>856.0</ele><time>2026-04-19T10:28:03.338Z</time></trkpt><trkpt lat="44.747537" lon="9.7270988"><ele>856.0</ele><time>2026-04-19T10:28:04.325Z</time></trkpt><trkpt lat="44.7475398" lon="9.7272183"><ele>855.9999999999999</ele><time>2026-04-19T10:28:05.317Z</time></trkpt><trkpt lat="44.7475201" lon="9.7273201"><ele>856.0</ele><time>2026-04-19T10:28:06.33Z</time></trkpt><trkpt lat="44.7474854" lon="9.7274125"><ele>853.8</ele><time>2026-04-19T10:28:07.33Z</time></trkpt><trkpt lat="44.747453" lon="9.7274958"><ele>851.5999999999999</ele><time>2026-04-19T10:28:08.334Z</time></trkpt><trkpt lat="44.7473806" lon="9.7276408"><ele>849.4</ele><time>2026-04-19T10:28:10.329Z</time></trkpt><trkpt lat="44.7473087" lon="9.7277785"><ele>847.2</ele><time>2026-04-19T10:28:12.329Z</time></trkpt><trkpt lat="44.7472332" lon="9.7279157"><ele>845.0</ele><time>2026-04-19T10:28:14.331Z</time></trkpt><trkpt lat="44.7471974" lon="9.7279902"><ele>843.0</ele><time>2026-04-19T10:28:15.333Z</time></trkpt><trkpt lat="44.7471291" lon="9.7281247"><ele>841.0</ele><time>2026-04-19T10:28:17.332Z</time></trkpt><trkpt lat="44.7470891" lon="9.7282435"><ele>839.0</ele><time>2026-04-19T10:28:19.322Z</time></trkpt><trkpt lat="44.7470484" lon="9.7283482"><ele>837.0</ele><time>2026-04-19T10:28:21.33Z</time></trkpt><trkpt lat="44.7470228" lon="9.7284604"><ele>835.0</ele><time>2026-04-19T10:28:23.319Z</time></trkpt><trkpt lat="44.7470277" lon="9.7286004"><ele>832.6</ele><time>2026-04-19T10:28:25.32Z</time></trkpt><trkpt lat="44.7470556" lon="9.7287349"><ele>830.2</ele><time>2026-04-19T10:28:27.331Z</time></trkpt><trkpt lat="44.7471326" lon="9.7287924"><ele>827.8</ele><time>2026-04-19T10:28:30.32Z</time></trkpt><trkpt lat="44.7472283" lon="9.7287429"><ele>825.4</ele><time>2026-04-19T10:28:33.323Z</time></trkpt><trkpt lat="44.747346" lon="9.7286729"><ele>823.0</ele><time>2026-04-19T10:28:35.325Z</time></trkpt><trkpt lat="44.7474125" lon="9.7286263"><ele>823.0</ele><time>2026-04-19T10:28:36.336Z</time></trkpt><trkpt lat="44.7475076" lon="9.7285597"><ele>823.0</ele><time>2026-04-19T10:28:38.321Z</time></trkpt><trkpt lat="44.7475898" lon="9.7284759"><ele>823.0</ele><time>2026-04-19T10:28:41.322Z</time></trkpt><trkpt lat="44.7476628" lon="9.7284081"><ele>823.0</ele><time>2026-04-19T10:28:43.333Z</time></trkpt><trkpt lat="44.7477755" lon="9.7283396"><ele>823.0</ele><time>2026-04-19T10:28:45.326Z</time></trkpt><trkpt lat="44.7478478" lon="9.728326"><ele>826.2</ele><time>2026-04-19T10:28:46.316Z</time></trkpt><trkpt lat="44.7479511" lon="9.7283501"><ele>829.4</ele><time>2026-04-19T10:28:48.316Z</time></trkpt><trkpt lat="44.7480111" lon="9.7282833"><ele>832.6</ele><time>2026-04-19T10:28:50.332Z</time></trkpt><trkpt lat="44.7481003" lon="9.728209"><ele>835.8000000000001</ele><time>2026-04-19T10:28:52.319Z</time></trkpt><trkpt lat="44.7481821" lon="9.728127"><ele>839.0</ele><time>2026-04-19T10:28:54.331Z</time></trkpt><trkpt lat="44.7482487" lon="9.7279849"><ele>839.0000000000001</ele><time>2026-04-19T10:28:56.336Z</time></trkpt><trkpt lat="44.748283" lon="9.7279078"><ele>839.0</ele><time>2026-04-19T10:28:57.338Z</time></trkpt><trkpt lat="44.7483405" lon="9.7278275"><ele>839.0</ele><time>2026-04-19T10:28:59.335Z</time></trkpt><trkpt lat="44.7484299" lon="9.7278475"><ele>839.0</ele><time>2026-04-19T10:29:01.346Z</time></trkpt><trkpt lat="44.74853" lon="9.7279034"><ele>839.0000000000001</ele><time>2026-04-19T10:29:03.331Z</time></trkpt><trkpt lat="44.7486098" lon="9.7279462"><ele>839.0</ele><time>2026-04-19T10:29:13.319Z</time></trkpt><trkpt lat="44.7485166" lon="9.7279308"><ele>839.0000000000001</ele><time>2026-04-19T10:29:32.322Z</time></trkpt><trkpt lat="44.7484441" lon="9.7278854"><ele>839.0</ele><time>2026-04-19T10:29:34.321Z</time></trkpt><trkpt lat="44.7483665" lon="9.7278542"><ele>839.0</ele><time>2026-04-19T10:29:36.329Z</time></trkpt><trkpt lat="44.7483102" lon="9.7279429"><ele>839.0</ele><time>2026-04-19T10:29:39.334Z</time></trkpt><trkpt lat="44.7482718" lon="9.7280603"><ele>839.0000000000001</ele><time>2026-04-19T10:29:41.337Z</time></trkpt><trkpt lat="44.7482097" lon="9.7281561"><ele>839.0</ele><time>2026-04-19T10:29:43.332Z</time></trkpt><trkpt lat="44.7481255" lon="9.7282336"><ele>839.0000000000001</ele><time>2026-04-19T10:29:45.324Z</time></trkpt><trkpt lat="44.7480605" lon="9.7283086"><ele>839.0</ele><time>2026-04-19T10:29:47.327Z</time></trkpt><trkpt lat="44.7480315" lon="9.7283908"><ele>839.0</ele><time>2026-04-19T10:29:49.329Z</time></trkpt><trkpt lat="44.7480773" lon="9.728535"><ele>839.0</ele><time>2026-04-19T10:29:52.329Z</time></trkpt><trkpt lat="44.7481103" lon="9.7286528"><ele>839.0000000000001</ele><time>2026-04-19T10:29:54.32Z</time></trkpt><trkpt lat="44.7481416" lon="9.728755"><ele>839.0</ele><time>2026-04-19T10:29:56.326Z</time></trkpt><trkpt lat="44.7482025" lon="9.7288697"><ele>840.6666666666667</ele><time>2026-04-19T10:29:58.335Z</time></trkpt><trkpt lat="44.7482914" lon="9.7289958"><ele>842.3333333333334</ele><time>2026-04-19T10:30:00.333Z</time></trkpt><trkpt lat="44.748337" lon="9.7290634"><ele>844.0</ele><time>2026-04-19T10:30:01.347Z</time></trkpt><trkpt lat="44.7483879" lon="9.7291321"><ele>845.6666666666667</ele><time>2026-04-19T10:30:02.327Z</time></trkpt><trkpt lat="44.748439" lon="9.7292048"><ele>847.3333333333334</ele><time>2026-04-19T10:30:03.315Z</time></trkpt><trkpt lat="44.7484972" lon="9.7292685"><ele>849.0</ele><time>2026-04-19T10:30:04.339Z</time></trkpt><trkpt lat="44.7485618" lon="9.7293491"><ele>845.0000000000001</ele><time>2026-04-19T10:30:05.34Z</time></trkpt><trkpt lat="44.7486249" lon="9.7294265"><ele>841.0</ele><time>2026-04-19T10:30:06.34Z</time></trkpt><trkpt lat="44.7486821" lon="9.7294897"><ele>837.0</ele><time>2026-04-19T10:30:07.324Z</time></trkpt><trkpt lat="44.7487276" lon="9.7295573"><ele>833.0</ele><time>2026-04-19T10:30:08.345Z</time></trkpt><trkpt lat="44.7487618" lon="9.7296372"><ele>829.0</ele><time>2026-04-19T10:30:09.338Z</time></trkpt><trkpt lat="44.7487875" lon="9.7297332"><ele>825.0000000000001</ele><time>2026-04-19T10:30:10.325Z</time></trkpt><trkpt lat="44.7488196" lon="9.7298349"><ele>821.0</ele><time>2026-04-19T10:30:11.341Z</time></trkpt><trkpt lat="44.7488745" lon="9.7299336"><ele>821.0</ele><time>2026-04-19T10:30:12.326Z</time></trkpt><trkpt lat="44.7489302" lon="9.7300131"><ele>821.0</ele><time>2026-04-19T10:30:13.331Z</time></trkpt><trkpt lat="44.7489918" lon="9.7300994"><ele>821.0</ele><time>2026-04-19T10:30:14.319Z</time></trkpt><trkpt lat="44.74906" lon="9.7301887"><ele>821.0</ele><time>2026-04-19T10:30:15.327Z</time></trkpt><trkpt lat="44.7491215" lon="9.7302874"><ele>821.0</ele><time>2026-04-19T10:30:16.324Z</time></trkpt><trkpt lat="44.7491836" lon="9.730393"><ele>822.6666666666667</ele><time>2026-04-19T10:30:17.324Z</time></trkpt><trkpt lat="44.7492336" lon="9.7304914"><ele>824.3333333333334</ele><time>2026-04-19T10:30:18.337Z</time></trkpt><trkpt lat="44.7492914" lon="9.7305889"><ele>826.0</ele><time>2026-04-19T10:30:19.339Z</time></trkpt><trkpt lat="44.7493485" lon="9.7306782"><ele>827.6666666666667</ele><time>2026-04-19T10:30:20.344Z</time></trkpt><trkpt lat="44.7494046" lon="9.7307655"><ele>829.3333333333334</ele><time>2026-04-19T10:30:21.343Z</time></trkpt><trkpt lat="44.7494587" lon="9.7308469"><ele>831.0</ele><time>2026-04-19T10:30:22.328Z</time></trkpt><trkpt lat="44.7495018" lon="9.730936"><ele>831.0</ele><time>2026-04-19T10:30:23.324Z</time></trkpt><trkpt lat="44.7495355" lon="9.73104"><ele>831.0</ele><time>2026-04-19T10:30:24.322Z</time></trkpt><trkpt lat="44.7495563" lon="9.7311437"><ele>831.0</ele><time>2026-04-19T10:30:25.326Z</time></trkpt><trkpt lat="44.7495951" lon="9.7312281"><ele>831.0</ele><time>2026-04-19T10:30:26.329Z</time></trkpt><trkpt lat="44.7497012" lon="9.7313367"><ele>831.0</ele><time>2026-04-19T10:30:28.32Z</time></trkpt><trkpt lat="44.7497676" lon="9.7314019"><ele>831.0</ele><time>2026-04-19T10:30:29.326Z</time></trkpt><trkpt lat="44.7498171" lon="9.7314787"><ele>827.5</ele><time>2026-04-19T10:30:30.321Z</time></trkpt><trkpt lat="44.7498634" lon="9.7315577"><ele>824.0</ele><time>2026-04-19T10:30:31.326Z</time></trkpt><trkpt lat="44.7499131" lon="9.7316555"><ele>820.5</ele><time>2026-04-19T10:30:32.326Z</time></trkpt><trkpt lat="44.7499625" lon="9.7317368"><ele>817.0</ele><time>2026-04-19T10:30:33.323Z</time></trkpt><trkpt lat="44.7500033" lon="9.7318251"><ele>813.5</ele><time>2026-04-19T10:30:34.321Z</time></trkpt><trkpt lat="44.7500423" lon="9.7319231"><ele>810.0</ele><time>2026-04-19T10:30:35.333Z</time></trkpt><trkpt lat="44.7500676" lon="9.7320369"><ele>807.0</ele><time>2026-04-19T10:30:36.321Z</time></trkpt><trkpt lat="44.7500839" lon="9.7321518"><ele>804.0</ele><time>2026-04-19T10:30:37.317Z</time></trkpt><trkpt lat="44.7501116" lon="9.7322653"><ele>801.0</ele><time>2026-04-19T10:30:38.321Z</time></trkpt><trkpt lat="44.7501633" lon="9.7323787"><ele>798.0</ele><time>2026-04-19T10:30:39.328Z</time></trkpt><trkpt lat="44.7502089" lon="9.7324915"><ele>795.0</ele><time>2026-04-19T10:30:40.328Z</time></trkpt><trkpt lat="44.7502477" lon="9.7326036"><ele>792.0</ele><time>2026-04-19T10:30:41.32Z</time></trkpt><trkpt lat="44.7502762" lon="9.7327133"><ele>795.5</ele><time>2026-04-19T10:30:42.321Z</time></trkpt><trkpt lat="44.7502991" lon="9.7328269"><ele>799.0</ele><time>2026-04-19T10:30:43.315Z</time></trkpt><trkpt lat="44.7503223" lon="9.7329381"><ele>802.5</ele><time>2026-04-19T10:30:44.333Z</time></trkpt><trkpt lat="44.7503417" lon="9.7330419"><ele>806.0</ele><time>2026-04-19T10:30:45.319Z</time></trkpt><trkpt lat="44.7503548" lon="9.7331513"><ele>809.5</ele><time>2026-04-19T10:30:46.318Z</time></trkpt><trkpt lat="44.7503616" lon="9.7332516"><ele>813.0</ele><time>2026-04-19T10:30:47.325Z</time></trkpt><trkpt lat="44.7503585" lon="9.733351"><ele>813.0</ele><time>2026-04-19T10:30:48.315Z</time></trkpt><trkpt lat="44.7503452" lon="9.7334535"><ele>813.0</ele><time>2026-04-19T10:30:49.325Z</time></trkpt><trkpt lat="44.7503386" lon="9.7335578"><ele>813.0</ele><time>2026-04-19T10:30:50.321Z</time></trkpt><trkpt lat="44.7503344" lon="9.7336571"><ele>813.0</ele><time>2026-04-19T10:30:51.323Z</time></trkpt><trkpt lat="44.7502768" lon="9.7337963"><ele>813.0</ele><time>2026-04-19T10:30:53.313Z</time></trkpt><trkpt lat="44.7502338" lon="9.7338719"><ele>813.0</ele><time>2026-04-19T10:30:54.333Z</time></trkpt><trkpt lat="44.750178" lon="9.7339264"><ele>805.5</ele><time>2026-04-19T10:30:55.328Z</time></trkpt><trkpt lat="44.7501009" lon="9.7339657"><ele>798.0</ele><time>2026-04-19T10:30:56.312Z</time></trkpt><trkpt lat="44.7500192" lon="9.7340019"><ele>790.5</ele><time>2026-04-19T10:30:57.325Z</time></trkpt><trkpt lat="44.7499553" lon="9.7340337"><ele>783.0</ele><time>2026-04-19T10:30:58.321Z</time></trkpt><trkpt lat="44.749892" lon="9.7340488"><ele>775.5</ele><time>2026-04-19T10:31:08.316Z</time></trkpt><trkpt lat="44.7498559" lon="9.7341842"><ele>768.0</ele><time>2026-04-19T10:31:27.322Z</time></trkpt><trkpt lat="44.7498429" lon="9.7342833"><ele>765.8333333333334</ele><time>2026-04-19T10:31:28.328Z</time></trkpt><trkpt lat="44.7498279" lon="9.7343915"><ele>763.6666666666666</ele><time>2026-04-19T10:31:29.322Z</time></trkpt><trkpt lat="44.7498185" lon="9.7344869"><ele>761.5</ele><time>2026-04-19T10:31:30.323Z</time></trkpt><trkpt lat="44.7498413" lon="9.7346035"><ele>759.3333333333333</ele><time>2026-04-19T10:31:32.321Z</time></trkpt><trkpt lat="44.7498873" lon="9.7347251"><ele>757.1666666666666</ele><time>2026-04-19T10:31:34.333Z</time></trkpt><trkpt lat="44.7499085" lon="9.7348673"><ele>755.0</ele><time>2026-04-19T10:31:36.331Z</time></trkpt><trkpt lat="44.7498588" lon="9.7350256"><ele>755.0</ele><time>2026-04-19T10:31:38.332Z</time></trkpt><trkpt lat="44.7498159" lon="9.7351136"><ele>755.0</ele><time>2026-04-19T10:31:39.317Z</time></trkpt><trkpt lat="44.7497753" lon="9.7352019"><ele>755.0</ele><time>2026-04-19T10:31:40.332Z</time></trkpt><trkpt lat="44.7497363" lon="9.7352842"><ele>755.0</ele><time>2026-04-19T10:31:41.329Z</time></trkpt><trkpt lat="44.7496802" lon="9.7353954"><ele>755.0</ele><time>2026-04-19T10:31:43.333Z</time></trkpt><trkpt lat="44.7496467" lon="9.7355175"><ele>755.0</ele><time>2026-04-19T10:31:45.334Z</time></trkpt><trkpt lat="44.749573" lon="9.7356418"><ele>753.3333333333333</ele><time>2026-04-19T10:31:47.344Z</time></trkpt><trkpt lat="44.7495015" lon="9.7357386"><ele>751.6666666666666</ele><time>2026-04-19T10:31:49.328Z</time></trkpt><trkpt lat="44.7494866" lon="9.7358384"><ele>750.0</ele><time>2026-04-19T10:31:52.329Z</time></trkpt><trkpt lat="44.7494167" lon="9.7358291"><ele>748.3333333333334</ele><time>2026-04-19T10:32:16.329Z</time></trkpt><trkpt lat="44.749341" lon="9.7358723"><ele>746.6666666666667</ele><time>2026-04-19T10:32:21.319Z</time></trkpt><trkpt lat="44.7492846" lon="9.7359167"><ele>745.0</ele><time>2026-04-19T10:32:24.341Z</time></trkpt><trkpt lat="44.7493325" lon="9.7358459"><ele>745.0</ele><time>2026-04-19T10:32:44.333Z</time></trkpt><trkpt lat="44.7493956" lon="9.7357873"><ele>745.0</ele><time>2026-04-19T10:32:46.342Z</time></trkpt><trkpt lat="44.7494708" lon="9.7357437"><ele>745.0</ele><time>2026-04-19T10:32:48.34Z</time></trkpt><trkpt lat="44.7495363" lon="9.7356588"><ele>745.0</ele><time>2026-04-19T10:32:50.343Z</time></trkpt><trkpt lat="44.7496186" lon="9.7355498"><ele>745.0</ele><time>2026-04-19T10:32:52.346Z</time></trkpt><trkpt lat="44.7496576" lon="9.7354801"><ele>745.0</ele><time>2026-04-19T10:32:53.334Z</time></trkpt><trkpt lat="44.7497364" lon="9.7354711"><ele>745.0</ele><time>2026-04-19T10:32:57.338Z</time></trkpt><trkpt lat="44.7498163" lon="9.7355843"><ele>745.0</ele><time>2026-04-19T10:32:59.338Z</time></trkpt><trkpt lat="44.7498752" lon="9.7356825"><ele>745.0</ele><time>2026-04-19T10:33:01.339Z</time></trkpt><trkpt lat="44.7498603" lon="9.7358551"><ele>745.0</ele><time>2026-04-19T10:33:03.325Z</time></trkpt><trkpt lat="44.7498338" lon="9.7359462"><ele>745.0</ele><time>2026-04-19T10:33:04.34Z</time></trkpt><trkpt lat="44.7497944" lon="9.7360861"><ele>743.0</ele><time>2026-04-19T10:33:06.351Z</time></trkpt><trkpt lat="44.7497727" lon="9.7362217"><ele>741.0</ele><time>2026-04-19T10:33:08.336Z</time></trkpt><trkpt lat="44.7497344" lon="9.7363879"><ele>739.0</ele><time>2026-04-19T10:33:10.328Z</time></trkpt><trkpt lat="44.7496879" lon="9.7365471"><ele>737.0</ele><time>2026-04-19T10:33:12.345Z</time></trkpt><trkpt lat="44.7496502" lon="9.7366953"><ele>737.0</ele><time>2026-04-19T10:33:14.335Z</time></trkpt><trkpt lat="44.7496233" lon="9.7368128"><ele>737.0</ele><time>2026-04-19T10:33:16.337Z</time></trkpt><trkpt lat="44.7496033" lon="9.7369426"><ele>737.0</ele><time>2026-04-19T10:33:18.323Z</time></trkpt><trkpt lat="44.7496024" lon="9.7371059"><ele>737.0</ele><time>2026-04-19T10:33:20.321Z</time></trkpt><trkpt lat="44.7496121" lon="9.7372743"><ele>737.0</ele><time>2026-04-19T10:33:22.329Z</time></trkpt><trkpt lat="44.7496358" lon="9.7373623"><ele>735.6</ele><time>2026-04-19T10:33:23.327Z</time></trkpt><trkpt lat="44.7496949" lon="9.7375043"><ele>734.2</ele><time>2026-04-19T10:33:25.324Z</time></trkpt><trkpt lat="44.7497848" lon="9.7375666"><ele>732.8</ele><time>2026-04-19T10:33:27.336Z</time></trkpt><trkpt lat="44.7498811" lon="9.7376351"><ele>731.4</ele><time>2026-04-19T10:33:29.319Z</time></trkpt><trkpt lat="44.7499484" lon="9.737674"><ele>730.0</ele><time>2026-04-19T10:33:30.324Z</time></trkpt><trkpt lat="44.7500167" lon="9.7377292"><ele>727.3333333333334</ele><time>2026-04-19T10:33:31.332Z</time></trkpt><trkpt lat="44.7500751" lon="9.7377938"><ele>724.6666666666667</ele><time>2026-04-19T10:33:32.331Z</time></trkpt><trkpt lat="44.7501316" lon="9.7378774"><ele>722.0</ele><time>2026-04-19T10:33:33.332Z</time></trkpt><trkpt lat="44.7501737" lon="9.7379742"><ele>719.3333333333334</ele><time>2026-04-19T10:33:34.322Z</time></trkpt><trkpt lat="44.750214" lon="9.7380692"><ele>716.6666666666666</ele><time>2026-04-19T10:33:35.328Z</time></trkpt><trkpt lat="44.7502485" lon="9.7381621"><ele>714.0</ele><time>2026-04-19T10:33:36.333Z</time></trkpt><trkpt lat="44.7502965" lon="9.7383021"><ele>714.0</ele><time>2026-04-19T10:33:38.332Z</time></trkpt><trkpt lat="44.7503065" lon="9.7384225"><ele>714.0</ele><time>2026-04-19T10:33:40.326Z</time></trkpt><trkpt lat="44.7502385" lon="9.7385084"><ele>714.0</ele><time>2026-04-19T10:33:42.324Z</time></trkpt><trkpt lat="44.7501671" lon="9.7386096"><ele>714.0</ele><time>2026-04-19T10:33:44.317Z</time></trkpt><trkpt lat="44.7501284" lon="9.7387146"><ele>714.0</ele><time>2026-04-19T10:33:46.334Z</time></trkpt><trkpt lat="44.7501203" lon="9.7388211"><ele>714.0</ele><time>2026-04-19T10:33:48.329Z</time></trkpt><trkpt lat="44.7501154" lon="9.738913"><ele>710.6</ele><time>2026-04-19T10:33:50.328Z</time></trkpt><trkpt lat="44.7500896" lon="9.7390334"><ele>707.2</ele><time>2026-04-19T10:33:52.319Z</time></trkpt><trkpt lat="44.7500724" lon="9.7391796"><ele>703.8000000000001</ele><time>2026-04-19T10:33:54.329Z</time></trkpt><trkpt lat="44.7500628" lon="9.7393379"><ele>700.4000000000001</ele><time>2026-04-19T10:33:56.329Z</time></trkpt><trkpt lat="44.7500742" lon="9.7394417"><ele>697.0</ele><time>2026-04-19T10:33:58.321Z</time></trkpt><trkpt lat="44.7500933" lon="9.7395333"><ele>695.4285714285714</ele><time>2026-04-19T10:34:33.337Z</time></trkpt><trkpt lat="44.7501187" lon="9.7396218"><ele>693.8571428571429</ele><time>2026-04-19T10:34:37.336Z</time></trkpt><trkpt lat="44.7501188" lon="9.739728"><ele>692.2857142857142</ele><time>2026-04-19T10:34:40.33Z</time></trkpt><trkpt lat="44.7501139" lon="9.7398298"><ele>690.7142857142858</ele><time>2026-04-19T10:34:43.32Z</time></trkpt><trkpt lat="44.7501126" lon="9.7399193"><ele>689.1428571428571</ele><time>2026-04-19T10:34:47.335Z</time></trkpt><trkpt lat="44.7500917" lon="9.7400117"><ele>687.5714285714286</ele><time>2026-04-19T10:34:52.329Z</time></trkpt><trkpt lat="44.7500884" lon="9.7401294"><ele>686.0</ele><time>2026-04-19T10:35:25.322Z</time></trkpt><trkpt lat="44.7501353" lon="9.740195"><ele>683.3333333333333</ele><time>2026-04-19T10:35:34.325Z</time></trkpt><trkpt lat="44.7501462" lon="9.7403132"><ele>680.6666666666666</ele><time>2026-04-19T10:35:39.322Z</time></trkpt><trkpt lat="44.7501204" lon="9.74041"><ele>678.0</ele><time>2026-04-19T10:35:42.322Z</time></trkpt><trkpt lat="44.7500671" lon="9.7404794"><ele>675.3333333333334</ele><time>2026-04-19T10:35:46.341Z</time></trkpt><trkpt lat="44.7500209" lon="9.7405458"><ele>672.6666666666667</ele><time>2026-04-19T10:35:50.329Z</time></trkpt><trkpt lat="44.7499721" lon="9.7406518"><ele>670.0</ele><time>2026-04-19T10:35:53.328Z</time></trkpt><trkpt lat="44.7499087" lon="9.7406863"><ele>670.0</ele><time>2026-04-19T10:35:56.336Z</time></trkpt><trkpt lat="44.7498379" lon="9.7407517"><ele>670.0</ele><time>2026-04-19T10:35:59.33Z</time></trkpt><trkpt lat="44.7497987" lon="9.7408231"><ele>670.0</ele><time>2026-04-19T10:36:02.324Z</time></trkpt><trkpt lat="44.749788" lon="9.7409344"><ele>670.0</ele><time>2026-04-19T10:36:09.328Z</time></trkpt><trkpt lat="44.7497568" lon="9.7410495"><ele>670.0</ele><time>2026-04-19T10:36:12.322Z</time></trkpt><trkpt lat="44.7497338" lon="9.7411666"><ele>670.0</ele><time>2026-04-19T10:36:15.333Z</time></trkpt><trkpt lat="44.7497069" lon="9.7412563"><ele>667.8571428571428</ele><time>2026-04-19T10:36:17.326Z</time></trkpt><trkpt lat="44.7496755" lon="9.7413434"><ele>665.7142857142857</ele><time>2026-04-19T10:36:19.325Z</time></trkpt><trkpt lat="44.7496251" lon="9.7414463"><ele>663.5714285714286</ele><time>2026-04-19T10:36:22.332Z</time></trkpt><trkpt lat="44.7495673" lon="9.7415355"><ele>661.4285714285713</ele><time>2026-04-19T10:36:25.337Z</time></trkpt><trkpt lat="44.7495103" lon="9.7415794"><ele>659.2857142857142</ele><time>2026-04-19T10:36:27.324Z</time></trkpt><trkpt lat="44.7494379" lon="9.7415948"><ele>657.1428571428571</ele><time>2026-04-19T10:36:30.328Z</time></trkpt><trkpt lat="44.7493753" lon="9.7416186"><ele>655.0</ele><time>2026-04-19T10:36:32.32Z</time></trkpt><trkpt lat="44.7492891" lon="9.7416303"><ele>653.5</ele><time>2026-04-19T10:36:35.338Z</time></trkpt><trkpt lat="44.7492298" lon="9.7416849"><ele>652.0</ele><time>2026-04-19T10:36:37.327Z</time></trkpt><trkpt lat="44.7491563" lon="9.741731"><ele>650.5</ele><time>2026-04-19T10:36:39.324Z</time></trkpt><trkpt lat="44.7490829" lon="9.7418112"><ele>649.0</ele><time>2026-04-19T10:36:41.329Z</time></trkpt><trkpt lat="44.7490293" lon="9.7418712"><ele>647.5</ele><time>2026-04-19T10:36:43.33Z</time></trkpt><trkpt lat="44.7489969" lon="9.7419587"><ele>646.0</ele><time>2026-04-19T10:36:46.335Z</time></trkpt><trkpt lat="44.7489986" lon="9.7420722"><ele>643.6666666666667</ele><time>2026-04-19T10:36:49.332Z</time></trkpt><trkpt lat="44.7490333" lon="9.7421674"><ele>641.3333333333334</ele><time>2026-04-19T10:36:52.32Z</time></trkpt><trkpt lat="44.7490757" lon="9.7422524"><ele>639.0</ele><time>2026-04-19T10:36:55.318Z</time></trkpt><trkpt lat="44.7491133" lon="9.7423609"><ele>636.6666666666666</ele><time>2026-04-19T10:36:58.351Z</time></trkpt><trkpt lat="44.7491165" lon="9.7424632"><ele>634.3333333333333</ele><time>2026-04-19T10:37:01.325Z</time></trkpt><trkpt lat="44.7490895" lon="9.7425529"><ele>632.0</ele><time>2026-04-19T10:37:12.319Z</time></trkpt><trkpt lat="44.7490851" lon="9.7426634"><ele>630.1666666666666</ele><time>2026-04-19T10:37:19.319Z</time></trkpt><trkpt lat="44.7490791" lon="9.7427834"><ele>628.3333333333333</ele><time>2026-04-19T10:37:21.322Z</time></trkpt><trkpt lat="44.7490826" lon="9.7428769"><ele>626.5</ele><time>2026-04-19T10:37:23.333Z</time></trkpt><trkpt lat="44.7490778" lon="9.7429762"><ele>624.6666666666666</ele><time>2026-04-19T10:37:25.325Z</time></trkpt><trkpt lat="44.7490818" lon="9.7431111"><ele>622.8333333333334</ele><time>2026-04-19T10:37:27.343Z</time></trkpt><trkpt lat="44.7490835" lon="9.7432465"><ele>621.0</ele><time>2026-04-19T10:37:29.322Z</time></trkpt><trkpt lat="44.7490803" lon="9.7433632"><ele>621.0</ele><time>2026-04-19T10:37:31.347Z</time></trkpt><trkpt lat="44.7490938" lon="9.7434676"><ele>621.0</ele><time>2026-04-19T10:37:33.324Z</time></trkpt><trkpt lat="44.7491021" lon="9.7435746"><ele>621.0</ele><time>2026-04-19T10:37:35.329Z</time></trkpt><trkpt lat="44.7491463" lon="9.7436916"><ele>621.0</ele><time>2026-04-19T10:37:38.336Z</time></trkpt><trkpt lat="44.7491642" lon="9.7438095"><ele>621.0</ele><time>2026-04-19T10:37:41.328Z</time></trkpt><trkpt lat="44.7491636" lon="9.7439351"><ele>621.0</ele><time>2026-04-19T10:37:44.322Z</time></trkpt><trkpt lat="44.7491762" lon="9.744065"><ele>619.3333333333334</ele><time>2026-04-19T10:37:47.33Z</time></trkpt><trkpt lat="44.7491739" lon="9.7441735"><ele>617.6666666666666</ele><time>2026-04-19T10:37:50.332Z</time></trkpt><trkpt lat="44.7491748" lon="9.7442918"><ele>616.0</ele><time>2026-04-19T10:37:53.33Z</time></trkpt><trkpt lat="44.7491729" lon="9.7444099"><ele>614.3333333333333</ele><time>2026-04-19T10:37:57.34Z</time></trkpt><trkpt lat="44.7491683" lon="9.7444993"><ele>612.6666666666666</ele><time>2026-04-19T10:38:00.342Z</time></trkpt><trkpt lat="44.7491571" lon="9.7446074"><ele>611.0</ele><time>2026-04-19T10:38:04.34Z</time></trkpt><trkpt lat="44.7491554" lon="9.7447049"><ele>608.6666666666666</ele><time>2026-04-19T10:38:06.343Z</time></trkpt><trkpt lat="44.7491383" lon="9.7448114"><ele>606.3333333333333</ele><time>2026-04-19T10:38:08.328Z</time></trkpt><trkpt lat="44.7491145" lon="9.7449057"><ele>604.0</ele><time>2026-04-19T10:38:10.318Z</time></trkpt><trkpt lat="44.7491048" lon="9.7449949"><ele>601.6666666666666</ele><time>2026-04-19T10:38:12.335Z</time></trkpt><trkpt lat="44.7491025" lon="9.7450989"><ele>599.3333333333334</ele><time>2026-04-19T10:38:14.327Z</time></trkpt><trkpt lat="44.7490899" lon="9.7452122"><ele>597.0</ele><time>2026-04-19T10:38:16.322Z</time></trkpt><trkpt lat="44.7490829" lon="9.7453344"><ele>595.2</ele><time>2026-04-19T10:38:18.322Z</time></trkpt><trkpt lat="44.7490718" lon="9.7454987"><ele>593.4000000000001</ele><time>2026-04-19T10:38:20.319Z</time></trkpt><trkpt lat="44.7490691" lon="9.7456017"><ele>591.5999999999999</ele><time>2026-04-19T10:38:21.33Z</time></trkpt><trkpt lat="44.749057" lon="9.7456972"><ele>589.8</ele><time>2026-04-19T10:38:22.323Z</time></trkpt><trkpt lat="44.7490725" lon="9.7458486"><ele>588.0</ele><time>2026-04-19T10:38:24.328Z</time></trkpt><trkpt lat="44.7490928" lon="9.7459893"><ele>585.0</ele><time>2026-04-19T10:38:26.323Z</time></trkpt><trkpt lat="44.7490942" lon="9.7460973"><ele>582.0</ele><time>2026-04-19T10:38:28.325Z</time></trkpt><trkpt lat="44.7490848" lon="9.7462093"><ele>579.0</ele><time>2026-04-19T10:38:30.323Z</time></trkpt><trkpt lat="44.7490561" lon="9.7463665"><ele>576.0</ele><time>2026-04-19T10:38:32.322Z</time></trkpt><trkpt lat="44.7490354" lon="9.7465031"><ele>573.0</ele><time>2026-04-19T10:38:34.325Z</time></trkpt><trkpt lat="44.7490064" lon="9.7466161"><ele>573.0</ele><time>2026-04-19T10:38:36.322Z</time></trkpt><trkpt lat="44.7489874" lon="9.7467521"><ele>573.0</ele><time>2026-04-19T10:38:38.335Z</time></trkpt><trkpt lat="44.7489695" lon="9.74687"><ele>573.0</ele><time>2026-04-19T10:38:40.332Z</time></trkpt><trkpt lat="44.7489505" lon="9.7470009"><ele>573.0</ele><time>2026-04-19T10:38:43.322Z</time></trkpt><trkpt lat="44.7489342" lon="9.7471023"><ele>573.0</ele><time>2026-04-19T10:38:46.315Z</time></trkpt><trkpt lat="44.748921" lon="9.7472011"><ele>573.0</ele><time>2026-04-19T10:38:49.322Z</time></trkpt><trkpt lat="44.7489084" lon="9.7473196"><ele>570.3333333333334</ele><time>2026-04-19T10:38:52.332Z</time></trkpt><trkpt lat="44.7488947" lon="9.747409"><ele>567.6666666666666</ele><time>2026-04-19T10:38:54.318Z</time></trkpt><trkpt lat="44.7488811" lon="9.7475328"><ele>565.0</ele><time>2026-04-19T10:38:57.324Z</time></trkpt><trkpt lat="44.7489281" lon="9.7476035"><ele>562.3333333333333</ele><time>2026-04-19T10:39:00.327Z</time></trkpt><trkpt lat="44.7489867" lon="9.7476992"><ele>559.6666666666666</ele><time>2026-04-19T10:39:03.332Z</time></trkpt><trkpt lat="44.7489382" lon="9.7477889"><ele>557.0</ele><time>2026-04-19T10:39:07.325Z</time></trkpt><trkpt lat="44.7488569" lon="9.7478061"><ele>555.2857142857143</ele><time>2026-04-19T10:39:09.323Z</time></trkpt><trkpt lat="44.7487933" lon="9.7478203"><ele>553.5714285714286</ele><time>2026-04-19T10:39:11.332Z</time></trkpt><trkpt lat="44.7487625" lon="9.7479194"><ele>551.8571428571429</ele><time>2026-04-19T10:39:14.315Z</time></trkpt><trkpt lat="44.7487328" lon="9.748008"><ele>550.1428571428571</ele><time>2026-04-19T10:39:16.338Z</time></trkpt><trkpt lat="44.7486802" lon="9.7481267"><ele>548.4285714285714</ele><time>2026-04-19T10:39:18.326Z</time></trkpt><trkpt lat="44.7486635" lon="9.7482142"><ele>546.7142857142858</ele><time>2026-04-19T10:39:19.324Z</time></trkpt><trkpt lat="44.7486489" lon="9.7483085"><ele>545.0</ele><time>2026-04-19T10:39:20.338Z</time></trkpt><trkpt lat="44.748634" lon="9.7484704"><ele>543.0</ele><time>2026-04-19T10:39:22.318Z</time></trkpt><trkpt lat="44.7486079" lon="9.7486227"><ele>541.0</ele><time>2026-04-19T10:39:24.325Z</time></trkpt><trkpt lat="44.7486039" lon="9.7487803"><ele>539.0</ele><time>2026-04-19T10:39:26.316Z</time></trkpt><trkpt lat="44.7486728" lon="9.748899"><ele>537.0</ele><time>2026-04-19T10:39:28.322Z</time></trkpt><trkpt lat="44.7487692" lon="9.7489907"><ele>535.0</ele><time>2026-04-19T10:39:30.325Z</time></trkpt><trkpt lat="44.7488286" lon="9.7491092"><ele>535.0</ele><time>2026-04-19T10:39:32.323Z</time></trkpt><trkpt lat="44.7488642" lon="9.7491829"><ele>535.0</ele><time>2026-04-19T10:39:33.324Z</time></trkpt><trkpt lat="44.748897" lon="9.7492693"><ele>535.0</ele><time>2026-04-19T10:39:34.335Z</time></trkpt><trkpt lat="44.7489242" lon="9.7494367"><ele>535.0</ele><time>2026-04-19T10:39:36.339Z</time></trkpt><trkpt lat="44.7489427" lon="9.7496009"><ele>535.0</ele><time>2026-04-19T10:39:38.318Z</time></trkpt><trkpt lat="44.7489347" lon="9.7497497"><ele>533.0</ele><time>2026-04-19T10:39:40.338Z</time></trkpt><trkpt lat="44.7488701" lon="9.749877"><ele>531.0</ele><time>2026-04-19T10:39:42.339Z</time></trkpt><trkpt lat="44.7487926" lon="9.7499874"><ele>529.0</ele><time>2026-04-19T10:39:44.328Z</time></trkpt><trkpt lat="44.7487275" lon="9.750069"><ele>527.0</ele><time>2026-04-19T10:39:46.349Z</time></trkpt><trkpt lat="44.7486903" lon="9.7501467"><ele>525.0</ele><time>2026-04-19T10:39:48.335Z</time></trkpt><trkpt lat="44.7486988" lon="9.7502844"><ele>523.1666666666666</ele><time>2026-04-19T10:39:50.323Z</time></trkpt><trkpt lat="44.7487222" lon="9.750367"><ele>521.3333333333334</ele><time>2026-04-19T10:39:51.323Z</time></trkpt><trkpt lat="44.7487673" lon="9.7505322"><ele>519.5</ele><time>2026-04-19T10:39:53.336Z</time></trkpt><trkpt lat="44.7487933" lon="9.7506194"><ele>517.6666666666667</ele><time>2026-04-19T10:39:54.329Z</time></trkpt><trkpt lat="44.7488114" lon="9.7507052"><ele>515.8333333333334</ele><time>2026-04-19T10:39:55.319Z</time></trkpt><trkpt lat="44.7488289" lon="9.7508649"><ele>514.0</ele><time>2026-04-19T10:39:57.338Z</time></trkpt><trkpt lat="44.7488293" lon="9.7510358"><ele>511.25</ele><time>2026-04-19T10:39:59.345Z</time></trkpt><trkpt lat="44.7488004" lon="9.7512067"><ele>508.5</ele><time>2026-04-19T10:40:01.347Z</time></trkpt><trkpt lat="44.748772" lon="9.7513734"><ele>505.75</ele><time>2026-04-19T10:40:03.339Z</time></trkpt><trkpt lat="44.748747" lon="9.7515253"><ele>503.0</ele><time>2026-04-19T10:40:05.323Z</time></trkpt><trkpt lat="44.7487299" lon="9.751666"><ele>503.0</ele><time>2026-04-19T10:40:07.323Z</time></trkpt><trkpt lat="44.7487268" lon="9.7517916"><ele>502.99999999999994</ele><time>2026-04-19T10:40:09.321Z</time></trkpt><trkpt lat="44.7486992" lon="9.7519422"><ele>502.99999999999994</ele><time>2026-04-19T10:40:11.316Z</time></trkpt><trkpt lat="44.7486745" lon="9.752034"><ele>503.0</ele><time>2026-04-19T10:40:12.331Z</time></trkpt><trkpt lat="44.7486196" lon="9.7521932"><ele>503.0</ele><time>2026-04-19T10:40:14.324Z</time></trkpt><trkpt lat="44.7485833" lon="9.7523481"><ele>501.16666666666663</ele><time>2026-04-19T10:40:16.322Z</time></trkpt><trkpt lat="44.7485831" lon="9.7524616"><ele>499.3333333333333</ele><time>2026-04-19T10:40:18.327Z</time></trkpt><trkpt lat="44.7485744" lon="9.7525764"><ele>497.5</ele><time>2026-04-19T10:40:20.312Z</time></trkpt><trkpt lat="44.7485557" lon="9.7527258"><ele>495.66666666666663</ele><time>2026-04-19T10:40:22.323Z</time></trkpt><trkpt lat="44.7485448" lon="9.7528504"><ele>493.8333333333333</ele><time>2026-04-19T10:40:24.323Z</time></trkpt><trkpt lat="44.7485223" lon="9.7529498"><ele>492.0</ele><time>2026-04-19T10:40:26.333Z</time></trkpt><trkpt lat="44.7484881" lon="9.7530366"><ele>491.0</ele><time>2026-04-19T10:40:28.34Z</time></trkpt><trkpt lat="44.748427" lon="9.7531643"><ele>490.00000000000006</ele><time>2026-04-19T10:40:30.326Z</time></trkpt><trkpt lat="44.7483691" lon="9.753221"><ele>489.00000000000006</ele><time>2026-04-19T10:40:32.323Z</time></trkpt><trkpt lat="44.7482996" lon="9.7532926"><ele>488.0</ele><time>2026-04-19T10:40:35.329Z</time></trkpt><trkpt lat="44.7482466" lon="9.7533914"><ele>487.0</ele><time>2026-04-19T10:40:38.322Z</time></trkpt><trkpt lat="44.7481673" lon="9.7535031"><ele>484.25</ele><time>2026-04-19T10:40:40.324Z</time></trkpt><trkpt lat="44.7480799" lon="9.7535917"><ele>481.5</ele><time>2026-04-19T10:40:42.319Z</time></trkpt><trkpt lat="44.7479925" lon="9.7536828"><ele>478.75</ele><time>2026-04-19T10:40:44.337Z</time></trkpt><trkpt lat="44.7479085" lon="9.7537964"><ele>476.0</ele><time>2026-04-19T10:40:46.34Z</time></trkpt><trkpt lat="44.7478308" lon="9.7539246"><ele>476.0</ele><time>2026-04-19T10:40:48.336Z</time></trkpt><trkpt lat="44.7478022" lon="9.7540201"><ele>476.0</ele><time>2026-04-19T10:40:49.322Z</time></trkpt><trkpt lat="44.7477737" lon="9.754112"><ele>476.0</ele><time>2026-04-19T10:40:50.329Z</time></trkpt><trkpt lat="44.747742" lon="9.7542107"><ele>476.0</ele><time>2026-04-19T10:40:51.318Z</time></trkpt><trkpt lat="44.7477142" lon="9.7543029"><ele>476.0</ele><time>2026-04-19T10:40:52.326Z</time></trkpt><trkpt lat="44.7476866" lon="9.7543923"><ele>476.0</ele><time>2026-04-19T10:40:53.341Z</time></trkpt><trkpt lat="44.7476634" lon="9.7544759"><ele>476.0</ele><time>2026-04-19T10:40:54.32Z</time></trkpt><trkpt lat="44.7476447" lon="9.7545981"><ele>474.20000000000005</ele><time>2026-04-19T10:40:56.339Z</time></trkpt><trkpt lat="44.7476273" lon="9.754742"><ele>472.40000000000003</ele><time>2026-04-19T10:40:58.319Z</time></trkpt><trkpt lat="44.747607" lon="9.7548851"><ele>470.6</ele><time>2026-04-19T10:41:00.327Z</time></trkpt><trkpt lat="44.7475862" lon="9.7550452"><ele>468.8</ele><time>2026-04-19T10:41:02.338Z</time></trkpt><trkpt lat="44.7476145" lon="9.7551772"><ele>467.0</ele><time>2026-04-19T10:41:04.34Z</time></trkpt><trkpt lat="44.7475976" lon="9.7553291"><ele>465.0</ele><time>2026-04-19T10:41:06.328Z</time></trkpt><trkpt lat="44.7475751" lon="9.7554849"><ele>463.00000000000006</ele><time>2026-04-19T10:41:08.334Z</time></trkpt><trkpt lat="44.7475625" lon="9.7555787"><ele>461.00000000000006</ele><time>2026-04-19T10:41:09.321Z</time></trkpt><trkpt lat="44.7475208" lon="9.7557381"><ele>459.0</ele><time>2026-04-19T10:41:11.334Z</time></trkpt><trkpt lat="44.7474828" lon="9.7558914"><ele>457.0</ele><time>2026-04-19T10:41:13.334Z</time></trkpt><trkpt lat="44.747472" lon="9.7559889"><ele>456.1666666666667</ele><time>2026-04-19T10:41:14.321Z</time></trkpt><trkpt lat="44.7474574" lon="9.7560968"><ele>455.33333333333337</ele><time>2026-04-19T10:41:15.347Z</time></trkpt><trkpt lat="44.7474406" lon="9.7562168"><ele>454.5</ele><time>2026-04-19T10:41:16.336Z</time></trkpt><trkpt lat="44.7474208" lon="9.7563366"><ele>453.66666666666663</ele><time>2026-04-19T10:41:17.329Z</time></trkpt><trkpt lat="44.7473981" lon="9.7564543"><ele>452.8333333333333</ele><time>2026-04-19T10:41:18.315Z</time></trkpt><trkpt lat="44.7473665" lon="9.7565759"><ele>452.0</ele><time>2026-04-19T10:41:19.313Z</time></trkpt><trkpt lat="44.747331" lon="9.756685"><ele>451.99999999999994</ele><time>2026-04-19T10:41:20.322Z</time></trkpt><trkpt lat="44.7472966" lon="9.7567924"><ele>452.0</ele><time>2026-04-19T10:41:21.328Z</time></trkpt><trkpt lat="44.7472703" lon="9.7568953"><ele>452.0</ele><time>2026-04-19T10:41:22.335Z</time></trkpt><trkpt lat="44.7472477" lon="9.756999"><ele>452.0</ele><time>2026-04-19T10:41:23.332Z</time></trkpt><trkpt lat="44.7472226" lon="9.7570959"><ele>451.99999999999994</ele><time>2026-04-19T10:41:24.316Z</time></trkpt><trkpt lat="44.7472057" lon="9.7571984"><ele>452.0</ele><time>2026-04-19T10:41:25.336Z</time></trkpt><trkpt lat="44.7472002" lon="9.7573016"><ele>451.3333333333333</ele><time>2026-04-19T10:41:26.333Z</time></trkpt><trkpt lat="44.7471961" lon="9.7574029"><ele>450.66666666666663</ele><time>2026-04-19T10:41:27.346Z</time></trkpt><trkpt lat="44.7471989" lon="9.7575027"><ele>450.0</ele><time>2026-04-19T10:41:28.316Z</time></trkpt><trkpt lat="44.747196" lon="9.7576091"><ele>449.33333333333337</ele><time>2026-04-19T10:41:29.333Z</time></trkpt><trkpt lat="44.7471741" lon="9.7577117"><ele>448.6666666666667</ele><time>2026-04-19T10:41:30.337Z</time></trkpt><trkpt lat="44.747145" lon="9.7578286"><ele>448.0</ele><time>2026-04-19T10:41:31.319Z</time></trkpt><trkpt lat="44.7471062" lon="9.7579611"><ele>447.79999999999995</ele><time>2026-04-19T10:41:32.322Z</time></trkpt><trkpt lat="44.7470682" lon="9.758103"><ele>447.59999999999997</ele><time>2026-04-19T10:41:33.329Z</time></trkpt><trkpt lat="44.7470332" lon="9.7582401"><ele>447.40000000000003</ele><time>2026-04-19T10:41:34.323Z</time></trkpt><trkpt lat="44.7469902" lon="9.7583533"><ele>447.20000000000005</ele><time>2026-04-19T10:41:35.325Z</time></trkpt><trkpt lat="44.7469412" lon="9.758447"><ele>447.0</ele><time>2026-04-19T10:41:36.331Z</time></trkpt><trkpt lat="44.7468993" lon="9.7585222"><ele>444.6666666666667</ele><time>2026-04-19T10:41:37.324Z</time></trkpt><trkpt lat="44.7468426" lon="9.7586714"><ele>442.33333333333337</ele><time>2026-04-19T10:41:39.319Z</time></trkpt><trkpt lat="44.7468441" lon="9.7587604"><ele>440.0</ele><time>2026-04-19T10:41:40.322Z</time></trkpt><trkpt lat="44.7468452" lon="9.7588495"><ele>437.6666666666667</ele><time>2026-04-19T10:41:41.322Z</time></trkpt><trkpt lat="44.7468468" lon="9.75895"><ele>435.33333333333337</ele><time>2026-04-19T10:41:42.333Z</time></trkpt><trkpt lat="44.7468541" lon="9.759052"><ele>433.0</ele><time>2026-04-19T10:41:43.333Z</time></trkpt><trkpt lat="44.7468617" lon="9.7591501"><ele>433.0</ele><time>2026-04-19T10:41:44.33Z</time></trkpt><trkpt lat="44.7468655" lon="9.759253"><ele>432.99999999999994</ele><time>2026-04-19T10:41:45.321Z</time></trkpt><trkpt lat="44.7468632" lon="9.7593755"><ele>432.99999999999994</ele><time>2026-04-19T10:41:46.329Z</time></trkpt><trkpt lat="44.7468496" lon="9.7595187"><ele>433.0</ele><time>2026-04-19T10:41:47.326Z</time></trkpt><trkpt lat="44.746833" lon="9.7596601"><ele>433.0</ele><time>2026-04-19T10:41:48.33Z</time></trkpt><trkpt lat="44.7468079" lon="9.7598005"><ele>432.33333333333337</ele><time>2026-04-19T10:41:49.322Z</time></trkpt><trkpt lat="44.7467831" lon="9.759936"><ele>431.6666666666667</ele><time>2026-04-19T10:41:50.339Z</time></trkpt><trkpt lat="44.7467563" lon="9.7600712"><ele>431.0</ele><time>2026-04-19T10:41:51.325Z</time></trkpt><trkpt lat="44.7467419" lon="9.7601809"><ele>430.33333333333337</ele><time>2026-04-19T10:41:52.323Z</time></trkpt><trkpt lat="44.7467295" lon="9.7602703"><ele>429.6666666666667</ele><time>2026-04-19T10:41:53.33Z</time></trkpt><trkpt lat="44.7467274" lon="9.7603859"><ele>429.0</ele><time>2026-04-19T10:41:55.326Z</time></trkpt><trkpt lat="44.7467526" lon="9.7605277"><ele>428.6666666666667</ele><time>2026-04-19T10:41:58.329Z</time></trkpt><trkpt lat="44.7467747" lon="9.760633"><ele>428.33333333333337</ele><time>2026-04-19T10:42:00.322Z</time></trkpt><trkpt lat="44.7467865" lon="9.7607326"><ele>428.0</ele><time>2026-04-19T10:42:03.326Z</time></trkpt><trkpt lat="44.7467862" lon="9.7608243"><ele>427.6666666666667</ele><time>2026-04-19T10:42:28.325Z</time></trkpt><trkpt lat="44.7467547" lon="9.7607327"><ele>427.33333333333337</ele><time>2026-04-19T10:42:45.32Z</time></trkpt><trkpt lat="44.7466837" lon="9.7607164"><ele>427.0</ele><time>2026-04-19T10:42:56.338Z</time></trkpt><trkpt lat="44.7465924" lon="9.7607129"><ele>427.0</ele><time>2026-04-19T10:42:59.317Z</time></trkpt><trkpt lat="44.7464802" lon="9.7607196"><ele>427.00000000000006</ele><time>2026-04-19T10:43:01.335Z</time></trkpt><trkpt lat="44.7463872" lon="9.7607461"><ele>427.00000000000006</ele><time>2026-04-19T10:43:03.325Z</time></trkpt><trkpt lat="44.7463204" lon="9.7607794"><ele>427.0</ele><time>2026-04-19T10:43:05.331Z</time></trkpt><trkpt lat="44.7462612" lon="9.7608666"><ele>427.0</ele><time>2026-04-19T10:43:08.341Z</time></trkpt><trkpt lat="44.7461782" lon="9.7609271"><ele>427.00000000000006</ele><time>2026-04-19T10:43:11.32Z</time></trkpt><trkpt lat="44.7461152" lon="9.7608747"><ele>427.0</ele><time>2026-04-19T10:43:13.319Z</time></trkpt><trkpt lat="44.746044" lon="9.7608154"><ele>427.0</ele><time>2026-04-19T10:43:15.316Z</time></trkpt><trkpt lat="44.7459732" lon="9.7608049"><ele>427.0</ele><time>2026-04-19T10:43:17.325Z</time></trkpt><trkpt lat="44.7458688" lon="9.7608191"><ele>427.00000000000006</ele><time>2026-04-19T10:43:19.334Z</time></trkpt><trkpt lat="44.7457788" lon="9.7608452"><ele>427.0</ele><time>2026-04-19T10:43:21.318Z</time></trkpt><trkpt lat="44.7456813" lon="9.7609113"><ele>424.1666666666667</ele><time>2026-04-19T10:43:23.321Z</time></trkpt><trkpt lat="44.7456035" lon="9.761007"><ele>421.33333333333337</ele><time>2026-04-19T10:43:25.319Z</time></trkpt><trkpt lat="44.7455651" lon="9.7611339"><ele>418.5</ele><time>2026-04-19T10:43:27.316Z</time></trkpt><trkpt lat="44.7455211" lon="9.7612114"><ele>415.66666666666663</ele><time>2026-04-19T10:43:29.322Z</time></trkpt><trkpt lat="44.7454539" lon="9.7611458"><ele>412.8333333333333</ele><time>2026-04-19T10:43:33.329Z</time></trkpt><trkpt lat="44.7454074" lon="9.7610541"><ele>410.0</ele><time>2026-04-19T10:43:36.314Z</time></trkpt><trkpt lat="44.7453643" lon="9.7609641"><ele>410.0</ele><time>2026-04-19T10:46:09.315Z</time></trkpt><trkpt lat="44.7453027" lon="9.7609887"><ele>410.0</ele><time>2026-04-19T10:47:02.317Z</time></trkpt><trkpt lat="44.7452588" lon="9.7610705"><ele>410.0</ele><time>2026-04-19T10:49:52.323Z</time></trkpt><trkpt lat="44.7452391" lon="9.7611653"><ele>410.0</ele><time>2026-04-19T10:49:56.315Z</time></trkpt><trkpt lat="44.7452092" lon="9.7612627"><ele>410.0</ele><time>2026-04-19T10:50:00.325Z</time></trkpt><trkpt lat="44.7451595" lon="9.761331"><ele>410.0</ele><time>2026-04-19T10:50:02.332Z</time></trkpt><trkpt lat="44.7451028" lon="9.7614123"><ele>410.0</ele><time>2026-04-19T10:50:04.345Z</time></trkpt><trkpt lat="44.7450317" lon="9.7615147"><ele>406.6</ele><time>2026-04-19T10:50:06.313Z</time></trkpt><trkpt lat="44.7449483" lon="9.7616032"><ele>403.2</ele><time>2026-04-19T10:50:08.335Z</time></trkpt><trkpt lat="44.7448789" lon="9.7616891"><ele>399.79999999999995</ele><time>2026-04-19T10:50:10.339Z</time></trkpt><trkpt lat="44.7448199" lon="9.7618082"><ele>396.4</ele><time>2026-04-19T10:50:12.324Z</time></trkpt><trkpt lat="44.744759" lon="9.7619542"><ele>393.0</ele><time>2026-04-19T10:50:14.325Z</time></trkpt><trkpt lat="44.7446986" lon="9.7620867"><ele>392.6666666666667</ele><time>2026-04-19T10:50:16.325Z</time></trkpt><trkpt lat="44.7446613" lon="9.7621852"><ele>392.33333333333337</ele><time>2026-04-19T10:50:18.323Z</time></trkpt><trkpt lat="44.7446356" lon="9.7623121"><ele>392.0</ele><time>2026-04-19T10:50:20.323Z</time></trkpt><trkpt lat="44.744604" lon="9.7624197"><ele>391.6666666666667</ele><time>2026-04-19T10:50:22.324Z</time></trkpt><trkpt lat="44.7445771" lon="9.7625133"><ele>391.33333333333337</ele><time>2026-04-19T10:50:26.332Z</time></trkpt><trkpt lat="44.744556" lon="9.7626118"><ele>391.0</ele><time>2026-04-19T10:50:29.328Z</time></trkpt><trkpt lat="44.744507" lon="9.7627159"><ele>390.6</ele><time>2026-04-19T10:50:34.326Z</time></trkpt><trkpt lat="44.7444769" lon="9.7628268"><ele>390.20000000000005</ele><time>2026-04-19T10:50:36.318Z</time></trkpt><trkpt lat="44.7444769" lon="9.7629592"><ele>389.79999999999995</ele><time>2026-04-19T10:50:38.321Z</time></trkpt><trkpt lat="44.7444255" lon="9.7630636"><ele>389.4</ele><time>2026-04-19T10:50:41.322Z</time></trkpt><trkpt lat="44.7443506" lon="9.7631246"><ele>389.0</ele><time>2026-04-19T10:50:43.316Z</time></trkpt><trkpt lat="44.7442553" lon="9.763145"><ele>387.3333333333333</ele><time>2026-04-19T10:50:45.317Z</time></trkpt><trkpt lat="44.7441428" lon="9.7631334"><ele>385.66666666666663</ele><time>2026-04-19T10:50:47.324Z</time></trkpt><trkpt lat="44.7440603" lon="9.7631033"><ele>384.0</ele><time>2026-04-19T10:50:49.319Z</time></trkpt><trkpt lat="44.7439782" lon="9.7630796"><ele>382.3333333333333</ele><time>2026-04-19T10:50:51.326Z</time></trkpt><trkpt lat="44.7439057" lon="9.7630979"><ele>380.66666666666663</ele><time>2026-04-19T10:50:53.333Z</time></trkpt><trkpt lat="44.7438323" lon="9.7631457"><ele>379.0</ele><time>2026-04-19T10:50:55.328Z</time></trkpt><trkpt lat="44.7437282" lon="9.763175"><ele>379.0</ele><time>2026-04-19T10:50:57.329Z</time></trkpt><trkpt lat="44.7436275" lon="9.7631968"><ele>379.0</ele><time>2026-04-19T10:50:59.327Z</time></trkpt><trkpt lat="44.7435446" lon="9.763205"><ele>379.0</ele><time>2026-04-19T10:51:01.331Z</time></trkpt><trkpt lat="44.743457" lon="9.7632193"><ele>379.0</ele><time>2026-04-19T10:51:03.322Z</time></trkpt><trkpt lat="44.7433702" lon="9.7632365"><ele>379.0</ele><time>2026-04-19T10:51:05.315Z</time></trkpt><trkpt lat="44.7433072" lon="9.7632179"><ele>379.0</ele><time>2026-04-19T10:51:07.306Z</time></trkpt><trkpt lat="44.7432064" lon="9.763184"><ele>379.0</ele><time>2026-04-19T10:51:09.318Z</time></trkpt><trkpt lat="44.7430921" lon="9.7631605"><ele>379.0</ele><time>2026-04-19T10:51:11.317Z</time></trkpt><trkpt lat="44.743006" lon="9.7631243"><ele>379.0</ele><time>2026-04-19T10:51:13.311Z</time></trkpt><trkpt lat="44.7429355" lon="9.7630724"><ele>379.0</ele><time>2026-04-19T10:51:15.314Z</time></trkpt><trkpt lat="44.742865" lon="9.7630272"><ele>379.0</ele><time>2026-04-19T10:51:17.31Z</time></trkpt><trkpt lat="44.7427578" lon="9.7630023"><ele>379.6</ele><time>2026-04-19T10:51:19.326Z</time></trkpt><trkpt lat="44.7426459" lon="9.7630173"><ele>380.2</ele><time>2026-04-19T10:51:21.329Z</time></trkpt><trkpt lat="44.7425297" lon="9.763086"><ele>380.8</ele><time>2026-04-19T10:51:23.312Z</time></trkpt><trkpt lat="44.7424277" lon="9.7631603"><ele>381.40000000000003</ele><time>2026-04-19T10:51:25.325Z</time></trkpt><trkpt lat="44.7423654" lon="9.7632106"><ele>382.0</ele><time>2026-04-19T10:51:27.32Z</time></trkpt><trkpt lat="44.7423496" lon="9.7633113"><ele>382.0</ele><time>2026-04-19T10:51:29.318Z</time></trkpt><trkpt lat="44.7423721" lon="9.7634624"><ele>382.0</ele><time>2026-04-19T10:51:31.312Z</time></trkpt><trkpt lat="44.7423938" lon="9.7635906"><ele>382.0</ele><time>2026-04-19T10:51:33.318Z</time></trkpt><trkpt lat="44.7424264" lon="9.7637035"><ele>382.0</ele><time>2026-04-19T10:51:35.328Z</time></trkpt><trkpt lat="44.7424331" lon="9.7637995"><ele>382.0</ele><time>2026-04-19T10:51:37.323Z</time></trkpt><trkpt lat="44.7423764" lon="9.7638768"><ele>382.0</ele><time>2026-04-19T10:51:40.315Z</time></trkpt><trkpt lat="44.7422623" lon="9.7638389"><ele>380.40000000000003</ele><time>2026-04-19T10:51:42.331Z</time></trkpt><trkpt lat="44.7421344" lon="9.7638176"><ele>378.8</ele><time>2026-04-19T10:51:44.32Z</time></trkpt><trkpt lat="44.7420602" lon="9.7638011"><ele>377.2</ele><time>2026-04-19T10:51:45.318Z</time></trkpt><trkpt lat="44.7419802" lon="9.7637768"><ele>375.6</ele><time>2026-04-19T10:51:46.32Z</time></trkpt><trkpt lat="44.7418984" lon="9.76374"><ele>374.0</ele><time>2026-04-19T10:51:47.333Z</time></trkpt><trkpt lat="44.7418159" lon="9.763693"><ele>374.0</ele><time>2026-04-19T10:51:48.315Z</time></trkpt><trkpt lat="44.7417364" lon="9.763644"><ele>374.0</ele><time>2026-04-19T10:51:49.326Z</time></trkpt><trkpt lat="44.7416684" lon="9.7635937"><ele>374.0</ele><time>2026-04-19T10:51:50.328Z</time></trkpt><trkpt lat="44.7416084" lon="9.7635417"><ele>374.0</ele><time>2026-04-19T10:51:51.33Z</time></trkpt><trkpt lat="44.741539" lon="9.7634882"><ele>374.0</ele><time>2026-04-19T10:51:53.32Z</time></trkpt><trkpt lat="44.7414879" lon="9.7635732"><ele>374.0</ele><time>2026-04-19T10:51:56.34Z</time></trkpt><trkpt lat="44.7414623" lon="9.7636885"><ele>374.0</ele><time>2026-04-19T10:51:58.32Z</time></trkpt><trkpt lat="44.7414011" lon="9.7638462"><ele>374.0</ele><time>2026-04-19T10:52:00.321Z</time></trkpt><trkpt lat="44.7413625" lon="9.7639373"><ele>374.0</ele><time>2026-04-19T10:52:01.328Z</time></trkpt><trkpt lat="44.741322" lon="9.7640291"><ele>374.0</ele><time>2026-04-19T10:52:02.311Z</time></trkpt><trkpt lat="44.7412886" lon="9.7641185"><ele>374.0</ele><time>2026-04-19T10:52:03.329Z</time></trkpt><trkpt lat="44.7412584" lon="9.7642104"><ele>374.0</ele><time>2026-04-19T10:52:04.329Z</time></trkpt><trkpt lat="44.7412293" lon="9.7643012"><ele>372.6666666666667</ele><time>2026-04-19T10:52:05.32Z</time></trkpt><trkpt lat="44.7411944" lon="9.7643954"><ele>371.33333333333337</ele><time>2026-04-19T10:52:06.319Z</time></trkpt><trkpt lat="44.7411593" lon="9.7644847"><ele>370.0</ele><time>2026-04-19T10:52:07.327Z</time></trkpt><trkpt lat="44.7411282" lon="9.7645723"><ele>368.6666666666667</ele><time>2026-04-19T10:52:08.317Z</time></trkpt><trkpt lat="44.741089" lon="9.7647064"><ele>367.3333333333333</ele><time>2026-04-19T10:52:10.315Z</time></trkpt><trkpt lat="44.7410391" lon="9.7647854"><ele>366.0</ele><time>2026-04-19T10:52:12.315Z</time></trkpt><trkpt lat="44.7409649" lon="9.7647833"><ele>366.0</ele><time>2026-04-19T10:52:14.324Z</time></trkpt><trkpt lat="44.7408717" lon="9.7647255"><ele>366.0</ele><time>2026-04-19T10:52:16.317Z</time></trkpt><trkpt lat="44.7407735" lon="9.7645927"><ele>366.0</ele><time>2026-04-19T10:52:18.317Z</time></trkpt><trkpt lat="44.7407155" lon="9.7644978"><ele>366.0</ele><time>2026-04-19T10:52:19.318Z</time></trkpt><trkpt lat="44.7406523" lon="9.7644135"><ele>366.0</ele><time>2026-04-19T10:52:20.321Z</time></trkpt><trkpt lat="44.7405875" lon="9.7643429"><ele>366.6</ele><time>2026-04-19T10:52:21.32Z</time></trkpt><trkpt lat="44.7405017" lon="9.7642433"><ele>367.20000000000005</ele><time>2026-04-19T10:52:23.321Z</time></trkpt><trkpt lat="44.7404084" lon="9.764125"><ele>367.79999999999995</ele><time>2026-04-19T10:52:25.324Z</time></trkpt><trkpt lat="44.7403497" lon="9.7640542"><ele>368.4</ele><time>2026-04-19T10:52:26.343Z</time></trkpt><trkpt lat="44.7402762" lon="9.7639731"><ele>369.0</ele><time>2026-04-19T10:52:27.32Z</time></trkpt><trkpt lat="44.740198" lon="9.763892"><ele>369.0</ele><time>2026-04-19T10:52:28.321Z</time></trkpt><trkpt lat="44.7401317" lon="9.7638144"><ele>369.0</ele><time>2026-04-19T10:52:29.333Z</time></trkpt><trkpt lat="44.7400647" lon="9.7637296"><ele>369.0</ele><time>2026-04-19T10:52:30.325Z</time></trkpt><trkpt lat="44.7399938" lon="9.7636716"><ele>369.0</ele><time>2026-04-19T10:52:31.312Z</time></trkpt><trkpt lat="44.7399037" lon="9.7636105"><ele>369.0</ele><time>2026-04-19T10:52:33.323Z</time></trkpt><trkpt lat="44.739848" lon="9.7635669"><ele>369.0</ele><time>2026-04-19T10:52:37.325Z</time></trkpt><trkpt lat="44.739923" lon="9.763666"><ele>369.0</ele><time>2026-04-19T10:52:47.313Z</time></trkpt><trkpt lat="44.7400303" lon="9.7637189"><ele>369.0</ele><time>2026-04-19T10:52:49.316Z</time></trkpt><trkpt lat="44.7400882" lon="9.7637635"><ele>369.0</ele><time>2026-04-19T10:52:50.324Z</time></trkpt><trkpt lat="44.7401794" lon="9.7638467"><ele>369.0</ele><time>2026-04-19T10:52:52.321Z</time></trkpt><trkpt lat="44.7402628" lon="9.7639674"><ele>369.0</ele><time>2026-04-19T10:52:54.317Z</time></trkpt><trkpt lat="44.7403195" lon="9.7640346"><ele>369.1666666666667</ele><time>2026-04-19T10:52:55.328Z</time></trkpt><trkpt lat="44.7403801" lon="9.7641078"><ele>369.3333333333333</ele><time>2026-04-19T10:52:56.308Z</time></trkpt><trkpt lat="44.740441" lon="9.7641777"><ele>369.5</ele><time>2026-04-19T10:52:57.32Z</time></trkpt><trkpt lat="44.740492" lon="9.76423"><ele>369.66666666666663</ele><time>2026-04-19T10:52:58.322Z</time></trkpt><trkpt lat="44.7405846" lon="9.7643197"><ele>369.8333333333333</ele><time>2026-04-19T10:53:00.33Z</time></trkpt><trkpt lat="44.7406588" lon="9.7643589"><ele>370.0</ele><time>2026-04-19T10:53:02.334Z</time></trkpt><trkpt lat="44.7406089" lon="9.7644139"><ele>369.3333333333333</ele><time>2026-04-19T10:53:14.325Z</time></trkpt><trkpt lat="44.7405328" lon="9.7644334"><ele>368.66666666666663</ele><time>2026-04-19T10:53:17.31Z</time></trkpt><trkpt lat="44.7404624" lon="9.7644243"><ele>368.0</ele><time>2026-04-19T10:53:40.319Z</time></trkpt><trkpt lat="44.7404076" lon="9.7644972"><ele>367.3333333333333</ele><time>2026-04-19T10:53:45.316Z</time></trkpt><trkpt lat="44.7403889" lon="9.7645902"><ele>366.6666666666667</ele><time>2026-04-19T10:53:51.311Z</time></trkpt><trkpt lat="44.7403664" lon="9.7646976"><ele>366.0</ele><time>2026-04-19T10:53:58.339Z</time></trkpt><trkpt lat="44.7402832" lon="9.7646921"><ele>366.0</ele><time>2026-04-19T10:54:27.311Z</time></trkpt><trkpt lat="44.740232" lon="9.7646205"><ele>366.0</ele><time>2026-04-19T10:54:30.313Z</time></trkpt><trkpt lat="44.7401717" lon="9.7646491"><ele>366.0</ele><time>2026-04-19T10:54:42.311Z</time></trkpt><trkpt lat="44.7400946" lon="9.7647056"><ele>366.0</ele><time>2026-04-19T10:54:45.312Z</time></trkpt><trkpt lat="44.7400312" lon="9.7647749"><ele>366.0</ele><time>2026-04-19T10:54:47.31Z</time></trkpt><trkpt lat="44.7399554" lon="9.7649002"><ele>366.0</ele><time>2026-04-19T10:54:49.31Z</time></trkpt><trkpt lat="44.7399248" lon="9.7649795"><ele>367.6</ele><time>2026-04-19T10:54:50.328Z</time></trkpt><trkpt lat="44.7398682" lon="9.7651199"><ele>369.20000000000005</ele><time>2026-04-19T10:54:52.306Z</time></trkpt><trkpt lat="44.7397941" lon="9.7652382"><ele>370.79999999999995</ele><time>2026-04-19T10:54:54.311Z</time></trkpt><trkpt lat="44.7397275" lon="9.7653277"><ele>372.4</ele><time>2026-04-19T10:54:56.307Z</time></trkpt><trkpt lat="44.7396702" lon="9.7654243"><ele>374.0</ele><time>2026-04-19T10:54:58.315Z</time></trkpt><trkpt lat="44.7396122" lon="9.7655182"><ele>375.5</ele><time>2026-04-19T10:55:00.309Z</time></trkpt><trkpt lat="44.7395624" lon="9.7655862"><ele>377.0</ele><time>2026-04-19T10:55:02.322Z</time></trkpt><trkpt lat="44.7395122" lon="9.7656998"><ele>378.5</ele><time>2026-04-19T10:55:04.314Z</time></trkpt><trkpt lat="44.739455" lon="9.7658156"><ele>380.0</ele><time>2026-04-19T10:55:06.319Z</time></trkpt><trkpt lat="44.7394108" lon="9.765924"><ele>381.5</ele><time>2026-04-19T10:55:08.326Z</time></trkpt><trkpt lat="44.7393628" lon="9.766026"><ele>383.0</ele><time>2026-04-19T10:55:10.31Z</time></trkpt><trkpt lat="44.7393355" lon="9.7661614"><ele>388.33333333333337</ele><time>2026-04-19T10:55:12.333Z</time></trkpt><trkpt lat="44.7393117" lon="9.7663166"><ele>393.6666666666667</ele><time>2026-04-19T10:55:14.322Z</time></trkpt><trkpt lat="44.739291" lon="9.7664559"><ele>399.0</ele><time>2026-04-19T10:55:16.34Z</time></trkpt><trkpt lat="44.7392991" lon="9.7665453"><ele>404.33333333333337</ele><time>2026-04-19T10:55:18.322Z</time></trkpt><trkpt lat="44.7393259" lon="9.7666631"><ele>409.6666666666667</ele><time>2026-04-19T10:55:21.312Z</time></trkpt><trkpt lat="44.7393158" lon="9.7667527"><ele>415.0</ele><time>2026-04-19T10:55:24.313Z</time></trkpt><trkpt lat="44.739302" lon="9.7668514"><ele>419.33333333333337</ele><time>2026-04-19T10:55:27.323Z</time></trkpt><trkpt lat="44.7392988" lon="9.7669651"><ele>423.6666666666667</ele><time>2026-04-19T10:55:30.312Z</time></trkpt><trkpt lat="44.7393016" lon="9.7670809"><ele>428.0</ele><time>2026-04-19T10:55:33.307Z</time></trkpt><trkpt lat="44.7393244" lon="9.7671796"><ele>432.33333333333337</ele><time>2026-04-19T10:55:35.326Z</time></trkpt><trkpt lat="44.7393413" lon="9.7672705"><ele>436.6666666666667</ele><time>2026-04-19T10:55:37.32Z</time></trkpt><trkpt lat="44.7393467" lon="9.7673783"><ele>441.0</ele><time>2026-04-19T10:55:39.322Z</time></trkpt><trkpt lat="44.7392905" lon="9.7674793"><ele>441.0</ele><time>2026-04-19T10:55:42.31Z</time></trkpt><trkpt lat="44.7392222" lon="9.7674552"><ele>441.0</ele><time>2026-04-19T10:55:46.304Z</time></trkpt><trkpt lat="44.7391581" lon="9.7674244"><ele>441.0</ele><time>2026-04-19T10:55:48.298Z</time></trkpt><trkpt lat="44.7390747" lon="9.7674019"><ele>441.0</ele><time>2026-04-19T10:55:50.322Z</time></trkpt><trkpt lat="44.7390007" lon="9.7674171"><ele>441.0</ele><time>2026-04-19T10:55:52.31Z</time></trkpt><trkpt lat="44.7389284" lon="9.7673926"><ele>441.0</ele><time>2026-04-19T10:55:54.317Z</time></trkpt><trkpt lat="44.7388631" lon="9.7673427"><ele>441.0</ele><time>2026-04-19T10:55:56.326Z</time></trkpt><trkpt lat="44.738785" lon="9.767283"><ele>441.0</ele><time>2026-04-19T10:55:58.323Z</time></trkpt><trkpt lat="44.7387039" lon="9.7672832"><ele>441.0</ele><time>2026-04-19T10:56:01.326Z</time></trkpt><trkpt lat="44.7386777" lon="9.7673647"><ele>441.0</ele><time>2026-04-19T10:56:04.313Z</time></trkpt><trkpt lat="44.7387064" lon="9.7674731"><ele>441.0</ele><time>2026-04-19T10:56:07.313Z</time></trkpt><trkpt lat="44.7387367" lon="9.7675766"><ele>441.0</ele><time>2026-04-19T10:56:09.32Z</time></trkpt><trkpt lat="44.7387772" lon="9.7677448"><ele>441.0</ele><time>2026-04-19T10:56:11.314Z</time></trkpt><trkpt lat="44.73881" lon="9.767822"><ele>445.8333333333333</ele><time>2026-04-19T10:56:12.315Z</time></trkpt><trkpt lat="44.7388405" lon="9.7679022"><ele>450.66666666666663</ele><time>2026-04-19T10:56:13.317Z</time></trkpt><trkpt lat="44.7388744" lon="9.7679846"><ele>455.5</ele><time>2026-04-19T10:56:14.313Z</time></trkpt><trkpt lat="44.7389098" lon="9.7680625"><ele>460.3333333333333</ele><time>2026-04-19T10:56:15.324Z</time></trkpt><trkpt lat="44.738996" lon="9.7681746"><ele>465.16666666666663</ele><time>2026-04-19T10:56:17.328Z</time></trkpt><trkpt lat="44.7390955" lon="9.7682614"><ele>470.0</ele><time>2026-04-19T10:56:19.317Z</time></trkpt><trkpt lat="44.7391524" lon="9.7683411"><ele>469.99999999999994</ele><time>2026-04-19T10:56:21.313Z</time></trkpt><trkpt lat="44.7391295" lon="9.768435"><ele>470.0</ele><time>2026-04-19T10:56:24.319Z</time></trkpt><trkpt lat="44.739097" lon="9.7685289"><ele>470.0</ele><time>2026-04-19T10:57:03.326Z</time></trkpt><trkpt lat="44.7391012" lon="9.7686393"><ele>470.0</ele><time>2026-04-19T10:57:06.304Z</time></trkpt><trkpt lat="44.739127" lon="9.7687722"><ele>469.99999999999994</ele><time>2026-04-19T10:57:09.311Z</time></trkpt><trkpt lat="44.7391342" lon="9.7688698"><ele>470.0</ele><time>2026-04-19T10:57:11.311Z</time></trkpt><trkpt lat="44.7391654" lon="9.7689755"><ele>474.6</ele><time>2026-04-19T10:57:14.32Z</time></trkpt><trkpt lat="44.7392591" lon="9.7689795"><ele>479.2</ele><time>2026-04-19T10:57:16.329Z</time></trkpt><trkpt lat="44.7393715" lon="9.7689674"><ele>483.79999999999995</ele><time>2026-04-19T10:57:18.316Z</time></trkpt><trkpt lat="44.7394879" lon="9.7689978"><ele>488.4</ele><time>2026-04-19T10:57:20.322Z</time></trkpt><trkpt lat="44.7395511" lon="9.7690175"><ele>493.0</ele><time>2026-04-19T10:57:21.316Z</time></trkpt><trkpt lat="44.7396174" lon="9.7690491"><ele>493.0</ele><time>2026-04-19T10:57:22.306Z</time></trkpt><trkpt lat="44.7396775" lon="9.7690863"><ele>492.99999999999994</ele><time>2026-04-19T10:57:23.325Z</time></trkpt><trkpt lat="44.7397423" lon="9.7691366"><ele>492.99999999999994</ele><time>2026-04-19T10:57:24.339Z</time></trkpt><trkpt lat="44.7398075" lon="9.769182"><ele>493.0</ele><time>2026-04-19T10:57:25.327Z</time></trkpt><trkpt lat="44.7399063" lon="9.7692783"><ele>493.0</ele><time>2026-04-19T10:57:27.316Z</time></trkpt><trkpt lat="44.739976" lon="9.7694141"><ele>497.33333333333337</ele><time>2026-04-19T10:57:29.324Z</time></trkpt><trkpt lat="44.740023" lon="9.7694827"><ele>501.6666666666667</ele><time>2026-04-19T10:57:30.32Z</time></trkpt><trkpt lat="44.7401247" lon="9.7695705"><ele>506.0</ele><time>2026-04-19T10:57:32.345Z</time></trkpt><trkpt lat="44.7401891" lon="9.7695964"><ele>510.33333333333337</ele><time>2026-04-19T10:57:34.314Z</time></trkpt><trkpt lat="44.7402733" lon="9.7696293"><ele>514.6666666666666</ele><time>2026-04-19T10:57:37.316Z</time></trkpt><trkpt lat="44.7403437" lon="9.7696478"><ele>519.0</ele><time>2026-04-19T10:57:39.322Z</time></trkpt><trkpt lat="44.7404187" lon="9.7696673"><ele>519.0</ele><time>2026-04-19T10:57:50.311Z</time></trkpt><trkpt lat="44.7404991" lon="9.7696781"><ele>519.0</ele><time>2026-04-19T10:57:52.318Z</time></trkpt><trkpt lat="44.7405897" lon="9.7697034"><ele>519.0</ele><time>2026-04-19T10:57:54.323Z</time></trkpt><trkpt lat="44.7406552" lon="9.7697185"><ele>519.0</ele><time>2026-04-19T10:57:55.317Z</time></trkpt><trkpt lat="44.7407307" lon="9.769734"><ele>519.0</ele><time>2026-04-19T10:57:56.315Z</time></trkpt><trkpt lat="44.7408107" lon="9.7697353"><ele>519.0</ele><time>2026-04-19T10:57:57.311Z</time></trkpt><trkpt lat="44.7408887" lon="9.7697306"><ele>519.0</ele><time>2026-04-19T10:57:58.315Z</time></trkpt><trkpt lat="44.7409694" lon="9.7697235"><ele>519.0</ele><time>2026-04-19T10:57:59.316Z</time></trkpt><trkpt lat="44.7410425" lon="9.7697272"><ele>519.0</ele><time>2026-04-19T10:58:00.31Z</time></trkpt><trkpt lat="44.741114" lon="9.7697331"><ele>519.0</ele><time>2026-04-19T10:58:01.316Z</time></trkpt><trkpt lat="44.7411899" lon="9.7697505"><ele>519.0</ele><time>2026-04-19T10:58:02.316Z</time></trkpt><trkpt lat="44.7412601" lon="9.7697644"><ele>519.0</ele><time>2026-04-19T10:58:03.312Z</time></trkpt><trkpt lat="44.7413287" lon="9.7697798"><ele>519.0</ele><time>2026-04-19T10:58:04.318Z</time></trkpt><trkpt lat="44.7414004" lon="9.7698145"><ele>517.3333333333334</ele><time>2026-04-19T10:58:05.311Z</time></trkpt><trkpt lat="44.7414764" lon="9.7698734"><ele>515.6666666666666</ele><time>2026-04-19T10:58:06.309Z</time></trkpt><trkpt lat="44.741545" lon="9.7699367"><ele>514.0</ele><time>2026-04-19T10:58:07.312Z</time></trkpt><trkpt lat="44.7416186" lon="9.7700012"><ele>512.3333333333333</ele><time>2026-04-19T10:58:08.307Z</time></trkpt><trkpt lat="44.7416833" lon="9.7700595"><ele>510.66666666666663</ele><time>2026-04-19T10:58:09.315Z</time></trkpt><trkpt lat="44.7417439" lon="9.7701259"><ele>509.0</ele><time>2026-04-19T10:58:10.318Z</time></trkpt><trkpt lat="44.7418076" lon="9.7701754"><ele>510.8333333333333</ele><time>2026-04-19T10:58:11.319Z</time></trkpt><trkpt lat="44.7418818" lon="9.7702249"><ele>512.6666666666666</ele><time>2026-04-19T10:58:12.32Z</time></trkpt><trkpt lat="44.7419567" lon="9.7702705"><ele>514.5</ele><time>2026-04-19T10:58:13.312Z</time></trkpt><trkpt lat="44.7420307" lon="9.7703027"><ele>516.3333333333334</ele><time>2026-04-19T10:58:14.329Z</time></trkpt><trkpt lat="44.7421049" lon="9.7703309"><ele>518.1666666666667</ele><time>2026-04-19T10:58:15.311Z</time></trkpt><trkpt lat="44.7421797" lon="9.7703704"><ele>520.0</ele><time>2026-04-19T10:58:16.318Z</time></trkpt><trkpt lat="44.7422499" lon="9.770399"><ele>520.0</ele><time>2026-04-19T10:58:17.32Z</time></trkpt><trkpt lat="44.7423216" lon="9.7704297"><ele>520.0</ele><time>2026-04-19T10:58:18.315Z</time></trkpt><trkpt lat="44.7423975" lon="9.7704655"><ele>520.0</ele><time>2026-04-19T10:58:19.321Z</time></trkpt><trkpt lat="44.7424716" lon="9.7704985"><ele>520.0</ele><time>2026-04-19T10:58:20.317Z</time></trkpt><trkpt lat="44.742553" lon="9.770524"><ele>520.0</ele><time>2026-04-19T10:58:21.32Z</time></trkpt><trkpt lat="44.742626" lon="9.7705509"><ele>520.0</ele><time>2026-04-19T10:58:22.323Z</time></trkpt><trkpt lat="44.7426894" lon="9.7705823"><ele>515.6666666666667</ele><time>2026-04-19T10:58:23.313Z</time></trkpt><trkpt lat="44.7427548" lon="9.7706321"><ele>511.33333333333337</ele><time>2026-04-19T10:58:24.324Z</time></trkpt><trkpt lat="44.7428142" lon="9.7706925"><ele>507.0</ele><time>2026-04-19T10:58:25.325Z</time></trkpt><trkpt lat="44.7428677" lon="9.7707947"><ele>502.66666666666663</ele><time>2026-04-19T10:58:27.322Z</time></trkpt><trkpt lat="44.7428645" lon="9.7709001"><ele>498.3333333333333</ele><time>2026-04-19T10:58:29.328Z</time></trkpt><trkpt lat="44.7428228" lon="9.7710143"><ele>494.0</ele><time>2026-04-19T10:58:31.312Z</time></trkpt><trkpt lat="44.7427306" lon="9.7711216"><ele>499.0</ele><time>2026-04-19T10:58:33.317Z</time></trkpt><trkpt lat="44.7426279" lon="9.7712354"><ele>504.0</ele><time>2026-04-19T10:58:35.32Z</time></trkpt><trkpt lat="44.7425734" lon="9.7712929"><ele>509.0</ele><time>2026-04-19T10:58:36.322Z</time></trkpt><trkpt lat="44.7424796" lon="9.7714039"><ele>514.0</ele><time>2026-04-19T10:58:38.316Z</time></trkpt><trkpt lat="44.7423958" lon="9.7715192"><ele>519.0</ele><time>2026-04-19T10:58:40.318Z</time></trkpt><trkpt lat="44.742348" lon="9.7716543"><ele>519.0</ele><time>2026-04-19T10:58:42.321Z</time></trkpt><trkpt lat="44.7423221" lon="9.7718269"><ele>519.0</ele><time>2026-04-19T10:58:44.319Z</time></trkpt><trkpt lat="44.7422702" lon="9.7719934"><ele>519.0</ele><time>2026-04-19T10:58:46.314Z</time></trkpt><trkpt lat="44.7422404" lon="9.7720717"><ele>519.0</ele><time>2026-04-19T10:58:47.309Z</time></trkpt><trkpt lat="44.7422139" lon="9.7721521"><ele>519.0</ele><time>2026-04-19T10:58:48.32Z</time></trkpt><trkpt lat="44.7421839" lon="9.7723048"><ele>519.0</ele><time>2026-04-19T10:58:50.313Z</time></trkpt><trkpt lat="44.7421561" lon="9.7724892"><ele>519.0</ele><time>2026-04-19T10:58:52.317Z</time></trkpt><trkpt lat="44.7421276" lon="9.7725916"><ele>519.0</ele><time>2026-04-19T10:58:53.316Z</time></trkpt><trkpt lat="44.7420915" lon="9.7726839"><ele>519.0</ele><time>2026-04-19T10:58:54.315Z</time></trkpt><trkpt lat="44.7420606" lon="9.7727756"><ele>519.0</ele><time>2026-04-19T10:58:55.319Z</time></trkpt><trkpt lat="44.7420341" lon="9.7728677"><ele>519.0</ele><time>2026-04-19T10:58:56.315Z</time></trkpt><trkpt lat="44.7420145" lon="9.7729668"><ele>521.8333333333334</ele><time>2026-04-19T10:58:57.322Z</time></trkpt><trkpt lat="44.7419858" lon="9.7730625"><ele>524.6666666666666</ele><time>2026-04-19T10:58:58.313Z</time></trkpt><trkpt lat="44.7419397" lon="9.7731711"><ele>527.5</ele><time>2026-04-19T10:58:59.314Z</time></trkpt><trkpt lat="44.7418949" lon="9.7732722"><ele>530.3333333333333</ele><time>2026-04-19T10:59:00.313Z</time></trkpt><trkpt lat="44.7418578" lon="9.7733802"><ele>533.1666666666666</ele><time>2026-04-19T10:59:01.319Z</time></trkpt><trkpt lat="44.7418254" lon="9.773477"><ele>536.0</ele><time>2026-04-19T10:59:02.313Z</time></trkpt><trkpt lat="44.7417892" lon="9.7735692"><ele>539.5</ele><time>2026-04-19T10:59:03.316Z</time></trkpt><trkpt lat="44.7417661" lon="9.7736694"><ele>543.0</ele><time>2026-04-19T10:59:04.315Z</time></trkpt><trkpt lat="44.7417356" lon="9.7737728"><ele>546.5</ele><time>2026-04-19T10:59:05.314Z</time></trkpt><trkpt lat="44.7416977" lon="9.7738648"><ele>550.0</ele><time>2026-04-19T10:59:06.312Z</time></trkpt><trkpt lat="44.74166" lon="9.7739491"><ele>553.5</ele><time>2026-04-19T10:59:07.309Z</time></trkpt><trkpt lat="44.7415918" lon="9.774066"><ele>557.0</ele><time>2026-04-19T10:59:09.312Z</time></trkpt><trkpt lat="44.7415435" lon="9.7741554"><ele>557.0</ele><time>2026-04-19T10:59:11.315Z</time></trkpt><trkpt lat="44.741499" lon="9.7742439"><ele>557.0</ele><time>2026-04-19T10:59:15.313Z</time></trkpt><trkpt lat="44.7414356" lon="9.774326"><ele>557.0</ele><time>2026-04-19T10:59:18.315Z</time></trkpt><trkpt lat="44.7413849" lon="9.7744103"><ele>557.0</ele><time>2026-04-19T10:59:20.317Z</time></trkpt><trkpt lat="44.7413536" lon="9.7745047"><ele>557.0</ele><time>2026-04-19T10:59:22.323Z</time></trkpt><trkpt lat="44.7413459" lon="9.7746057"><ele>557.0</ele><time>2026-04-19T10:59:24.318Z</time></trkpt><trkpt lat="44.7413812" lon="9.7747109"><ele>557.8000000000001</ele><time>2026-04-19T10:59:26.321Z</time></trkpt><trkpt lat="44.7413934" lon="9.7748328"><ele>558.6</ele><time>2026-04-19T10:59:28.32Z</time></trkpt><trkpt lat="44.7413976" lon="9.7749747"><ele>559.4000000000001</ele><time>2026-04-19T10:59:30.319Z</time></trkpt><trkpt lat="44.7413816" lon="9.7750787"><ele>560.2</ele><time>2026-04-19T10:59:31.318Z</time></trkpt><trkpt lat="44.7413686" lon="9.7751693"><ele>561.0</ele><time>2026-04-19T10:59:32.32Z</time></trkpt><trkpt lat="44.7413467" lon="9.7753486"><ele>562.3333333333334</ele><time>2026-04-19T10:59:34.318Z</time></trkpt><trkpt lat="44.7413349" lon="9.7754897"><ele>563.6666666666666</ele><time>2026-04-19T10:59:36.316Z</time></trkpt><trkpt lat="44.7413397" lon="9.7755877"><ele>565.0</ele><time>2026-04-19T10:59:47.313Z</time></trkpt><trkpt lat="44.7414066" lon="9.7756618"><ele>566.3333333333333</ele><time>2026-04-19T10:59:51.318Z</time></trkpt><trkpt lat="44.7414883" lon="9.7757188"><ele>567.6666666666666</ele><time>2026-04-19T10:59:53.312Z</time></trkpt><trkpt lat="44.7415776" lon="9.7757607"><ele>569.0</ele><time>2026-04-19T10:59:55.317Z</time></trkpt><trkpt lat="44.7416468" lon="9.7757808"><ele>569.0</ele><time>2026-04-19T10:59:56.321Z</time></trkpt><trkpt lat="44.7417345" lon="9.7757876"><ele>569.0</ele><time>2026-04-19T10:59:57.314Z</time></trkpt><trkpt lat="44.7418185" lon="9.7757869"><ele>569.0</ele><time>2026-04-19T10:59:58.316Z</time></trkpt><trkpt lat="44.7418964" lon="9.7757928"><ele>569.0</ele><time>2026-04-19T10:59:59.318Z</time></trkpt><trkpt lat="44.7419782" lon="9.7758044"><ele>569.0</ele><time>2026-04-19T11:00:00.311Z</time></trkpt><trkpt lat="44.7420652" lon="9.7758219"><ele>569.0</ele><time>2026-04-19T11:00:01.317Z</time></trkpt><trkpt lat="44.7421466" lon="9.7758496"><ele>569.0000000000001</ele><time>2026-04-19T11:00:02.313Z</time></trkpt><trkpt lat="44.7422182" lon="9.775871"><ele>569.0</ele><time>2026-04-19T11:00:03.316Z</time></trkpt><trkpt lat="44.7422924" lon="9.7758948"><ele>569.0</ele><time>2026-04-19T11:00:04.313Z</time></trkpt><trkpt lat="44.7423621" lon="9.775914"><ele>569.0</ele><time>2026-04-19T11:00:05.316Z</time></trkpt><trkpt lat="44.7424297" lon="9.7759343"><ele>569.0</ele><time>2026-04-19T11:00:06.32Z</time></trkpt><trkpt lat="44.7424965" lon="9.7759574"><ele>569.0000000000001</ele><time>2026-04-19T11:00:07.32Z</time></trkpt><trkpt lat="44.7425669" lon="9.7759754"><ele>569.0</ele><time>2026-04-19T11:00:08.311Z</time></trkpt><trkpt lat="44.7426402" lon="9.7759843"><ele>570.8333333333333</ele><time>2026-04-19T11:00:09.32Z</time></trkpt><trkpt lat="44.7427181" lon="9.7759842"><ele>572.6666666666666</ele><time>2026-04-19T11:00:10.315Z</time></trkpt><trkpt lat="44.7427984" lon="9.7759783"><ele>574.5</ele><time>2026-04-19T11:00:11.31Z</time></trkpt><trkpt lat="44.7428778" lon="9.7759702"><ele>576.3333333333334</ele><time>2026-04-19T11:00:12.321Z</time></trkpt><trkpt lat="44.7429543" lon="9.7759481"><ele>578.1666666666667</ele><time>2026-04-19T11:00:13.313Z</time></trkpt><trkpt lat="44.743037" lon="9.7759153"><ele>580.0</ele><time>2026-04-19T11:00:14.319Z</time></trkpt><trkpt lat="44.7431113" lon="9.775877"><ele>580.0</ele><time>2026-04-19T11:00:15.315Z</time></trkpt><trkpt lat="44.743177" lon="9.7758465"><ele>580.0</ele><time>2026-04-19T11:00:16.313Z</time></trkpt><trkpt lat="44.7432458" lon="9.7758142"><ele>580.0</ele><time>2026-04-19T11:00:17.314Z</time></trkpt><trkpt lat="44.7433266" lon="9.7757725"><ele>580.0</ele><time>2026-04-19T11:00:18.313Z</time></trkpt><trkpt lat="44.7433938" lon="9.7757404"><ele>580.0</ele><time>2026-04-19T11:00:19.316Z</time></trkpt><trkpt lat="44.7434995" lon="9.7756987"><ele>580.0</ele><time>2026-04-19T11:00:21.32Z</time></trkpt><trkpt lat="44.7435984" lon="9.7756934"><ele>579.0</ele><time>2026-04-19T11:00:23.315Z</time></trkpt><trkpt lat="44.7437304" lon="9.7757451"><ele>578.0</ele><time>2026-04-19T11:00:25.314Z</time></trkpt><trkpt lat="44.7437952" lon="9.7757698"><ele>577.0</ele><time>2026-04-19T11:00:26.321Z</time></trkpt><trkpt lat="44.7438666" lon="9.7757893"><ele>576.0</ele><time>2026-04-19T11:00:27.318Z</time></trkpt><trkpt lat="44.7439413" lon="9.7758121"><ele>575.0</ele><time>2026-04-19T11:00:28.32Z</time></trkpt><trkpt lat="44.7440161" lon="9.775849"><ele>574.0</ele><time>2026-04-19T11:00:29.323Z</time></trkpt><trkpt lat="44.7440874" lon="9.7758832"><ele>574.0</ele><time>2026-04-19T11:00:30.32Z</time></trkpt><trkpt lat="44.7441557" lon="9.7759212"><ele>574.0</ele><time>2026-04-19T11:00:31.317Z</time></trkpt><trkpt lat="44.7442204" lon="9.7759503"><ele>574.0</ele><time>2026-04-19T11:00:32.318Z</time></trkpt><trkpt lat="44.7442896" lon="9.7759875"><ele>574.0</ele><time>2026-04-19T11:00:33.321Z</time></trkpt><trkpt lat="44.7443522" lon="9.7760216"><ele>574.0</ele><time>2026-04-19T11:00:34.32Z</time></trkpt><trkpt lat="44.7444585" lon="9.7761132"><ele>574.0</ele><time>2026-04-19T11:00:36.319Z</time></trkpt><trkpt lat="44.7445136" lon="9.7761641"><ele>570.0</ele><time>2026-04-19T11:00:37.322Z</time></trkpt><trkpt lat="44.7445861" lon="9.776298"><ele>566.0</ele><time>2026-04-19T11:00:39.319Z</time></trkpt><trkpt lat="44.7446148" lon="9.7763802"><ele>562.0</ele><time>2026-04-19T11:00:40.323Z</time></trkpt><trkpt lat="44.7446462" lon="9.7764828"><ele>558.0</ele><time>2026-04-19T11:00:41.318Z</time></trkpt><trkpt lat="44.744676" lon="9.7765695"><ele>554.0</ele><time>2026-04-19T11:00:42.321Z</time></trkpt><trkpt lat="44.7447225" lon="9.7767279"><ele>554.0</ele><time>2026-04-19T11:00:44.32Z</time></trkpt><trkpt lat="44.7447532" lon="9.7768147"><ele>554.0</ele><time>2026-04-19T11:00:45.315Z</time></trkpt><trkpt lat="44.7447726" lon="9.7769004"><ele>554.0</ele><time>2026-04-19T11:00:46.322Z</time></trkpt><trkpt lat="44.7447895" lon="9.7770637"><ele>554.0</ele><time>2026-04-19T11:00:48.32Z</time></trkpt><trkpt lat="44.7447948" lon="9.7771522"><ele>554.0</ele><time>2026-04-19T11:00:49.32Z</time></trkpt><trkpt lat="44.7447778" lon="9.7773188"><ele>554.0</ele><time>2026-04-19T11:00:51.321Z</time></trkpt><trkpt lat="44.7447596" lon="9.7774059"><ele>552.8</ele><time>2026-04-19T11:00:52.32Z</time></trkpt><trkpt lat="44.7447145" lon="9.7775598"><ele>551.5999999999999</ele><time>2026-04-19T11:00:54.322Z</time></trkpt><trkpt lat="44.7446348" lon="9.7777102"><ele>550.4</ele><time>2026-04-19T11:00:56.326Z</time></trkpt><trkpt lat="44.7445964" lon="9.7777909"><ele>549.1999999999999</ele><time>2026-04-19T11:00:57.319Z</time></trkpt><trkpt lat="44.7445584" lon="9.7778791"><ele>548.0</ele><time>2026-04-19T11:00:58.32Z</time></trkpt><trkpt lat="44.7445283" lon="9.7779663"><ele>546.1666666666666</ele><time>2026-04-19T11:00:59.317Z</time></trkpt><trkpt lat="44.7445036" lon="9.7780562"><ele>544.3333333333333</ele><time>2026-04-19T11:01:00.328Z</time></trkpt><trkpt lat="44.7444881" lon="9.7781448"><ele>542.5</ele><time>2026-04-19T11:01:01.323Z</time></trkpt><trkpt lat="44.7444567" lon="9.7783095"><ele>540.6666666666666</ele><time>2026-04-19T11:01:03.321Z</time></trkpt><trkpt lat="44.7444496" lon="9.7784453"><ele>538.8333333333334</ele><time>2026-04-19T11:01:05.318Z</time></trkpt><trkpt lat="44.7444633" lon="9.7785462"><ele>537.0</ele><time>2026-04-19T11:01:07.324Z</time></trkpt><trkpt lat="44.7444685" lon="9.778641"><ele>536.9999999999999</ele><time>2026-04-19T11:01:08.322Z</time></trkpt><trkpt lat="44.7444652" lon="9.7787385"><ele>537.0</ele><time>2026-04-19T11:01:09.32Z</time></trkpt><trkpt lat="44.7444537" lon="9.7788343"><ele>537.0</ele><time>2026-04-19T11:01:10.311Z</time></trkpt><trkpt lat="44.7444415" lon="9.778923"><ele>537.0</ele><time>2026-04-19T11:01:11.321Z</time></trkpt><trkpt lat="44.7444209" lon="9.7790289"><ele>537.0</ele><time>2026-04-19T11:01:12.314Z</time></trkpt><trkpt lat="44.7444017" lon="9.7791373"><ele>536.9999999999999</ele><time>2026-04-19T11:01:13.312Z</time></trkpt><trkpt lat="44.7443867" lon="9.7792471"><ele>537.0</ele><time>2026-04-19T11:01:14.316Z</time></trkpt><trkpt lat="44.7443714" lon="9.7793476"><ele>540.5714285714286</ele><time>2026-04-19T11:01:15.314Z</time></trkpt><trkpt lat="44.7443681" lon="9.7794432"><ele>544.1428571428571</ele><time>2026-04-19T11:01:16.313Z</time></trkpt><trkpt lat="44.7443662" lon="9.7795346"><ele>547.7142857142858</ele><time>2026-04-19T11:01:17.323Z</time></trkpt><trkpt lat="44.7443575" lon="9.7796337"><ele>551.2857142857142</ele><time>2026-04-19T11:01:18.322Z</time></trkpt><trkpt lat="44.7443425" lon="9.7797413"><ele>554.8571428571429</ele><time>2026-04-19T11:01:19.32Z</time></trkpt><trkpt lat="44.7443273" lon="9.7798463"><ele>558.4285714285714</ele><time>2026-04-19T11:01:20.313Z</time></trkpt><trkpt lat="44.7443042" lon="9.7799636"><ele>562.0</ele><time>2026-04-19T11:01:21.313Z</time></trkpt><trkpt lat="44.744279" lon="9.7800594"><ele>562.0</ele><time>2026-04-19T11:01:22.323Z</time></trkpt><trkpt lat="44.744259" lon="9.7801484"><ele>562.0</ele><time>2026-04-19T11:01:23.315Z</time></trkpt><trkpt lat="44.7441965" lon="9.7803018"><ele>562.0</ele><time>2026-04-19T11:01:25.319Z</time></trkpt><trkpt lat="44.7441609" lon="9.7803788"><ele>562.0</ele><time>2026-04-19T11:01:26.32Z</time></trkpt><trkpt lat="44.7441103" lon="9.7805163"><ele>562.0</ele><time>2026-04-19T11:01:28.318Z</time></trkpt><trkpt lat="44.7441106" lon="9.7806134"><ele>562.0</ele><time>2026-04-19T11:01:30.317Z</time></trkpt><trkpt lat="44.7441956" lon="9.7806862"><ele>561.2</ele><time>2026-04-19T11:01:32.321Z</time></trkpt><trkpt lat="44.7443092" lon="9.7807436"><ele>560.4000000000001</ele><time>2026-04-19T11:01:34.317Z</time></trkpt><trkpt lat="44.7443896" lon="9.7807767"><ele>559.5999999999999</ele><time>2026-04-19T11:01:35.327Z</time></trkpt><trkpt lat="44.744476" lon="9.7808173"><ele>558.8</ele><time>2026-04-19T11:01:36.322Z</time></trkpt><trkpt lat="44.7445449" lon="9.7808471"><ele>558.0</ele><time>2026-04-19T11:01:37.322Z</time></trkpt><trkpt lat="44.7446363" lon="9.7809491"><ele>556.1999999999999</ele><time>2026-04-19T11:01:39.326Z</time></trkpt><trkpt lat="44.7447047" lon="9.7810828"><ele>554.4</ele><time>2026-04-19T11:01:41.322Z</time></trkpt><trkpt lat="44.7447519" lon="9.781226"><ele>552.5999999999999</ele><time>2026-04-19T11:01:43.315Z</time></trkpt><trkpt lat="44.7447698" lon="9.7813349"><ele>550.8</ele><time>2026-04-19T11:01:44.321Z</time></trkpt><trkpt lat="44.7447774" lon="9.7814634"><ele>549.0</ele><time>2026-04-19T11:01:45.313Z</time></trkpt><trkpt lat="44.7447844" lon="9.7815984"><ele>549.0</ele><time>2026-04-19T11:01:46.319Z</time></trkpt><trkpt lat="44.7447917" lon="9.7817456"><ele>549.0</ele><time>2026-04-19T11:01:47.321Z</time></trkpt><trkpt lat="44.7447981" lon="9.7818911"><ele>549.0</ele><time>2026-04-19T11:01:48.319Z</time></trkpt><trkpt lat="44.7447948" lon="9.7820171"><ele>549.0</ele><time>2026-04-19T11:01:49.314Z</time></trkpt><trkpt lat="44.7447891" lon="9.7821557"><ele>549.0</ele><time>2026-04-19T11:01:50.311Z</time></trkpt><trkpt lat="44.7447664" lon="9.782291"><ele>550.5</ele><time>2026-04-19T11:01:51.325Z</time></trkpt><trkpt lat="44.7447634" lon="9.7824225"><ele>552.0</ele><time>2026-04-19T11:01:52.321Z</time></trkpt><trkpt lat="44.7447633" lon="9.7825617"><ele>553.5</ele><time>2026-04-19T11:01:53.315Z</time></trkpt><trkpt lat="44.7447616" lon="9.7826858"><ele>555.0</ele><time>2026-04-19T11:01:54.318Z</time></trkpt><trkpt lat="44.7447689" lon="9.7827899"><ele>556.5</ele><time>2026-04-19T11:01:55.325Z</time></trkpt><trkpt lat="44.7447947" lon="9.7828998"><ele>558.0</ele><time>2026-04-19T11:01:56.319Z</time></trkpt><trkpt lat="44.7448383" lon="9.7830276"><ele>560.6</ele><time>2026-04-19T11:01:57.32Z</time></trkpt><trkpt lat="44.7448839" lon="9.7831641"><ele>563.1999999999999</ele><time>2026-04-19T11:01:58.316Z</time></trkpt><trkpt lat="44.7449314" lon="9.7832864"><ele>565.8</ele><time>2026-04-19T11:01:59.317Z</time></trkpt><trkpt lat="44.7449923" lon="9.783385"><ele>568.4</ele><time>2026-04-19T11:02:00.322Z</time></trkpt><trkpt lat="44.7450618" lon="9.7834933"><ele>571.0</ele><time>2026-04-19T11:02:01.317Z</time></trkpt><trkpt lat="44.7451406" lon="9.7835717"><ele>573.2</ele><time>2026-04-19T11:02:02.318Z</time></trkpt><trkpt lat="44.7452062" lon="9.783645"><ele>575.4000000000001</ele><time>2026-04-19T11:02:03.324Z</time></trkpt><trkpt lat="44.7452742" lon="9.7837221"><ele>577.6</ele><time>2026-04-19T11:02:04.316Z</time></trkpt><trkpt lat="44.7453579" lon="9.7837972"><ele>579.8000000000001</ele><time>2026-04-19T11:02:05.312Z</time></trkpt><trkpt lat="44.7454382" lon="9.7838724"><ele>582.0</ele><time>2026-04-19T11:02:06.32Z</time></trkpt><trkpt lat="44.7455268" lon="9.7839339"><ele>582.0</ele><time>2026-04-19T11:02:07.315Z</time></trkpt><trkpt lat="44.7456056" lon="9.7839772"><ele>582.0</ele><time>2026-04-19T11:02:08.321Z</time></trkpt><trkpt lat="44.7456848" lon="9.7840087"><ele>582.0</ele><time>2026-04-19T11:02:09.309Z</time></trkpt><trkpt lat="44.7457598" lon="9.7840289"><ele>582.0</ele><time>2026-04-19T11:02:10.325Z</time></trkpt><trkpt lat="44.7458267" lon="9.7840428"><ele>582.0</ele><time>2026-04-19T11:02:11.318Z</time></trkpt><trkpt lat="44.7459307" lon="9.7840574"><ele>582.0</ele><time>2026-04-19T11:02:13.327Z</time></trkpt><trkpt lat="44.7459808" lon="9.784128"><ele>582.0</ele><time>2026-04-19T11:02:15.324Z</time></trkpt><trkpt lat="44.7459896" lon="9.7842402"><ele>582.0</ele><time>2026-04-19T11:02:17.323Z</time></trkpt><trkpt lat="44.7459527" lon="9.7843862"><ele>582.0</ele><time>2026-04-19T11:02:19.319Z</time></trkpt><trkpt lat="44.7458793" lon="9.784504"><ele>582.0</ele><time>2026-04-19T11:02:21.316Z</time></trkpt><trkpt lat="44.745819" lon="9.7845448"><ele>582.0</ele><time>2026-04-19T11:02:22.317Z</time></trkpt><trkpt lat="44.7457443" lon="9.7845794"><ele>582.0</ele><time>2026-04-19T11:02:23.319Z</time></trkpt><trkpt lat="44.7456651" lon="9.784605"><ele>585.3333333333334</ele><time>2026-04-19T11:02:24.317Z</time></trkpt><trkpt lat="44.7455875" lon="9.7846282"><ele>588.6666666666666</ele><time>2026-04-19T11:02:25.329Z</time></trkpt><trkpt lat="44.7455251" lon="9.7846527"><ele>592.0</ele><time>2026-04-19T11:02:26.327Z</time></trkpt><trkpt lat="44.7454476" lon="9.7847184"><ele>595.3333333333333</ele><time>2026-04-19T11:02:28.321Z</time></trkpt><trkpt lat="44.7454492" lon="9.7848354"><ele>598.6666666666666</ele><time>2026-04-19T11:02:31.262Z</time></trkpt><trkpt lat="44.7455358" lon="9.7848669"><ele>602.0</ele><time>2026-04-19T11:02:34.318Z</time></trkpt><trkpt lat="44.7455922" lon="9.7849204"><ele>602.0</ele><time>2026-04-19T11:02:35.316Z</time></trkpt><trkpt lat="44.745643" lon="9.7849934"><ele>602.0</ele><time>2026-04-19T11:02:36.314Z</time></trkpt><trkpt lat="44.7457273" lon="9.7851038"><ele>602.0</ele><time>2026-04-19T11:02:38.321Z</time></trkpt><trkpt lat="44.7457854" lon="9.7852312"><ele>602.0</ele><time>2026-04-19T11:02:40.324Z</time></trkpt><trkpt lat="44.7458052" lon="9.7853268"><ele>602.0</ele><time>2026-04-19T11:02:42.319Z</time></trkpt><trkpt lat="44.7457739" lon="9.7854542"><ele>602.3333333333333</ele><time>2026-04-19T11:02:45.326Z</time></trkpt><trkpt lat="44.7457544" lon="9.785557"><ele>602.6666666666666</ele><time>2026-04-19T11:02:47.314Z</time></trkpt><trkpt lat="44.7457049" lon="9.7856821"><ele>603.0</ele><time>2026-04-19T11:02:49.337Z</time></trkpt><trkpt lat="44.7456613" lon="9.7857476"><ele>603.3333333333334</ele><time>2026-04-19T11:02:50.316Z</time></trkpt><trkpt lat="44.745598" lon="9.7858071"><ele>603.6666666666667</ele><time>2026-04-19T11:02:51.321Z</time></trkpt><trkpt lat="44.7455341" lon="9.7858749"><ele>604.0</ele><time>2026-04-19T11:02:52.322Z</time></trkpt><trkpt lat="44.7454665" lon="9.7859466"><ele>601.4</ele><time>2026-04-19T11:02:53.317Z</time></trkpt><trkpt lat="44.7453936" lon="9.7860263"><ele>598.8</ele><time>2026-04-19T11:02:54.319Z</time></trkpt><trkpt lat="44.7453183" lon="9.7861033"><ele>596.2</ele><time>2026-04-19T11:02:55.323Z</time></trkpt><trkpt lat="44.7452454" lon="9.7861857"><ele>593.6</ele><time>2026-04-19T11:02:56.323Z</time></trkpt><trkpt lat="44.7451669" lon="9.7862677"><ele>591.0</ele><time>2026-04-19T11:02:57.324Z</time></trkpt><trkpt lat="44.7450917" lon="9.7863427"><ele>591.0</ele><time>2026-04-19T11:02:58.33Z</time></trkpt><trkpt lat="44.745029" lon="9.7864166"><ele>591.0</ele><time>2026-04-19T11:02:59.319Z</time></trkpt><trkpt lat="44.744966" lon="9.7864626"><ele>591.0</ele><time>2026-04-19T11:03:00.32Z</time></trkpt><trkpt lat="44.7448976" lon="9.7864684"><ele>591.0</ele><time>2026-04-19T11:03:01.322Z</time></trkpt><trkpt lat="44.7448262" lon="9.786423"><ele>591.0</ele><time>2026-04-19T11:03:02.314Z</time></trkpt><trkpt lat="44.7447534" lon="9.786333"><ele>591.0</ele><time>2026-04-19T11:03:03.32Z</time></trkpt><trkpt lat="44.7446856" lon="9.7862215"><ele>591.0</ele><time>2026-04-19T11:03:04.321Z</time></trkpt><trkpt lat="44.7446031" lon="9.7861103"><ele>591.0</ele><time>2026-04-19T11:03:05.32Z</time></trkpt><trkpt lat="44.7445186" lon="9.7860085"><ele>591.0</ele><time>2026-04-19T11:03:06.32Z</time></trkpt><trkpt lat="44.7444257" lon="9.7859152"><ele>591.0</ele><time>2026-04-19T11:03:07.312Z</time></trkpt><trkpt lat="44.7443384" lon="9.7858331"><ele>591.0</ele><time>2026-04-19T11:03:08.309Z</time></trkpt><trkpt lat="44.7442516" lon="9.7857632"><ele>592.8333333333334</ele><time>2026-04-19T11:03:09.316Z</time></trkpt><trkpt lat="44.7441775" lon="9.7856984"><ele>594.6666666666666</ele><time>2026-04-19T11:03:10.325Z</time></trkpt><trkpt lat="44.7441119" lon="9.7856508"><ele>596.5</ele><time>2026-04-19T11:03:11.321Z</time></trkpt><trkpt lat="44.7440448" lon="9.7856308"><ele>598.3333333333333</ele><time>2026-04-19T11:03:12.322Z</time></trkpt><trkpt lat="44.7439762" lon="9.7856237"><ele>600.1666666666666</ele><time>2026-04-19T11:03:13.327Z</time></trkpt><trkpt lat="44.7438969" lon="9.7857111"><ele>602.0</ele><time>2026-04-19T11:03:15.323Z</time></trkpt><trkpt lat="44.7438598" lon="9.7857938"><ele>602.0</ele><time>2026-04-19T11:03:17.322Z</time></trkpt><trkpt lat="44.743751" lon="9.7857803"><ele>602.0</ele><time>2026-04-19T11:04:24.353Z</time></trkpt><trkpt lat="44.7436792" lon="9.7857677"><ele>602.0</ele><time>2026-04-19T11:06:11.307Z</time></trkpt><trkpt lat="44.743611" lon="9.7857789"><ele>602.0</ele><time>2026-04-19T11:06:37.331Z</time></trkpt><trkpt lat="44.7437066" lon="9.7857686"><ele>602.0</ele><time>2026-04-19T11:14:15.345Z</time></trkpt><trkpt lat="44.7437573" lon="9.7857092"><ele>602.0</ele><time>2026-04-19T11:14:28.352Z</time></trkpt><trkpt lat="44.7438226" lon="9.7856808"><ele>602.0</ele><time>2026-04-19T11:14:41.341Z</time></trkpt><trkpt lat="44.7437493" lon="9.7856953"><ele>602.0</ele><time>2026-04-19T11:17:00.314Z</time></trkpt><trkpt lat="44.7436918" lon="9.7857707"><ele>602.0</ele><time>2026-04-19T11:52:38.948Z</time></trkpt><trkpt lat="44.7435509" lon="9.7857969"><ele>602.0</ele><time>2026-04-19T11:52:46.343Z</time></trkpt><trkpt lat="44.7436895" lon="9.7857626"><ele>602.0</ele><time>2026-04-19T12:48:53.251Z</time></trkpt><trkpt lat="44.743997" lon="9.7856295"><ele>602.0</ele><time>2026-04-19T12:49:02.056Z</time></trkpt><trkpt lat="44.7436859" lon="9.785759"><ele>602.0</ele><time>2026-04-19T12:49:28.597Z</time></trkpt><trkpt lat="44.7439907" lon="9.78563"><ele>602.0</ele><time>2026-04-19T12:49:55.243Z</time></trkpt><trkpt lat="44.7436918" lon="9.7857707"><ele>602.0</ele><time>2026-04-19T12:50:39.576Z</time></trkpt><trkpt lat="44.7438631" lon="9.7857465"><ele>602.0</ele><time>2026-04-19T12:50:57.491Z</time></trkpt><trkpt lat="44.7437959" lon="9.7857234"><ele>602.0</ele><time>2026-04-19T12:51:04.335Z</time></trkpt><trkpt lat="44.743731" lon="9.7857218"><ele>602.0</ele><time>2026-04-19T12:52:45.354Z</time></trkpt><trkpt lat="44.7436791" lon="9.7857805"><ele>602.0</ele><time>2026-04-19T12:53:39.351Z</time></trkpt><trkpt lat="44.7437452" lon="9.7857575"><ele>602.0</ele><time>2026-04-19T12:53:55.34Z</time></trkpt><trkpt lat="44.7438233" lon="9.7857782"><ele>602.0</ele><time>2026-04-19T12:54:18.353Z</time></trkpt><trkpt lat="44.7438323" lon="9.785882"><ele>602.0</ele><time>2026-04-19T12:54:34.349Z</time></trkpt><trkpt lat="44.7437981" lon="9.7859986"><ele>600.6</ele><time>2026-04-19T12:54:36.346Z</time></trkpt><trkpt lat="44.7437476" lon="9.7861696"><ele>599.2</ele><time>2026-04-19T12:54:38.352Z</time></trkpt><trkpt lat="44.7437077" lon="9.7862637"><ele>597.8</ele><time>2026-04-19T12:54:39.366Z</time></trkpt><trkpt lat="44.7436625" lon="9.7863786"><ele>596.4</ele><time>2026-04-19T12:54:40.363Z</time></trkpt><trkpt lat="44.7436154" lon="9.7865092"><ele>595.0</ele><time>2026-04-19T12:54:41.36Z</time></trkpt><trkpt lat="44.7435935" lon="9.7866614"><ele>595.0</ele><time>2026-04-19T12:54:42.331Z</time></trkpt><trkpt lat="44.7435829" lon="9.7868091"><ele>595.0</ele><time>2026-04-19T12:54:43.354Z</time></trkpt><trkpt lat="44.7435788" lon="9.7869615"><ele>595.0</ele><time>2026-04-19T12:54:44.341Z</time></trkpt><trkpt lat="44.7435796" lon="9.7871011"><ele>595.0</ele><time>2026-04-19T12:54:45.362Z</time></trkpt><trkpt lat="44.7435814" lon="9.787226"><ele>595.0</ele><time>2026-04-19T12:54:46.361Z</time></trkpt><trkpt lat="44.7435722" lon="9.787326"><ele>594.1666666666667</ele><time>2026-04-19T12:54:47.361Z</time></trkpt><trkpt lat="44.7435581" lon="9.7875016"><ele>593.3333333333334</ele><time>2026-04-19T12:54:49.365Z</time></trkpt><trkpt lat="44.7435627" lon="9.7875988"><ele>592.5</ele><time>2026-04-19T12:54:50.346Z</time></trkpt><trkpt lat="44.7435767" lon="9.7876907"><ele>591.6666666666666</ele><time>2026-04-19T12:54:51.363Z</time></trkpt><trkpt lat="44.7435938" lon="9.7877984"><ele>590.8333333333333</ele><time>2026-04-19T12:54:52.36Z</time></trkpt><trkpt lat="44.7435884" lon="9.7879046"><ele>590.0</ele><time>2026-04-19T12:54:53.345Z</time></trkpt><trkpt lat="44.7435728" lon="9.7880086"><ele>592.1666666666666</ele><time>2026-04-19T12:54:54.355Z</time></trkpt><trkpt lat="44.7435426" lon="9.7881169"><ele>594.3333333333333</ele><time>2026-04-19T12:54:55.365Z</time></trkpt><trkpt lat="44.7434886" lon="9.7882055"><ele>596.5</ele><time>2026-04-19T12:54:56.355Z</time></trkpt><trkpt lat="44.7434146" lon="9.7882906"><ele>598.6666666666666</ele><time>2026-04-19T12:54:57.346Z</time></trkpt><trkpt lat="44.7433503" lon="9.7883597"><ele>600.8333333333334</ele><time>2026-04-19T12:54:58.363Z</time></trkpt><trkpt lat="44.7433249" lon="9.7884596"><ele>603.0</ele><time>2026-04-19T12:54:59.346Z</time></trkpt><trkpt lat="44.7433421" lon="9.788606"><ele>603.4</ele><time>2026-04-19T12:55:00.346Z</time></trkpt><trkpt lat="44.7433877" lon="9.7887528"><ele>603.8</ele><time>2026-04-19T12:55:01.364Z</time></trkpt><trkpt lat="44.7434351" lon="9.7888952"><ele>604.2</ele><time>2026-04-19T12:55:02.36Z</time></trkpt><trkpt lat="44.7434766" lon="9.7890193"><ele>604.6</ele><time>2026-04-19T12:55:03.363Z</time></trkpt><trkpt lat="44.7435055" lon="9.7891511"><ele>605.0</ele><time>2026-04-19T12:55:04.362Z</time></trkpt><trkpt lat="44.7435271" lon="9.7893004"><ele>600.25</ele><time>2026-04-19T12:55:05.353Z</time></trkpt><trkpt lat="44.7435511" lon="9.7894836"><ele>595.5</ele><time>2026-04-19T12:55:06.359Z</time></trkpt><trkpt lat="44.7435753" lon="9.7896715"><ele>590.75</ele><time>2026-04-19T12:55:07.364Z</time></trkpt><trkpt lat="44.7435868" lon="9.7898471"><ele>586.0</ele><time>2026-04-19T12:55:08.353Z</time></trkpt><trkpt lat="44.7435987" lon="9.7900174"><ele>587.25</ele><time>2026-04-19T12:55:09.371Z</time></trkpt><trkpt lat="44.7436076" lon="9.7901813"><ele>588.5</ele><time>2026-04-19T12:55:10.361Z</time></trkpt><trkpt lat="44.7436218" lon="9.7903486"><ele>589.75</ele><time>2026-04-19T12:55:11.369Z</time></trkpt><trkpt lat="44.7436313" lon="9.7905116"><ele>591.0</ele><time>2026-04-19T12:55:12.357Z</time></trkpt><trkpt lat="44.7436439" lon="9.7906713"><ele>591.0</ele><time>2026-04-19T12:55:13.366Z</time></trkpt><trkpt lat="44.7436629" lon="9.7908263"><ele>591.0</ele><time>2026-04-19T12:55:14.361Z</time></trkpt><trkpt lat="44.7436945" lon="9.7909696"><ele>591.0</ele><time>2026-04-19T12:55:15.366Z</time></trkpt><trkpt lat="44.7437356" lon="9.7911056"><ele>591.0</ele><time>2026-04-19T12:55:16.354Z</time></trkpt><trkpt lat="44.7437764" lon="9.7912384"><ele>591.0</ele><time>2026-04-19T12:55:17.365Z</time></trkpt><trkpt lat="44.743814" lon="9.7913615"><ele>590.6</ele><time>2026-04-19T12:55:18.363Z</time></trkpt><trkpt lat="44.7438372" lon="9.7914736"><ele>590.2</ele><time>2026-04-19T12:55:19.359Z</time></trkpt><trkpt lat="44.7438487" lon="9.7915908"><ele>589.8</ele><time>2026-04-19T12:55:20.358Z</time></trkpt><trkpt lat="44.7438402" lon="9.7917138"><ele>589.4</ele><time>2026-04-19T12:55:21.365Z</time></trkpt><trkpt lat="44.743806" lon="9.7918535"><ele>589.0</ele><time>2026-04-19T12:55:22.367Z</time></trkpt><trkpt lat="44.7437552" lon="9.7920035"><ele>590.25</ele><time>2026-04-19T12:55:23.351Z</time></trkpt><trkpt lat="44.7437021" lon="9.7921459"><ele>591.5</ele><time>2026-04-19T12:55:24.365Z</time></trkpt><trkpt lat="44.7436426" lon="9.7922821"><ele>592.75</ele><time>2026-04-19T12:55:25.359Z</time></trkpt><trkpt lat="44.7435716" lon="9.7923991"><ele>594.0</ele><time>2026-04-19T12:55:26.371Z</time></trkpt><trkpt lat="44.7434785" lon="9.7925165"><ele>594.0</ele><time>2026-04-19T12:55:27.371Z</time></trkpt><trkpt lat="44.7433724" lon="9.7925977"><ele>594.0</ele><time>2026-04-19T12:55:28.358Z</time></trkpt><trkpt lat="44.7432646" lon="9.792666"><ele>594.0</ele><time>2026-04-19T12:55:29.352Z</time></trkpt><trkpt lat="44.7431831" lon="9.7927377"><ele>594.0</ele><time>2026-04-19T12:55:30.361Z</time></trkpt><trkpt lat="44.7431297" lon="9.7928191"><ele>594.0</ele><time>2026-04-19T12:55:31.361Z</time></trkpt><trkpt lat="44.7431066" lon="9.7929426"><ele>593.25</ele><time>2026-04-19T12:55:32.35Z</time></trkpt><trkpt lat="44.7431223" lon="9.7931111"><ele>592.5</ele><time>2026-04-19T12:55:33.349Z</time></trkpt><trkpt lat="44.7431724" lon="9.7932879"><ele>591.75</ele><time>2026-04-19T12:55:34.35Z</time></trkpt><trkpt lat="44.7432278" lon="9.7934365"><ele>591.0</ele><time>2026-04-19T12:55:35.353Z</time></trkpt><trkpt lat="44.7432683" lon="9.7935786"><ele>590.6</ele><time>2026-04-19T12:55:36.356Z</time></trkpt><trkpt lat="44.7433046" lon="9.7937196"><ele>590.2</ele><time>2026-04-19T12:55:37.359Z</time></trkpt><trkpt lat="44.7433224" lon="9.7938592"><ele>589.8</ele><time>2026-04-19T12:55:38.356Z</time></trkpt><trkpt lat="44.7432969" lon="9.7940005"><ele>589.4</ele><time>2026-04-19T12:55:39.336Z</time></trkpt><trkpt lat="44.7432506" lon="9.7941484"><ele>589.0</ele><time>2026-04-19T12:55:40.355Z</time></trkpt><trkpt lat="44.7431981" lon="9.7942933"><ele>588.4</ele><time>2026-04-19T12:55:41.361Z</time></trkpt><trkpt lat="44.7431485" lon="9.794445"><ele>587.8</ele><time>2026-04-19T12:55:42.363Z</time></trkpt><trkpt lat="44.7431121" lon="9.7945967"><ele>587.2</ele><time>2026-04-19T12:55:43.351Z</time></trkpt><trkpt lat="44.7430767" lon="9.7947448"><ele>586.6</ele><time>2026-04-19T12:55:44.344Z</time></trkpt><trkpt lat="44.7430524" lon="9.7948863"><ele>586.0</ele><time>2026-04-19T12:55:45.38Z</time></trkpt><trkpt lat="44.7430324" lon="9.7950185"><ele>586.0</ele><time>2026-04-19T12:55:46.368Z</time></trkpt><trkpt lat="44.7429956" lon="9.7951449"><ele>586.0</ele><time>2026-04-19T12:55:47.367Z</time></trkpt><trkpt lat="44.7429508" lon="9.7952651"><ele>586.0</ele><time>2026-04-19T12:55:48.353Z</time></trkpt><trkpt lat="44.742884" lon="9.7953392"><ele>586.0</ele><time>2026-04-19T12:55:49.36Z</time></trkpt><trkpt lat="44.7427917" lon="9.7953992"><ele>586.0</ele><time>2026-04-19T12:55:50.357Z</time></trkpt><trkpt lat="44.7426935" lon="9.7954559"><ele>588.6666666666667</ele><time>2026-04-19T12:55:51.356Z</time></trkpt><trkpt lat="44.7425934" lon="9.7955069"><ele>591.3333333333334</ele><time>2026-04-19T12:55:52.36Z</time></trkpt><trkpt lat="44.7425006" lon="9.7955574"><ele>594.0</ele><time>2026-04-19T12:55:53.352Z</time></trkpt><trkpt lat="44.7424216" lon="9.7956091"><ele>596.6666666666666</ele><time>2026-04-19T12:55:54.353Z</time></trkpt><trkpt lat="44.7423558" lon="9.7956696"><ele>599.3333333333333</ele><time>2026-04-19T12:55:55.358Z</time></trkpt><trkpt lat="44.7422969" lon="9.7957344"><ele>602.0</ele><time>2026-04-19T12:55:56.361Z</time></trkpt><trkpt lat="44.7422671" lon="9.7958172"><ele>602.0</ele><time>2026-04-19T12:55:57.345Z</time></trkpt><trkpt lat="44.7423232" lon="9.7958748"><ele>602.0</ele><time>2026-04-19T12:55:58.348Z</time></trkpt><trkpt lat="44.7424087" lon="9.7959069"><ele>602.0</ele><time>2026-04-19T12:55:59.357Z</time></trkpt><trkpt lat="44.7425304" lon="9.7959271"><ele>602.0</ele><time>2026-04-19T12:56:00.351Z</time></trkpt><trkpt lat="44.7426641" lon="9.795953"><ele>602.0</ele><time>2026-04-19T12:56:01.347Z</time></trkpt><trkpt lat="44.7427661" lon="9.7960026"><ele>598.0</ele><time>2026-04-19T12:56:02.367Z</time></trkpt><trkpt lat="44.7428547" lon="9.7960586"><ele>594.0</ele><time>2026-04-19T12:56:03.36Z</time></trkpt><trkpt lat="44.7429322" lon="9.7961374"><ele>590.0</ele><time>2026-04-19T12:56:04.353Z</time></trkpt><trkpt lat="44.7430083" lon="9.7962672"><ele>586.0</ele><time>2026-04-19T12:56:05.355Z</time></trkpt><trkpt lat="44.7430316" lon="9.7964266"><ele>582.0</ele><time>2026-04-19T12:56:06.363Z</time></trkpt><trkpt lat="44.7430531" lon="9.796596"><ele>582.0</ele><time>2026-04-19T12:56:07.366Z</time></trkpt><trkpt lat="44.7430697" lon="9.7967735"><ele>582.0</ele><time>2026-04-19T12:56:08.353Z</time></trkpt><trkpt lat="44.7431006" lon="9.7968987"><ele>582.0</ele><time>2026-04-19T12:56:09.347Z</time></trkpt><trkpt lat="44.7431548" lon="9.7970074"><ele>582.0</ele><time>2026-04-19T12:56:10.358Z</time></trkpt><trkpt lat="44.743248" lon="9.797091"><ele>582.0</ele><time>2026-04-19T12:56:11.355Z</time></trkpt><trkpt lat="44.7433604" lon="9.7971667"><ele>583.5</ele><time>2026-04-19T12:56:12.357Z</time></trkpt><trkpt lat="44.7434778" lon="9.7972362"><ele>585.0</ele><time>2026-04-19T12:56:13.352Z</time></trkpt><trkpt lat="44.7435932" lon="9.7972997"><ele>586.5</ele><time>2026-04-19T12:56:14.348Z</time></trkpt><trkpt lat="44.743698" lon="9.7973606"><ele>588.0</ele><time>2026-04-19T12:56:15.339Z</time></trkpt><trkpt lat="44.7437942" lon="9.7974032"><ele>588.0</ele><time>2026-04-19T12:56:16.351Z</time></trkpt><trkpt lat="44.7438832" lon="9.7974138"><ele>588.0</ele><time>2026-04-19T12:56:17.342Z</time></trkpt><trkpt lat="44.7439634" lon="9.797393"><ele>588.0</ele><time>2026-04-19T12:56:18.349Z</time></trkpt><trkpt lat="44.744021" lon="9.7973499"><ele>588.0</ele><time>2026-04-19T12:56:19.354Z</time></trkpt><trkpt lat="44.7440837" lon="9.7972894"><ele>588.0</ele><time>2026-04-19T12:56:20.323Z</time></trkpt><trkpt lat="44.7441553" lon="9.7972205"><ele>588.0</ele><time>2026-04-19T12:56:21.354Z</time></trkpt><trkpt lat="44.7442348" lon="9.7971092"><ele>588.0</ele><time>2026-04-19T12:56:22.364Z</time></trkpt><trkpt lat="44.7443256" lon="9.7969989"><ele>588.0</ele><time>2026-04-19T12:56:23.35Z</time></trkpt><trkpt lat="44.7444064" lon="9.7968751"><ele>588.0</ele><time>2026-04-19T12:56:24.358Z</time></trkpt><trkpt lat="44.7444933" lon="9.7967607"><ele>588.0</ele><time>2026-04-19T12:56:25.348Z</time></trkpt><trkpt lat="44.7445862" lon="9.7967175"><ele>586.6</ele><time>2026-04-19T12:56:26.357Z</time></trkpt><trkpt lat="44.7446887" lon="9.7967132"><ele>585.1999999999999</ele><time>2026-04-19T12:56:27.367Z</time></trkpt><trkpt lat="44.7447843" lon="9.796779"><ele>583.8</ele><time>2026-04-19T12:56:28.346Z</time></trkpt><trkpt lat="44.7448797" lon="9.7968572"><ele>582.4</ele><time>2026-04-19T12:56:29.348Z</time></trkpt><trkpt lat="44.7449591" lon="9.7969646"><ele>581.0</ele><time>2026-04-19T12:56:30.349Z</time></trkpt><trkpt lat="44.7450438" lon="9.7970763"><ele>581.0</ele><time>2026-04-19T12:56:31.35Z</time></trkpt><trkpt lat="44.7451472" lon="9.7971456"><ele>581.0</ele><time>2026-04-19T12:56:32.361Z</time></trkpt><trkpt lat="44.7452732" lon="9.7971869"><ele>581.0</ele><time>2026-04-19T12:56:33.36Z</time></trkpt><trkpt lat="44.745405" lon="9.7971926"><ele>581.0</ele><time>2026-04-19T12:56:34.353Z</time></trkpt><trkpt lat="44.7455379" lon="9.7972029"><ele>580.75</ele><time>2026-04-19T12:56:35.356Z</time></trkpt><trkpt lat="44.7456671" lon="9.7972195"><ele>580.5</ele><time>2026-04-19T12:56:36.361Z</time></trkpt><trkpt lat="44.7457865" lon="9.7972469"><ele>580.25</ele><time>2026-04-19T12:56:37.356Z</time></trkpt><trkpt lat="44.7459041" lon="9.797263"><ele>580.0</ele><time>2026-04-19T12:56:38.372Z</time></trkpt><trkpt lat="44.7460077" lon="9.7972764"><ele>580.8</ele><time>2026-04-19T12:56:39.353Z</time></trkpt><trkpt lat="44.7460994" lon="9.7972584"><ele>581.6</ele><time>2026-04-19T12:56:40.347Z</time></trkpt><trkpt lat="44.7461733" lon="9.7971866"><ele>582.4</ele><time>2026-04-19T12:56:41.344Z</time></trkpt><trkpt lat="44.7462246" lon="9.7970808"><ele>583.2</ele><time>2026-04-19T12:56:42.353Z</time></trkpt><trkpt lat="44.7462419" lon="9.7969408"><ele>584.0</ele><time>2026-04-19T12:56:43.356Z</time></trkpt><trkpt lat="44.7462483" lon="9.796787"><ele>584.0</ele><time>2026-04-19T12:56:44.354Z</time></trkpt><trkpt lat="44.7462315" lon="9.7966098"><ele>584.0</ele><time>2026-04-19T12:56:45.368Z</time></trkpt><trkpt lat="44.7462155" lon="9.7964287"><ele>584.0</ele><time>2026-04-19T12:56:46.36Z</time></trkpt><trkpt lat="44.7462149" lon="9.796243"><ele>584.0</ele><time>2026-04-19T12:56:47.363Z</time></trkpt><trkpt lat="44.7462272" lon="9.796056"><ele>582.75</ele><time>2026-04-19T12:56:48.368Z</time></trkpt><trkpt lat="44.7462339" lon="9.7958818"><ele>581.5</ele><time>2026-04-19T12:56:49.362Z</time></trkpt><trkpt lat="44.746245" lon="9.7957075"><ele>580.25</ele><time>2026-04-19T12:56:50.368Z</time></trkpt><trkpt lat="44.7462461" lon="9.7955473"><ele>579.0</ele><time>2026-04-19T12:56:51.369Z</time></trkpt><trkpt lat="44.7462255" lon="9.7953747"><ele>579.0</ele><time>2026-04-19T12:56:52.355Z</time></trkpt><trkpt lat="44.7461969" lon="9.7951977"><ele>579.0</ele><time>2026-04-19T12:56:53.355Z</time></trkpt><trkpt lat="44.7461728" lon="9.7950293"><ele>579.0</ele><time>2026-04-19T12:56:54.37Z</time></trkpt><trkpt lat="44.7461508" lon="9.7948796"><ele>579.0</ele><time>2026-04-19T12:56:55.353Z</time></trkpt><trkpt lat="44.7461348" lon="9.7947483"><ele>577.3333333333334</ele><time>2026-04-19T12:56:56.357Z</time></trkpt><trkpt lat="44.7461371" lon="9.7946206"><ele>575.6666666666666</ele><time>2026-04-19T12:56:57.365Z</time></trkpt><trkpt lat="44.7461807" lon="9.7945329"><ele>574.0</ele><time>2026-04-19T12:56:58.321Z</time></trkpt><trkpt lat="44.7462397" lon="9.7944974"><ele>572.3333333333333</ele><time>2026-04-19T12:56:59.356Z</time></trkpt><trkpt lat="44.7463274" lon="9.7945253"><ele>570.6666666666666</ele><time>2026-04-19T12:57:00.344Z</time></trkpt><trkpt lat="44.7464072" lon="9.794568"><ele>569.0</ele><time>2026-04-19T12:57:01.346Z</time></trkpt><trkpt lat="44.7465011" lon="9.7945939"><ele>569.0</ele><time>2026-04-19T12:57:02.353Z</time></trkpt><trkpt lat="44.7465818" lon="9.7945492"><ele>569.0</ele><time>2026-04-19T12:57:03.351Z</time></trkpt><trkpt lat="44.746647" lon="9.7944396"><ele>569.0</ele><time>2026-04-19T12:57:04.34Z</time></trkpt><trkpt lat="44.7467154" lon="9.7942892"><ele>569.0</ele><time>2026-04-19T12:57:05.349Z</time></trkpt><trkpt lat="44.7467925" lon="9.7941269"><ele>568.25</ele><time>2026-04-19T12:57:06.358Z</time></trkpt><trkpt lat="44.7468734" lon="9.7939671"><ele>567.5</ele><time>2026-04-19T12:57:07.354Z</time></trkpt><trkpt lat="44.7469519" lon="9.7938149"><ele>566.75</ele><time>2026-04-19T12:57:08.349Z</time></trkpt><trkpt lat="44.7470215" lon="9.793679"><ele>566.0</ele><time>2026-04-19T12:57:09.353Z</time></trkpt><trkpt lat="44.747075" lon="9.7935324"><ele>561.0</ele><time>2026-04-19T12:57:10.344Z</time></trkpt><trkpt lat="44.7471312" lon="9.7933922"><ele>556.0</ele><time>2026-04-19T12:57:11.358Z</time></trkpt><trkpt lat="44.7472007" lon="9.7932862"><ele>551.0</ele><time>2026-04-19T12:57:12.345Z</time></trkpt><trkpt lat="44.7473014" lon="9.7932148"><ele>546.0</ele><time>2026-04-19T12:57:13.317Z</time></trkpt><trkpt lat="44.7474209" lon="9.7931635"><ele>546.0</ele><time>2026-04-19T12:57:14.347Z</time></trkpt><trkpt lat="44.7475446" lon="9.7931238"><ele>546.0</ele><time>2026-04-19T12:57:15.352Z</time></trkpt><trkpt lat="44.7476688" lon="9.7930644"><ele>546.0</ele><time>2026-04-19T12:57:16.358Z</time></trkpt><trkpt lat="44.7477811" lon="9.7929791"><ele>546.0</ele><time>2026-04-19T12:57:17.344Z</time></trkpt><trkpt lat="44.7478954" lon="9.7928937"><ele>548.0</ele><time>2026-04-19T12:57:18.359Z</time></trkpt><trkpt lat="44.7480062" lon="9.7927973"><ele>550.0</ele><time>2026-04-19T12:57:19.357Z</time></trkpt><trkpt lat="44.7481141" lon="9.7926934"><ele>552.0</ele><time>2026-04-19T12:57:20.357Z</time></trkpt><trkpt lat="44.7481926" lon="9.7925615"><ele>554.0</ele><time>2026-04-19T12:57:21.349Z</time></trkpt><trkpt lat="44.7482654" lon="9.7924183"><ele>550.4</ele><time>2026-04-19T12:57:22.356Z</time></trkpt><trkpt lat="44.7483258" lon="9.7922813"><ele>546.8</ele><time>2026-04-19T12:57:23.357Z</time></trkpt><trkpt lat="44.7483956" lon="9.792169"><ele>543.2</ele><time>2026-04-19T12:57:24.357Z</time></trkpt><trkpt lat="44.7484653" lon="9.7920973"><ele>539.6</ele><time>2026-04-19T12:57:25.318Z</time></trkpt><trkpt lat="44.7485563" lon="9.7920737"><ele>536.0</ele><time>2026-04-19T12:57:26.355Z</time></trkpt><trkpt lat="44.7486523" lon="9.7921381"><ele>535.0</ele><time>2026-04-19T12:57:27.364Z</time></trkpt><trkpt lat="44.7487485" lon="9.7922404"><ele>534.0</ele><time>2026-04-19T12:57:28.357Z</time></trkpt><trkpt lat="44.7488418" lon="9.7923344"><ele>533.0</ele><time>2026-04-19T12:57:29.356Z</time></trkpt><trkpt lat="44.7489451" lon="9.7924155"><ele>532.0</ele><time>2026-04-19T12:57:30.338Z</time></trkpt><trkpt lat="44.7490714" lon="9.7924634"><ele>532.0</ele><time>2026-04-19T12:57:31.362Z</time></trkpt><trkpt lat="44.7492114" lon="9.7924447"><ele>532.0</ele><time>2026-04-19T12:57:32.368Z</time></trkpt><trkpt lat="44.7493453" lon="9.7924284"><ele>532.0</ele><time>2026-04-19T12:57:33.335Z</time></trkpt><trkpt lat="44.7494787" lon="9.7924079"><ele>532.0</ele><time>2026-04-19T12:57:34.36Z</time></trkpt><trkpt lat="44.749604" lon="9.7923784"><ele>531.25</ele><time>2026-04-19T12:57:35.352Z</time></trkpt><trkpt lat="44.7497124" lon="9.7923165"><ele>530.5</ele><time>2026-04-19T12:57:36.355Z</time></trkpt><trkpt lat="44.749824" lon="9.7922021"><ele>529.75</ele><time>2026-04-19T12:57:37.356Z</time></trkpt><trkpt lat="44.7499443" lon="9.7920742"><ele>529.0</ele><time>2026-04-19T12:57:38.364Z</time></trkpt><trkpt lat="44.7500611" lon="9.7919559"><ele>526.0</ele><time>2026-04-19T12:57:39.349Z</time></trkpt><trkpt lat="44.7501645" lon="9.7918321"><ele>523.0</ele><time>2026-04-19T12:57:40.317Z</time></trkpt><trkpt lat="44.7502495" lon="9.7917177"><ele>520.0</ele><time>2026-04-19T12:57:41.353Z</time></trkpt><trkpt lat="44.7503153" lon="9.7916048"><ele>517.0</ele><time>2026-04-19T12:57:42.35Z</time></trkpt><trkpt lat="44.7503791" lon="9.7915105"><ele>517.0</ele><time>2026-04-19T12:57:43.358Z</time></trkpt><trkpt lat="44.7504669" lon="9.7914424"><ele>517.0</ele><time>2026-04-19T12:57:44.352Z</time></trkpt><trkpt lat="44.7505822" lon="9.7914302"><ele>517.0</ele><time>2026-04-19T12:57:45.342Z</time></trkpt><trkpt lat="44.7507162" lon="9.7914522"><ele>517.0</ele><time>2026-04-19T12:57:46.353Z</time></trkpt><trkpt lat="44.7508561" lon="9.7914625"><ele>517.0</ele><time>2026-04-19T12:57:47.364Z</time></trkpt><trkpt lat="44.7509878" lon="9.791455"><ele>517.0</ele><time>2026-04-19T12:57:48.342Z</time></trkpt><trkpt lat="44.7511032" lon="9.7914279"><ele>517.0</ele><time>2026-04-19T12:57:49.356Z</time></trkpt><trkpt lat="44.7512159" lon="9.7913817"><ele>517.0</ele><time>2026-04-19T12:57:50.346Z</time></trkpt><trkpt lat="44.7513119" lon="9.7913001"><ele>513.8000000000001</ele><time>2026-04-19T12:57:51.353Z</time></trkpt><trkpt lat="44.751399" lon="9.7912035"><ele>510.6</ele><time>2026-04-19T12:57:52.376Z</time></trkpt><trkpt lat="44.7514731" lon="9.7910992"><ele>507.40000000000003</ele><time>2026-04-19T12:57:53.356Z</time></trkpt><trkpt lat="44.7515457" lon="9.7910086"><ele>504.20000000000005</ele><time>2026-04-19T12:57:54.366Z</time></trkpt><trkpt lat="44.7516114" lon="9.7909593"><ele>501.0</ele><time>2026-04-19T12:57:55.346Z</time></trkpt><trkpt lat="44.751687" lon="9.790986"><ele>501.0</ele><time>2026-04-19T12:57:56.374Z</time></trkpt><trkpt lat="44.7517587" lon="9.7910594"><ele>501.0</ele><time>2026-04-19T12:57:57.356Z</time></trkpt><trkpt lat="44.7518157" lon="9.7911752"><ele>501.0</ele><time>2026-04-19T12:57:58.341Z</time></trkpt><trkpt lat="44.7518245" lon="9.7913014"><ele>501.0</ele><time>2026-04-19T12:57:59.367Z</time></trkpt><trkpt lat="44.7518111" lon="9.7914426"><ele>501.0</ele><time>2026-04-19T12:58:00.359Z</time></trkpt><trkpt lat="44.7517678" lon="9.7916148"><ele>501.0</ele><time>2026-04-19T12:58:01.344Z</time></trkpt><trkpt lat="44.7517199" lon="9.7917866"><ele>501.0</ele><time>2026-04-19T12:58:02.343Z</time></trkpt><trkpt lat="44.7516725" lon="9.7919402"><ele>501.0</ele><time>2026-04-19T12:58:03.367Z</time></trkpt><trkpt lat="44.751623" lon="9.7920965"><ele>501.0</ele><time>2026-04-19T12:58:04.352Z</time></trkpt><trkpt lat="44.751601" lon="9.7922607"><ele>500.75</ele><time>2026-04-19T12:58:05.356Z</time></trkpt><trkpt lat="44.7516185" lon="9.7924495"><ele>500.5</ele><time>2026-04-19T12:58:06.355Z</time></trkpt><trkpt lat="44.7516611" lon="9.7926511"><ele>500.25</ele><time>2026-04-19T12:58:07.347Z</time></trkpt><trkpt lat="44.7517017" lon="9.792855"><ele>500.0</ele><time>2026-04-19T12:58:08.37Z</time></trkpt><trkpt lat="44.7517434" lon="9.793039"><ele>499.75</ele><time>2026-04-19T12:58:09.364Z</time></trkpt><trkpt lat="44.751787" lon="9.7932194"><ele>499.5</ele><time>2026-04-19T12:58:10.365Z</time></trkpt><trkpt lat="44.7518241" lon="9.7933839"><ele>499.25</ele><time>2026-04-19T12:58:11.368Z</time></trkpt><trkpt lat="44.7518577" lon="9.7935501"><ele>499.0</ele><time>2026-04-19T12:58:12.357Z</time></trkpt><trkpt lat="44.7518968" lon="9.7936953"><ele>498.2</ele><time>2026-04-19T12:58:13.352Z</time></trkpt><trkpt lat="44.7519413" lon="9.7938295"><ele>497.4</ele><time>2026-04-19T12:58:14.359Z</time></trkpt><trkpt lat="44.7519561" lon="9.7939567"><ele>496.6</ele><time>2026-04-19T12:58:15.371Z</time></trkpt><trkpt lat="44.75195" lon="9.7940838"><ele>495.8</ele><time>2026-04-19T12:58:16.359Z</time></trkpt><trkpt lat="44.7519124" lon="9.7942383"><ele>495.0</ele><time>2026-04-19T12:58:17.357Z</time></trkpt><trkpt lat="44.7518693" lon="9.7944"><ele>495.0</ele><time>2026-04-19T12:58:18.362Z</time></trkpt><trkpt lat="44.75183" lon="9.7945536"><ele>495.0</ele><time>2026-04-19T12:58:19.364Z</time></trkpt><trkpt lat="44.7518174" lon="9.7947066"><ele>495.0</ele><time>2026-04-19T12:58:20.376Z</time></trkpt><trkpt lat="44.7518378" lon="9.7948669"><ele>495.0</ele><time>2026-04-19T12:58:21.34Z</time></trkpt><trkpt lat="44.7518748" lon="9.7950307"><ele>491.25</ele><time>2026-04-19T12:58:22.317Z</time></trkpt><trkpt lat="44.7519301" lon="9.7951938"><ele>487.5</ele><time>2026-04-19T12:58:23.328Z</time></trkpt><trkpt lat="44.7519964" lon="9.79533"><ele>483.75</ele><time>2026-04-19T12:58:24.346Z</time></trkpt><trkpt lat="44.7520472" lon="9.7954645"><ele>480.0</ele><time>2026-04-19T12:58:25.341Z</time></trkpt><trkpt lat="44.7520738" lon="9.7956139"><ele>480.0</ele><time>2026-04-19T12:58:26.36Z</time></trkpt><trkpt lat="44.752083" lon="9.7957708"><ele>480.0</ele><time>2026-04-19T12:58:27.362Z</time></trkpt><trkpt lat="44.752063" lon="9.7959456"><ele>480.0</ele><time>2026-04-19T12:58:28.348Z</time></trkpt><trkpt lat="44.7520364" lon="9.7961304"><ele>480.0</ele><time>2026-04-19T12:58:29.366Z</time></trkpt><trkpt lat="44.7520099" lon="9.7963118"><ele>479.0</ele><time>2026-04-19T12:58:30.34Z</time></trkpt><trkpt lat="44.7519794" lon="9.7964845"><ele>478.0</ele><time>2026-04-19T12:58:31.358Z</time></trkpt><trkpt lat="44.7519539" lon="9.7966441"><ele>477.0</ele><time>2026-04-19T12:58:32.36Z</time></trkpt><trkpt lat="44.7519437" lon="9.7967995"><ele>476.0</ele><time>2026-04-19T12:58:33.361Z</time></trkpt><trkpt lat="44.7519457" lon="9.7969519"><ele>476.0</ele><time>2026-04-19T12:58:34.35Z</time></trkpt><trkpt lat="44.7519724" lon="9.7971047"><ele>476.0</ele><time>2026-04-19T12:58:35.347Z</time></trkpt><trkpt lat="44.7519952" lon="9.797242"><ele>476.0</ele><time>2026-04-19T12:58:36.356Z</time></trkpt><trkpt lat="44.7520368" lon="9.7973627"><ele>476.0</ele><time>2026-04-19T12:58:37.353Z</time></trkpt><trkpt lat="44.7520877" lon="9.7974639"><ele>476.0</ele><time>2026-04-19T12:58:38.339Z</time></trkpt><trkpt lat="44.7521513" lon="9.7975438"><ele>476.0</ele><time>2026-04-19T12:58:39.349Z</time></trkpt><trkpt lat="44.7522359" lon="9.7975517"><ele>476.0</ele><time>2026-04-19T12:58:40.358Z</time></trkpt><trkpt lat="44.7523091" lon="9.7974883"><ele>476.0</ele><time>2026-04-19T12:58:41.361Z</time></trkpt><trkpt lat="44.7523845" lon="9.7973765"><ele>476.0</ele><time>2026-04-19T12:58:42.35Z</time></trkpt><trkpt lat="44.7524496" lon="9.7972694"><ele>476.0</ele><time>2026-04-19T12:58:43.353Z</time></trkpt><trkpt lat="44.7525339" lon="9.7971921"><ele>476.0</ele><time>2026-04-19T12:58:44.352Z</time></trkpt><trkpt lat="44.7526559" lon="9.7971399"><ele>476.0</ele><time>2026-04-19T12:58:45.359Z</time></trkpt><trkpt lat="44.7527818" lon="9.7971217"><ele>476.0</ele><time>2026-04-19T12:58:46.356Z</time></trkpt><trkpt lat="44.7528955" lon="9.7970807"><ele>476.0</ele><time>2026-04-19T12:58:47.362Z</time></trkpt><trkpt lat="44.7530076" lon="9.7970139"><ele>474.75</ele><time>2026-04-19T12:58:48.354Z</time></trkpt><trkpt lat="44.7531146" lon="9.7969299"><ele>473.5</ele><time>2026-04-19T12:58:49.349Z</time></trkpt><trkpt lat="44.753227" lon="9.7968312"><ele>472.25</ele><time>2026-04-19T12:58:50.33Z</time></trkpt><trkpt lat="44.7533286" lon="9.7967279"><ele>471.0</ele><time>2026-04-19T12:58:51.348Z</time></trkpt><trkpt lat="44.7534277" lon="9.7966036"><ele>470.0</ele><time>2026-04-19T12:58:52.359Z</time></trkpt><trkpt lat="44.7535149" lon="9.7964719"><ele>469.0</ele><time>2026-04-19T12:58:53.337Z</time></trkpt><trkpt lat="44.7536067" lon="9.7963514"><ele>468.0</ele><time>2026-04-19T12:58:54.346Z</time></trkpt><trkpt lat="44.7537052" lon="9.796226"><ele>467.0</ele><time>2026-04-19T12:58:55.361Z</time></trkpt><trkpt lat="44.7538009" lon="9.7961033"><ele>464.75</ele><time>2026-04-19T12:58:56.345Z</time></trkpt><trkpt lat="44.7538958" lon="9.7959873"><ele>462.5</ele><time>2026-04-19T12:58:57.357Z</time></trkpt><trkpt lat="44.7539867" lon="9.7958706"><ele>460.25</ele><time>2026-04-19T12:58:58.355Z</time></trkpt><trkpt lat="44.7540695" lon="9.7957597"><ele>458.0</ele><time>2026-04-19T12:58:59.355Z</time></trkpt><trkpt lat="44.754132" lon="9.7956396"><ele>458.0</ele><time>2026-04-19T12:59:00.363Z</time></trkpt><trkpt lat="44.7541754" lon="9.7954883"><ele>458.0</ele><time>2026-04-19T12:59:01.35Z</time></trkpt><trkpt lat="44.754195" lon="9.795317"><ele>458.0</ele><time>2026-04-19T12:59:02.351Z</time></trkpt><trkpt lat="44.7542132" lon="9.7951595"><ele>458.0</ele><time>2026-04-19T12:59:03.365Z</time></trkpt><trkpt lat="44.7542556" lon="9.79502"><ele>456.5</ele><time>2026-04-19T12:59:04.358Z</time></trkpt><trkpt lat="44.7543236" lon="9.7949066"><ele>455.0</ele><time>2026-04-19T12:59:05.361Z</time></trkpt><trkpt lat="44.7544275" lon="9.7948356"><ele>453.5</ele><time>2026-04-19T12:59:06.357Z</time></trkpt><trkpt lat="44.7545482" lon="9.7947795"><ele>452.0</ele><time>2026-04-19T12:59:07.369Z</time></trkpt><trkpt lat="44.7546671" lon="9.7947082"><ele>450.0</ele><time>2026-04-19T12:59:08.362Z</time></trkpt><trkpt lat="44.7547958" lon="9.7946429"><ele>448.0</ele><time>2026-04-19T12:59:09.346Z</time></trkpt><trkpt lat="44.7549191" lon="9.7945775"><ele>446.0</ele><time>2026-04-19T12:59:10.348Z</time></trkpt><trkpt lat="44.7550377" lon="9.7945124"><ele>444.0</ele><time>2026-04-19T12:59:11.361Z</time></trkpt><trkpt lat="44.7551332" lon="9.794454"><ele>444.0</ele><time>2026-04-19T12:59:12.362Z</time></trkpt><trkpt lat="44.7552012" lon="9.7943725"><ele>444.0</ele><time>2026-04-19T12:59:13.386Z</time></trkpt><trkpt lat="44.7552387" lon="9.7942849"><ele>444.0</ele><time>2026-04-19T12:59:14.354Z</time></trkpt><trkpt lat="44.7552248" lon="9.7941704"><ele>444.0</ele><time>2026-04-19T12:59:15.345Z</time></trkpt><trkpt lat="44.7551776" lon="9.7940277"><ele>444.0</ele><time>2026-04-19T12:59:16.363Z</time></trkpt><trkpt lat="44.7551271" lon="9.7938918"><ele>443.79999999999995</ele><time>2026-04-19T12:59:17.361Z</time></trkpt><trkpt lat="44.755075" lon="9.7937682"><ele>443.59999999999997</ele><time>2026-04-19T12:59:18.358Z</time></trkpt><trkpt lat="44.755039" lon="9.7936713"><ele>443.4</ele><time>2026-04-19T12:59:19.369Z</time></trkpt><trkpt lat="44.7551102" lon="9.7935417"><ele>443.2</ele><time>2026-04-19T12:59:21.372Z</time></trkpt><trkpt lat="44.7552158" lon="9.7934908"><ele>443.0</ele><time>2026-04-19T12:59:22.354Z</time></trkpt><trkpt lat="44.7553127" lon="9.7934302"><ele>439.75</ele><time>2026-04-19T12:59:23.36Z</time></trkpt><trkpt lat="44.7553854" lon="9.7933343"><ele>436.5</ele><time>2026-04-19T12:59:24.36Z</time></trkpt><trkpt lat="44.7554287" lon="9.7931856"><ele>433.25</ele><time>2026-04-19T12:59:25.349Z</time></trkpt><trkpt lat="44.7554541" lon="9.7930119"><ele>430.0</ele><time>2026-04-19T12:59:26.358Z</time></trkpt><trkpt lat="44.7555089" lon="9.7928293"><ele>430.0</ele><time>2026-04-19T12:59:27.357Z</time></trkpt><trkpt lat="44.755583" lon="9.7926852"><ele>430.0</ele><time>2026-04-19T12:59:28.353Z</time></trkpt><trkpt lat="44.7556719" lon="9.7925429"><ele>430.0</ele><time>2026-04-19T12:59:29.351Z</time></trkpt><trkpt lat="44.7557652" lon="9.7923912"><ele>430.0</ele><time>2026-04-19T12:59:30.353Z</time></trkpt><trkpt lat="44.7558554" lon="9.7922339"><ele>429.0</ele><time>2026-04-19T12:59:31.354Z</time></trkpt><trkpt lat="44.7559468" lon="9.7920782"><ele>428.0</ele><time>2026-04-19T12:59:32.363Z</time></trkpt><trkpt lat="44.7560299" lon="9.7919296"><ele>427.0</ele><time>2026-04-19T12:59:33.366Z</time></trkpt><trkpt lat="44.7561163" lon="9.7917795"><ele>426.0</ele><time>2026-04-19T12:59:34.352Z</time></trkpt><trkpt lat="44.7561884" lon="9.7916367"><ele>423.0</ele><time>2026-04-19T12:59:35.367Z</time></trkpt><trkpt lat="44.7562621" lon="9.791504"><ele>420.0</ele><time>2026-04-19T12:59:36.364Z</time></trkpt><trkpt lat="44.7563464" lon="9.7913791"><ele>417.0</ele><time>2026-04-19T12:59:37.346Z</time></trkpt><trkpt lat="44.7564405" lon="9.7912658"><ele>414.0</ele><time>2026-04-19T12:59:38.356Z</time></trkpt><trkpt lat="44.7565451" lon="9.791186"><ele>414.0</ele><time>2026-04-19T12:59:39.339Z</time></trkpt><trkpt lat="44.7566584" lon="9.7911301"><ele>414.0</ele><time>2026-04-19T12:59:40.354Z</time></trkpt><trkpt lat="44.7567512" lon="9.791107"><ele>414.0</ele><time>2026-04-19T12:59:41.369Z</time></trkpt><trkpt lat="44.7568249" lon="9.7911216"><ele>414.0</ele><time>2026-04-19T12:59:42.33Z</time></trkpt><trkpt lat="44.756884" lon="9.7911874"><ele>414.0</ele><time>2026-04-19T12:59:43.373Z</time></trkpt><trkpt lat="44.7569285" lon="9.7913072"><ele>409.5</ele><time>2026-04-19T12:59:44.361Z</time></trkpt><trkpt lat="44.7569671" lon="9.7914654"><ele>405.0</ele><time>2026-04-19T12:59:45.353Z</time></trkpt><trkpt lat="44.756983" lon="9.7916351"><ele>400.5</ele><time>2026-04-19T12:59:46.369Z</time></trkpt><trkpt lat="44.756986" lon="9.7918078"><ele>396.0</ele><time>2026-04-19T12:59:47.339Z</time></trkpt><trkpt lat="44.7569631" lon="9.7919845"><ele>395.1666666666667</ele><time>2026-04-19T12:59:48.365Z</time></trkpt><trkpt lat="44.7569293" lon="9.7921414"><ele>394.33333333333337</ele><time>2026-04-19T12:59:49.345Z</time></trkpt><trkpt lat="44.756911" lon="9.7922804"><ele>393.5</ele><time>2026-04-19T12:59:50.362Z</time></trkpt><trkpt lat="44.7569084" lon="9.7923984"><ele>392.6666666666667</ele><time>2026-04-19T12:59:51.372Z</time></trkpt><trkpt lat="44.7569336" lon="9.7924991"><ele>391.83333333333337</ele><time>2026-04-19T12:59:52.366Z</time></trkpt><trkpt lat="44.7569791" lon="9.7925685"><ele>391.0</ele><time>2026-04-19T12:59:53.362Z</time></trkpt><trkpt lat="44.7570461" lon="9.7925776"><ele>391.0</ele><time>2026-04-19T12:59:54.357Z</time></trkpt><trkpt lat="44.7571358" lon="9.7925477"><ele>391.0</ele><time>2026-04-19T12:59:55.364Z</time></trkpt><trkpt lat="44.7572136" lon="9.7924763"><ele>391.0</ele><time>2026-04-19T12:59:56.358Z</time></trkpt><trkpt lat="44.7572761" lon="9.7923582"><ele>391.0</ele><time>2026-04-19T12:59:57.361Z</time></trkpt><trkpt lat="44.7573483" lon="9.7922176"><ele>391.0</ele><time>2026-04-19T12:59:58.366Z</time></trkpt><trkpt lat="44.7574174" lon="9.7920766"><ele>391.0</ele><time>2026-04-19T12:59:59.356Z</time></trkpt><trkpt lat="44.7574791" lon="9.7919291"><ele>391.0</ele><time>2026-04-19T13:00:00.358Z</time></trkpt><trkpt lat="44.7575418" lon="9.7917956"><ele>391.0</ele><time>2026-04-19T13:00:01.357Z</time></trkpt><trkpt lat="44.7576097" lon="9.7916776"><ele>391.0</ele><time>2026-04-19T13:00:02.367Z</time></trkpt><trkpt lat="44.7577115" lon="9.7916145"><ele>388.0</ele><time>2026-04-19T13:00:03.355Z</time></trkpt><trkpt lat="44.7578318" lon="9.7915732"><ele>385.0</ele><time>2026-04-19T13:00:04.357Z</time></trkpt><trkpt lat="44.7579641" lon="9.7915453"><ele>382.0</ele><time>2026-04-19T13:00:05.357Z</time></trkpt><trkpt lat="44.7581066" lon="9.7915025"><ele>379.0</ele><time>2026-04-19T13:00:06.338Z</time></trkpt><trkpt lat="44.758248" lon="9.7914547"><ele>379.0</ele><time>2026-04-19T13:00:07.357Z</time></trkpt><trkpt lat="44.7583922" lon="9.7914216"><ele>379.0</ele><time>2026-04-19T13:00:08.354Z</time></trkpt><trkpt lat="44.758529" lon="9.7914128"><ele>379.0</ele><time>2026-04-19T13:00:09.362Z</time></trkpt><trkpt lat="44.758646" lon="9.7913734"><ele>379.0</ele><time>2026-04-19T13:00:10.359Z</time></trkpt><trkpt lat="44.7587621" lon="9.7913038"><ele>375.75</ele><time>2026-04-19T13:00:11.356Z</time></trkpt><trkpt lat="44.758875" lon="9.791204"><ele>372.5</ele><time>2026-04-19T13:00:12.371Z</time></trkpt><trkpt lat="44.7589921" lon="9.79113"><ele>369.25</ele><time>2026-04-19T13:00:13.366Z</time></trkpt><trkpt lat="44.7591093" lon="9.7910702"><ele>366.0</ele><time>2026-04-19T13:00:14.355Z</time></trkpt><trkpt lat="44.759241" lon="9.7910306"><ele>367.0</ele><time>2026-04-19T13:00:15.366Z</time></trkpt><trkpt lat="44.7593665" lon="9.7909974"><ele>368.0</ele><time>2026-04-19T13:00:16.369Z</time></trkpt><trkpt lat="44.759483" lon="9.7909701"><ele>369.0</ele><time>2026-04-19T13:00:17.353Z</time></trkpt><trkpt lat="44.7595805" lon="9.7909557"><ele>370.0</ele><time>2026-04-19T13:00:18.314Z</time></trkpt><trkpt lat="44.7596592" lon="9.7909469"><ele>371.0</ele><time>2026-04-19T13:00:19.315Z</time></trkpt><trkpt lat="44.7597413" lon="9.7909622"><ele>367.6</ele><time>2026-04-19T13:00:20.354Z</time></trkpt><trkpt lat="44.7597928" lon="9.7910504"><ele>364.20000000000005</ele><time>2026-04-19T13:00:21.36Z</time></trkpt><trkpt lat="44.7598046" lon="9.791177"><ele>360.79999999999995</ele><time>2026-04-19T13:00:22.313Z</time></trkpt><trkpt lat="44.7597886" lon="9.7913158"><ele>357.4</ele><time>2026-04-19T13:00:23.306Z</time></trkpt><trkpt lat="44.7597498" lon="9.7914373"><ele>354.0</ele><time>2026-04-19T13:00:24.311Z</time></trkpt><trkpt lat="44.7596569" lon="9.7915513"><ele>354.0</ele><time>2026-04-19T13:00:25.36Z</time></trkpt><trkpt lat="44.7595405" lon="9.7916669"><ele>354.0</ele><time>2026-04-19T13:00:26.348Z</time></trkpt><trkpt lat="44.7594176" lon="9.7917893"><ele>354.0</ele><time>2026-04-19T13:00:27.356Z</time></trkpt><trkpt lat="44.7593025" lon="9.7919155"><ele>354.0</ele><time>2026-04-19T13:00:28.357Z</time></trkpt><trkpt lat="44.7592024" lon="9.7920414"><ele>354.5</ele><time>2026-04-19T13:00:29.351Z</time></trkpt><trkpt lat="44.7591056" lon="9.7921681"><ele>355.0</ele><time>2026-04-19T13:00:30.365Z</time></trkpt><trkpt lat="44.7590314" lon="9.7922834"><ele>355.5</ele><time>2026-04-19T13:00:31.373Z</time></trkpt><trkpt lat="44.7589622" lon="9.7924004"><ele>356.0</ele><time>2026-04-19T13:00:32.355Z</time></trkpt><trkpt lat="44.758931" lon="9.7925325"><ele>356.0</ele><time>2026-04-19T13:00:33.355Z</time></trkpt><trkpt lat="44.7589348" lon="9.7926661"><ele>356.0</ele><time>2026-04-19T13:00:34.327Z</time></trkpt><trkpt lat="44.7589494" lon="9.7927807"><ele>356.0</ele><time>2026-04-19T13:00:35.352Z</time></trkpt><trkpt lat="44.7589992" lon="9.7928741"><ele>356.0</ele><time>2026-04-19T13:00:36.349Z</time></trkpt><trkpt lat="44.7590649" lon="9.7929297"><ele>356.0</ele><time>2026-04-19T13:00:37.364Z</time></trkpt><trkpt lat="44.7591422" lon="9.792926"><ele>356.0</ele><time>2026-04-19T13:00:38.364Z</time></trkpt><trkpt lat="44.759216" lon="9.7928576"><ele>357.75</ele><time>2026-04-19T13:00:39.366Z</time></trkpt><trkpt lat="44.7593043" lon="9.7927639"><ele>359.5</ele><time>2026-04-19T13:00:40.363Z</time></trkpt><trkpt lat="44.7593986" lon="9.7926754"><ele>361.25</ele><time>2026-04-19T13:00:41.34Z</time></trkpt><trkpt lat="44.7595123" lon="9.7926313"><ele>363.0</ele><time>2026-04-19T13:00:42.361Z</time></trkpt><trkpt lat="44.7596401" lon="9.7926461"><ele>363.0</ele><time>2026-04-19T13:00:43.36Z</time></trkpt><trkpt lat="44.7597672" lon="9.7926726"><ele>363.0</ele><time>2026-04-19T13:00:44.35Z</time></trkpt><trkpt lat="44.7598794" lon="9.7926973"><ele>363.0</ele><time>2026-04-19T13:00:45.374Z</time></trkpt><trkpt lat="44.7599782" lon="9.7927241"><ele>363.0</ele><time>2026-04-19T13:00:46.37Z</time></trkpt><trkpt lat="44.7600716" lon="9.7927715"><ele>363.0</ele><time>2026-04-19T13:00:47.348Z</time></trkpt><trkpt lat="44.760165" lon="9.7928515"><ele>358.0</ele><time>2026-04-19T13:00:48.331Z</time></trkpt><trkpt lat="44.7602784" lon="9.7929582"><ele>353.0</ele><time>2026-04-19T13:00:49.354Z</time></trkpt><trkpt lat="44.7603948" lon="9.793078"><ele>348.0</ele><time>2026-04-19T13:00:50.349Z</time></trkpt><trkpt lat="44.7605126" lon="9.7931909"><ele>343.0</ele><time>2026-04-19T13:00:51.358Z</time></trkpt><trkpt lat="44.7606328" lon="9.7933119"><ele>343.0</ele><time>2026-04-19T13:00:52.356Z</time></trkpt><trkpt lat="44.760746" lon="9.7934208"><ele>343.0</ele><time>2026-04-19T13:00:53.348Z</time></trkpt><trkpt lat="44.7608558" lon="9.7935218"><ele>343.0</ele><time>2026-04-19T13:00:54.358Z</time></trkpt><trkpt lat="44.7609663" lon="9.7936246"><ele>343.0</ele><time>2026-04-19T13:00:55.372Z</time></trkpt><trkpt lat="44.7610852" lon="9.7937278"><ele>345.25</ele><time>2026-04-19T13:00:56.359Z</time></trkpt><trkpt lat="44.761208" lon="9.7938303"><ele>347.5</ele><time>2026-04-19T13:00:57.366Z</time></trkpt><trkpt lat="44.7613393" lon="9.7939138"><ele>349.75</ele><time>2026-04-19T13:00:58.35Z</time></trkpt><trkpt lat="44.7614918" lon="9.793969"><ele>352.0</ele><time>2026-04-19T13:00:59.358Z</time></trkpt><trkpt lat="44.7616447" lon="9.794032"><ele>352.0</ele><time>2026-04-19T13:01:00.365Z</time></trkpt><trkpt lat="44.7617895" lon="9.794101"><ele>352.0</ele><time>2026-04-19T13:01:01.357Z</time></trkpt><trkpt lat="44.7619204" lon="9.7941808"><ele>352.0</ele><time>2026-04-19T13:01:02.362Z</time></trkpt><trkpt lat="44.7620513" lon="9.7942547"><ele>352.0</ele><time>2026-04-19T13:01:03.369Z</time></trkpt><trkpt lat="44.7621694" lon="9.7943186"><ele>351.5</ele><time>2026-04-19T13:01:04.356Z</time></trkpt><trkpt lat="44.7622755" lon="9.7943909"><ele>351.0</ele><time>2026-04-19T13:01:05.37Z</time></trkpt><trkpt lat="44.7623513" lon="9.7944889"><ele>350.5</ele><time>2026-04-19T13:01:06.371Z</time></trkpt><trkpt lat="44.7624155" lon="9.7946361"><ele>350.0</ele><time>2026-04-19T13:01:07.356Z</time></trkpt><trkpt lat="44.7624716" lon="9.794824"><ele>350.0</ele><time>2026-04-19T13:01:08.327Z</time></trkpt><trkpt lat="44.7625075" lon="9.7950359"><ele>350.0</ele><time>2026-04-19T13:01:09.365Z</time></trkpt><trkpt lat="44.7625331" lon="9.7952368"><ele>350.0</ele><time>2026-04-19T13:01:10.357Z</time></trkpt><trkpt lat="44.762574" lon="9.795423"><ele>350.0</ele><time>2026-04-19T13:01:11.353Z</time></trkpt><trkpt lat="44.7626219" lon="9.7956049"><ele>350.0</ele><time>2026-04-19T13:01:12.358Z</time></trkpt><trkpt lat="44.7626689" lon="9.795776"><ele>350.0</ele><time>2026-04-19T13:01:13.341Z</time></trkpt><trkpt lat="44.7627216" lon="9.7959325"><ele>350.0</ele><time>2026-04-19T13:01:14.349Z</time></trkpt><trkpt lat="44.7627791" lon="9.7960742"><ele>350.0</ele><time>2026-04-19T13:01:15.353Z</time></trkpt><trkpt lat="44.762859" lon="9.7961822"><ele>350.0</ele><time>2026-04-19T13:01:16.361Z</time></trkpt><trkpt lat="44.7629625" lon="9.7962854"><ele>350.0</ele><time>2026-04-19T13:01:17.343Z</time></trkpt><trkpt lat="44.7630973" lon="9.7963449"><ele>350.0</ele><time>2026-04-19T13:01:18.347Z</time></trkpt><trkpt lat="44.7632389" lon="9.7964025"><ele>350.0</ele><time>2026-04-19T13:01:19.32Z</time></trkpt><trkpt lat="44.763376" lon="9.7964613"><ele>350.0</ele><time>2026-04-19T13:01:20.357Z</time></trkpt><trkpt lat="44.7635137" lon="9.7965222"><ele>350.0</ele><time>2026-04-19T13:01:21.361Z</time></trkpt><trkpt lat="44.7636303" lon="9.7966035"><ele>350.0</ele><time>2026-04-19T13:01:22.352Z</time></trkpt><trkpt lat="44.7637381" lon="9.7967192"><ele>350.0</ele><time>2026-04-19T13:01:23.356Z</time></trkpt><trkpt lat="44.7638201" lon="9.7968987"><ele>349.0</ele><time>2026-04-19T13:01:24.341Z</time></trkpt><trkpt lat="44.7638968" lon="9.7970993"><ele>348.0</ele><time>2026-04-19T13:01:25.361Z</time></trkpt><trkpt lat="44.7639728" lon="9.7973058"><ele>347.0</ele><time>2026-04-19T13:01:26.34Z</time></trkpt><trkpt lat="44.7640472" lon="9.7975039"><ele>350.33333333333337</ele><time>2026-04-19T13:01:27.359Z</time></trkpt><trkpt lat="44.7641336" lon="9.7976864"><ele>353.6666666666667</ele><time>2026-04-19T13:01:28.353Z</time></trkpt><trkpt lat="44.7642197" lon="9.7978787"><ele>357.0</ele><time>2026-04-19T13:01:29.35Z</time></trkpt><trkpt lat="44.7643053" lon="9.7980711"><ele>355.0</ele><time>2026-04-19T13:01:30.348Z</time></trkpt><trkpt lat="44.7643922" lon="9.7982582"><ele>353.0</ele><time>2026-04-19T13:01:31.342Z</time></trkpt><trkpt lat="44.764473" lon="9.7984373"><ele>351.0</ele><time>2026-04-19T13:01:32.345Z</time></trkpt><trkpt lat="44.7645478" lon="9.7986036"><ele>349.0</ele><time>2026-04-19T13:01:33.357Z</time></trkpt><trkpt lat="44.7646259" lon="9.7987746"><ele>349.0</ele><time>2026-04-19T13:01:34.35Z</time></trkpt><trkpt lat="44.7647238" lon="9.7989199"><ele>349.0</ele><time>2026-04-19T13:01:35.363Z</time></trkpt><trkpt lat="44.7648228" lon="9.7990367"><ele>349.0</ele><time>2026-04-19T13:01:36.353Z</time></trkpt><trkpt lat="44.7649365" lon="9.7991353"><ele>349.0</ele><time>2026-04-19T13:01:37.352Z</time></trkpt><trkpt lat="44.7650596" lon="9.7992092"><ele>349.0</ele><time>2026-04-19T13:01:38.346Z</time></trkpt><trkpt lat="44.765188" lon="9.7992516"><ele>349.0</ele><time>2026-04-19T13:01:39.355Z</time></trkpt><trkpt lat="44.7653209" lon="9.7992871"><ele>349.0</ele><time>2026-04-19T13:01:40.353Z</time></trkpt><trkpt lat="44.7654818" lon="9.799282"><ele>349.0</ele><time>2026-04-19T13:01:41.366Z</time></trkpt><trkpt lat="44.7656504" lon="9.7992768"><ele>348.66666666666663</ele><time>2026-04-19T13:01:42.35Z</time></trkpt><trkpt lat="44.7658136" lon="9.7992775"><ele>348.3333333333333</ele><time>2026-04-19T13:01:43.349Z</time></trkpt><trkpt lat="44.7659628" lon="9.7992873"><ele>348.0</ele><time>2026-04-19T13:01:44.327Z</time></trkpt><trkpt lat="44.7661122" lon="9.7992986"><ele>346.3333333333333</ele><time>2026-04-19T13:01:45.341Z</time></trkpt><trkpt lat="44.7662693" lon="9.7993095"><ele>344.66666666666663</ele><time>2026-04-19T13:01:46.359Z</time></trkpt><trkpt lat="44.7664223" lon="9.7993322"><ele>343.0</ele><time>2026-04-19T13:01:47.346Z</time></trkpt><trkpt lat="44.7665686" lon="9.7993727"><ele>343.5</ele><time>2026-04-19T13:01:48.35Z</time></trkpt><trkpt lat="44.766707" lon="9.7994307"><ele>344.0</ele><time>2026-04-19T13:01:49.327Z</time></trkpt><trkpt lat="44.7668281" lon="9.7994947"><ele>344.5</ele><time>2026-04-19T13:01:50.358Z</time></trkpt><trkpt lat="44.7669418" lon="9.7995628"><ele>345.0</ele><time>2026-04-19T13:01:51.343Z</time></trkpt><trkpt lat="44.7670388" lon="9.7996483"><ele>345.0</ele><time>2026-04-19T13:01:52.357Z</time></trkpt><trkpt lat="44.7671157" lon="9.7997377"><ele>345.0</ele><time>2026-04-19T13:01:53.358Z</time></trkpt><trkpt lat="44.7671852" lon="9.7998586"><ele>345.0</ele><time>2026-04-19T13:01:54.357Z</time></trkpt><trkpt lat="44.7672444" lon="9.8000124"><ele>345.0</ele><time>2026-04-19T13:01:55.354Z</time></trkpt><trkpt lat="44.7673076" lon="9.8001811"><ele>351.6666666666667</ele><time>2026-04-19T13:01:56.354Z</time></trkpt><trkpt lat="44.7673767" lon="9.8003705"><ele>358.33333333333337</ele><time>2026-04-19T13:01:57.344Z</time></trkpt><trkpt lat="44.7674446" lon="9.8005595"><ele>365.0</ele><time>2026-04-19T13:01:58.339Z</time></trkpt><trkpt lat="44.7675188" lon="9.800742"><ele>365.0</ele><time>2026-04-19T13:01:59.363Z</time></trkpt><trkpt lat="44.7675817" lon="9.8009139"><ele>365.0</ele><time>2026-04-19T13:02:00.348Z</time></trkpt><trkpt lat="44.7676513" lon="9.8010734"><ele>365.0</ele><time>2026-04-19T13:02:01.355Z</time></trkpt><trkpt lat="44.7677279" lon="9.8012213"><ele>365.0</ele><time>2026-04-19T13:02:02.36Z</time></trkpt><trkpt lat="44.7678149" lon="9.801371"><ele>361.33333333333337</ele><time>2026-04-19T13:02:03.358Z</time></trkpt><trkpt lat="44.7679288" lon="9.8015071"><ele>357.6666666666667</ele><time>2026-04-19T13:02:04.358Z</time></trkpt><trkpt lat="44.7680586" lon="9.8016482"><ele>354.0</ele><time>2026-04-19T13:02:05.317Z</time></trkpt><trkpt lat="44.7681955" lon="9.8017732"><ele>354.5</ele><time>2026-04-19T13:02:06.344Z</time></trkpt><trkpt lat="44.7683226" lon="9.8018887"><ele>355.0</ele><time>2026-04-19T13:02:07.355Z</time></trkpt><trkpt lat="44.7684571" lon="9.8019848"><ele>355.5</ele><time>2026-04-19T13:02:08.349Z</time></trkpt><trkpt lat="44.768572" lon="9.8020822"><ele>356.0</ele><time>2026-04-19T13:02:09.353Z</time></trkpt><trkpt lat="44.7686908" lon="9.8021793"><ele>356.0</ele><time>2026-04-19T13:02:10.362Z</time></trkpt><trkpt lat="44.7687989" lon="9.8022541"><ele>356.0</ele><time>2026-04-19T13:02:11.347Z</time></trkpt><trkpt lat="44.7689104" lon="9.8023067"><ele>356.0</ele><time>2026-04-19T13:02:12.369Z</time></trkpt><trkpt lat="44.769019" lon="9.802339"><ele>356.0</ele><time>2026-04-19T13:02:13.363Z</time></trkpt><trkpt lat="44.7691336" lon="9.8023363"><ele>356.0</ele><time>2026-04-19T13:02:14.341Z</time></trkpt><trkpt lat="44.7692475" lon="9.8023176"><ele>356.0</ele><time>2026-04-19T13:02:15.356Z</time></trkpt><trkpt lat="44.7693565" lon="9.8023062"><ele>356.0</ele><time>2026-04-19T13:02:16.374Z</time></trkpt><trkpt lat="44.769463" lon="9.8023257"><ele>356.0</ele><time>2026-04-19T13:02:17.352Z</time></trkpt><trkpt lat="44.7695734" lon="9.8023739"><ele>356.0</ele><time>2026-04-19T13:02:18.352Z</time></trkpt><trkpt lat="44.769694" lon="9.8024599"><ele>352.33333333333337</ele><time>2026-04-19T13:02:19.352Z</time></trkpt><trkpt lat="44.7698182" lon="9.8025706"><ele>348.6666666666667</ele><time>2026-04-19T13:02:20.361Z</time></trkpt><trkpt lat="44.7699511" lon="9.8026814"><ele>345.0</ele><time>2026-04-19T13:02:21.347Z</time></trkpt><trkpt lat="44.7701004" lon="9.8027847"><ele>345.0</ele><time>2026-04-19T13:02:22.357Z</time></trkpt><trkpt lat="44.77025" lon="9.8028941"><ele>345.0</ele><time>2026-04-19T13:02:23.329Z</time></trkpt><trkpt lat="44.7703946" lon="9.8029939"><ele>345.0</ele><time>2026-04-19T13:02:24.346Z</time></trkpt><trkpt lat="44.7705282" lon="9.8030885"><ele>345.0</ele><time>2026-04-19T13:02:25.347Z</time></trkpt><trkpt lat="44.7706583" lon="9.8031664"><ele>345.0</ele><time>2026-04-19T13:02:26.343Z</time></trkpt><trkpt lat="44.7707809" lon="9.8032307"><ele>345.0</ele><time>2026-04-19T13:02:27.335Z</time></trkpt><trkpt lat="44.7709048" lon="9.8032842"><ele>345.0</ele><time>2026-04-19T13:02:28.345Z</time></trkpt><trkpt lat="44.7710289" lon="9.8033356"><ele>343.75</ele><time>2026-04-19T13:02:29.329Z</time></trkpt><trkpt lat="44.7711574" lon="9.8033735"><ele>342.5</ele><time>2026-04-19T13:02:30.351Z</time></trkpt><trkpt lat="44.7712931" lon="9.803408"><ele>341.25</ele><time>2026-04-19T13:02:31.354Z</time></trkpt><trkpt lat="44.7714185" lon="9.803442"><ele>340.0</ele><time>2026-04-19T13:02:32.353Z</time></trkpt><trkpt lat="44.7715516" lon="9.8034778"><ele>342.5</ele><time>2026-04-19T13:02:33.342Z</time></trkpt><trkpt lat="44.7716862" lon="9.8035187"><ele>345.0</ele><time>2026-04-19T13:02:34.348Z</time></trkpt><trkpt lat="44.7718208" lon="9.8035538"><ele>347.5</ele><time>2026-04-19T13:02:35.347Z</time></trkpt><trkpt lat="44.7719509" lon="9.8035887"><ele>350.0</ele><time>2026-04-19T13:02:36.359Z</time></trkpt><trkpt lat="44.7720767" lon="9.8036319"><ele>350.0</ele><time>2026-04-19T13:02:37.345Z</time></trkpt><trkpt lat="44.7722007" lon="9.8036694"><ele>350.0</ele><time>2026-04-19T13:02:38.333Z</time></trkpt><trkpt lat="44.7723182" lon="9.8037046"><ele>350.0</ele><time>2026-04-19T13:02:39.347Z</time></trkpt><trkpt lat="44.7724273" lon="9.8037422"><ele>350.0</ele><time>2026-04-19T13:02:40.342Z</time></trkpt><trkpt lat="44.7725301" lon="9.8037687"><ele>350.0</ele><time>2026-04-19T13:02:41.354Z</time></trkpt><trkpt lat="44.7726364" lon="9.8037982"><ele>350.0</ele><time>2026-04-19T13:02:42.354Z</time></trkpt><trkpt lat="44.7727333" lon="9.803825"><ele>350.0</ele><time>2026-04-19T13:02:43.36Z</time></trkpt><trkpt lat="44.7728139" lon="9.8038416"><ele>350.0</ele><time>2026-04-19T13:02:44.352Z</time></trkpt><trkpt lat="44.7728761" lon="9.8038577"><ele>350.0</ele><time>2026-04-19T13:02:45.353Z</time></trkpt><trkpt lat="44.7729816" lon="9.8038702"><ele>346.2</ele><time>2026-04-19T13:02:47.348Z</time></trkpt><trkpt lat="44.7730919" lon="9.8038844"><ele>342.4</ele><time>2026-04-19T13:02:49.344Z</time></trkpt><trkpt lat="44.7731827" lon="9.8039075"><ele>338.6</ele><time>2026-04-19T13:02:51.352Z</time></trkpt><trkpt lat="44.7732403" lon="9.8038466"><ele>334.8</ele><time>2026-04-19T13:02:54.349Z</time></trkpt><trkpt lat="44.7731949" lon="9.8037562"><ele>331.0</ele><time>2026-04-19T13:02:56.344Z</time></trkpt><trkpt lat="44.773137" lon="9.8036366"><ele>331.0</ele><time>2026-04-19T13:02:58.349Z</time></trkpt><trkpt lat="44.7730868" lon="9.8035339"><ele>331.0</ele><time>2026-04-19T13:03:00.347Z</time></trkpt><trkpt lat="44.7730649" lon="9.8034195"><ele>331.0</ele><time>2026-04-19T13:03:02.36Z</time></trkpt><trkpt lat="44.7730844" lon="9.8033139"><ele>331.0</ele><time>2026-04-19T13:03:05.353Z</time></trkpt><trkpt lat="44.7731696" lon="9.8033233"><ele>331.0</ele><time>2026-04-19T13:03:08.322Z</time></trkpt><trkpt lat="44.7732522" lon="9.8033871"><ele>331.0</ele><time>2026-04-19T13:03:10.342Z</time></trkpt><trkpt lat="44.7733448" lon="9.8034462"><ele>327.8333333333333</ele><time>2026-04-19T13:03:12.349Z</time></trkpt><trkpt lat="44.7734435" lon="9.8034697"><ele>324.66666666666663</ele><time>2026-04-19T13:03:14.338Z</time></trkpt><trkpt lat="44.7735382" lon="9.8034352"><ele>321.5</ele><time>2026-04-19T13:03:16.351Z</time></trkpt><trkpt lat="44.7736071" lon="9.8033714"><ele>318.3333333333333</ele><time>2026-04-19T13:03:18.322Z</time></trkpt><trkpt lat="44.7736681" lon="9.8032906"><ele>315.1666666666667</ele><time>2026-04-19T13:03:20.33Z</time></trkpt><trkpt lat="44.7737185" lon="9.8032008"><ele>312.0</ele><time>2026-04-19T13:03:22.349Z</time></trkpt><trkpt lat="44.773804" lon="9.8032148"><ele>311.7142857142857</ele><time>2026-04-19T13:03:25.349Z</time></trkpt><trkpt lat="44.7738729" lon="9.8033193"><ele>311.4285714285714</ele><time>2026-04-19T13:03:27.342Z</time></trkpt><trkpt lat="44.7739189" lon="9.8033832"><ele>311.1428571428571</ele><time>2026-04-19T13:03:28.348Z</time></trkpt><trkpt lat="44.7739736" lon="9.8034408"><ele>310.8571428571429</ele><time>2026-04-19T13:03:29.352Z</time></trkpt><trkpt lat="44.7740286" lon="9.803485"><ele>310.57142857142856</ele><time>2026-04-19T13:03:30.359Z</time></trkpt><trkpt lat="44.7740906" lon="9.8035227"><ele>310.2857142857143</ele><time>2026-04-19T13:03:31.365Z</time></trkpt><trkpt lat="44.7741612" lon="9.8035425"><ele>310.0</ele><time>2026-04-19T13:03:32.344Z</time></trkpt><trkpt lat="44.7742347" lon="9.8035694"><ele>310.0</ele><time>2026-04-19T13:03:33.334Z</time></trkpt><trkpt lat="44.7743117" lon="9.8036196"><ele>310.0</ele><time>2026-04-19T13:03:34.345Z</time></trkpt><trkpt lat="44.7743822" lon="9.8036917"><ele>310.0</ele><time>2026-04-19T13:03:35.333Z</time></trkpt><trkpt lat="44.774439" lon="9.8037629"><ele>310.0</ele><time>2026-04-19T13:03:36.337Z</time></trkpt><trkpt lat="44.7745036" lon="9.8037923"><ele>310.0</ele><time>2026-04-19T13:03:37.352Z</time></trkpt><trkpt lat="44.7746078" lon="9.8037596"><ele>310.0</ele><time>2026-04-19T13:03:39.349Z</time></trkpt><trkpt lat="44.7746772" lon="9.8036825"><ele>306.8333333333333</ele><time>2026-04-19T13:03:41.337Z</time></trkpt><trkpt lat="44.7747535" lon="9.8035568"><ele>303.66666666666663</ele><time>2026-04-19T13:03:43.335Z</time></trkpt><trkpt lat="44.7747987" lon="9.803492"><ele>300.5</ele><time>2026-04-19T13:03:44.344Z</time></trkpt><trkpt lat="44.7748563" lon="9.8034305"><ele>297.3333333333333</ele><time>2026-04-19T13:03:45.336Z</time></trkpt><trkpt lat="44.7749175" lon="9.8033786"><ele>294.1666666666667</ele><time>2026-04-19T13:03:46.359Z</time></trkpt><trkpt lat="44.7749835" lon="9.8033422"><ele>291.0</ele><time>2026-04-19T13:03:47.354Z</time></trkpt><trkpt lat="44.7751104" lon="9.8033382"><ele>290.6</ele><time>2026-04-19T13:03:49.346Z</time></trkpt><trkpt lat="44.7751857" lon="9.8033921"><ele>290.20000000000005</ele><time>2026-04-19T13:03:50.35Z</time></trkpt><trkpt lat="44.7752716" lon="9.8034595"><ele>289.79999999999995</ele><time>2026-04-19T13:03:51.352Z</time></trkpt><trkpt lat="44.7753582" lon="9.8035366"><ele>289.4</ele><time>2026-04-19T13:03:52.347Z</time></trkpt><trkpt lat="44.7754367" lon="9.8036128"><ele>289.0</ele><time>2026-04-19T13:03:53.359Z</time></trkpt><trkpt lat="44.775505" lon="9.8036687"><ele>289.0</ele><time>2026-04-19T13:03:54.372Z</time></trkpt><trkpt lat="44.7755738" lon="9.803716"><ele>289.0</ele><time>2026-04-19T13:03:55.35Z</time></trkpt><trkpt lat="44.7756378" lon="9.8037396"><ele>289.0</ele><time>2026-04-19T13:03:56.341Z</time></trkpt><trkpt lat="44.7757102" lon="9.8037562"><ele>289.0</ele><time>2026-04-19T13:03:57.353Z</time></trkpt><trkpt lat="44.775784" lon="9.8037509"><ele>289.0</ele><time>2026-04-19T13:03:58.352Z</time></trkpt><trkpt lat="44.7758628" lon="9.8037298"><ele>289.0</ele><time>2026-04-19T13:03:59.344Z</time></trkpt><trkpt lat="44.7759447" lon="9.8036752"><ele>290.25</ele><time>2026-04-19T13:04:00.318Z</time></trkpt><trkpt lat="44.7760424" lon="9.8036074"><ele>291.5</ele><time>2026-04-19T13:04:01.357Z</time></trkpt><trkpt lat="44.7761441" lon="9.8035079"><ele>292.75</ele><time>2026-04-19T13:04:02.349Z</time></trkpt><trkpt lat="44.7762381" lon="9.8033985"><ele>294.0</ele><time>2026-04-19T13:04:03.357Z</time></trkpt><trkpt lat="44.7763351" lon="9.8032768"><ele>291.0</ele><time>2026-04-19T13:04:04.347Z</time></trkpt><trkpt lat="44.7764331" lon="9.803157"><ele>288.0</ele><time>2026-04-19T13:04:05.344Z</time></trkpt><trkpt lat="44.7765267" lon="9.8030498"><ele>285.0</ele><time>2026-04-19T13:04:06.362Z</time></trkpt><trkpt lat="44.7766116" lon="9.8029559"><ele>282.0</ele><time>2026-04-19T13:04:07.351Z</time></trkpt><trkpt lat="44.7766973" lon="9.8028734"><ele>282.0</ele><time>2026-04-19T13:04:08.345Z</time></trkpt><trkpt lat="44.7767851" lon="9.8028071"><ele>282.0</ele><time>2026-04-19T13:04:09.363Z</time></trkpt><trkpt lat="44.7768799" lon="9.8027544"><ele>282.0</ele><time>2026-04-19T13:04:10.355Z</time></trkpt><trkpt lat="44.7769909" lon="9.8027456"><ele>282.0</ele><time>2026-04-19T13:04:11.346Z</time></trkpt><trkpt lat="44.7771151" lon="9.8027308"><ele>282.0</ele><time>2026-04-19T13:04:12.339Z</time></trkpt><trkpt lat="44.7772425" lon="9.8027235"><ele>281.5</ele><time>2026-04-19T13:04:13.354Z</time></trkpt><trkpt lat="44.7773631" lon="9.8027154"><ele>281.0</ele><time>2026-04-19T13:04:14.342Z</time></trkpt><trkpt lat="44.7774815" lon="9.8027103"><ele>280.5</ele><time>2026-04-19T13:04:15.344Z</time></trkpt><trkpt lat="44.7775987" lon="9.8027021"><ele>280.0</ele><time>2026-04-19T13:04:16.353Z</time></trkpt><trkpt lat="44.7777149" lon="9.8026814"><ele>280.0</ele><time>2026-04-19T13:04:17.351Z</time></trkpt><trkpt lat="44.7778255" lon="9.8026657"><ele>280.0</ele><time>2026-04-19T13:04:18.341Z</time></trkpt><trkpt lat="44.7779382" lon="9.802657"><ele>280.0</ele><time>2026-04-19T13:04:19.341Z</time></trkpt><trkpt lat="44.778061" lon="9.8026432"><ele>280.0</ele><time>2026-04-19T13:04:20.337Z</time></trkpt><trkpt lat="44.7781841" lon="9.8026169"><ele>280.25</ele><time>2026-04-19T13:04:21.356Z</time></trkpt><trkpt lat="44.7783059" lon="9.802584"><ele>280.5</ele><time>2026-04-19T13:04:22.354Z</time></trkpt><trkpt lat="44.7784259" lon="9.8025208"><ele>280.75</ele><time>2026-04-19T13:04:23.35Z</time></trkpt><trkpt lat="44.7785366" lon="9.8024548"><ele>281.0</ele><time>2026-04-19T13:04:24.368Z</time></trkpt><trkpt lat="44.7786554" lon="9.8023912"><ele>281.0</ele><time>2026-04-19T13:04:25.363Z</time></trkpt><trkpt lat="44.778779" lon="9.8023301"><ele>281.0</ele><time>2026-04-19T13:04:26.351Z</time></trkpt><trkpt lat="44.7789058" lon="9.8022887"><ele>281.0</ele><time>2026-04-19T13:04:27.344Z</time></trkpt><trkpt lat="44.7790281" lon="9.8022567"><ele>281.0</ele><time>2026-04-19T13:04:28.349Z</time></trkpt><trkpt lat="44.77915" lon="9.8022235"><ele>281.0</ele><time>2026-04-19T13:04:29.354Z</time></trkpt><trkpt lat="44.7792721" lon="9.8022016"><ele>281.0</ele><time>2026-04-19T13:04:30.35Z</time></trkpt><trkpt lat="44.7793891" lon="9.8021819"><ele>281.0</ele><time>2026-04-19T13:04:31.361Z</time></trkpt><trkpt lat="44.7795077" lon="9.8021659"><ele>281.0</ele><time>2026-04-19T13:04:32.356Z</time></trkpt><trkpt lat="44.779618" lon="9.8021535"><ele>280.0</ele><time>2026-04-19T13:04:33.352Z</time></trkpt><trkpt lat="44.7797315" lon="9.8021428"><ele>279.0</ele><time>2026-04-19T13:04:34.352Z</time></trkpt><trkpt lat="44.7798497" lon="9.8021225"><ele>278.0</ele><time>2026-04-19T13:04:35.361Z</time></trkpt><trkpt lat="44.7799644" lon="9.8020939"><ele>277.0</ele><time>2026-04-19T13:04:36.367Z</time></trkpt><trkpt lat="44.7800846" lon="9.8020632"><ele>276.5</ele><time>2026-04-19T13:04:37.344Z</time></trkpt><trkpt lat="44.7801969" lon="9.8020257"><ele>276.0</ele><time>2026-04-19T13:04:38.353Z</time></trkpt><trkpt lat="44.7803143" lon="9.8020083"><ele>275.5</ele><time>2026-04-19T13:04:39.341Z</time></trkpt><trkpt lat="44.7804399" lon="9.8019986"><ele>275.0</ele><time>2026-04-19T13:04:40.358Z</time></trkpt><trkpt lat="44.780561" lon="9.8019983"><ele>275.0</ele><time>2026-04-19T13:04:41.368Z</time></trkpt><trkpt lat="44.7806807" lon="9.8019894"><ele>275.0</ele><time>2026-04-19T13:04:42.347Z</time></trkpt><trkpt lat="44.7807984" lon="9.801956"><ele>275.0</ele><time>2026-04-19T13:04:43.352Z</time></trkpt><trkpt lat="44.7809079" lon="9.8019251"><ele>275.0</ele><time>2026-04-19T13:04:44.346Z</time></trkpt><trkpt lat="44.781009" lon="9.8018935"><ele>274.8</ele><time>2026-04-19T13:04:45.349Z</time></trkpt><trkpt lat="44.781109" lon="9.8018685"><ele>274.6</ele><time>2026-04-19T13:04:46.345Z</time></trkpt><trkpt lat="44.7812037" lon="9.8018601"><ele>274.4</ele><time>2026-04-19T13:04:47.364Z</time></trkpt><trkpt lat="44.7813052" lon="9.8018557"><ele>274.2</ele><time>2026-04-19T13:04:48.35Z</time></trkpt><trkpt lat="44.7814092" lon="9.801842"><ele>274.0</ele><time>2026-04-19T13:04:49.349Z</time></trkpt><trkpt lat="44.7815189" lon="9.8017992"><ele>273.75</ele><time>2026-04-19T13:04:50.365Z</time></trkpt><trkpt lat="44.7816319" lon="9.8017494"><ele>273.5</ele><time>2026-04-19T13:04:51.35Z</time></trkpt><trkpt lat="44.7817402" lon="9.801708"><ele>273.25</ele><time>2026-04-19T13:04:52.345Z</time></trkpt><trkpt lat="44.7818515" lon="9.8016799"><ele>273.0</ele><time>2026-04-19T13:04:53.354Z</time></trkpt><trkpt lat="44.7819611" lon="9.8016609"><ele>273.0</ele><time>2026-04-19T13:04:54.362Z</time></trkpt><trkpt lat="44.7820792" lon="9.8016335"><ele>273.0</ele><time>2026-04-19T13:04:55.358Z</time></trkpt><trkpt lat="44.7821961" lon="9.8016016"><ele>273.0</ele><time>2026-04-19T13:04:56.35Z</time></trkpt><trkpt lat="44.7823127" lon="9.8015584"><ele>273.0</ele><time>2026-04-19T13:04:57.353Z</time></trkpt><trkpt lat="44.7824283" lon="9.8014915"><ele>273.0</ele><time>2026-04-19T13:04:58.346Z</time></trkpt><trkpt lat="44.782549" lon="9.8014336"><ele>273.0</ele><time>2026-04-19T13:04:59.353Z</time></trkpt><trkpt lat="44.7826758" lon="9.8013701"><ele>273.0</ele><time>2026-04-19T13:05:00.356Z</time></trkpt><trkpt lat="44.7828025" lon="9.8013083"><ele>273.0</ele><time>2026-04-19T13:05:01.361Z</time></trkpt><trkpt lat="44.7829191" lon="9.8012537"><ele>272.25</ele><time>2026-04-19T13:05:02.36Z</time></trkpt><trkpt lat="44.7830357" lon="9.8011957"><ele>271.5</ele><time>2026-04-19T13:05:03.356Z</time></trkpt><trkpt lat="44.783144" lon="9.8011372"><ele>270.75</ele><time>2026-04-19T13:05:04.35Z</time></trkpt><trkpt lat="44.7832522" lon="9.8010808"><ele>270.0</ele><time>2026-04-19T13:05:05.353Z</time></trkpt><trkpt lat="44.7833548" lon="9.8010253"><ele>270.2</ele><time>2026-04-19T13:05:06.341Z</time></trkpt><trkpt lat="44.7834571" lon="9.8009755"><ele>270.4</ele><time>2026-04-19T13:05:07.333Z</time></trkpt><trkpt lat="44.7835555" lon="9.8009314"><ele>270.6</ele><time>2026-04-19T13:05:08.357Z</time></trkpt><trkpt lat="44.7836537" lon="9.8008893"><ele>270.8</ele><time>2026-04-19T13:05:09.36Z</time></trkpt><trkpt lat="44.7837592" lon="9.8008683"><ele>271.0</ele><time>2026-04-19T13:05:10.357Z</time></trkpt><trkpt lat="44.7838814" lon="9.8008631"><ele>271.0</ele><time>2026-04-19T13:05:11.349Z</time></trkpt><trkpt lat="44.7840077" lon="9.800862"><ele>271.0</ele><time>2026-04-19T13:05:12.349Z</time></trkpt><trkpt lat="44.784135" lon="9.8008454"><ele>271.0</ele><time>2026-04-19T13:05:13.349Z</time></trkpt><trkpt lat="44.7842544" lon="9.8008232"><ele>271.0</ele><time>2026-04-19T13:05:14.35Z</time></trkpt><trkpt lat="44.7843696" lon="9.8007906"><ele>270.8</ele><time>2026-04-19T13:05:15.353Z</time></trkpt><trkpt lat="44.7844783" lon="9.8007446"><ele>270.6</ele><time>2026-04-19T13:05:16.353Z</time></trkpt><trkpt lat="44.7845814" lon="9.8007009"><ele>270.4</ele><time>2026-04-19T13:05:17.353Z</time></trkpt><trkpt lat="44.7846806" lon="9.8006388"><ele>270.2</ele><time>2026-04-19T13:05:18.353Z</time></trkpt><trkpt lat="44.7847777" lon="9.8005902"><ele>270.0</ele><time>2026-04-19T13:05:19.361Z</time></trkpt><trkpt lat="44.7848807" lon="9.8005684"><ele>270.0</ele><time>2026-04-19T13:05:20.359Z</time></trkpt><trkpt lat="44.7849926" lon="9.8005604"><ele>270.0</ele><time>2026-04-19T13:05:21.355Z</time></trkpt><trkpt lat="44.7851099" lon="9.8005549"><ele>270.0</ele><time>2026-04-19T13:05:22.351Z</time></trkpt><trkpt lat="44.7852269" lon="9.8005469"><ele>270.0</ele><time>2026-04-19T13:05:23.355Z</time></trkpt><trkpt lat="44.7853387" lon="9.8005453"><ele>269.8333333333333</ele><time>2026-04-19T13:05:24.362Z</time></trkpt><trkpt lat="44.7854421" lon="9.800552"><ele>269.6666666666667</ele><time>2026-04-19T13:05:25.359Z</time></trkpt><trkpt lat="44.7855365" lon="9.8005549"><ele>269.5</ele><time>2026-04-19T13:05:26.349Z</time></trkpt><trkpt lat="44.7856225" lon="9.8005648"><ele>269.33333333333337</ele><time>2026-04-19T13:05:27.358Z</time></trkpt><trkpt lat="44.785701" lon="9.8005659"><ele>269.1666666666667</ele><time>2026-04-19T13:05:28.358Z</time></trkpt><trkpt lat="44.7857654" lon="9.800552"><ele>269.0</ele><time>2026-04-19T13:05:29.353Z</time></trkpt><trkpt lat="44.785833" lon="9.8005291"><ele>269.0</ele><time>2026-04-19T13:05:31.358Z</time></trkpt><trkpt lat="44.7858824" lon="9.8004504"><ele>269.0</ele><time>2026-04-19T13:08:10.358Z</time></trkpt><trkpt lat="44.7859134" lon="9.8005629"><ele>269.0</ele><time>2026-04-19T13:08:56.346Z</time></trkpt><trkpt lat="44.78585" lon="9.8006061"><ele>269.0</ele><time>2026-04-19T13:08:59.343Z</time></trkpt><trkpt lat="44.7858675" lon="9.8004275"><ele>269.0</ele><time>2026-04-19T13:09:04.35Z</time></trkpt><trkpt lat="44.7858899" lon="9.8003298"><ele>269.0</ele><time>2026-04-19T13:09:05.346Z</time></trkpt><trkpt lat="44.7858708" lon="9.8002433"><ele>271.57142857142856</ele><time>2026-04-19T13:09:22.338Z</time></trkpt><trkpt lat="44.7858956" lon="9.8001422"><ele>274.14285714285717</ele><time>2026-04-19T13:09:31.363Z</time></trkpt><trkpt lat="44.7859373" lon="9.8000619"><ele>276.7142857142857</ele><time>2026-04-19T13:09:37.353Z</time></trkpt><trkpt lat="44.7859886" lon="9.8000017"><ele>279.2857142857143</ele><time>2026-04-19T13:09:54.354Z</time></trkpt><trkpt lat="44.7860081" lon="9.7998954"><ele>281.8571428571429</ele><time>2026-04-19T13:10:19.349Z</time></trkpt><trkpt lat="44.7859882" lon="9.799809"><ele>284.42857142857144</ele><time>2026-04-19T13:10:25.364Z</time></trkpt><trkpt lat="44.7859631" lon="9.799711"><ele>287.0</ele><time>2026-04-19T13:10:29.347Z</time></trkpt><trkpt lat="44.7859285" lon="9.799616"><ele>287.0</ele><time>2026-04-19T13:10:33.324Z</time></trkpt><trkpt lat="44.7859554" lon="9.7995295"><ele>287.0</ele><time>2026-04-19T13:10:38.328Z</time></trkpt><trkpt lat="44.7859627" lon="9.7994318"><ele>287.0</ele><time>2026-04-19T13:10:45.349Z</time></trkpt><trkpt lat="44.785964" lon="9.7993423"><ele>287.0</ele><time>2026-04-19T13:10:53.358Z</time></trkpt><trkpt lat="44.7859266" lon="9.7992588"><ele>287.0</ele><time>2026-04-19T13:10:58.304Z</time></trkpt><trkpt lat="44.7859404" lon="9.7991089"><ele>287.0</ele><time>2026-04-19T13:11:32.355Z</time></trkpt><trkpt lat="44.7859422" lon="9.799203"><ele>287.0</ele><time>2026-04-19T13:11:52.339Z</time></trkpt><trkpt lat="44.7859588" lon="9.7993081"><ele>287.0</ele><time>2026-04-19T13:11:57.34Z</time></trkpt><trkpt lat="44.7859265" lon="9.7994027"><ele>287.0</ele><time>2026-04-19T13:12:01.349Z</time></trkpt><trkpt lat="44.7859345" lon="9.7995176"><ele>287.0</ele><time>2026-04-19T13:12:05.35Z</time></trkpt><trkpt lat="44.7859598" lon="9.7996246"><ele>287.0</ele><time>2026-04-19T13:12:09.312Z</time></trkpt><trkpt lat="44.7860251" lon="9.7997091"><ele>287.0</ele><time>2026-04-19T13:12:13.307Z</time></trkpt><trkpt lat="44.7860754" lon="9.7997716"><ele>287.0</ele><time>2026-04-19T13:12:16.322Z</time></trkpt><trkpt lat="44.7861427" lon="9.7998067"><ele>287.14285714285717</ele><time>2026-04-19T13:12:20.33Z</time></trkpt><trkpt lat="44.7862084" lon="9.7998388"><ele>287.2857142857143</ele><time>2026-04-19T13:12:25.334Z</time></trkpt><trkpt lat="44.7862526" lon="9.7997557"><ele>287.42857142857144</ele><time>2026-04-19T13:12:32.34Z</time></trkpt><trkpt lat="44.7862754" lon="9.7996526"><ele>287.57142857142856</ele><time>2026-04-19T13:12:36.331Z</time></trkpt><trkpt lat="44.7862902" lon="9.7995583"><ele>287.7142857142857</ele><time>2026-04-19T13:12:39.347Z</time></trkpt><trkpt lat="44.7863018" lon="9.7994701"><ele>287.8571428571429</ele><time>2026-04-19T13:12:42.357Z</time></trkpt><trkpt lat="44.7862954" lon="9.7993617"><ele>288.0</ele><time>2026-04-19T13:12:46.35Z</time></trkpt><trkpt lat="44.7863049" lon="9.7992501"><ele>289.5</ele><time>2026-04-19T13:12:49.344Z</time></trkpt><trkpt lat="44.7863355" lon="9.7991323"><ele>291.0</ele><time>2026-04-19T13:12:52.342Z</time></trkpt><trkpt lat="44.7863622" lon="9.7990209"><ele>292.5</ele><time>2026-04-19T13:12:55.34Z</time></trkpt><trkpt lat="44.7863707" lon="9.7988999"><ele>294.0</ele><time>2026-04-19T13:12:59.342Z</time></trkpt><trkpt lat="44.7863737" lon="9.7987831"><ele>295.5</ele><time>2026-04-19T13:13:02.353Z</time></trkpt><trkpt lat="44.78635" lon="9.7986693"><ele>297.0</ele><time>2026-04-19T13:13:05.338Z</time></trkpt><trkpt lat="44.7863579" lon="9.7985566"><ele>298.6</ele><time>2026-04-19T13:13:08.338Z</time></trkpt><trkpt lat="44.7863656" lon="9.7984138"><ele>300.2</ele><time>2026-04-19T13:13:11.337Z</time></trkpt><trkpt lat="44.7863641" lon="9.7983081"><ele>301.8</ele><time>2026-04-19T13:13:13.337Z</time></trkpt><trkpt lat="44.7863172" lon="9.7982152"><ele>303.4</ele><time>2026-04-19T13:13:16.307Z</time></trkpt><trkpt lat="44.7862473" lon="9.7980941"><ele>305.0</ele><time>2026-04-19T13:13:19.352Z</time></trkpt><trkpt lat="44.7862109" lon="9.7979896"><ele>305.0</ele><time>2026-04-19T13:13:22.336Z</time></trkpt><trkpt lat="44.786185" lon="9.7979026"><ele>305.0</ele><time>2026-04-19T13:13:24.358Z</time></trkpt><trkpt lat="44.7861709" lon="9.7978024"><ele>305.0</ele><time>2026-04-19T13:13:26.36Z</time></trkpt><trkpt lat="44.7861629" lon="9.7976815"><ele>305.0</ele><time>2026-04-19T13:13:29.324Z</time></trkpt><trkpt lat="44.7861934" lon="9.797564"><ele>305.0</ele><time>2026-04-19T13:13:32.341Z</time></trkpt><trkpt lat="44.7861965" lon="9.7974531"><ele>305.0</ele><time>2026-04-19T13:13:35.333Z</time></trkpt><trkpt lat="44.7861794" lon="9.7973658"><ele>306.8571428571429</ele><time>2026-04-19T13:13:38.329Z</time></trkpt><trkpt lat="44.7861701" lon="9.7972718"><ele>308.71428571428567</ele><time>2026-04-19T13:13:40.354Z</time></trkpt><trkpt lat="44.7861497" lon="9.7971755"><ele>310.57142857142856</ele><time>2026-04-19T13:13:42.339Z</time></trkpt><trkpt lat="44.7861439" lon="9.7970846"><ele>312.42857142857144</ele><time>2026-04-19T13:13:44.349Z</time></trkpt><trkpt lat="44.7861356" lon="9.7969713"><ele>314.28571428571433</ele><time>2026-04-19T13:13:46.332Z</time></trkpt><trkpt lat="44.7861413" lon="9.7968729"><ele>316.1428571428571</ele><time>2026-04-19T13:13:49.336Z</time></trkpt><trkpt lat="44.7861663" lon="9.7967599"><ele>318.0</ele><time>2026-04-19T13:13:52.326Z</time></trkpt><trkpt lat="44.7861699" lon="9.7966407"><ele>319.0</ele><time>2026-04-19T13:13:55.309Z</time></trkpt><trkpt lat="44.7861275" lon="9.7965549"><ele>320.0</ele><time>2026-04-19T13:13:59.325Z</time></trkpt><trkpt lat="44.7860655" lon="9.7964874"><ele>321.0</ele><time>2026-04-19T13:14:02.329Z</time></trkpt><trkpt lat="44.7860093" lon="9.7964007"><ele>322.0</ele><time>2026-04-19T13:14:05.316Z</time></trkpt><trkpt lat="44.7859645" lon="9.7963372"><ele>323.0</ele><time>2026-04-19T13:14:08.329Z</time></trkpt><trkpt lat="44.7858793" lon="9.7962637"><ele>324.0</ele><time>2026-04-19T13:14:12.339Z</time></trkpt><trkpt lat="44.7858153" lon="9.7961924"><ele>325.3333333333333</ele><time>2026-04-19T13:14:14.352Z</time></trkpt><trkpt lat="44.7857758" lon="9.796123"><ele>326.6666666666667</ele><time>2026-04-19T13:14:16.326Z</time></trkpt><trkpt lat="44.7856975" lon="9.7960682"><ele>328.0</ele><time>2026-04-19T13:14:19.344Z</time></trkpt><trkpt lat="44.7856715" lon="9.7959732"><ele>329.33333333333337</ele><time>2026-04-19T13:14:21.306Z</time></trkpt><trkpt lat="44.785674" lon="9.7958563"><ele>330.6666666666667</ele><time>2026-04-19T13:14:24.337Z</time></trkpt><trkpt lat="44.7856804" lon="9.7957129"><ele>332.0</ele><time>2026-04-19T13:14:27.327Z</time></trkpt><trkpt lat="44.7856489" lon="9.7955821"><ele>333.1666666666667</ele><time>2026-04-19T13:14:29.336Z</time></trkpt><trkpt lat="44.7856099" lon="9.7954541"><ele>334.33333333333337</ele><time>2026-04-19T13:14:31.323Z</time></trkpt><trkpt lat="44.7855885" lon="9.7953489"><ele>335.5</ele><time>2026-04-19T13:14:33.341Z</time></trkpt><trkpt lat="44.7855661" lon="9.7952301"><ele>336.6666666666667</ele><time>2026-04-19T13:14:35.34Z</time></trkpt><trkpt lat="44.7855649" lon="9.7951226"><ele>337.8333333333333</ele><time>2026-04-19T13:14:37.34Z</time></trkpt><trkpt lat="44.785563" lon="9.7950266"><ele>339.0</ele><time>2026-04-19T13:14:39.332Z</time></trkpt><trkpt lat="44.7855663" lon="9.7949241"><ele>339.0</ele><time>2026-04-19T13:14:41.337Z</time></trkpt><trkpt lat="44.7855632" lon="9.7948058"><ele>339.0</ele><time>2026-04-19T13:14:43.337Z</time></trkpt><trkpt lat="44.785559" lon="9.7946643"><ele>339.0</ele><time>2026-04-19T13:14:45.347Z</time></trkpt><trkpt lat="44.7855672" lon="9.7945036"><ele>339.0</ele><time>2026-04-19T13:14:47.341Z</time></trkpt><trkpt lat="44.7855853" lon="9.7943629"><ele>339.0</ele><time>2026-04-19T13:14:49.347Z</time></trkpt><trkpt lat="44.785619" lon="9.7942277"><ele>339.6</ele><time>2026-04-19T13:14:51.351Z</time></trkpt><trkpt lat="44.7856598" lon="9.7940703"><ele>340.2</ele><time>2026-04-19T13:14:53.328Z</time></trkpt><trkpt lat="44.7856696" lon="9.7939374"><ele>340.8</ele><time>2026-04-19T13:14:55.352Z</time></trkpt><trkpt lat="44.7856765" lon="9.7938275"><ele>341.40000000000003</ele><time>2026-04-19T13:14:57.351Z</time></trkpt><trkpt lat="44.7856726" lon="9.7936994"><ele>342.0</ele><time>2026-04-19T13:15:00.329Z</time></trkpt><trkpt lat="44.7856568" lon="9.7935731"><ele>342.99999999999994</ele><time>2026-04-19T13:15:03.335Z</time></trkpt><trkpt lat="44.7856385" lon="9.7934696"><ele>344.0</ele><time>2026-04-19T13:15:05.342Z</time></trkpt><trkpt lat="44.7856034" lon="9.7933804"><ele>345.0</ele><time>2026-04-19T13:15:07.312Z</time></trkpt><trkpt lat="44.7855596" lon="9.7933055"><ele>346.0</ele><time>2026-04-19T13:15:09.343Z</time></trkpt><trkpt lat="44.7854889" lon="9.7932925"><ele>347.0</ele><time>2026-04-19T13:15:14.338Z</time></trkpt><trkpt lat="44.7854084" lon="9.7932866"><ele>347.99999999999994</ele><time>2026-04-19T13:15:18.348Z</time></trkpt><trkpt lat="44.7853436" lon="9.7932553"><ele>349.0</ele><time>2026-04-19T13:15:22.333Z</time></trkpt><trkpt lat="44.785274" lon="9.7933121"><ele>348.99999999999994</ele><time>2026-04-19T13:15:27.338Z</time></trkpt><trkpt lat="44.7852127" lon="9.7933375"><ele>349.0</ele><time>2026-04-19T13:15:30.315Z</time></trkpt><trkpt lat="44.7851475" lon="9.793374"><ele>349.0</ele><time>2026-04-19T13:15:35.353Z</time></trkpt><trkpt lat="44.7850945" lon="9.7934391"><ele>349.0</ele><time>2026-04-19T13:15:39.304Z</time></trkpt><trkpt lat="44.7850198" lon="9.7934539"><ele>349.0</ele><time>2026-04-19T13:15:44.336Z</time></trkpt><trkpt lat="44.7849551" lon="9.7934602"><ele>348.99999999999994</ele><time>2026-04-19T13:15:56.325Z</time></trkpt><trkpt lat="44.7848919" lon="9.7934702"><ele>349.0</ele><time>2026-04-19T13:16:23.344Z</time></trkpt><trkpt lat="44.7848258" lon="9.7934536"><ele>352.57142857142856</ele><time>2026-04-19T13:18:30.333Z</time></trkpt><trkpt lat="44.7847587" lon="9.7934536"><ele>356.1428571428571</ele><time>2026-04-19T13:19:41.347Z</time></trkpt><trkpt lat="44.7846981" lon="9.7933789"><ele>359.71428571428567</ele><time>2026-04-19T13:19:45.365Z</time></trkpt><trkpt lat="44.7846655" lon="9.7932963"><ele>363.2857142857143</ele><time>2026-04-19T13:19:48.346Z</time></trkpt><trkpt lat="44.7845959" lon="9.7932505"><ele>366.8571428571429</ele><time>2026-04-19T13:19:52.342Z</time></trkpt><trkpt lat="44.784526" lon="9.7932272"><ele>370.4285714285714</ele><time>2026-04-19T13:19:55.342Z</time></trkpt><trkpt lat="44.7844467" lon="9.7931948"><ele>374.0</ele><time>2026-04-19T13:19:58.338Z</time></trkpt><trkpt lat="44.7843859" lon="9.7931706"><ele>380.0</ele><time>2026-04-19T13:20:01.35Z</time></trkpt><trkpt lat="44.7843271" lon="9.7931283"><ele>386.0</ele><time>2026-04-19T13:20:04.34Z</time></trkpt><trkpt lat="44.7842561" lon="9.7930566"><ele>392.0</ele><time>2026-04-19T13:20:07.361Z</time></trkpt><trkpt lat="44.7841859" lon="9.7930324"><ele>398.0</ele><time>2026-04-19T13:20:10.346Z</time></trkpt><trkpt lat="44.7841115" lon="9.7929585"><ele>403.99999999999994</ele><time>2026-04-19T13:20:14.348Z</time></trkpt><trkpt lat="44.7840758" lon="9.7928646"><ele>410.0</ele><time>2026-04-19T13:20:18.345Z</time></trkpt><trkpt lat="44.7840437" lon="9.7927481"><ele>410.8333333333333</ele><time>2026-04-19T13:20:23.353Z</time></trkpt><trkpt lat="44.7840187" lon="9.7926501"><ele>411.66666666666663</ele><time>2026-04-19T13:20:26.343Z</time></trkpt><trkpt lat="44.7840357" lon="9.7925427"><ele>412.5</ele><time>2026-04-19T13:20:29.344Z</time></trkpt><trkpt lat="44.7840249" lon="9.7924239"><ele>413.33333333333337</ele><time>2026-04-19T13:20:32.366Z</time></trkpt><trkpt lat="44.7839793" lon="9.7923482"><ele>414.1666666666667</ele><time>2026-04-19T13:20:34.341Z</time></trkpt><trkpt lat="44.7839145" lon="9.7923133"><ele>415.0</ele><time>2026-04-19T13:20:36.356Z</time></trkpt><trkpt lat="44.7838409" lon="9.7923166"><ele>415.0</ele><time>2026-04-19T13:20:38.345Z</time></trkpt><trkpt lat="44.7837657" lon="9.7923385"><ele>415.0</ele><time>2026-04-19T13:20:40.35Z</time></trkpt><trkpt lat="44.7837038" lon="9.7923769"><ele>415.0</ele><time>2026-04-19T13:20:42.351Z</time></trkpt><trkpt lat="44.783643" lon="9.7924068"><ele>415.0</ele><time>2026-04-19T13:20:45.344Z</time></trkpt><trkpt lat="44.7835598" lon="9.7924552"><ele>415.0</ele><time>2026-04-19T13:20:48.336Z</time></trkpt><trkpt lat="44.7834996" lon="9.7924972"><ele>415.0</ele><time>2026-04-19T13:20:50.35Z</time></trkpt><trkpt lat="44.7834486" lon="9.7925685"><ele>415.0</ele><time>2026-04-19T13:20:52.349Z</time></trkpt><trkpt lat="44.7834031" lon="9.7926416"><ele>417.8571428571429</ele><time>2026-04-19T13:20:55.349Z</time></trkpt><trkpt lat="44.7833472" lon="9.7926848"><ele>420.7142857142857</ele><time>2026-04-19T13:20:58.357Z</time></trkpt><trkpt lat="44.7832709" lon="9.7927253"><ele>423.57142857142856</ele><time>2026-04-19T13:21:02.349Z</time></trkpt><trkpt lat="44.7832073" lon="9.792753"><ele>426.42857142857144</ele><time>2026-04-19T13:21:05.324Z</time></trkpt><trkpt lat="44.7831396" lon="9.7927286"><ele>429.2857142857143</ele><time>2026-04-19T13:21:09.355Z</time></trkpt><trkpt lat="44.7830895" lon="9.7926599"><ele>432.14285714285717</ele><time>2026-04-19T13:21:13.348Z</time></trkpt><trkpt lat="44.7829995" lon="9.7926363"><ele>435.0</ele><time>2026-04-19T13:21:17.356Z</time></trkpt><trkpt lat="44.7829288" lon="9.7925967"><ele>436.7142857142857</ele><time>2026-04-19T13:21:21.356Z</time></trkpt><trkpt lat="44.7828553" lon="9.7925718"><ele>438.42857142857144</ele><time>2026-04-19T13:21:25.342Z</time></trkpt><trkpt lat="44.7827964" lon="9.7926187"><ele>440.1428571428571</ele><time>2026-04-19T13:21:30.35Z</time></trkpt><trkpt lat="44.7827387" lon="9.7926586"><ele>441.8571428571429</ele><time>2026-04-19T13:21:34.338Z</time></trkpt><trkpt lat="44.7826773" lon="9.7926822"><ele>443.57142857142856</ele><time>2026-04-19T13:21:37.343Z</time></trkpt><trkpt lat="44.7825868" lon="9.7926827"><ele>445.2857142857143</ele><time>2026-04-19T13:21:40.336Z</time></trkpt><trkpt lat="44.7825099" lon="9.7926414"><ele>447.0</ele><time>2026-04-19T13:21:43.35Z</time></trkpt><trkpt lat="44.78243" lon="9.7926564"><ele>451.2857142857142</ele><time>2026-04-19T13:21:46.347Z</time></trkpt><trkpt lat="44.7823491" lon="9.7926284"><ele>455.57142857142856</ele><time>2026-04-19T13:21:49.341Z</time></trkpt><trkpt lat="44.7822782" lon="9.7925849"><ele>459.85714285714283</ele><time>2026-04-19T13:21:51.343Z</time></trkpt><trkpt lat="44.7822084" lon="9.7925645"><ele>464.1428571428571</ele><time>2026-04-19T13:21:54.335Z</time></trkpt><trkpt lat="44.7821383" lon="9.7925272"><ele>468.4285714285714</ele><time>2026-04-19T13:21:57.338Z</time></trkpt><trkpt lat="44.7820748" lon="9.7925327"><ele>472.71428571428567</ele><time>2026-04-19T13:22:00.337Z</time></trkpt><trkpt lat="44.7820028" lon="9.7925289"><ele>477.0</ele><time>2026-04-19T13:22:07.346Z</time></trkpt><trkpt lat="44.7819353" lon="9.7925214"><ele>477.0</ele><time>2026-04-19T13:22:33.338Z</time></trkpt><trkpt lat="44.7818624" lon="9.792521"><ele>476.99999999999994</ele><time>2026-04-19T13:22:39.354Z</time></trkpt><trkpt lat="44.781793" lon="9.7925237"><ele>477.0</ele><time>2026-04-19T13:22:45.352Z</time></trkpt><trkpt lat="44.7817285" lon="9.7925415"><ele>477.0</ele><time>2026-04-19T13:22:49.352Z</time></trkpt><trkpt lat="44.7816663" lon="9.7925677"><ele>476.99999999999994</ele><time>2026-04-19T13:23:25.345Z</time></trkpt><trkpt lat="44.7816433" lon="9.7926633"><ele>477.0</ele><time>2026-04-19T13:23:31.348Z</time></trkpt><trkpt lat="44.7816912" lon="9.7927345"><ele>477.0</ele><time>2026-04-19T13:23:33.335Z</time></trkpt><trkpt lat="44.7817428" lon="9.7928073"><ele>477.5</ele><time>2026-04-19T13:23:35.333Z</time></trkpt><trkpt lat="44.7818022" lon="9.7928892"><ele>478.0</ele><time>2026-04-19T13:23:37.344Z</time></trkpt><trkpt lat="44.7818605" lon="9.7929537"><ele>478.5</ele><time>2026-04-19T13:23:39.339Z</time></trkpt><trkpt lat="44.7818924" lon="9.7930666"><ele>479.0</ele><time>2026-04-19T13:23:41.337Z</time></trkpt><trkpt lat="44.7819183" lon="9.7931998"><ele>479.5</ele><time>2026-04-19T13:23:43.324Z</time></trkpt><trkpt lat="44.7819247" lon="9.7933332"><ele>480.0</ele><time>2026-04-19T13:23:45.35Z</time></trkpt><trkpt lat="44.7819575" lon="9.7934498"><ele>474.0</ele><time>2026-04-19T13:23:47.342Z</time></trkpt><trkpt lat="44.7820082" lon="9.7935204"><ele>468.0</ele><time>2026-04-19T13:23:49.343Z</time></trkpt><trkpt lat="44.7820745" lon="9.7936001"><ele>462.0</ele><time>2026-04-19T13:23:51.353Z</time></trkpt><trkpt lat="44.7821212" lon="9.7936706"><ele>456.0</ele><time>2026-04-19T13:23:53.353Z</time></trkpt><trkpt lat="44.7820942" lon="9.7937915"><ele>450.0</ele><time>2026-04-19T13:23:56.345Z</time></trkpt><trkpt lat="44.7820523" lon="9.7938978"><ele>444.0</ele><time>2026-04-19T13:23:58.335Z</time></trkpt><trkpt lat="44.7820053" lon="9.7939804"><ele>444.0</ele><time>2026-04-19T13:24:00.345Z</time></trkpt><trkpt lat="44.7820072" lon="9.7940734"><ele>444.0</ele><time>2026-04-19T13:24:03.339Z</time></trkpt><trkpt lat="44.7820336" lon="9.7941658"><ele>444.0</ele><time>2026-04-19T13:24:05.333Z</time></trkpt><trkpt lat="44.7820563" lon="9.7942863"><ele>444.0</ele><time>2026-04-19T13:24:07.353Z</time></trkpt><trkpt lat="44.7820662" lon="9.7943858"><ele>444.0</ele><time>2026-04-19T13:24:09.345Z</time></trkpt><trkpt lat="44.7820828" lon="9.794514"><ele>444.0</ele><time>2026-04-19T13:24:12.346Z</time></trkpt><trkpt lat="44.7821311" lon="9.7946236"><ele>441.5</ele><time>2026-04-19T13:24:14.363Z</time></trkpt><trkpt lat="44.7821754" lon="9.7947341"><ele>439.0</ele><time>2026-04-19T13:24:16.341Z</time></trkpt><trkpt lat="44.7822214" lon="9.7948351"><ele>436.5</ele><time>2026-04-19T13:24:18.348Z</time></trkpt><trkpt lat="44.7822527" lon="9.7949345"><ele>434.0</ele><time>2026-04-19T13:24:20.344Z</time></trkpt><trkpt lat="44.7822749" lon="9.7950302"><ele>431.5</ele><time>2026-04-19T13:24:22.335Z</time></trkpt><trkpt lat="44.7822688" lon="9.7951386"><ele>429.0</ele><time>2026-04-19T13:24:24.331Z</time></trkpt><trkpt lat="44.78227" lon="9.7952434"><ele>429.0</ele><time>2026-04-19T13:24:26.347Z</time></trkpt><trkpt lat="44.7822609" lon="9.7951345"><ele>429.0</ele><time>2026-04-19T13:25:02.361Z</time></trkpt><trkpt lat="44.7822762" lon="9.79502"><ele>429.0</ele><time>2026-04-19T13:25:04.323Z</time></trkpt><trkpt lat="44.7822742" lon="9.794886"><ele>429.0</ele><time>2026-04-19T13:25:06.349Z</time></trkpt><trkpt lat="44.7822181" lon="9.7947229"><ele>429.0</ele><time>2026-04-19T13:25:08.349Z</time></trkpt><trkpt lat="44.7821768" lon="9.7946175"><ele>429.0</ele><time>2026-04-19T13:25:09.322Z</time></trkpt><trkpt lat="44.7821429" lon="9.7945289"><ele>429.0</ele><time>2026-04-19T13:25:10.353Z</time></trkpt><trkpt lat="44.7820982" lon="9.794387"><ele>429.0</ele><time>2026-04-19T13:25:12.315Z</time></trkpt><trkpt lat="44.7821005" lon="9.7942599"><ele>429.0</ele><time>2026-04-19T13:25:14.354Z</time></trkpt><trkpt lat="44.7820855" lon="9.7941376"><ele>429.0</ele><time>2026-04-19T13:25:16.344Z</time></trkpt><trkpt lat="44.7820355" lon="9.794017"><ele>432.0</ele><time>2026-04-19T13:25:18.362Z</time></trkpt><trkpt lat="44.7820021" lon="9.7938685"><ele>435.0</ele><time>2026-04-19T13:25:20.36Z</time></trkpt><trkpt lat="44.7820438" lon="9.7937069"><ele>438.0</ele><time>2026-04-19T13:25:22.33Z</time></trkpt><trkpt lat="44.7820839" lon="9.7935758"><ele>441.0</ele><time>2026-04-19T13:25:24.343Z</time></trkpt><trkpt lat="44.7821036" lon="9.7934891"><ele>444.0</ele><time>2026-04-19T13:25:26.353Z</time></trkpt><trkpt lat="44.7820652" lon="9.7934142"><ele>448.6</ele><time>2026-04-19T13:25:30.332Z</time></trkpt><trkpt lat="44.7819807" lon="9.7933573"><ele>453.2</ele><time>2026-04-19T13:25:33.36Z</time></trkpt><trkpt lat="44.7819319" lon="9.7932508"><ele>457.80000000000007</ele><time>2026-04-19T13:25:35.359Z</time></trkpt><trkpt lat="44.7818981" lon="9.7931168"><ele>462.40000000000003</ele><time>2026-04-19T13:25:37.348Z</time></trkpt><trkpt lat="44.7818504" lon="9.7929908"><ele>467.0</ele><time>2026-04-19T13:25:39.341Z</time></trkpt><trkpt lat="44.7817603" lon="9.7928763"><ele>468.8571428571428</ele><time>2026-04-19T13:25:41.331Z</time></trkpt><trkpt lat="44.7817015" lon="9.7928211"><ele>470.71428571428567</ele><time>2026-04-19T13:25:42.344Z</time></trkpt><trkpt lat="44.7816479" lon="9.7927566"><ele>472.57142857142856</ele><time>2026-04-19T13:25:43.354Z</time></trkpt><trkpt lat="44.7816034" lon="9.7926641"><ele>474.4285714285714</ele><time>2026-04-19T13:25:45.357Z</time></trkpt><trkpt lat="44.7816227" lon="9.7925631"><ele>476.2857142857142</ele><time>2026-04-19T13:25:50.34Z</time></trkpt><trkpt lat="44.7816658" lon="9.7924958"><ele>478.14285714285717</ele><time>2026-04-19T13:25:53.347Z</time></trkpt><trkpt lat="44.7817377" lon="9.7925235"><ele>480.0</ele><time>2026-04-19T13:26:19.343Z</time></trkpt><trkpt lat="44.7817982" lon="9.7925481"><ele>479.5</ele><time>2026-04-19T13:26:24.348Z</time></trkpt><trkpt lat="44.7818739" lon="9.7925738"><ele>479.0</ele><time>2026-04-19T13:26:29.335Z</time></trkpt><trkpt lat="44.7819474" lon="9.7926053"><ele>478.5</ele><time>2026-04-19T13:26:32.318Z</time></trkpt><trkpt lat="44.7820118" lon="9.7926797"><ele>478.0</ele><time>2026-04-19T13:26:36.343Z</time></trkpt><trkpt lat="44.7820695" lon="9.7927414"><ele>477.5</ele><time>2026-04-19T13:26:39.338Z</time></trkpt><trkpt lat="44.7821504" lon="9.7927228"><ele>477.0</ele><time>2026-04-19T13:26:42.341Z</time></trkpt><trkpt lat="44.7822373" lon="9.7927324"><ele>477.0</ele><time>2026-04-19T13:26:45.339Z</time></trkpt><trkpt lat="44.7822991" lon="9.7927672"><ele>476.99999999999994</ele><time>2026-04-19T13:26:47.342Z</time></trkpt><trkpt lat="44.7823629" lon="9.7927384"><ele>477.0</ele><time>2026-04-19T13:26:51.336Z</time></trkpt><trkpt lat="44.782418" lon="9.7926802"><ele>477.0</ele><time>2026-04-19T13:26:55.333Z</time></trkpt><trkpt lat="44.7824865" lon="9.7926598"><ele>476.99999999999994</ele><time>2026-04-19T13:26:58.335Z</time></trkpt><trkpt lat="44.782565" lon="9.7926699"><ele>477.0</ele><time>2026-04-19T13:27:02.344Z</time></trkpt><trkpt lat="44.7826492" lon="9.7926696"><ele>477.0</ele><time>2026-04-19T13:27:06.343Z</time></trkpt><trkpt lat="44.7827307" lon="9.792686"><ele>471.0</ele><time>2026-04-19T13:27:09.354Z</time></trkpt><trkpt lat="44.7827938" lon="9.7926777"><ele>464.99999999999994</ele><time>2026-04-19T13:27:12.335Z</time></trkpt><trkpt lat="44.782858" lon="9.7927364"><ele>459.0</ele><time>2026-04-19T13:27:16.331Z</time></trkpt><trkpt lat="44.7829121" lon="9.7927933"><ele>453.0</ele><time>2026-04-19T13:27:20.336Z</time></trkpt><trkpt lat="44.7829898" lon="9.7928021"><ele>447.0</ele><time>2026-04-19T13:27:25.332Z</time></trkpt><trkpt lat="44.7830595" lon="9.792809"><ele>441.0</ele><time>2026-04-19T13:27:29.341Z</time></trkpt><trkpt lat="44.7831339" lon="9.7928374"><ele>435.0</ele><time>2026-04-19T13:27:35.298Z</time></trkpt><trkpt lat="44.7832145" lon="9.7927981"><ele>437.0</ele><time>2026-04-19T13:27:39.337Z</time></trkpt><trkpt lat="44.7833017" lon="9.7926669"><ele>439.0</ele><time>2026-04-19T13:27:42.321Z</time></trkpt><trkpt lat="44.7833784" lon="9.7925685"><ele>441.0</ele><time>2026-04-19T13:27:45.325Z</time></trkpt><trkpt lat="44.7834303" lon="9.7925127"><ele>443.0</ele><time>2026-04-19T13:27:47.36Z</time></trkpt><trkpt lat="44.7835002" lon="9.7924634"><ele>445.0</ele><time>2026-04-19T13:27:49.34Z</time></trkpt><trkpt lat="44.7835583" lon="9.7923981"><ele>447.0</ele><time>2026-04-19T13:27:51.335Z</time></trkpt><trkpt lat="44.7836189" lon="9.7923419"><ele>441.6666666666667</ele><time>2026-04-19T13:27:53.349Z</time></trkpt><trkpt lat="44.7837008" lon="9.7923072"><ele>436.33333333333337</ele><time>2026-04-19T13:27:56.356Z</time></trkpt><trkpt lat="44.7837687" lon="9.7922833"><ele>431.0</ele><time>2026-04-19T13:27:58.344Z</time></trkpt><trkpt lat="44.783836" lon="9.7922466"><ele>425.6666666666667</ele><time>2026-04-19T13:28:00.354Z</time></trkpt><trkpt lat="44.783905" lon="9.7922236"><ele>420.33333333333337</ele><time>2026-04-19T13:28:03.34Z</time></trkpt><trkpt lat="44.7839366" lon="9.792323"><ele>415.0</ele><time>2026-04-19T13:28:12.326Z</time></trkpt><trkpt lat="44.7839041" lon="9.7924362"><ele>415.00000000000006</ele><time>2026-04-19T13:28:16.34Z</time></trkpt><trkpt lat="44.7838641" lon="9.7925215"><ele>415.0</ele><time>2026-04-19T13:28:19.343Z</time></trkpt><trkpt lat="44.7838783" lon="9.7926299"><ele>415.0</ele><time>2026-04-19T13:28:23.336Z</time></trkpt><trkpt lat="44.7838732" lon="9.792747"><ele>415.0</ele><time>2026-04-19T13:28:27.329Z</time></trkpt><trkpt lat="44.7838507" lon="9.7928558"><ele>415.00000000000006</ele><time>2026-04-19T13:28:30.334Z</time></trkpt><trkpt lat="44.7838911" lon="9.7929433"><ele>415.0</ele><time>2026-04-19T13:28:34.328Z</time></trkpt><trkpt lat="44.7839858" lon="9.7929633"><ele>414.1666666666667</ele><time>2026-04-19T13:28:37.339Z</time></trkpt><trkpt lat="44.7840609" lon="9.7930221"><ele>413.33333333333337</ele><time>2026-04-19T13:28:39.354Z</time></trkpt><trkpt lat="44.7841185" lon="9.7930617"><ele>412.5</ele><time>2026-04-19T13:28:41.329Z</time></trkpt><trkpt lat="44.7841967" lon="9.793091"><ele>411.66666666666663</ele><time>2026-04-19T13:28:44.335Z</time></trkpt><trkpt lat="44.7842731" lon="9.7931152"><ele>410.8333333333333</ele><time>2026-04-19T13:28:47.343Z</time></trkpt><trkpt lat="44.7843414" lon="9.7931339"><ele>410.0</ele><time>2026-04-19T13:28:49.338Z</time></trkpt><trkpt lat="44.7844136" lon="9.793173"><ele>403.99999999999994</ele><time>2026-04-19T13:28:51.338Z</time></trkpt><trkpt lat="44.784481" lon="9.7932075"><ele>398.0</ele><time>2026-04-19T13:28:53.327Z</time></trkpt><trkpt lat="44.7845421" lon="9.7932839"><ele>392.0</ele><time>2026-04-19T13:28:57.343Z</time></trkpt><trkpt lat="44.7845973" lon="9.7933522"><ele>386.0</ele><time>2026-04-19T13:28:59.333Z</time></trkpt><trkpt lat="44.7846561" lon="9.7934142"><ele>380.0</ele><time>2026-04-19T13:29:01.34Z</time></trkpt><trkpt lat="44.784715" lon="9.7934473"><ele>374.0</ele><time>2026-04-19T13:29:04.355Z</time></trkpt><trkpt lat="44.7847973" lon="9.7935469"><ele>374.0</ele><time>2026-04-19T13:29:16.345Z</time></trkpt><trkpt lat="44.7848702" lon="9.793566"><ele>374.0</ele><time>2026-04-19T13:29:21.329Z</time></trkpt><trkpt lat="44.7849314" lon="9.7935139"><ele>374.0</ele><time>2026-04-19T13:29:25.346Z</time></trkpt><trkpt lat="44.7849824" lon="9.7934387"><ele>374.0</ele><time>2026-04-19T13:29:31.344Z</time></trkpt><trkpt lat="44.7850455" lon="9.7934059"><ele>374.0</ele><time>2026-04-19T13:29:36.329Z</time></trkpt><trkpt lat="44.7851125" lon="9.7933661"><ele>374.0</ele><time>2026-04-19T13:29:44.343Z</time></trkpt><trkpt lat="44.785164" lon="9.7933127"><ele>374.0</ele><time>2026-04-19T13:29:49.329Z</time></trkpt><trkpt lat="44.7852368" lon="9.7933588"><ele>370.4285714285714</ele><time>2026-04-19T13:29:55.348Z</time></trkpt><trkpt lat="44.7853029" lon="9.7933169"><ele>366.8571428571429</ele><time>2026-04-19T13:30:00.328Z</time></trkpt><trkpt lat="44.7853798" lon="9.7933003"><ele>363.2857142857143</ele><time>2026-04-19T13:30:12.345Z</time></trkpt><trkpt lat="44.7854488" lon="9.7933426"><ele>359.71428571428567</ele><time>2026-04-19T13:30:16.341Z</time></trkpt><trkpt lat="44.7854891" lon="9.7934207"><ele>356.1428571428571</ele><time>2026-04-19T13:30:38.296Z</time></trkpt><trkpt lat="44.7854973" lon="9.7935157"><ele>352.57142857142856</ele><time>2026-04-19T13:30:43.33Z</time></trkpt><trkpt lat="44.785518" lon="9.7936024"><ele>349.0</ele><time>2026-04-19T13:30:46.344Z</time></trkpt><trkpt lat="44.7855147" lon="9.7936922"><ele>347.8333333333333</ele><time>2026-04-19T13:30:49.345Z</time></trkpt><trkpt lat="44.7855129" lon="9.7937912"><ele>346.66666666666663</ele><time>2026-04-19T13:30:52.315Z</time></trkpt><trkpt lat="44.7854975" lon="9.793921"><ele>345.5</ele><time>2026-04-19T13:30:55.339Z</time></trkpt><trkpt lat="44.7854663" lon="9.7940147"><ele>344.3333333333333</ele><time>2026-04-19T13:30:57.338Z</time></trkpt><trkpt lat="44.7854444" lon="9.7941034"><ele>343.1666666666667</ele><time>2026-04-19T13:30:59.361Z</time></trkpt><trkpt lat="44.785436" lon="9.7942005"><ele>342.0</ele><time>2026-04-19T13:31:00.314Z</time></trkpt><trkpt lat="44.785423" lon="9.7943238"><ele>341.40000000000003</ele><time>2026-04-19T13:31:02.35Z</time></trkpt><trkpt lat="44.7854312" lon="9.7944265"><ele>340.8</ele><time>2026-04-19T13:31:04.322Z</time></trkpt><trkpt lat="44.7854317" lon="9.7945776"><ele>340.2</ele><time>2026-04-19T13:31:07.349Z</time></trkpt><trkpt lat="44.7854304" lon="9.7947283"><ele>339.6</ele><time>2026-04-19T13:31:09.342Z</time></trkpt><trkpt lat="44.7854179" lon="9.7948665"><ele>339.0</ele><time>2026-04-19T13:31:11.349Z</time></trkpt><trkpt lat="44.7854167" lon="9.7949836"><ele>339.0</ele><time>2026-04-19T13:31:13.348Z</time></trkpt><trkpt lat="44.785432" lon="9.7951086"><ele>339.0</ele><time>2026-04-19T13:31:15.334Z</time></trkpt><trkpt lat="44.785477" lon="9.7952641"><ele>339.0</ele><time>2026-04-19T13:31:17.349Z</time></trkpt><trkpt lat="44.7855001" lon="9.7953474"><ele>339.0</ele><time>2026-04-19T13:31:18.353Z</time></trkpt><trkpt lat="44.7855419" lon="9.7954662"><ele>339.0</ele><time>2026-04-19T13:31:20.335Z</time></trkpt><trkpt lat="44.7855657" lon="9.7956167"><ele>339.3333333333333</ele><time>2026-04-19T13:31:22.359Z</time></trkpt><trkpt lat="44.785569" lon="9.7957506"><ele>339.6666666666667</ele><time>2026-04-19T13:31:24.342Z</time></trkpt><trkpt lat="44.7855479" lon="9.7958378"><ele>340.0</ele><time>2026-04-19T13:31:26.337Z</time></trkpt><trkpt lat="44.7855156" lon="9.7959475"><ele>340.33333333333337</ele><time>2026-04-19T13:31:28.347Z</time></trkpt><trkpt lat="44.7854959" lon="9.79605"><ele>340.6666666666667</ele><time>2026-04-19T13:31:30.34Z</time></trkpt><trkpt lat="44.7855149" lon="9.7961602"><ele>341.0</ele><time>2026-04-19T13:31:32.331Z</time></trkpt><trkpt lat="44.7855281" lon="9.7962583"><ele>339.7142857142857</ele><time>2026-04-19T13:31:34.339Z</time></trkpt><trkpt lat="44.7854799" lon="9.796321"><ele>338.42857142857144</ele><time>2026-04-19T13:31:36.329Z</time></trkpt><trkpt lat="44.7854137" lon="9.7963424"><ele>337.1428571428571</ele><time>2026-04-19T13:31:38.331Z</time></trkpt><trkpt lat="44.785343" lon="9.7963596"><ele>335.8571428571429</ele><time>2026-04-19T13:31:40.333Z</time></trkpt><trkpt lat="44.7852719" lon="9.7964423"><ele>334.5714285714286</ele><time>2026-04-19T13:31:43.345Z</time></trkpt><trkpt lat="44.7852551" lon="9.7965323"><ele>333.2857142857143</ele><time>2026-04-19T13:31:45.336Z</time></trkpt><trkpt lat="44.7852471" lon="9.796631"><ele>332.0</ele><time>2026-04-19T13:31:47.319Z</time></trkpt><trkpt lat="44.7852274" lon="9.7967442"><ele>331.5</ele><time>2026-04-19T13:31:49.343Z</time></trkpt><trkpt lat="44.7851916" lon="9.7969183"><ele>331.0</ele><time>2026-04-19T13:31:51.339Z</time></trkpt><trkpt lat="44.7851702" lon="9.7970023"><ele>330.5</ele><time>2026-04-19T13:31:52.332Z</time></trkpt><trkpt lat="44.7851478" lon="9.7971001"><ele>330.0</ele><time>2026-04-19T13:31:53.335Z</time></trkpt><trkpt lat="44.7851302" lon="9.797204"><ele>329.5</ele><time>2026-04-19T13:31:54.345Z</time></trkpt><trkpt lat="44.7851201" lon="9.7973004"><ele>329.0</ele><time>2026-04-19T13:31:55.338Z</time></trkpt><trkpt lat="44.7851148" lon="9.7974537"><ele>329.0</ele><time>2026-04-19T13:31:57.332Z</time></trkpt><trkpt lat="44.785141" lon="9.7975377"><ele>329.0</ele><time>2026-04-19T13:31:59.351Z</time></trkpt><trkpt lat="44.7852049" lon="9.7976238"><ele>329.0</ele><time>2026-04-19T13:32:01.34Z</time></trkpt><trkpt lat="44.7852776" lon="9.797745"><ele>329.0</ele><time>2026-04-19T13:32:03.33Z</time></trkpt><trkpt lat="44.7853324" lon="9.7978753"><ele>329.0</ele><time>2026-04-19T13:32:05.346Z</time></trkpt><trkpt lat="44.7853747" lon="9.7979945"><ele>325.83333333333337</ele><time>2026-04-19T13:32:07.345Z</time></trkpt><trkpt lat="44.7854252" lon="9.7980708"><ele>322.6666666666667</ele><time>2026-04-19T13:32:09.335Z</time></trkpt><trkpt lat="44.7854656" lon="9.7981623"><ele>319.5</ele><time>2026-04-19T13:32:12.346Z</time></trkpt><trkpt lat="44.7854641" lon="9.798259"><ele>316.3333333333333</ele><time>2026-04-19T13:32:14.326Z</time></trkpt><trkpt lat="44.7854675" lon="9.7983885"><ele>313.16666666666663</ele><time>2026-04-19T13:32:16.331Z</time></trkpt><trkpt lat="44.7854737" lon="9.7985337"><ele>310.0</ele><time>2026-04-19T13:32:18.339Z</time></trkpt><trkpt lat="44.7854664" lon="9.7986376"><ele>308.16666666666663</ele><time>2026-04-19T13:32:20.341Z</time></trkpt><trkpt lat="44.785439" lon="9.7987388"><ele>306.3333333333333</ele><time>2026-04-19T13:32:22.333Z</time></trkpt><trkpt lat="44.7854337" lon="9.7988448"><ele>304.5</ele><time>2026-04-19T13:32:24.343Z</time></trkpt><trkpt lat="44.7854947" lon="9.798955"><ele>302.6666666666667</ele><time>2026-04-19T13:32:26.333Z</time></trkpt><trkpt lat="44.7855249" lon="9.7990672"><ele>300.83333333333337</ele><time>2026-04-19T13:32:29.338Z</time></trkpt><trkpt lat="44.7855153" lon="9.7991703"><ele>299.0</ele><time>2026-04-19T13:32:32.348Z</time></trkpt><trkpt lat="44.7854597" lon="9.799234"><ele>299.0</ele><time>2026-04-19T13:32:36.338Z</time></trkpt><trkpt lat="44.7854021" lon="9.7992856"><ele>299.0</ele><time>2026-04-19T13:32:39.339Z</time></trkpt><trkpt lat="44.7853371" lon="9.7993247"><ele>299.0</ele><time>2026-04-19T13:32:42.317Z</time></trkpt><trkpt lat="44.7852481" lon="9.7993382"><ele>299.0</ele><time>2026-04-19T13:32:46.338Z</time></trkpt><trkpt lat="44.7851959" lon="9.7994284"><ele>299.0</ele><time>2026-04-19T13:32:49.337Z</time></trkpt><trkpt lat="44.7852056" lon="9.7995432"><ele>299.0</ele><time>2026-04-19T13:32:52.321Z</time></trkpt><trkpt lat="44.7851508" lon="9.7996272"><ele>296.5</ele><time>2026-04-19T13:32:56.351Z</time></trkpt><trkpt lat="44.7850982" lon="9.7996838"><ele>294.0</ele><time>2026-04-19T13:32:59.34Z</time></trkpt><trkpt lat="44.7850567" lon="9.7998058"><ele>291.5</ele><time>2026-04-19T13:33:02.331Z</time></trkpt><trkpt lat="44.7850379" lon="9.7999199"><ele>289.0</ele><time>2026-04-19T13:33:05.34Z</time></trkpt><trkpt lat="44.7850499" lon="9.8000271"><ele>286.5</ele><time>2026-04-19T13:33:08.313Z</time></trkpt><trkpt lat="44.7850581" lon="9.8001176"><ele>284.0</ele><time>2026-04-19T13:33:11.341Z</time></trkpt><trkpt lat="44.7850929" lon="9.8002479"><ele>281.2</ele><time>2026-04-19T13:33:14.342Z</time></trkpt><trkpt lat="44.7851497" lon="9.800332"><ele>278.4</ele><time>2026-04-19T13:33:16.329Z</time></trkpt><trkpt lat="44.7852422" lon="9.8004039"><ele>275.6</ele><time>2026-04-19T13:33:18.333Z</time></trkpt><trkpt lat="44.7853226" lon="9.8004796"><ele>272.8</ele><time>2026-04-19T13:33:20.328Z</time></trkpt><trkpt lat="44.7853977" lon="9.8005388"><ele>270.0</ele><time>2026-04-19T13:33:22.349Z</time></trkpt><trkpt lat="44.7854789" lon="9.8005857"><ele>269.8333333333333</ele><time>2026-04-19T13:33:24.333Z</time></trkpt><trkpt lat="44.7855532" lon="9.8005872"><ele>269.6666666666667</ele><time>2026-04-19T13:33:26.346Z</time></trkpt><trkpt lat="44.7856177" lon="9.8005721"><ele>269.5</ele><time>2026-04-19T13:33:28.352Z</time></trkpt><trkpt lat="44.7856985" lon="9.800583"><ele>269.33333333333337</ele><time>2026-04-19T13:33:31.329Z</time></trkpt><trkpt lat="44.7857777" lon="9.8006307"><ele>269.1666666666667</ele><time>2026-04-19T13:33:33.339Z</time></trkpt><trkpt lat="44.7858539" lon="9.8006542"><ele>269.0</ele><time>2026-04-19T13:36:31.353Z</time></trkpt><trkpt lat="44.7859216" lon="9.8006609"><ele>269.0</ele><time>2026-04-19T13:36:33.35Z</time></trkpt><trkpt lat="44.7859933" lon="9.8006955"><ele>269.0</ele><time>2026-04-19T13:36:36.34Z</time></trkpt><trkpt lat="44.7860564" lon="9.8007023"><ele>269.0</ele><time>2026-04-19T13:39:42.337Z</time></trkpt><trkpt lat="44.7861284" lon="9.8006265"><ele>269.0</ele><time>2026-04-19T13:39:45.343Z</time></trkpt><trkpt lat="44.7861696" lon="9.8005328"><ele>269.0</ele><time>2026-04-19T13:39:48.352Z</time></trkpt><trkpt lat="44.7862256" lon="9.8004572"><ele>269.0</ele><time>2026-04-19T13:39:51.34Z</time></trkpt><trkpt lat="44.7863043" lon="9.8003975"><ele>270.2857142857143</ele><time>2026-04-19T13:39:54.342Z</time></trkpt><trkpt lat="44.7863547" lon="9.8002902"><ele>271.5714285714286</ele><time>2026-04-19T13:39:58.345Z</time></trkpt><trkpt lat="44.7864116" lon="9.8002469"><ele>272.8571428571429</ele><time>2026-04-19T13:40:00.344Z</time></trkpt><trkpt lat="44.7864604" lon="9.8001668"><ele>274.14285714285717</ele><time>2026-04-19T13:40:03.351Z</time></trkpt><trkpt lat="44.786456" lon="9.8000566"><ele>275.42857142857144</ele><time>2026-04-19T13:40:06.352Z</time></trkpt><trkpt lat="44.7864626" lon="9.7999627"><ele>276.7142857142857</ele><time>2026-04-19T13:40:09.366Z</time></trkpt><trkpt lat="44.7864875" lon="9.7998812"><ele>278.0</ele><time>2026-04-19T13:40:14.318Z</time></trkpt><trkpt lat="44.7864594" lon="9.7997761"><ele>279.42857142857144</ele><time>2026-04-19T13:40:18.336Z</time></trkpt><trkpt lat="44.7864329" lon="9.7996873"><ele>280.8571428571429</ele><time>2026-04-19T13:40:22.334Z</time></trkpt><trkpt lat="44.7863959" lon="9.7995982"><ele>282.28571428571433</ele><time>2026-04-19T13:40:50.327Z</time></trkpt><trkpt lat="44.7863731" lon="9.7996838"><ele>283.7142857142857</ele><time>2026-04-19T13:41:04.337Z</time></trkpt><trkpt lat="44.7863706" lon="9.7998079"><ele>285.14285714285717</ele><time>2026-04-19T13:41:15.331Z</time></trkpt><trkpt lat="44.7863276" lon="9.7998758"><ele>286.5714285714286</ele><time>2026-04-19T13:41:18.336Z</time></trkpt><trkpt lat="44.7862841" lon="9.7999502"><ele>288.0</ele><time>2026-04-19T13:41:22.331Z</time></trkpt><trkpt lat="44.7862326" lon="9.8000344"><ele>288.0</ele><time>2026-04-19T13:41:30.325Z</time></trkpt><trkpt lat="44.7861863" lon="9.8000979"><ele>288.0</ele><time>2026-04-19T13:41:33.32Z</time></trkpt><trkpt lat="44.7861323" lon="9.8001801"><ele>288.0</ele><time>2026-04-19T13:41:42.343Z</time></trkpt><trkpt lat="44.7860866" lon="9.8002444"><ele>288.0</ele><time>2026-04-19T13:41:44.336Z</time></trkpt><trkpt lat="44.7860174" lon="9.8003515"><ele>288.0</ele><time>2026-04-19T13:41:46.339Z</time></trkpt><trkpt lat="44.7859388" lon="9.8004333"><ele>288.0</ele><time>2026-04-19T13:41:48.337Z</time></trkpt><trkpt lat="44.7858945" lon="9.800513"><ele>286.0</ele><time>2026-04-19T13:41:50.338Z</time></trkpt><trkpt lat="44.7859259" lon="9.8006068"><ele>284.0</ele><time>2026-04-19T13:41:52.322Z</time></trkpt><trkpt lat="44.7860109" lon="9.8006599"><ele>282.0</ele><time>2026-04-19T13:41:54.353Z</time></trkpt><trkpt lat="44.7861081" lon="9.8007326"><ele>280.0</ele><time>2026-04-19T13:41:56.338Z</time></trkpt><trkpt lat="44.7862012" lon="9.8008029"><ele>278.0</ele><time>2026-04-19T13:41:58.346Z</time></trkpt><trkpt lat="44.7863013" lon="9.8009331"><ele>276.2857142857143</ele><time>2026-04-19T13:42:00.331Z</time></trkpt><trkpt lat="44.7863617" lon="9.8010074"><ele>274.57142857142856</ele><time>2026-04-19T13:42:01.343Z</time></trkpt><trkpt lat="44.7864295" lon="9.8010566"><ele>272.8571428571429</ele><time>2026-04-19T13:42:02.323Z</time></trkpt><trkpt lat="44.7864942" lon="9.801111"><ele>271.1428571428571</ele><time>2026-04-19T13:42:03.341Z</time></trkpt><trkpt lat="44.786548" lon="9.8011703"><ele>269.42857142857144</ele><time>2026-04-19T13:42:04.339Z</time></trkpt><trkpt lat="44.7866098" lon="9.8012175"><ele>267.7142857142857</ele><time>2026-04-19T13:42:05.343Z</time></trkpt><trkpt lat="44.7866732" lon="9.8012564"><ele>266.0</ele><time>2026-04-19T13:42:06.34Z</time></trkpt><trkpt lat="44.786749" lon="9.8012926"><ele>266.0</ele><time>2026-04-19T13:42:07.358Z</time></trkpt><trkpt lat="44.786828" lon="9.8013273"><ele>266.0</ele><time>2026-04-19T13:42:08.336Z</time></trkpt><trkpt lat="44.7869175" lon="9.8013531"><ele>266.0</ele><time>2026-04-19T13:42:09.343Z</time></trkpt><trkpt lat="44.7870017" lon="9.8013769"><ele>266.0</ele><time>2026-04-19T13:42:10.34Z</time></trkpt><trkpt lat="44.7870759" lon="9.8014111"><ele>266.0</ele><time>2026-04-19T13:42:11.335Z</time></trkpt><trkpt lat="44.787147" lon="9.8014539"><ele>266.0</ele><time>2026-04-19T13:42:12.349Z</time></trkpt><trkpt lat="44.7872195" lon="9.8014865"><ele>266.42857142857144</ele><time>2026-04-19T13:42:13.349Z</time></trkpt><trkpt lat="44.7872852" lon="9.8014956"><ele>266.8571428571429</ele><time>2026-04-19T13:42:14.358Z</time></trkpt><trkpt lat="44.7873556" lon="9.801511"><ele>267.2857142857143</ele><time>2026-04-19T13:42:15.342Z</time></trkpt><trkpt lat="44.7874241" lon="9.801524"><ele>267.7142857142857</ele><time>2026-04-19T13:42:16.347Z</time></trkpt><trkpt lat="44.7874953" lon="9.8015291"><ele>268.14285714285717</ele><time>2026-04-19T13:42:17.336Z</time></trkpt><trkpt lat="44.7875724" lon="9.8015446"><ele>268.57142857142856</ele><time>2026-04-19T13:42:18.351Z</time></trkpt><trkpt lat="44.7876482" lon="9.801564"><ele>269.0</ele><time>2026-04-19T13:42:19.339Z</time></trkpt><trkpt lat="44.7877299" lon="9.8015661"><ele>269.5</ele><time>2026-04-19T13:42:20.353Z</time></trkpt><trkpt lat="44.787814" lon="9.8015855"><ele>270.0</ele><time>2026-04-19T13:42:21.353Z</time></trkpt><trkpt lat="44.7879023" lon="9.8016081"><ele>270.5</ele><time>2026-04-19T13:42:22.346Z</time></trkpt><trkpt lat="44.7879902" lon="9.8016247"><ele>271.0</ele><time>2026-04-19T13:42:23.324Z</time></trkpt><trkpt lat="44.788074" lon="9.8016366"><ele>271.5</ele><time>2026-04-19T13:42:24.351Z</time></trkpt><trkpt lat="44.7881539" lon="9.8016666"><ele>272.0</ele><time>2026-04-19T13:42:25.359Z</time></trkpt><trkpt lat="44.7882224" lon="9.8016901"><ele>272.0</ele><time>2026-04-19T13:42:26.344Z</time></trkpt><trkpt lat="44.7883385" lon="9.8017306"><ele>272.0</ele><time>2026-04-19T13:42:28.346Z</time></trkpt><trkpt lat="44.7884104" lon="9.8017457"><ele>272.0</ele><time>2026-04-19T13:42:29.353Z</time></trkpt><trkpt lat="44.7884849" lon="9.801768"><ele>272.0</ele><time>2026-04-19T13:42:30.338Z</time></trkpt><trkpt lat="44.788563" lon="9.8017952"><ele>272.0</ele><time>2026-04-19T13:42:31.348Z</time></trkpt><trkpt lat="44.7886319" lon="9.801837"><ele>272.0</ele><time>2026-04-19T13:42:32.328Z</time></trkpt><trkpt lat="44.7887073" lon="9.8018567"><ele>270.33333333333337</ele><time>2026-04-19T13:42:33.342Z</time></trkpt><trkpt lat="44.7887811" lon="9.8018715"><ele>268.6666666666667</ele><time>2026-04-19T13:42:34.355Z</time></trkpt><trkpt lat="44.7888568" lon="9.8018942"><ele>267.0</ele><time>2026-04-19T13:42:35.344Z</time></trkpt><trkpt lat="44.7889333" lon="9.8019099"><ele>265.3333333333333</ele><time>2026-04-19T13:42:36.347Z</time></trkpt><trkpt lat="44.7890089" lon="9.801921"><ele>263.66666666666663</ele><time>2026-04-19T13:42:37.338Z</time></trkpt><trkpt lat="44.7890872" lon="9.801917"><ele>262.0</ele><time>2026-04-19T13:42:38.342Z</time></trkpt><trkpt lat="44.789169" lon="9.8019173"><ele>262.0</ele><time>2026-04-19T13:42:39.356Z</time></trkpt><trkpt lat="44.7892594" lon="9.8019396"><ele>262.0</ele><time>2026-04-19T13:42:40.339Z</time></trkpt><trkpt lat="44.7893442" lon="9.8019743"><ele>262.0</ele><time>2026-04-19T13:42:41.346Z</time></trkpt><trkpt lat="44.7894354" lon="9.802019"><ele>262.0</ele><time>2026-04-19T13:42:42.336Z</time></trkpt><trkpt lat="44.7895265" lon="9.8020631"><ele>262.0</ele><time>2026-04-19T13:42:43.354Z</time></trkpt><trkpt lat="44.7896007" lon="9.8020974"><ele>262.66666666666663</ele><time>2026-04-19T13:42:44.344Z</time></trkpt><trkpt lat="44.7897176" lon="9.8021396"><ele>263.3333333333333</ele><time>2026-04-19T13:42:46.329Z</time></trkpt><trkpt lat="44.7897807" lon="9.8021885"><ele>264.0</ele><time>2026-04-19T13:42:47.353Z</time></trkpt><trkpt lat="44.7898385" lon="9.8022483"><ele>264.6666666666667</ele><time>2026-04-19T13:42:48.33Z</time></trkpt><trkpt lat="44.7898979" lon="9.8023005"><ele>265.33333333333337</ele><time>2026-04-19T13:42:49.346Z</time></trkpt><trkpt lat="44.7900006" lon="9.8023728"><ele>266.0</ele><time>2026-04-19T13:42:51.338Z</time></trkpt><trkpt lat="44.7900833" lon="9.8024687"><ele>266.0</ele><time>2026-04-19T13:42:53.348Z</time></trkpt><trkpt lat="44.7901233" lon="9.8025492"><ele>266.0</ele><time>2026-04-19T13:42:54.354Z</time></trkpt><trkpt lat="44.7901658" lon="9.8026388"><ele>266.0</ele><time>2026-04-19T13:42:55.35Z</time></trkpt><trkpt lat="44.7902112" lon="9.8027366"><ele>266.0</ele><time>2026-04-19T13:42:56.354Z</time></trkpt><trkpt lat="44.7902609" lon="9.8028396"><ele>266.0</ele><time>2026-04-19T13:42:57.36Z</time></trkpt><trkpt lat="44.7903282" lon="9.8029361"><ele>266.0</ele><time>2026-04-19T13:42:58.355Z</time></trkpt><trkpt lat="44.7903966" lon="9.803014"><ele>264.6</ele><time>2026-04-19T13:42:59.339Z</time></trkpt><trkpt lat="44.7904758" lon="9.8030788"><ele>263.20000000000005</ele><time>2026-04-19T13:43:00.355Z</time></trkpt><trkpt lat="44.7905521" lon="9.8031372"><ele>261.79999999999995</ele><time>2026-04-19T13:43:01.355Z</time></trkpt><trkpt lat="44.7906293" lon="9.8031695"><ele>260.4</ele><time>2026-04-19T13:43:02.348Z</time></trkpt><trkpt lat="44.7907491" lon="9.8031854"><ele>259.0</ele><time>2026-04-19T13:43:04.353Z</time></trkpt><trkpt lat="44.7908314" lon="9.8032198"><ele>259.0</ele><time>2026-04-19T13:43:06.353Z</time></trkpt><trkpt lat="44.7909265" lon="9.8033128"><ele>259.0</ele><time>2026-04-19T13:43:08.355Z</time></trkpt><trkpt lat="44.7909991" lon="9.8033582"><ele>259.0</ele><time>2026-04-19T13:43:09.339Z</time></trkpt><trkpt lat="44.7910779" lon="9.8034051"><ele>259.0</ele><time>2026-04-19T13:43:10.351Z</time></trkpt><trkpt lat="44.7911651" lon="9.8034418"><ele>259.0</ele><time>2026-04-19T13:43:11.348Z</time></trkpt><trkpt lat="44.791251" lon="9.8034739"><ele>258.5</ele><time>2026-04-19T13:43:12.346Z</time></trkpt><trkpt lat="44.7913322" lon="9.8035153"><ele>258.0</ele><time>2026-04-19T13:43:13.353Z</time></trkpt><trkpt lat="44.7914067" lon="9.8035677"><ele>257.5</ele><time>2026-04-19T13:43:14.36Z</time></trkpt><trkpt lat="44.7914812" lon="9.80361"><ele>257.0</ele><time>2026-04-19T13:43:15.355Z</time></trkpt><trkpt lat="44.7915662" lon="9.8036463"><ele>256.5</ele><time>2026-04-19T13:43:16.349Z</time></trkpt><trkpt lat="44.7916528" lon="9.8036707"><ele>256.0</ele><time>2026-04-19T13:43:17.36Z</time></trkpt><trkpt lat="44.7917403" lon="9.8037014"><ele>255.99999999999997</ele><time>2026-04-19T13:43:18.36Z</time></trkpt><trkpt lat="44.7918215" lon="9.8037487"><ele>256.0</ele><time>2026-04-19T13:43:19.346Z</time></trkpt><trkpt lat="44.7918962" lon="9.803796"><ele>256.0</ele><time>2026-04-19T13:43:20.351Z</time></trkpt><trkpt lat="44.7919769" lon="9.8038547"><ele>256.0</ele><time>2026-04-19T13:43:21.351Z</time></trkpt><trkpt lat="44.7920584" lon="9.8039076"><ele>255.99999999999997</ele><time>2026-04-19T13:43:22.351Z</time></trkpt><trkpt lat="44.7921427" lon="9.8039677"><ele>256.0</ele><time>2026-04-19T13:43:23.349Z</time></trkpt><trkpt lat="44.7922238" lon="9.8040306"><ele>256.5</ele><time>2026-04-19T13:43:24.346Z</time></trkpt><trkpt lat="44.7923018" lon="9.8040929"><ele>257.0</ele><time>2026-04-19T13:43:25.349Z</time></trkpt><trkpt lat="44.7923801" lon="9.8041567"><ele>257.5</ele><time>2026-04-19T13:43:26.353Z</time></trkpt><trkpt lat="44.7924558" lon="9.8042215"><ele>258.0</ele><time>2026-04-19T13:43:27.357Z</time></trkpt><trkpt lat="44.7925303" lon="9.8042763"><ele>258.5</ele><time>2026-04-19T13:43:28.352Z</time></trkpt><trkpt lat="44.7926021" lon="9.8043183"><ele>259.0</ele><time>2026-04-19T13:43:29.338Z</time></trkpt><trkpt lat="44.7926664" lon="9.8043753"><ele>260.5</ele><time>2026-04-19T13:43:30.353Z</time></trkpt><trkpt lat="44.7927202" lon="9.8044424"><ele>262.0</ele><time>2026-04-19T13:43:31.352Z</time></trkpt><trkpt lat="44.792743" lon="9.8045307"><ele>263.5</ele><time>2026-04-19T13:43:32.353Z</time></trkpt><trkpt lat="44.7927533" lon="9.8046428"><ele>265.0</ele><time>2026-04-19T13:43:33.342Z</time></trkpt><trkpt lat="44.7927666" lon="9.8047482"><ele>266.5</ele><time>2026-04-19T13:43:34.354Z</time></trkpt><trkpt lat="44.7927817" lon="9.8048586"><ele>268.0</ele><time>2026-04-19T13:43:35.357Z</time></trkpt><trkpt lat="44.7927991" lon="9.8049722"><ele>268.0</ele><time>2026-04-19T13:43:36.346Z</time></trkpt><trkpt lat="44.7928183" lon="9.8051"><ele>268.0</ele><time>2026-04-19T13:43:37.351Z</time></trkpt><trkpt lat="44.7928435" lon="9.8052214"><ele>268.0</ele><time>2026-04-19T13:43:38.35Z</time></trkpt><trkpt lat="44.792868" lon="9.8053346"><ele>268.0</ele><time>2026-04-19T13:43:39.352Z</time></trkpt><trkpt lat="44.7929016" lon="9.8054552"><ele>268.0</ele><time>2026-04-19T13:43:40.358Z</time></trkpt><trkpt lat="44.7929223" lon="9.8055686"><ele>268.0</ele><time>2026-04-19T13:43:41.36Z</time></trkpt><trkpt lat="44.7929455" lon="9.8056643"><ele>267.3333333333333</ele><time>2026-04-19T13:43:42.363Z</time></trkpt><trkpt lat="44.7929624" lon="9.8057692"><ele>266.66666666666663</ele><time>2026-04-19T13:43:43.357Z</time></trkpt><trkpt lat="44.7929847" lon="9.8058676"><ele>266.0</ele><time>2026-04-19T13:43:44.363Z</time></trkpt><trkpt lat="44.793009" lon="9.8059664"><ele>265.3333333333333</ele><time>2026-04-19T13:43:45.36Z</time></trkpt><trkpt lat="44.7930435" lon="9.8060761"><ele>264.6666666666667</ele><time>2026-04-19T13:43:46.337Z</time></trkpt><trkpt lat="44.7930831" lon="9.8061858"><ele>264.0</ele><time>2026-04-19T13:43:47.338Z</time></trkpt><trkpt lat="44.7931205" lon="9.8062951"><ele>263.6666666666667</ele><time>2026-04-19T13:43:48.354Z</time></trkpt><trkpt lat="44.7931629" lon="9.8063954"><ele>263.3333333333333</ele><time>2026-04-19T13:43:49.351Z</time></trkpt><trkpt lat="44.7931985" lon="9.8064843"><ele>263.0</ele><time>2026-04-19T13:43:50.362Z</time></trkpt><trkpt lat="44.7932272" lon="9.8065718"><ele>262.66666666666663</ele><time>2026-04-19T13:43:51.338Z</time></trkpt><trkpt lat="44.7932491" lon="9.806657"><ele>262.3333333333333</ele><time>2026-04-19T13:43:52.346Z</time></trkpt><trkpt lat="44.7932649" lon="9.8068223"><ele>262.0</ele><time>2026-04-19T13:43:54.34Z</time></trkpt><trkpt lat="44.7932931" lon="9.8069057"><ele>260.8333333333333</ele><time>2026-04-19T13:43:55.354Z</time></trkpt><trkpt lat="44.7933369" lon="9.806982"><ele>259.66666666666663</ele><time>2026-04-19T13:43:56.349Z</time></trkpt><trkpt lat="44.7933968" lon="9.8070585"><ele>258.5</ele><time>2026-04-19T13:43:57.352Z</time></trkpt><trkpt lat="44.7934596" lon="9.807128"><ele>257.3333333333333</ele><time>2026-04-19T13:43:58.357Z</time></trkpt><trkpt lat="44.7935152" lon="9.8071895"><ele>256.1666666666667</ele><time>2026-04-19T13:43:59.343Z</time></trkpt><trkpt lat="44.7935888" lon="9.8072316"><ele>255.0</ele><time>2026-04-19T13:44:00.345Z</time></trkpt><trkpt lat="44.7936681" lon="9.8072704"><ele>255.0</ele><time>2026-04-19T13:44:01.331Z</time></trkpt><trkpt lat="44.793751" lon="9.8072879"><ele>255.0</ele><time>2026-04-19T13:44:02.354Z</time></trkpt><trkpt lat="44.793825" lon="9.8073002"><ele>255.0</ele><time>2026-04-19T13:44:03.34Z</time></trkpt><trkpt lat="44.7938893" lon="9.8073357"><ele>255.0</ele><time>2026-04-19T13:44:04.352Z</time></trkpt><trkpt lat="44.793943" lon="9.8073829"><ele>255.0</ele><time>2026-04-19T13:44:05.35Z</time></trkpt><trkpt lat="44.7940082" lon="9.8074907"><ele>255.0</ele><time>2026-04-19T13:44:07.357Z</time></trkpt><trkpt lat="44.7940032" lon="9.8076174"><ele>254.4</ele><time>2026-04-19T13:44:09.358Z</time></trkpt><trkpt lat="44.7939816" lon="9.807747"><ele>253.8</ele><time>2026-04-19T13:44:11.352Z</time></trkpt><trkpt lat="44.7939961" lon="9.807877"><ele>253.2</ele><time>2026-04-19T13:44:13.334Z</time></trkpt><trkpt lat="44.7940927" lon="9.8080091"><ele>252.6</ele><time>2026-04-19T13:44:15.351Z</time></trkpt><trkpt lat="44.7941573" lon="9.8080727"><ele>252.0</ele><time>2026-04-19T13:44:16.352Z</time></trkpt><trkpt lat="44.7942253" lon="9.8081451"><ele>252.0</ele><time>2026-04-19T13:44:17.354Z</time></trkpt><trkpt lat="44.7943022" lon="9.8082153"><ele>252.0</ele><time>2026-04-19T13:44:18.358Z</time></trkpt><trkpt lat="44.7943796" lon="9.8082878"><ele>252.0</ele><time>2026-04-19T13:44:19.349Z</time></trkpt><trkpt lat="44.7944551" lon="9.8083634"><ele>252.0</ele><time>2026-04-19T13:44:20.371Z</time></trkpt><trkpt lat="44.7945328" lon="9.8084383"><ele>252.0</ele><time>2026-04-19T13:44:21.35Z</time></trkpt><trkpt lat="44.7945984" lon="9.8085022"><ele>251.66666666666666</ele><time>2026-04-19T13:44:22.361Z</time></trkpt><trkpt lat="44.7946695" lon="9.808562"><ele>251.33333333333331</ele><time>2026-04-19T13:44:23.36Z</time></trkpt><trkpt lat="44.7947378" lon="9.8086181"><ele>251.0</ele><time>2026-04-19T13:44:24.344Z</time></trkpt><trkpt lat="44.7948048" lon="9.8086826"><ele>250.66666666666666</ele><time>2026-04-19T13:44:25.354Z</time></trkpt><trkpt lat="44.7948729" lon="9.8087506"><ele>250.33333333333331</ele><time>2026-04-19T13:44:26.351Z</time></trkpt><trkpt lat="44.794959" lon="9.8088079"><ele>250.0</ele><time>2026-04-19T13:44:27.313Z</time></trkpt><trkpt lat="44.795038" lon="9.8088716"><ele>249.99999999999997</ele><time>2026-04-19T13:44:28.304Z</time></trkpt><trkpt lat="44.7951135" lon="9.8089301"><ele>250.0</ele><time>2026-04-19T13:44:29.321Z</time></trkpt><trkpt lat="44.795191" lon="9.8089892"><ele>250.0</ele><time>2026-04-19T13:44:30.352Z</time></trkpt><trkpt lat="44.7952733" lon="9.8090339"><ele>250.0</ele><time>2026-04-19T13:44:31.35Z</time></trkpt><trkpt lat="44.7953525" lon="9.8090937"><ele>249.99999999999997</ele><time>2026-04-19T13:44:32.337Z</time></trkpt><trkpt lat="44.795433" lon="9.8091597"><ele>250.0</ele><time>2026-04-19T13:44:33.352Z</time></trkpt><trkpt lat="44.7955087" lon="9.8092404"><ele>249.83333333333331</ele><time>2026-04-19T13:44:34.348Z</time></trkpt><trkpt lat="44.7955834" lon="9.8093145"><ele>249.66666666666666</ele><time>2026-04-19T13:44:35.347Z</time></trkpt><trkpt lat="44.7956499" lon="9.8093788"><ele>249.5</ele><time>2026-04-19T13:44:36.346Z</time></trkpt><trkpt lat="44.7957194" lon="9.809451"><ele>249.33333333333331</ele><time>2026-04-19T13:44:37.331Z</time></trkpt><trkpt lat="44.7957868" lon="9.8095278"><ele>249.16666666666666</ele><time>2026-04-19T13:44:38.363Z</time></trkpt><trkpt lat="44.7958497" lon="9.8096061"><ele>249.0</ele><time>2026-04-19T13:44:39.362Z</time></trkpt><trkpt lat="44.7959172" lon="9.8096782"><ele>249.0</ele><time>2026-04-19T13:44:40.35Z</time></trkpt><trkpt lat="44.7959961" lon="9.8097549"><ele>248.99999999999997</ele><time>2026-04-19T13:44:41.345Z</time></trkpt><trkpt lat="44.7960734" lon="9.8098375"><ele>248.99999999999997</ele><time>2026-04-19T13:44:42.349Z</time></trkpt><trkpt lat="44.7961545" lon="9.8099226"><ele>249.0</ele><time>2026-04-19T13:44:43.354Z</time></trkpt><trkpt lat="44.7962348" lon="9.8100049"><ele>249.0</ele><time>2026-04-19T13:44:44.354Z</time></trkpt><trkpt lat="44.796312" lon="9.8100812"><ele>249.0</ele><time>2026-04-19T13:44:45.348Z</time></trkpt><trkpt lat="44.7963937" lon="9.8101562"><ele>248.99999999999997</ele><time>2026-04-19T13:44:46.344Z</time></trkpt><trkpt lat="44.7964688" lon="9.810226"><ele>248.99999999999997</ele><time>2026-04-19T13:44:47.346Z</time></trkpt><trkpt lat="44.7965462" lon="9.8103044"><ele>249.0</ele><time>2026-04-19T13:44:48.345Z</time></trkpt><trkpt lat="44.7966197" lon="9.8103823"><ele>249.0</ele><time>2026-04-19T13:44:49.35Z</time></trkpt><trkpt lat="44.7966919" lon="9.8104602"><ele>248.6</ele><time>2026-04-19T13:44:50.342Z</time></trkpt><trkpt lat="44.7967688" lon="9.8105327"><ele>248.2</ele><time>2026-04-19T13:44:51.344Z</time></trkpt><trkpt lat="44.7968504" lon="9.8105991"><ele>247.79999999999998</ele><time>2026-04-19T13:44:52.345Z</time></trkpt><trkpt lat="44.7969303" lon="9.8106525"><ele>247.39999999999998</ele><time>2026-04-19T13:44:53.342Z</time></trkpt><trkpt lat="44.7970096" lon="9.8107044"><ele>247.0</ele><time>2026-04-19T13:44:54.335Z</time></trkpt><trkpt lat="44.7970918" lon="9.8107562"><ele>246.66666666666666</ele><time>2026-04-19T13:44:55.342Z</time></trkpt><trkpt lat="44.797166" lon="9.810813"><ele>246.33333333333331</ele><time>2026-04-19T13:44:56.349Z</time></trkpt><trkpt lat="44.7972343" lon="9.8108821"><ele>246.0</ele><time>2026-04-19T13:44:57.383Z</time></trkpt><trkpt lat="44.7973032" lon="9.8109566"><ele>245.66666666666669</ele><time>2026-04-19T13:44:58.353Z</time></trkpt><trkpt lat="44.797354" lon="9.8110449"><ele>245.33333333333334</ele><time>2026-04-19T13:44:59.342Z</time></trkpt><trkpt lat="44.7974014" lon="9.8111374"><ele>245.0</ele><time>2026-04-19T13:45:00.344Z</time></trkpt><trkpt lat="44.7974611" lon="9.8112182"><ele>245.0</ele><time>2026-04-19T13:45:01.333Z</time></trkpt><trkpt lat="44.7975334" lon="9.8112985"><ele>245.0</ele><time>2026-04-19T13:45:02.335Z</time></trkpt><trkpt lat="44.7976179" lon="9.8113662"><ele>245.0</ele><time>2026-04-19T13:45:03.346Z</time></trkpt><trkpt lat="44.797708" lon="9.8114302"><ele>245.0</ele><time>2026-04-19T13:45:04.352Z</time></trkpt><trkpt lat="44.7977988" lon="9.8114881"><ele>245.0</ele><time>2026-04-19T13:45:05.353Z</time></trkpt><trkpt lat="44.7978907" lon="9.8115553"><ele>245.4</ele><time>2026-04-19T13:45:06.349Z</time></trkpt><trkpt lat="44.797988" lon="9.8116193"><ele>245.8</ele><time>2026-04-19T13:45:07.348Z</time></trkpt><trkpt lat="44.7980813" lon="9.8116817"><ele>246.2</ele><time>2026-04-19T13:45:08.353Z</time></trkpt><trkpt lat="44.7981678" lon="9.8117418"><ele>246.6</ele><time>2026-04-19T13:45:09.338Z</time></trkpt><trkpt lat="44.7982447" lon="9.8118049"><ele>247.0</ele><time>2026-04-19T13:45:10.344Z</time></trkpt><trkpt lat="44.7983224" lon="9.8118764"><ele>246.33333333333331</ele><time>2026-04-19T13:45:11.352Z</time></trkpt><trkpt lat="44.7983962" lon="9.8119413"><ele>245.66666666666666</ele><time>2026-04-19T13:45:12.347Z</time></trkpt><trkpt lat="44.798467" lon="9.812005"><ele>245.0</ele><time>2026-04-19T13:45:13.355Z</time></trkpt><trkpt lat="44.7985376" lon="9.8120577"><ele>244.33333333333331</ele><time>2026-04-19T13:45:14.344Z</time></trkpt><trkpt lat="44.798619" lon="9.8121119"><ele>243.66666666666666</ele><time>2026-04-19T13:45:15.351Z</time></trkpt><trkpt lat="44.7987003" lon="9.8121537"><ele>243.0</ele><time>2026-04-19T13:45:16.346Z</time></trkpt><trkpt lat="44.7987868" lon="9.8121884"><ele>242.60000000000002</ele><time>2026-04-19T13:45:17.352Z</time></trkpt><trkpt lat="44.7988922" lon="9.8122146"><ele>242.20000000000002</ele><time>2026-04-19T13:45:18.349Z</time></trkpt><trkpt lat="44.7989919" lon="9.8122472"><ele>241.8</ele><time>2026-04-19T13:45:19.353Z</time></trkpt><trkpt lat="44.7990921" lon="9.8122937"><ele>241.4</ele><time>2026-04-19T13:45:20.342Z</time></trkpt><trkpt lat="44.799191" lon="9.8123387"><ele>241.0</ele><time>2026-04-19T13:45:21.348Z</time></trkpt><trkpt lat="44.7992868" lon="9.8123882"><ele>242.0</ele><time>2026-04-19T13:45:22.347Z</time></trkpt><trkpt lat="44.7993788" lon="9.8124351"><ele>243.00000000000003</ele><time>2026-04-19T13:45:23.368Z</time></trkpt><trkpt lat="44.7994713" lon="9.8124811"><ele>244.00000000000003</ele><time>2026-04-19T13:45:24.347Z</time></trkpt><trkpt lat="44.7995576" lon="9.81253"><ele>245.0</ele><time>2026-04-19T13:45:25.346Z</time></trkpt><trkpt lat="44.7996405" lon="9.8125866"><ele>246.0</ele><time>2026-04-19T13:45:26.353Z</time></trkpt><trkpt lat="44.7997208" lon="9.8126508"><ele>245.16666666666666</ele><time>2026-04-19T13:45:27.352Z</time></trkpt><trkpt lat="44.7997897" lon="9.8127117"><ele>244.33333333333331</ele><time>2026-04-19T13:45:28.362Z</time></trkpt><trkpt lat="44.7998545" lon="9.8127827"><ele>243.5</ele><time>2026-04-19T13:45:29.355Z</time></trkpt><trkpt lat="44.7999269" lon="9.8128608"><ele>242.66666666666666</ele><time>2026-04-19T13:45:30.364Z</time></trkpt><trkpt lat="44.7999973" lon="9.8129296"><ele>241.83333333333331</ele><time>2026-04-19T13:45:31.365Z</time></trkpt><trkpt lat="44.8000763" lon="9.8129893"><ele>241.0</ele><time>2026-04-19T13:45:32.358Z</time></trkpt><trkpt lat="44.8001579" lon="9.8130478"><ele>240.83333333333331</ele><time>2026-04-19T13:45:33.361Z</time></trkpt><trkpt lat="44.800231" lon="9.8131071"><ele>240.66666666666666</ele><time>2026-04-19T13:45:34.356Z</time></trkpt><trkpt lat="44.8003047" lon="9.8131827"><ele>240.5</ele><time>2026-04-19T13:45:35.355Z</time></trkpt><trkpt lat="44.8003723" lon="9.8132649"><ele>240.33333333333331</ele><time>2026-04-19T13:45:36.345Z</time></trkpt><trkpt lat="44.8004367" lon="9.8133538"><ele>240.16666666666666</ele><time>2026-04-19T13:45:37.328Z</time></trkpt><trkpt lat="44.8005089" lon="9.8134384"><ele>240.0</ele><time>2026-04-19T13:45:38.355Z</time></trkpt><trkpt lat="44.8005866" lon="9.8135218"><ele>240.0</ele><time>2026-04-19T13:45:39.331Z</time></trkpt><trkpt lat="44.8006678" lon="9.8135976"><ele>240.0</ele><time>2026-04-19T13:45:40.341Z</time></trkpt><trkpt lat="44.8007482" lon="9.813674"><ele>240.0</ele><time>2026-04-19T13:45:41.352Z</time></trkpt><trkpt lat="44.8008344" lon="9.8137449"><ele>240.0</ele><time>2026-04-19T13:45:42.343Z</time></trkpt><trkpt lat="44.8009277" lon="9.8138057"><ele>240.0</ele><time>2026-04-19T13:45:43.344Z</time></trkpt><trkpt lat="44.8010161" lon="9.8138703"><ele>239.6</ele><time>2026-04-19T13:45:44.354Z</time></trkpt><trkpt lat="44.8011068" lon="9.8139298"><ele>239.2</ele><time>2026-04-19T13:45:45.353Z</time></trkpt><trkpt lat="44.8011981" lon="9.8139887"><ele>238.8</ele><time>2026-04-19T13:45:46.348Z</time></trkpt><trkpt lat="44.8012864" lon="9.8140408"><ele>238.4</ele><time>2026-04-19T13:45:47.34Z</time></trkpt><trkpt lat="44.8013745" lon="9.8140943"><ele>238.0</ele><time>2026-04-19T13:45:48.339Z</time></trkpt><trkpt lat="44.8014659" lon="9.814145"><ele>237.99999999999997</ele><time>2026-04-19T13:45:49.341Z</time></trkpt><trkpt lat="44.801553" lon="9.8142099"><ele>238.0</ele><time>2026-04-19T13:45:50.352Z</time></trkpt><trkpt lat="44.801627" lon="9.8142703"><ele>238.0</ele><time>2026-04-19T13:45:51.356Z</time></trkpt><trkpt lat="44.8017058" lon="9.8143303"><ele>238.0</ele><time>2026-04-19T13:45:52.347Z</time></trkpt><trkpt lat="44.8017852" lon="9.8143717"><ele>237.99999999999997</ele><time>2026-04-19T13:45:53.343Z</time></trkpt><trkpt lat="44.8018651" lon="9.8144048"><ele>238.0</ele><time>2026-04-19T13:45:54.358Z</time></trkpt><trkpt lat="44.8019505" lon="9.8144475"><ele>237.66666666666666</ele><time>2026-04-19T13:45:55.355Z</time></trkpt><trkpt lat="44.8020418" lon="9.8144845"><ele>237.33333333333331</ele><time>2026-04-19T13:45:56.364Z</time></trkpt><trkpt lat="44.802128" lon="9.8145112"><ele>237.0</ele><time>2026-04-19T13:45:57.318Z</time></trkpt><trkpt lat="44.8022113" lon="9.8145438"><ele>236.66666666666669</ele><time>2026-04-19T13:45:58.334Z</time></trkpt><trkpt lat="44.8022913" lon="9.8145643"><ele>236.33333333333334</ele><time>2026-04-19T13:45:59.352Z</time></trkpt><trkpt lat="44.8023712" lon="9.8146003"><ele>236.0</ele><time>2026-04-19T13:46:00.348Z</time></trkpt><trkpt lat="44.8024573" lon="9.8146522"><ele>236.00000000000003</ele><time>2026-04-19T13:46:01.35Z</time></trkpt><trkpt lat="44.8025395" lon="9.8147016"><ele>236.0</ele><time>2026-04-19T13:46:02.358Z</time></trkpt><trkpt lat="44.8026151" lon="9.8147473"><ele>236.0</ele><time>2026-04-19T13:46:03.359Z</time></trkpt><trkpt lat="44.8026966" lon="9.8147828"><ele>236.0</ele><time>2026-04-19T13:46:04.346Z</time></trkpt><trkpt lat="44.8027808" lon="9.8148162"><ele>236.00000000000003</ele><time>2026-04-19T13:46:05.369Z</time></trkpt><trkpt lat="44.8028617" lon="9.8148409"><ele>236.0</ele><time>2026-04-19T13:46:06.366Z</time></trkpt><trkpt lat="44.8029397" lon="9.8148511"><ele>236.00000000000003</ele><time>2026-04-19T13:46:07.37Z</time></trkpt><trkpt lat="44.8030188" lon="9.8148747"><ele>236.0</ele><time>2026-04-19T13:46:08.362Z</time></trkpt><trkpt lat="44.8030956" lon="9.8148969"><ele>236.0</ele><time>2026-04-19T13:46:09.353Z</time></trkpt><trkpt lat="44.8031739" lon="9.8149191"><ele>236.0</ele><time>2026-04-19T13:46:10.35Z</time></trkpt><trkpt lat="44.8032454" lon="9.8149406"><ele>236.00000000000003</ele><time>2026-04-19T13:46:11.352Z</time></trkpt><trkpt lat="44.8033115" lon="9.814976"><ele>236.0</ele><time>2026-04-19T13:46:12.348Z</time></trkpt><trkpt lat="44.8033986" lon="9.8151006"><ele>236.0</ele><time>2026-04-19T13:46:14.334Z</time></trkpt><trkpt lat="44.803442" lon="9.815256"><ele>236.0</ele><time>2026-04-19T13:46:16.344Z</time></trkpt><trkpt lat="44.8034617" lon="9.8154155"><ele>236.0</ele><time>2026-04-19T13:46:18.347Z</time></trkpt><trkpt lat="44.8035326" lon="9.8155423"><ele>236.0</ele><time>2026-04-19T13:46:20.352Z</time></trkpt><trkpt lat="44.8036457" lon="9.8156356"><ele>236.0</ele><time>2026-04-19T13:46:22.358Z</time></trkpt><trkpt lat="44.8037015" lon="9.8156775"><ele>236.00000000000003</ele><time>2026-04-19T13:46:23.342Z</time></trkpt><trkpt lat="44.8038132" lon="9.8157432"><ele>236.00000000000003</ele><time>2026-04-19T13:46:25.349Z</time></trkpt><trkpt lat="44.8039112" lon="9.8158189"><ele>236.0</ele><time>2026-04-19T13:46:27.357Z</time></trkpt><trkpt lat="44.8039778" lon="9.8159168"><ele>236.0</ele><time>2026-04-19T13:46:29.359Z</time></trkpt><trkpt lat="44.8040172" lon="9.8160486"><ele>236.0</ele><time>2026-04-19T13:46:31.359Z</time></trkpt><trkpt lat="44.8040897" lon="9.8161411"><ele>236.00000000000003</ele><time>2026-04-19T13:46:33.348Z</time></trkpt><trkpt lat="44.8041767" lon="9.8161871"><ele>236.00000000000003</ele><time>2026-04-19T13:46:35.34Z</time></trkpt><trkpt lat="44.804294" lon="9.8161316"><ele>236.0</ele><time>2026-04-19T13:46:37.357Z</time></trkpt><trkpt lat="44.804387" lon="9.8160642"><ele>236.0</ele><time>2026-04-19T13:46:39.351Z</time></trkpt><trkpt lat="44.8044712" lon="9.8160908"><ele>236.00000000000003</ele><time>2026-04-19T13:46:41.345Z</time></trkpt><trkpt lat="44.8045226" lon="9.8161542"><ele>236.0</ele><time>2026-04-19T13:46:42.346Z</time></trkpt><trkpt lat="44.8045867" lon="9.8162311"><ele>236.0</ele><time>2026-04-19T13:46:43.346Z</time></trkpt><trkpt lat="44.8046452" lon="9.816298"><ele>236.0</ele><time>2026-04-19T13:46:44.356Z</time></trkpt><trkpt lat="44.8046944" lon="9.8163629"><ele>236.00000000000003</ele><time>2026-04-19T13:46:45.364Z</time></trkpt><trkpt lat="44.8047735" lon="9.8164809"><ele>236.0</ele><time>2026-04-19T13:46:47.349Z</time></trkpt><trkpt lat="44.804858" lon="9.8166081"><ele>236.0</ele><time>2026-04-19T13:46:49.364Z</time></trkpt><trkpt lat="44.8049011" lon="9.8166738"><ele>236.0</ele><time>2026-04-19T13:46:50.35Z</time></trkpt><trkpt lat="44.8049501" lon="9.8167391"><ele>236.0</ele><time>2026-04-19T13:46:51.352Z</time></trkpt><trkpt lat="44.8050027" lon="9.816804"><ele>236.0</ele><time>2026-04-19T13:46:52.354Z</time></trkpt><trkpt lat="44.8050609" lon="9.8168699"><ele>236.0</ele><time>2026-04-19T13:46:53.361Z</time></trkpt><trkpt lat="44.8051285" lon="9.8169383"><ele>236.0</ele><time>2026-04-19T13:46:54.303Z</time></trkpt><trkpt lat="44.8052021" lon="9.8170072"><ele>236.0</ele><time>2026-04-19T13:46:55.309Z</time></trkpt><trkpt lat="44.8052856" lon="9.8170716"><ele>234.8</ele><time>2026-04-19T13:46:56.31Z</time></trkpt><trkpt lat="44.805362" lon="9.8171218"><ele>233.60000000000002</ele><time>2026-04-19T13:46:57.312Z</time></trkpt><trkpt lat="44.8054462" lon="9.8171681"><ele>232.4</ele><time>2026-04-19T13:46:58.302Z</time></trkpt><trkpt lat="44.805533" lon="9.8172122"><ele>231.2</ele><time>2026-04-19T13:46:59.301Z</time></trkpt><trkpt lat="44.8056241" lon="9.8172507"><ele>230.0</ele><time>2026-04-19T13:47:00.302Z</time></trkpt><trkpt lat="44.8057211" lon="9.8172924"><ele>230.0</ele><time>2026-04-19T13:47:01.317Z</time></trkpt><trkpt lat="44.805814" lon="9.8173347"><ele>230.0</ele><time>2026-04-19T13:47:02.308Z</time></trkpt><trkpt lat="44.8059057" lon="9.8173851"><ele>230.0</ele><time>2026-04-19T13:47:03.299Z</time></trkpt><trkpt lat="44.8059969" lon="9.817424"><ele>230.0</ele><time>2026-04-19T13:47:04.302Z</time></trkpt><trkpt lat="44.8060861" lon="9.81746"><ele>230.0</ele><time>2026-04-19T13:47:05.306Z</time></trkpt><trkpt lat="44.8061762" lon="9.8175002"><ele>230.4</ele><time>2026-04-19T13:47:06.309Z</time></trkpt><trkpt lat="44.8062593" lon="9.8175488"><ele>230.8</ele><time>2026-04-19T13:47:07.316Z</time></trkpt><trkpt lat="44.8063435" lon="9.817598"><ele>231.2</ele><time>2026-04-19T13:47:08.304Z</time></trkpt><trkpt lat="44.8064248" lon="9.8176435"><ele>231.6</ele><time>2026-04-19T13:47:09.307Z</time></trkpt><trkpt lat="44.8065101" lon="9.8176828"><ele>232.0</ele><time>2026-04-19T13:47:10.31Z</time></trkpt><trkpt lat="44.8065979" lon="9.8177362"><ele>231.33333333333331</ele><time>2026-04-19T13:47:11.307Z</time></trkpt><trkpt lat="44.8066787" lon="9.8177766"><ele>230.66666666666666</ele><time>2026-04-19T13:47:12.307Z</time></trkpt><trkpt lat="44.8067547" lon="9.8178144"><ele>230.0</ele><time>2026-04-19T13:47:13.312Z</time></trkpt><trkpt lat="44.8068281" lon="9.8178533"><ele>229.33333333333331</ele><time>2026-04-19T13:47:14.311Z</time></trkpt><trkpt lat="44.8068935" lon="9.8178827"><ele>228.66666666666666</ele><time>2026-04-19T13:47:15.308Z</time></trkpt><trkpt lat="44.8069595" lon="9.8179085"><ele>228.0</ele><time>2026-04-19T13:47:16.311Z</time></trkpt><trkpt lat="44.8070648" lon="9.8179438"><ele>228.0</ele><time>2026-04-19T13:47:18.327Z</time></trkpt><trkpt lat="44.8071474" lon="9.8180431"><ele>228.0</ele><time>2026-04-19T13:47:20.348Z</time></trkpt><trkpt lat="44.8072074" lon="9.8181926"><ele>228.0</ele><time>2026-04-19T13:47:22.338Z</time></trkpt><trkpt lat="44.8072335" lon="9.8182735"><ele>228.0</ele><time>2026-04-19T13:47:23.336Z</time></trkpt><trkpt lat="44.8072768" lon="9.8183446"><ele>228.0</ele><time>2026-04-19T13:47:24.344Z</time></trkpt><trkpt lat="44.8073222" lon="9.8184277"><ele>228.0</ele><time>2026-04-19T13:47:25.345Z</time></trkpt><trkpt lat="44.807372" lon="9.8184862"><ele>227.5</ele><time>2026-04-19T13:47:26.36Z</time></trkpt><trkpt lat="44.807425" lon="9.8185343"><ele>227.0</ele><time>2026-04-19T13:47:27.348Z</time></trkpt><trkpt lat="44.8074911" lon="9.8185751"><ele>226.5</ele><time>2026-04-19T13:47:28.356Z</time></trkpt><trkpt lat="44.8075635" lon="9.8186074"><ele>226.0</ele><time>2026-04-19T13:47:29.372Z</time></trkpt><trkpt lat="44.8076416" lon="9.8186419"><ele>225.5</ele><time>2026-04-19T13:47:30.353Z</time></trkpt><trkpt lat="44.8077212" lon="9.8186661"><ele>225.0</ele><time>2026-04-19T13:47:31.358Z</time></trkpt><trkpt lat="44.8078043" lon="9.8187024"><ele>225.0</ele><time>2026-04-19T13:47:32.367Z</time></trkpt><trkpt lat="44.807878" lon="9.8187339"><ele>225.0</ele><time>2026-04-19T13:47:33.368Z</time></trkpt><trkpt lat="44.8079555" lon="9.8187607"><ele>225.0</ele><time>2026-04-19T13:47:34.343Z</time></trkpt><trkpt lat="44.8080325" lon="9.8187754"><ele>225.0</ele><time>2026-04-19T13:47:35.342Z</time></trkpt><trkpt lat="44.808113" lon="9.8187909"><ele>225.0</ele><time>2026-04-19T13:47:36.349Z</time></trkpt><trkpt lat="44.8081931" lon="9.8188042"><ele>225.0</ele><time>2026-04-19T13:47:37.307Z</time></trkpt><trkpt lat="44.8082673" lon="9.8188092"><ele>225.0</ele><time>2026-04-19T13:47:38.35Z</time></trkpt><trkpt lat="44.808349" lon="9.8188075"><ele>225.0</ele><time>2026-04-19T13:47:39.35Z</time></trkpt><trkpt lat="44.8084303" lon="9.8188049"><ele>225.0</ele><time>2026-04-19T13:47:40.358Z</time></trkpt><trkpt lat="44.8085136" lon="9.8188073"><ele>225.0</ele><time>2026-04-19T13:47:41.355Z</time></trkpt><trkpt lat="44.8085996" lon="9.818812"><ele>225.0</ele><time>2026-04-19T13:47:42.37Z</time></trkpt><trkpt lat="44.8086834" lon="9.8188131"><ele>225.0</ele><time>2026-04-19T13:47:43.364Z</time></trkpt><trkpt lat="44.8087545" lon="9.8188187"><ele>225.16666666666666</ele><time>2026-04-19T13:47:44.371Z</time></trkpt><trkpt lat="44.8088301" lon="9.8188336"><ele>225.33333333333331</ele><time>2026-04-19T13:47:45.363Z</time></trkpt><trkpt lat="44.8088973" lon="9.8188472"><ele>225.5</ele><time>2026-04-19T13:47:46.358Z</time></trkpt><trkpt lat="44.8089706" lon="9.8188671"><ele>225.66666666666666</ele><time>2026-04-19T13:47:47.355Z</time></trkpt><trkpt lat="44.8090438" lon="9.8188923"><ele>225.83333333333331</ele><time>2026-04-19T13:47:48.36Z</time></trkpt><trkpt lat="44.8091193" lon="9.8189158"><ele>226.0</ele><time>2026-04-19T13:47:49.346Z</time></trkpt><trkpt lat="44.8091955" lon="9.8189601"><ele>225.99999999999997</ele><time>2026-04-19T13:47:50.364Z</time></trkpt><trkpt lat="44.8092746" lon="9.8190086"><ele>226.0</ele><time>2026-04-19T13:47:51.35Z</time></trkpt><trkpt lat="44.8093503" lon="9.8190558"><ele>226.0</ele><time>2026-04-19T13:47:52.345Z</time></trkpt><trkpt lat="44.8094213" lon="9.819096"><ele>226.0</ele><time>2026-04-19T13:47:53.351Z</time></trkpt><trkpt lat="44.8094884" lon="9.8191348"><ele>225.99999999999997</ele><time>2026-04-19T13:47:54.348Z</time></trkpt><trkpt lat="44.8095521" lon="9.8191712"><ele>226.0</ele><time>2026-04-19T13:47:55.358Z</time></trkpt><trkpt lat="44.8096192" lon="9.8192052"><ele>225.83333333333331</ele><time>2026-04-19T13:47:56.359Z</time></trkpt><trkpt lat="44.8097041" lon="9.8192303"><ele>225.66666666666666</ele><time>2026-04-19T13:47:57.359Z</time></trkpt><trkpt lat="44.8097867" lon="9.8192729"><ele>225.5</ele><time>2026-04-19T13:47:58.36Z</time></trkpt><trkpt lat="44.8098675" lon="9.8193023"><ele>225.33333333333331</ele><time>2026-04-19T13:47:59.347Z</time></trkpt><trkpt lat="44.8099497" lon="9.8193327"><ele>225.16666666666666</ele><time>2026-04-19T13:48:00.362Z</time></trkpt><trkpt lat="44.810031" lon="9.8193587"><ele>225.0</ele><time>2026-04-19T13:48:01.372Z</time></trkpt><trkpt lat="44.8101198" lon="9.8193928"><ele>224.66666666666666</ele><time>2026-04-19T13:48:02.356Z</time></trkpt><trkpt lat="44.810194" lon="9.8194228"><ele>224.33333333333331</ele><time>2026-04-19T13:48:03.328Z</time></trkpt><trkpt lat="44.8102728" lon="9.8194571"><ele>224.0</ele><time>2026-04-19T13:48:04.341Z</time></trkpt><trkpt lat="44.8103499" lon="9.8194909"><ele>223.66666666666666</ele><time>2026-04-19T13:48:05.365Z</time></trkpt><trkpt lat="44.8104252" lon="9.8195235"><ele>223.33333333333331</ele><time>2026-04-19T13:48:06.362Z</time></trkpt><trkpt lat="44.8104991" lon="9.8195695"><ele>223.0</ele><time>2026-04-19T13:48:07.352Z</time></trkpt><trkpt lat="44.8105684" lon="9.8196082"><ele>223.0</ele><time>2026-04-19T13:48:08.347Z</time></trkpt><trkpt lat="44.8106307" lon="9.8196509"><ele>223.0</ele><time>2026-04-19T13:48:09.369Z</time></trkpt><trkpt lat="44.8106901" lon="9.8196924"><ele>223.0</ele><time>2026-04-19T13:48:10.371Z</time></trkpt><trkpt lat="44.810748" lon="9.8197404"><ele>223.0</ele><time>2026-04-19T13:48:11.325Z</time></trkpt><trkpt lat="44.8108036" lon="9.8197941"><ele>223.0</ele><time>2026-04-19T13:48:12.366Z</time></trkpt><trkpt lat="44.8108602" lon="9.8198423"><ele>223.0</ele><time>2026-04-19T13:48:13.358Z</time></trkpt><trkpt lat="44.8109163" lon="9.8198899"><ele>223.0</ele><time>2026-04-19T13:48:14.356Z</time></trkpt><trkpt lat="44.8109812" lon="9.8199276"><ele>223.16666666666666</ele><time>2026-04-19T13:48:15.318Z</time></trkpt><trkpt lat="44.8110618" lon="9.8199541"><ele>223.33333333333331</ele><time>2026-04-19T13:48:16.352Z</time></trkpt><trkpt lat="44.8111452" lon="9.8199692"><ele>223.5</ele><time>2026-04-19T13:48:17.357Z</time></trkpt><trkpt lat="44.8112201" lon="9.8199855"><ele>223.66666666666669</ele><time>2026-04-19T13:48:18.368Z</time></trkpt><trkpt lat="44.8112854" lon="9.820012"><ele>223.83333333333334</ele><time>2026-04-19T13:48:19.355Z</time></trkpt><trkpt lat="44.8113478" lon="9.8200416"><ele>224.0</ele><time>2026-04-19T13:48:20.359Z</time></trkpt><trkpt lat="44.8114151" lon="9.8200889"><ele>223.85714285714286</ele><time>2026-04-19T13:48:21.349Z</time></trkpt><trkpt lat="44.8114753" lon="9.820158"><ele>223.71428571428572</ele><time>2026-04-19T13:48:22.358Z</time></trkpt><trkpt lat="44.811537" lon="9.8202229"><ele>223.57142857142856</ele><time>2026-04-19T13:48:23.364Z</time></trkpt><trkpt lat="44.8116054" lon="9.8202761"><ele>223.42857142857144</ele><time>2026-04-19T13:48:24.37Z</time></trkpt><trkpt lat="44.8116701" lon="9.8203191"><ele>223.28571428571428</ele><time>2026-04-19T13:48:25.359Z</time></trkpt><trkpt lat="44.8117376" lon="9.8203282"><ele>223.14285714285714</ele><time>2026-04-19T13:48:26.354Z</time></trkpt><trkpt lat="44.8118127" lon="9.8203397"><ele>223.0</ele><time>2026-04-19T13:48:27.365Z</time></trkpt><trkpt lat="44.811887" lon="9.8203561"><ele>222.99999999999997</ele><time>2026-04-19T13:48:28.349Z</time></trkpt><trkpt lat="44.8119501" lon="9.8204093"><ele>223.0</ele><time>2026-04-19T13:48:29.363Z</time></trkpt><trkpt lat="44.8120116" lon="9.8204781"><ele>223.0</ele><time>2026-04-19T13:48:30.357Z</time></trkpt><trkpt lat="44.8120838" lon="9.8205326"><ele>223.0</ele><time>2026-04-19T13:48:31.354Z</time></trkpt><trkpt lat="44.8121701" lon="9.8205768"><ele>222.99999999999997</ele><time>2026-04-19T13:48:32.35Z</time></trkpt><trkpt lat="44.8122626" lon="9.8206089"><ele>223.0</ele><time>2026-04-19T13:48:33.351Z</time></trkpt><trkpt lat="44.8123511" lon="9.8206335"><ele>222.99999999999997</ele><time>2026-04-19T13:48:34.347Z</time></trkpt><trkpt lat="44.8124413" lon="9.8206465"><ele>223.0</ele><time>2026-04-19T13:48:35.361Z</time></trkpt><trkpt lat="44.8125189" lon="9.8206702"><ele>223.0</ele><time>2026-04-19T13:48:36.355Z</time></trkpt><trkpt lat="44.8125845" lon="9.8207141"><ele>223.0</ele><time>2026-04-19T13:48:37.358Z</time></trkpt><trkpt lat="44.8126439" lon="9.8207771"><ele>222.99999999999997</ele><time>2026-04-19T13:48:38.351Z</time></trkpt><trkpt lat="44.8126978" lon="9.8208521"><ele>223.0</ele><time>2026-04-19T13:48:39.361Z</time></trkpt><trkpt lat="44.8127507" lon="9.8209474"><ele>223.33333333333331</ele><time>2026-04-19T13:48:40.354Z</time></trkpt><trkpt lat="44.8128068" lon="9.8210389"><ele>223.66666666666666</ele><time>2026-04-19T13:48:41.355Z</time></trkpt><trkpt lat="44.8128604" lon="9.8211371"><ele>224.0</ele><time>2026-04-19T13:48:42.356Z</time></trkpt><trkpt lat="44.8129221" lon="9.8212275"><ele>224.33333333333331</ele><time>2026-04-19T13:48:43.363Z</time></trkpt><trkpt lat="44.8129692" lon="9.8213107"><ele>224.66666666666666</ele><time>2026-04-19T13:48:44.353Z</time></trkpt><trkpt lat="44.8130235" lon="9.8213781"><ele>225.0</ele><time>2026-04-19T13:48:45.352Z</time></trkpt><trkpt lat="44.8130808" lon="9.8214517"><ele>225.0</ele><time>2026-04-19T13:48:46.351Z</time></trkpt><trkpt lat="44.8131573" lon="9.821516"><ele>225.0</ele><time>2026-04-19T13:48:47.313Z</time></trkpt><trkpt lat="44.8132258" lon="9.8215838"><ele>225.0</ele><time>2026-04-19T13:48:48.372Z</time></trkpt><trkpt lat="44.8132921" lon="9.8216681"><ele>225.0</ele><time>2026-04-19T13:48:49.35Z</time></trkpt><trkpt lat="44.8133477" lon="9.8217413"><ele>225.0</ele><time>2026-04-19T13:48:50.348Z</time></trkpt><trkpt lat="44.8134075" lon="9.8218217"><ele>225.0</ele><time>2026-04-19T13:48:51.326Z</time></trkpt><trkpt lat="44.813468" lon="9.8219092"><ele>225.5</ele><time>2026-04-19T13:48:52.35Z</time></trkpt><trkpt lat="44.8135307" lon="9.8219944"><ele>226.0</ele><time>2026-04-19T13:48:53.343Z</time></trkpt><trkpt lat="44.81359" lon="9.8220917"><ele>226.5</ele><time>2026-04-19T13:48:54.348Z</time></trkpt><trkpt lat="44.8136424" lon="9.8221843"><ele>227.0</ele><time>2026-04-19T13:48:55.343Z</time></trkpt><trkpt lat="44.8136908" lon="9.8222775"><ele>227.5</ele><time>2026-04-19T13:48:56.337Z</time></trkpt><trkpt lat="44.8137394" lon="9.8223547"><ele>228.0</ele><time>2026-04-19T13:48:57.36Z</time></trkpt><trkpt lat="44.8137904" lon="9.8224336"><ele>228.0</ele><time>2026-04-19T13:48:58.356Z</time></trkpt><trkpt lat="44.8138537" lon="9.8225067"><ele>228.0</ele><time>2026-04-19T13:48:59.345Z</time></trkpt><trkpt lat="44.8139255" lon="9.8225764"><ele>228.0</ele><time>2026-04-19T13:49:00.356Z</time></trkpt><trkpt lat="44.8139938" lon="9.8226494"><ele>228.0</ele><time>2026-04-19T13:49:01.354Z</time></trkpt><trkpt lat="44.8140634" lon="9.8227111"><ele>228.0</ele><time>2026-04-19T13:49:02.356Z</time></trkpt><trkpt lat="44.8141326" lon="9.8227695"><ele>228.0</ele><time>2026-04-19T13:49:03.351Z</time></trkpt><trkpt lat="44.8141829" lon="9.8228365"><ele>228.33333333333334</ele><time>2026-04-19T13:49:04.357Z</time></trkpt><trkpt lat="44.8142163" lon="9.8229169"><ele>228.66666666666669</ele><time>2026-04-19T13:49:05.347Z</time></trkpt><trkpt lat="44.8142581" lon="9.8230068"><ele>229.0</ele><time>2026-04-19T13:49:06.365Z</time></trkpt><trkpt lat="44.8143074" lon="9.8231026"><ele>229.33333333333334</ele><time>2026-04-19T13:49:07.353Z</time></trkpt><trkpt lat="44.8143667" lon="9.8231936"><ele>229.66666666666669</ele><time>2026-04-19T13:49:08.358Z</time></trkpt><trkpt lat="44.8144276" lon="9.8232952"><ele>230.0</ele><time>2026-04-19T13:49:09.325Z</time></trkpt><trkpt lat="44.8144888" lon="9.8233954"><ele>228.0</ele><time>2026-04-19T13:49:10.341Z</time></trkpt><trkpt lat="44.8145471" lon="9.8234904"><ele>226.0</ele><time>2026-04-19T13:49:11.355Z</time></trkpt><trkpt lat="44.8145951" lon="9.8235846"><ele>224.0</ele><time>2026-04-19T13:49:12.344Z</time></trkpt><trkpt lat="44.8146375" lon="9.8236698"><ele>222.0</ele><time>2026-04-19T13:49:13.362Z</time></trkpt><trkpt lat="44.8147055" lon="9.8238011"><ele>220.0</ele><time>2026-04-19T13:49:15.36Z</time></trkpt><trkpt lat="44.8147745" lon="9.8239383"><ele>219.99999999999997</ele><time>2026-04-19T13:49:17.33Z</time></trkpt><trkpt lat="44.8148169" lon="9.8240185"><ele>220.0</ele><time>2026-04-19T13:49:18.349Z</time></trkpt><trkpt lat="44.8148639" lon="9.8240978"><ele>220.0</ele><time>2026-04-19T13:49:19.352Z</time></trkpt><trkpt lat="44.8149214" lon="9.8241798"><ele>220.0</ele><time>2026-04-19T13:49:20.353Z</time></trkpt><trkpt lat="44.8149768" lon="9.8242608"><ele>219.99999999999997</ele><time>2026-04-19T13:49:21.35Z</time></trkpt><trkpt lat="44.8150324" lon="9.8243496"><ele>220.0</ele><time>2026-04-19T13:49:22.359Z</time></trkpt><trkpt lat="44.8150859" lon="9.8244447"><ele>219.66666666666666</ele><time>2026-04-19T13:49:23.36Z</time></trkpt><trkpt lat="44.8151442" lon="9.8245399"><ele>219.33333333333331</ele><time>2026-04-19T13:49:24.355Z</time></trkpt><trkpt lat="44.8152043" lon="9.8246347"><ele>219.0</ele><time>2026-04-19T13:49:25.357Z</time></trkpt><trkpt lat="44.8152567" lon="9.8247295"><ele>218.66666666666669</ele><time>2026-04-19T13:49:26.356Z</time></trkpt><trkpt lat="44.8153176" lon="9.8248226"><ele>218.33333333333334</ele><time>2026-04-19T13:49:27.349Z</time></trkpt><trkpt lat="44.8153818" lon="9.824917"><ele>218.0</ele><time>2026-04-19T13:49:28.347Z</time></trkpt><trkpt lat="44.8154429" lon="9.8250114"><ele>218.0</ele><time>2026-04-19T13:49:29.351Z</time></trkpt><trkpt lat="44.8155141" lon="9.8251057"><ele>218.0</ele><time>2026-04-19T13:49:30.321Z</time></trkpt><trkpt lat="44.8155877" lon="9.8252056"><ele>218.0</ele><time>2026-04-19T13:49:31.359Z</time></trkpt><trkpt lat="44.8156563" lon="9.825308"><ele>218.0</ele><time>2026-04-19T13:49:32.357Z</time></trkpt><trkpt lat="44.8157279" lon="9.8253957"><ele>218.0</ele><time>2026-04-19T13:49:33.37Z</time></trkpt><trkpt lat="44.8157876" lon="9.8254659"><ele>217.83333333333334</ele><time>2026-04-19T13:49:34.36Z</time></trkpt><trkpt lat="44.8158428" lon="9.8255397"><ele>217.66666666666669</ele><time>2026-04-19T13:49:35.357Z</time></trkpt><trkpt lat="44.8158928" lon="9.8256153"><ele>217.5</ele><time>2026-04-19T13:49:36.356Z</time></trkpt><trkpt lat="44.8159458" lon="9.8257012"><ele>217.33333333333331</ele><time>2026-04-19T13:49:37.351Z</time></trkpt><trkpt lat="44.8160044" lon="9.8257945"><ele>217.16666666666666</ele><time>2026-04-19T13:49:38.357Z</time></trkpt><trkpt lat="44.8160678" lon="9.8258784"><ele>217.0</ele><time>2026-04-19T13:49:39.353Z</time></trkpt><trkpt lat="44.8161294" lon="9.8259742"><ele>216.49999999999997</ele><time>2026-04-19T13:49:40.347Z</time></trkpt><trkpt lat="44.8161817" lon="9.8260758"><ele>216.0</ele><time>2026-04-19T13:49:41.348Z</time></trkpt><trkpt lat="44.8162293" lon="9.8261751"><ele>215.5</ele><time>2026-04-19T13:49:42.346Z</time></trkpt><trkpt lat="44.8162655" lon="9.8262782"><ele>215.0</ele><time>2026-04-19T13:49:43.352Z</time></trkpt><trkpt lat="44.8163" lon="9.8263774"><ele>214.49999999999997</ele><time>2026-04-19T13:49:44.357Z</time></trkpt><trkpt lat="44.8163216" lon="9.8264774"><ele>214.0</ele><time>2026-04-19T13:49:45.372Z</time></trkpt><trkpt lat="44.8163421" lon="9.8265784"><ele>214.0</ele><time>2026-04-19T13:49:46.347Z</time></trkpt><trkpt lat="44.8163603" lon="9.8266763"><ele>213.99999999999997</ele><time>2026-04-19T13:49:47.361Z</time></trkpt><trkpt lat="44.8164051" lon="9.826764"><ele>213.99999999999997</ele><time>2026-04-19T13:49:48.352Z</time></trkpt><trkpt lat="44.8164738" lon="9.8268595"><ele>214.0</ele><time>2026-04-19T13:49:49.357Z</time></trkpt><trkpt lat="44.8165543" lon="9.8269586"><ele>214.0</ele><time>2026-04-19T13:49:50.344Z</time></trkpt><trkpt lat="44.8166395" lon="9.8270471"><ele>213.83333333333331</ele><time>2026-04-19T13:49:51.347Z</time></trkpt><trkpt lat="44.8167169" lon="9.8271344"><ele>213.66666666666666</ele><time>2026-04-19T13:49:52.355Z</time></trkpt><trkpt lat="44.8167882" lon="9.8272225"><ele>213.5</ele><time>2026-04-19T13:49:53.355Z</time></trkpt><trkpt lat="44.8168589" lon="9.827287"><ele>213.33333333333331</ele><time>2026-04-19T13:49:54.324Z</time></trkpt><trkpt lat="44.816932" lon="9.827334"><ele>213.16666666666666</ele><time>2026-04-19T13:49:55.355Z</time></trkpt><trkpt lat="44.817003" lon="9.827353"><ele>213.0</ele><time>2026-04-19T13:49:56.349Z</time></trkpt><trkpt lat="44.8170764" lon="9.8273462"><ele>213.0</ele><time>2026-04-19T13:49:57.359Z</time></trkpt><trkpt lat="44.8171575" lon="9.8273255"><ele>213.0</ele><time>2026-04-19T13:49:58.351Z</time></trkpt><trkpt lat="44.8172306" lon="9.8272971"><ele>213.0</ele><time>2026-04-19T13:49:59.359Z</time></trkpt><trkpt lat="44.8172972" lon="9.8272839"><ele>213.0</ele><time>2026-04-19T13:50:00.355Z</time></trkpt><trkpt lat="44.8173706" lon="9.8272943"><ele>213.0</ele><time>2026-04-19T13:50:01.355Z</time></trkpt><trkpt lat="44.8174453" lon="9.8273329"><ele>213.0</ele><time>2026-04-19T13:50:02.353Z</time></trkpt><trkpt lat="44.8175126" lon="9.8273853"><ele>213.0</ele><time>2026-04-19T13:50:03.357Z</time></trkpt><trkpt lat="44.817583" lon="9.8274656"><ele>213.0</ele><time>2026-04-19T13:50:04.359Z</time></trkpt><trkpt lat="44.8176466" lon="9.8275339"><ele>213.0</ele><time>2026-04-19T13:50:05.364Z</time></trkpt><trkpt lat="44.8177063" lon="9.8276055"><ele>213.0</ele><time>2026-04-19T13:50:06.361Z</time></trkpt><trkpt lat="44.8177544" lon="9.8276683"><ele>213.0</ele><time>2026-04-19T13:50:07.366Z</time></trkpt><trkpt lat="44.8178414" lon="9.8277352"><ele>213.0</ele><time>2026-04-19T13:50:09.354Z</time></trkpt><trkpt lat="44.8179445" lon="9.8277412"><ele>213.0</ele><time>2026-04-19T13:50:11.349Z</time></trkpt><trkpt lat="44.8180125" lon="9.8277192"><ele>213.0</ele><time>2026-04-19T13:50:12.353Z</time></trkpt><trkpt lat="44.8180756" lon="9.8276976"><ele>213.0</ele><time>2026-04-19T13:50:13.365Z</time></trkpt><trkpt lat="44.8181409" lon="9.8276777"><ele>213.0</ele><time>2026-04-19T13:50:14.356Z</time></trkpt><trkpt lat="44.8182533" lon="9.8276264"><ele>213.0</ele><time>2026-04-19T13:50:16.344Z</time></trkpt><trkpt lat="44.818347" lon="9.8276196"><ele>213.0</ele><time>2026-04-19T13:50:18.353Z</time></trkpt><trkpt lat="44.8184277" lon="9.8276873"><ele>212.4</ele><time>2026-04-19T13:50:20.343Z</time></trkpt><trkpt lat="44.8184898" lon="9.8277735"><ele>211.8</ele><time>2026-04-19T13:50:22.353Z</time></trkpt><trkpt lat="44.8185684" lon="9.8278986"><ele>211.2</ele><time>2026-04-19T13:50:24.35Z</time></trkpt><trkpt lat="44.8186119" lon="9.8279665"><ele>210.6</ele><time>2026-04-19T13:50:25.363Z</time></trkpt><trkpt lat="44.8186952" lon="9.8280846"><ele>210.0</ele><time>2026-04-19T13:50:27.361Z</time></trkpt><trkpt lat="44.8187704" lon="9.8281748"><ele>210.0</ele><time>2026-04-19T13:50:29.36Z</time></trkpt><trkpt lat="44.8188547" lon="9.8282457"><ele>210.0</ele><time>2026-04-19T13:50:31.339Z</time></trkpt><trkpt lat="44.8189295" lon="9.8283257"><ele>210.0</ele><time>2026-04-19T13:50:33.356Z</time></trkpt><trkpt lat="44.8190146" lon="9.8284099"><ele>210.0</ele><time>2026-04-19T13:50:35.333Z</time></trkpt><trkpt lat="44.819092" lon="9.8283778"><ele>210.0</ele><time>2026-04-19T13:50:37.337Z</time></trkpt><trkpt lat="44.8191446" lon="9.8283241"><ele>210.0</ele><time>2026-04-19T13:50:39.362Z</time></trkpt><trkpt lat="44.8191577" lon="9.8284173"><ele>209.33333333333334</ele><time>2026-04-19T13:50:44.36Z</time></trkpt><trkpt lat="44.819125" lon="9.8284938"><ele>208.66666666666669</ele><time>2026-04-19T13:51:47.347Z</time></trkpt><trkpt lat="44.819094" lon="9.8285928"><ele>208.0</ele><time>2026-04-19T13:54:25.345Z</time></trkpt><trkpt lat="44.8190748" lon="9.828505"><ele>207.33333333333334</ele><time>2026-04-19T13:55:00.348Z</time></trkpt><trkpt lat="44.8191506" lon="9.8285221"><ele>206.66666666666669</ele><time>2026-04-19T14:02:46.341Z</time></trkpt><trkpt lat="44.8192228" lon="9.8286007"><ele>206.0</ele><time>2026-04-19T14:02:49.357Z</time></trkpt><trkpt lat="44.819305" lon="9.8286693"><ele>207.66666666666669</ele><time>2026-04-19T14:02:51.351Z</time></trkpt><trkpt lat="44.8193553" lon="9.828763"><ele>209.33333333333334</ele><time>2026-04-19T14:02:53.346Z</time></trkpt><trkpt lat="44.8193926" lon="9.8288647"><ele>211.0</ele><time>2026-04-19T14:02:56.353Z</time></trkpt><trkpt lat="44.8194286" lon="9.8289732"><ele>212.66666666666669</ele><time>2026-04-19T14:02:58.361Z</time></trkpt><trkpt lat="44.8195093" lon="9.8290979"><ele>214.33333333333334</ele><time>2026-04-19T14:03:00.359Z</time></trkpt><trkpt lat="44.8195594" lon="9.8291551"><ele>216.0</ele><time>2026-04-19T14:03:01.337Z</time></trkpt><trkpt lat="44.8196512" lon="9.8292745"><ele>215.16666666666666</ele><time>2026-04-19T14:03:03.342Z</time></trkpt><trkpt lat="44.8196956" lon="9.8293414"><ele>214.33333333333331</ele><time>2026-04-19T14:03:04.355Z</time></trkpt><trkpt lat="44.8197773" lon="9.8294642"><ele>213.5</ele><time>2026-04-19T14:03:06.353Z</time></trkpt><trkpt lat="44.8198683" lon="9.8295822"><ele>212.66666666666666</ele><time>2026-04-19T14:03:08.338Z</time></trkpt><trkpt lat="44.8199178" lon="9.82964"><ele>211.83333333333331</ele><time>2026-04-19T14:03:09.308Z</time></trkpt><trkpt lat="44.8199745" lon="9.8296995"><ele>211.0</ele><time>2026-04-19T14:03:10.347Z</time></trkpt><trkpt lat="44.8200409" lon="9.8297408"><ele>210.99999999999997</ele><time>2026-04-19T14:03:11.346Z</time></trkpt><trkpt lat="44.8201105" lon="9.8297738"><ele>211.0</ele><time>2026-04-19T14:03:12.367Z</time></trkpt><trkpt lat="44.8201833" lon="9.8297842"><ele>211.0</ele><time>2026-04-19T14:03:13.362Z</time></trkpt><trkpt lat="44.820258" lon="9.8297759"><ele>211.0</ele><time>2026-04-19T14:03:14.336Z</time></trkpt><trkpt lat="44.8203733" lon="9.8297205"><ele>210.99999999999997</ele><time>2026-04-19T14:03:16.337Z</time></trkpt><trkpt lat="44.8204285" lon="9.8296678"><ele>211.0</ele><time>2026-04-19T14:03:17.349Z</time></trkpt><trkpt lat="44.8204751" lon="9.8295958"><ele>212.42857142857144</ele><time>2026-04-19T14:03:18.344Z</time></trkpt><trkpt lat="44.8205187" lon="9.8295214"><ele>213.85714285714286</ele><time>2026-04-19T14:03:19.331Z</time></trkpt><trkpt lat="44.8205528" lon="9.8294423"><ele>215.28571428571428</ele><time>2026-04-19T14:03:20.313Z</time></trkpt><trkpt lat="44.820588" lon="9.829365"><ele>216.71428571428572</ele><time>2026-04-19T14:03:21.351Z</time></trkpt><trkpt lat="44.8206082" lon="9.8292698"><ele>218.14285714285714</ele><time>2026-04-19T14:03:22.318Z</time></trkpt><trkpt lat="44.820629" lon="9.8291774"><ele>219.57142857142858</ele><time>2026-04-19T14:03:23.347Z</time></trkpt><trkpt lat="44.8206512" lon="9.8290771"><ele>221.0</ele><time>2026-04-19T14:03:24.361Z</time></trkpt><trkpt lat="44.8206681" lon="9.8289795"><ele>221.33333333333334</ele><time>2026-04-19T14:03:25.303Z</time></trkpt><trkpt lat="44.8206776" lon="9.8288803"><ele>221.66666666666669</ele><time>2026-04-19T14:03:26.348Z</time></trkpt><trkpt lat="44.8206864" lon="9.8287773"><ele>222.0</ele><time>2026-04-19T14:03:27.341Z</time></trkpt><trkpt lat="44.8206954" lon="9.8286746"><ele>222.33333333333331</ele><time>2026-04-19T14:03:28.351Z</time></trkpt><trkpt lat="44.8207043" lon="9.8285684"><ele>222.66666666666666</ele><time>2026-04-19T14:03:29.352Z</time></trkpt><trkpt lat="44.8207185" lon="9.8284564"><ele>223.0</ele><time>2026-04-19T14:03:30.352Z</time></trkpt><trkpt lat="44.8207455" lon="9.8283533"><ele>223.49999999999997</ele><time>2026-04-19T14:03:31.349Z</time></trkpt><trkpt lat="44.8207819" lon="9.8282397"><ele>224.0</ele><time>2026-04-19T14:03:32.35Z</time></trkpt><trkpt lat="44.820823" lon="9.8281238"><ele>224.5</ele><time>2026-04-19T14:03:33.342Z</time></trkpt><trkpt lat="44.8208615" lon="9.8280125"><ele>225.0</ele><time>2026-04-19T14:03:34.35Z</time></trkpt><trkpt lat="44.8208993" lon="9.8278993"><ele>225.49999999999997</ele><time>2026-04-19T14:03:35.361Z</time></trkpt><trkpt lat="44.8209289" lon="9.8277997"><ele>226.0</ele><time>2026-04-19T14:03:36.349Z</time></trkpt><trkpt lat="44.820952" lon="9.827709"><ele>226.16666666666666</ele><time>2026-04-19T14:03:37.345Z</time></trkpt><trkpt lat="44.8209923" lon="9.8275793"><ele>226.33333333333331</ele><time>2026-04-19T14:03:39.334Z</time></trkpt><trkpt lat="44.8210449" lon="9.8275259"><ele>226.5</ele><time>2026-04-19T14:03:43.32Z</time></trkpt><trkpt lat="44.8211238" lon="9.827564"><ele>226.66666666666669</ele><time>2026-04-19T14:03:47.344Z</time></trkpt><trkpt lat="44.8211705" lon="9.827655"><ele>226.83333333333334</ele><time>2026-04-19T14:03:49.345Z</time></trkpt><trkpt lat="44.8212386" lon="9.8277566"><ele>227.0</ele><time>2026-04-19T14:03:51.352Z</time></trkpt><trkpt lat="44.8212855" lon="9.8278166"><ele>227.00000000000003</ele><time>2026-04-19T14:03:52.353Z</time></trkpt><trkpt lat="44.8213433" lon="9.8278761"><ele>227.0</ele><time>2026-04-19T14:03:53.352Z</time></trkpt><trkpt lat="44.8214091" lon="9.8279442"><ele>227.0</ele><time>2026-04-19T14:03:54.354Z</time></trkpt><trkpt lat="44.821487" lon="9.8280292"><ele>227.0</ele><time>2026-04-19T14:03:55.348Z</time></trkpt><trkpt lat="44.8215637" lon="9.8281184"><ele>227.00000000000003</ele><time>2026-04-19T14:03:56.352Z</time></trkpt><trkpt lat="44.8216395" lon="9.8282015"><ele>227.0</ele><time>2026-04-19T14:03:57.35Z</time></trkpt><trkpt lat="44.8217113" lon="9.8282842"><ele>227.0</ele><time>2026-04-19T14:03:58.348Z</time></trkpt><trkpt lat="44.8217693" lon="9.8283605"><ele>227.0</ele><time>2026-04-19T14:03:59.335Z</time></trkpt><trkpt lat="44.8218274" lon="9.8284247"><ele>227.0</ele><time>2026-04-19T14:04:00.355Z</time></trkpt><trkpt lat="44.8219127" lon="9.8285128"><ele>227.0</ele><time>2026-04-19T14:04:02.353Z</time></trkpt><trkpt lat="44.8220141" lon="9.8286222"><ele>227.0</ele><time>2026-04-19T14:04:04.369Z</time></trkpt><trkpt lat="44.8220736" lon="9.8286897"><ele>226.6</ele><time>2026-04-19T14:04:05.366Z</time></trkpt><trkpt lat="44.8221397" lon="9.8287602"><ele>226.2</ele><time>2026-04-19T14:04:06.357Z</time></trkpt><trkpt lat="44.8222115" lon="9.8288414"><ele>225.8</ele><time>2026-04-19T14:04:07.347Z</time></trkpt><trkpt lat="44.8222895" lon="9.8289366"><ele>225.4</ele><time>2026-04-19T14:04:08.352Z</time></trkpt><trkpt lat="44.8223749" lon="9.8290472"><ele>225.0</ele><time>2026-04-19T14:04:09.353Z</time></trkpt><trkpt lat="44.8224567" lon="9.8291662"><ele>225.0</ele><time>2026-04-19T14:04:10.352Z</time></trkpt><trkpt lat="44.8225501" lon="9.8292858"><ele>225.0</ele><time>2026-04-19T14:04:11.352Z</time></trkpt><trkpt lat="44.8226379" lon="9.8294155"><ele>225.0</ele><time>2026-04-19T14:04:12.352Z</time></trkpt><trkpt lat="44.8227316" lon="9.8295521"><ele>225.0</ele><time>2026-04-19T14:04:13.347Z</time></trkpt><trkpt lat="44.8228263" lon="9.8296843"><ele>224.25</ele><time>2026-04-19T14:04:14.348Z</time></trkpt><trkpt lat="44.8229267" lon="9.8298158"><ele>223.5</ele><time>2026-04-19T14:04:15.346Z</time></trkpt><trkpt lat="44.8230323" lon="9.8299468"><ele>222.75</ele><time>2026-04-19T14:04:16.36Z</time></trkpt><trkpt lat="44.8231294" lon="9.8300831"><ele>222.0</ele><time>2026-04-19T14:04:17.357Z</time></trkpt><trkpt lat="44.8232302" lon="9.8302113"><ele>221.5</ele><time>2026-04-19T14:04:18.352Z</time></trkpt><trkpt lat="44.8233311" lon="9.8303435"><ele>221.0</ele><time>2026-04-19T14:04:19.364Z</time></trkpt><trkpt lat="44.8234321" lon="9.8304716"><ele>220.5</ele><time>2026-04-19T14:04:20.357Z</time></trkpt><trkpt lat="44.8235262" lon="9.8306024"><ele>220.0</ele><time>2026-04-19T14:04:21.367Z</time></trkpt><trkpt lat="44.8236277" lon="9.8307339"><ele>220.0</ele><time>2026-04-19T14:04:22.306Z</time></trkpt><trkpt lat="44.8237308" lon="9.8308654"><ele>220.0</ele><time>2026-04-19T14:04:23.356Z</time></trkpt><trkpt lat="44.8238324" lon="9.8309906"><ele>220.0</ele><time>2026-04-19T14:04:24.352Z</time></trkpt><trkpt lat="44.8239327" lon="9.831123"><ele>220.0</ele><time>2026-04-19T14:04:25.329Z</time></trkpt><trkpt lat="44.8240271" lon="9.8312574"><ele>219.5</ele><time>2026-04-19T14:04:26.355Z</time></trkpt><trkpt lat="44.8241239" lon="9.8313801"><ele>219.0</ele><time>2026-04-19T14:04:27.365Z</time></trkpt><trkpt lat="44.8242212" lon="9.831505"><ele>218.5</ele><time>2026-04-19T14:04:28.358Z</time></trkpt><trkpt lat="44.8243206" lon="9.8316312"><ele>218.0</ele><time>2026-04-19T14:04:29.34Z</time></trkpt><trkpt lat="44.8244173" lon="9.831759"><ele>216.75</ele><time>2026-04-19T14:04:30.359Z</time></trkpt><trkpt lat="44.8245102" lon="9.8318913"><ele>215.5</ele><time>2026-04-19T14:04:31.353Z</time></trkpt><trkpt lat="44.8246121" lon="9.8320247"><ele>214.25</ele><time>2026-04-19T14:04:32.351Z</time></trkpt><trkpt lat="44.8247174" lon="9.8321597"><ele>213.0</ele><time>2026-04-19T14:04:33.348Z</time></trkpt><trkpt lat="44.824817" lon="9.8322951"><ele>213.0</ele><time>2026-04-19T14:04:34.349Z</time></trkpt><trkpt lat="44.8249174" lon="9.8324251"><ele>213.0</ele><time>2026-04-19T14:04:35.348Z</time></trkpt><trkpt lat="44.8250267" lon="9.8325431"><ele>213.0</ele><time>2026-04-19T14:04:36.354Z</time></trkpt><trkpt lat="44.8251413" lon="9.8326499"><ele>213.0</ele><time>2026-04-19T14:04:37.346Z</time></trkpt><trkpt lat="44.8252642" lon="9.8327379"><ele>211.75</ele><time>2026-04-19T14:04:38.343Z</time></trkpt><trkpt lat="44.8253869" lon="9.832825"><ele>210.5</ele><time>2026-04-19T14:04:39.359Z</time></trkpt><trkpt lat="44.8255135" lon="9.8329279"><ele>209.25</ele><time>2026-04-19T14:04:40.361Z</time></trkpt><trkpt lat="44.8256408" lon="9.8330212"><ele>208.0</ele><time>2026-04-19T14:04:41.344Z</time></trkpt><trkpt lat="44.8257623" lon="9.8331341"><ele>208.0</ele><time>2026-04-19T14:04:42.354Z</time></trkpt><trkpt lat="44.8258795" lon="9.833251"><ele>208.0</ele><time>2026-04-19T14:04:43.362Z</time></trkpt><trkpt lat="44.825998" lon="9.8333652"><ele>208.0</ele><time>2026-04-19T14:04:44.372Z</time></trkpt><trkpt lat="44.8261185" lon="9.8334947"><ele>208.0</ele><time>2026-04-19T14:04:45.357Z</time></trkpt><trkpt lat="44.826244" lon="9.8336348"><ele>207.33333333333331</ele><time>2026-04-19T14:04:46.351Z</time></trkpt><trkpt lat="44.8263641" lon="9.8337743"><ele>206.66666666666669</ele><time>2026-04-19T14:04:47.365Z</time></trkpt><trkpt lat="44.826485" lon="9.8339183"><ele>206.0</ele><time>2026-04-19T14:04:48.339Z</time></trkpt><trkpt lat="44.826601" lon="9.8340594"><ele>206.0</ele><time>2026-04-19T14:04:49.33Z</time></trkpt><trkpt lat="44.8267201" lon="9.8342016"><ele>206.0</ele><time>2026-04-19T14:04:50.35Z</time></trkpt><trkpt lat="44.8268395" lon="9.8343458"><ele>206.0</ele><time>2026-04-19T14:04:51.358Z</time></trkpt><trkpt lat="44.826959" lon="9.8344912"><ele>205.66666666666669</ele><time>2026-04-19T14:04:52.348Z</time></trkpt><trkpt lat="44.8270839" lon="9.8346328"><ele>205.33333333333331</ele><time>2026-04-19T14:04:53.356Z</time></trkpt><trkpt lat="44.8271982" lon="9.8347742"><ele>205.0</ele><time>2026-04-19T14:04:54.353Z</time></trkpt><trkpt lat="44.8273098" lon="9.8349229"><ele>205.0</ele><time>2026-04-19T14:04:55.363Z</time></trkpt><trkpt lat="44.8274183" lon="9.8350591"><ele>205.0</ele><time>2026-04-19T14:04:56.344Z</time></trkpt><trkpt lat="44.8275213" lon="9.8351955"><ele>205.0</ele><time>2026-04-19T14:04:57.341Z</time></trkpt><trkpt lat="44.8276231" lon="9.8353354"><ele>205.0</ele><time>2026-04-19T14:04:58.351Z</time></trkpt><trkpt lat="44.8277254" lon="9.835473"><ele>204.0</ele><time>2026-04-19T14:04:59.341Z</time></trkpt><trkpt lat="44.8278282" lon="9.8356092"><ele>203.0</ele><time>2026-04-19T14:05:00.346Z</time></trkpt><trkpt lat="44.8279333" lon="9.8357431"><ele>202.0</ele><time>2026-04-19T14:05:01.349Z</time></trkpt><trkpt lat="44.8280375" lon="9.8358787"><ele>201.0</ele><time>2026-04-19T14:05:02.35Z</time></trkpt><trkpt lat="44.8281445" lon="9.8360079"><ele>200.5</ele><time>2026-04-19T14:05:03.357Z</time></trkpt><trkpt lat="44.8282444" lon="9.8361422"><ele>200.0</ele><time>2026-04-19T14:05:04.339Z</time></trkpt><trkpt lat="44.8283457" lon="9.8362738"><ele>199.5</ele><time>2026-04-19T14:05:05.353Z</time></trkpt><trkpt lat="44.8284511" lon="9.8364016"><ele>199.0</ele><time>2026-04-19T14:05:06.356Z</time></trkpt><trkpt lat="44.8285589" lon="9.8365301"><ele>198.75</ele><time>2026-04-19T14:05:07.311Z</time></trkpt><trkpt lat="44.8286687" lon="9.8366442"><ele>198.5</ele><time>2026-04-19T14:05:08.354Z</time></trkpt><trkpt lat="44.8287884" lon="9.8367576"><ele>198.25</ele><time>2026-04-19T14:05:09.333Z</time></trkpt><trkpt lat="44.8289127" lon="9.8368645"><ele>198.0</ele><time>2026-04-19T14:05:10.358Z</time></trkpt><trkpt lat="44.8290473" lon="9.8369504"><ele>197.75</ele><time>2026-04-19T14:05:11.357Z</time></trkpt><trkpt lat="44.8291799" lon="9.8370324"><ele>197.5</ele><time>2026-04-19T14:05:12.35Z</time></trkpt><trkpt lat="44.8293139" lon="9.8371197"><ele>197.25</ele><time>2026-04-19T14:05:13.347Z</time></trkpt><trkpt lat="44.8294489" lon="9.8372053"><ele>197.0</ele><time>2026-04-19T14:05:14.339Z</time></trkpt><trkpt lat="44.8295889" lon="9.8372788"><ele>197.66666666666669</ele><time>2026-04-19T14:05:15.35Z</time></trkpt><trkpt lat="44.8297366" lon="9.8373575"><ele>198.33333333333331</ele><time>2026-04-19T14:05:16.346Z</time></trkpt><trkpt lat="44.8298819" lon="9.8374326"><ele>199.0</ele><time>2026-04-19T14:05:17.342Z</time></trkpt><trkpt lat="44.8300249" lon="9.8375116"><ele>198.33333333333331</ele><time>2026-04-19T14:05:18.36Z</time></trkpt><trkpt lat="44.8301609" lon="9.8375984"><ele>197.66666666666669</ele><time>2026-04-19T14:05:19.341Z</time></trkpt><trkpt lat="44.8303014" lon="9.8376794"><ele>197.0</ele><time>2026-04-19T14:05:20.352Z</time></trkpt><trkpt lat="44.8304429" lon="9.8377609"><ele>195.75</ele><time>2026-04-19T14:05:21.349Z</time></trkpt><trkpt lat="44.8305777" lon="9.8378478"><ele>194.5</ele><time>2026-04-19T14:05:22.342Z</time></trkpt><trkpt lat="44.8307086" lon="9.8379293"><ele>193.25</ele><time>2026-04-19T14:05:23.353Z</time></trkpt><trkpt lat="44.8308446" lon="9.8380086"><ele>192.0</ele><time>2026-04-19T14:05:24.337Z</time></trkpt><trkpt lat="44.8309757" lon="9.8380791"><ele>192.0</ele><time>2026-04-19T14:05:25.342Z</time></trkpt><trkpt lat="44.831103" lon="9.8381479"><ele>192.0</ele><time>2026-04-19T14:05:26.348Z</time></trkpt><trkpt lat="44.8312259" lon="9.8382106"><ele>192.0</ele><time>2026-04-19T14:05:27.356Z</time></trkpt><trkpt lat="44.8313324" lon="9.8382731"><ele>192.0</ele><time>2026-04-19T14:05:28.353Z</time></trkpt><trkpt lat="44.8314326" lon="9.8383299"><ele>192.0</ele><time>2026-04-19T14:05:29.348Z</time></trkpt><trkpt lat="44.8315171" lon="9.8383847"><ele>192.0</ele><time>2026-04-19T14:05:30.345Z</time></trkpt><trkpt lat="44.8315933" lon="9.8384508"><ele>192.0</ele><time>2026-04-19T14:05:31.324Z</time></trkpt><trkpt lat="44.831648" lon="9.8385241"><ele>192.0</ele><time>2026-04-19T14:05:32.342Z</time></trkpt><trkpt lat="44.8316851" lon="9.8386042"><ele>192.0</ele><time>2026-04-19T14:05:33.353Z</time></trkpt><trkpt lat="44.8316973" lon="9.8387069"><ele>192.0</ele><time>2026-04-19T14:05:34.354Z</time></trkpt><trkpt lat="44.8317031" lon="9.8388146"><ele>192.16666666666666</ele><time>2026-04-19T14:05:35.333Z</time></trkpt><trkpt lat="44.8317153" lon="9.8389186"><ele>192.33333333333331</ele><time>2026-04-19T14:05:36.346Z</time></trkpt><trkpt lat="44.831764" lon="9.8390099"><ele>192.5</ele><time>2026-04-19T14:05:37.354Z</time></trkpt><trkpt lat="44.8318255" lon="9.8390701"><ele>192.66666666666666</ele><time>2026-04-19T14:05:38.347Z</time></trkpt><trkpt lat="44.8319098" lon="9.8390996"><ele>192.83333333333331</ele><time>2026-04-19T14:05:39.344Z</time></trkpt><trkpt lat="44.8319934" lon="9.8391299"><ele>193.0</ele><time>2026-04-19T14:05:40.344Z</time></trkpt><trkpt lat="44.8320749" lon="9.8391755"><ele>193.4</ele><time>2026-04-19T14:05:41.353Z</time></trkpt><trkpt lat="44.832164" lon="9.8392352"><ele>193.8</ele><time>2026-04-19T14:05:42.351Z</time></trkpt><trkpt lat="44.8322544" lon="9.8393197"><ele>194.2</ele><time>2026-04-19T14:05:43.359Z</time></trkpt><trkpt lat="44.8323536" lon="9.8394047"><ele>194.6</ele><time>2026-04-19T14:05:44.36Z</time></trkpt><trkpt lat="44.8324552" lon="9.8394887"><ele>195.0</ele><time>2026-04-19T14:05:45.352Z</time></trkpt><trkpt lat="44.8325713" lon="9.8395597"><ele>194.75</ele><time>2026-04-19T14:05:46.357Z</time></trkpt><trkpt lat="44.832681" lon="9.8396305"><ele>194.5</ele><time>2026-04-19T14:05:47.337Z</time></trkpt><trkpt lat="44.8328024" lon="9.839701"><ele>194.25</ele><time>2026-04-19T14:05:48.357Z</time></trkpt><trkpt lat="44.8329211" lon="9.8397733"><ele>194.0</ele><time>2026-04-19T14:05:49.338Z</time></trkpt><trkpt lat="44.8330291" lon="9.839874"><ele>194.0</ele><time>2026-04-19T14:05:50.345Z</time></trkpt><trkpt lat="44.8331404" lon="9.8399879"><ele>194.0</ele><time>2026-04-19T14:05:51.347Z</time></trkpt><trkpt lat="44.8332511" lon="9.8401112"><ele>194.0</ele><time>2026-04-19T14:05:52.36Z</time></trkpt><trkpt lat="44.8333583" lon="9.8402449"><ele>194.0</ele><time>2026-04-19T14:05:53.345Z</time></trkpt><trkpt lat="44.8334596" lon="9.8403786"><ele>195.0</ele><time>2026-04-19T14:05:54.369Z</time></trkpt><trkpt lat="44.8335626" lon="9.8405287"><ele>196.0</ele><time>2026-04-19T14:05:55.36Z</time></trkpt><trkpt lat="44.8336713" lon="9.8406888"><ele>197.0</ele><time>2026-04-19T14:05:56.366Z</time></trkpt><trkpt lat="44.833782" lon="9.8408436"><ele>194.66666666666669</ele><time>2026-04-19T14:05:57.341Z</time></trkpt><trkpt lat="44.8338923" lon="9.8410004"><ele>192.33333333333334</ele><time>2026-04-19T14:05:58.338Z</time></trkpt><trkpt lat="44.8340043" lon="9.8411545"><ele>190.0</ele><time>2026-04-19T14:05:59.358Z</time></trkpt><trkpt lat="44.8341196" lon="9.8413107"><ele>190.0</ele><time>2026-04-19T14:06:00.34Z</time></trkpt><trkpt lat="44.8342358" lon="9.841473"><ele>190.0</ele><time>2026-04-19T14:06:01.349Z</time></trkpt><trkpt lat="44.8343475" lon="9.8416318"><ele>190.0</ele><time>2026-04-19T14:06:02.345Z</time></trkpt><trkpt lat="44.8344623" lon="9.841791"><ele>191.0</ele><time>2026-04-19T14:06:03.32Z</time></trkpt><trkpt lat="44.8345771" lon="9.8419598"><ele>192.0</ele><time>2026-04-19T14:06:04.338Z</time></trkpt><trkpt lat="44.8346965" lon="9.842121"><ele>193.0</ele><time>2026-04-19T14:06:05.353Z</time></trkpt><trkpt lat="44.834818" lon="9.8422925"><ele>193.0</ele><time>2026-04-19T14:06:06.346Z</time></trkpt><trkpt lat="44.8349408" lon="9.8424727"><ele>193.0</ele><time>2026-04-19T14:06:07.337Z</time></trkpt><trkpt lat="44.8350688" lon="9.8426545"><ele>193.0</ele><time>2026-04-19T14:06:08.361Z</time></trkpt><trkpt lat="44.8351981" lon="9.8428344"><ele>193.0</ele><time>2026-04-19T14:06:09.342Z</time></trkpt><trkpt lat="44.8353272" lon="9.843007"><ele>193.0</ele><time>2026-04-19T14:06:10.303Z</time></trkpt><trkpt lat="44.8354558" lon="9.8431877"><ele>193.0</ele><time>2026-04-19T14:06:11.301Z</time></trkpt><trkpt lat="44.8355797" lon="9.8433636"><ele>192.0</ele><time>2026-04-19T14:06:12.295Z</time></trkpt><trkpt lat="44.8357039" lon="9.8435389"><ele>191.0</ele><time>2026-04-19T14:06:13.3Z</time></trkpt><trkpt lat="44.8358293" lon="9.8437144"><ele>190.0</ele><time>2026-04-19T14:06:14.328Z</time></trkpt><trkpt lat="44.8359551" lon="9.8438965"><ele>189.0</ele><time>2026-04-19T14:06:15.34Z</time></trkpt><trkpt lat="44.8360809" lon="9.8440709"><ele>188.0</ele><time>2026-04-19T14:06:16.335Z</time></trkpt><trkpt lat="44.8362107" lon="9.8442358"><ele>187.0</ele><time>2026-04-19T14:06:17.349Z</time></trkpt><trkpt lat="44.8363397" lon="9.8444045"><ele>187.0</ele><time>2026-04-19T14:06:18.346Z</time></trkpt><trkpt lat="44.8364659" lon="9.8445879"><ele>187.0</ele><time>2026-04-19T14:06:19.347Z</time></trkpt><trkpt lat="44.8365966" lon="9.844771"><ele>187.0</ele><time>2026-04-19T14:06:20.305Z</time></trkpt><trkpt lat="44.8367225" lon="9.844951"><ele>188.66666666666669</ele><time>2026-04-19T14:06:21.343Z</time></trkpt><trkpt lat="44.8368561" lon="9.845136"><ele>190.33333333333334</ele><time>2026-04-19T14:06:22.313Z</time></trkpt><trkpt lat="44.8369842" lon="9.845323"><ele>192.0</ele><time>2026-04-19T14:06:23.336Z</time></trkpt><trkpt lat="44.8371151" lon="9.8455013"><ele>192.0</ele><time>2026-04-19T14:06:24.354Z</time></trkpt><trkpt lat="44.8372475" lon="9.8456918"><ele>192.0</ele><time>2026-04-19T14:06:25.353Z</time></trkpt><trkpt lat="44.8373733" lon="9.8458761"><ele>192.0</ele><time>2026-04-19T14:06:26.345Z</time></trkpt><trkpt lat="44.8374979" lon="9.8460668"><ele>192.0</ele><time>2026-04-19T14:06:27.363Z</time></trkpt><trkpt lat="44.8376281" lon="9.8462583"><ele>192.0</ele><time>2026-04-19T14:06:28.361Z</time></trkpt><trkpt lat="44.8377544" lon="9.8464462"><ele>192.0</ele><time>2026-04-19T14:06:29.321Z</time></trkpt><trkpt lat="44.8378774" lon="9.8466404"><ele>191.0</ele><time>2026-04-19T14:06:30.346Z</time></trkpt><trkpt lat="44.837997" lon="9.8468293"><ele>190.0</ele><time>2026-04-19T14:06:31.357Z</time></trkpt><trkpt lat="44.838114" lon="9.8470231"><ele>189.0</ele><time>2026-04-19T14:06:32.358Z</time></trkpt><trkpt lat="44.838226" lon="9.8472204"><ele>189.0</ele><time>2026-04-19T14:06:33.352Z</time></trkpt><trkpt lat="44.8383426" lon="9.8474235"><ele>189.0</ele><time>2026-04-19T14:06:34.346Z</time></trkpt><trkpt lat="44.838454" lon="9.8476167"><ele>189.0</ele><time>2026-04-19T14:06:35.338Z</time></trkpt><trkpt lat="44.838565" lon="9.8478117"><ele>190.66666666666669</ele><time>2026-04-19T14:06:36.352Z</time></trkpt><trkpt lat="44.8386751" lon="9.8480088"><ele>192.33333333333334</ele><time>2026-04-19T14:06:37.355Z</time></trkpt><trkpt lat="44.8387865" lon="9.8482108"><ele>194.0</ele><time>2026-04-19T14:06:38.356Z</time></trkpt><trkpt lat="44.8388898" lon="9.8484084"><ele>190.66666666666669</ele><time>2026-04-19T14:06:39.344Z</time></trkpt><trkpt lat="44.8389912" lon="9.8486126"><ele>187.33333333333334</ele><time>2026-04-19T14:06:40.353Z</time></trkpt><trkpt lat="44.8390936" lon="9.8488202"><ele>184.0</ele><time>2026-04-19T14:06:41.347Z</time></trkpt><trkpt lat="44.839195" lon="9.849026"><ele>184.0</ele><time>2026-04-19T14:06:42.32Z</time></trkpt><trkpt lat="44.8392992" lon="9.8492355"><ele>184.0</ele><time>2026-04-19T14:06:43.335Z</time></trkpt><trkpt lat="44.8394002" lon="9.849442"><ele>184.0</ele><time>2026-04-19T14:06:44.348Z</time></trkpt><trkpt lat="44.8394977" lon="9.8496462"><ele>185.0</ele><time>2026-04-19T14:06:45.336Z</time></trkpt><trkpt lat="44.8395907" lon="9.8498545"><ele>186.0</ele><time>2026-04-19T14:06:46.349Z</time></trkpt><trkpt lat="44.8396816" lon="9.8500729"><ele>187.0</ele><time>2026-04-19T14:06:47.343Z</time></trkpt><trkpt lat="44.8397714" lon="9.8502885"><ele>187.0</ele><time>2026-04-19T14:06:48.32Z</time></trkpt><trkpt lat="44.8398637" lon="9.8504955"><ele>187.0</ele><time>2026-04-19T14:06:49.345Z</time></trkpt><trkpt lat="44.8399586" lon="9.8507042"><ele>187.0</ele><time>2026-04-19T14:06:50.352Z</time></trkpt><trkpt lat="44.8400489" lon="9.8509204"><ele>186.0</ele><time>2026-04-19T14:06:51.343Z</time></trkpt><trkpt lat="44.8401299" lon="9.8511311"><ele>185.0</ele><time>2026-04-19T14:06:52.354Z</time></trkpt><trkpt lat="44.8402107" lon="9.8513493"><ele>184.0</ele><time>2026-04-19T14:06:53.337Z</time></trkpt><trkpt lat="44.8402959" lon="9.8515628"><ele>184.66666666666669</ele><time>2026-04-19T14:06:54.346Z</time></trkpt><trkpt lat="44.8403704" lon="9.8517828"><ele>185.33333333333334</ele><time>2026-04-19T14:06:55.347Z</time></trkpt><trkpt lat="44.8404441" lon="9.8519872"><ele>186.0</ele><time>2026-04-19T14:06:56.337Z</time></trkpt><trkpt lat="44.8405224" lon="9.8521922"><ele>186.0</ele><time>2026-04-19T14:06:57.361Z</time></trkpt><trkpt lat="44.8406044" lon="9.8523948"><ele>186.0</ele><time>2026-04-19T14:06:58.35Z</time></trkpt><trkpt lat="44.8406975" lon="9.8525878"><ele>186.0</ele><time>2026-04-19T14:06:59.344Z</time></trkpt><trkpt lat="44.8408137" lon="9.8527679"><ele>183.33333333333334</ele><time>2026-04-19T14:07:00.346Z</time></trkpt><trkpt lat="44.8409369" lon="9.8529464"><ele>180.66666666666669</ele><time>2026-04-19T14:07:01.353Z</time></trkpt><trkpt lat="44.8410614" lon="9.853112"><ele>178.0</ele><time>2026-04-19T14:07:02.347Z</time></trkpt><trkpt lat="44.8411924" lon="9.85328"><ele>178.0</ele><time>2026-04-19T14:07:03.346Z</time></trkpt><trkpt lat="44.8413222" lon="9.8534505"><ele>178.0</ele><time>2026-04-19T14:07:04.324Z</time></trkpt><trkpt lat="44.8414499" lon="9.8536254"><ele>178.0</ele><time>2026-04-19T14:07:05.337Z</time></trkpt><trkpt lat="44.8415773" lon="9.8537974"><ele>177.0</ele><time>2026-04-19T14:07:06.327Z</time></trkpt><trkpt lat="44.8417049" lon="9.8539709"><ele>176.0</ele><time>2026-04-19T14:07:07.343Z</time></trkpt><trkpt lat="44.8418334" lon="9.8541402"><ele>175.0</ele><time>2026-04-19T14:07:08.343Z</time></trkpt><trkpt lat="44.8419585" lon="9.8543156"><ele>175.0</ele><time>2026-04-19T14:07:09.355Z</time></trkpt><trkpt lat="44.8420863" lon="9.8544948"><ele>175.0</ele><time>2026-04-19T14:07:10.331Z</time></trkpt><trkpt lat="44.8422115" lon="9.8546694"><ele>175.0</ele><time>2026-04-19T14:07:11.35Z</time></trkpt><trkpt lat="44.8423389" lon="9.8548357"><ele>175.0</ele><time>2026-04-19T14:07:12.334Z</time></trkpt><trkpt lat="44.8424676" lon="9.8550105"><ele>175.0</ele><time>2026-04-19T14:07:13.34Z</time></trkpt><trkpt lat="44.8425994" lon="9.8551788"><ele>175.0</ele><time>2026-04-19T14:07:14.346Z</time></trkpt><trkpt lat="44.8427286" lon="9.8553407"><ele>175.66666666666669</ele><time>2026-04-19T14:07:15.349Z</time></trkpt><trkpt lat="44.8428562" lon="9.8555055"><ele>176.33333333333334</ele><time>2026-04-19T14:07:16.332Z</time></trkpt><trkpt lat="44.8429842" lon="9.8556671"><ele>177.0</ele><time>2026-04-19T14:07:17.354Z</time></trkpt><trkpt lat="44.843112" lon="9.8558365"><ele>175.33333333333334</ele><time>2026-04-19T14:07:18.363Z</time></trkpt><trkpt lat="44.8432409" lon="9.8560012"><ele>173.66666666666669</ele><time>2026-04-19T14:07:19.34Z</time></trkpt><trkpt lat="44.8433639" lon="9.8561684"><ele>172.0</ele><time>2026-04-19T14:07:20.339Z</time></trkpt><trkpt lat="44.8434885" lon="9.8563362"><ele>173.5</ele><time>2026-04-19T14:07:21.349Z</time></trkpt><trkpt lat="44.843738" lon="9.8566638"><ele>175.0</ele><time>2026-04-19T14:07:23.334Z</time></trkpt><trkpt lat="44.8438635" lon="9.8568359"><ele>175.0</ele><time>2026-04-19T14:07:24.362Z</time></trkpt><trkpt lat="44.8439909" lon="9.8570088"><ele>175.0</ele><time>2026-04-19T14:07:25.341Z</time></trkpt><trkpt lat="44.8441163" lon="9.857176"><ele>175.0</ele><time>2026-04-19T14:07:26.342Z</time></trkpt><trkpt lat="44.8442398" lon="9.8573439"><ele>176.0</ele><time>2026-04-19T14:07:27.342Z</time></trkpt><trkpt lat="44.8443665" lon="9.8575155"><ele>177.0</ele><time>2026-04-19T14:07:28.329Z</time></trkpt><trkpt lat="44.8444881" lon="9.857679"><ele>178.0</ele><time>2026-04-19T14:07:29.34Z</time></trkpt><trkpt lat="44.8446143" lon="9.8578535"><ele>178.0</ele><time>2026-04-19T14:07:30.346Z</time></trkpt><trkpt lat="44.8447427" lon="9.8580257"><ele>178.0</ele><time>2026-04-19T14:07:31.314Z</time></trkpt><trkpt lat="44.84487" lon="9.858195"><ele>178.0</ele><time>2026-04-19T14:07:32.348Z</time></trkpt><trkpt lat="44.8449938" lon="9.8583607"><ele>179.0</ele><time>2026-04-19T14:07:33.353Z</time></trkpt><trkpt lat="44.8451181" lon="9.8585359"><ele>180.0</ele><time>2026-04-19T14:07:34.339Z</time></trkpt><trkpt lat="44.8452422" lon="9.8587055"><ele>181.0</ele><time>2026-04-19T14:07:35.355Z</time></trkpt><trkpt lat="44.8453644" lon="9.8588662"><ele>181.0</ele><time>2026-04-19T14:07:36.343Z</time></trkpt><trkpt lat="44.8454825" lon="9.8590319"><ele>181.0</ele><time>2026-04-19T14:07:37.346Z</time></trkpt><trkpt lat="44.8455982" lon="9.8591978"><ele>181.0</ele><time>2026-04-19T14:07:38.341Z</time></trkpt><trkpt lat="44.8457129" lon="9.8593624"><ele>182.66666666666669</ele><time>2026-04-19T14:07:39.345Z</time></trkpt><trkpt lat="44.8458251" lon="9.8595315"><ele>184.33333333333334</ele><time>2026-04-19T14:07:40.341Z</time></trkpt><trkpt lat="44.8459364" lon="9.8597125"><ele>186.0</ele><time>2026-04-19T14:07:41.358Z</time></trkpt><trkpt lat="44.8460485" lon="9.8598843"><ele>186.0</ele><time>2026-04-19T14:07:42.348Z</time></trkpt><trkpt lat="44.8461597" lon="9.8600606"><ele>186.0</ele><time>2026-04-19T14:07:43.349Z</time></trkpt><trkpt lat="44.8462687" lon="9.8602437"><ele>186.0</ele><time>2026-04-19T14:07:44.323Z</time></trkpt><trkpt lat="44.8463793" lon="9.8604195"><ele>181.66666666666666</ele><time>2026-04-19T14:07:45.365Z</time></trkpt><trkpt lat="44.8464895" lon="9.8605883"><ele>177.33333333333331</ele><time>2026-04-19T14:07:46.337Z</time></trkpt><trkpt lat="44.8466018" lon="9.8607567"><ele>173.0</ele><time>2026-04-19T14:07:47.343Z</time></trkpt><trkpt lat="44.8467155" lon="9.8609258"><ele>175.66666666666666</ele><time>2026-04-19T14:07:48.343Z</time></trkpt><trkpt lat="44.8468303" lon="9.8611072"><ele>178.33333333333334</ele><time>2026-04-19T14:07:49.337Z</time></trkpt><trkpt lat="44.8469386" lon="9.8612896"><ele>181.0</ele><time>2026-04-19T14:07:50.34Z</time></trkpt><trkpt lat="44.8470433" lon="9.8614719"><ele>181.0</ele><time>2026-04-19T14:07:51.355Z</time></trkpt><trkpt lat="44.8471517" lon="9.8616589"><ele>181.0</ele><time>2026-04-19T14:07:52.348Z</time></trkpt><trkpt lat="44.8472515" lon="9.8618482"><ele>181.0</ele><time>2026-04-19T14:07:53.356Z</time></trkpt><trkpt lat="44.8473448" lon="9.8620443"><ele>178.33333333333334</ele><time>2026-04-19T14:07:54.352Z</time></trkpt><trkpt lat="44.847432" lon="9.8622436"><ele>175.66666666666666</ele><time>2026-04-19T14:07:55.331Z</time></trkpt><trkpt lat="44.8475203" lon="9.8624466"><ele>173.0</ele><time>2026-04-19T14:07:56.331Z</time></trkpt><trkpt lat="44.847608" lon="9.862645"><ele>177.33333333333331</ele><time>2026-04-19T14:07:57.355Z</time></trkpt><trkpt lat="44.8476998" lon="9.8628591"><ele>181.66666666666666</ele><time>2026-04-19T14:07:58.355Z</time></trkpt><trkpt lat="44.8477876" lon="9.8630741"><ele>186.0</ele><time>2026-04-19T14:07:59.34Z</time></trkpt><trkpt lat="44.847879" lon="9.8632843"><ele>182.33333333333334</ele><time>2026-04-19T14:08:00.346Z</time></trkpt><trkpt lat="44.8479659" lon="9.8634941"><ele>178.66666666666669</ele><time>2026-04-19T14:08:01.341Z</time></trkpt><trkpt lat="44.848048" lon="9.8636964"><ele>175.0</ele><time>2026-04-19T14:08:02.346Z</time></trkpt><trkpt lat="44.848138" lon="9.8638941"><ele>175.0</ele><time>2026-04-19T14:08:03.346Z</time></trkpt><trkpt lat="44.8482273" lon="9.8640935"><ele>175.0</ele><time>2026-04-19T14:08:04.343Z</time></trkpt><trkpt lat="44.8483142" lon="9.8643018"><ele>175.0</ele><time>2026-04-19T14:08:05.349Z</time></trkpt><trkpt lat="44.8484067" lon="9.8645084"><ele>182.33333333333334</ele><time>2026-04-19T14:08:06.355Z</time></trkpt><trkpt lat="44.8484883" lon="9.864709"><ele>189.66666666666669</ele><time>2026-04-19T14:08:07.333Z</time></trkpt><trkpt lat="44.8485729" lon="9.8649011"><ele>197.0</ele><time>2026-04-19T14:08:08.345Z</time></trkpt><trkpt lat="44.8486495" lon="9.8650991"><ele>192.0</ele><time>2026-04-19T14:08:09.346Z</time></trkpt><trkpt lat="44.8487302" lon="9.865296"><ele>187.0</ele><time>2026-04-19T14:08:10.354Z</time></trkpt><trkpt lat="44.8488141" lon="9.8654813"><ele>182.0</ele><time>2026-04-19T14:08:11.337Z</time></trkpt><trkpt lat="44.848901" lon="9.8656663"><ele>182.0</ele><time>2026-04-19T14:08:12.343Z</time></trkpt><trkpt lat="44.8489822" lon="9.8658578"><ele>182.0</ele><time>2026-04-19T14:08:13.345Z</time></trkpt><trkpt lat="44.8490571" lon="9.8660525"><ele>182.0</ele><time>2026-04-19T14:08:14.34Z</time></trkpt><trkpt lat="44.8491264" lon="9.8662516"><ele>185.66666666666666</ele><time>2026-04-19T14:08:15.35Z</time></trkpt><trkpt lat="44.8491964" lon="9.866452"><ele>189.33333333333331</ele><time>2026-04-19T14:08:16.356Z</time></trkpt><trkpt lat="44.8492617" lon="9.8666499"><ele>193.0</ele><time>2026-04-19T14:08:17.343Z</time></trkpt><trkpt lat="44.8493318" lon="9.866853"><ele>193.0</ele><time>2026-04-19T14:08:18.342Z</time></trkpt><trkpt lat="44.8494023" lon="9.8670551"><ele>193.0</ele><time>2026-04-19T14:08:19.34Z</time></trkpt><trkpt lat="44.8494776" lon="9.8672482"><ele>193.0</ele><time>2026-04-19T14:08:20.355Z</time></trkpt><trkpt lat="44.8495662" lon="9.8674323"><ele>187.0</ele><time>2026-04-19T14:08:21.364Z</time></trkpt><trkpt lat="44.8496606" lon="9.8676189"><ele>181.0</ele><time>2026-04-19T14:08:22.349Z</time></trkpt><trkpt lat="44.8497641" lon="9.8677982"><ele>175.0</ele><time>2026-04-19T14:08:23.34Z</time></trkpt><trkpt lat="44.8498693" lon="9.8679664"><ele>175.0</ele><time>2026-04-19T14:08:24.359Z</time></trkpt><trkpt lat="44.8499775" lon="9.8681365"><ele>175.0</ele><time>2026-04-19T14:08:25.332Z</time></trkpt><trkpt lat="44.8500821" lon="9.8683246"><ele>175.0</ele><time>2026-04-19T14:08:26.345Z</time></trkpt><trkpt lat="44.8501863" lon="9.8685132"><ele>175.66666666666669</ele><time>2026-04-19T14:08:27.348Z</time></trkpt><trkpt lat="44.8502883" lon="9.8686949"><ele>176.33333333333334</ele><time>2026-04-19T14:08:28.352Z</time></trkpt><trkpt lat="44.8503871" lon="9.8688743"><ele>177.0</ele><time>2026-04-19T14:08:29.354Z</time></trkpt><trkpt lat="44.8504853" lon="9.8690517"><ele>177.0</ele><time>2026-04-19T14:08:30.323Z</time></trkpt><trkpt lat="44.8505763" lon="9.8692289"><ele>177.0</ele><time>2026-04-19T14:08:31.339Z</time></trkpt><trkpt lat="44.8506631" lon="9.8694021"><ele>177.0</ele><time>2026-04-19T14:08:32.349Z</time></trkpt><trkpt lat="44.8507485" lon="9.8695638"><ele>177.0</ele><time>2026-04-19T14:08:33.312Z</time></trkpt><trkpt lat="44.8508279" lon="9.8697109"><ele>174.5</ele><time>2026-04-19T14:08:34.346Z</time></trkpt><trkpt lat="44.8509076" lon="9.8698486"><ele>172.0</ele><time>2026-04-19T14:08:35.326Z</time></trkpt><trkpt lat="44.8509899" lon="9.869989"><ele>169.5</ele><time>2026-04-19T14:08:36.356Z</time></trkpt><trkpt lat="44.8510732" lon="9.8701175"><ele>167.0</ele><time>2026-04-19T14:08:37.351Z</time></trkpt><trkpt lat="44.8511701" lon="9.8702397"><ele>165.75</ele><time>2026-04-19T14:08:38.35Z</time></trkpt><trkpt lat="44.8512676" lon="9.8703593"><ele>164.5</ele><time>2026-04-19T14:08:39.353Z</time></trkpt><trkpt lat="44.8513772" lon="9.8704671"><ele>163.25</ele><time>2026-04-19T14:08:40.34Z</time></trkpt><trkpt lat="44.8514837" lon="9.8705629"><ele>162.0</ele><time>2026-04-19T14:08:41.364Z</time></trkpt><trkpt lat="44.8515782" lon="9.8706491"><ele>162.0</ele><time>2026-04-19T14:08:42.361Z</time></trkpt><trkpt lat="44.8516633" lon="9.8707365"><ele>162.0</ele><time>2026-04-19T14:08:43.357Z</time></trkpt><trkpt lat="44.8517406" lon="9.8708146"><ele>162.0</ele><time>2026-04-19T14:08:44.351Z</time></trkpt><trkpt lat="44.8518111" lon="9.8708761"><ele>162.0</ele><time>2026-04-19T14:08:45.333Z</time></trkpt><trkpt lat="44.8518727" lon="9.8709338"><ele>162.0</ele><time>2026-04-19T14:08:46.345Z</time></trkpt><trkpt lat="44.8519324" lon="9.8709852"><ele>162.0</ele><time>2026-04-19T14:08:47.333Z</time></trkpt><trkpt lat="44.8520428" lon="9.8710849"><ele>161.66666666666666</ele><time>2026-04-19T14:08:49.349Z</time></trkpt><trkpt lat="44.8520981" lon="9.8711427"><ele>161.33333333333334</ele><time>2026-04-19T14:08:50.355Z</time></trkpt><trkpt lat="44.8521556" lon="9.8712167"><ele>161.0</ele><time>2026-04-19T14:08:51.358Z</time></trkpt><trkpt lat="44.8522101" lon="9.8712717"><ele>160.66666666666669</ele><time>2026-04-19T14:08:52.325Z</time></trkpt><trkpt lat="44.8522604" lon="9.8713285"><ele>160.33333333333334</ele><time>2026-04-19T14:08:53.342Z</time></trkpt><trkpt lat="44.8523523" lon="9.8714187"><ele>160.0</ele><time>2026-04-19T14:08:55.349Z</time></trkpt><trkpt lat="44.8524276" lon="9.8715015"><ele>160.0</ele><time>2026-04-19T14:08:57.34Z</time></trkpt><trkpt lat="44.8524881" lon="9.8715565"><ele>160.0</ele><time>2026-04-19T14:08:59.351Z</time></trkpt><trkpt lat="44.8525448" lon="9.8716125"><ele>160.0</ele><time>2026-04-19T14:09:02.362Z</time></trkpt><trkpt lat="44.8526151" lon="9.8716725"><ele>160.0</ele><time>2026-04-19T14:09:05.352Z</time></trkpt><trkpt lat="44.8526888" lon="9.8717438"><ele>160.0</ele><time>2026-04-19T14:09:08.351Z</time></trkpt><trkpt lat="44.8527513" lon="9.8718283"><ele>160.0</ele><time>2026-04-19T14:09:38.319Z</time></trkpt><trkpt lat="44.8528125" lon="9.8718928"><ele>159.5</ele><time>2026-04-19T14:09:40.342Z</time></trkpt><trkpt lat="44.8528798" lon="9.8719593"><ele>159.0</ele><time>2026-04-19T14:09:42.348Z</time></trkpt><trkpt lat="44.852941" lon="9.872015"><ele>158.5</ele><time>2026-04-19T14:09:44.353Z</time></trkpt><trkpt lat="44.8529948" lon="9.8720943"><ele>158.0</ele><time>2026-04-19T14:09:46.352Z</time></trkpt><trkpt lat="44.8530437" lon="9.8722073"><ele>157.5</ele><time>2026-04-19T14:09:48.322Z</time></trkpt><trkpt lat="44.8530467" lon="9.8723325"><ele>157.0</ele><time>2026-04-19T14:09:50.34Z</time></trkpt><trkpt lat="44.8530186" lon="9.8724865"><ele>156.83333333333334</ele><time>2026-04-19T14:09:52.349Z</time></trkpt><trkpt lat="44.8529889" lon="9.8726256"><ele>156.66666666666669</ele><time>2026-04-19T14:09:54.348Z</time></trkpt><trkpt lat="44.8529633" lon="9.872763"><ele>156.5</ele><time>2026-04-19T14:09:56.36Z</time></trkpt><trkpt lat="44.852934" lon="9.8729212"><ele>156.33333333333334</ele><time>2026-04-19T14:09:58.353Z</time></trkpt><trkpt lat="44.8529205" lon="9.873009"><ele>156.16666666666666</ele><time>2026-04-19T14:09:59.366Z</time></trkpt><trkpt lat="44.8529054" lon="9.8730988"><ele>156.0</ele><time>2026-04-19T14:10:00.357Z</time></trkpt><trkpt lat="44.852886" lon="9.8731954"><ele>156.0</ele><time>2026-04-19T14:10:01.359Z</time></trkpt><trkpt lat="44.8528626" lon="9.8733038"><ele>156.0</ele><time>2026-04-19T14:10:02.344Z</time></trkpt><trkpt lat="44.8528415" lon="9.873424"><ele>156.0</ele><time>2026-04-19T14:10:03.373Z</time></trkpt><trkpt lat="44.8528215" lon="9.8735433"><ele>156.0</ele><time>2026-04-19T14:10:04.358Z</time></trkpt><trkpt lat="44.852796" lon="9.8736682"><ele>156.0</ele><time>2026-04-19T14:10:05.354Z</time></trkpt><trkpt lat="44.8527715" lon="9.8737933"><ele>156.0</ele><time>2026-04-19T14:10:06.356Z</time></trkpt><trkpt lat="44.8527458" lon="9.8739245"><ele>157.0</ele><time>2026-04-19T14:10:07.358Z</time></trkpt><trkpt lat="44.8527199" lon="9.8740628"><ele>158.0</ele><time>2026-04-19T14:10:08.35Z</time></trkpt><trkpt lat="44.8526911" lon="9.8742061"><ele>159.0</ele><time>2026-04-19T14:10:09.337Z</time></trkpt><trkpt lat="44.8526604" lon="9.874354"><ele>160.0</ele><time>2026-04-19T14:10:10.341Z</time></trkpt><trkpt lat="44.8526343" lon="9.8744998"><ele>161.0</ele><time>2026-04-19T14:10:11.359Z</time></trkpt><trkpt lat="44.8526103" lon="9.8746511"><ele>162.25</ele><time>2026-04-19T14:10:12.35Z</time></trkpt><trkpt lat="44.8525842" lon="9.8748113"><ele>163.5</ele><time>2026-04-19T14:10:13.353Z</time></trkpt><trkpt lat="44.8525507" lon="9.8749702"><ele>164.75</ele><time>2026-04-19T14:10:14.355Z</time></trkpt><trkpt lat="44.8525211" lon="9.8751289"><ele>166.0</ele><time>2026-04-19T14:10:15.36Z</time></trkpt><trkpt lat="44.8524891" lon="9.8752883"><ele>166.0</ele><time>2026-04-19T14:10:16.349Z</time></trkpt><trkpt lat="44.8524635" lon="9.8754478"><ele>166.0</ele><time>2026-04-19T14:10:17.357Z</time></trkpt><trkpt lat="44.8524354" lon="9.8756036"><ele>166.0</ele><time>2026-04-19T14:10:18.356Z</time></trkpt><trkpt lat="44.8524041" lon="9.8757478"><ele>166.0</ele><time>2026-04-19T14:10:19.345Z</time></trkpt><trkpt lat="44.8523754" lon="9.8758949"><ele>166.0</ele><time>2026-04-19T14:10:20.363Z</time></trkpt><trkpt lat="44.85235" lon="9.8760444"><ele>165.8</ele><time>2026-04-19T14:10:21.355Z</time></trkpt><trkpt lat="44.8523311" lon="9.8761954"><ele>165.60000000000002</ele><time>2026-04-19T14:10:22.362Z</time></trkpt><trkpt lat="44.8523204" lon="9.876338"><ele>165.4</ele><time>2026-04-19T14:10:23.359Z</time></trkpt><trkpt lat="44.8523228" lon="9.8764759"><ele>165.2</ele><time>2026-04-19T14:10:24.358Z</time></trkpt><trkpt lat="44.8523361" lon="9.8766153"><ele>165.0</ele><time>2026-04-19T14:10:25.34Z</time></trkpt><trkpt lat="44.8523503" lon="9.8767333"><ele>164.83333333333334</ele><time>2026-04-19T14:10:26.357Z</time></trkpt><trkpt lat="44.8523682" lon="9.8768371"><ele>164.66666666666666</ele><time>2026-04-19T14:10:27.389Z</time></trkpt><trkpt lat="44.8523703" lon="9.876931"><ele>164.5</ele><time>2026-04-19T14:10:28.352Z</time></trkpt><trkpt lat="44.8523871" lon="9.8770538"><ele>164.33333333333331</ele><time>2026-04-19T14:10:30.355Z</time></trkpt><trkpt lat="44.8523747" lon="9.8771752"><ele>164.16666666666666</ele><time>2026-04-19T14:10:32.346Z</time></trkpt><trkpt lat="44.8523665" lon="9.8773285"><ele>164.0</ele><time>2026-04-19T14:10:34.353Z</time></trkpt><trkpt lat="44.8524165" lon="9.8774885"><ele>164.0</ele><time>2026-04-19T14:10:36.361Z</time></trkpt><trkpt lat="44.852477" lon="9.8775497"><ele>164.0</ele><time>2026-04-19T14:10:37.349Z</time></trkpt><trkpt lat="44.8525488" lon="9.8776239"><ele>164.0</ele><time>2026-04-19T14:10:38.363Z</time></trkpt><trkpt lat="44.8526207" lon="9.8777182"><ele>164.0</ele><time>2026-04-19T14:10:39.344Z</time></trkpt><trkpt lat="44.8526901" lon="9.8778319"><ele>164.0</ele><time>2026-04-19T14:10:40.342Z</time></trkpt><trkpt lat="44.8527601" lon="9.8779424"><ele>164.75</ele><time>2026-04-19T14:10:41.364Z</time></trkpt><trkpt lat="44.8528377" lon="9.8780551"><ele>165.5</ele><time>2026-04-19T14:10:42.361Z</time></trkpt><trkpt lat="44.8529324" lon="9.8781549"><ele>166.25</ele><time>2026-04-19T14:10:43.331Z</time></trkpt><trkpt lat="44.8530317" lon="9.8782705"><ele>167.0</ele><time>2026-04-19T14:10:44.349Z</time></trkpt><trkpt lat="44.8531369" lon="9.8783854"><ele>167.0</ele><time>2026-04-19T14:10:45.355Z</time></trkpt><trkpt lat="44.8532426" lon="9.8785031"><ele>167.0</ele><time>2026-04-19T14:10:46.363Z</time></trkpt><trkpt lat="44.8533512" lon="9.8786217"><ele>167.0</ele><time>2026-04-19T14:10:47.319Z</time></trkpt><trkpt lat="44.8534651" lon="9.8787337"><ele>167.0</ele><time>2026-04-19T14:10:48.351Z</time></trkpt><trkpt lat="44.8535788" lon="9.8788492"><ele>165.75</ele><time>2026-04-19T14:10:49.364Z</time></trkpt><trkpt lat="44.8536914" lon="9.8789661"><ele>164.5</ele><time>2026-04-19T14:10:50.318Z</time></trkpt><trkpt lat="44.853809" lon="9.8790781"><ele>163.25</ele><time>2026-04-19T14:10:51.316Z</time></trkpt><trkpt lat="44.8539317" lon="9.8791867"><ele>162.0</ele><time>2026-04-19T14:10:52.425Z</time></trkpt><trkpt lat="44.8540636" lon="9.879292"><ele>162.0</ele><time>2026-04-19T14:10:53.407Z</time></trkpt><trkpt lat="44.8542017" lon="9.8793932"><ele>162.0</ele><time>2026-04-19T14:10:54.412Z</time></trkpt><trkpt lat="44.8543376" lon="9.8794997"><ele>162.0</ele><time>2026-04-19T14:10:55.406Z</time></trkpt><trkpt lat="44.8544677" lon="9.879597"><ele>162.0</ele><time>2026-04-19T14:10:56.414Z</time></trkpt><trkpt lat="44.8545941" lon="9.8796943"><ele>162.0</ele><time>2026-04-19T14:10:57.355Z</time></trkpt><trkpt lat="44.8547213" lon="9.87979"><ele>162.0</ele><time>2026-04-19T14:10:58.365Z</time></trkpt><trkpt lat="44.8548432" lon="9.8798813"><ele>162.0</ele><time>2026-04-19T14:10:59.391Z</time></trkpt><trkpt lat="44.8549655" lon="9.8799686"><ele>162.0</ele><time>2026-04-19T14:11:00.378Z</time></trkpt><trkpt lat="44.8550758" lon="9.8800585"><ele>162.0</ele><time>2026-04-19T14:11:01.425Z</time></trkpt><trkpt lat="44.8551849" lon="9.880144"><ele>162.0</ele><time>2026-04-19T14:11:02.424Z</time></trkpt><trkpt lat="44.8552977" lon="9.8802269"><ele>162.0</ele><time>2026-04-19T14:11:03.397Z</time></trkpt><trkpt lat="44.8554122" lon="9.8803147"><ele>162.0</ele><time>2026-04-19T14:11:04.417Z</time></trkpt><trkpt lat="44.8555226" lon="9.8803987"><ele>162.0</ele><time>2026-04-19T14:11:05.408Z</time></trkpt><trkpt lat="44.8556335" lon="9.8804833"><ele>162.0</ele><time>2026-04-19T14:11:06.415Z</time></trkpt><trkpt lat="44.855746" lon="9.8805641"><ele>162.0</ele><time>2026-04-19T14:11:07.417Z</time></trkpt><trkpt lat="44.8558543" lon="9.8806516"><ele>161.75</ele><time>2026-04-19T14:11:08.413Z</time></trkpt><trkpt lat="44.8559672" lon="9.8807424"><ele>161.5</ele><time>2026-04-19T14:11:09.424Z</time></trkpt><trkpt lat="44.8560788" lon="9.8808315"><ele>161.25</ele><time>2026-04-19T14:11:10.412Z</time></trkpt><trkpt lat="44.8561963" lon="9.8809156"><ele>161.0</ele><time>2026-04-19T14:11:11.418Z</time></trkpt><trkpt lat="44.8563187" lon="9.8810062"><ele>161.0</ele><time>2026-04-19T14:11:12.426Z</time></trkpt><trkpt lat="44.856446" lon="9.8811045"><ele>161.0</ele><time>2026-04-19T14:11:13.385Z</time></trkpt><trkpt lat="44.856574" lon="9.8811941"><ele>161.0</ele><time>2026-04-19T14:11:14.356Z</time></trkpt><trkpt lat="44.8567073" lon="9.8812913"><ele>161.0</ele><time>2026-04-19T14:11:15.407Z</time></trkpt><trkpt lat="44.8568434" lon="9.8813889"><ele>160.75</ele><time>2026-04-19T14:11:16.411Z</time></trkpt><trkpt lat="44.8569802" lon="9.8814803"><ele>160.5</ele><time>2026-04-19T14:11:17.425Z</time></trkpt><trkpt lat="44.8571152" lon="9.8815689"><ele>160.25</ele><time>2026-04-19T14:11:18.405Z</time></trkpt><trkpt lat="44.8572503" lon="9.8816527"><ele>160.0</ele><time>2026-04-19T14:11:19.422Z</time></trkpt><trkpt lat="44.8573826" lon="9.8817398"><ele>159.75</ele><time>2026-04-19T14:11:20.403Z</time></trkpt><trkpt lat="44.8575141" lon="9.88183"><ele>159.5</ele><time>2026-04-19T14:11:21.395Z</time></trkpt><trkpt lat="44.8576482" lon="9.8819133"><ele>159.25</ele><time>2026-04-19T14:11:22.38Z</time></trkpt><trkpt lat="44.8577781" lon="9.8820003"><ele>159.0</ele><time>2026-04-19T14:11:23.402Z</time></trkpt><trkpt lat="44.8579093" lon="9.8820927"><ele>159.0</ele><time>2026-04-19T14:11:24.408Z</time></trkpt><trkpt lat="44.8580444" lon="9.8821791"><ele>159.0</ele><time>2026-04-19T14:11:25.406Z</time></trkpt><trkpt lat="44.8581773" lon="9.8822773"><ele>159.0</ele><time>2026-04-19T14:11:26.424Z</time></trkpt><trkpt lat="44.8583116" lon="9.8823717"><ele>159.0</ele><time>2026-04-19T14:11:27.407Z</time></trkpt><trkpt lat="44.8584513" lon="9.8824691"><ele>158.33333333333334</ele><time>2026-04-19T14:11:28.416Z</time></trkpt><trkpt lat="44.8585877" lon="9.8825606"><ele>157.66666666666669</ele><time>2026-04-19T14:11:29.407Z</time></trkpt><trkpt lat="44.858725" lon="9.882657"><ele>157.0</ele><time>2026-04-19T14:11:30.406Z</time></trkpt><trkpt lat="44.8588659" lon="9.8827578"><ele>156.75</ele><time>2026-04-19T14:11:31.391Z</time></trkpt><trkpt lat="44.8590047" lon="9.8828567"><ele>156.5</ele><time>2026-04-19T14:11:32.409Z</time></trkpt><trkpt lat="44.8591387" lon="9.8829509"><ele>156.25</ele><time>2026-04-19T14:11:33.403Z</time></trkpt><trkpt lat="44.8592559" lon="9.8830308"><ele>156.0</ele><time>2026-04-19T14:11:34.417Z</time></trkpt><trkpt lat="44.8593491" lon="9.8830957"><ele>155.83333333333334</ele><time>2026-04-19T14:11:35.405Z</time></trkpt><trkpt lat="44.8594359" lon="9.8831467"><ele>155.66666666666666</ele><time>2026-04-19T14:11:36.422Z</time></trkpt><trkpt lat="44.8595033" lon="9.8832012"><ele>155.5</ele><time>2026-04-19T14:11:37.408Z</time></trkpt><trkpt lat="44.8595723" lon="9.8832429"><ele>155.33333333333331</ele><time>2026-04-19T14:11:38.409Z</time></trkpt><trkpt lat="44.8596418" lon="9.8832861"><ele>155.16666666666666</ele><time>2026-04-19T14:11:39.405Z</time></trkpt><trkpt lat="44.8597162" lon="9.8833447"><ele>155.0</ele><time>2026-04-19T14:11:40.41Z</time></trkpt><trkpt lat="44.8598068" lon="9.8833946"><ele>155.25</ele><time>2026-04-19T14:11:41.412Z</time></trkpt><trkpt lat="44.8599045" lon="9.8834661"><ele>155.5</ele><time>2026-04-19T14:11:42.421Z</time></trkpt><trkpt lat="44.8600057" lon="9.8835311"><ele>155.75</ele><time>2026-04-19T14:11:43.41Z</time></trkpt><trkpt lat="44.8601104" lon="9.8836021"><ele>156.0</ele><time>2026-04-19T14:11:44.412Z</time></trkpt><trkpt lat="44.8602204" lon="9.8836839"><ele>156.25</ele><time>2026-04-19T14:11:45.426Z</time></trkpt><trkpt lat="44.86034" lon="9.8837656"><ele>156.5</ele><time>2026-04-19T14:11:46.408Z</time></trkpt><trkpt lat="44.8604594" lon="9.8838434"><ele>156.75</ele><time>2026-04-19T14:11:47.415Z</time></trkpt><trkpt lat="44.8605849" lon="9.8839209"><ele>157.0</ele><time>2026-04-19T14:11:48.412Z</time></trkpt><trkpt lat="44.8607147" lon="9.8840071"><ele>157.0</ele><time>2026-04-19T14:11:49.427Z</time></trkpt><trkpt lat="44.8608389" lon="9.8840977"><ele>157.0</ele><time>2026-04-19T14:11:50.41Z</time></trkpt><trkpt lat="44.8609661" lon="9.8841885"><ele>157.0</ele><time>2026-04-19T14:11:51.407Z</time></trkpt><trkpt lat="44.8610968" lon="9.8842887"><ele>157.0</ele><time>2026-04-19T14:11:52.375Z</time></trkpt><trkpt lat="44.8612281" lon="9.8843836"><ele>156.0</ele><time>2026-04-19T14:11:53.412Z</time></trkpt><trkpt lat="44.8613631" lon="9.8844698"><ele>155.0</ele><time>2026-04-19T14:11:54.409Z</time></trkpt><trkpt lat="44.8614981" lon="9.8845484"><ele>154.0</ele><time>2026-04-19T14:11:55.418Z</time></trkpt><trkpt lat="44.8616388" lon="9.884612"><ele>153.0</ele><time>2026-04-19T14:11:56.377Z</time></trkpt><trkpt lat="44.861791" lon="9.8846665"><ele>152.33333333333334</ele><time>2026-04-19T14:11:57.359Z</time></trkpt><trkpt lat="44.8619433" lon="9.8847212"><ele>151.66666666666669</ele><time>2026-04-19T14:11:58.368Z</time></trkpt><trkpt lat="44.8620952" lon="9.8847764"><ele>151.0</ele><time>2026-04-19T14:11:59.405Z</time></trkpt><trkpt lat="44.8622465" lon="9.8848427"><ele>151.0</ele><time>2026-04-19T14:12:00.41Z</time></trkpt><trkpt lat="44.8624032" lon="9.8849044"><ele>151.0</ele><time>2026-04-19T14:12:01.409Z</time></trkpt><trkpt lat="44.8625621" lon="9.8849698"><ele>151.0</ele><time>2026-04-19T14:12:02.375Z</time></trkpt><trkpt lat="44.8627216" lon="9.8850306"><ele>150.33333333333334</ele><time>2026-04-19T14:12:03.412Z</time></trkpt><trkpt lat="44.8628786" lon="9.8850957"><ele>149.66666666666666</ele><time>2026-04-19T14:12:04.421Z</time></trkpt><trkpt lat="44.8630279" lon="9.8851655"><ele>149.0</ele><time>2026-04-19T14:12:05.404Z</time></trkpt><trkpt lat="44.863184" lon="9.8852454"><ele>148.66666666666666</ele><time>2026-04-19T14:12:06.413Z</time></trkpt><trkpt lat="44.8633338" lon="9.8853258"><ele>148.33333333333334</ele><time>2026-04-19T14:12:07.383Z</time></trkpt><trkpt lat="44.8634826" lon="9.8854171"><ele>148.0</ele><time>2026-04-19T14:12:08.408Z</time></trkpt><trkpt lat="44.8636241" lon="9.885523"><ele>147.33333333333334</ele><time>2026-04-19T14:12:09.408Z</time></trkpt><trkpt lat="44.8637647" lon="9.8856308"><ele>146.66666666666666</ele><time>2026-04-19T14:12:10.409Z</time></trkpt><trkpt lat="44.8639068" lon="9.8857391"><ele>146.0</ele><time>2026-04-19T14:12:11.413Z</time></trkpt><trkpt lat="44.8640515" lon="9.8858541"><ele>147.0</ele><time>2026-04-19T14:12:12.419Z</time></trkpt><trkpt lat="44.8641941" lon="9.8859707"><ele>148.0</ele><time>2026-04-19T14:12:13.422Z</time></trkpt><trkpt lat="44.8643314" lon="9.886085"><ele>149.0</ele><time>2026-04-19T14:12:14.398Z</time></trkpt><trkpt lat="44.8644705" lon="9.8861962"><ele>149.33333333333331</ele><time>2026-04-19T14:12:15.413Z</time></trkpt><trkpt lat="44.8646108" lon="9.8863162"><ele>149.66666666666666</ele><time>2026-04-19T14:12:16.411Z</time></trkpt><trkpt lat="44.8647505" lon="9.8864334"><ele>150.0</ele><time>2026-04-19T14:12:17.413Z</time></trkpt><trkpt lat="44.8648866" lon="9.8865496"><ele>150.0</ele><time>2026-04-19T14:12:18.416Z</time></trkpt><trkpt lat="44.8650309" lon="9.8866718"><ele>150.0</ele><time>2026-04-19T14:12:19.411Z</time></trkpt><trkpt lat="44.865169" lon="9.8867977"><ele>150.0</ele><time>2026-04-19T14:12:20.405Z</time></trkpt><trkpt lat="44.8653127" lon="9.8869145"><ele>149.0</ele><time>2026-04-19T14:12:21.412Z</time></trkpt><trkpt lat="44.8654513" lon="9.8870237"><ele>148.0</ele><time>2026-04-19T14:12:22.415Z</time></trkpt><trkpt lat="44.8655902" lon="9.8871392"><ele>147.0</ele><time>2026-04-19T14:12:23.411Z</time></trkpt><trkpt lat="44.8657323" lon="9.8872552"><ele>147.0</ele><time>2026-04-19T14:12:24.422Z</time></trkpt><trkpt lat="44.865876" lon="9.8873719"><ele>147.0</ele><time>2026-04-19T14:12:25.388Z</time></trkpt><trkpt lat="44.8660187" lon="9.8874884"><ele>147.0</ele><time>2026-04-19T14:12:26.41Z</time></trkpt><trkpt lat="44.8661563" lon="9.8876055"><ele>146.66666666666666</ele><time>2026-04-19T14:12:27.39Z</time></trkpt><trkpt lat="44.8663" lon="9.887724"><ele>146.33333333333331</ele><time>2026-04-19T14:12:28.42Z</time></trkpt><trkpt lat="44.8664515" lon="9.8878358"><ele>146.0</ele><time>2026-04-19T14:12:29.391Z</time></trkpt><trkpt lat="44.8665995" lon="9.8879429"><ele>146.0</ele><time>2026-04-19T14:12:30.413Z</time></trkpt><trkpt lat="44.8667485" lon="9.8880491"><ele>146.0</ele><time>2026-04-19T14:12:31.419Z</time></trkpt><trkpt lat="44.8669" lon="9.8881499"><ele>146.0</ele><time>2026-04-19T14:12:32.41Z</time></trkpt><trkpt lat="44.8670595" lon="9.8882326"><ele>146.0</ele><time>2026-04-19T14:12:33.423Z</time></trkpt><trkpt lat="44.8672202" lon="9.8883079"><ele>146.0</ele><time>2026-04-19T14:12:34.417Z</time></trkpt><trkpt lat="44.8673774" lon="9.8883838"><ele>146.0</ele><time>2026-04-19T14:12:35.413Z</time></trkpt><trkpt lat="44.8675362" lon="9.8884484"><ele>145.33333333333331</ele><time>2026-04-19T14:12:36.422Z</time></trkpt><trkpt lat="44.8676995" lon="9.8885114"><ele>144.66666666666666</ele><time>2026-04-19T14:12:37.421Z</time></trkpt><trkpt lat="44.8678648" lon="9.888569"><ele>144.0</ele><time>2026-04-19T14:12:38.429Z</time></trkpt><trkpt lat="44.8680277" lon="9.888633"><ele>144.0</ele><time>2026-04-19T14:12:39.389Z</time></trkpt><trkpt lat="44.868182" lon="9.8886967"><ele>144.0</ele><time>2026-04-19T14:12:40.413Z</time></trkpt><trkpt lat="44.8683382" lon="9.8887601"><ele>144.0</ele><time>2026-04-19T14:12:41.431Z</time></trkpt><trkpt lat="44.8684965" lon="9.888822"><ele>142.33333333333334</ele><time>2026-04-19T14:12:42.424Z</time></trkpt><trkpt lat="44.8686562" lon="9.8888814"><ele>140.66666666666669</ele><time>2026-04-19T14:12:43.423Z</time></trkpt><trkpt lat="44.868817" lon="9.8889414"><ele>139.0</ele><time>2026-04-19T14:12:44.393Z</time></trkpt><trkpt lat="44.8689786" lon="9.8890058"><ele>139.0</ele><time>2026-04-19T14:12:45.42Z</time></trkpt><trkpt lat="44.8691353" lon="9.8890681"><ele>139.0</ele><time>2026-04-19T14:12:46.429Z</time></trkpt><trkpt lat="44.869295" lon="9.8891323"><ele>139.0</ele><time>2026-04-19T14:12:47.413Z</time></trkpt><trkpt lat="44.8694563" lon="9.8891923"><ele>139.33333333333334</ele><time>2026-04-19T14:12:48.427Z</time></trkpt><trkpt lat="44.8696164" lon="9.8892481"><ele>139.66666666666666</ele><time>2026-04-19T14:12:49.432Z</time></trkpt><trkpt lat="44.8697806" lon="9.8893115"><ele>140.0</ele><time>2026-04-19T14:12:50.396Z</time></trkpt><trkpt lat="44.8699446" lon="9.8893733"><ele>140.33333333333331</ele><time>2026-04-19T14:12:51.391Z</time></trkpt><trkpt lat="44.8701191" lon="9.8894554"><ele>140.66666666666666</ele><time>2026-04-19T14:12:52.399Z</time></trkpt><trkpt lat="44.8702816" lon="9.8895172"><ele>141.0</ele><time>2026-04-19T14:12:53.412Z</time></trkpt><trkpt lat="44.8704467" lon="9.8895812"><ele>141.0</ele><time>2026-04-19T14:12:54.426Z</time></trkpt><trkpt lat="44.8706101" lon="9.8896428"><ele>141.0</ele><time>2026-04-19T14:12:55.424Z</time></trkpt><trkpt lat="44.8707728" lon="9.8897027"><ele>141.0</ele><time>2026-04-19T14:12:56.423Z</time></trkpt><trkpt lat="44.8709293" lon="9.8897603"><ele>141.66666666666666</ele><time>2026-04-19T14:12:57.432Z</time></trkpt><trkpt lat="44.8710906" lon="9.8898217"><ele>142.33333333333331</ele><time>2026-04-19T14:12:58.426Z</time></trkpt><trkpt lat="44.8712508" lon="9.8898789"><ele>143.0</ele><time>2026-04-19T14:12:59.44Z</time></trkpt><trkpt lat="44.8714069" lon="9.8899393"><ele>143.0</ele><time>2026-04-19T14:13:00.384Z</time></trkpt><trkpt lat="44.8715624" lon="9.8899956"><ele>143.0</ele><time>2026-04-19T14:13:01.407Z</time></trkpt><trkpt lat="44.8717175" lon="9.8900505"><ele>143.0</ele><time>2026-04-19T14:13:02.407Z</time></trkpt><trkpt lat="44.8718722" lon="9.8901064"><ele>141.33333333333331</ele><time>2026-04-19T14:13:03.414Z</time></trkpt><trkpt lat="44.8720286" lon="9.8901574"><ele>139.66666666666666</ele><time>2026-04-19T14:13:04.413Z</time></trkpt><trkpt lat="44.872186" lon="9.8902121"><ele>138.0</ele><time>2026-04-19T14:13:05.41Z</time></trkpt><trkpt lat="44.8723468" lon="9.890265"><ele>138.0</ele><time>2026-04-19T14:13:06.397Z</time></trkpt><trkpt lat="44.8725025" lon="9.8903163"><ele>138.0</ele><time>2026-04-19T14:13:07.419Z</time></trkpt><trkpt lat="44.8726584" lon="9.8903691"><ele>138.0</ele><time>2026-04-19T14:13:08.415Z</time></trkpt><trkpt lat="44.8728153" lon="9.8904216"><ele>138.0</ele><time>2026-04-19T14:13:09.415Z</time></trkpt><trkpt lat="44.8729744" lon="9.8904742"><ele>138.0</ele><time>2026-04-19T14:13:10.408Z</time></trkpt><trkpt lat="44.8731313" lon="9.8905301"><ele>138.0</ele><time>2026-04-19T14:13:11.41Z</time></trkpt><trkpt lat="44.8732872" lon="9.8905872"><ele>138.33333333333334</ele><time>2026-04-19T14:13:12.419Z</time></trkpt><trkpt lat="44.8734439" lon="9.890644"><ele>138.66666666666669</ele><time>2026-04-19T14:13:13.418Z</time></trkpt><trkpt lat="44.8735984" lon="9.8907061"><ele>139.0</ele><time>2026-04-19T14:13:14.416Z</time></trkpt><trkpt lat="44.873754" lon="9.8907709"><ele>139.0</ele><time>2026-04-19T14:13:15.424Z</time></trkpt><trkpt lat="44.8739049" lon="9.8908446"><ele>139.0</ele><time>2026-04-19T14:13:16.395Z</time></trkpt><trkpt lat="44.8740512" lon="9.8909258"><ele>139.0</ele><time>2026-04-19T14:13:17.413Z</time></trkpt><trkpt lat="44.8741988" lon="9.8910199"><ele>137.66666666666669</ele><time>2026-04-19T14:13:18.412Z</time></trkpt><trkpt lat="44.8743469" lon="9.8911229"><ele>136.33333333333334</ele><time>2026-04-19T14:13:19.425Z</time></trkpt><trkpt lat="44.874494" lon="9.8912281"><ele>135.0</ele><time>2026-04-19T14:13:20.392Z</time></trkpt><trkpt lat="44.8746401" lon="9.8913377"><ele>135.0</ele><time>2026-04-19T14:13:21.404Z</time></trkpt><trkpt lat="44.8747869" lon="9.891445"><ele>135.0</ele><time>2026-04-19T14:13:22.415Z</time></trkpt><trkpt lat="44.8749332" lon="9.8915543"><ele>135.0</ele><time>2026-04-19T14:13:23.421Z</time></trkpt><trkpt lat="44.8750778" lon="9.891662"><ele>135.0</ele><time>2026-04-19T14:13:24.434Z</time></trkpt><trkpt lat="44.8752236" lon="9.8917738"><ele>135.0</ele><time>2026-04-19T14:13:25.393Z</time></trkpt><trkpt lat="44.8753687" lon="9.8918803"><ele>135.0</ele><time>2026-04-19T14:13:26.408Z</time></trkpt><trkpt lat="44.8755125" lon="9.8919894"><ele>135.0</ele><time>2026-04-19T14:13:27.445Z</time></trkpt><trkpt lat="44.8756552" lon="9.8920959"><ele>135.0</ele><time>2026-04-19T14:13:28.434Z</time></trkpt><trkpt lat="44.8758009" lon="9.8921984"><ele>135.0</ele><time>2026-04-19T14:13:29.432Z</time></trkpt><trkpt lat="44.8759522" lon="9.8922998"><ele>134.0</ele><time>2026-04-19T14:13:30.423Z</time></trkpt><trkpt lat="44.8761049" lon="9.8923949"><ele>133.0</ele><time>2026-04-19T14:13:31.415Z</time></trkpt><trkpt lat="44.8762605" lon="9.8924875"><ele>132.0</ele><time>2026-04-19T14:13:32.414Z</time></trkpt><trkpt lat="44.8764194" lon="9.8925743"><ele>132.0</ele><time>2026-04-19T14:13:33.422Z</time></trkpt><trkpt lat="44.8765817" lon="9.8926611"><ele>132.0</ele><time>2026-04-19T14:13:34.433Z</time></trkpt><trkpt lat="44.876748" lon="9.8927438"><ele>132.0</ele><time>2026-04-19T14:13:35.43Z</time></trkpt><trkpt lat="44.8769165" lon="9.8928229"><ele>131.33333333333334</ele><time>2026-04-19T14:13:36.417Z</time></trkpt><trkpt lat="44.877087" lon="9.892901"><ele>130.66666666666669</ele><time>2026-04-19T14:13:37.421Z</time></trkpt><trkpt lat="44.8772587" lon="9.8929753"><ele>130.0</ele><time>2026-04-19T14:13:38.418Z</time></trkpt><trkpt lat="44.8774332" lon="9.8930504"><ele>130.33333333333334</ele><time>2026-04-19T14:13:39.438Z</time></trkpt><trkpt lat="44.8776092" lon="9.8931265"><ele>130.66666666666666</ele><time>2026-04-19T14:13:40.41Z</time></trkpt><trkpt lat="44.8777874" lon="9.8932003"><ele>131.0</ele><time>2026-04-19T14:13:41.387Z</time></trkpt><trkpt lat="44.8779637" lon="9.8932787"><ele>131.0</ele><time>2026-04-19T14:13:42.415Z</time></trkpt><trkpt lat="44.8781413" lon="9.8933545"><ele>131.0</ele><time>2026-04-19T14:13:43.433Z</time></trkpt><trkpt lat="44.8783236" lon="9.8934342"><ele>131.0</ele><time>2026-04-19T14:13:44.419Z</time></trkpt><trkpt lat="44.8785059" lon="9.8935154"><ele>130.66666666666666</ele><time>2026-04-19T14:13:45.422Z</time></trkpt><trkpt lat="44.8786905" lon="9.8935923"><ele>130.33333333333334</ele><time>2026-04-19T14:13:46.392Z</time></trkpt><trkpt lat="44.8788675" lon="9.8936708"><ele>130.0</ele><time>2026-04-19T14:13:47.423Z</time></trkpt><trkpt lat="44.8790502" lon="9.8937501"><ele>130.0</ele><time>2026-04-19T14:13:48.419Z</time></trkpt><trkpt lat="44.8792359" lon="9.8938335"><ele>130.0</ele><time>2026-04-19T14:13:49.421Z</time></trkpt><trkpt lat="44.8794248" lon="9.8939141"><ele>130.0</ele><time>2026-04-19T14:13:50.428Z</time></trkpt><trkpt lat="44.8796145" lon="9.8939972"><ele>130.33333333333334</ele><time>2026-04-19T14:13:51.406Z</time></trkpt><trkpt lat="44.8798055" lon="9.8940801"><ele>130.66666666666666</ele><time>2026-04-19T14:13:52.42Z</time></trkpt><trkpt lat="44.879994" lon="9.8941644"><ele>131.0</ele><time>2026-04-19T14:13:53.418Z</time></trkpt><trkpt lat="44.8801867" lon="9.8942465"><ele>129.66666666666666</ele><time>2026-04-19T14:13:54.443Z</time></trkpt><trkpt lat="44.8803775" lon="9.8943298"><ele>128.33333333333334</ele><time>2026-04-19T14:13:55.424Z</time></trkpt><trkpt lat="44.8805679" lon="9.8944141"><ele>127.0</ele><time>2026-04-19T14:13:56.39Z</time></trkpt><trkpt lat="44.880758" lon="9.8944949"><ele>126.66666666666667</ele><time>2026-04-19T14:13:57.404Z</time></trkpt><trkpt lat="44.8809471" lon="9.8945791"><ele>126.33333333333334</ele><time>2026-04-19T14:13:58.408Z</time></trkpt><trkpt lat="44.8811369" lon="9.8946617"><ele>126.0</ele><time>2026-04-19T14:13:59.381Z</time></trkpt><trkpt lat="44.8813227" lon="9.8947437"><ele>126.0</ele><time>2026-04-19T14:14:00.373Z</time></trkpt><trkpt lat="44.8815109" lon="9.894824"><ele>126.0</ele><time>2026-04-19T14:14:01.403Z</time></trkpt><trkpt lat="44.8816962" lon="9.8949018"><ele>126.0</ele><time>2026-04-19T14:14:02.427Z</time></trkpt><trkpt lat="44.8818817" lon="9.894981"><ele>126.0</ele><time>2026-04-19T14:14:03.42Z</time></trkpt><trkpt lat="44.8820675" lon="9.8950597"><ele>126.0</ele><time>2026-04-19T14:14:04.416Z</time></trkpt><trkpt lat="44.8822518" lon="9.8951433"><ele>126.0</ele><time>2026-04-19T14:14:05.418Z</time></trkpt><trkpt lat="44.8824376" lon="9.8952247"><ele>125.66666666666666</ele><time>2026-04-19T14:14:06.39Z</time></trkpt><trkpt lat="44.8826173" lon="9.8953105"><ele>125.33333333333333</ele><time>2026-04-19T14:14:07.416Z</time></trkpt><trkpt lat="44.8827981" lon="9.8953923"><ele>125.0</ele><time>2026-04-19T14:14:08.418Z</time></trkpt><trkpt lat="44.8829784" lon="9.8954782"><ele>125.0</ele><time>2026-04-19T14:14:09.405Z</time></trkpt><trkpt lat="44.8831591" lon="9.8955633"><ele>125.0</ele><time>2026-04-19T14:14:10.413Z</time></trkpt><trkpt lat="44.8833394" lon="9.8956509"><ele>125.0</ele><time>2026-04-19T14:14:11.418Z</time></trkpt><trkpt lat="44.8835172" lon="9.895737"><ele>125.0</ele><time>2026-04-19T14:14:12.422Z</time></trkpt><trkpt lat="44.8836897" lon="9.8958217"><ele>125.0</ele><time>2026-04-19T14:14:13.416Z</time></trkpt><trkpt lat="44.8838654" lon="9.8959056"><ele>125.0</ele><time>2026-04-19T14:14:14.411Z</time></trkpt><trkpt lat="44.8840388" lon="9.8959919"><ele>125.33333333333333</ele><time>2026-04-19T14:14:15.417Z</time></trkpt><trkpt lat="44.8842087" lon="9.8960779"><ele>125.66666666666666</ele><time>2026-04-19T14:14:16.417Z</time></trkpt><trkpt lat="44.8843803" lon="9.8961624"><ele>126.0</ele><time>2026-04-19T14:14:17.413Z</time></trkpt><trkpt lat="44.8845506" lon="9.8962477"><ele>125.0</ele><time>2026-04-19T14:14:18.409Z</time></trkpt><trkpt lat="44.8847192" lon="9.8963305"><ele>124.0</ele><time>2026-04-19T14:14:19.408Z</time></trkpt><trkpt lat="44.8848902" lon="9.8964164"><ele>123.0</ele><time>2026-04-19T14:14:20.419Z</time></trkpt><trkpt lat="44.8850632" lon="9.8965038"><ele>122.33333333333334</ele><time>2026-04-19T14:14:21.395Z</time></trkpt><trkpt lat="44.8852351" lon="9.8965865"><ele>121.66666666666667</ele><time>2026-04-19T14:14:22.409Z</time></trkpt><trkpt lat="44.8854105" lon="9.8966733"><ele>121.0</ele><time>2026-04-19T14:14:23.409Z</time></trkpt><trkpt lat="44.8855837" lon="9.8967566"><ele>121.0</ele><time>2026-04-19T14:14:24.423Z</time></trkpt><trkpt lat="44.8857551" lon="9.8968415"><ele>121.0</ele><time>2026-04-19T14:14:25.426Z</time></trkpt><trkpt lat="44.885926" lon="9.8969273"><ele>121.0</ele><time>2026-04-19T14:14:26.427Z</time></trkpt><trkpt lat="44.8860931" lon="9.8970089"><ele>120.66666666666667</ele><time>2026-04-19T14:14:27.424Z</time></trkpt><trkpt lat="44.8862589" lon="9.897095"><ele>120.33333333333334</ele><time>2026-04-19T14:14:28.406Z</time></trkpt><trkpt lat="44.886424" lon="9.8971733"><ele>120.0</ele><time>2026-04-19T14:14:29.399Z</time></trkpt><trkpt lat="44.8865873" lon="9.8972519"><ele>120.0</ele><time>2026-04-19T14:14:30.414Z</time></trkpt><trkpt lat="44.8867484" lon="9.8973316"><ele>120.0</ele><time>2026-04-19T14:14:31.404Z</time></trkpt><trkpt lat="44.8869127" lon="9.8974097"><ele>120.0</ele><time>2026-04-19T14:14:32.404Z</time></trkpt><trkpt lat="44.8870748" lon="9.8974881"><ele>120.0</ele><time>2026-04-19T14:14:33.388Z</time></trkpt><trkpt lat="44.8872326" lon="9.8975637"><ele>120.0</ele><time>2026-04-19T14:14:34.396Z</time></trkpt><trkpt lat="44.8873879" lon="9.8976357"><ele>120.0</ele><time>2026-04-19T14:14:35.414Z</time></trkpt><trkpt lat="44.8875369" lon="9.8977074"><ele>120.0</ele><time>2026-04-19T14:14:36.413Z</time></trkpt><trkpt lat="44.8876884" lon="9.8977752"><ele>120.0</ele><time>2026-04-19T14:14:37.376Z</time></trkpt><trkpt lat="44.8878359" lon="9.8978427"><ele>120.0</ele><time>2026-04-19T14:14:38.402Z</time></trkpt><trkpt lat="44.8879845" lon="9.8979149"><ele>120.0</ele><time>2026-04-19T14:14:39.402Z</time></trkpt><trkpt lat="44.8881309" lon="9.8979846"><ele>120.0</ele><time>2026-04-19T14:14:40.421Z</time></trkpt><trkpt lat="44.8882763" lon="9.8980581"><ele>120.0</ele><time>2026-04-19T14:14:41.403Z</time></trkpt><trkpt lat="44.8884195" lon="9.898133"><ele>119.5</ele><time>2026-04-19T14:14:42.409Z</time></trkpt><trkpt lat="44.8885604" lon="9.8982163"><ele>119.0</ele><time>2026-04-19T14:14:43.416Z</time></trkpt><trkpt lat="44.8886945" lon="9.8982992"><ele>118.5</ele><time>2026-04-19T14:14:44.423Z</time></trkpt><trkpt lat="44.8888291" lon="9.8983884"><ele>118.0</ele><time>2026-04-19T14:14:45.413Z</time></trkpt><trkpt lat="44.8889644" lon="9.8984841"><ele>117.66666666666667</ele><time>2026-04-19T14:14:46.42Z</time></trkpt><trkpt lat="44.8891018" lon="9.8985799"><ele>117.33333333333334</ele><time>2026-04-19T14:14:47.427Z</time></trkpt><trkpt lat="44.8892394" lon="9.8986747"><ele>117.0</ele><time>2026-04-19T14:14:48.423Z</time></trkpt><trkpt lat="44.8893768" lon="9.8987695"><ele>117.0</ele><time>2026-04-19T14:14:49.385Z</time></trkpt><trkpt lat="44.8895118" lon="9.8988611"><ele>117.0</ele><time>2026-04-19T14:14:50.412Z</time></trkpt><trkpt lat="44.8896449" lon="9.8989528"><ele>117.0</ele><time>2026-04-19T14:14:51.422Z</time></trkpt><trkpt lat="44.8897792" lon="9.8990427"><ele>117.0</ele><time>2026-04-19T14:14:52.419Z</time></trkpt><trkpt lat="44.8899168" lon="9.8991333"><ele>117.0</ele><time>2026-04-19T14:14:53.379Z</time></trkpt><trkpt lat="44.8900546" lon="9.8992183"><ele>117.0</ele><time>2026-04-19T14:14:54.389Z</time></trkpt><trkpt lat="44.8901983" lon="9.8992949"><ele>117.0</ele><time>2026-04-19T14:14:55.424Z</time></trkpt><trkpt lat="44.8903425" lon="9.8993657"><ele>116.33333333333334</ele><time>2026-04-19T14:14:56.426Z</time></trkpt><trkpt lat="44.8904914" lon="9.8994383"><ele>115.66666666666667</ele><time>2026-04-19T14:14:57.414Z</time></trkpt><trkpt lat="44.8906373" lon="9.8995093"><ele>115.0</ele><time>2026-04-19T14:14:58.418Z</time></trkpt><trkpt lat="44.8907846" lon="9.8995766"><ele>115.0</ele><time>2026-04-19T14:14:59.401Z</time></trkpt><trkpt lat="44.8909326" lon="9.8996463"><ele>115.0</ele><time>2026-04-19T14:15:00.418Z</time></trkpt><trkpt lat="44.8910793" lon="9.8997172"><ele>115.0</ele><time>2026-04-19T14:15:01.423Z</time></trkpt><trkpt lat="44.8912254" lon="9.8997882"><ele>115.0</ele><time>2026-04-19T14:15:02.412Z</time></trkpt><trkpt lat="44.8913691" lon="9.8998586"><ele>115.0</ele><time>2026-04-19T14:15:03.421Z</time></trkpt><trkpt lat="44.8915101" lon="9.8999279"><ele>115.0</ele><time>2026-04-19T14:15:04.409Z</time></trkpt><trkpt lat="44.8916504" lon="9.8999932"><ele>115.0</ele><time>2026-04-19T14:15:05.389Z</time></trkpt><trkpt lat="44.891786" lon="9.9000622"><ele>114.25</ele><time>2026-04-19T14:15:06.427Z</time></trkpt><trkpt lat="44.8919291" lon="9.9001343"><ele>113.5</ele><time>2026-04-19T14:15:07.421Z</time></trkpt><trkpt lat="44.8920679" lon="9.9002022"><ele>112.75</ele><time>2026-04-19T14:15:08.406Z</time></trkpt><trkpt lat="44.8922082" lon="9.9002708"><ele>112.0</ele><time>2026-04-19T14:15:09.408Z</time></trkpt><trkpt lat="44.8923491" lon="9.9003383"><ele>112.0</ele><time>2026-04-19T14:15:10.427Z</time></trkpt><trkpt lat="44.8924901" lon="9.9004054"><ele>112.0</ele><time>2026-04-19T14:15:11.41Z</time></trkpt><trkpt lat="44.8926291" lon="9.9004729"><ele>112.0</ele><time>2026-04-19T14:15:12.417Z</time></trkpt><trkpt lat="44.8927696" lon="9.900543"><ele>112.0</ele><time>2026-04-19T14:15:13.404Z</time></trkpt><trkpt lat="44.8929145" lon="9.9006159"><ele>112.33333333333334</ele><time>2026-04-19T14:15:14.41Z</time></trkpt><trkpt lat="44.89306" lon="9.9006869"><ele>112.66666666666666</ele><time>2026-04-19T14:15:15.413Z</time></trkpt><trkpt lat="44.8932088" lon="9.900758"><ele>113.0</ele><time>2026-04-19T14:15:16.414Z</time></trkpt><trkpt lat="44.8933561" lon="9.9008308"><ele>113.33333333333333</ele><time>2026-04-19T14:15:17.417Z</time></trkpt><trkpt lat="44.8935029" lon="9.9009039"><ele>113.66666666666666</ele><time>2026-04-19T14:15:18.412Z</time></trkpt><trkpt lat="44.8936465" lon="9.9009757"><ele>114.0</ele><time>2026-04-19T14:15:19.414Z</time></trkpt><trkpt lat="44.8937954" lon="9.9010469"><ele>113.0</ele><time>2026-04-19T14:15:20.422Z</time></trkpt><trkpt lat="44.893945" lon="9.9011168"><ele>112.0</ele><time>2026-04-19T14:15:21.411Z</time></trkpt><trkpt lat="44.8940893" lon="9.9011838"><ele>111.0</ele><time>2026-04-19T14:15:22.421Z</time></trkpt><trkpt lat="44.8942407" lon="9.9012414"><ele>111.0</ele><time>2026-04-19T14:15:23.412Z</time></trkpt><trkpt lat="44.8943981" lon="9.9012965"><ele>111.0</ele><time>2026-04-19T14:15:24.413Z</time></trkpt><trkpt lat="44.8945639" lon="9.9013493"><ele>111.0</ele><time>2026-04-19T14:15:25.422Z</time></trkpt><trkpt lat="44.8947362" lon="9.9013954"><ele>111.0</ele><time>2026-04-19T14:15:26.387Z</time></trkpt><trkpt lat="44.8949053" lon="9.9014457"><ele>111.0</ele><time>2026-04-19T14:15:27.436Z</time></trkpt><trkpt lat="44.8950766" lon="9.9014954"><ele>111.0</ele><time>2026-04-19T14:15:28.419Z</time></trkpt><trkpt lat="44.8952405" lon="9.9015434"><ele>110.33333333333334</ele><time>2026-04-19T14:15:29.425Z</time></trkpt><trkpt lat="44.8954" lon="9.9015939"><ele>109.66666666666667</ele><time>2026-04-19T14:15:30.417Z</time></trkpt><trkpt lat="44.8955643" lon="9.9016459"><ele>109.0</ele><time>2026-04-19T14:15:31.421Z</time></trkpt><trkpt lat="44.8957266" lon="9.9017001"><ele>108.33333333333334</ele><time>2026-04-19T14:15:32.424Z</time></trkpt><trkpt lat="44.8958883" lon="9.9017591"><ele>107.66666666666666</ele><time>2026-04-19T14:15:33.42Z</time></trkpt><trkpt lat="44.8960534" lon="9.9018203"><ele>107.0</ele><time>2026-04-19T14:15:34.387Z</time></trkpt><trkpt lat="44.8962186" lon="9.9018858"><ele>107.0</ele><time>2026-04-19T14:15:35.417Z</time></trkpt><trkpt lat="44.8963828" lon="9.9019601"><ele>107.0</ele><time>2026-04-19T14:15:36.432Z</time></trkpt><trkpt lat="44.8965493" lon="9.9020378"><ele>107.0</ele><time>2026-04-19T14:15:37.416Z</time></trkpt><trkpt lat="44.8967129" lon="9.902126"><ele>107.33333333333333</ele><time>2026-04-19T14:15:38.423Z</time></trkpt><trkpt lat="44.8968751" lon="9.902215"><ele>107.66666666666666</ele><time>2026-04-19T14:15:39.41Z</time></trkpt><trkpt lat="44.8970355" lon="9.9023052"><ele>108.0</ele><time>2026-04-19T14:15:40.383Z</time></trkpt><trkpt lat="44.8971963" lon="9.9023929"><ele>108.0</ele><time>2026-04-19T14:15:41.415Z</time></trkpt><trkpt lat="44.8973551" lon="9.9024786"><ele>108.0</ele><time>2026-04-19T14:15:42.413Z</time></trkpt><trkpt lat="44.8975169" lon="9.9025718"><ele>108.0</ele><time>2026-04-19T14:15:43.415Z</time></trkpt><trkpt lat="44.8976814" lon="9.9026599"><ele>106.66666666666666</ele><time>2026-04-19T14:15:44.417Z</time></trkpt><trkpt lat="44.8978517" lon="9.9027478"><ele>105.33333333333333</ele><time>2026-04-19T14:15:45.391Z</time></trkpt><trkpt lat="44.8980204" lon="9.9028345"><ele>104.0</ele><time>2026-04-19T14:15:46.427Z</time></trkpt><trkpt lat="44.8981854" lon="9.9029159"><ele>104.0</ele><time>2026-04-19T14:15:47.42Z</time></trkpt><trkpt lat="44.8983464" lon="9.9029957"><ele>104.0</ele><time>2026-04-19T14:15:48.424Z</time></trkpt><trkpt lat="44.8985088" lon="9.9030779"><ele>104.0</ele><time>2026-04-19T14:15:49.417Z</time></trkpt><trkpt lat="44.8986744" lon="9.9031596"><ele>103.66666666666666</ele><time>2026-04-19T14:15:50.423Z</time></trkpt><trkpt lat="44.8988362" lon="9.9032386"><ele>103.33333333333334</ele><time>2026-04-19T14:15:51.423Z</time></trkpt><trkpt lat="44.8989912" lon="9.9033157"><ele>103.0</ele><time>2026-04-19T14:15:52.414Z</time></trkpt><trkpt lat="44.8991475" lon="9.9033939"><ele>103.0</ele><time>2026-04-19T14:15:53.399Z</time></trkpt><trkpt lat="44.8993017" lon="9.9034711"><ele>103.0</ele><time>2026-04-19T14:15:54.416Z</time></trkpt><trkpt lat="44.8994575" lon="9.9035488"><ele>103.0</ele><time>2026-04-19T14:15:55.4Z</time></trkpt><trkpt lat="44.8996151" lon="9.9036249"><ele>103.0</ele><time>2026-04-19T14:15:56.415Z</time></trkpt><trkpt lat="44.8997726" lon="9.9037066"><ele>103.0</ele><time>2026-04-19T14:15:57.417Z</time></trkpt><trkpt lat="44.8999296" lon="9.9037883"><ele>103.0</ele><time>2026-04-19T14:15:58.413Z</time></trkpt><trkpt lat="44.9000862" lon="9.9038657"><ele>103.0</ele><time>2026-04-19T14:15:59.416Z</time></trkpt><trkpt lat="44.9002427" lon="9.9039492"><ele>103.0</ele><time>2026-04-19T14:16:00.421Z</time></trkpt><trkpt lat="44.9003971" lon="9.9040278"><ele>103.0</ele><time>2026-04-19T14:16:01.418Z</time></trkpt><trkpt lat="44.9005517" lon="9.9041058"><ele>103.0</ele><time>2026-04-19T14:16:02.42Z</time></trkpt><trkpt lat="44.9007081" lon="9.9041818"><ele>103.0</ele><time>2026-04-19T14:16:03.417Z</time></trkpt><trkpt lat="44.9008615" lon="9.9042549"><ele>103.0</ele><time>2026-04-19T14:16:04.42Z</time></trkpt><trkpt lat="44.901013" lon="9.9043285"><ele>103.33333333333334</ele><time>2026-04-19T14:16:05.417Z</time></trkpt><trkpt lat="44.9011633" lon="9.9044017"><ele>103.66666666666666</ele><time>2026-04-19T14:16:06.419Z</time></trkpt><trkpt lat="44.9013157" lon="9.9044758"><ele>104.0</ele><time>2026-04-19T14:16:07.416Z</time></trkpt><trkpt lat="44.901467" lon="9.9045522"><ele>104.0</ele><time>2026-04-19T14:16:08.404Z</time></trkpt><trkpt lat="44.9016166" lon="9.9046281"><ele>104.0</ele><time>2026-04-19T14:16:09.374Z</time></trkpt><trkpt lat="44.9017669" lon="9.9047055"><ele>104.0</ele><time>2026-04-19T14:16:10.408Z</time></trkpt><trkpt lat="44.901916" lon="9.9047817"><ele>103.66666666666666</ele><time>2026-04-19T14:16:11.411Z</time></trkpt><trkpt lat="44.9020634" lon="9.904854"><ele>103.33333333333334</ele><time>2026-04-19T14:16:12.397Z</time></trkpt><trkpt lat="44.9022041" lon="9.9049221"><ele>103.0</ele><time>2026-04-19T14:16:13.42Z</time></trkpt><trkpt lat="44.9023437" lon="9.9049891"><ele>103.0</ele><time>2026-04-19T14:16:14.405Z</time></trkpt><trkpt lat="44.902478" lon="9.9050599"><ele>103.0</ele><time>2026-04-19T14:16:15.404Z</time></trkpt><trkpt lat="44.9026197" lon="9.9051325"><ele>103.0</ele><time>2026-04-19T14:16:16.416Z</time></trkpt><trkpt lat="44.9027644" lon="9.9052021"><ele>103.0</ele><time>2026-04-19T14:16:17.423Z</time></trkpt><trkpt lat="44.9029088" lon="9.9052702"><ele>103.0</ele><time>2026-04-19T14:16:18.408Z</time></trkpt><trkpt lat="44.903052" lon="9.9053396"><ele>103.0</ele><time>2026-04-19T14:16:19.413Z</time></trkpt><trkpt lat="44.9031954" lon="9.9054081"><ele>103.0</ele><time>2026-04-19T14:16:20.401Z</time></trkpt><trkpt lat="44.9033402" lon="9.9054784"><ele>101.66666666666667</ele><time>2026-04-19T14:16:21.379Z</time></trkpt><trkpt lat="44.9034853" lon="9.9055536"><ele>100.33333333333334</ele><time>2026-04-19T14:16:22.403Z</time></trkpt><trkpt lat="44.9036342" lon="9.9056287"><ele>99.0</ele><time>2026-04-19T14:16:23.402Z</time></trkpt><trkpt lat="44.90378" lon="9.9057043"><ele>99.0</ele><time>2026-04-19T14:16:24.398Z</time></trkpt><trkpt lat="44.9039258" lon="9.9057799"><ele>99.0</ele><time>2026-04-19T14:16:25.408Z</time></trkpt><trkpt lat="44.9040691" lon="9.9058576"><ele>99.0</ele><time>2026-04-19T14:16:26.377Z</time></trkpt><trkpt lat="44.9042143" lon="9.905932"><ele>98.0</ele><time>2026-04-19T14:16:27.383Z</time></trkpt><trkpt lat="44.9043575" lon="9.9060054"><ele>97.0</ele><time>2026-04-19T14:16:28.413Z</time></trkpt><trkpt lat="44.9044976" lon="9.9060793"><ele>96.0</ele><time>2026-04-19T14:16:29.41Z</time></trkpt><trkpt lat="44.904636" lon="9.9061535"><ele>96.0</ele><time>2026-04-19T14:16:30.408Z</time></trkpt><trkpt lat="44.9047754" lon="9.9062303"><ele>96.0</ele><time>2026-04-19T14:16:31.408Z</time></trkpt><trkpt lat="44.9049118" lon="9.9063051"><ele>96.0</ele><time>2026-04-19T14:16:32.414Z</time></trkpt><trkpt lat="44.905046" lon="9.9063773"><ele>96.0</ele><time>2026-04-19T14:16:33.416Z</time></trkpt><trkpt lat="44.9051843" lon="9.9064507"><ele>95.66666666666667</ele><time>2026-04-19T14:16:34.411Z</time></trkpt><trkpt lat="44.9053275" lon="9.9065224"><ele>95.33333333333334</ele><time>2026-04-19T14:16:35.415Z</time></trkpt><trkpt lat="44.9054741" lon="9.9065921"><ele>95.0</ele><time>2026-04-19T14:16:36.41Z</time></trkpt><trkpt lat="44.9056188" lon="9.9066591"><ele>95.0</ele><time>2026-04-19T14:16:37.406Z</time></trkpt><trkpt lat="44.9057631" lon="9.9067323"><ele>95.0</ele><time>2026-04-19T14:16:38.408Z</time></trkpt><trkpt lat="44.9059075" lon="9.9068054"><ele>95.0</ele><time>2026-04-19T14:16:39.407Z</time></trkpt><trkpt lat="44.9060561" lon="9.9068811"><ele>95.0</ele><time>2026-04-19T14:16:40.401Z</time></trkpt><trkpt lat="44.9062079" lon="9.9069569"><ele>95.0</ele><time>2026-04-19T14:16:41.414Z</time></trkpt><trkpt lat="44.9063641" lon="9.9070357"><ele>95.0</ele><time>2026-04-19T14:16:42.407Z</time></trkpt><trkpt lat="44.9065218" lon="9.9071148"><ele>95.0</ele><time>2026-04-19T14:16:43.41Z</time></trkpt><trkpt lat="44.9066797" lon="9.9071899"><ele>95.0</ele><time>2026-04-19T14:16:44.421Z</time></trkpt><trkpt lat="44.9068328" lon="9.9072691"><ele>95.0</ele><time>2026-04-19T14:16:45.408Z</time></trkpt><trkpt lat="44.9069853" lon="9.9073442"><ele>95.0</ele><time>2026-04-19T14:16:46.424Z</time></trkpt><trkpt lat="44.9071385" lon="9.9074177"><ele>95.0</ele><time>2026-04-19T14:16:47.405Z</time></trkpt><trkpt lat="44.9072886" lon="9.9074879"><ele>95.0</ele><time>2026-04-19T14:16:48.404Z</time></trkpt><trkpt lat="44.9074401" lon="9.9075575"><ele>94.33333333333334</ele><time>2026-04-19T14:16:49.412Z</time></trkpt><trkpt lat="44.9075919" lon="9.9076345"><ele>93.66666666666667</ele><time>2026-04-19T14:16:50.399Z</time></trkpt><trkpt lat="44.9077478" lon="9.9077138"><ele>93.0</ele><time>2026-04-19T14:16:51.417Z</time></trkpt><trkpt lat="44.9079019" lon="9.9077905"><ele>93.0</ele><time>2026-04-19T14:16:52.424Z</time></trkpt><trkpt lat="44.908061" lon="9.9078701"><ele>93.0</ele><time>2026-04-19T14:16:53.403Z</time></trkpt><trkpt lat="44.9082229" lon="9.9079486"><ele>93.0</ele><time>2026-04-19T14:16:54.413Z</time></trkpt><trkpt lat="44.908382" lon="9.9080287"><ele>92.33333333333333</ele><time>2026-04-19T14:16:55.42Z</time></trkpt><trkpt lat="44.9085417" lon="9.9081077"><ele>91.66666666666666</ele><time>2026-04-19T14:16:56.408Z</time></trkpt><trkpt lat="44.9086948" lon="9.9081843"><ele>91.0</ele><time>2026-04-19T14:16:57.381Z</time></trkpt><trkpt lat="44.9088454" lon="9.9082612"><ele>91.0</ele><time>2026-04-19T14:16:58.411Z</time></trkpt><trkpt lat="44.9089936" lon="9.9083363"><ele>91.0</ele><time>2026-04-19T14:16:59.423Z</time></trkpt><trkpt lat="44.9091432" lon="9.9084131"><ele>91.0</ele><time>2026-04-19T14:17:00.409Z</time></trkpt><trkpt lat="44.9092917" lon="9.9084884"><ele>91.5</ele><time>2026-04-19T14:17:01.4Z</time></trkpt><trkpt lat="44.9094359" lon="9.90856"><ele>92.0</ele><time>2026-04-19T14:17:02.416Z</time></trkpt><trkpt lat="44.909579" lon="9.908631"><ele>92.5</ele><time>2026-04-19T14:17:03.385Z</time></trkpt><trkpt lat="44.9097156" lon="9.9086992"><ele>93.0</ele><time>2026-04-19T14:17:04.417Z</time></trkpt><trkpt lat="44.9098505" lon="9.9087635"><ele>93.0</ele><time>2026-04-19T14:17:05.424Z</time></trkpt><trkpt lat="44.9099802" lon="9.9088249"><ele>93.0</ele><time>2026-04-19T14:17:06.411Z</time></trkpt><trkpt lat="44.9101098" lon="9.9088852"><ele>93.0</ele><time>2026-04-19T14:17:07.431Z</time></trkpt><trkpt lat="44.9102389" lon="9.9089496"><ele>93.0</ele><time>2026-04-19T14:17:08.402Z</time></trkpt><trkpt lat="44.9103675" lon="9.9090194"><ele>93.0</ele><time>2026-04-19T14:17:09.404Z</time></trkpt><trkpt lat="44.9104999" lon="9.9090905"><ele>93.0</ele><time>2026-04-19T14:17:10.413Z</time></trkpt><trkpt lat="44.9106293" lon="9.909166"><ele>93.0</ele><time>2026-04-19T14:17:11.417Z</time></trkpt><trkpt lat="44.9107529" lon="9.9092324"><ele>93.0</ele><time>2026-04-19T14:17:12.406Z</time></trkpt><trkpt lat="44.9108778" lon="9.9093023"><ele>92.0</ele><time>2026-04-19T14:17:13.414Z</time></trkpt><trkpt lat="44.9109985" lon="9.9093681"><ele>91.0</ele><time>2026-04-19T14:17:14.402Z</time></trkpt><trkpt lat="44.9111162" lon="9.9094334"><ele>90.0</ele><time>2026-04-19T14:17:15.392Z</time></trkpt><trkpt lat="44.9112263" lon="9.9094934"><ele>89.0</ele><time>2026-04-19T14:17:16.409Z</time></trkpt><trkpt lat="44.9113427" lon="9.9095571"><ele>89.0</ele><time>2026-04-19T14:17:17.411Z</time></trkpt><trkpt lat="44.9114589" lon="9.9096178"><ele>89.0</ele><time>2026-04-19T14:17:18.367Z</time></trkpt><trkpt lat="44.9115735" lon="9.909662"><ele>89.0</ele><time>2026-04-19T14:17:19.386Z</time></trkpt><trkpt lat="44.9116837" lon="9.909699"><ele>89.0</ele><time>2026-04-19T14:17:20.421Z</time></trkpt><trkpt lat="44.9117978" lon="9.9097307"><ele>89.2</ele><time>2026-04-19T14:17:21.416Z</time></trkpt><trkpt lat="44.911904" lon="9.9097659"><ele>89.4</ele><time>2026-04-19T14:17:22.385Z</time></trkpt><trkpt lat="44.9119947" lon="9.9098045"><ele>89.6</ele><time>2026-04-19T14:17:23.419Z</time></trkpt><trkpt lat="44.9120742" lon="9.9098623"><ele>89.8</ele><time>2026-04-19T14:17:24.409Z</time></trkpt><trkpt lat="44.912125" lon="9.9099437"><ele>90.0</ele><time>2026-04-19T14:17:25.433Z</time></trkpt><trkpt lat="44.9121665" lon="9.9100548"><ele>89.8</ele><time>2026-04-19T14:17:26.41Z</time></trkpt><trkpt lat="44.9121788" lon="9.9101716"><ele>89.6</ele><time>2026-04-19T14:17:27.391Z</time></trkpt><trkpt lat="44.9121649" lon="9.9102974"><ele>89.4</ele><time>2026-04-19T14:17:28.399Z</time></trkpt><trkpt lat="44.9121146" lon="9.910408"><ele>89.2</ele><time>2026-04-19T14:17:29.401Z</time></trkpt><trkpt lat="44.9120512" lon="9.9105088"><ele>89.0</ele><time>2026-04-19T14:17:30.375Z</time></trkpt><trkpt lat="44.9119676" lon="9.9105812"><ele>89.0</ele><time>2026-04-19T14:17:31.413Z</time></trkpt><trkpt lat="44.9118664" lon="9.9106139"><ele>89.0</ele><time>2026-04-19T14:17:32.41Z</time></trkpt><trkpt lat="44.9117675" lon="9.9106165"><ele>89.0</ele><time>2026-04-19T14:17:33.413Z</time></trkpt><trkpt lat="44.9116778" lon="9.9105865"><ele>89.0</ele><time>2026-04-19T14:17:34.401Z</time></trkpt><trkpt lat="44.9115963" lon="9.9105141"><ele>89.0</ele><time>2026-04-19T14:17:35.407Z</time></trkpt><trkpt lat="44.9115325" lon="9.9104161"><ele>89.0</ele><time>2026-04-19T14:17:36.42Z</time></trkpt><trkpt lat="44.9114808" lon="9.9103052"><ele>89.0</ele><time>2026-04-19T14:17:37.411Z</time></trkpt><trkpt lat="44.9114471" lon="9.9101769"><ele>89.0</ele><time>2026-04-19T14:17:38.424Z</time></trkpt><trkpt lat="44.9114217" lon="9.9100486"><ele>89.0</ele><time>2026-04-19T14:17:39.389Z</time></trkpt><trkpt lat="44.9113962" lon="9.9099156"><ele>89.0</ele><time>2026-04-19T14:17:40.416Z</time></trkpt><trkpt lat="44.9113606" lon="9.9097534"><ele>89.0</ele><time>2026-04-19T14:17:41.433Z</time></trkpt><trkpt lat="44.9113323" lon="9.9096018"><ele>89.0</ele><time>2026-04-19T14:17:42.414Z</time></trkpt><trkpt lat="44.9113151" lon="9.9094371"><ele>89.0</ele><time>2026-04-19T14:17:43.401Z</time></trkpt><trkpt lat="44.9113005" lon="9.909267"><ele>89.0</ele><time>2026-04-19T14:17:44.389Z</time></trkpt><trkpt lat="44.9112882" lon="9.9090858"><ele>89.25</ele><time>2026-04-19T14:17:45.411Z</time></trkpt><trkpt lat="44.911276" lon="9.9088892"><ele>89.5</ele><time>2026-04-19T14:17:46.41Z</time></trkpt><trkpt lat="44.9112735" lon="9.9086836"><ele>89.75</ele><time>2026-04-19T14:17:47.401Z</time></trkpt><trkpt lat="44.9112704" lon="9.9084735"><ele>90.0</ele><time>2026-04-19T14:17:48.407Z</time></trkpt><trkpt lat="44.9112768" lon="9.9082683"><ele>90.0</ele><time>2026-04-19T14:17:49.404Z</time></trkpt><trkpt lat="44.9112834" lon="9.9080565"><ele>90.0</ele><time>2026-04-19T14:17:50.406Z</time></trkpt><trkpt lat="44.9112922" lon="9.9078334"><ele>90.0</ele><time>2026-04-19T14:17:51.409Z</time></trkpt><trkpt lat="44.9113044" lon="9.9076142"><ele>89.66666666666667</ele><time>2026-04-19T14:17:52.399Z</time></trkpt><trkpt lat="44.9113255" lon="9.9074049"><ele>89.33333333333334</ele><time>2026-04-19T14:17:53.428Z</time></trkpt><trkpt lat="44.9113468" lon="9.9071906"><ele>89.0</ele><time>2026-04-19T14:17:54.396Z</time></trkpt><trkpt lat="44.9113784" lon="9.9069718"><ele>89.0</ele><time>2026-04-19T14:17:55.385Z</time></trkpt><trkpt lat="44.9114119" lon="9.906751"><ele>89.0</ele><time>2026-04-19T14:17:56.398Z</time></trkpt><trkpt lat="44.9114529" lon="9.9065287"><ele>89.0</ele><time>2026-04-19T14:17:57.411Z</time></trkpt><trkpt lat="44.9114998" lon="9.9063051"><ele>89.0</ele><time>2026-04-19T14:17:58.413Z</time></trkpt><trkpt lat="44.9115449" lon="9.90607"><ele>89.0</ele><time>2026-04-19T14:17:59.413Z</time></trkpt><trkpt lat="44.9115988" lon="9.9058431"><ele>89.0</ele><time>2026-04-19T14:18:00.409Z</time></trkpt><trkpt lat="44.9116545" lon="9.905611"><ele>89.33333333333334</ele><time>2026-04-19T14:18:01.411Z</time></trkpt><trkpt lat="44.9117131" lon="9.9053768"><ele>89.66666666666667</ele><time>2026-04-19T14:18:02.401Z</time></trkpt><trkpt lat="44.9117722" lon="9.9051403"><ele>90.0</ele><time>2026-04-19T14:18:03.426Z</time></trkpt><trkpt lat="44.9118337" lon="9.9048987"><ele>90.33333333333333</ele><time>2026-04-19T14:18:04.418Z</time></trkpt><trkpt lat="44.9118978" lon="9.9046539"><ele>90.66666666666666</ele><time>2026-04-19T14:18:05.414Z</time></trkpt><trkpt lat="44.9119617" lon="9.904405"><ele>91.0</ele><time>2026-04-19T14:18:06.409Z</time></trkpt><trkpt lat="44.9120282" lon="9.9041561"><ele>91.66666666666666</ele><time>2026-04-19T14:18:07.41Z</time></trkpt><trkpt lat="44.9120919" lon="9.9038989"><ele>92.33333333333333</ele><time>2026-04-19T14:18:08.417Z</time></trkpt><trkpt lat="44.9121582" lon="9.9036426"><ele>93.0</ele><time>2026-04-19T14:18:09.444Z</time></trkpt><trkpt lat="44.9122225" lon="9.9033834"><ele>93.0</ele><time>2026-04-19T14:18:10.42Z</time></trkpt><trkpt lat="44.9122897" lon="9.9031216"><ele>93.0</ele><time>2026-04-19T14:18:11.404Z</time></trkpt><trkpt lat="44.912359" lon="9.9028563"><ele>93.0</ele><time>2026-04-19T14:18:12.417Z</time></trkpt><trkpt lat="44.9124309" lon="9.9025905"><ele>93.0</ele><time>2026-04-19T14:18:13.414Z</time></trkpt><trkpt lat="44.9125027" lon="9.9023235"><ele>93.0</ele><time>2026-04-19T14:18:14.414Z</time></trkpt><trkpt lat="44.9125733" lon="9.9020494"><ele>93.0</ele><time>2026-04-19T14:18:15.416Z</time></trkpt><trkpt lat="44.9126432" lon="9.9017711"><ele>93.0</ele><time>2026-04-19T14:18:16.416Z</time></trkpt><trkpt lat="44.912715" lon="9.9014953"><ele>93.0</ele><time>2026-04-19T14:18:17.391Z</time></trkpt><trkpt lat="44.9127874" lon="9.9012207"><ele>93.0</ele><time>2026-04-19T14:18:18.409Z</time></trkpt><trkpt lat="44.9128647" lon="9.9009479"><ele>92.66666666666667</ele><time>2026-04-19T14:18:19.402Z</time></trkpt><trkpt lat="44.9129416" lon="9.9006773"><ele>92.33333333333334</ele><time>2026-04-19T14:18:20.395Z</time></trkpt><trkpt lat="44.9130277" lon="9.900405"><ele>92.0</ele><time>2026-04-19T14:18:21.407Z</time></trkpt><trkpt lat="44.9131222" lon="9.9001389"><ele>92.0</ele><time>2026-04-19T14:18:22.436Z</time></trkpt><trkpt lat="44.9132245" lon="9.8998781"><ele>92.0</ele><time>2026-04-19T14:18:23.43Z</time></trkpt><trkpt lat="44.9133361" lon="9.899621"><ele>92.0</ele><time>2026-04-19T14:18:24.417Z</time></trkpt><trkpt lat="44.9134549" lon="9.899363"><ele>92.33333333333334</ele><time>2026-04-19T14:18:25.412Z</time></trkpt><trkpt lat="44.9135822" lon="9.8991157"><ele>92.66666666666667</ele><time>2026-04-19T14:18:26.413Z</time></trkpt><trkpt lat="44.9137174" lon="9.8988774"><ele>93.0</ele><time>2026-04-19T14:18:27.392Z</time></trkpt><trkpt lat="44.9138599" lon="9.8986477"><ele>93.0</ele><time>2026-04-19T14:18:28.416Z</time></trkpt><trkpt lat="44.9140032" lon="9.8984227"><ele>93.0</ele><time>2026-04-19T14:18:29.412Z</time></trkpt><trkpt lat="44.914151" lon="9.8982051"><ele>93.0</ele><time>2026-04-19T14:18:30.421Z</time></trkpt><trkpt lat="44.9143068" lon="9.8979999"><ele>92.66666666666667</ele><time>2026-04-19T14:18:31.423Z</time></trkpt><trkpt lat="44.914463" lon="9.8978005"><ele>92.33333333333334</ele><time>2026-04-19T14:18:32.411Z</time></trkpt><trkpt lat="44.9146225" lon="9.8976049"><ele>92.0</ele><time>2026-04-19T14:18:33.413Z</time></trkpt><trkpt lat="44.9147831" lon="9.8974173"><ele>92.0</ele><time>2026-04-19T14:18:34.436Z</time></trkpt><trkpt lat="44.9149453" lon="9.8972337"><ele>92.0</ele><time>2026-04-19T14:18:35.424Z</time></trkpt><trkpt lat="44.915113" lon="9.8970576"><ele>92.0</ele><time>2026-04-19T14:18:36.413Z</time></trkpt><trkpt lat="44.9152779" lon="9.8968855"><ele>92.0</ele><time>2026-04-19T14:18:37.427Z</time></trkpt><trkpt lat="44.9154411" lon="9.8967104"><ele>92.0</ele><time>2026-04-19T14:18:38.422Z</time></trkpt><trkpt lat="44.9156106" lon="9.8965309"><ele>92.0</ele><time>2026-04-19T14:18:39.417Z</time></trkpt><trkpt lat="44.9157804" lon="9.8963554"><ele>91.66666666666667</ele><time>2026-04-19T14:18:40.413Z</time></trkpt><trkpt lat="44.9159492" lon="9.8961865"><ele>91.33333333333333</ele><time>2026-04-19T14:18:41.408Z</time></trkpt><trkpt lat="44.9161229" lon="9.8960181"><ele>91.0</ele><time>2026-04-19T14:18:42.401Z</time></trkpt><trkpt lat="44.916292" lon="9.8958508"><ele>90.66666666666666</ele><time>2026-04-19T14:18:43.428Z</time></trkpt><trkpt lat="44.9164655" lon="9.8956763"><ele>90.33333333333333</ele><time>2026-04-19T14:18:44.419Z</time></trkpt><trkpt lat="44.9166406" lon="9.8955051"><ele>90.0</ele><time>2026-04-19T14:18:45.418Z</time></trkpt><trkpt lat="44.9168167" lon="9.8953356"><ele>90.0</ele><time>2026-04-19T14:18:46.412Z</time></trkpt><trkpt lat="44.916992" lon="9.8951684"><ele>90.0</ele><time>2026-04-19T14:18:47.425Z</time></trkpt><trkpt lat="44.9171648" lon="9.8949981"><ele>90.0</ele><time>2026-04-19T14:18:48.42Z</time></trkpt><trkpt lat="44.9173338" lon="9.8948299"><ele>90.0</ele><time>2026-04-19T14:18:49.427Z</time></trkpt><trkpt lat="44.9175033" lon="9.8946644"><ele>90.0</ele><time>2026-04-19T14:18:50.424Z</time></trkpt><trkpt lat="44.9176685" lon="9.8945028"><ele>90.0</ele><time>2026-04-19T14:18:51.424Z</time></trkpt><trkpt lat="44.9178294" lon="9.8943433"><ele>89.66666666666667</ele><time>2026-04-19T14:18:52.409Z</time></trkpt><trkpt lat="44.9179918" lon="9.8941856"><ele>89.33333333333334</ele><time>2026-04-19T14:18:53.42Z</time></trkpt><trkpt lat="44.9181516" lon="9.8940288"><ele>89.0</ele><time>2026-04-19T14:18:54.422Z</time></trkpt><trkpt lat="44.9183128" lon="9.8938709"><ele>88.33333333333334</ele><time>2026-04-19T14:18:55.428Z</time></trkpt><trkpt lat="44.9184748" lon="9.8937128"><ele>87.66666666666667</ele><time>2026-04-19T14:18:56.427Z</time></trkpt><trkpt lat="44.9186398" lon="9.8935491"><ele>87.0</ele><time>2026-04-19T14:18:57.41Z</time></trkpt><trkpt lat="44.9188052" lon="9.893388"><ele>87.0</ele><time>2026-04-19T14:18:58.415Z</time></trkpt><trkpt lat="44.9189713" lon="9.8932266"><ele>87.0</ele><time>2026-04-19T14:18:59.421Z</time></trkpt><trkpt lat="44.9191383" lon="9.8930625"><ele>87.0</ele><time>2026-04-19T14:19:00.374Z</time></trkpt><trkpt lat="44.9193062" lon="9.8928983"><ele>87.0</ele><time>2026-04-19T14:19:01.419Z</time></trkpt><trkpt lat="44.9194731" lon="9.8927333"><ele>87.0</ele><time>2026-04-19T14:19:02.425Z</time></trkpt><trkpt lat="44.9196384" lon="9.8925696"><ele>87.0</ele><time>2026-04-19T14:19:03.417Z</time></trkpt><trkpt lat="44.9198079" lon="9.8924012"><ele>87.0</ele><time>2026-04-19T14:19:04.418Z</time></trkpt><trkpt lat="44.9199827" lon="9.892233"><ele>87.0</ele><time>2026-04-19T14:19:05.419Z</time></trkpt><trkpt lat="44.920161" lon="9.8920634"><ele>87.0</ele><time>2026-04-19T14:19:06.408Z</time></trkpt><trkpt lat="44.9203381" lon="9.8918866"><ele>87.0</ele><time>2026-04-19T14:19:07.412Z</time></trkpt><trkpt lat="44.9205178" lon="9.8917107"><ele>87.0</ele><time>2026-04-19T14:19:08.396Z</time></trkpt><trkpt lat="44.9206927" lon="9.8915371"><ele>87.0</ele><time>2026-04-19T14:19:09.414Z</time></trkpt><trkpt lat="44.9208737" lon="9.8913644"><ele>86.33333333333333</ele><time>2026-04-19T14:19:10.394Z</time></trkpt><trkpt lat="44.9210462" lon="9.8911888"><ele>85.66666666666666</ele><time>2026-04-19T14:19:11.408Z</time></trkpt><trkpt lat="44.9212295" lon="9.891015"><ele>85.0</ele><time>2026-04-19T14:19:12.412Z</time></trkpt><trkpt lat="44.9214057" lon="9.890841"><ele>85.0</ele><time>2026-04-19T14:19:13.419Z</time></trkpt><trkpt lat="44.9215866" lon="9.8906729"><ele>85.0</ele><time>2026-04-19T14:19:14.413Z</time></trkpt><trkpt lat="44.9217613" lon="9.8904994"><ele>85.0</ele><time>2026-04-19T14:19:15.417Z</time></trkpt><trkpt lat="44.9219325" lon="9.890327"><ele>85.0</ele><time>2026-04-19T14:19:16.421Z</time></trkpt><trkpt lat="44.9221066" lon="9.8901552"><ele>85.0</ele><time>2026-04-19T14:19:17.411Z</time></trkpt><trkpt lat="44.9222827" lon="9.8899846"><ele>85.0</ele><time>2026-04-19T14:19:18.394Z</time></trkpt><trkpt lat="44.9224504" lon="9.8898135"><ele>85.66666666666666</ele><time>2026-04-19T14:19:19.416Z</time></trkpt><trkpt lat="44.9226149" lon="9.8896455"><ele>86.33333333333333</ele><time>2026-04-19T14:19:20.405Z</time></trkpt><trkpt lat="44.9227791" lon="9.8894793"><ele>87.0</ele><time>2026-04-19T14:19:21.411Z</time></trkpt><trkpt lat="44.9229455" lon="9.8893157"><ele>86.66666666666667</ele><time>2026-04-19T14:19:22.423Z</time></trkpt><trkpt lat="44.9231086" lon="9.8891588"><ele>86.33333333333334</ele><time>2026-04-19T14:19:23.425Z</time></trkpt><trkpt lat="44.9232675" lon="9.889005"><ele>86.0</ele><time>2026-04-19T14:19:24.395Z</time></trkpt><trkpt lat="44.9234234" lon="9.8888529"><ele>85.66666666666667</ele><time>2026-04-19T14:19:25.426Z</time></trkpt><trkpt lat="44.9235773" lon="9.8887007"><ele>85.33333333333333</ele><time>2026-04-19T14:19:26.42Z</time></trkpt><trkpt lat="44.9237331" lon="9.8885489"><ele>85.0</ele><time>2026-04-19T14:19:27.418Z</time></trkpt><trkpt lat="44.9238867" lon="9.8884001"><ele>85.0</ele><time>2026-04-19T14:19:28.44Z</time></trkpt><trkpt lat="44.9240448" lon="9.8882582"><ele>85.0</ele><time>2026-04-19T14:19:29.421Z</time></trkpt><trkpt lat="44.9242089" lon="9.8881241"><ele>85.0</ele><time>2026-04-19T14:19:30.414Z</time></trkpt><trkpt lat="44.9243787" lon="9.8879993"><ele>85.0</ele><time>2026-04-19T14:19:31.422Z</time></trkpt><trkpt lat="44.9245536" lon="9.8878865"><ele>85.0</ele><time>2026-04-19T14:19:32.418Z</time></trkpt><trkpt lat="44.9247367" lon="9.8877815"><ele>85.0</ele><time>2026-04-19T14:19:33.423Z</time></trkpt><trkpt lat="44.924926" lon="9.887687"><ele>85.33333333333333</ele><time>2026-04-19T14:19:34.437Z</time></trkpt><trkpt lat="44.9251141" lon="9.8875993"><ele>85.66666666666667</ele><time>2026-04-19T14:19:35.419Z</time></trkpt><trkpt lat="44.9253058" lon="9.8875242"><ele>86.0</ele><time>2026-04-19T14:19:36.423Z</time></trkpt><trkpt lat="44.9254987" lon="9.8874598"><ele>86.33333333333334</ele><time>2026-04-19T14:19:37.417Z</time></trkpt><trkpt lat="44.9256918" lon="9.8874048"><ele>86.66666666666667</ele><time>2026-04-19T14:19:38.357Z</time></trkpt><trkpt lat="44.9258855" lon="9.8873627"><ele>87.0</ele><time>2026-04-19T14:19:39.401Z</time></trkpt><trkpt lat="44.9260816" lon="9.8873359"><ele>87.0</ele><time>2026-04-19T14:19:40.403Z</time></trkpt><trkpt lat="44.9262781" lon="9.8873235"><ele>87.0</ele><time>2026-04-19T14:19:41.409Z</time></trkpt><trkpt lat="44.9264756" lon="9.8873162"><ele>87.0</ele><time>2026-04-19T14:19:42.407Z</time></trkpt><trkpt lat="44.926675" lon="9.8873134"><ele>86.0</ele><time>2026-04-19T14:19:43.404Z</time></trkpt><trkpt lat="44.9268747" lon="9.8873283"><ele>85.0</ele><time>2026-04-19T14:19:44.408Z</time></trkpt><trkpt lat="44.9270719" lon="9.8873527"><ele>84.0</ele><time>2026-04-19T14:19:45.405Z</time></trkpt><trkpt lat="44.9272663" lon="9.8873847"><ele>84.0</ele><time>2026-04-19T14:19:46.397Z</time></trkpt><trkpt lat="44.9274649" lon="9.8874269"><ele>84.0</ele><time>2026-04-19T14:19:47.393Z</time></trkpt><trkpt lat="44.9276546" lon="9.8874858"><ele>84.0</ele><time>2026-04-19T14:19:48.411Z</time></trkpt><trkpt lat="44.9278466" lon="9.8875563"><ele>83.66666666666667</ele><time>2026-04-19T14:19:49.401Z</time></trkpt><trkpt lat="44.928037" lon="9.8876367"><ele>83.33333333333334</ele><time>2026-04-19T14:19:50.415Z</time></trkpt><trkpt lat="44.9282207" lon="9.8877236"><ele>83.0</ele><time>2026-04-19T14:19:51.417Z</time></trkpt><trkpt lat="44.9284079" lon="9.887824"><ele>83.0</ele><time>2026-04-19T14:19:52.422Z</time></trkpt><trkpt lat="44.9285923" lon="9.8879349"><ele>83.0</ele><time>2026-04-19T14:19:53.417Z</time></trkpt><trkpt lat="44.9287757" lon="9.8880521"><ele>83.0</ele><time>2026-04-19T14:19:54.423Z</time></trkpt><trkpt lat="44.9289512" lon="9.8881722"><ele>83.0</ele><time>2026-04-19T14:19:55.396Z</time></trkpt><trkpt lat="44.9291314" lon="9.8882965"><ele>83.0</ele><time>2026-04-19T14:19:56.414Z</time></trkpt><trkpt lat="44.929308" lon="9.8884192"><ele>83.0</ele><time>2026-04-19T14:19:57.427Z</time></trkpt><trkpt lat="44.9294871" lon="9.8885385"><ele>82.33333333333334</ele><time>2026-04-19T14:19:58.426Z</time></trkpt><trkpt lat="44.9296672" lon="9.888658"><ele>81.66666666666667</ele><time>2026-04-19T14:19:59.383Z</time></trkpt><trkpt lat="44.9298503" lon="9.8887777"><ele>81.0</ele><time>2026-04-19T14:20:00.413Z</time></trkpt><trkpt lat="44.9300319" lon="9.8888976"><ele>81.0</ele><time>2026-04-19T14:20:01.409Z</time></trkpt><trkpt lat="44.9302136" lon="9.8890223"><ele>81.0</ele><time>2026-04-19T14:20:02.382Z</time></trkpt><trkpt lat="44.9303985" lon="9.8891452"><ele>81.0</ele><time>2026-04-19T14:20:03.414Z</time></trkpt><trkpt lat="44.9305833" lon="9.8892708"><ele>81.0</ele><time>2026-04-19T14:20:04.427Z</time></trkpt><trkpt lat="44.9307675" lon="9.8893957"><ele>81.0</ele><time>2026-04-19T14:20:05.423Z</time></trkpt><trkpt lat="44.9309529" lon="9.889516"><ele>81.0</ele><time>2026-04-19T14:20:06.405Z</time></trkpt><trkpt lat="44.9311391" lon="9.8896437"><ele>81.0</ele><time>2026-04-19T14:20:07.417Z</time></trkpt><trkpt lat="44.9313282" lon="9.8897735"><ele>81.0</ele><time>2026-04-19T14:20:08.41Z</time></trkpt><trkpt lat="44.9315152" lon="9.8899048"><ele>81.0</ele><time>2026-04-19T14:20:09.423Z</time></trkpt><trkpt lat="44.9316995" lon="9.8900318"><ele>80.66666666666667</ele><time>2026-04-19T14:20:10.409Z</time></trkpt><trkpt lat="44.9318869" lon="9.8901608"><ele>80.33333333333334</ele><time>2026-04-19T14:20:11.428Z</time></trkpt><trkpt lat="44.9320721" lon="9.8902876"><ele>80.0</ele><time>2026-04-19T14:20:12.408Z</time></trkpt><trkpt lat="44.9322607" lon="9.8904152"><ele>80.0</ele><time>2026-04-19T14:20:13.416Z</time></trkpt><trkpt lat="44.9324485" lon="9.8905478"><ele>80.0</ele><time>2026-04-19T14:20:14.403Z</time></trkpt><trkpt lat="44.9326331" lon="9.8906736"><ele>80.0</ele><time>2026-04-19T14:20:15.426Z</time></trkpt><trkpt lat="44.9328282" lon="9.8908001"><ele>80.0</ele><time>2026-04-19T14:20:16.412Z</time></trkpt><trkpt lat="44.9330177" lon="9.8909296"><ele>80.0</ele><time>2026-04-19T14:20:17.407Z</time></trkpt><trkpt lat="44.933207" lon="9.8910598"><ele>80.0</ele><time>2026-04-19T14:20:18.406Z</time></trkpt><trkpt lat="44.9333988" lon="9.8911909"><ele>80.0</ele><time>2026-04-19T14:20:19.405Z</time></trkpt><trkpt lat="44.933593" lon="9.8913194"><ele>80.0</ele><time>2026-04-19T14:20:20.402Z</time></trkpt><trkpt lat="44.9337831" lon="9.891449"><ele>80.0</ele><time>2026-04-19T14:20:21.427Z</time></trkpt><trkpt lat="44.9339768" lon="9.891581"><ele>80.0</ele><time>2026-04-19T14:20:22.401Z</time></trkpt><trkpt lat="44.9341724" lon="9.8917129"><ele>80.0</ele><time>2026-04-19T14:20:23.412Z</time></trkpt><trkpt lat="44.9343631" lon="9.8918449"><ele>80.0</ele><time>2026-04-19T14:20:24.405Z</time></trkpt><trkpt lat="44.9345602" lon="9.8919772"><ele>78.66666666666667</ele><time>2026-04-19T14:20:25.408Z</time></trkpt><trkpt lat="44.9347534" lon="9.8921087"><ele>77.33333333333333</ele><time>2026-04-19T14:20:26.401Z</time></trkpt><trkpt lat="44.9349537" lon="9.8922393"><ele>76.0</ele><time>2026-04-19T14:20:27.4Z</time></trkpt><trkpt lat="44.9351511" lon="9.8923672"><ele>75.66666666666666</ele><time>2026-04-19T14:20:28.423Z</time></trkpt><trkpt lat="44.9353488" lon="9.8924929"><ele>75.33333333333333</ele><time>2026-04-19T14:20:29.412Z</time></trkpt><trkpt lat="44.9355419" lon="9.8926199"><ele>75.0</ele><time>2026-04-19T14:20:30.409Z</time></trkpt><trkpt lat="44.9357367" lon="9.8927452"><ele>75.0</ele><time>2026-04-19T14:20:31.414Z</time></trkpt><trkpt lat="44.9359368" lon="9.8928688"><ele>75.0</ele><time>2026-04-19T14:20:32.409Z</time></trkpt><trkpt lat="44.9361298" lon="9.8929929"><ele>75.0</ele><time>2026-04-19T14:20:33.417Z</time></trkpt><trkpt lat="44.9363202" lon="9.8931126"><ele>75.0</ele><time>2026-04-19T14:20:34.41Z</time></trkpt><trkpt lat="44.9365062" lon="9.8932285"><ele>75.0</ele><time>2026-04-19T14:20:35.374Z</time></trkpt><trkpt lat="44.9366846" lon="9.893339"><ele>75.0</ele><time>2026-04-19T14:20:36.41Z</time></trkpt><trkpt lat="44.9368604" lon="9.8934481"><ele>75.0</ele><time>2026-04-19T14:20:37.403Z</time></trkpt><trkpt lat="44.9370334" lon="9.8935516"><ele>75.0</ele><time>2026-04-19T14:20:38.417Z</time></trkpt><trkpt lat="44.9372039" lon="9.893654"><ele>75.0</ele><time>2026-04-19T14:20:39.411Z</time></trkpt><trkpt lat="44.9373708" lon="9.8937588"><ele>75.0</ele><time>2026-04-19T14:20:40.391Z</time></trkpt><trkpt lat="44.9375362" lon="9.8938751"><ele>75.0</ele><time>2026-04-19T14:20:41.396Z</time></trkpt><trkpt lat="44.9376982" lon="9.8940071"><ele>75.0</ele><time>2026-04-19T14:20:42.414Z</time></trkpt><trkpt lat="44.9378553" lon="9.8941517"><ele>74.66666666666667</ele><time>2026-04-19T14:20:43.413Z</time></trkpt><trkpt lat="44.9380091" lon="9.8943052"><ele>74.33333333333334</ele><time>2026-04-19T14:20:44.419Z</time></trkpt><trkpt lat="44.9381537" lon="9.8944684"><ele>74.0</ele><time>2026-04-19T14:20:45.42Z</time></trkpt><trkpt lat="44.9383047" lon="9.8946377"><ele>73.66666666666667</ele><time>2026-04-19T14:20:46.415Z</time></trkpt><trkpt lat="44.9384514" lon="9.8948084"><ele>73.33333333333333</ele><time>2026-04-19T14:20:47.417Z</time></trkpt><trkpt lat="44.9385995" lon="9.8949811"><ele>73.0</ele><time>2026-04-19T14:20:48.411Z</time></trkpt><trkpt lat="44.938748" lon="9.8951555"><ele>73.0</ele><time>2026-04-19T14:20:49.409Z</time></trkpt><trkpt lat="44.9388986" lon="9.895333"><ele>73.0</ele><time>2026-04-19T14:20:50.413Z</time></trkpt><trkpt lat="44.9390473" lon="9.8955107"><ele>73.0</ele><time>2026-04-19T14:20:51.407Z</time></trkpt><trkpt lat="44.9392006" lon="9.8956942"><ele>73.0</ele><time>2026-04-19T14:20:52.415Z</time></trkpt><trkpt lat="44.9393521" lon="9.895877"><ele>73.0</ele><time>2026-04-19T14:20:53.424Z</time></trkpt><trkpt lat="44.9395026" lon="9.8960597"><ele>73.0</ele><time>2026-04-19T14:20:54.41Z</time></trkpt><trkpt lat="44.9396523" lon="9.8962438"><ele>73.0</ele><time>2026-04-19T14:20:55.429Z</time></trkpt><trkpt lat="44.9398018" lon="9.8964218"><ele>73.0</ele><time>2026-04-19T14:20:56.421Z</time></trkpt><trkpt lat="44.93995" lon="9.8966002"><ele>73.0</ele><time>2026-04-19T14:20:57.416Z</time></trkpt><trkpt lat="44.9400981" lon="9.8967783"><ele>72.66666666666666</ele><time>2026-04-19T14:20:58.416Z</time></trkpt><trkpt lat="44.9402426" lon="9.8969563"><ele>72.33333333333333</ele><time>2026-04-19T14:20:59.416Z</time></trkpt><trkpt lat="44.9403831" lon="9.8971351"><ele>72.0</ele><time>2026-04-19T14:21:00.415Z</time></trkpt><trkpt lat="44.940526" lon="9.8973121"><ele>72.0</ele><time>2026-04-19T14:21:01.411Z</time></trkpt><trkpt lat="44.9406673" lon="9.8974847"><ele>72.0</ele><time>2026-04-19T14:21:02.427Z</time></trkpt><trkpt lat="44.9408101" lon="9.8976596"><ele>72.0</ele><time>2026-04-19T14:21:03.414Z</time></trkpt><trkpt lat="44.9409493" lon="9.8978307"><ele>72.66666666666667</ele><time>2026-04-19T14:21:04.417Z</time></trkpt><trkpt lat="44.9410935" lon="9.8980078"><ele>73.33333333333334</ele><time>2026-04-19T14:21:05.419Z</time></trkpt><trkpt lat="44.941236" lon="9.8981814"><ele>74.0</ele><time>2026-04-19T14:21:06.405Z</time></trkpt><trkpt lat="44.941381" lon="9.8983615"><ele>73.0</ele><time>2026-04-19T14:21:07.368Z</time></trkpt><trkpt lat="44.9415244" lon="9.8985398"><ele>72.0</ele><time>2026-04-19T14:21:08.423Z</time></trkpt><trkpt lat="44.9416663" lon="9.8987101"><ele>71.0</ele><time>2026-04-19T14:21:09.406Z</time></trkpt><trkpt lat="44.9418087" lon="9.8988779"><ele>71.0</ele><time>2026-04-19T14:21:10.379Z</time></trkpt><trkpt lat="44.9419564" lon="9.8990388"><ele>71.0</ele><time>2026-04-19T14:21:11.409Z</time></trkpt><trkpt lat="44.9421104" lon="9.8991909"><ele>71.0</ele><time>2026-04-19T14:21:12.391Z</time></trkpt><trkpt lat="44.9422755" lon="9.8993334"><ele>70.33333333333334</ele><time>2026-04-19T14:21:13.406Z</time></trkpt><trkpt lat="44.9424395" lon="9.8994673"><ele>69.66666666666667</ele><time>2026-04-19T14:21:14.409Z</time></trkpt><trkpt lat="44.9426095" lon="9.8995951"><ele>69.0</ele><time>2026-04-19T14:21:15.409Z</time></trkpt><trkpt lat="44.9427812" lon="9.8997223"><ele>68.33333333333333</ele><time>2026-04-19T14:21:16.382Z</time></trkpt><trkpt lat="44.9429625" lon="9.8998383"><ele>67.66666666666666</ele><time>2026-04-19T14:21:17.394Z</time></trkpt><trkpt lat="44.9431481" lon="9.8999396"><ele>67.0</ele><time>2026-04-19T14:21:18.405Z</time></trkpt><trkpt lat="44.9433368" lon="9.9000294"><ele>67.66666666666666</ele><time>2026-04-19T14:21:19.4Z</time></trkpt><trkpt lat="44.9435269" lon="9.9001213"><ele>68.33333333333333</ele><time>2026-04-19T14:21:20.379Z</time></trkpt><trkpt lat="44.9437204" lon="9.900209"><ele>69.0</ele><time>2026-04-19T14:21:21.394Z</time></trkpt><trkpt lat="44.943912" lon="9.900294"><ele>69.0</ele><time>2026-04-19T14:21:22.408Z</time></trkpt><trkpt lat="44.9441019" lon="9.9003823"><ele>69.0</ele><time>2026-04-19T14:21:23.416Z</time></trkpt><trkpt lat="44.9442897" lon="9.9004668"><ele>69.0</ele><time>2026-04-19T14:21:24.406Z</time></trkpt><trkpt lat="44.9444818" lon="9.9005488"><ele>69.33333333333333</ele><time>2026-04-19T14:21:25.412Z</time></trkpt><trkpt lat="44.9446724" lon="9.9006288"><ele>69.66666666666666</ele><time>2026-04-19T14:21:26.416Z</time></trkpt><trkpt lat="44.944859" lon="9.9007139"><ele>70.0</ele><time>2026-04-19T14:21:27.408Z</time></trkpt><trkpt lat="44.9450431" lon="9.9008052"><ele>70.33333333333333</ele><time>2026-04-19T14:21:28.426Z</time></trkpt><trkpt lat="44.9452315" lon="9.9008992"><ele>70.66666666666667</ele><time>2026-04-19T14:21:29.418Z</time></trkpt><trkpt lat="44.9454205" lon="9.9009987"><ele>71.0</ele><time>2026-04-19T14:21:30.415Z</time></trkpt><trkpt lat="44.9456083" lon="9.901107"><ele>70.33333333333334</ele><time>2026-04-19T14:21:31.416Z</time></trkpt><trkpt lat="44.9457972" lon="9.9012166"><ele>69.66666666666667</ele><time>2026-04-19T14:21:32.409Z</time></trkpt><trkpt lat="44.9459881" lon="9.9013282"><ele>69.0</ele><time>2026-04-19T14:21:33.426Z</time></trkpt><trkpt lat="44.9461741" lon="9.9014428"><ele>68.66666666666667</ele><time>2026-04-19T14:21:34.392Z</time></trkpt><trkpt lat="44.9463546" lon="9.9015559"><ele>68.33333333333334</ele><time>2026-04-19T14:21:35.398Z</time></trkpt><trkpt lat="44.9465317" lon="9.9016657"><ele>68.0</ele><time>2026-04-19T14:21:36.411Z</time></trkpt><trkpt lat="44.9467079" lon="9.9017733"><ele>68.0</ele><time>2026-04-19T14:21:37.409Z</time></trkpt><trkpt lat="44.9468772" lon="9.9018813"><ele>68.0</ele><time>2026-04-19T14:21:38.41Z</time></trkpt><trkpt lat="44.9470469" lon="9.9019861"><ele>68.0</ele><time>2026-04-19T14:21:39.424Z</time></trkpt><trkpt lat="44.9472156" lon="9.90209"><ele>68.0</ele><time>2026-04-19T14:21:40.415Z</time></trkpt><trkpt lat="44.9473843" lon="9.9021947"><ele>68.0</ele><time>2026-04-19T14:21:41.413Z</time></trkpt><trkpt lat="44.947554" lon="9.9022978"><ele>68.0</ele><time>2026-04-19T14:21:42.41Z</time></trkpt><trkpt lat="44.9477202" lon="9.9024036"><ele>68.0</ele><time>2026-04-19T14:21:43.43Z</time></trkpt><trkpt lat="44.9478887" lon="9.9025107"><ele>68.0</ele><time>2026-04-19T14:21:44.408Z</time></trkpt><trkpt lat="44.948055" lon="9.9026166"><ele>68.0</ele><time>2026-04-19T14:21:45.403Z</time></trkpt><trkpt lat="44.9482179" lon="9.9027209"><ele>68.0</ele><time>2026-04-19T14:21:46.389Z</time></trkpt><trkpt lat="44.9483796" lon="9.9028266"><ele>68.0</ele><time>2026-04-19T14:21:47.408Z</time></trkpt><trkpt lat="44.948542" lon="9.9029302"><ele>68.0</ele><time>2026-04-19T14:21:48.403Z</time></trkpt><trkpt lat="44.9487076" lon="9.9030327"><ele>68.0</ele><time>2026-04-19T14:21:49.407Z</time></trkpt><trkpt lat="44.9488709" lon="9.9031312"><ele>68.0</ele><time>2026-04-19T14:21:50.415Z</time></trkpt><trkpt lat="44.9490307" lon="9.9032306"><ele>68.0</ele><time>2026-04-19T14:21:51.409Z</time></trkpt><trkpt lat="44.9491849" lon="9.9033287"><ele>66.66666666666667</ele><time>2026-04-19T14:21:52.41Z</time></trkpt><trkpt lat="44.9493352" lon="9.9034242"><ele>65.33333333333333</ele><time>2026-04-19T14:21:53.394Z</time></trkpt><trkpt lat="44.9494868" lon="9.9035203"><ele>64.0</ele><time>2026-04-19T14:21:54.412Z</time></trkpt><trkpt lat="44.9496335" lon="9.9036122"><ele>64.0</ele><time>2026-04-19T14:21:55.415Z</time></trkpt><trkpt lat="44.9497786" lon="9.9036994"><ele>64.0</ele><time>2026-04-19T14:21:56.418Z</time></trkpt><trkpt lat="44.9499224" lon="9.9037857"><ele>64.0</ele><time>2026-04-19T14:21:57.407Z</time></trkpt><trkpt lat="44.950062" lon="9.9038828"><ele>63.666666666666664</ele><time>2026-04-19T14:21:58.421Z</time></trkpt><trkpt lat="44.950208" lon="9.9039791"><ele>63.33333333333333</ele><time>2026-04-19T14:21:59.413Z</time></trkpt><trkpt lat="44.9503513" lon="9.9040666"><ele>63.0</ele><time>2026-04-19T14:22:00.413Z</time></trkpt><trkpt lat="44.9505" lon="9.9041572"><ele>64.33333333333333</ele><time>2026-04-19T14:22:01.405Z</time></trkpt><trkpt lat="44.9506466" lon="9.9042466"><ele>65.66666666666666</ele><time>2026-04-19T14:22:02.413Z</time></trkpt><trkpt lat="44.9507881" lon="9.9043334"><ele>67.0</ele><time>2026-04-19T14:22:03.409Z</time></trkpt><trkpt lat="44.95093" lon="9.9044165"><ele>67.0</ele><time>2026-04-19T14:22:04.42Z</time></trkpt><trkpt lat="44.9510685" lon="9.9044983"><ele>67.0</ele><time>2026-04-19T14:22:05.387Z</time></trkpt><trkpt lat="44.9511913" lon="9.9045732"><ele>67.0</ele><time>2026-04-19T14:22:06.402Z</time></trkpt><trkpt lat="44.9513109" lon="9.9046509"><ele>67.0</ele><time>2026-04-19T14:22:07.406Z</time></trkpt><trkpt lat="44.9514195" lon="9.904728"><ele>67.0</ele><time>2026-04-19T14:22:08.405Z</time></trkpt><trkpt lat="44.9515145" lon="9.9048073"><ele>67.0</ele><time>2026-04-19T14:22:09.415Z</time></trkpt><trkpt lat="44.9515856" lon="9.904902"><ele>67.0</ele><time>2026-04-19T14:22:10.417Z</time></trkpt><trkpt lat="44.9516531" lon="9.9049951"><ele>67.0</ele><time>2026-04-19T14:22:11.415Z</time></trkpt><trkpt lat="44.9517357" lon="9.905069"><ele>67.0</ele><time>2026-04-19T14:22:12.409Z</time></trkpt><trkpt lat="44.9518375" lon="9.9051172"><ele>66.75</ele><time>2026-04-19T14:22:13.398Z</time></trkpt><trkpt lat="44.9519461" lon="9.905134"><ele>66.5</ele><time>2026-04-19T14:22:14.4Z</time></trkpt><trkpt lat="44.9520703" lon="9.905148"><ele>66.25</ele><time>2026-04-19T14:22:15.409Z</time></trkpt><trkpt lat="44.9521984" lon="9.9051758"><ele>66.0</ele><time>2026-04-19T14:22:16.372Z</time></trkpt><trkpt lat="44.9523264" lon="9.9052214"><ele>66.0</ele><time>2026-04-19T14:22:17.356Z</time></trkpt><trkpt lat="44.9524611" lon="9.9052822"><ele>66.0</ele><time>2026-04-19T14:22:18.406Z</time></trkpt><trkpt lat="44.9525987" lon="9.9053613"><ele>66.0</ele><time>2026-04-19T14:22:19.412Z</time></trkpt><trkpt lat="44.9527409" lon="9.905439"><ele>66.0</ele><time>2026-04-19T14:22:20.41Z</time></trkpt><trkpt lat="44.9528872" lon="9.9055203"><ele>66.0</ele><time>2026-04-19T14:22:21.397Z</time></trkpt><trkpt lat="44.953036" lon="9.9056052"><ele>66.0</ele><time>2026-04-19T14:22:22.408Z</time></trkpt><trkpt lat="44.9531854" lon="9.9056937"><ele>66.0</ele><time>2026-04-19T14:22:23.407Z</time></trkpt><trkpt lat="44.9533384" lon="9.9057822"><ele>66.0</ele><time>2026-04-19T14:22:24.415Z</time></trkpt><trkpt lat="44.9534962" lon="9.9058695"><ele>66.0</ele><time>2026-04-19T14:22:25.388Z</time></trkpt><trkpt lat="44.9536614" lon="9.9059705"><ele>66.0</ele><time>2026-04-19T14:22:26.428Z</time></trkpt><trkpt lat="44.9538366" lon="9.9060684"><ele>66.0</ele><time>2026-04-19T14:22:27.418Z</time></trkpt><trkpt lat="44.9539992" lon="9.9061582"><ele>66.0</ele><time>2026-04-19T14:22:28.417Z</time></trkpt><trkpt lat="44.9541624" lon="9.9062485"><ele>66.0</ele><time>2026-04-19T14:22:29.417Z</time></trkpt><trkpt lat="44.9543222" lon="9.9063384"><ele>65.0</ele><time>2026-04-19T14:22:30.415Z</time></trkpt><trkpt lat="44.954486" lon="9.9064269"><ele>64.0</ele><time>2026-04-19T14:22:31.422Z</time></trkpt><trkpt lat="44.9546444" lon="9.9065144"><ele>63.0</ele><time>2026-04-19T14:22:32.404Z</time></trkpt><trkpt lat="44.9547941" lon="9.9066021"><ele>63.0</ele><time>2026-04-19T14:22:33.395Z</time></trkpt><trkpt lat="44.9549475" lon="9.9066937"><ele>63.0</ele><time>2026-04-19T14:22:34.412Z</time></trkpt><trkpt lat="44.9550955" lon="9.9067902"><ele>63.0</ele><time>2026-04-19T14:22:35.414Z</time></trkpt><trkpt lat="44.9552421" lon="9.9068825"><ele>63.33333333333333</ele><time>2026-04-19T14:22:36.412Z</time></trkpt><trkpt lat="44.9553823" lon="9.9069721"><ele>63.666666666666664</ele><time>2026-04-19T14:22:37.396Z</time></trkpt><trkpt lat="44.9555205" lon="9.9070638"><ele>64.0</ele><time>2026-04-19T14:22:38.404Z</time></trkpt><trkpt lat="44.9556523" lon="9.9071503"><ele>64.0</ele><time>2026-04-19T14:22:39.417Z</time></trkpt><trkpt lat="44.9557835" lon="9.9072448"><ele>64.0</ele><time>2026-04-19T14:22:40.403Z</time></trkpt><trkpt lat="44.9559194" lon="9.9073453"><ele>64.0</ele><time>2026-04-19T14:22:41.423Z</time></trkpt><trkpt lat="44.9560471" lon="9.9074435"><ele>64.0</ele><time>2026-04-19T14:22:42.411Z</time></trkpt><trkpt lat="44.9561755" lon="9.9075459"><ele>63.33333333333333</ele><time>2026-04-19T14:22:43.413Z</time></trkpt><trkpt lat="44.9563051" lon="9.9076602"><ele>62.66666666666667</ele><time>2026-04-19T14:22:44.423Z</time></trkpt><trkpt lat="44.9564328" lon="9.9077851"><ele>62.0</ele><time>2026-04-19T14:22:45.432Z</time></trkpt><trkpt lat="44.9565506" lon="9.9079282"><ele>62.0</ele><time>2026-04-19T14:22:46.362Z</time></trkpt><trkpt lat="44.9566496" lon="9.9080866"><ele>62.0</ele><time>2026-04-19T14:22:47.413Z</time></trkpt><trkpt lat="44.9567409" lon="9.9082567"><ele>62.0</ele><time>2026-04-19T14:22:48.411Z</time></trkpt><trkpt lat="44.9568275" lon="9.9084368"><ele>62.25</ele><time>2026-04-19T14:22:49.398Z</time></trkpt><trkpt lat="44.9569042" lon="9.9086212"><ele>62.5</ele><time>2026-04-19T14:22:50.435Z</time></trkpt><trkpt lat="44.9569666" lon="9.9088108"><ele>62.75</ele><time>2026-04-19T14:22:51.41Z</time></trkpt><trkpt lat="44.9570248" lon="9.9090005"><ele>63.0</ele><time>2026-04-19T14:22:52.418Z</time></trkpt><trkpt lat="44.9570757" lon="9.9091858"><ele>63.0</ele><time>2026-04-19T14:22:53.4Z</time></trkpt><trkpt lat="44.9571273" lon="9.9093681"><ele>63.0</ele><time>2026-04-19T14:22:54.418Z</time></trkpt><trkpt lat="44.9571748" lon="9.9095385"><ele>63.0</ele><time>2026-04-19T14:22:55.403Z</time></trkpt><trkpt lat="44.9572279" lon="9.9097029"><ele>63.0</ele><time>2026-04-19T14:22:56.399Z</time></trkpt><trkpt lat="44.9572788" lon="9.9098608"><ele>63.0</ele><time>2026-04-19T14:22:57.405Z</time></trkpt><trkpt lat="44.9573212" lon="9.910015"><ele>63.0</ele><time>2026-04-19T14:22:58.388Z</time></trkpt><trkpt lat="44.9573536" lon="9.9101718"><ele>63.0</ele><time>2026-04-19T14:22:59.393Z</time></trkpt><trkpt lat="44.9573797" lon="9.9103305"><ele>63.0</ele><time>2026-04-19T14:23:00.399Z</time></trkpt><trkpt lat="44.9574072" lon="9.9104813"><ele>63.2</ele><time>2026-04-19T14:23:01.408Z</time></trkpt><trkpt lat="44.9574411" lon="9.9106229"><ele>63.4</ele><time>2026-04-19T14:23:02.394Z</time></trkpt><trkpt lat="44.9574888" lon="9.9107336"><ele>63.60000000000001</ele><time>2026-04-19T14:23:03.397Z</time></trkpt><trkpt lat="44.9575341" lon="9.9108345"><ele>63.800000000000004</ele><time>2026-04-19T14:23:04.413Z</time></trkpt><trkpt lat="44.9575784" lon="9.9109397"><ele>64.0</ele><time>2026-04-19T14:23:05.404Z</time></trkpt><trkpt lat="44.9576195" lon="9.9110457"><ele>64.2</ele><time>2026-04-19T14:23:06.403Z</time></trkpt><trkpt lat="44.9576693" lon="9.9111546"><ele>64.4</ele><time>2026-04-19T14:23:07.415Z</time></trkpt><trkpt lat="44.9577256" lon="9.9112748"><ele>64.6</ele><time>2026-04-19T14:23:08.418Z</time></trkpt><trkpt lat="44.9577929" lon="9.9114019"><ele>64.8</ele><time>2026-04-19T14:23:09.399Z</time></trkpt><trkpt lat="44.9578749" lon="9.9115272"><ele>65.0</ele><time>2026-04-19T14:23:10.405Z</time></trkpt><trkpt lat="44.957956" lon="9.9116575"><ele>65.0</ele><time>2026-04-19T14:23:11.419Z</time></trkpt><trkpt lat="44.9580401" lon="9.9117935"><ele>65.0</ele><time>2026-04-19T14:23:12.412Z</time></trkpt><trkpt lat="44.9581254" lon="9.9119322"><ele>65.0</ele><time>2026-04-19T14:23:13.41Z</time></trkpt><trkpt lat="44.958217" lon="9.9120799"><ele>65.0</ele><time>2026-04-19T14:23:14.379Z</time></trkpt><trkpt lat="44.9583099" lon="9.9122206"><ele>64.5</ele><time>2026-04-19T14:23:15.411Z</time></trkpt><trkpt lat="44.9584186" lon="9.9123645"><ele>64.0</ele><time>2026-04-19T14:23:16.41Z</time></trkpt><trkpt lat="44.9585247" lon="9.9125"><ele>63.5</ele><time>2026-04-19T14:23:17.429Z</time></trkpt><trkpt lat="44.9586373" lon="9.9126312"><ele>63.0</ele><time>2026-04-19T14:23:18.388Z</time></trkpt><trkpt lat="44.9587553" lon="9.9127487"><ele>63.0</ele><time>2026-04-19T14:23:19.414Z</time></trkpt><trkpt lat="44.9588804" lon="9.9128549"><ele>63.0</ele><time>2026-04-19T14:23:20.416Z</time></trkpt><trkpt lat="44.9590071" lon="9.9129583"><ele>63.0</ele><time>2026-04-19T14:23:21.414Z</time></trkpt><trkpt lat="44.9591355" lon="9.9130597"><ele>63.0</ele><time>2026-04-19T14:23:22.407Z</time></trkpt><trkpt lat="44.9592586" lon="9.9131643"><ele>62.25</ele><time>2026-04-19T14:23:23.415Z</time></trkpt><trkpt lat="44.9593828" lon="9.9132685"><ele>61.5</ele><time>2026-04-19T14:23:24.416Z</time></trkpt><trkpt lat="44.9595041" lon="9.913372"><ele>60.75</ele><time>2026-04-19T14:23:25.407Z</time></trkpt><trkpt lat="44.9596217" lon="9.9134775"><ele>60.0</ele><time>2026-04-19T14:23:26.413Z</time></trkpt><trkpt lat="44.9597406" lon="9.9135805"><ele>60.0</ele><time>2026-04-19T14:23:27.401Z</time></trkpt><trkpt lat="44.959861" lon="9.9136794"><ele>60.0</ele><time>2026-04-19T14:23:28.413Z</time></trkpt><trkpt lat="44.9599764" lon="9.9137741"><ele>60.0</ele><time>2026-04-19T14:23:29.402Z</time></trkpt><trkpt lat="44.9600868" lon="9.9138655"><ele>60.0</ele><time>2026-04-19T14:23:30.405Z</time></trkpt><trkpt lat="44.9601876" lon="9.913973"><ele>60.25</ele><time>2026-04-19T14:23:31.416Z</time></trkpt><trkpt lat="44.9602731" lon="9.9140966"><ele>60.5</ele><time>2026-04-19T14:23:32.421Z</time></trkpt><trkpt lat="44.9603426" lon="9.9142395"><ele>60.75</ele><time>2026-04-19T14:23:33.422Z</time></trkpt><trkpt lat="44.9603898" lon="9.9143993"><ele>61.0</ele><time>2026-04-19T14:23:34.402Z</time></trkpt><trkpt lat="44.9604132" lon="9.9145759"><ele>61.25</ele><time>2026-04-19T14:23:35.399Z</time></trkpt><trkpt lat="44.9604104" lon="9.9147568"><ele>61.5</ele><time>2026-04-19T14:23:36.426Z</time></trkpt><trkpt lat="44.9603896" lon="9.9149323"><ele>61.75</ele><time>2026-04-19T14:23:37.422Z</time></trkpt><trkpt lat="44.9603374" lon="9.9150932"><ele>62.0</ele><time>2026-04-19T14:23:38.426Z</time></trkpt><trkpt lat="44.960269" lon="9.9152361"><ele>61.25</ele><time>2026-04-19T14:23:39.418Z</time></trkpt><trkpt lat="44.9601843" lon="9.9153548"><ele>60.5</ele><time>2026-04-19T14:23:40.426Z</time></trkpt><trkpt lat="44.9600741" lon="9.9154542"><ele>59.75</ele><time>2026-04-19T14:23:41.418Z</time></trkpt><trkpt lat="44.9599626" lon="9.91552"><ele>59.0</ele><time>2026-04-19T14:23:42.41Z</time></trkpt><trkpt lat="44.9598439" lon="9.9155573"><ele>59.0</ele><time>2026-04-19T14:23:43.418Z</time></trkpt><trkpt lat="44.9597228" lon="9.9155578"><ele>59.0</ele><time>2026-04-19T14:23:44.412Z</time></trkpt><trkpt lat="44.9595999" lon="9.915536"><ele>59.0</ele><time>2026-04-19T14:23:45.421Z</time></trkpt><trkpt lat="44.9594875" lon="9.9154832"><ele>59.0</ele><time>2026-04-19T14:23:46.406Z</time></trkpt><trkpt lat="44.9593838" lon="9.9154084"><ele>59.0</ele><time>2026-04-19T14:23:47.396Z</time></trkpt><trkpt lat="44.9592968" lon="9.9153076"><ele>59.00000000000001</ele><time>2026-04-19T14:23:48.414Z</time></trkpt><trkpt lat="44.9592257" lon="9.9151861"><ele>59.00000000000001</ele><time>2026-04-19T14:23:49.386Z</time></trkpt><trkpt lat="44.9591726" lon="9.9150511"><ele>59.0</ele><time>2026-04-19T14:23:50.413Z</time></trkpt><trkpt lat="44.9591393" lon="9.9149"><ele>59.0</ele><time>2026-04-19T14:23:51.421Z</time></trkpt><trkpt lat="44.9591233" lon="9.914741"><ele>59.25</ele><time>2026-04-19T14:23:52.399Z</time></trkpt><trkpt lat="44.9591208" lon="9.9145729"><ele>59.5</ele><time>2026-04-19T14:23:53.401Z</time></trkpt><trkpt lat="44.9591357" lon="9.914396"><ele>59.75</ele><time>2026-04-19T14:23:54.43Z</time></trkpt><trkpt lat="44.9591626" lon="9.9142167"><ele>60.0</ele><time>2026-04-19T14:23:55.418Z</time></trkpt><trkpt lat="44.9592009" lon="9.9140357"><ele>60.0</ele><time>2026-04-19T14:23:56.425Z</time></trkpt><trkpt lat="44.9592548" lon="9.9138495"><ele>60.0</ele><time>2026-04-19T14:23:57.423Z</time></trkpt><trkpt lat="44.9593214" lon="9.9136642"><ele>60.0</ele><time>2026-04-19T14:23:58.407Z</time></trkpt><trkpt lat="44.9593935" lon="9.9134791"><ele>60.0</ele><time>2026-04-19T14:23:59.424Z</time></trkpt><trkpt lat="44.9594697" lon="9.9132989"><ele>59.0</ele><time>2026-04-19T14:24:00.412Z</time></trkpt><trkpt lat="44.9595435" lon="9.9131178"><ele>58.0</ele><time>2026-04-19T14:24:01.403Z</time></trkpt><trkpt lat="44.9596201" lon="9.9129383"><ele>57.0</ele><time>2026-04-19T14:24:02.421Z</time></trkpt><trkpt lat="44.959695" lon="9.9127515"><ele>56.0</ele><time>2026-04-19T14:24:03.413Z</time></trkpt><trkpt lat="44.9597651" lon="9.9125651"><ele>56.0</ele><time>2026-04-19T14:24:04.408Z</time></trkpt><trkpt lat="44.9598397" lon="9.9123704"><ele>56.0</ele><time>2026-04-19T14:24:05.418Z</time></trkpt><trkpt lat="44.9599199" lon="9.9121752"><ele>56.0</ele><time>2026-04-19T14:24:06.407Z</time></trkpt><trkpt lat="44.9599982" lon="9.9119699"><ele>56.66666666666667</ele><time>2026-04-19T14:24:07.405Z</time></trkpt><trkpt lat="44.9600762" lon="9.9117546"><ele>57.33333333333333</ele><time>2026-04-19T14:24:08.404Z</time></trkpt><trkpt lat="44.9601611" lon="9.9115388"><ele>58.0</ele><time>2026-04-19T14:24:09.412Z</time></trkpt><trkpt lat="44.9602473" lon="9.9113174"><ele>58.0</ele><time>2026-04-19T14:24:10.414Z</time></trkpt><trkpt lat="44.9603339" lon="9.9110891"><ele>58.0</ele><time>2026-04-19T14:24:11.42Z</time></trkpt><trkpt lat="44.9604285" lon="9.9108533"><ele>58.0</ele><time>2026-04-19T14:24:12.413Z</time></trkpt><trkpt lat="44.9605242" lon="9.9106191"><ele>59.0</ele><time>2026-04-19T14:24:13.416Z</time></trkpt><trkpt lat="44.9606221" lon="9.9103901"><ele>60.0</ele><time>2026-04-19T14:24:14.411Z</time></trkpt><trkpt lat="44.9607227" lon="9.9101578"><ele>61.0</ele><time>2026-04-19T14:24:15.41Z</time></trkpt><trkpt lat="44.9608255" lon="9.9099203"><ele>61.33333333333333</ele><time>2026-04-19T14:24:16.383Z</time></trkpt><trkpt lat="44.9609286" lon="9.90968"><ele>61.66666666666667</ele><time>2026-04-19T14:24:17.392Z</time></trkpt><trkpt lat="44.9610333" lon="9.9094336"><ele>62.0</ele><time>2026-04-19T14:24:18.403Z</time></trkpt><trkpt lat="44.9611347" lon="9.9091875"><ele>62.333333333333336</ele><time>2026-04-19T14:24:19.399Z</time></trkpt><trkpt lat="44.9612344" lon="9.9089521"><ele>62.66666666666667</ele><time>2026-04-19T14:24:20.406Z</time></trkpt><trkpt lat="44.9613355" lon="9.9087114"><ele>63.0</ele><time>2026-04-19T14:24:21.392Z</time></trkpt><trkpt lat="44.9614396" lon="9.908474"><ele>63.0</ele><time>2026-04-19T14:24:22.414Z</time></trkpt><trkpt lat="44.961544" lon="9.9082385"><ele>63.0</ele><time>2026-04-19T14:24:23.414Z</time></trkpt><trkpt lat="44.9616506" lon="9.9079953"><ele>63.0</ele><time>2026-04-19T14:24:24.411Z</time></trkpt><trkpt lat="44.9617496" lon="9.9077532"><ele>62.33333333333333</ele><time>2026-04-19T14:24:25.41Z</time></trkpt><trkpt lat="44.9618527" lon="9.9075088"><ele>61.666666666666664</ele><time>2026-04-19T14:24:26.416Z</time></trkpt><trkpt lat="44.961961" lon="9.9072637"><ele>61.0</ele><time>2026-04-19T14:24:27.417Z</time></trkpt><trkpt lat="44.9620654" lon="9.9070281"><ele>61.0</ele><time>2026-04-19T14:24:28.407Z</time></trkpt><trkpt lat="44.9621662" lon="9.9067858"><ele>61.0</ele><time>2026-04-19T14:24:29.411Z</time></trkpt><trkpt lat="44.9622663" lon="9.9065421"><ele>61.0</ele><time>2026-04-19T14:24:30.412Z</time></trkpt><trkpt lat="44.962379" lon="9.9062912"><ele>61.0</ele><time>2026-04-19T14:24:31.414Z</time></trkpt><trkpt lat="44.9624854" lon="9.9060423"><ele>61.0</ele><time>2026-04-19T14:24:32.426Z</time></trkpt><trkpt lat="44.9625883" lon="9.9057943"><ele>61.0</ele><time>2026-04-19T14:24:33.389Z</time></trkpt><trkpt lat="44.9626955" lon="9.9055369"><ele>61.0</ele><time>2026-04-19T14:24:34.409Z</time></trkpt><trkpt lat="44.9628014" lon="9.905288"><ele>61.0</ele><time>2026-04-19T14:24:35.42Z</time></trkpt><trkpt lat="44.9629111" lon="9.905036"><ele>61.0</ele><time>2026-04-19T14:24:36.406Z</time></trkpt><trkpt lat="44.9630211" lon="9.9047752"><ele>61.0</ele><time>2026-04-19T14:24:37.424Z</time></trkpt><trkpt lat="44.9631208" lon="9.9045128"><ele>61.0</ele><time>2026-04-19T14:24:38.406Z</time></trkpt><trkpt lat="44.96322" lon="9.9042597"><ele>61.0</ele><time>2026-04-19T14:24:39.415Z</time></trkpt><trkpt lat="44.9633254" lon="9.9040025"><ele>60.666666666666664</ele><time>2026-04-19T14:24:40.415Z</time></trkpt><trkpt lat="44.9634334" lon="9.9037443"><ele>60.33333333333333</ele><time>2026-04-19T14:24:41.405Z</time></trkpt><trkpt lat="44.9635412" lon="9.9034835"><ele>60.0</ele><time>2026-04-19T14:24:42.412Z</time></trkpt><trkpt lat="44.9636495" lon="9.9032314"><ele>60.0</ele><time>2026-04-19T14:24:43.411Z</time></trkpt><trkpt lat="44.9637582" lon="9.9029731"><ele>60.0</ele><time>2026-04-19T14:24:44.429Z</time></trkpt><trkpt lat="44.9638685" lon="9.902708"><ele>60.0</ele><time>2026-04-19T14:24:45.409Z</time></trkpt><trkpt lat="44.9639813" lon="9.9024462"><ele>60.0</ele><time>2026-04-19T14:24:46.406Z</time></trkpt><trkpt lat="44.9640946" lon="9.9021794"><ele>60.0</ele><time>2026-04-19T14:24:47.403Z</time></trkpt><trkpt lat="44.9642112" lon="9.9019072"><ele>60.0</ele><time>2026-04-19T14:24:48.411Z</time></trkpt><trkpt lat="44.9643266" lon="9.9016304"><ele>60.5</ele><time>2026-04-19T14:24:49.425Z</time></trkpt><trkpt lat="44.9644446" lon="9.901353"><ele>61.0</ele><time>2026-04-19T14:24:50.408Z</time></trkpt><trkpt lat="44.9645632" lon="9.9010723"><ele>61.0</ele><time>2026-04-19T14:24:51.406Z</time></trkpt><trkpt lat="44.9646836" lon="9.9007862"><ele>61.0</ele><time>2026-04-19T14:24:52.405Z</time></trkpt><trkpt lat="44.9648072" lon="9.9004977"><ele>61.0</ele><time>2026-04-19T14:24:53.407Z</time></trkpt><trkpt lat="44.964932" lon="9.9002087"><ele>61.0</ele><time>2026-04-19T14:24:54.393Z</time></trkpt><trkpt lat="44.965056" lon="9.8999217"><ele>60.5</ele><time>2026-04-19T14:24:55.412Z</time></trkpt><trkpt lat="44.9651817" lon="9.8996295"><ele>60.0</ele><time>2026-04-19T14:24:56.412Z</time></trkpt><trkpt lat="44.9653079" lon="9.8993413"><ele>59.5</ele><time>2026-04-19T14:24:57.41Z</time></trkpt><trkpt lat="44.9654326" lon="9.8990511"><ele>59.0</ele><time>2026-04-19T14:24:58.418Z</time></trkpt><trkpt lat="44.9655575" lon="9.8987617"><ele>59.0</ele><time>2026-04-19T14:24:59.408Z</time></trkpt><trkpt lat="44.9656864" lon="9.8984668"><ele>59.0</ele><time>2026-04-19T14:25:00.399Z</time></trkpt><trkpt lat="44.9658133" lon="9.8981724"><ele>58.5</ele><time>2026-04-19T14:25:01.416Z</time></trkpt><trkpt lat="44.965939" lon="9.8978751"><ele>58.0</ele><time>2026-04-19T14:25:02.407Z</time></trkpt><trkpt lat="44.9660638" lon="9.8975807"><ele>57.5</ele><time>2026-04-19T14:25:03.406Z</time></trkpt><trkpt lat="44.9661907" lon="9.897283"><ele>57.0</ele><time>2026-04-19T14:25:04.411Z</time></trkpt><trkpt lat="44.9663199" lon="9.8969772"><ele>56.5</ele><time>2026-04-19T14:25:05.418Z</time></trkpt><trkpt lat="44.9664479" lon="9.8966744"><ele>56.0</ele><time>2026-04-19T14:25:06.418Z</time></trkpt><trkpt lat="44.9665779" lon="9.8963693"><ele>57.5</ele><time>2026-04-19T14:25:07.405Z</time></trkpt><trkpt lat="44.9667079" lon="9.8960639"><ele>59.0</ele><time>2026-04-19T14:25:08.428Z</time></trkpt><trkpt lat="44.966835" lon="9.8957624"><ele>59.0</ele><time>2026-04-19T14:25:09.419Z</time></trkpt><trkpt lat="44.9669652" lon="9.8954547"><ele>59.0</ele><time>2026-04-19T14:25:10.424Z</time></trkpt><trkpt lat="44.9670965" lon="9.8951459"><ele>59.0</ele><time>2026-04-19T14:25:11.413Z</time></trkpt><trkpt lat="44.9672258" lon="9.8948359"><ele>59.0</ele><time>2026-04-19T14:25:12.412Z</time></trkpt><trkpt lat="44.9673599" lon="9.8945277"><ele>59.0</ele><time>2026-04-19T14:25:13.412Z</time></trkpt><trkpt lat="44.9674884" lon="9.8942181"><ele>59.0</ele><time>2026-04-19T14:25:14.418Z</time></trkpt><trkpt lat="44.9676158" lon="9.8939093"><ele>57.5</ele><time>2026-04-19T14:25:15.405Z</time></trkpt><trkpt lat="44.9677438" lon="9.8935989"><ele>56.0</ele><time>2026-04-19T14:25:16.402Z</time></trkpt><trkpt lat="44.9678755" lon="9.8932904"><ele>56.0</ele><time>2026-04-19T14:25:17.407Z</time></trkpt><trkpt lat="44.9680079" lon="9.8929819"><ele>56.0</ele><time>2026-04-19T14:25:18.419Z</time></trkpt><trkpt lat="44.9681422" lon="9.8926684"><ele>56.0</ele><time>2026-04-19T14:25:19.411Z</time></trkpt><trkpt lat="44.968275" lon="9.892357"><ele>56.0</ele><time>2026-04-19T14:25:20.412Z</time></trkpt><trkpt lat="44.9684095" lon="9.8920438"><ele>57.5</ele><time>2026-04-19T14:25:21.4Z</time></trkpt><trkpt lat="44.9685422" lon="9.8917269"><ele>59.0</ele><time>2026-04-19T14:25:22.393Z</time></trkpt><trkpt lat="44.9686754" lon="9.8914117"><ele>59.0</ele><time>2026-04-19T14:25:23.361Z</time></trkpt><trkpt lat="44.9688112" lon="9.8910912"><ele>59.0</ele><time>2026-04-19T14:25:24.367Z</time></trkpt><trkpt lat="44.9689463" lon="9.8907673"><ele>60.0</ele><time>2026-04-19T14:25:25.411Z</time></trkpt><trkpt lat="44.9690835" lon="9.8904482"><ele>61.0</ele><time>2026-04-19T14:25:26.416Z</time></trkpt><trkpt lat="44.9692187" lon="9.8901296"><ele>58.5</ele><time>2026-04-19T14:25:27.426Z</time></trkpt><trkpt lat="44.9693553" lon="9.8898097"><ele>56.0</ele><time>2026-04-19T14:25:28.424Z</time></trkpt><trkpt lat="44.9694924" lon="9.8894885"><ele>56.0</ele><time>2026-04-19T14:25:29.386Z</time></trkpt><trkpt lat="44.9696289" lon="9.8891669"><ele>56.0</ele><time>2026-04-19T14:25:30.408Z</time></trkpt><trkpt lat="44.9697661" lon="9.8888418"><ele>56.0</ele><time>2026-04-19T14:25:31.381Z</time></trkpt><trkpt lat="44.9699038" lon="9.8885213"><ele>56.0</ele><time>2026-04-19T14:25:32.409Z</time></trkpt><trkpt lat="44.9700393" lon="9.8881994"><ele>56.0</ele><time>2026-04-19T14:25:33.406Z</time></trkpt><trkpt lat="44.970178" lon="9.8878765"><ele>56.0</ele><time>2026-04-19T14:25:34.407Z</time></trkpt><trkpt lat="44.9703156" lon="9.8875548"><ele>57.0</ele><time>2026-04-19T14:25:35.37Z</time></trkpt><trkpt lat="44.9704511" lon="9.8872352"><ele>58.0</ele><time>2026-04-19T14:25:36.414Z</time></trkpt><trkpt lat="44.9705876" lon="9.8869177"><ele>57.5</ele><time>2026-04-19T14:25:37.399Z</time></trkpt><trkpt lat="44.9707216" lon="9.8866054"><ele>57.0</ele><time>2026-04-19T14:25:38.396Z</time></trkpt><trkpt lat="44.970856" lon="9.8862882"><ele>57.5</ele><time>2026-04-19T14:25:39.408Z</time></trkpt><trkpt lat="44.9709908" lon="9.8859723"><ele>58.0</ele><time>2026-04-19T14:25:40.393Z</time></trkpt><trkpt lat="44.9711265" lon="9.8856555"><ele>58.0</ele><time>2026-04-19T14:25:41.402Z</time></trkpt><trkpt lat="44.9712631" lon="9.8853343"><ele>58.0</ele><time>2026-04-19T14:25:42.388Z</time></trkpt><trkpt lat="44.9713973" lon="9.8850219"><ele>56.5</ele><time>2026-04-19T14:25:43.417Z</time></trkpt><trkpt lat="44.9715315" lon="9.884702"><ele>55.0</ele><time>2026-04-19T14:25:44.42Z</time></trkpt><trkpt lat="44.9716662" lon="9.8843816"><ele>55.5</ele><time>2026-04-19T14:25:45.385Z</time></trkpt><trkpt lat="44.9718024" lon="9.8840614"><ele>56.0</ele><time>2026-04-19T14:25:46.412Z</time></trkpt><trkpt lat="44.9719379" lon="9.8837494"><ele>56.0</ele><time>2026-04-19T14:25:47.409Z</time></trkpt><trkpt lat="44.9720776" lon="9.8834329"><ele>56.0</ele><time>2026-04-19T14:25:48.409Z</time></trkpt><trkpt lat="44.9722135" lon="9.8831185"><ele>56.5</ele><time>2026-04-19T14:25:49.41Z</time></trkpt><trkpt lat="44.9723484" lon="9.8828014"><ele>57.0</ele><time>2026-04-19T14:25:50.418Z</time></trkpt><trkpt lat="44.972485" lon="9.8824854"><ele>57.5</ele><time>2026-04-19T14:25:51.415Z</time></trkpt><trkpt lat="44.9726194" lon="9.8821699"><ele>58.0</ele><time>2026-04-19T14:25:52.418Z</time></trkpt><trkpt lat="44.9727531" lon="9.8818514"><ele>57.0</ele><time>2026-04-19T14:25:53.412Z</time></trkpt><trkpt lat="44.9728911" lon="9.8815308"><ele>56.0</ele><time>2026-04-19T14:25:54.425Z</time></trkpt><trkpt lat="44.9730303" lon="9.8812077"><ele>55.5</ele><time>2026-04-19T14:25:55.408Z</time></trkpt><trkpt lat="44.9731674" lon="9.8808825"><ele>55.0</ele><time>2026-04-19T14:25:56.382Z</time></trkpt><trkpt lat="44.9733048" lon="9.8805694"><ele>55.5</ele><time>2026-04-19T14:25:57.413Z</time></trkpt><trkpt lat="44.9734409" lon="9.880247"><ele>56.0</ele><time>2026-04-19T14:25:58.41Z</time></trkpt><trkpt lat="44.9735798" lon="9.8799199"><ele>56.0</ele><time>2026-04-19T14:25:59.407Z</time></trkpt><trkpt lat="44.9737164" lon="9.8795962"><ele>56.0</ele><time>2026-04-19T14:26:00.4Z</time></trkpt><trkpt lat="44.9738542" lon="9.8792721"><ele>56.5</ele><time>2026-04-19T14:26:01.403Z</time></trkpt><trkpt lat="44.9739913" lon="9.8789445"><ele>57.0</ele><time>2026-04-19T14:26:02.413Z</time></trkpt><trkpt lat="44.9741347" lon="9.8786158"><ele>57.0</ele><time>2026-04-19T14:26:03.403Z</time></trkpt><trkpt lat="44.9742757" lon="9.8782894"><ele>57.0</ele><time>2026-04-19T14:26:04.408Z</time></trkpt><trkpt lat="44.9744154" lon="9.8779622"><ele>57.0</ele><time>2026-04-19T14:26:05.407Z</time></trkpt><trkpt lat="44.9745558" lon="9.877638"><ele>57.0</ele><time>2026-04-19T14:26:06.414Z</time></trkpt><trkpt lat="44.9746907" lon="9.8773152"><ele>57.0</ele><time>2026-04-19T14:26:07.381Z</time></trkpt><trkpt lat="44.9748301" lon="9.8769891"><ele>57.0</ele><time>2026-04-19T14:26:08.412Z</time></trkpt><trkpt lat="44.9749688" lon="9.8766629"><ele>57.5</ele><time>2026-04-19T14:26:09.406Z</time></trkpt><trkpt lat="44.9751052" lon="9.8763368"><ele>58.0</ele><time>2026-04-19T14:26:10.418Z</time></trkpt><trkpt lat="44.9752435" lon="9.8760099"><ele>58.0</ele><time>2026-04-19T14:26:11.407Z</time></trkpt><trkpt lat="44.9753828" lon="9.875686"><ele>58.0</ele><time>2026-04-19T14:26:12.386Z</time></trkpt><trkpt lat="44.9755215" lon="9.8753619"><ele>58.5</ele><time>2026-04-19T14:26:13.405Z</time></trkpt><trkpt lat="44.9756613" lon="9.875032"><ele>59.0</ele><time>2026-04-19T14:26:14.413Z</time></trkpt><trkpt lat="44.9757993" lon="9.874704"><ele>57.5</ele><time>2026-04-19T14:26:15.365Z</time></trkpt><trkpt lat="44.9759383" lon="9.8743781"><ele>56.0</ele><time>2026-04-19T14:26:16.407Z</time></trkpt><trkpt lat="44.9760739" lon="9.8740554"><ele>56.0</ele><time>2026-04-19T14:26:17.403Z</time></trkpt><trkpt lat="44.9762131" lon="9.8737368"><ele>56.0</ele><time>2026-04-19T14:26:18.402Z</time></trkpt><trkpt lat="44.9763515" lon="9.8734163"><ele>57.5</ele><time>2026-04-19T14:26:19.353Z</time></trkpt><trkpt lat="44.9764846" lon="9.8730992"><ele>59.0</ele><time>2026-04-19T14:26:20.349Z</time></trkpt><trkpt lat="44.9766217" lon="9.8727759"><ele>58.0</ele><time>2026-04-19T14:26:21.374Z</time></trkpt><trkpt lat="44.9767559" lon="9.8724587"><ele>57.0</ele><time>2026-04-19T14:26:22.348Z</time></trkpt><trkpt lat="44.9768924" lon="9.8721389"><ele>57.0</ele><time>2026-04-19T14:26:23.391Z</time></trkpt><trkpt lat="44.9770268" lon="9.8718202"><ele>57.0</ele><time>2026-04-19T14:26:24.374Z</time></trkpt><trkpt lat="44.9771623" lon="9.8715036"><ele>57.5</ele><time>2026-04-19T14:26:25.412Z</time></trkpt><trkpt lat="44.9772954" lon="9.8711872"><ele>58.0</ele><time>2026-04-19T14:26:26.418Z</time></trkpt><trkpt lat="44.9774313" lon="9.8708697"><ele>55.0</ele><time>2026-04-19T14:26:27.387Z</time></trkpt><trkpt lat="44.9775671" lon="9.8705531"><ele>52.0</ele><time>2026-04-19T14:26:28.387Z</time></trkpt><trkpt lat="44.9777031" lon="9.8702377"><ele>53.0</ele><time>2026-04-19T14:26:29.391Z</time></trkpt><trkpt lat="44.9778351" lon="9.8699224"><ele>54.0</ele><time>2026-04-19T14:26:30.41Z</time></trkpt><trkpt lat="44.9779688" lon="9.8696062"><ele>54.0</ele><time>2026-04-19T14:26:31.406Z</time></trkpt><trkpt lat="44.9781029" lon="9.8692906"><ele>54.0</ele><time>2026-04-19T14:26:32.409Z</time></trkpt><trkpt lat="44.9782394" lon="9.8689764"><ele>53.5</ele><time>2026-04-19T14:26:33.368Z</time></trkpt><trkpt lat="44.978374" lon="9.8686566"><ele>53.0</ele><time>2026-04-19T14:26:34.399Z</time></trkpt><trkpt lat="44.9785047" lon="9.8683437"><ele>53.0</ele><time>2026-04-19T14:26:35.4Z</time></trkpt><trkpt lat="44.9786376" lon="9.8680315"><ele>53.0</ele><time>2026-04-19T14:26:36.417Z</time></trkpt><trkpt lat="44.9787731" lon="9.8677201"><ele>54.5</ele><time>2026-04-19T14:26:37.416Z</time></trkpt><trkpt lat="44.978905" lon="9.8674033"><ele>56.0</ele><time>2026-04-19T14:26:38.413Z</time></trkpt><trkpt lat="44.9790379" lon="9.8670897"><ele>56.0</ele><time>2026-04-19T14:26:39.419Z</time></trkpt><trkpt lat="44.979169" lon="9.8667772"><ele>56.0</ele><time>2026-04-19T14:26:40.395Z</time></trkpt><trkpt lat="44.9792951" lon="9.8664643"><ele>56.0</ele><time>2026-04-19T14:26:41.409Z</time></trkpt><trkpt lat="44.9794303" lon="9.8661536"><ele>56.0</ele><time>2026-04-19T14:26:42.404Z</time></trkpt><trkpt lat="44.979564" lon="9.8658445"><ele>56.5</ele><time>2026-04-19T14:26:43.398Z</time></trkpt><trkpt lat="44.9796967" lon="9.8655364"><ele>57.0</ele><time>2026-04-19T14:26:44.411Z</time></trkpt><trkpt lat="44.9798308" lon="9.8652307"><ele>57.0</ele><time>2026-04-19T14:26:45.378Z</time></trkpt><trkpt lat="44.9799623" lon="9.8649175"><ele>57.0</ele><time>2026-04-19T14:26:46.409Z</time></trkpt><trkpt lat="44.9800934" lon="9.8646095"><ele>56.5</ele><time>2026-04-19T14:26:47.411Z</time></trkpt><trkpt lat="44.9802262" lon="9.8643046"><ele>56.0</ele><time>2026-04-19T14:26:48.409Z</time></trkpt><trkpt lat="44.9803568" lon="9.8640016"><ele>57.0</ele><time>2026-04-19T14:26:49.421Z</time></trkpt><trkpt lat="44.9804876" lon="9.8636913"><ele>58.0</ele><time>2026-04-19T14:26:50.418Z</time></trkpt><trkpt lat="44.9806224" lon="9.8633843"><ele>56.0</ele><time>2026-04-19T14:26:51.414Z</time></trkpt><trkpt lat="44.9807545" lon="9.8630749"><ele>54.0</ele><time>2026-04-19T14:26:52.408Z</time></trkpt><trkpt lat="44.9808894" lon="9.8627658"><ele>55.0</ele><time>2026-04-19T14:26:53.384Z</time></trkpt><trkpt lat="44.9810286" lon="9.8624546"><ele>56.0</ele><time>2026-04-19T14:26:54.406Z</time></trkpt><trkpt lat="44.9811592" lon="9.8621424"><ele>56.0</ele><time>2026-04-19T14:26:55.408Z</time></trkpt><trkpt lat="44.9812943" lon="9.8618325"><ele>56.0</ele><time>2026-04-19T14:26:56.416Z</time></trkpt><trkpt lat="44.9814257" lon="9.8615231"><ele>56.0</ele><time>2026-04-19T14:26:57.395Z</time></trkpt><trkpt lat="44.9815561" lon="9.8612076"><ele>56.0</ele><time>2026-04-19T14:26:58.412Z</time></trkpt><trkpt lat="44.981689" lon="9.8608939"><ele>55.5</ele><time>2026-04-19T14:26:59.41Z</time></trkpt><trkpt lat="44.9818233" lon="9.8605795"><ele>55.0</ele><time>2026-04-19T14:27:00.415Z</time></trkpt><trkpt lat="44.9819554" lon="9.8602686"><ele>55.5</ele><time>2026-04-19T14:27:01.41Z</time></trkpt><trkpt lat="44.9820871" lon="9.859951"><ele>56.0</ele><time>2026-04-19T14:27:02.415Z</time></trkpt><trkpt lat="44.9822208" lon="9.859638"><ele>56.0</ele><time>2026-04-19T14:27:03.393Z</time></trkpt><trkpt lat="44.9823555" lon="9.8593289"><ele>56.0</ele><time>2026-04-19T14:27:04.408Z</time></trkpt><trkpt lat="44.9824912" lon="9.859016"><ele>55.5</ele><time>2026-04-19T14:27:05.424Z</time></trkpt><trkpt lat="44.9826224" lon="9.8586995"><ele>55.0</ele><time>2026-04-19T14:27:06.408Z</time></trkpt><trkpt lat="44.9827564" lon="9.8583846"><ele>56.0</ele><time>2026-04-19T14:27:07.389Z</time></trkpt><trkpt lat="44.982886" lon="9.8580696"><ele>57.0</ele><time>2026-04-19T14:27:08.401Z</time></trkpt><trkpt lat="44.9830155" lon="9.8577612"><ele>57.0</ele><time>2026-04-19T14:27:09.402Z</time></trkpt><trkpt lat="44.9831465" lon="9.8574502"><ele>57.0</ele><time>2026-04-19T14:27:10.407Z</time></trkpt><trkpt lat="44.983278" lon="9.8571419"><ele>56.5</ele><time>2026-04-19T14:27:11.429Z</time></trkpt><trkpt lat="44.9834101" lon="9.8568352"><ele>56.0</ele><time>2026-04-19T14:27:12.404Z</time></trkpt><trkpt lat="44.9835444" lon="9.8565217"><ele>55.0</ele><time>2026-04-19T14:27:13.414Z</time></trkpt><trkpt lat="44.9836827" lon="9.856211"><ele>54.0</ele><time>2026-04-19T14:27:14.424Z</time></trkpt><trkpt lat="44.9838158" lon="9.855897"><ele>56.5</ele><time>2026-04-19T14:27:15.417Z</time></trkpt><trkpt lat="44.9839536" lon="9.8555842"><ele>59.0</ele><time>2026-04-19T14:27:16.403Z</time></trkpt><trkpt lat="44.9840889" lon="9.8552696"><ele>57.5</ele><time>2026-04-19T14:27:17.376Z</time></trkpt><trkpt lat="44.9842219" lon="9.8549474"><ele>56.0</ele><time>2026-04-19T14:27:18.411Z</time></trkpt><trkpt lat="44.9843571" lon="9.8546308"><ele>56.0</ele><time>2026-04-19T14:27:19.408Z</time></trkpt><trkpt lat="44.9844913" lon="9.8543154"><ele>56.0</ele><time>2026-04-19T14:27:20.418Z</time></trkpt><trkpt lat="44.9846299" lon="9.8539941"><ele>56.0</ele><time>2026-04-19T14:27:21.405Z</time></trkpt><trkpt lat="44.984765" lon="9.8536707"><ele>56.0</ele><time>2026-04-19T14:27:22.381Z</time></trkpt><trkpt lat="44.984899" lon="9.8533495"><ele>55.5</ele><time>2026-04-19T14:27:23.406Z</time></trkpt><trkpt lat="44.9850344" lon="9.853027"><ele>55.0</ele><time>2026-04-19T14:27:24.407Z</time></trkpt><trkpt lat="44.985169" lon="9.8527025"><ele>55.5</ele><time>2026-04-19T14:27:25.413Z</time></trkpt><trkpt lat="44.9853068" lon="9.8523749"><ele>56.0</ele><time>2026-04-19T14:27:26.412Z</time></trkpt><trkpt lat="44.9854473" lon="9.8520488"><ele>56.0</ele><time>2026-04-19T14:27:27.398Z</time></trkpt><trkpt lat="44.9855868" lon="9.8517245"><ele>56.0</ele><time>2026-04-19T14:27:28.405Z</time></trkpt><trkpt lat="44.985726" lon="9.8513963"><ele>55.5</ele><time>2026-04-19T14:27:29.409Z</time></trkpt><trkpt lat="44.9858668" lon="9.8510639"><ele>55.0</ele><time>2026-04-19T14:27:30.43Z</time></trkpt><trkpt lat="44.9860025" lon="9.850732"><ele>55.0</ele><time>2026-04-19T14:27:31.41Z</time></trkpt><trkpt lat="44.9861425" lon="9.8503983"><ele>55.0</ele><time>2026-04-19T14:27:32.42Z</time></trkpt><trkpt lat="44.9862768" lon="9.8500662"><ele>58.0</ele><time>2026-04-19T14:27:33.409Z</time></trkpt><trkpt lat="44.986419" lon="9.8497367"><ele>61.0</ele><time>2026-04-19T14:27:34.414Z</time></trkpt><trkpt lat="44.9865578" lon="9.8494078"><ele>58.5</ele><time>2026-04-19T14:27:35.404Z</time></trkpt><trkpt lat="44.9866964" lon="9.8490762"><ele>56.0</ele><time>2026-04-19T14:27:36.419Z</time></trkpt><trkpt lat="44.9868364" lon="9.8487469"><ele>56.0</ele><time>2026-04-19T14:27:37.419Z</time></trkpt><trkpt lat="44.9869751" lon="9.848418"><ele>56.0</ele><time>2026-04-19T14:27:38.396Z</time></trkpt><trkpt lat="44.9871152" lon="9.8480876"><ele>56.0</ele><time>2026-04-19T14:27:39.42Z</time></trkpt><trkpt lat="44.9872589" lon="9.8477586"><ele>56.0</ele><time>2026-04-19T14:27:40.417Z</time></trkpt><trkpt lat="44.9873989" lon="9.8474294"><ele>55.5</ele><time>2026-04-19T14:27:41.396Z</time></trkpt><trkpt lat="44.9875385" lon="9.8470962"><ele>55.0</ele><time>2026-04-19T14:27:42.417Z</time></trkpt><trkpt lat="44.9876758" lon="9.8467635"><ele>56.0</ele><time>2026-04-19T14:27:43.408Z</time></trkpt><trkpt lat="44.987807" lon="9.8464281"><ele>57.0</ele><time>2026-04-19T14:27:44.423Z</time></trkpt><trkpt lat="44.9879377" lon="9.8460942"><ele>57.5</ele><time>2026-04-19T14:27:45.422Z</time></trkpt><trkpt lat="44.9880726" lon="9.8457605"><ele>58.0</ele><time>2026-04-19T14:27:46.405Z</time></trkpt><trkpt lat="44.9882037" lon="9.8454258"><ele>57.5</ele><time>2026-04-19T14:27:47.411Z</time></trkpt><trkpt lat="44.9883333" lon="9.8450922"><ele>57.0</ele><time>2026-04-19T14:27:48.426Z</time></trkpt><trkpt lat="44.9884653" lon="9.8447542"><ele>57.0</ele><time>2026-04-19T14:27:49.423Z</time></trkpt><trkpt lat="44.9885981" lon="9.8444216"><ele>57.0</ele><time>2026-04-19T14:27:50.409Z</time></trkpt><trkpt lat="44.9887296" lon="9.8440882"><ele>57.0</ele><time>2026-04-19T14:27:51.425Z</time></trkpt><trkpt lat="44.9888632" lon="9.8437492"><ele>57.0</ele><time>2026-04-19T14:27:52.408Z</time></trkpt><trkpt lat="44.9889926" lon="9.8434102"><ele>57.5</ele><time>2026-04-19T14:27:53.419Z</time></trkpt><trkpt lat="44.9891234" lon="9.8430689"><ele>58.0</ele><time>2026-04-19T14:27:54.422Z</time></trkpt><trkpt lat="44.9892568" lon="9.8427297"><ele>57.0</ele><time>2026-04-19T14:27:55.367Z</time></trkpt><trkpt lat="44.9893871" lon="9.8423911"><ele>56.0</ele><time>2026-04-19T14:27:56.421Z</time></trkpt><trkpt lat="44.9895153" lon="9.8420523"><ele>56.5</ele><time>2026-04-19T14:27:57.416Z</time></trkpt><trkpt lat="44.9896499" lon="9.8417092"><ele>57.0</ele><time>2026-04-19T14:27:58.421Z</time></trkpt><trkpt lat="44.9897829" lon="9.8413657"><ele>57.0</ele><time>2026-04-19T14:27:59.421Z</time></trkpt><trkpt lat="44.9899176" lon="9.8410257"><ele>57.0</ele><time>2026-04-19T14:28:00.417Z</time></trkpt><trkpt lat="44.9900508" lon="9.8406852"><ele>57.0</ele><time>2026-04-19T14:28:01.425Z</time></trkpt><trkpt lat="44.9901832" lon="9.8403474"><ele>57.0</ele><time>2026-04-19T14:28:02.413Z</time></trkpt><trkpt lat="44.9903158" lon="9.8400063"><ele>57.0</ele><time>2026-04-19T14:28:03.397Z</time></trkpt><trkpt lat="44.9904476" lon="9.8396678"><ele>57.0</ele><time>2026-04-19T14:28:04.41Z</time></trkpt><trkpt lat="44.9905802" lon="9.8393265"><ele>56.5</ele><time>2026-04-19T14:28:05.417Z</time></trkpt><trkpt lat="44.9907144" lon="9.8389859"><ele>56.0</ele><time>2026-04-19T14:28:06.412Z</time></trkpt><trkpt lat="44.9908474" lon="9.8386474"><ele>56.0</ele><time>2026-04-19T14:28:07.416Z</time></trkpt><trkpt lat="44.9909809" lon="9.8383051"><ele>56.0</ele><time>2026-04-19T14:28:08.394Z</time></trkpt><trkpt lat="44.9911122" lon="9.8379607"><ele>56.5</ele><time>2026-04-19T14:28:09.42Z</time></trkpt><trkpt lat="44.9912474" lon="9.8376213"><ele>57.0</ele><time>2026-04-19T14:28:10.418Z</time></trkpt><trkpt lat="44.9913811" lon="9.837281"><ele>57.0</ele><time>2026-04-19T14:28:11.407Z</time></trkpt><trkpt lat="44.9915124" lon="9.8369364"><ele>57.0</ele><time>2026-04-19T14:28:12.409Z</time></trkpt><trkpt lat="44.9916445" lon="9.8365962"><ele>56.5</ele><time>2026-04-19T14:28:13.413Z</time></trkpt><trkpt lat="44.9917779" lon="9.8362536"><ele>56.0</ele><time>2026-04-19T14:28:14.408Z</time></trkpt><trkpt lat="44.9919114" lon="9.8359096"><ele>56.0</ele><time>2026-04-19T14:28:15.411Z</time></trkpt><trkpt lat="44.9920426" lon="9.8355688"><ele>56.0</ele><time>2026-04-19T14:28:16.41Z</time></trkpt><trkpt lat="44.9921731" lon="9.835228"><ele>56.0</ele><time>2026-04-19T14:28:17.416Z</time></trkpt><trkpt lat="44.9923002" lon="9.8348897"><ele>56.0</ele><time>2026-04-19T14:28:18.413Z</time></trkpt><trkpt lat="44.9924339" lon="9.834554"><ele>56.5</ele><time>2026-04-19T14:28:19.411Z</time></trkpt><trkpt lat="44.9925624" lon="9.8342163"><ele>57.0</ele><time>2026-04-19T14:28:20.415Z</time></trkpt><trkpt lat="44.9926953" lon="9.8338769"><ele>57.0</ele><time>2026-04-19T14:28:21.42Z</time></trkpt><trkpt lat="44.9928249" lon="9.8335389"><ele>57.0</ele><time>2026-04-19T14:28:22.406Z</time></trkpt><trkpt lat="44.9929523" lon="9.8332047"><ele>57.0</ele><time>2026-04-19T14:28:23.422Z</time></trkpt><trkpt lat="44.9930798" lon="9.832871"><ele>57.0</ele><time>2026-04-19T14:28:24.406Z</time></trkpt><trkpt lat="44.9932103" lon="9.8325399"><ele>57.0</ele><time>2026-04-19T14:28:25.415Z</time></trkpt><trkpt lat="44.9933387" lon="9.8322059"><ele>57.0</ele><time>2026-04-19T14:28:26.41Z</time></trkpt><trkpt lat="44.9934683" lon="9.8318719"><ele>57.0</ele><time>2026-04-19T14:28:27.411Z</time></trkpt><trkpt lat="44.9935991" lon="9.8315401"><ele>57.0</ele><time>2026-04-19T14:28:28.423Z</time></trkpt><trkpt lat="44.9937289" lon="9.8312103"><ele>56.0</ele><time>2026-04-19T14:28:29.404Z</time></trkpt><trkpt lat="44.9938585" lon="9.8308826"><ele>55.0</ele><time>2026-04-19T14:28:30.405Z</time></trkpt><trkpt lat="44.9939862" lon="9.8305529"><ele>55.0</ele><time>2026-04-19T14:28:31.416Z</time></trkpt><trkpt lat="44.9941131" lon="9.8302234"><ele>55.0</ele><time>2026-04-19T14:28:32.419Z</time></trkpt><trkpt lat="44.9942426" lon="9.8298937"><ele>55.5</ele><time>2026-04-19T14:28:33.434Z</time></trkpt><trkpt lat="44.9943677" lon="9.8295596"><ele>56.0</ele><time>2026-04-19T14:28:34.417Z</time></trkpt><trkpt lat="44.9944886" lon="9.8292278"><ele>57.5</ele><time>2026-04-19T14:28:35.422Z</time></trkpt><trkpt lat="44.9946205" lon="9.8289005"><ele>59.0</ele><time>2026-04-19T14:28:36.418Z</time></trkpt><trkpt lat="44.9947507" lon="9.82857"><ele>58.5</ele><time>2026-04-19T14:28:37.417Z</time></trkpt><trkpt lat="44.9948767" lon="9.8282374"><ele>58.0</ele><time>2026-04-19T14:28:38.414Z</time></trkpt><trkpt lat="44.9950046" lon="9.8279047"><ele>57.5</ele><time>2026-04-19T14:28:39.413Z</time></trkpt><trkpt lat="44.9951342" lon="9.8275714"><ele>57.0</ele><time>2026-04-19T14:28:40.394Z</time></trkpt><trkpt lat="44.9952622" lon="9.827235"><ele>57.0</ele><time>2026-04-19T14:28:41.408Z</time></trkpt><trkpt lat="44.9953939" lon="9.8269022"><ele>57.0</ele><time>2026-04-19T14:28:42.429Z</time></trkpt><trkpt lat="44.9955271" lon="9.8265708"><ele>56.0</ele><time>2026-04-19T14:28:43.409Z</time></trkpt><trkpt lat="44.9956568" lon="9.8262353"><ele>55.0</ele><time>2026-04-19T14:28:44.415Z</time></trkpt><trkpt lat="44.9957874" lon="9.8259045"><ele>54.5</ele><time>2026-04-19T14:28:45.404Z</time></trkpt><trkpt lat="44.9959162" lon="9.825573"><ele>54.0</ele><time>2026-04-19T14:28:46.418Z</time></trkpt><trkpt lat="44.996045" lon="9.8252402"><ele>55.5</ele><time>2026-04-19T14:28:47.424Z</time></trkpt><trkpt lat="44.9961781" lon="9.8249098"><ele>57.0</ele><time>2026-04-19T14:28:48.401Z</time></trkpt><trkpt lat="44.9963083" lon="9.8245781"><ele>58.5</ele><time>2026-04-19T14:28:49.391Z</time></trkpt><trkpt lat="44.99644" lon="9.8242449"><ele>60.0</ele><time>2026-04-19T14:28:50.42Z</time></trkpt><trkpt lat="44.9965694" lon="9.8239106"><ele>59.5</ele><time>2026-04-19T14:28:51.412Z</time></trkpt><trkpt lat="44.9966977" lon="9.8235844"><ele>59.0</ele><time>2026-04-19T14:28:52.39Z</time></trkpt><trkpt lat="44.9968269" lon="9.8232582"><ele>58.5</ele><time>2026-04-19T14:28:53.431Z</time></trkpt><trkpt lat="44.9969504" lon="9.8229309"><ele>58.0</ele><time>2026-04-19T14:28:54.408Z</time></trkpt><trkpt lat="44.9970798" lon="9.8226067"><ele>58.0</ele><time>2026-04-19T14:28:55.421Z</time></trkpt><trkpt lat="44.9972093" lon="9.8222811"><ele>58.0</ele><time>2026-04-19T14:28:56.405Z</time></trkpt><trkpt lat="44.9973388" lon="9.8219518"><ele>58.0</ele><time>2026-04-19T14:28:57.386Z</time></trkpt><trkpt lat="44.9974649" lon="9.8216242"><ele>58.0</ele><time>2026-04-19T14:28:58.421Z</time></trkpt><trkpt lat="44.9975937" lon="9.8212939"><ele>58.0</ele><time>2026-04-19T14:28:59.41Z</time></trkpt><trkpt lat="44.9977184" lon="9.8209654"><ele>58.0</ele><time>2026-04-19T14:29:00.415Z</time></trkpt><trkpt lat="44.9978454" lon="9.8206388"><ele>58.0</ele><time>2026-04-19T14:29:01.42Z</time></trkpt><trkpt lat="44.9979782" lon="9.8203118"><ele>58.0</ele><time>2026-04-19T14:29:02.399Z</time></trkpt><trkpt lat="44.9981019" lon="9.8199777"><ele>58.0</ele><time>2026-04-19T14:29:03.412Z</time></trkpt><trkpt lat="44.9982313" lon="9.8196443"><ele>58.0</ele><time>2026-04-19T14:29:04.421Z</time></trkpt><trkpt lat="44.9983602" lon="9.8193059"><ele>58.0</ele><time>2026-04-19T14:29:05.396Z</time></trkpt><trkpt lat="44.9984939" lon="9.8189692"><ele>58.0</ele><time>2026-04-19T14:29:06.417Z</time></trkpt><trkpt lat="44.9986293" lon="9.8186273"><ele>58.0</ele><time>2026-04-19T14:29:07.413Z</time></trkpt><trkpt lat="44.9987651" lon="9.8182818"><ele>58.0</ele><time>2026-04-19T14:29:08.423Z</time></trkpt><trkpt lat="44.9989006" lon="9.8179371"><ele>58.0</ele><time>2026-04-19T14:29:09.414Z</time></trkpt><trkpt lat="44.9990399" lon="9.8175902"><ele>58.0</ele><time>2026-04-19T14:29:10.406Z</time></trkpt><trkpt lat="44.9991809" lon="9.8172417"><ele>58.0</ele><time>2026-04-19T14:29:11.37Z</time></trkpt><trkpt lat="44.9993212" lon="9.8168899"><ele>58.0</ele><time>2026-04-19T14:29:12.401Z</time></trkpt><trkpt lat="44.999462" lon="9.8165395"><ele>57.5</ele><time>2026-04-19T14:29:13.42Z</time></trkpt><trkpt lat="44.9996014" lon="9.8161919"><ele>57.0</ele><time>2026-04-19T14:29:14.392Z</time></trkpt><trkpt lat="44.9997363" lon="9.8158421"><ele>57.0</ele><time>2026-04-19T14:29:15.372Z</time></trkpt><trkpt lat="44.9998717" lon="9.8154934"><ele>57.0</ele><time>2026-04-19T14:29:16.41Z</time></trkpt><trkpt lat="45.000007" lon="9.815148"><ele>57.5</ele><time>2026-04-19T14:29:17.41Z</time></trkpt><trkpt lat="45.0001387" lon="9.8148067"><ele>58.0</ele><time>2026-04-19T14:29:18.413Z</time></trkpt><trkpt lat="45.000269" lon="9.8144609"><ele>58.0</ele><time>2026-04-19T14:29:19.409Z</time></trkpt><trkpt lat="45.0004007" lon="9.8141168"><ele>58.0</ele><time>2026-04-19T14:29:20.415Z</time></trkpt><trkpt lat="45.0005336" lon="9.8137726"><ele>57.5</ele><time>2026-04-19T14:29:21.413Z</time></trkpt><trkpt lat="45.0006677" lon="9.8134349"><ele>57.0</ele><time>2026-04-19T14:29:22.383Z</time></trkpt><trkpt lat="45.0008016" lon="9.813093"><ele>56.0</ele><time>2026-04-19T14:29:23.428Z</time></trkpt><trkpt lat="45.0009332" lon="9.8127525"><ele>55.0</ele><time>2026-04-19T14:29:24.408Z</time></trkpt><trkpt lat="45.0010645" lon="9.8124116"><ele>55.0</ele><time>2026-04-19T14:29:25.402Z</time></trkpt><trkpt lat="45.0011917" lon="9.8120715"><ele>55.0</ele><time>2026-04-19T14:29:26.412Z</time></trkpt><trkpt lat="45.0013236" lon="9.8117315"><ele>55.5</ele><time>2026-04-19T14:29:27.404Z</time></trkpt><trkpt lat="45.001452" lon="9.8113901"><ele>56.0</ele><time>2026-04-19T14:29:28.409Z</time></trkpt><trkpt lat="45.0015812" lon="9.8110493"><ele>55.5</ele><time>2026-04-19T14:29:29.388Z</time></trkpt><trkpt lat="45.0017134" lon="9.8107135"><ele>55.0</ele><time>2026-04-19T14:29:30.412Z</time></trkpt><trkpt lat="45.0018418" lon="9.8103774"><ele>55.0</ele><time>2026-04-19T14:29:31.423Z</time></trkpt><trkpt lat="45.0019728" lon="9.8100413"><ele>55.0</ele><time>2026-04-19T14:29:32.416Z</time></trkpt><trkpt lat="45.0021051" lon="9.8097024"><ele>55.0</ele><time>2026-04-19T14:29:33.406Z</time></trkpt><trkpt lat="45.0022354" lon="9.809363"><ele>55.0</ele><time>2026-04-19T14:29:34.407Z</time></trkpt><trkpt lat="45.0023627" lon="9.8090264"><ele>55.5</ele><time>2026-04-19T14:29:35.417Z</time></trkpt><trkpt lat="45.0024941" lon="9.8086935"><ele>56.0</ele><time>2026-04-19T14:29:36.416Z</time></trkpt><trkpt lat="45.0026246" lon="9.808356"><ele>57.0</ele><time>2026-04-19T14:29:37.415Z</time></trkpt><trkpt lat="45.0027522" lon="9.808017"><ele>58.0</ele><time>2026-04-19T14:29:38.41Z</time></trkpt><trkpt lat="45.0028785" lon="9.807681"><ele>57.0</ele><time>2026-04-19T14:29:39.414Z</time></trkpt><trkpt lat="45.0030112" lon="9.8073456"><ele>56.0</ele><time>2026-04-19T14:29:40.406Z</time></trkpt><trkpt lat="45.003142" lon="9.8070123"><ele>55.5</ele><time>2026-04-19T14:29:41.421Z</time></trkpt><trkpt lat="45.003273" lon="9.806675"><ele>55.0</ele><time>2026-04-19T14:29:42.424Z</time></trkpt><trkpt lat="45.0034055" lon="9.8063378"><ele>55.0</ele><time>2026-04-19T14:29:43.396Z</time></trkpt><trkpt lat="45.003537" lon="9.8060001"><ele>55.0</ele><time>2026-04-19T14:29:44.408Z</time></trkpt><trkpt lat="45.0036701" lon="9.805661"><ele>55.0</ele><time>2026-04-19T14:29:45.426Z</time></trkpt><trkpt lat="45.0038027" lon="9.8053215"><ele>55.0</ele><time>2026-04-19T14:29:46.421Z</time></trkpt><trkpt lat="45.0039338" lon="9.8049804"><ele>55.5</ele><time>2026-04-19T14:29:47.389Z</time></trkpt><trkpt lat="45.004069" lon="9.8046421"><ele>56.0</ele><time>2026-04-19T14:29:48.414Z</time></trkpt><trkpt lat="45.0042029" lon="9.8042994"><ele>56.0</ele><time>2026-04-19T14:29:49.409Z</time></trkpt><trkpt lat="45.0043377" lon="9.8039564"><ele>56.0</ele><time>2026-04-19T14:29:50.432Z</time></trkpt><trkpt lat="45.0044705" lon="9.8036115"><ele>56.5</ele><time>2026-04-19T14:29:51.417Z</time></trkpt><trkpt lat="45.0046053" lon="9.803267"><ele>57.0</ele><time>2026-04-19T14:29:52.404Z</time></trkpt><trkpt lat="45.0047385" lon="9.8029192"><ele>58.0</ele><time>2026-04-19T14:29:53.41Z</time></trkpt><trkpt lat="45.0048696" lon="9.8025736"><ele>59.0</ele><time>2026-04-19T14:29:54.411Z</time></trkpt><trkpt lat="45.005004" lon="9.802235"><ele>59.0</ele><time>2026-04-19T14:29:55.418Z</time></trkpt><trkpt lat="45.0051366" lon="9.8018925"><ele>59.0</ele><time>2026-04-19T14:29:56.41Z</time></trkpt><trkpt lat="45.005271" lon="9.801554"><ele>58.5</ele><time>2026-04-19T14:29:57.408Z</time></trkpt><trkpt lat="45.0054031" lon="9.8012188"><ele>58.0</ele><time>2026-04-19T14:29:58.424Z</time></trkpt><trkpt lat="45.0055373" lon="9.8008832"><ele>60.0</ele><time>2026-04-19T14:29:59.401Z</time></trkpt><trkpt lat="45.0056704" lon="9.8005514"><ele>62.0</ele><time>2026-04-19T14:30:00.414Z</time></trkpt><trkpt lat="45.0058089" lon="9.8002234"><ele>61.0</ele><time>2026-04-19T14:30:01.408Z</time></trkpt><trkpt lat="45.00595" lon="9.799896"><ele>60.0</ele><time>2026-04-19T14:30:02.409Z</time></trkpt><trkpt lat="45.006094" lon="9.7995699"><ele>60.0</ele><time>2026-04-19T14:30:03.416Z</time></trkpt><trkpt lat="45.0062353" lon="9.7992454"><ele>60.0</ele><time>2026-04-19T14:30:04.417Z</time></trkpt><trkpt lat="45.0063773" lon="9.7989191"><ele>60.0</ele><time>2026-04-19T14:30:05.408Z</time></trkpt><trkpt lat="45.006525" lon="9.7986003"><ele>60.0</ele><time>2026-04-19T14:30:06.404Z</time></trkpt><trkpt lat="45.0066696" lon="9.7982768"><ele>60.5</ele><time>2026-04-19T14:30:07.405Z</time></trkpt><trkpt lat="45.0068137" lon="9.7979651"><ele>61.0</ele><time>2026-04-19T14:30:08.409Z</time></trkpt><trkpt lat="45.0069548" lon="9.7976567"><ele>61.0</ele><time>2026-04-19T14:30:09.409Z</time></trkpt><trkpt lat="45.0071017" lon="9.7973489"><ele>61.0</ele><time>2026-04-19T14:30:10.399Z</time></trkpt><trkpt lat="45.0072497" lon="9.797043"><ele>61.0</ele><time>2026-04-19T14:30:11.41Z</time></trkpt><trkpt lat="45.0073965" lon="9.7967324"><ele>61.0</ele><time>2026-04-19T14:30:12.401Z</time></trkpt><trkpt lat="45.0075459" lon="9.7964284"><ele>60.0</ele><time>2026-04-19T14:30:13.394Z</time></trkpt><trkpt lat="45.0076961" lon="9.7961314"><ele>59.0</ele><time>2026-04-19T14:30:14.399Z</time></trkpt><trkpt lat="45.0078514" lon="9.7958378"><ele>58.0</ele><time>2026-04-19T14:30:15.405Z</time></trkpt><trkpt lat="45.0079972" lon="9.7955432"><ele>57.0</ele><time>2026-04-19T14:30:16.395Z</time></trkpt><trkpt lat="45.0081465" lon="9.7952561"><ele>57.0</ele><time>2026-04-19T14:30:17.41Z</time></trkpt><trkpt lat="45.0083003" lon="9.7949664"><ele>57.0</ele><time>2026-04-19T14:30:18.391Z</time></trkpt><trkpt lat="45.0084519" lon="9.7946786"><ele>57.0</ele><time>2026-04-19T14:30:19.402Z</time></trkpt><trkpt lat="45.0086091" lon="9.794401"><ele>57.0</ele><time>2026-04-19T14:30:20.4Z</time></trkpt><trkpt lat="45.0087611" lon="9.7941197"><ele>58.5</ele><time>2026-04-19T14:30:21.403Z</time></trkpt><trkpt lat="45.0089145" lon="9.7938361"><ele>60.0</ele><time>2026-04-19T14:30:22.388Z</time></trkpt><trkpt lat="45.0090723" lon="9.7935574"><ele>59.5</ele><time>2026-04-19T14:30:23.4Z</time></trkpt><trkpt lat="45.0092235" lon="9.7932777"><ele>59.0</ele><time>2026-04-19T14:30:24.414Z</time></trkpt><trkpt lat="45.0093815" lon="9.7929976"><ele>59.0</ele><time>2026-04-19T14:30:25.402Z</time></trkpt><trkpt lat="45.0095412" lon="9.7927224"><ele>59.0</ele><time>2026-04-19T14:30:26.419Z</time></trkpt><trkpt lat="45.0097018" lon="9.7924494"><ele>58.0</ele><time>2026-04-19T14:30:27.408Z</time></trkpt><trkpt lat="45.009865" lon="9.7921772"><ele>57.0</ele><time>2026-04-19T14:30:28.408Z</time></trkpt><trkpt lat="45.0100261" lon="9.7919076"><ele>58.5</ele><time>2026-04-19T14:30:29.41Z</time></trkpt><trkpt lat="45.0101891" lon="9.791635"><ele>60.0</ele><time>2026-04-19T14:30:30.406Z</time></trkpt><trkpt lat="45.010354" lon="9.7913705"><ele>60.0</ele><time>2026-04-19T14:30:31.422Z</time></trkpt><trkpt lat="45.0105187" lon="9.7911034"><ele>60.0</ele><time>2026-04-19T14:30:32.419Z</time></trkpt><trkpt lat="45.0106882" lon="9.7908428"><ele>58.0</ele><time>2026-04-19T14:30:33.432Z</time></trkpt><trkpt lat="45.0108533" lon="9.7905803"><ele>56.0</ele><time>2026-04-19T14:30:34.413Z</time></trkpt><trkpt lat="45.0110239" lon="9.7903178"><ele>57.0</ele><time>2026-04-19T14:30:35.413Z</time></trkpt><trkpt lat="45.0111968" lon="9.7900534"><ele>58.0</ele><time>2026-04-19T14:30:36.414Z</time></trkpt><trkpt lat="45.0113693" lon="9.7897882"><ele>58.0</ele><time>2026-04-19T14:30:37.425Z</time></trkpt><trkpt lat="45.0115442" lon="9.789524"><ele>58.0</ele><time>2026-04-19T14:30:38.413Z</time></trkpt><trkpt lat="45.0117222" lon="9.789261"><ele>58.0</ele><time>2026-04-19T14:30:39.429Z</time></trkpt><trkpt lat="45.0118979" lon="9.7889992"><ele>58.0</ele><time>2026-04-19T14:30:40.425Z</time></trkpt><trkpt lat="45.0120765" lon="9.7887397"><ele>58.0</ele><time>2026-04-19T14:30:41.38Z</time></trkpt><trkpt lat="45.0122547" lon="9.78848"><ele>58.0</ele><time>2026-04-19T14:30:42.405Z</time></trkpt><trkpt lat="45.0124333" lon="9.7882233"><ele>57.5</ele><time>2026-04-19T14:30:43.409Z</time></trkpt><trkpt lat="45.0126149" lon="9.7879674"><ele>57.0</ele><time>2026-04-19T14:30:44.409Z</time></trkpt><trkpt lat="45.0127949" lon="9.7877146"><ele>57.5</ele><time>2026-04-19T14:30:45.414Z</time></trkpt><trkpt lat="45.0129741" lon="9.7874638"><ele>58.0</ele><time>2026-04-19T14:30:46.414Z</time></trkpt><trkpt lat="45.0131562" lon="9.7872142"><ele>57.5</ele><time>2026-04-19T14:30:47.411Z</time></trkpt><trkpt lat="45.0133382" lon="9.786966"><ele>57.0</ele><time>2026-04-19T14:30:48.416Z</time></trkpt><trkpt lat="45.0135219" lon="9.7867194"><ele>57.0</ele><time>2026-04-19T14:30:49.427Z</time></trkpt><trkpt lat="45.0137102" lon="9.7864763"><ele>57.0</ele><time>2026-04-19T14:30:50.416Z</time></trkpt><trkpt lat="45.0138899" lon="9.7862354"><ele>57.5</ele><time>2026-04-19T14:30:51.421Z</time></trkpt><trkpt lat="45.0140694" lon="9.7859987"><ele>58.0</ele><time>2026-04-19T14:30:52.428Z</time></trkpt><trkpt lat="45.0142591" lon="9.7857648"><ele>58.0</ele><time>2026-04-19T14:30:53.422Z</time></trkpt><trkpt lat="45.0144455" lon="9.7855282"><ele>58.0</ele><time>2026-04-19T14:30:54.4Z</time></trkpt><trkpt lat="45.0146341" lon="9.7852923"><ele>58.0</ele><time>2026-04-19T14:30:55.419Z</time></trkpt><trkpt lat="45.0148237" lon="9.785055"><ele>58.0</ele><time>2026-04-19T14:30:56.424Z</time></trkpt><trkpt lat="45.0150122" lon="9.7848246"><ele>59.0</ele><time>2026-04-19T14:30:57.414Z</time></trkpt><trkpt lat="45.0152003" lon="9.7845968"><ele>60.0</ele><time>2026-04-19T14:30:58.413Z</time></trkpt><trkpt lat="45.0153882" lon="9.7843701"><ele>59.5</ele><time>2026-04-19T14:30:59.385Z</time></trkpt><trkpt lat="45.0155737" lon="9.7841501"><ele>59.0</ele><time>2026-04-19T14:31:00.414Z</time></trkpt><trkpt lat="45.0157568" lon="9.7839368"><ele>58.0</ele><time>2026-04-19T14:31:01.421Z</time></trkpt><trkpt lat="45.0159436" lon="9.7837254"><ele>57.0</ele><time>2026-04-19T14:31:02.417Z</time></trkpt><trkpt lat="45.0161259" lon="9.7835186"><ele>56.0</ele><time>2026-04-19T14:31:03.439Z</time></trkpt><trkpt lat="45.0163105" lon="9.7833102"><ele>55.0</ele><time>2026-04-19T14:31:04.411Z</time></trkpt><trkpt lat="45.0164963" lon="9.7831016"><ele>56.0</ele><time>2026-04-19T14:31:05.418Z</time></trkpt><trkpt lat="45.0166876" lon="9.7828941"><ele>57.0</ele><time>2026-04-19T14:31:06.422Z</time></trkpt><trkpt lat="45.0168763" lon="9.7826913"><ele>57.0</ele><time>2026-04-19T14:31:07.433Z</time></trkpt><trkpt lat="45.0170643" lon="9.782489"><ele>57.0</ele><time>2026-04-19T14:31:08.392Z</time></trkpt><trkpt lat="45.0172553" lon="9.7822883"><ele>57.0</ele><time>2026-04-19T14:31:09.401Z</time></trkpt><trkpt lat="45.0174482" lon="9.7820873"><ele>57.0</ele><time>2026-04-19T14:31:10.406Z</time></trkpt><trkpt lat="45.017646" lon="9.7818822"><ele>57.0</ele><time>2026-04-19T14:31:11.419Z</time></trkpt><trkpt lat="45.0178437" lon="9.7816806"><ele>57.0</ele><time>2026-04-19T14:31:12.408Z</time></trkpt><trkpt lat="45.0180421" lon="9.7814768"><ele>57.0</ele><time>2026-04-19T14:31:13.414Z</time></trkpt><trkpt lat="45.0182436" lon="9.7812746"><ele>57.0</ele><time>2026-04-19T14:31:14.415Z</time></trkpt><trkpt lat="45.0184446" lon="9.7810713"><ele>57.0</ele><time>2026-04-19T14:31:15.401Z</time></trkpt><trkpt lat="45.0186468" lon="9.7808659"><ele>57.0</ele><time>2026-04-19T14:31:16.422Z</time></trkpt><trkpt lat="45.0188486" lon="9.7806633"><ele>57.0</ele><time>2026-04-19T14:31:17.426Z</time></trkpt><trkpt lat="45.0190525" lon="9.7804596"><ele>57.0</ele><time>2026-04-19T14:31:18.421Z</time></trkpt><trkpt lat="45.0192577" lon="9.7802561"><ele>57.0</ele><time>2026-04-19T14:31:19.406Z</time></trkpt><trkpt lat="45.0194649" lon="9.7800556"><ele>57.0</ele><time>2026-04-19T14:31:20.391Z</time></trkpt><trkpt lat="45.0196657" lon="9.77985"><ele>57.0</ele><time>2026-04-19T14:31:21.427Z</time></trkpt><trkpt lat="45.0198755" lon="9.7796441"><ele>57.0</ele><time>2026-04-19T14:31:22.414Z</time></trkpt><trkpt lat="45.0200856" lon="9.7794375"><ele>58.0</ele><time>2026-04-19T14:31:23.423Z</time></trkpt><trkpt lat="45.0202974" lon="9.7792326"><ele>59.0</ele><time>2026-04-19T14:31:24.408Z</time></trkpt><trkpt lat="45.0205079" lon="9.7790222"><ele>59.0</ele><time>2026-04-19T14:31:25.424Z</time></trkpt><trkpt lat="45.0207178" lon="9.7788102"><ele>59.0</ele><time>2026-04-19T14:31:26.406Z</time></trkpt><trkpt lat="45.0209325" lon="9.7785967"><ele>58.5</ele><time>2026-04-19T14:31:27.422Z</time></trkpt><trkpt lat="45.0211449" lon="9.7783839"><ele>58.0</ele><time>2026-04-19T14:31:28.422Z</time></trkpt><trkpt lat="45.0213592" lon="9.7781733"><ele>58.0</ele><time>2026-04-19T14:31:29.419Z</time></trkpt><trkpt lat="45.0215715" lon="9.777964"><ele>58.0</ele><time>2026-04-19T14:31:30.412Z</time></trkpt><trkpt lat="45.0217854" lon="9.7777532"><ele>57.5</ele><time>2026-04-19T14:31:31.414Z</time></trkpt><trkpt lat="45.0219998" lon="9.7775447"><ele>57.0</ele><time>2026-04-19T14:31:32.413Z</time></trkpt><trkpt lat="45.0222142" lon="9.7773341"><ele>57.0</ele><time>2026-04-19T14:31:33.417Z</time></trkpt><trkpt lat="45.0224257" lon="9.777125"><ele>57.0</ele><time>2026-04-19T14:31:34.414Z</time></trkpt><trkpt lat="45.0226365" lon="9.7769156"><ele>57.0</ele><time>2026-04-19T14:31:35.424Z</time></trkpt><trkpt lat="45.0228467" lon="9.7767057"><ele>57.0</ele><time>2026-04-19T14:31:36.42Z</time></trkpt><trkpt lat="45.0230556" lon="9.7765001"><ele>57.0</ele><time>2026-04-19T14:31:37.37Z</time></trkpt><trkpt lat="45.0232667" lon="9.7762938"><ele>57.0</ele><time>2026-04-19T14:31:38.426Z</time></trkpt><trkpt lat="45.0234749" lon="9.7760858"><ele>55.5</ele><time>2026-04-19T14:31:39.416Z</time></trkpt><trkpt lat="45.0236858" lon="9.7758774"><ele>54.0</ele><time>2026-04-19T14:31:40.373Z</time></trkpt><trkpt lat="45.0238937" lon="9.7756668"><ele>54.0</ele><time>2026-04-19T14:31:41.406Z</time></trkpt><trkpt lat="45.0241064" lon="9.7754585"><ele>54.0</ele><time>2026-04-19T14:31:42.414Z</time></trkpt><trkpt lat="45.0243186" lon="9.7752501"><ele>54.5</ele><time>2026-04-19T14:31:43.423Z</time></trkpt><trkpt lat="45.0245274" lon="9.7750431"><ele>55.0</ele><time>2026-04-19T14:31:44.387Z</time></trkpt><trkpt lat="45.0247309" lon="9.7748346"><ele>55.0</ele><time>2026-04-19T14:31:45.433Z</time></trkpt><trkpt lat="45.0249405" lon="9.7746294"><ele>55.0</ele><time>2026-04-19T14:31:46.406Z</time></trkpt><trkpt lat="45.0251531" lon="9.7744233"><ele>55.0</ele><time>2026-04-19T14:31:47.423Z</time></trkpt><trkpt lat="45.0253638" lon="9.7742183"><ele>55.0</ele><time>2026-04-19T14:31:48.393Z</time></trkpt><trkpt lat="45.0255777" lon="9.7740153"><ele>55.0</ele><time>2026-04-19T14:31:49.397Z</time></trkpt><trkpt lat="45.0257899" lon="9.7738122"><ele>55.0</ele><time>2026-04-19T14:31:50.418Z</time></trkpt><trkpt lat="45.0259978" lon="9.7736082"><ele>53.5</ele><time>2026-04-19T14:31:51.4Z</time></trkpt><trkpt lat="45.0262014" lon="9.7734071"><ele>52.0</ele><time>2026-04-19T14:31:52.416Z</time></trkpt><trkpt lat="45.0264041" lon="9.7732058"><ele>52.0</ele><time>2026-04-19T14:31:53.42Z</time></trkpt><trkpt lat="45.0266124" lon="9.7730036"><ele>52.0</ele><time>2026-04-19T14:31:54.379Z</time></trkpt><trkpt lat="45.0268186" lon="9.7728039"><ele>53.0</ele><time>2026-04-19T14:31:55.426Z</time></trkpt><trkpt lat="45.0270287" lon="9.7726057"><ele>54.0</ele><time>2026-04-19T14:31:56.415Z</time></trkpt><trkpt lat="45.0272346" lon="9.7724012"><ele>54.0</ele><time>2026-04-19T14:31:57.407Z</time></trkpt><trkpt lat="45.0274391" lon="9.7721969"><ele>54.0</ele><time>2026-04-19T14:31:58.417Z</time></trkpt><trkpt lat="45.0276449" lon="9.7719976"><ele>53.5</ele><time>2026-04-19T14:31:59.402Z</time></trkpt><trkpt lat="45.027846" lon="9.7717968"><ele>53.0</ele><time>2026-04-19T14:32:00.42Z</time></trkpt><trkpt lat="45.0280489" lon="9.7715973"><ele>53.0</ele><time>2026-04-19T14:32:01.388Z</time></trkpt><trkpt lat="45.0282514" lon="9.771399"><ele>53.0</ele><time>2026-04-19T14:32:02.423Z</time></trkpt><trkpt lat="45.0284567" lon="9.7712015"><ele>54.0</ele><time>2026-04-19T14:32:03.414Z</time></trkpt><trkpt lat="45.0286573" lon="9.771005"><ele>55.0</ele><time>2026-04-19T14:32:04.408Z</time></trkpt><trkpt lat="45.0288574" lon="9.7708067"><ele>55.0</ele><time>2026-04-19T14:32:05.41Z</time></trkpt><trkpt lat="45.0290585" lon="9.7706076"><ele>55.0</ele><time>2026-04-19T14:32:06.407Z</time></trkpt><trkpt lat="45.0292652" lon="9.7704064"><ele>54.5</ele><time>2026-04-19T14:32:07.414Z</time></trkpt><trkpt lat="45.0294724" lon="9.7701999"><ele>54.0</ele><time>2026-04-19T14:32:08.42Z</time></trkpt><trkpt lat="45.0296786" lon="9.7699926"><ele>54.0</ele><time>2026-04-19T14:32:09.419Z</time></trkpt><trkpt lat="45.0298827" lon="9.769786"><ele>54.0</ele><time>2026-04-19T14:32:10.41Z</time></trkpt><trkpt lat="45.0300918" lon="9.7695792"><ele>54.0</ele><time>2026-04-19T14:32:11.42Z</time></trkpt><trkpt lat="45.0303002" lon="9.7693718"><ele>54.0</ele><time>2026-04-19T14:32:12.417Z</time></trkpt><trkpt lat="45.0305123" lon="9.7691677"><ele>54.0</ele><time>2026-04-19T14:32:13.395Z</time></trkpt><trkpt lat="45.0307225" lon="9.7689621"><ele>54.0</ele><time>2026-04-19T14:32:14.407Z</time></trkpt><trkpt lat="45.0309332" lon="9.7687534"><ele>54.0</ele><time>2026-04-19T14:32:15.417Z</time></trkpt><trkpt lat="45.0311397" lon="9.768541"><ele>54.0</ele><time>2026-04-19T14:32:16.361Z</time></trkpt><trkpt lat="45.0313499" lon="9.7683311"><ele>54.0</ele><time>2026-04-19T14:32:17.389Z</time></trkpt><trkpt lat="45.0315594" lon="9.7681182"><ele>54.0</ele><time>2026-04-19T14:32:18.391Z</time></trkpt><trkpt lat="45.0317706" lon="9.7679062"><ele>53.5</ele><time>2026-04-19T14:32:19.426Z</time></trkpt><trkpt lat="45.0319809" lon="9.7676955"><ele>53.0</ele><time>2026-04-19T14:32:20.423Z</time></trkpt><trkpt lat="45.0321907" lon="9.7674882"><ele>53.0</ele><time>2026-04-19T14:32:21.416Z</time></trkpt><trkpt lat="45.0323982" lon="9.7672845"><ele>53.0</ele><time>2026-04-19T14:32:22.402Z</time></trkpt><trkpt lat="45.0326056" lon="9.7670829"><ele>53.0</ele><time>2026-04-19T14:32:23.4Z</time></trkpt><trkpt lat="45.0328123" lon="9.7668823"><ele>53.0</ele><time>2026-04-19T14:32:24.409Z</time></trkpt><trkpt lat="45.0330171" lon="9.7666791"><ele>53.0</ele><time>2026-04-19T14:32:25.421Z</time></trkpt><trkpt lat="45.0332201" lon="9.766477"><ele>53.0</ele><time>2026-04-19T14:32:26.398Z</time></trkpt><trkpt lat="45.033424" lon="9.7662755"><ele>54.0</ele><time>2026-04-19T14:32:27.414Z</time></trkpt><trkpt lat="45.0336217" lon="9.7660783"><ele>55.0</ele><time>2026-04-19T14:32:28.422Z</time></trkpt><trkpt lat="45.0338252" lon="9.7658765"><ele>55.0</ele><time>2026-04-19T14:32:29.4Z</time></trkpt><trkpt lat="45.0340278" lon="9.7656728"><ele>55.0</ele><time>2026-04-19T14:32:30.411Z</time></trkpt><trkpt lat="45.034235" lon="9.7654658"><ele>55.0</ele><time>2026-04-19T14:32:31.404Z</time></trkpt><trkpt lat="45.0344466" lon="9.7652628"><ele>55.0</ele><time>2026-04-19T14:32:32.413Z</time></trkpt><trkpt lat="45.0346575" lon="9.7650595"><ele>54.5</ele><time>2026-04-19T14:32:33.409Z</time></trkpt><trkpt lat="45.0348667" lon="9.7648569"><ele>54.0</ele><time>2026-04-19T14:32:34.409Z</time></trkpt><trkpt lat="45.0350726" lon="9.7646544"><ele>54.0</ele><time>2026-04-19T14:32:35.418Z</time></trkpt><trkpt lat="45.0352817" lon="9.7644487"><ele>54.0</ele><time>2026-04-19T14:32:36.422Z</time></trkpt><trkpt lat="45.0354933" lon="9.7642431"><ele>53.5</ele><time>2026-04-19T14:32:37.423Z</time></trkpt><trkpt lat="45.0357008" lon="9.7640372"><ele>53.0</ele><time>2026-04-19T14:32:38.42Z</time></trkpt><trkpt lat="45.035911" lon="9.7638302"><ele>53.0</ele><time>2026-04-19T14:32:39.415Z</time></trkpt><trkpt lat="45.0361223" lon="9.7636198"><ele>53.0</ele><time>2026-04-19T14:32:40.414Z</time></trkpt><trkpt lat="45.0363364" lon="9.7634107"><ele>52.0</ele><time>2026-04-19T14:32:41.407Z</time></trkpt><trkpt lat="45.0365428" lon="9.7632035"><ele>51.0</ele><time>2026-04-19T14:32:42.41Z</time></trkpt><trkpt lat="45.0367579" lon="9.7629949"><ele>51.0</ele><time>2026-04-19T14:32:43.405Z</time></trkpt><trkpt lat="45.0369753" lon="9.762785"><ele>51.0</ele><time>2026-04-19T14:32:44.397Z</time></trkpt><trkpt lat="45.0371894" lon="9.7625781"><ele>50.5</ele><time>2026-04-19T14:32:45.408Z</time></trkpt><trkpt lat="45.0374051" lon="9.7623701"><ele>50.0</ele><time>2026-04-19T14:32:46.422Z</time></trkpt><trkpt lat="45.037624" lon="9.7621573"><ele>50.0</ele><time>2026-04-19T14:32:47.413Z</time></trkpt><trkpt lat="45.0378445" lon="9.7619473"><ele>50.0</ele><time>2026-04-19T14:32:48.426Z</time></trkpt><trkpt lat="45.0380584" lon="9.7617351"><ele>50.0</ele><time>2026-04-19T14:32:49.425Z</time></trkpt><trkpt lat="45.0382717" lon="9.7615257"><ele>50.0</ele><time>2026-04-19T14:32:50.405Z</time></trkpt><trkpt lat="45.0384894" lon="9.7613139"><ele>50.5</ele><time>2026-04-19T14:32:51.42Z</time></trkpt><trkpt lat="45.0387057" lon="9.7611032"><ele>51.0</ele><time>2026-04-19T14:32:52.416Z</time></trkpt><trkpt lat="45.0389249" lon="9.7608926"><ele>50.0</ele><time>2026-04-19T14:32:53.424Z</time></trkpt><trkpt lat="45.0391395" lon="9.760683"><ele>49.0</ele><time>2026-04-19T14:32:54.405Z</time></trkpt><trkpt lat="45.0393487" lon="9.7604734"><ele>49.0</ele><time>2026-04-19T14:32:55.416Z</time></trkpt><trkpt lat="45.0395593" lon="9.7602637"><ele>49.0</ele><time>2026-04-19T14:32:56.412Z</time></trkpt><trkpt lat="45.0397733" lon="9.7600533"><ele>47.0</ele><time>2026-04-19T14:32:57.423Z</time></trkpt><trkpt lat="45.0399904" lon="9.7598422"><ele>45.0</ele><time>2026-04-19T14:32:58.409Z</time></trkpt><trkpt lat="45.0402041" lon="9.75963"><ele>45.0</ele><time>2026-04-19T14:32:59.412Z</time></trkpt><trkpt lat="45.040419" lon="9.7594172"><ele>45.0</ele><time>2026-04-19T14:33:00.415Z</time></trkpt><trkpt lat="45.0406385" lon="9.7592064"><ele>44.5</ele><time>2026-04-19T14:33:01.424Z</time></trkpt><trkpt lat="45.0408578" lon="9.7589955"><ele>44.0</ele><time>2026-04-19T14:33:02.393Z</time></trkpt><trkpt lat="45.0410428" lon="9.7588128"><ele>44.0</ele><time>2026-04-19T14:33:03.345Z</time></trkpt><trkpt lat="45.0412594" lon="9.7585981"><ele>44.0</ele><time>2026-04-19T14:33:04.359Z</time></trkpt><trkpt lat="45.0414746" lon="9.7583783"><ele>45.0</ele><time>2026-04-19T14:33:05.302Z</time></trkpt><trkpt lat="45.0416866" lon="9.7581585"><ele>46.0</ele><time>2026-04-19T14:33:06.306Z</time></trkpt><trkpt lat="45.0418993" lon="9.7579445"><ele>46.0</ele><time>2026-04-19T14:33:07.338Z</time></trkpt><trkpt lat="45.0421072" lon="9.7577364"><ele>46.0</ele><time>2026-04-19T14:33:08.332Z</time></trkpt><trkpt lat="45.042325" lon="9.7575233"><ele>46.0</ele><time>2026-04-19T14:33:09.309Z</time></trkpt><trkpt lat="45.0425414" lon="9.7573099"><ele>46.0</ele><time>2026-04-19T14:33:10.304Z</time></trkpt><trkpt lat="45.0427545" lon="9.7570953"><ele>46.0</ele><time>2026-04-19T14:33:11.313Z</time></trkpt><trkpt lat="45.0429671" lon="9.7568881"><ele>46.0</ele><time>2026-04-19T14:33:12.323Z</time></trkpt><trkpt lat="45.0431718" lon="9.7566826"><ele>45.5</ele><time>2026-04-19T14:33:13.306Z</time></trkpt><trkpt lat="45.0433738" lon="9.7564707"><ele>45.0</ele><time>2026-04-19T14:33:14.306Z</time></trkpt><trkpt lat="45.0435827" lon="9.7562601"><ele>45.0</ele><time>2026-04-19T14:33:15.319Z</time></trkpt><trkpt lat="45.0437871" lon="9.7560419"><ele>45.0</ele><time>2026-04-19T14:33:16.337Z</time></trkpt><trkpt lat="45.0439948" lon="9.7558372"><ele>45.0</ele><time>2026-04-19T14:33:17.307Z</time></trkpt><trkpt lat="45.0442081" lon="9.7556335"><ele>45.0</ele><time>2026-04-19T14:33:18.314Z</time></trkpt><trkpt lat="45.0444222" lon="9.7554218"><ele>45.0</ele><time>2026-04-19T14:33:19.326Z</time></trkpt><trkpt lat="45.0446344" lon="9.7552094"><ele>45.0</ele><time>2026-04-19T14:33:20.333Z</time></trkpt><trkpt lat="45.0448452" lon="9.7550027"><ele>45.5</ele><time>2026-04-19T14:33:21.325Z</time></trkpt><trkpt lat="45.0450494" lon="9.7548014"><ele>46.0</ele><time>2026-04-19T14:33:22.32Z</time></trkpt><trkpt lat="45.0452542" lon="9.7545981"><ele>46.0</ele><time>2026-04-19T14:33:23.336Z</time></trkpt><trkpt lat="45.0454621" lon="9.7543901"><ele>46.0</ele><time>2026-04-19T14:33:24.321Z</time></trkpt><trkpt lat="45.0456627" lon="9.7541869"><ele>45.5</ele><time>2026-04-19T14:33:25.335Z</time></trkpt><trkpt lat="45.045861" lon="9.753978"><ele>45.0</ele><time>2026-04-19T14:33:26.314Z</time></trkpt><trkpt lat="45.0460639" lon="9.7537798"><ele>45.0</ele><time>2026-04-19T14:33:27.307Z</time></trkpt><trkpt lat="45.0462599" lon="9.7535927"><ele>45.0</ele><time>2026-04-19T14:33:28.3Z</time></trkpt><trkpt lat="45.0464554" lon="9.7534109"><ele>45.0</ele><time>2026-04-19T14:33:29.314Z</time></trkpt><trkpt lat="45.0466498" lon="9.7532157"><ele>45.0</ele><time>2026-04-19T14:33:30.306Z</time></trkpt><trkpt lat="45.0468422" lon="9.7530172"><ele>45.0</ele><time>2026-04-19T14:33:31.307Z</time></trkpt><trkpt lat="45.0470396" lon="9.7528312"><ele>45.0</ele><time>2026-04-19T14:33:32.312Z</time></trkpt><trkpt lat="45.0472348" lon="9.7526382"><ele>45.0</ele><time>2026-04-19T14:33:33.298Z</time></trkpt><trkpt lat="45.0474263" lon="9.7524503"><ele>45.0</ele><time>2026-04-19T14:33:34.318Z</time></trkpt><trkpt lat="45.0476182" lon="9.7522548"><ele>45.5</ele><time>2026-04-19T14:33:35.308Z</time></trkpt><trkpt lat="45.0478143" lon="9.7520477"><ele>46.0</ele><time>2026-04-19T14:33:36.313Z</time></trkpt><trkpt lat="45.0480079" lon="9.7518563"><ele>46.0</ele><time>2026-04-19T14:33:37.3Z</time></trkpt><trkpt lat="45.0482006" lon="9.7516694"><ele>46.0</ele><time>2026-04-19T14:33:38.304Z</time></trkpt><trkpt lat="45.0483954" lon="9.7514859"><ele>47.0</ele><time>2026-04-19T14:33:39.332Z</time></trkpt><trkpt lat="45.0485901" lon="9.7513046"><ele>48.0</ele><time>2026-04-19T14:33:40.335Z</time></trkpt><trkpt lat="45.0487818" lon="9.7511168"><ele>46.5</ele><time>2026-04-19T14:33:41.325Z</time></trkpt><trkpt lat="45.0489747" lon="9.750932"><ele>45.0</ele><time>2026-04-19T14:33:42.31Z</time></trkpt><trkpt lat="45.0491633" lon="9.7507414"><ele>45.0</ele><time>2026-04-19T14:33:43.331Z</time></trkpt><trkpt lat="45.0493541" lon="9.7505448"><ele>45.0</ele><time>2026-04-19T14:33:44.307Z</time></trkpt><trkpt lat="45.049549" lon="9.7503508"><ele>44.0</ele><time>2026-04-19T14:33:45.336Z</time></trkpt><trkpt lat="45.0497418" lon="9.7501559"><ele>43.0</ele><time>2026-04-19T14:33:46.309Z</time></trkpt><trkpt lat="45.0499355" lon="9.7499665"><ele>44.5</ele><time>2026-04-19T14:33:47.326Z</time></trkpt><trkpt lat="45.0501269" lon="9.7497773"><ele>46.0</ele><time>2026-04-19T14:33:48.334Z</time></trkpt><trkpt lat="45.0503218" lon="9.7495855"><ele>46.0</ele><time>2026-04-19T14:33:49.315Z</time></trkpt><trkpt lat="45.050514" lon="9.749391"><ele>46.0</ele><time>2026-04-19T14:33:50.337Z</time></trkpt><trkpt lat="45.050706" lon="9.7491988"><ele>46.5</ele><time>2026-04-19T14:33:51.327Z</time></trkpt><trkpt lat="45.0508994" lon="9.7490099"><ele>47.0</ele><time>2026-04-19T14:33:52.33Z</time></trkpt><trkpt lat="45.0510978" lon="9.7488231"><ele>47.0</ele><time>2026-04-19T14:33:53.338Z</time></trkpt><trkpt lat="45.0512983" lon="9.7486325"><ele>47.0</ele><time>2026-04-19T14:33:54.345Z</time></trkpt><trkpt lat="45.0514953" lon="9.7484369"><ele>47.0</ele><time>2026-04-19T14:33:55.344Z</time></trkpt><trkpt lat="45.0516871" lon="9.7482406"><ele>47.0</ele><time>2026-04-19T14:33:56.331Z</time></trkpt><trkpt lat="45.051884" lon="9.7480492"><ele>47.0</ele><time>2026-04-19T14:33:57.324Z</time></trkpt><trkpt lat="45.0520759" lon="9.7478546"><ele>47.0</ele><time>2026-04-19T14:33:58.321Z</time></trkpt><trkpt lat="45.0522615" lon="9.7476605"><ele>47.5</ele><time>2026-04-19T14:33:59.331Z</time></trkpt><trkpt lat="45.0524584" lon="9.7474631"><ele>48.0</ele><time>2026-04-19T14:34:00.338Z</time></trkpt><trkpt lat="45.0526571" lon="9.7472702"><ele>48.0</ele><time>2026-04-19T14:34:01.328Z</time></trkpt><trkpt lat="45.0528572" lon="9.747072"><ele>48.0</ele><time>2026-04-19T14:34:02.308Z</time></trkpt><trkpt lat="45.053056" lon="9.7468684"><ele>48.5</ele><time>2026-04-19T14:34:03.323Z</time></trkpt><trkpt lat="45.0532607" lon="9.7466796"><ele>49.0</ele><time>2026-04-19T14:34:04.328Z</time></trkpt><trkpt lat="45.0534565" lon="9.7464776"><ele>48.0</ele><time>2026-04-19T14:34:05.334Z</time></trkpt><trkpt lat="45.0536474" lon="9.7462807"><ele>47.0</ele><time>2026-04-19T14:34:06.329Z</time></trkpt><trkpt lat="45.053848" lon="9.746082"><ele>46.5</ele><time>2026-04-19T14:34:07.329Z</time></trkpt><trkpt lat="45.0540504" lon="9.7458874"><ele>46.0</ele><time>2026-04-19T14:34:08.305Z</time></trkpt><trkpt lat="45.0542567" lon="9.7456886"><ele>46.0</ele><time>2026-04-19T14:34:09.341Z</time></trkpt><trkpt lat="45.0544547" lon="9.7454925"><ele>46.0</ele><time>2026-04-19T14:34:10.329Z</time></trkpt><trkpt lat="45.0546476" lon="9.7452957"><ele>46.0</ele><time>2026-04-19T14:34:11.329Z</time></trkpt><trkpt lat="45.0548451" lon="9.7451025"><ele>46.0</ele><time>2026-04-19T14:34:12.331Z</time></trkpt><trkpt lat="45.0550379" lon="9.7449129"><ele>46.0</ele><time>2026-04-19T14:34:13.318Z</time></trkpt><trkpt lat="45.0552312" lon="9.7447201"><ele>46.0</ele><time>2026-04-19T14:34:14.321Z</time></trkpt><trkpt lat="45.0554289" lon="9.7445167"><ele>46.0</ele><time>2026-04-19T14:34:15.33Z</time></trkpt><trkpt lat="45.0556208" lon="9.7443279"><ele>46.0</ele><time>2026-04-19T14:34:16.332Z</time></trkpt><trkpt lat="45.0558178" lon="9.7441413"><ele>46.0</ele><time>2026-04-19T14:34:17.332Z</time></trkpt><trkpt lat="45.0560086" lon="9.7439459"><ele>46.0</ele><time>2026-04-19T14:34:18.31Z</time></trkpt><trkpt lat="45.0562073" lon="9.7437542"><ele>46.0</ele><time>2026-04-19T14:34:19.316Z</time></trkpt><trkpt lat="45.056396" lon="9.7435605"><ele>46.0</ele><time>2026-04-19T14:34:20.324Z</time></trkpt><trkpt lat="45.0565863" lon="9.7433712"><ele>45.5</ele><time>2026-04-19T14:34:21.324Z</time></trkpt><trkpt lat="45.0567753" lon="9.743181"><ele>45.0</ele><time>2026-04-19T14:34:22.3Z</time></trkpt><trkpt lat="45.056965" lon="9.7429926"><ele>45.0</ele><time>2026-04-19T14:34:23.304Z</time></trkpt><trkpt lat="45.0571533" lon="9.7428051"><ele>45.0</ele><time>2026-04-19T14:34:24.3Z</time></trkpt><trkpt lat="45.0573392" lon="9.7426124"><ele>46.0</ele><time>2026-04-19T14:34:25.301Z</time></trkpt><trkpt lat="45.0575226" lon="9.7424278"><ele>47.0</ele><time>2026-04-19T14:34:26.319Z</time></trkpt><trkpt lat="45.0577055" lon="9.7422487"><ele>48.0</ele><time>2026-04-19T14:34:27.314Z</time></trkpt><trkpt lat="45.0579111" lon="9.7420414"><ele>47.0</ele><time>2026-04-19T14:34:28.328Z</time></trkpt><trkpt lat="45.0581174" lon="9.7418375"><ele>46.0</ele><time>2026-04-19T14:34:29.327Z</time></trkpt><trkpt lat="45.0583264" lon="9.7416256"><ele>46.0</ele><time>2026-04-19T14:34:30.331Z</time></trkpt><trkpt lat="45.0585257" lon="9.7414236"><ele>46.0</ele><time>2026-04-19T14:34:31.334Z</time></trkpt><trkpt lat="45.0587231" lon="9.7412072"><ele>44.5</ele><time>2026-04-19T14:34:32.341Z</time></trkpt><trkpt lat="45.0589005" lon="9.7410097"><ele>43.0</ele><time>2026-04-19T14:34:33.325Z</time></trkpt><trkpt lat="45.0591018" lon="9.7408192"><ele>44.5</ele><time>2026-04-19T14:34:34.339Z</time></trkpt><trkpt lat="45.0593213" lon="9.7406265"><ele>46.0</ele><time>2026-04-19T14:34:35.326Z</time></trkpt><trkpt lat="45.0595393" lon="9.7404419"><ele>46.0</ele><time>2026-04-19T14:34:36.335Z</time></trkpt><trkpt lat="45.0597513" lon="9.7402557"><ele>46.0</ele><time>2026-04-19T14:34:37.324Z</time></trkpt><trkpt lat="45.0599698" lon="9.7400628"><ele>46.5</ele><time>2026-04-19T14:34:38.333Z</time></trkpt><trkpt lat="45.0601776" lon="9.7398688"><ele>47.0</ele><time>2026-04-19T14:34:39.325Z</time></trkpt><trkpt lat="45.060392" lon="9.7396801"><ele>47.0</ele><time>2026-04-19T14:34:40.322Z</time></trkpt><trkpt lat="45.0606081" lon="9.739497"><ele>47.0</ele><time>2026-04-19T14:34:41.331Z</time></trkpt><trkpt lat="45.0608102" lon="9.7393041"><ele>49.5</ele><time>2026-04-19T14:34:42.339Z</time></trkpt><trkpt lat="45.0610137" lon="9.7391145"><ele>52.0</ele><time>2026-04-19T14:34:43.323Z</time></trkpt><trkpt lat="45.0612118" lon="9.7389189"><ele>52.0</ele><time>2026-04-19T14:34:44.336Z</time></trkpt><trkpt lat="45.0614163" lon="9.738717"><ele>52.0</ele><time>2026-04-19T14:34:45.333Z</time></trkpt><trkpt lat="45.061617" lon="9.7385214"><ele>53.5</ele><time>2026-04-19T14:34:46.327Z</time></trkpt><trkpt lat="45.0618201" lon="9.7383263"><ele>55.0</ele><time>2026-04-19T14:34:47.335Z</time></trkpt><trkpt lat="45.0620156" lon="9.7381306"><ele>55.0</ele><time>2026-04-19T14:34:48.339Z</time></trkpt><trkpt lat="45.0622115" lon="9.7379391"><ele>55.0</ele><time>2026-04-19T14:34:49.325Z</time></trkpt><trkpt lat="45.0624067" lon="9.7377457"><ele>53.5</ele><time>2026-04-19T14:34:50.332Z</time></trkpt><trkpt lat="45.0625958" lon="9.7375587"><ele>52.0</ele><time>2026-04-19T14:34:51.335Z</time></trkpt><trkpt lat="45.0627827" lon="9.7373778"><ele>52.0</ele><time>2026-04-19T14:34:52.31Z</time></trkpt><trkpt lat="45.0629682" lon="9.7372023"><ele>52.0</ele><time>2026-04-19T14:34:53.338Z</time></trkpt><trkpt lat="45.0631508" lon="9.7370301"><ele>52.0</ele><time>2026-04-19T14:34:54.344Z</time></trkpt><trkpt lat="45.0633368" lon="9.7368524"><ele>51.0</ele><time>2026-04-19T14:34:55.341Z</time></trkpt><trkpt lat="45.0635174" lon="9.7366689"><ele>50.0</ele><time>2026-04-19T14:34:56.333Z</time></trkpt><trkpt lat="45.0636981" lon="9.7364889"><ele>49.0</ele><time>2026-04-19T14:34:57.318Z</time></trkpt><trkpt lat="45.0638753" lon="9.7363124"><ele>49.0</ele><time>2026-04-19T14:34:58.305Z</time></trkpt><trkpt lat="45.0640621" lon="9.7361376"><ele>49.0</ele><time>2026-04-19T14:34:59.331Z</time></trkpt><trkpt lat="45.0642431" lon="9.7359446"><ele>48.5</ele><time>2026-04-19T14:35:00.351Z</time></trkpt><trkpt lat="45.0644327" lon="9.7357507"><ele>48.0</ele><time>2026-04-19T14:35:01.352Z</time></trkpt><trkpt lat="45.064621" lon="9.7355639"><ele>48.0</ele><time>2026-04-19T14:35:02.352Z</time></trkpt><trkpt lat="45.064812" lon="9.7353696"><ele>48.0</ele><time>2026-04-19T14:35:03.336Z</time></trkpt><trkpt lat="45.065004" lon="9.7351777"><ele>44.5</ele><time>2026-04-19T14:35:04.369Z</time></trkpt><trkpt lat="45.065199" lon="9.7350005"><ele>41.0</ele><time>2026-04-19T14:35:05.364Z</time></trkpt><trkpt lat="45.0653897" lon="9.7348189"><ele>41.0</ele><time>2026-04-19T14:35:06.339Z</time></trkpt><trkpt lat="45.0655764" lon="9.7346291"><ele>41.0</ele><time>2026-04-19T14:35:07.347Z</time></trkpt><trkpt lat="45.0657635" lon="9.7344472"><ele>41.0</ele><time>2026-04-19T14:35:08.353Z</time></trkpt><trkpt lat="45.0659593" lon="9.7342615"><ele>41.0</ele><time>2026-04-19T14:35:09.351Z</time></trkpt><trkpt lat="45.0661575" lon="9.7340699"><ele>41.0</ele><time>2026-04-19T14:35:10.337Z</time></trkpt><trkpt lat="45.0663593" lon="9.7338736"><ele>41.0</ele><time>2026-04-19T14:35:11.341Z</time></trkpt><trkpt lat="45.0665594" lon="9.7336841"><ele>42.0</ele><time>2026-04-19T14:35:12.348Z</time></trkpt><trkpt lat="45.0667583" lon="9.7334931"><ele>43.0</ele><time>2026-04-19T14:35:13.353Z</time></trkpt><trkpt lat="45.0669588" lon="9.7332991"><ele>43.0</ele><time>2026-04-19T14:35:14.347Z</time></trkpt><trkpt lat="45.0671582" lon="9.7331103"><ele>43.0</ele><time>2026-04-19T14:35:15.343Z</time></trkpt><trkpt lat="45.0673614" lon="9.7329134"><ele>47.0</ele><time>2026-04-19T14:35:16.342Z</time></trkpt><trkpt lat="45.0675633" lon="9.7327185"><ele>51.0</ele><time>2026-04-19T14:35:17.349Z</time></trkpt><trkpt lat="45.0677681" lon="9.7325194"><ele>51.0</ele><time>2026-04-19T14:35:18.358Z</time></trkpt><trkpt lat="45.06797" lon="9.7323206"><ele>51.0</ele><time>2026-04-19T14:35:19.347Z</time></trkpt><trkpt lat="45.0681668" lon="9.7321191"><ele>49.5</ele><time>2026-04-19T14:35:20.361Z</time></trkpt><trkpt lat="45.0683638" lon="9.7319212"><ele>48.0</ele><time>2026-04-19T14:35:21.348Z</time></trkpt><trkpt lat="45.0685627" lon="9.7317177"><ele>48.0</ele><time>2026-04-19T14:35:22.34Z</time></trkpt><trkpt lat="45.068769" lon="9.7315111"><ele>48.0</ele><time>2026-04-19T14:35:23.344Z</time></trkpt><trkpt lat="45.0689647" lon="9.7313096"><ele>48.0</ele><time>2026-04-19T14:35:24.317Z</time></trkpt><trkpt lat="45.0691626" lon="9.7311082"><ele>48.0</ele><time>2026-04-19T14:35:25.339Z</time></trkpt><trkpt lat="45.0693708" lon="9.7309048"><ele>48.0</ele><time>2026-04-19T14:35:26.339Z</time></trkpt><trkpt lat="45.0695778" lon="9.7307036"><ele>48.0</ele><time>2026-04-19T14:35:27.351Z</time></trkpt><trkpt lat="45.0697858" lon="9.7304977"><ele>48.5</ele><time>2026-04-19T14:35:28.322Z</time></trkpt><trkpt lat="45.0699943" lon="9.7302843"><ele>49.0</ele><time>2026-04-19T14:35:29.349Z</time></trkpt><trkpt lat="45.0702072" lon="9.7300769"><ele>48.0</ele><time>2026-04-19T14:35:30.325Z</time></trkpt><trkpt lat="45.0704132" lon="9.7298704"><ele>47.0</ele><time>2026-04-19T14:35:31.306Z</time></trkpt><trkpt lat="45.0706255" lon="9.7296645"><ele>46.5</ele><time>2026-04-19T14:35:32.345Z</time></trkpt><trkpt lat="45.0708403" lon="9.7294585"><ele>46.0</ele><time>2026-04-19T14:35:33.348Z</time></trkpt><trkpt lat="45.0710502" lon="9.7292534"><ele>47.5</ele><time>2026-04-19T14:35:34.348Z</time></trkpt><trkpt lat="45.0712592" lon="9.7290493"><ele>49.0</ele><time>2026-04-19T14:35:35.34Z</time></trkpt><trkpt lat="45.0714641" lon="9.7288428"><ele>49.0</ele><time>2026-04-19T14:35:36.333Z</time></trkpt><trkpt lat="45.0716691" lon="9.72863"><ele>49.0</ele><time>2026-04-19T14:35:37.334Z</time></trkpt><trkpt lat="45.0718696" lon="9.7284184"><ele>49.5</ele><time>2026-04-19T14:35:38.361Z</time></trkpt><trkpt lat="45.0720738" lon="9.7282101"><ele>50.0</ele><time>2026-04-19T14:35:39.35Z</time></trkpt><trkpt lat="45.0722806" lon="9.7279996"><ele>49.5</ele><time>2026-04-19T14:35:40.344Z</time></trkpt><trkpt lat="45.0724795" lon="9.7277921"><ele>49.0</ele><time>2026-04-19T14:35:41.316Z</time></trkpt><trkpt lat="45.072674" lon="9.7275804"><ele>49.0</ele><time>2026-04-19T14:35:42.338Z</time></trkpt><trkpt lat="45.0728668" lon="9.7273712"><ele>49.0</ele><time>2026-04-19T14:35:43.347Z</time></trkpt><trkpt lat="45.0730648" lon="9.7271659"><ele>49.0</ele><time>2026-04-19T14:35:44.342Z</time></trkpt><trkpt lat="45.0732559" lon="9.7269566"><ele>49.0</ele><time>2026-04-19T14:35:45.341Z</time></trkpt><trkpt lat="45.0734512" lon="9.7267581"><ele>48.0</ele><time>2026-04-19T14:35:46.355Z</time></trkpt><trkpt lat="45.0736463" lon="9.7265675"><ele>47.0</ele><time>2026-04-19T14:35:47.339Z</time></trkpt><trkpt lat="45.0738358" lon="9.7263722"><ele>47.0</ele><time>2026-04-19T14:35:48.345Z</time></trkpt><trkpt lat="45.0740276" lon="9.7261823"><ele>47.0</ele><time>2026-04-19T14:35:49.359Z</time></trkpt><trkpt lat="45.0742185" lon="9.7259993"><ele>48.0</ele><time>2026-04-19T14:35:50.348Z</time></trkpt><trkpt lat="45.0744046" lon="9.7258181"><ele>49.0</ele><time>2026-04-19T14:35:51.361Z</time></trkpt><trkpt lat="45.0745919" lon="9.725629"><ele>49.0</ele><time>2026-04-19T14:35:52.363Z</time></trkpt><trkpt lat="45.074779" lon="9.7254512"><ele>49.0</ele><time>2026-04-19T14:35:53.353Z</time></trkpt><trkpt lat="45.0749654" lon="9.7252702"><ele>48.666666666666664</ele><time>2026-04-19T14:35:54.352Z</time></trkpt><trkpt lat="45.0751462" lon="9.7250964"><ele>48.33333333333333</ele><time>2026-04-19T14:35:55.356Z</time></trkpt><trkpt lat="45.0753256" lon="9.7249147"><ele>48.0</ele><time>2026-04-19T14:35:56.355Z</time></trkpt><trkpt lat="45.0755101" lon="9.7247345"><ele>48.0</ele><time>2026-04-19T14:35:57.37Z</time></trkpt><trkpt lat="45.0756975" lon="9.7245536"><ele>48.0</ele><time>2026-04-19T14:35:58.361Z</time></trkpt><trkpt lat="45.0758814" lon="9.7243743"><ele>47.5</ele><time>2026-04-19T14:35:59.351Z</time></trkpt><trkpt lat="45.076065" lon="9.7241941"><ele>47.0</ele><time>2026-04-19T14:36:00.352Z</time></trkpt><trkpt lat="45.0762549" lon="9.7240025"><ele>47.0</ele><time>2026-04-19T14:36:01.308Z</time></trkpt><trkpt lat="45.0764425" lon="9.7238234"><ele>47.0</ele><time>2026-04-19T14:36:02.321Z</time></trkpt><trkpt lat="45.0766353" lon="9.7236405"><ele>46.5</ele><time>2026-04-19T14:36:03.344Z</time></trkpt><trkpt lat="45.0768317" lon="9.723449"><ele>46.0</ele><time>2026-04-19T14:36:04.344Z</time></trkpt><trkpt lat="45.0770212" lon="9.7232602"><ele>46.0</ele><time>2026-04-19T14:36:05.349Z</time></trkpt><trkpt lat="45.0772117" lon="9.7230692"><ele>46.0</ele><time>2026-04-19T14:36:06.346Z</time></trkpt><trkpt lat="45.0774055" lon="9.7228751"><ele>46.5</ele><time>2026-04-19T14:36:07.347Z</time></trkpt><trkpt lat="45.0776012" lon="9.7226758"><ele>47.0</ele><time>2026-04-19T14:36:08.347Z</time></trkpt><trkpt lat="45.0777874" lon="9.7224753"><ele>47.0</ele><time>2026-04-19T14:36:09.35Z</time></trkpt><trkpt lat="45.0779716" lon="9.7222835"><ele>47.0</ele><time>2026-04-19T14:36:10.362Z</time></trkpt><trkpt lat="45.0781584" lon="9.7220861"><ele>47.0</ele><time>2026-04-19T14:36:11.346Z</time></trkpt><trkpt lat="45.0783455" lon="9.7218931"><ele>47.0</ele><time>2026-04-19T14:36:12.331Z</time></trkpt><trkpt lat="45.0785345" lon="9.7216958"><ele>47.0</ele><time>2026-04-19T14:36:13.344Z</time></trkpt><trkpt lat="45.0787247" lon="9.7214976"><ele>47.0</ele><time>2026-04-19T14:36:14.34Z</time></trkpt><trkpt lat="45.0789097" lon="9.7213024"><ele>47.0</ele><time>2026-04-19T14:36:15.336Z</time></trkpt><trkpt lat="45.0790935" lon="9.7211026"><ele>47.0</ele><time>2026-04-19T14:36:16.336Z</time></trkpt><trkpt lat="45.0792789" lon="9.7209099"><ele>47.5</ele><time>2026-04-19T14:36:17.337Z</time></trkpt><trkpt lat="45.0794665" lon="9.7207135"><ele>48.0</ele><time>2026-04-19T14:36:18.343Z</time></trkpt><trkpt lat="45.0796539" lon="9.7205152"><ele>48.0</ele><time>2026-04-19T14:36:19.341Z</time></trkpt><trkpt lat="45.0798347" lon="9.7203205"><ele>48.0</ele><time>2026-04-19T14:36:20.342Z</time></trkpt><trkpt lat="45.0800225" lon="9.720122"><ele>47.5</ele><time>2026-04-19T14:36:21.344Z</time></trkpt><trkpt lat="45.0802113" lon="9.7199321"><ele>47.0</ele><time>2026-04-19T14:36:22.354Z</time></trkpt><trkpt lat="45.0803879" lon="9.7197339"><ele>47.0</ele><time>2026-04-19T14:36:23.354Z</time></trkpt><trkpt lat="45.0805644" lon="9.7195466"><ele>47.0</ele><time>2026-04-19T14:36:24.355Z</time></trkpt><trkpt lat="45.0807379" lon="9.7193586"><ele>47.0</ele><time>2026-04-19T14:36:25.351Z</time></trkpt><trkpt lat="45.0809043" lon="9.7191752"><ele>47.0</ele><time>2026-04-19T14:36:26.355Z</time></trkpt><trkpt lat="45.081083" lon="9.7189863"><ele>47.0</ele><time>2026-04-19T14:36:27.353Z</time></trkpt><trkpt lat="45.081259" lon="9.7187985"><ele>47.0</ele><time>2026-04-19T14:36:28.346Z</time></trkpt><trkpt lat="45.0814371" lon="9.7186105"><ele>47.666666666666664</ele><time>2026-04-19T14:36:29.358Z</time></trkpt><trkpt lat="45.0816142" lon="9.7184322"><ele>48.33333333333333</ele><time>2026-04-19T14:36:30.36Z</time></trkpt><trkpt lat="45.0817896" lon="9.7182489"><ele>49.0</ele><time>2026-04-19T14:36:31.355Z</time></trkpt><trkpt lat="45.0819599" lon="9.7180678"><ele>49.0</ele><time>2026-04-19T14:36:32.364Z</time></trkpt><trkpt lat="45.0821302" lon="9.7178852"><ele>49.0</ele><time>2026-04-19T14:36:33.355Z</time></trkpt><trkpt lat="45.0823029" lon="9.7176987"><ele>49.0</ele><time>2026-04-19T14:36:34.349Z</time></trkpt><trkpt lat="45.0824754" lon="9.717504"><ele>49.0</ele><time>2026-04-19T14:36:35.357Z</time></trkpt><trkpt lat="45.0826505" lon="9.7173092"><ele>49.0</ele><time>2026-04-19T14:36:36.34Z</time></trkpt><trkpt lat="45.0828221" lon="9.7171163"><ele>49.0</ele><time>2026-04-19T14:36:37.358Z</time></trkpt><trkpt lat="45.0829957" lon="9.7169282"><ele>49.0</ele><time>2026-04-19T14:36:38.346Z</time></trkpt><trkpt lat="45.0831704" lon="9.7167425"><ele>49.0</ele><time>2026-04-19T14:36:39.358Z</time></trkpt><trkpt lat="45.0833471" lon="9.7165598"><ele>49.0</ele><time>2026-04-19T14:36:40.348Z</time></trkpt><trkpt lat="45.0835248" lon="9.7163679"><ele>48.666666666666664</ele><time>2026-04-19T14:36:41.353Z</time></trkpt><trkpt lat="45.083697" lon="9.7161723"><ele>48.33333333333333</ele><time>2026-04-19T14:36:42.346Z</time></trkpt><trkpt lat="45.0838807" lon="9.7159806"><ele>48.0</ele><time>2026-04-19T14:36:43.35Z</time></trkpt><trkpt lat="45.0840673" lon="9.7157876"><ele>48.0</ele><time>2026-04-19T14:36:44.318Z</time></trkpt><trkpt lat="45.0842641" lon="9.7155894"><ele>48.0</ele><time>2026-04-19T14:36:45.344Z</time></trkpt><trkpt lat="45.0844454" lon="9.7153803"><ele>47.5</ele><time>2026-04-19T14:36:46.339Z</time></trkpt><trkpt lat="45.0846291" lon="9.7151871"><ele>47.0</ele><time>2026-04-19T14:36:47.35Z</time></trkpt><trkpt lat="45.0848135" lon="9.7149912"><ele>48.0</ele><time>2026-04-19T14:36:48.339Z</time></trkpt><trkpt lat="45.0850026" lon="9.7147958"><ele>49.0</ele><time>2026-04-19T14:36:49.342Z</time></trkpt><trkpt lat="45.0851893" lon="9.7145884"><ele>48.0</ele><time>2026-04-19T14:36:50.342Z</time></trkpt><trkpt lat="45.0853819" lon="9.7143884"><ele>47.0</ele><time>2026-04-19T14:36:51.346Z</time></trkpt><trkpt lat="45.0855718" lon="9.7141854"><ele>47.5</ele><time>2026-04-19T14:36:52.349Z</time></trkpt><trkpt lat="45.0857669" lon="9.7139787"><ele>48.0</ele><time>2026-04-19T14:36:53.34Z</time></trkpt><trkpt lat="45.0859558" lon="9.713777"><ele>48.0</ele><time>2026-04-19T14:36:54.357Z</time></trkpt><trkpt lat="45.0861464" lon="9.7135753"><ele>48.0</ele><time>2026-04-19T14:36:55.34Z</time></trkpt><trkpt lat="45.0863343" lon="9.7133735"><ele>47.5</ele><time>2026-04-19T14:36:56.352Z</time></trkpt><trkpt lat="45.0865275" lon="9.7131679"><ele>47.0</ele><time>2026-04-19T14:36:57.354Z</time></trkpt><trkpt lat="45.0867223" lon="9.7129604"><ele>47.0</ele><time>2026-04-19T14:36:58.35Z</time></trkpt><trkpt lat="45.0869248" lon="9.7127506"><ele>47.0</ele><time>2026-04-19T14:36:59.348Z</time></trkpt><trkpt lat="45.0871118" lon="9.7125508"><ele>46.5</ele><time>2026-04-19T14:37:00.349Z</time></trkpt><trkpt lat="45.0873054" lon="9.7123382"><ele>46.0</ele><time>2026-04-19T14:37:01.333Z</time></trkpt><trkpt lat="45.0874911" lon="9.7121302"><ele>46.0</ele><time>2026-04-19T14:37:02.35Z</time></trkpt><trkpt lat="45.0876736" lon="9.7119255"><ele>46.0</ele><time>2026-04-19T14:37:03.356Z</time></trkpt><trkpt lat="45.087861" lon="9.711726"><ele>46.0</ele><time>2026-04-19T14:37:04.348Z</time></trkpt><trkpt lat="45.0880493" lon="9.7115217"><ele>46.0</ele><time>2026-04-19T14:37:05.344Z</time></trkpt><trkpt lat="45.0882315" lon="9.7113261"><ele>46.0</ele><time>2026-04-19T14:37:06.359Z</time></trkpt><trkpt lat="45.0884206" lon="9.7111271"><ele>46.0</ele><time>2026-04-19T14:37:07.348Z</time></trkpt><trkpt lat="45.0885968" lon="9.7109319"><ele>46.0</ele><time>2026-04-19T14:37:08.345Z</time></trkpt><trkpt lat="45.0887776" lon="9.7107258"><ele>46.0</ele><time>2026-04-19T14:37:09.35Z</time></trkpt><trkpt lat="45.0889635" lon="9.7105214"><ele>45.5</ele><time>2026-04-19T14:37:10.363Z</time></trkpt><trkpt lat="45.0891466" lon="9.7103181"><ele>45.0</ele><time>2026-04-19T14:37:11.328Z</time></trkpt><trkpt lat="45.0893303" lon="9.7101152"><ele>45.0</ele><time>2026-04-19T14:37:12.348Z</time></trkpt><trkpt lat="45.0895126" lon="9.7099213"><ele>45.0</ele><time>2026-04-19T14:37:13.342Z</time></trkpt><trkpt lat="45.0896976" lon="9.7097323"><ele>45.0</ele><time>2026-04-19T14:37:14.335Z</time></trkpt><trkpt lat="45.0898773" lon="9.7095406"><ele>45.0</ele><time>2026-04-19T14:37:15.352Z</time></trkpt><trkpt lat="45.0900532" lon="9.7093517"><ele>45.0</ele><time>2026-04-19T14:37:16.346Z</time></trkpt><trkpt lat="45.0902233" lon="9.7091682"><ele>44.0</ele><time>2026-04-19T14:37:17.346Z</time></trkpt><trkpt lat="45.0903951" lon="9.7089774"><ele>43.0</ele><time>2026-04-19T14:37:18.338Z</time></trkpt><trkpt lat="45.0905653" lon="9.7087976"><ele>42.0</ele><time>2026-04-19T14:37:19.351Z</time></trkpt><trkpt lat="45.0907382" lon="9.7086098"><ele>42.333333333333336</ele><time>2026-04-19T14:37:20.349Z</time></trkpt><trkpt lat="45.0909089" lon="9.7084218"><ele>42.66666666666667</ele><time>2026-04-19T14:37:21.351Z</time></trkpt><trkpt lat="45.0910808" lon="9.7082358"><ele>43.0</ele><time>2026-04-19T14:37:22.375Z</time></trkpt><trkpt lat="45.0912483" lon="9.7080589"><ele>43.0</ele><time>2026-04-19T14:37:23.364Z</time></trkpt><trkpt lat="45.0914135" lon="9.7078711"><ele>43.0</ele><time>2026-04-19T14:37:24.347Z</time></trkpt><trkpt lat="45.0915805" lon="9.707697"><ele>43.0</ele><time>2026-04-19T14:37:25.349Z</time></trkpt><trkpt lat="45.0917518" lon="9.7075209"><ele>44.333333333333336</ele><time>2026-04-19T14:37:26.351Z</time></trkpt><trkpt lat="45.091918" lon="9.7073397"><ele>45.666666666666664</ele><time>2026-04-19T14:37:27.36Z</time></trkpt><trkpt lat="45.0920895" lon="9.7071575"><ele>47.0</ele><time>2026-04-19T14:37:28.357Z</time></trkpt><trkpt lat="45.0922634" lon="9.7069751"><ele>46.0</ele><time>2026-04-19T14:37:29.343Z</time></trkpt><trkpt lat="45.0924371" lon="9.7067867"><ele>45.0</ele><time>2026-04-19T14:37:30.34Z</time></trkpt><trkpt lat="45.0926176" lon="9.7065885"><ele>44.0</ele><time>2026-04-19T14:37:31.345Z</time></trkpt><trkpt lat="45.0927931" lon="9.7063912"><ele>44.0</ele><time>2026-04-19T14:37:32.348Z</time></trkpt><trkpt lat="45.0929786" lon="9.7061932"><ele>44.0</ele><time>2026-04-19T14:37:33.338Z</time></trkpt><trkpt lat="45.0931633" lon="9.7059932"><ele>44.0</ele><time>2026-04-19T14:37:34.357Z</time></trkpt><trkpt lat="45.0933542" lon="9.7057839"><ele>44.0</ele><time>2026-04-19T14:37:35.354Z</time></trkpt><trkpt lat="45.0935502" lon="9.7055832"><ele>44.0</ele><time>2026-04-19T14:37:36.339Z</time></trkpt><trkpt lat="45.0937423" lon="9.7053743"><ele>44.0</ele><time>2026-04-19T14:37:37.353Z</time></trkpt><trkpt lat="45.0939342" lon="9.7051671"><ele>44.0</ele><time>2026-04-19T14:37:38.343Z</time></trkpt><trkpt lat="45.0941329" lon="9.7049568"><ele>44.0</ele><time>2026-04-19T14:37:39.349Z</time></trkpt><trkpt lat="45.094324" lon="9.7047435"><ele>44.0</ele><time>2026-04-19T14:37:40.349Z</time></trkpt><trkpt lat="45.0945226" lon="9.7045227"><ele>44.0</ele><time>2026-04-19T14:37:41.35Z</time></trkpt><trkpt lat="45.0947175" lon="9.7043151"><ele>44.5</ele><time>2026-04-19T14:37:42.322Z</time></trkpt><trkpt lat="45.0949118" lon="9.7041014"><ele>45.0</ele><time>2026-04-19T14:37:43.348Z</time></trkpt><trkpt lat="45.0951135" lon="9.7038856"><ele>45.0</ele><time>2026-04-19T14:37:44.335Z</time></trkpt><trkpt lat="45.0953136" lon="9.7036701"><ele>45.0</ele><time>2026-04-19T14:37:45.345Z</time></trkpt><trkpt lat="45.0955166" lon="9.7034581"><ele>44.5</ele><time>2026-04-19T14:37:46.36Z</time></trkpt><trkpt lat="45.0957182" lon="9.7032427"><ele>44.0</ele><time>2026-04-19T14:37:47.345Z</time></trkpt><trkpt lat="45.0959239" lon="9.7030275"><ele>44.0</ele><time>2026-04-19T14:37:48.365Z</time></trkpt><trkpt lat="45.0961328" lon="9.7028026"><ele>44.0</ele><time>2026-04-19T14:37:49.353Z</time></trkpt><trkpt lat="45.0963377" lon="9.7025877"><ele>44.0</ele><time>2026-04-19T14:37:50.356Z</time></trkpt><trkpt lat="45.0965404" lon="9.7023738"><ele>44.0</ele><time>2026-04-19T14:37:51.348Z</time></trkpt><trkpt lat="45.0967432" lon="9.7021545"><ele>44.5</ele><time>2026-04-19T14:37:52.354Z</time></trkpt><trkpt lat="45.0969459" lon="9.7019392"><ele>45.0</ele><time>2026-04-19T14:37:53.319Z</time></trkpt><trkpt lat="45.0971499" lon="9.7017213"><ele>45.0</ele><time>2026-04-19T14:37:54.351Z</time></trkpt><trkpt lat="45.0973564" lon="9.7015028"><ele>45.0</ele><time>2026-04-19T14:37:55.375Z</time></trkpt><trkpt lat="45.0975605" lon="9.7012855"><ele>44.0</ele><time>2026-04-19T14:37:56.353Z</time></trkpt><trkpt lat="45.0977582" lon="9.7010699"><ele>43.0</ele><time>2026-04-19T14:37:57.355Z</time></trkpt><trkpt lat="45.0979563" lon="9.7008489"><ele>43.0</ele><time>2026-04-19T14:37:58.356Z</time></trkpt><trkpt lat="45.0981552" lon="9.7006281"><ele>43.0</ele><time>2026-04-19T14:37:59.361Z</time></trkpt><trkpt lat="45.098358" lon="9.7004043"><ele>43.0</ele><time>2026-04-19T14:38:00.351Z</time></trkpt><trkpt lat="45.0985532" lon="9.7001768"><ele>43.0</ele><time>2026-04-19T14:38:01.354Z</time></trkpt><trkpt lat="45.098758" lon="9.6999502"><ele>43.0</ele><time>2026-04-19T14:38:02.346Z</time></trkpt><trkpt lat="45.0989677" lon="9.6997179"><ele>43.0</ele><time>2026-04-19T14:38:03.336Z</time></trkpt><trkpt lat="45.099176" lon="9.6994896"><ele>44.0</ele><time>2026-04-19T14:38:04.332Z</time></trkpt><trkpt lat="45.0993875" lon="9.6992625"><ele>45.0</ele><time>2026-04-19T14:38:05.35Z</time></trkpt><trkpt lat="45.0996012" lon="9.6990299"><ele>45.0</ele><time>2026-04-19T14:38:06.358Z</time></trkpt><trkpt lat="45.0998115" lon="9.6988017"><ele>45.0</ele><time>2026-04-19T14:38:07.354Z</time></trkpt><trkpt lat="45.1000232" lon="9.6985717"><ele>46.5</ele><time>2026-04-19T14:38:08.353Z</time></trkpt><trkpt lat="45.1002303" lon="9.6983414"><ele>48.0</ele><time>2026-04-19T14:38:09.356Z</time></trkpt><trkpt lat="45.1004428" lon="9.6981117"><ele>48.0</ele><time>2026-04-19T14:38:10.344Z</time></trkpt><trkpt lat="45.1006502" lon="9.6978885"><ele>48.0</ele><time>2026-04-19T14:38:11.357Z</time></trkpt><trkpt lat="45.1008579" lon="9.6976636"><ele>47.0</ele><time>2026-04-19T14:38:12.333Z</time></trkpt><trkpt lat="45.1010727" lon="9.697441"><ele>46.0</ele><time>2026-04-19T14:38:13.344Z</time></trkpt><trkpt lat="45.1012853" lon="9.6972171"><ele>46.0</ele><time>2026-04-19T14:38:14.349Z</time></trkpt><trkpt lat="45.1015005" lon="9.6969832"><ele>46.0</ele><time>2026-04-19T14:38:15.332Z</time></trkpt><trkpt lat="45.1017159" lon="9.696758"><ele>45.0</ele><time>2026-04-19T14:38:16.353Z</time></trkpt><trkpt lat="45.101933" lon="9.6965296"><ele>44.0</ele><time>2026-04-19T14:38:17.362Z</time></trkpt><trkpt lat="45.1021545" lon="9.696298"><ele>44.5</ele><time>2026-04-19T14:38:18.327Z</time></trkpt><trkpt lat="45.1023847" lon="9.6960766"><ele>45.0</ele><time>2026-04-19T14:38:19.351Z</time></trkpt><trkpt lat="45.1026032" lon="9.6958436"><ele>45.0</ele><time>2026-04-19T14:38:20.35Z</time></trkpt><trkpt lat="45.1028242" lon="9.6956205"><ele>45.0</ele><time>2026-04-19T14:38:21.342Z</time></trkpt><trkpt lat="45.1030437" lon="9.6953806"><ele>45.0</ele><time>2026-04-19T14:38:22.351Z</time></trkpt><trkpt lat="45.103265" lon="9.6951504"><ele>45.0</ele><time>2026-04-19T14:38:23.32Z</time></trkpt><trkpt lat="45.1034891" lon="9.6949097"><ele>45.0</ele><time>2026-04-19T14:38:24.357Z</time></trkpt><trkpt lat="45.1037066" lon="9.6946716"><ele>45.0</ele><time>2026-04-19T14:38:25.353Z</time></trkpt><trkpt lat="45.1039261" lon="9.6944352"><ele>45.5</ele><time>2026-04-19T14:38:26.342Z</time></trkpt><trkpt lat="45.1041415" lon="9.6942033"><ele>46.0</ele><time>2026-04-19T14:38:27.358Z</time></trkpt><trkpt lat="45.1043583" lon="9.6939718"><ele>46.0</ele><time>2026-04-19T14:38:28.349Z</time></trkpt><trkpt lat="45.1045774" lon="9.6937366"><ele>46.0</ele><time>2026-04-19T14:38:29.374Z</time></trkpt><trkpt lat="45.1047858" lon="9.6935006"><ele>45.5</ele><time>2026-04-19T14:38:30.354Z</time></trkpt><trkpt lat="45.1050027" lon="9.6932695"><ele>45.0</ele><time>2026-04-19T14:38:31.349Z</time></trkpt><trkpt lat="45.1052144" lon="9.6930421"><ele>45.0</ele><time>2026-04-19T14:38:32.349Z</time></trkpt><trkpt lat="45.105418" lon="9.6928218"><ele>45.0</ele><time>2026-04-19T14:38:33.351Z</time></trkpt><trkpt lat="45.1056265" lon="9.6925984"><ele>46.5</ele><time>2026-04-19T14:38:34.34Z</time></trkpt><trkpt lat="45.1058322" lon="9.6923823"><ele>48.0</ele><time>2026-04-19T14:38:35.344Z</time></trkpt><trkpt lat="45.1060359" lon="9.6921667"><ele>48.0</ele><time>2026-04-19T14:38:36.35Z</time></trkpt><trkpt lat="45.1062362" lon="9.6919497"><ele>48.0</ele><time>2026-04-19T14:38:37.362Z</time></trkpt><trkpt lat="45.1064373" lon="9.6917221"><ele>48.0</ele><time>2026-04-19T14:38:38.335Z</time></trkpt><trkpt lat="45.1066406" lon="9.6914933"><ele>48.0</ele><time>2026-04-19T14:38:39.356Z</time></trkpt><trkpt lat="45.1068403" lon="9.6912616"><ele>47.0</ele><time>2026-04-19T14:38:40.339Z</time></trkpt><trkpt lat="45.1070367" lon="9.6910349"><ele>46.0</ele><time>2026-04-19T14:38:41.338Z</time></trkpt><trkpt lat="45.1072353" lon="9.6908087"><ele>46.0</ele><time>2026-04-19T14:38:42.356Z</time></trkpt><trkpt lat="45.1074325" lon="9.6905886"><ele>46.0</ele><time>2026-04-19T14:38:43.345Z</time></trkpt><trkpt lat="45.107636" lon="9.6903719"><ele>46.5</ele><time>2026-04-19T14:38:44.343Z</time></trkpt><trkpt lat="45.1078394" lon="9.6901516"><ele>47.0</ele><time>2026-04-19T14:38:45.335Z</time></trkpt><trkpt lat="45.1080473" lon="9.6899403"><ele>48.0</ele><time>2026-04-19T14:38:46.347Z</time></trkpt><trkpt lat="45.108248" lon="9.6897206"><ele>49.0</ele><time>2026-04-19T14:38:47.339Z</time></trkpt><trkpt lat="45.1084475" lon="9.6894932"><ele>48.5</ele><time>2026-04-19T14:38:48.364Z</time></trkpt><trkpt lat="45.1086497" lon="9.6892709"><ele>48.0</ele><time>2026-04-19T14:38:49.347Z</time></trkpt><trkpt lat="45.1088518" lon="9.6890507"><ele>48.0</ele><time>2026-04-19T14:38:50.354Z</time></trkpt><trkpt lat="45.1090561" lon="9.6888207"><ele>48.0</ele><time>2026-04-19T14:38:51.351Z</time></trkpt><trkpt lat="45.1092594" lon="9.6885836"><ele>47.0</ele><time>2026-04-19T14:38:52.344Z</time></trkpt><trkpt lat="45.1094574" lon="9.6883453"><ele>46.0</ele><time>2026-04-19T14:38:53.348Z</time></trkpt><trkpt lat="45.1096505" lon="9.688115"><ele>46.0</ele><time>2026-04-19T14:38:54.351Z</time></trkpt><trkpt lat="45.10984" lon="9.6878853"><ele>46.0</ele><time>2026-04-19T14:38:55.346Z</time></trkpt><trkpt lat="45.1100311" lon="9.6876518"><ele>46.5</ele><time>2026-04-19T14:38:56.352Z</time></trkpt><trkpt lat="45.1102295" lon="9.6874141"><ele>47.0</ele><time>2026-04-19T14:38:57.334Z</time></trkpt><trkpt lat="45.1104252" lon="9.6871818"><ele>47.0</ele><time>2026-04-19T14:38:58.348Z</time></trkpt><trkpt lat="45.1106258" lon="9.6869454"><ele>47.0</ele><time>2026-04-19T14:38:59.35Z</time></trkpt><trkpt lat="45.1108276" lon="9.6867028"><ele>47.0</ele><time>2026-04-19T14:39:00.349Z</time></trkpt><trkpt lat="45.1110238" lon="9.6864553"><ele>47.0</ele><time>2026-04-19T14:39:01.341Z</time></trkpt><trkpt lat="45.1112148" lon="9.686209"><ele>47.5</ele><time>2026-04-19T14:39:02.364Z</time></trkpt><trkpt lat="45.1114115" lon="9.6859583"><ele>48.0</ele><time>2026-04-19T14:39:03.345Z</time></trkpt><trkpt lat="45.1116088" lon="9.6856996"><ele>47.0</ele><time>2026-04-19T14:39:04.357Z</time></trkpt><trkpt lat="45.1118039" lon="9.6854382"><ele>46.0</ele><time>2026-04-19T14:39:05.35Z</time></trkpt><trkpt lat="45.1119939" lon="9.6851729"><ele>46.0</ele><time>2026-04-19T14:39:06.358Z</time></trkpt><trkpt lat="45.1121743" lon="9.6849167"><ele>46.0</ele><time>2026-04-19T14:39:07.321Z</time></trkpt><trkpt lat="45.1123517" lon="9.6846475"><ele>45.5</ele><time>2026-04-19T14:39:08.348Z</time></trkpt><trkpt lat="45.1125351" lon="9.6843809"><ele>45.0</ele><time>2026-04-19T14:39:09.345Z</time></trkpt><trkpt lat="45.1127179" lon="9.6841152"><ele>45.0</ele><time>2026-04-19T14:39:10.352Z</time></trkpt><trkpt lat="45.1129033" lon="9.683851"><ele>45.0</ele><time>2026-04-19T14:39:11.354Z</time></trkpt><trkpt lat="45.113093" lon="9.6835832"><ele>44.0</ele><time>2026-04-19T14:39:12.341Z</time></trkpt><trkpt lat="45.1132728" lon="9.6833179"><ele>43.0</ele><time>2026-04-19T14:39:13.32Z</time></trkpt><trkpt lat="45.1134538" lon="9.6830535"><ele>43.0</ele><time>2026-04-19T14:39:14.346Z</time></trkpt><trkpt lat="45.1136329" lon="9.6827958"><ele>43.0</ele><time>2026-04-19T14:39:15.339Z</time></trkpt><trkpt lat="45.1138155" lon="9.6825409"><ele>43.0</ele><time>2026-04-19T14:39:16.338Z</time></trkpt><trkpt lat="45.1139904" lon="9.6822896"><ele>43.0</ele><time>2026-04-19T14:39:17.353Z</time></trkpt><trkpt lat="45.1141726" lon="9.6820347"><ele>43.0</ele><time>2026-04-19T14:39:18.341Z</time></trkpt><trkpt lat="45.1143447" lon="9.6817806"><ele>43.0</ele><time>2026-04-19T14:39:19.343Z</time></trkpt><trkpt lat="45.1145168" lon="9.6815273"><ele>43.0</ele><time>2026-04-19T14:39:20.348Z</time></trkpt><trkpt lat="45.1146946" lon="9.6812712"><ele>43.0</ele><time>2026-04-19T14:39:21.34Z</time></trkpt><trkpt lat="45.1148716" lon="9.6810121"><ele>44.0</ele><time>2026-04-19T14:39:22.351Z</time></trkpt><trkpt lat="45.1150516" lon="9.6807526"><ele>45.0</ele><time>2026-04-19T14:39:23.334Z</time></trkpt><trkpt lat="45.1152279" lon="9.6804985"><ele>45.0</ele><time>2026-04-19T14:39:24.349Z</time></trkpt><trkpt lat="45.1154056" lon="9.680241"><ele>45.0</ele><time>2026-04-19T14:39:25.359Z</time></trkpt><trkpt lat="45.1155843" lon="9.6799906"><ele>44.5</ele><time>2026-04-19T14:39:26.346Z</time></trkpt><trkpt lat="45.1157592" lon="9.6797395"><ele>44.0</ele><time>2026-04-19T14:39:27.352Z</time></trkpt><trkpt lat="45.1159333" lon="9.6794864"><ele>44.5</ele><time>2026-04-19T14:39:28.331Z</time></trkpt><trkpt lat="45.1161074" lon="9.6792371"><ele>45.0</ele><time>2026-04-19T14:39:29.345Z</time></trkpt><trkpt lat="45.1162843" lon="9.6789846"><ele>45.0</ele><time>2026-04-19T14:39:30.352Z</time></trkpt><trkpt lat="45.116464" lon="9.6787324"><ele>45.0</ele><time>2026-04-19T14:39:31.346Z</time></trkpt><trkpt lat="45.1166407" lon="9.6784816"><ele>44.5</ele><time>2026-04-19T14:39:32.361Z</time></trkpt><trkpt lat="45.1168177" lon="9.6782235"><ele>44.0</ele><time>2026-04-19T14:39:33.343Z</time></trkpt><trkpt lat="45.116992" lon="9.6779723"><ele>44.0</ele><time>2026-04-19T14:39:34.354Z</time></trkpt><trkpt lat="45.1171679" lon="9.6777205"><ele>44.0</ele><time>2026-04-19T14:39:35.344Z</time></trkpt><trkpt lat="45.1173458" lon="9.6774672"><ele>44.0</ele><time>2026-04-19T14:39:36.339Z</time></trkpt><trkpt lat="45.1175204" lon="9.6772116"><ele>44.0</ele><time>2026-04-19T14:39:37.358Z</time></trkpt><trkpt lat="45.1176929" lon="9.6769578"><ele>45.5</ele><time>2026-04-19T14:39:38.343Z</time></trkpt><trkpt lat="45.1178652" lon="9.6766998"><ele>47.0</ele><time>2026-04-19T14:39:39.349Z</time></trkpt><trkpt lat="45.1180442" lon="9.6764479"><ele>47.0</ele><time>2026-04-19T14:39:40.347Z</time></trkpt><trkpt lat="45.1182263" lon="9.6761884"><ele>47.0</ele><time>2026-04-19T14:39:41.359Z</time></trkpt><trkpt lat="45.1184044" lon="9.6759352"><ele>46.0</ele><time>2026-04-19T14:39:42.347Z</time></trkpt><trkpt lat="45.1185847" lon="9.6756677"><ele>45.0</ele><time>2026-04-19T14:39:43.356Z</time></trkpt><trkpt lat="45.1187633" lon="9.675412"><ele>45.0</ele><time>2026-04-19T14:39:44.357Z</time></trkpt><trkpt lat="45.1189404" lon="9.675153"><ele>45.0</ele><time>2026-04-19T14:39:45.341Z</time></trkpt><trkpt lat="45.1191185" lon="9.6748988"><ele>44.5</ele><time>2026-04-19T14:39:46.358Z</time></trkpt><trkpt lat="45.1193015" lon="9.6746422"><ele>44.0</ele><time>2026-04-19T14:39:47.344Z</time></trkpt><trkpt lat="45.1194834" lon="9.6743774"><ele>44.0</ele><time>2026-04-19T14:39:48.351Z</time></trkpt><trkpt lat="45.1196714" lon="9.674118"><ele>44.0</ele><time>2026-04-19T14:39:49.341Z</time></trkpt><trkpt lat="45.1198518" lon="9.6738599"><ele>45.5</ele><time>2026-04-19T14:39:50.339Z</time></trkpt><trkpt lat="45.1200321" lon="9.6736032"><ele>47.0</ele><time>2026-04-19T14:39:51.34Z</time></trkpt><trkpt lat="45.120216" lon="9.6733426"><ele>47.0</ele><time>2026-04-19T14:39:52.353Z</time></trkpt><trkpt lat="45.1203942" lon="9.6730813"><ele>47.0</ele><time>2026-04-19T14:39:53.349Z</time></trkpt><trkpt lat="45.1205759" lon="9.6728292"><ele>46.5</ele><time>2026-04-19T14:39:54.352Z</time></trkpt><trkpt lat="45.1207553" lon="9.672572"><ele>46.0</ele><time>2026-04-19T14:39:55.347Z</time></trkpt><trkpt lat="45.1209411" lon="9.6723122"><ele>46.0</ele><time>2026-04-19T14:39:56.354Z</time></trkpt><trkpt lat="45.1211292" lon="9.672043"><ele>46.0</ele><time>2026-04-19T14:39:57.355Z</time></trkpt><trkpt lat="45.1213131" lon="9.6717782"><ele>46.0</ele><time>2026-04-19T14:39:58.35Z</time></trkpt><trkpt lat="45.121499" lon="9.6715144"><ele>46.0</ele><time>2026-04-19T14:39:59.334Z</time></trkpt><trkpt lat="45.1216751" lon="9.6712419"><ele>45.5</ele><time>2026-04-19T14:40:00.34Z</time></trkpt><trkpt lat="45.1218592" lon="9.6709685"><ele>45.0</ele><time>2026-04-19T14:40:01.346Z</time></trkpt><trkpt lat="45.1220435" lon="9.6706963"><ele>45.0</ele><time>2026-04-19T14:40:02.316Z</time></trkpt><trkpt lat="45.1222282" lon="9.6704201"><ele>45.0</ele><time>2026-04-19T14:40:03.345Z</time></trkpt><trkpt lat="45.1224192" lon="9.670152"><ele>44.5</ele><time>2026-04-19T14:40:04.349Z</time></trkpt><trkpt lat="45.1226121" lon="9.6698915"><ele>44.0</ele><time>2026-04-19T14:40:05.344Z</time></trkpt><trkpt lat="45.1228068" lon="9.6696225"><ele>44.0</ele><time>2026-04-19T14:40:06.352Z</time></trkpt><trkpt lat="45.1229989" lon="9.669358"><ele>44.0</ele><time>2026-04-19T14:40:07.348Z</time></trkpt><trkpt lat="45.1231957" lon="9.6690897"><ele>44.5</ele><time>2026-04-19T14:40:08.359Z</time></trkpt><trkpt lat="45.1233903" lon="9.6688255"><ele>45.0</ele><time>2026-04-19T14:40:09.358Z</time></trkpt><trkpt lat="45.1235834" lon="9.6685538"><ele>45.0</ele><time>2026-04-19T14:40:10.335Z</time></trkpt><trkpt lat="45.1237683" lon="9.6682865"><ele>45.0</ele><time>2026-04-19T14:40:11.351Z</time></trkpt><trkpt lat="45.1239617" lon="9.6680121"><ele>44.5</ele><time>2026-04-19T14:40:12.341Z</time></trkpt><trkpt lat="45.1241472" lon="9.6677332"><ele>44.0</ele><time>2026-04-19T14:40:13.348Z</time></trkpt><trkpt lat="45.12434" lon="9.6674539"><ele>44.0</ele><time>2026-04-19T14:40:14.349Z</time></trkpt><trkpt lat="45.1245302" lon="9.6671788"><ele>44.0</ele><time>2026-04-19T14:40:15.35Z</time></trkpt><trkpt lat="45.1247146" lon="9.6669038"><ele>45.0</ele><time>2026-04-19T14:40:16.343Z</time></trkpt><trkpt lat="45.1249038" lon="9.6666199"><ele>46.0</ele><time>2026-04-19T14:40:17.345Z</time></trkpt><trkpt lat="45.1250927" lon="9.6663495"><ele>46.5</ele><time>2026-04-19T14:40:18.35Z</time></trkpt><trkpt lat="45.1252788" lon="9.6660822"><ele>47.0</ele><time>2026-04-19T14:40:19.333Z</time></trkpt><trkpt lat="45.1254649" lon="9.6658054"><ele>47.0</ele><time>2026-04-19T14:40:20.351Z</time></trkpt><trkpt lat="45.1256508" lon="9.6655408"><ele>47.0</ele><time>2026-04-19T14:40:21.341Z</time></trkpt><trkpt lat="45.125839" lon="9.6652663"><ele>47.0</ele><time>2026-04-19T14:40:22.344Z</time></trkpt><trkpt lat="45.1260189" lon="9.6649866"><ele>47.0</ele><time>2026-04-19T14:40:23.348Z</time></trkpt><trkpt lat="45.1262028" lon="9.6647101"><ele>47.0</ele><time>2026-04-19T14:40:24.338Z</time></trkpt><trkpt lat="45.1263771" lon="9.6644345"><ele>47.0</ele><time>2026-04-19T14:40:25.32Z</time></trkpt><trkpt lat="45.1265515" lon="9.6641594"><ele>47.0</ele><time>2026-04-19T14:40:26.349Z</time></trkpt><trkpt lat="45.1267176" lon="9.6638775"><ele>47.0</ele><time>2026-04-19T14:40:27.352Z</time></trkpt><trkpt lat="45.1268894" lon="9.6635949"><ele>47.0</ele><time>2026-04-19T14:40:28.349Z</time></trkpt><trkpt lat="45.1270634" lon="9.663311"><ele>47.0</ele><time>2026-04-19T14:40:29.349Z</time></trkpt><trkpt lat="45.1272385" lon="9.6630285"><ele>47.5</ele><time>2026-04-19T14:40:30.35Z</time></trkpt><trkpt lat="45.1274119" lon="9.6627387"><ele>48.0</ele><time>2026-04-19T14:40:31.342Z</time></trkpt><trkpt lat="45.1275903" lon="9.662454"><ele>48.0</ele><time>2026-04-19T14:40:32.345Z</time></trkpt><trkpt lat="45.1277586" lon="9.6621741"><ele>48.0</ele><time>2026-04-19T14:40:33.348Z</time></trkpt><trkpt lat="45.127929" lon="9.6618752"><ele>47.5</ele><time>2026-04-19T14:40:34.347Z</time></trkpt><trkpt lat="45.1280994" lon="9.6615829"><ele>47.0</ele><time>2026-04-19T14:40:35.344Z</time></trkpt><trkpt lat="45.128267" lon="9.6612886"><ele>47.5</ele><time>2026-04-19T14:40:36.35Z</time></trkpt><trkpt lat="45.1284312" lon="9.6609882"><ele>48.0</ele><time>2026-04-19T14:40:37.34Z</time></trkpt><trkpt lat="45.128596" lon="9.66068"><ele>48.0</ele><time>2026-04-19T14:40:38.349Z</time></trkpt><trkpt lat="45.1287592" lon="9.6603769"><ele>48.0</ele><time>2026-04-19T14:40:39.347Z</time></trkpt><trkpt lat="45.1289239" lon="9.6600756"><ele>46.5</ele><time>2026-04-19T14:40:40.345Z</time></trkpt><trkpt lat="45.1290853" lon="9.6597718"><ele>45.0</ele><time>2026-04-19T14:40:41.358Z</time></trkpt><trkpt lat="45.1292458" lon="9.6594697"><ele>46.0</ele><time>2026-04-19T14:40:42.343Z</time></trkpt><trkpt lat="45.1294078" lon="9.6591686"><ele>47.0</ele><time>2026-04-19T14:40:43.355Z</time></trkpt><trkpt lat="45.1295683" lon="9.6588673"><ele>47.0</ele><time>2026-04-19T14:40:44.348Z</time></trkpt><trkpt lat="45.129729" lon="9.6585573"><ele>47.0</ele><time>2026-04-19T14:40:45.338Z</time></trkpt><trkpt lat="45.1298783" lon="9.6582535"><ele>48.5</ele><time>2026-04-19T14:40:46.356Z</time></trkpt><trkpt lat="45.1300381" lon="9.6579535"><ele>50.0</ele><time>2026-04-19T14:40:47.341Z</time></trkpt><trkpt lat="45.1301931" lon="9.6576591"><ele>50.0</ele><time>2026-04-19T14:40:48.35Z</time></trkpt><trkpt lat="45.1303518" lon="9.6573558"><ele>50.0</ele><time>2026-04-19T14:40:49.351Z</time></trkpt><trkpt lat="45.130515" lon="9.6570499"><ele>50.0</ele><time>2026-04-19T14:40:50.355Z</time></trkpt><trkpt lat="45.1306705" lon="9.6567419"><ele>50.0</ele><time>2026-04-19T14:40:51.342Z</time></trkpt><trkpt lat="45.1308297" lon="9.6564336"><ele>48.5</ele><time>2026-04-19T14:40:52.345Z</time></trkpt><trkpt lat="45.1309842" lon="9.6561317"><ele>47.0</ele><time>2026-04-19T14:40:53.35Z</time></trkpt><trkpt lat="45.1311404" lon="9.655828"><ele>47.0</ele><time>2026-04-19T14:40:54.35Z</time></trkpt><trkpt lat="45.1312975" lon="9.6555111"><ele>47.0</ele><time>2026-04-19T14:40:55.354Z</time></trkpt><trkpt lat="45.1314542" lon="9.6552017"><ele>47.0</ele><time>2026-04-19T14:40:56.34Z</time></trkpt><trkpt lat="45.1316136" lon="9.6548875"><ele>47.0</ele><time>2026-04-19T14:40:57.343Z</time></trkpt><trkpt lat="45.1317685" lon="9.6545761"><ele>47.5</ele><time>2026-04-19T14:40:58.353Z</time></trkpt><trkpt lat="45.1319223" lon="9.654267"><ele>48.0</ele><time>2026-04-19T14:40:59.359Z</time></trkpt><trkpt lat="45.1320791" lon="9.6539638"><ele>48.0</ele><time>2026-04-19T14:41:00.353Z</time></trkpt><trkpt lat="45.1322388" lon="9.6536649"><ele>48.0</ele><time>2026-04-19T14:41:01.365Z</time></trkpt><trkpt lat="45.1324005" lon="9.6533592"><ele>48.0</ele><time>2026-04-19T14:41:02.35Z</time></trkpt><trkpt lat="45.132559" lon="9.6530518"><ele>48.0</ele><time>2026-04-19T14:41:03.336Z</time></trkpt><trkpt lat="45.1327113" lon="9.6527378"><ele>48.0</ele><time>2026-04-19T14:41:04.354Z</time></trkpt><trkpt lat="45.1328679" lon="9.6524264"><ele>48.0</ele><time>2026-04-19T14:41:05.345Z</time></trkpt><trkpt lat="45.1330265" lon="9.6521151"><ele>47.5</ele><time>2026-04-19T14:41:06.349Z</time></trkpt><trkpt lat="45.1331863" lon="9.6518121"><ele>47.0</ele><time>2026-04-19T14:41:07.344Z</time></trkpt><trkpt lat="45.1333441" lon="9.6515074"><ele>47.0</ele><time>2026-04-19T14:41:08.347Z</time></trkpt><trkpt lat="45.1335024" lon="9.6511933"><ele>47.0</ele><time>2026-04-19T14:41:09.344Z</time></trkpt><trkpt lat="45.1336591" lon="9.6508864"><ele>47.0</ele><time>2026-04-19T14:41:10.351Z</time></trkpt><trkpt lat="45.1338196" lon="9.6505754"><ele>47.0</ele><time>2026-04-19T14:41:11.352Z</time></trkpt><trkpt lat="45.1339817" lon="9.6502655"><ele>47.0</ele><time>2026-04-19T14:41:12.34Z</time></trkpt><trkpt lat="45.1341381" lon="9.6499589"><ele>47.0</ele><time>2026-04-19T14:41:13.337Z</time></trkpt><trkpt lat="45.134292" lon="9.6496531"><ele>46.5</ele><time>2026-04-19T14:41:14.352Z</time></trkpt><trkpt lat="45.1344428" lon="9.6493421"><ele>46.0</ele><time>2026-04-19T14:41:15.362Z</time></trkpt><trkpt lat="45.1345972" lon="9.6490409"><ele>46.0</ele><time>2026-04-19T14:41:16.359Z</time></trkpt><trkpt lat="45.1347554" lon="9.6487335"><ele>46.0</ele><time>2026-04-19T14:41:17.35Z</time></trkpt><trkpt lat="45.1349122" lon="9.6484257"><ele>46.5</ele><time>2026-04-19T14:41:18.342Z</time></trkpt><trkpt lat="45.1350634" lon="9.6481222"><ele>47.0</ele><time>2026-04-19T14:41:19.359Z</time></trkpt><trkpt lat="45.1352231" lon="9.6478161"><ele>47.5</ele><time>2026-04-19T14:41:20.333Z</time></trkpt><trkpt lat="45.1353765" lon="9.6475112"><ele>48.0</ele><time>2026-04-19T14:41:21.343Z</time></trkpt><trkpt lat="45.1355331" lon="9.6472209"><ele>48.0</ele><time>2026-04-19T14:41:22.357Z</time></trkpt><trkpt lat="45.1356875" lon="9.6469213"><ele>48.0</ele><time>2026-04-19T14:41:23.34Z</time></trkpt><trkpt lat="45.1358381" lon="9.6466264"><ele>47.0</ele><time>2026-04-19T14:41:24.351Z</time></trkpt><trkpt lat="45.1359955" lon="9.6463279"><ele>46.0</ele><time>2026-04-19T14:41:25.347Z</time></trkpt><trkpt lat="45.136151" lon="9.6460257"><ele>46.0</ele><time>2026-04-19T14:41:26.348Z</time></trkpt><trkpt lat="45.1363101" lon="9.6457171"><ele>46.0</ele><time>2026-04-19T14:41:27.35Z</time></trkpt><trkpt lat="45.1364713" lon="9.6454021"><ele>47.0</ele><time>2026-04-19T14:41:28.363Z</time></trkpt><trkpt lat="45.1366319" lon="9.6450933"><ele>48.0</ele><time>2026-04-19T14:41:29.336Z</time></trkpt><trkpt lat="45.1367894" lon="9.6447771"><ele>48.0</ele><time>2026-04-19T14:41:30.351Z</time></trkpt><trkpt lat="45.1369493" lon="9.6444617"><ele>48.0</ele><time>2026-04-19T14:41:31.345Z</time></trkpt><trkpt lat="45.1371033" lon="9.6441503"><ele>48.0</ele><time>2026-04-19T14:41:32.348Z</time></trkpt><trkpt lat="45.1372612" lon="9.6438348"><ele>48.0</ele><time>2026-04-19T14:41:33.333Z</time></trkpt><trkpt lat="45.1374188" lon="9.643528"><ele>48.0</ele><time>2026-04-19T14:41:34.345Z</time></trkpt><trkpt lat="45.1375722" lon="9.6432229"><ele>48.0</ele><time>2026-04-19T14:41:35.354Z</time></trkpt><trkpt lat="45.1377342" lon="9.64291"><ele>49.5</ele><time>2026-04-19T14:41:36.344Z</time></trkpt><trkpt lat="45.1378875" lon="9.6425948"><ele>51.0</ele><time>2026-04-19T14:41:37.339Z</time></trkpt><trkpt lat="45.1380476" lon="9.6422817"><ele>51.0</ele><time>2026-04-19T14:41:38.35Z</time></trkpt><trkpt lat="45.1382062" lon="9.6419693"><ele>51.0</ele><time>2026-04-19T14:41:39.349Z</time></trkpt><trkpt lat="45.1383677" lon="9.6416621"><ele>50.5</ele><time>2026-04-19T14:41:40.35Z</time></trkpt><trkpt lat="45.1385298" lon="9.6413408"><ele>50.0</ele><time>2026-04-19T14:41:41.342Z</time></trkpt><trkpt lat="45.1386928" lon="9.6410211"><ele>49.5</ele><time>2026-04-19T14:41:42.34Z</time></trkpt><trkpt lat="45.1388539" lon="9.6407043"><ele>49.0</ele><time>2026-04-19T14:41:43.338Z</time></trkpt><trkpt lat="45.1390169" lon="9.6403937"><ele>49.0</ele><time>2026-04-19T14:41:44.346Z</time></trkpt><trkpt lat="45.1391775" lon="9.6400797"><ele>49.0</ele><time>2026-04-19T14:41:45.349Z</time></trkpt><trkpt lat="45.1393382" lon="9.6397633"><ele>48.5</ele><time>2026-04-19T14:41:46.337Z</time></trkpt><trkpt lat="45.139491" lon="9.6394575"><ele>48.0</ele><time>2026-04-19T14:41:47.35Z</time></trkpt><trkpt lat="45.1396449" lon="9.6391569"><ele>48.0</ele><time>2026-04-19T14:41:48.353Z</time></trkpt><trkpt lat="45.139799" lon="9.6388556"><ele>48.0</ele><time>2026-04-19T14:41:49.352Z</time></trkpt><trkpt lat="45.1399531" lon="9.6385599"><ele>48.5</ele><time>2026-04-19T14:41:50.334Z</time></trkpt><trkpt lat="45.140106" lon="9.6382644"><ele>49.0</ele><time>2026-04-19T14:41:51.36Z</time></trkpt><trkpt lat="45.140263" lon="9.6379721"><ele>48.5</ele><time>2026-04-19T14:41:52.347Z</time></trkpt><trkpt lat="45.1404099" lon="9.6376789"><ele>48.0</ele><time>2026-04-19T14:41:53.333Z</time></trkpt><trkpt lat="45.1405596" lon="9.6373963"><ele>48.0</ele><time>2026-04-19T14:41:54.351Z</time></trkpt><trkpt lat="45.1407142" lon="9.6371174"><ele>48.0</ele><time>2026-04-19T14:41:55.362Z</time></trkpt><trkpt lat="45.1408812" lon="9.6368364"><ele>48.0</ele><time>2026-04-19T14:41:56.357Z</time></trkpt><trkpt lat="45.1410437" lon="9.6365582"><ele>48.0</ele><time>2026-04-19T14:41:57.335Z</time></trkpt><trkpt lat="45.1412042" lon="9.6362805"><ele>48.5</ele><time>2026-04-19T14:41:58.348Z</time></trkpt><trkpt lat="45.1413706" lon="9.6360159"><ele>49.0</ele><time>2026-04-19T14:41:59.334Z</time></trkpt><trkpt lat="45.1415322" lon="9.6357484"><ele>48.5</ele><time>2026-04-19T14:42:00.354Z</time></trkpt><trkpt lat="45.1416934" lon="9.6354949"><ele>48.0</ele><time>2026-04-19T14:42:01.353Z</time></trkpt><trkpt lat="45.1418627" lon="9.635248"><ele>49.5</ele><time>2026-04-19T14:42:02.335Z</time></trkpt><trkpt lat="45.1420445" lon="9.6350054"><ele>51.0</ele><time>2026-04-19T14:42:03.339Z</time></trkpt><trkpt lat="45.1422189" lon="9.6347628"><ele>52.5</ele><time>2026-04-19T14:42:04.353Z</time></trkpt><trkpt lat="45.1423931" lon="9.634521"><ele>54.0</ele><time>2026-04-19T14:42:05.348Z</time></trkpt><trkpt lat="45.1425614" lon="9.634286"><ele>54.5</ele><time>2026-04-19T14:42:06.332Z</time></trkpt><trkpt lat="45.1427308" lon="9.634048"><ele>55.0</ele><time>2026-04-19T14:42:07.349Z</time></trkpt><trkpt lat="45.1429037" lon="9.6338066"><ele>55.0</ele><time>2026-04-19T14:42:08.354Z</time></trkpt><trkpt lat="45.1430752" lon="9.6335646"><ele>55.0</ele><time>2026-04-19T14:42:09.334Z</time></trkpt><trkpt lat="45.143245" lon="9.6333258"><ele>55.0</ele><time>2026-04-19T14:42:10.341Z</time></trkpt><trkpt lat="45.1434128" lon="9.6330828"><ele>55.0</ele><time>2026-04-19T14:42:11.343Z</time></trkpt><trkpt lat="45.1435833" lon="9.6328327"><ele>56.0</ele><time>2026-04-19T14:42:12.348Z</time></trkpt><trkpt lat="45.1437607" lon="9.6325918"><ele>57.0</ele><time>2026-04-19T14:42:13.35Z</time></trkpt><trkpt lat="45.1439321" lon="9.6323521"><ele>57.5</ele><time>2026-04-19T14:42:14.34Z</time></trkpt><trkpt lat="45.1441104" lon="9.6321075"><ele>58.0</ele><time>2026-04-19T14:42:15.351Z</time></trkpt><trkpt lat="45.1442867" lon="9.6318655"><ele>57.0</ele><time>2026-04-19T14:42:16.365Z</time></trkpt><trkpt lat="45.1444632" lon="9.6316181"><ele>56.0</ele><time>2026-04-19T14:42:17.379Z</time></trkpt><trkpt lat="45.1446441" lon="9.6313781"><ele>55.5</ele><time>2026-04-19T14:42:18.342Z</time></trkpt><trkpt lat="45.1448289" lon="9.6311209"><ele>55.0</ele><time>2026-04-19T14:42:19.355Z</time></trkpt><trkpt lat="45.1450006" lon="9.6308673"><ele>56.0</ele><time>2026-04-19T14:42:20.362Z</time></trkpt><trkpt lat="45.1451793" lon="9.6306131"><ele>57.0</ele><time>2026-04-19T14:42:21.354Z</time></trkpt><trkpt lat="45.1453579" lon="9.6303611"><ele>57.0</ele><time>2026-04-19T14:42:22.352Z</time></trkpt><trkpt lat="45.1455424" lon="9.6301042"><ele>57.0</ele><time>2026-04-19T14:42:23.336Z</time></trkpt><trkpt lat="45.1457183" lon="9.6298546"><ele>57.0</ele><time>2026-04-19T14:42:24.342Z</time></trkpt><trkpt lat="45.1458964" lon="9.629604"><ele>57.0</ele><time>2026-04-19T14:42:25.369Z</time></trkpt><trkpt lat="45.1460732" lon="9.6293576"><ele>57.0</ele><time>2026-04-19T14:42:26.362Z</time></trkpt><trkpt lat="45.1462553" lon="9.6291102"><ele>57.0</ele><time>2026-04-19T14:42:27.363Z</time></trkpt><trkpt lat="45.1464366" lon="9.6288551"><ele>56.5</ele><time>2026-04-19T14:42:28.342Z</time></trkpt><trkpt lat="45.1466242" lon="9.6286017"><ele>56.0</ele><time>2026-04-19T14:42:29.347Z</time></trkpt><trkpt lat="45.1468082" lon="9.6283412"><ele>56.0</ele><time>2026-04-19T14:42:30.354Z</time></trkpt><trkpt lat="45.1469902" lon="9.6280768"><ele>56.0</ele><time>2026-04-19T14:42:31.346Z</time></trkpt><trkpt lat="45.147171" lon="9.6278147"><ele>56.0</ele><time>2026-04-19T14:42:32.368Z</time></trkpt><trkpt lat="45.14735" lon="9.6275526"><ele>56.0</ele><time>2026-04-19T14:42:33.354Z</time></trkpt><trkpt lat="45.147531" lon="9.6272869"><ele>56.5</ele><time>2026-04-19T14:42:34.335Z</time></trkpt><trkpt lat="45.1477241" lon="9.6270214"><ele>57.0</ele><time>2026-04-19T14:42:35.36Z</time></trkpt><trkpt lat="45.1479152" lon="9.6267561"><ele>57.5</ele><time>2026-04-19T14:42:36.362Z</time></trkpt><trkpt lat="45.1481091" lon="9.6264915"><ele>58.0</ele><time>2026-04-19T14:42:37.35Z</time></trkpt><trkpt lat="45.148306" lon="9.6262249"><ele>59.5</ele><time>2026-04-19T14:42:38.35Z</time></trkpt><trkpt lat="45.1484972" lon="9.6259584"><ele>61.0</ele><time>2026-04-19T14:42:39.352Z</time></trkpt><trkpt lat="45.148691" lon="9.625687"><ele>61.0</ele><time>2026-04-19T14:42:40.337Z</time></trkpt><trkpt lat="45.1488994" lon="9.6254147"><ele>61.0</ele><time>2026-04-19T14:42:41.365Z</time></trkpt><trkpt lat="45.1491024" lon="9.6251517"><ele>60.0</ele><time>2026-04-19T14:42:42.34Z</time></trkpt><trkpt lat="45.1493014" lon="9.6248787"><ele>59.0</ele><time>2026-04-19T14:42:43.345Z</time></trkpt><trkpt lat="45.149501" lon="9.6245984"><ele>59.0</ele><time>2026-04-19T14:42:44.345Z</time></trkpt><trkpt lat="45.1496935" lon="9.6243212"><ele>59.0</ele><time>2026-04-19T14:42:45.365Z</time></trkpt><trkpt lat="45.1498877" lon="9.6240503"><ele>59.0</ele><time>2026-04-19T14:42:46.335Z</time></trkpt><trkpt lat="45.1500857" lon="9.6237727"><ele>59.0</ele><time>2026-04-19T14:42:47.341Z</time></trkpt><trkpt lat="45.1502843" lon="9.6235021"><ele>59.0</ele><time>2026-04-19T14:42:48.357Z</time></trkpt><trkpt lat="45.1504887" lon="9.6232279"><ele>59.0</ele><time>2026-04-19T14:42:49.347Z</time></trkpt><trkpt lat="45.1506863" lon="9.6229506"><ele>59.0</ele><time>2026-04-19T14:42:50.348Z</time></trkpt><trkpt lat="45.1508854" lon="9.6226757"><ele>59.0</ele><time>2026-04-19T14:42:51.345Z</time></trkpt><trkpt lat="45.1510895" lon="9.6223942"><ele>59.0</ele><time>2026-04-19T14:42:52.361Z</time></trkpt><trkpt lat="45.1512903" lon="9.6221102"><ele>59.0</ele><time>2026-04-19T14:42:53.352Z</time></trkpt><trkpt lat="45.1514924" lon="9.6218246"><ele>59.0</ele><time>2026-04-19T14:42:54.36Z</time></trkpt><trkpt lat="45.1516983" lon="9.6215434"><ele>59.0</ele><time>2026-04-19T14:42:55.359Z</time></trkpt><trkpt lat="45.1518972" lon="9.6212629"><ele>59.5</ele><time>2026-04-19T14:42:56.353Z</time></trkpt><trkpt lat="45.1520979" lon="9.6209741"><ele>60.0</ele><time>2026-04-19T14:42:57.349Z</time></trkpt><trkpt lat="45.1522934" lon="9.6206944"><ele>60.0</ele><time>2026-04-19T14:42:58.348Z</time></trkpt><trkpt lat="45.1524888" lon="9.6204079"><ele>60.0</ele><time>2026-04-19T14:42:59.359Z</time></trkpt><trkpt lat="45.1526896" lon="9.6201305"><ele>60.0</ele><time>2026-04-19T14:43:00.344Z</time></trkpt><trkpt lat="45.15289" lon="9.6198467"><ele>60.0</ele><time>2026-04-19T14:43:01.349Z</time></trkpt><trkpt lat="45.1530956" lon="9.6195682"><ele>60.0</ele><time>2026-04-19T14:43:02.352Z</time></trkpt><trkpt lat="45.1532965" lon="9.6192857"><ele>60.0</ele><time>2026-04-19T14:43:03.319Z</time></trkpt><trkpt lat="45.1534924" lon="9.6190128"><ele>60.0</ele><time>2026-04-19T14:43:04.345Z</time></trkpt><trkpt lat="45.1536956" lon="9.6187282"><ele>60.0</ele><time>2026-04-19T14:43:05.357Z</time></trkpt><trkpt lat="45.1538937" lon="9.6184563"><ele>60.0</ele><time>2026-04-19T14:43:06.357Z</time></trkpt><trkpt lat="45.1540877" lon="9.6181838"><ele>60.0</ele><time>2026-04-19T14:43:07.336Z</time></trkpt><trkpt lat="45.1542834" lon="9.6179164"><ele>59.5</ele><time>2026-04-19T14:43:08.344Z</time></trkpt><trkpt lat="45.1544774" lon="9.6176397"><ele>59.0</ele><time>2026-04-19T14:43:09.336Z</time></trkpt><trkpt lat="45.1546673" lon="9.6173656"><ele>59.0</ele><time>2026-04-19T14:43:10.313Z</time></trkpt><trkpt lat="45.1548571" lon="9.6170911"><ele>59.0</ele><time>2026-04-19T14:43:11.349Z</time></trkpt><trkpt lat="45.1550483" lon="9.6168184"><ele>59.0</ele><time>2026-04-19T14:43:12.346Z</time></trkpt><trkpt lat="45.1552455" lon="9.6165445"><ele>59.0</ele><time>2026-04-19T14:43:13.335Z</time></trkpt><trkpt lat="45.1554399" lon="9.6162642"><ele>59.0</ele><time>2026-04-19T14:43:14.341Z</time></trkpt><trkpt lat="45.1556382" lon="9.6159876"><ele>59.0</ele><time>2026-04-19T14:43:15.35Z</time></trkpt><trkpt lat="45.1558364" lon="9.6157114"><ele>59.5</ele><time>2026-04-19T14:43:16.346Z</time></trkpt><trkpt lat="45.1560311" lon="9.6154348"><ele>60.0</ele><time>2026-04-19T14:43:17.345Z</time></trkpt><trkpt lat="45.1562299" lon="9.6151571"><ele>60.5</ele><time>2026-04-19T14:43:18.342Z</time></trkpt><trkpt lat="45.1564298" lon="9.6148771"><ele>61.0</ele><time>2026-04-19T14:43:19.34Z</time></trkpt><trkpt lat="45.1566246" lon="9.6146042"><ele>60.0</ele><time>2026-04-19T14:43:20.352Z</time></trkpt><trkpt lat="45.1568174" lon="9.6143319"><ele>59.0</ele><time>2026-04-19T14:43:21.347Z</time></trkpt><trkpt lat="45.157013" lon="9.6140595"><ele>59.0</ele><time>2026-04-19T14:43:22.341Z</time></trkpt><trkpt lat="45.157216" lon="9.6137814"><ele>59.0</ele><time>2026-04-19T14:43:23.34Z</time></trkpt><trkpt lat="45.1574135" lon="9.6135011"><ele>59.5</ele><time>2026-04-19T14:43:24.354Z</time></trkpt><trkpt lat="45.1576116" lon="9.6132221"><ele>60.0</ele><time>2026-04-19T14:43:25.346Z</time></trkpt><trkpt lat="45.1578133" lon="9.6129395"><ele>60.0</ele><time>2026-04-19T14:43:26.345Z</time></trkpt><trkpt lat="45.1580142" lon="9.6126565"><ele>60.0</ele><time>2026-04-19T14:43:27.372Z</time></trkpt><trkpt lat="45.1582145" lon="9.6123768"><ele>60.0</ele><time>2026-04-19T14:43:28.344Z</time></trkpt><trkpt lat="45.1584171" lon="9.6121014"><ele>60.0</ele><time>2026-04-19T14:43:29.35Z</time></trkpt><trkpt lat="45.1586204" lon="9.6118164"><ele>60.0</ele><time>2026-04-19T14:43:30.347Z</time></trkpt><trkpt lat="45.1588238" lon="9.6115349"><ele>60.0</ele><time>2026-04-19T14:43:31.349Z</time></trkpt><trkpt lat="45.1590296" lon="9.6112518"><ele>60.5</ele><time>2026-04-19T14:43:32.357Z</time></trkpt><trkpt lat="45.1592362" lon="9.610966"><ele>61.0</ele><time>2026-04-19T14:43:33.348Z</time></trkpt><trkpt lat="45.1594376" lon="9.6106893"><ele>61.0</ele><time>2026-04-19T14:43:34.347Z</time></trkpt><trkpt lat="45.1596378" lon="9.6104085"><ele>61.0</ele><time>2026-04-19T14:43:35.342Z</time></trkpt><trkpt lat="45.1598391" lon="9.6101277"><ele>60.5</ele><time>2026-04-19T14:43:36.373Z</time></trkpt><trkpt lat="45.1600375" lon="9.6098501"><ele>60.0</ele><time>2026-04-19T14:43:37.362Z</time></trkpt><trkpt lat="45.1602375" lon="9.6095747"><ele>61.0</ele><time>2026-04-19T14:43:38.354Z</time></trkpt><trkpt lat="45.1604307" lon="9.6093098"><ele>62.0</ele><time>2026-04-19T14:43:39.349Z</time></trkpt><trkpt lat="45.1606295" lon="9.6090382"><ele>62.0</ele><time>2026-04-19T14:43:40.343Z</time></trkpt><trkpt lat="45.1608251" lon="9.6087605"><ele>62.0</ele><time>2026-04-19T14:43:41.352Z</time></trkpt><trkpt lat="45.16102" lon="9.6084835"><ele>62.0</ele><time>2026-04-19T14:43:42.35Z</time></trkpt><trkpt lat="45.1612131" lon="9.6082085"><ele>62.0</ele><time>2026-04-19T14:43:43.354Z</time></trkpt><trkpt lat="45.1614054" lon="9.6079394"><ele>62.0</ele><time>2026-04-19T14:43:44.333Z</time></trkpt><trkpt lat="45.1615989" lon="9.6076716"><ele>62.0</ele><time>2026-04-19T14:43:45.341Z</time></trkpt><trkpt lat="45.1617932" lon="9.6074054"><ele>62.0</ele><time>2026-04-19T14:43:46.337Z</time></trkpt><trkpt lat="45.1619891" lon="9.6071339"><ele>62.0</ele><time>2026-04-19T14:43:47.364Z</time></trkpt><trkpt lat="45.1621862" lon="9.6068635"><ele>62.0</ele><time>2026-04-19T14:43:48.352Z</time></trkpt><trkpt lat="45.1623752" lon="9.6065912"><ele>62.0</ele><time>2026-04-19T14:43:49.375Z</time></trkpt><trkpt lat="45.162568" lon="9.6063095"><ele>61.5</ele><time>2026-04-19T14:43:50.35Z</time></trkpt><trkpt lat="45.162757" lon="9.6060375"><ele>61.0</ele><time>2026-04-19T14:43:51.345Z</time></trkpt><trkpt lat="45.1629477" lon="9.6057695"><ele>61.0</ele><time>2026-04-19T14:43:52.347Z</time></trkpt><trkpt lat="45.163145" lon="9.6055054"><ele>61.0</ele><time>2026-04-19T14:43:53.348Z</time></trkpt><trkpt lat="45.1633342" lon="9.6052335"><ele>63.0</ele><time>2026-04-19T14:43:54.368Z</time></trkpt><trkpt lat="45.1635274" lon="9.6049549"><ele>65.0</ele><time>2026-04-19T14:43:55.354Z</time></trkpt><trkpt lat="45.1637202" lon="9.6046913"><ele>65.0</ele><time>2026-04-19T14:43:56.344Z</time></trkpt><trkpt lat="45.1639127" lon="9.6044236"><ele>65.0</ele><time>2026-04-19T14:43:57.36Z</time></trkpt><trkpt lat="45.1641058" lon="9.604151"><ele>63.0</ele><time>2026-04-19T14:43:58.35Z</time></trkpt><trkpt lat="45.1643026" lon="9.6038737"><ele>61.0</ele><time>2026-04-19T14:43:59.341Z</time></trkpt><trkpt lat="45.1645029" lon="9.6036015"><ele>61.0</ele><time>2026-04-19T14:44:00.36Z</time></trkpt><trkpt lat="45.1647014" lon="9.6033355"><ele>61.0</ele><time>2026-04-19T14:44:01.349Z</time></trkpt><trkpt lat="45.1649029" lon="9.6030604"><ele>60.5</ele><time>2026-04-19T14:44:02.351Z</time></trkpt><trkpt lat="45.1651032" lon="9.6027868"><ele>60.0</ele><time>2026-04-19T14:44:03.323Z</time></trkpt><trkpt lat="45.1652963" lon="9.6025098"><ele>60.0</ele><time>2026-04-19T14:44:04.341Z</time></trkpt><trkpt lat="45.1654885" lon="9.602222"><ele>60.0</ele><time>2026-04-19T14:44:05.35Z</time></trkpt><trkpt lat="45.165686" lon="9.6019303"><ele>60.0</ele><time>2026-04-19T14:44:06.348Z</time></trkpt><trkpt lat="45.1658799" lon="9.601643"><ele>60.0</ele><time>2026-04-19T14:44:07.352Z</time></trkpt><trkpt lat="45.1660751" lon="9.6013499"><ele>61.0</ele><time>2026-04-19T14:44:08.351Z</time></trkpt><trkpt lat="45.1662667" lon="9.6010622"><ele>62.0</ele><time>2026-04-19T14:44:09.347Z</time></trkpt><trkpt lat="45.166454" lon="9.6007851"><ele>62.0</ele><time>2026-04-19T14:44:10.348Z</time></trkpt><trkpt lat="45.1666392" lon="9.6005047"><ele>62.0</ele><time>2026-04-19T14:44:11.353Z</time></trkpt><trkpt lat="45.1668311" lon="9.6002187"><ele>62.0</ele><time>2026-04-19T14:44:12.345Z</time></trkpt><trkpt lat="45.167023" lon="9.599927"><ele>62.0</ele><time>2026-04-19T14:44:13.346Z</time></trkpt><trkpt lat="45.1672125" lon="9.5996373"><ele>61.0</ele><time>2026-04-19T14:44:14.355Z</time></trkpt><trkpt lat="45.1674035" lon="9.5993486"><ele>60.0</ele><time>2026-04-19T14:44:15.312Z</time></trkpt><trkpt lat="45.1675951" lon="9.5990576"><ele>60.0</ele><time>2026-04-19T14:44:16.342Z</time></trkpt><trkpt lat="45.1677825" lon="9.5987716"><ele>60.0</ele><time>2026-04-19T14:44:17.351Z</time></trkpt><trkpt lat="45.1679694" lon="9.5984922"><ele>60.0</ele><time>2026-04-19T14:44:18.347Z</time></trkpt><trkpt lat="45.168151" lon="9.5982113"><ele>60.0</ele><time>2026-04-19T14:44:19.342Z</time></trkpt><trkpt lat="45.1683294" lon="9.5979321"><ele>60.5</ele><time>2026-04-19T14:44:20.361Z</time></trkpt><trkpt lat="45.1685032" lon="9.5976489"><ele>61.0</ele><time>2026-04-19T14:44:21.352Z</time></trkpt><trkpt lat="45.1686833" lon="9.5973687"><ele>61.0</ele><time>2026-04-19T14:44:22.357Z</time></trkpt><trkpt lat="45.1688609" lon="9.5970858"><ele>61.0</ele><time>2026-04-19T14:44:23.352Z</time></trkpt><trkpt lat="45.1690418" lon="9.5968131"><ele>62.0</ele><time>2026-04-19T14:44:24.334Z</time></trkpt><trkpt lat="45.1692216" lon="9.5965462"><ele>63.0</ele><time>2026-04-19T14:44:25.347Z</time></trkpt><trkpt lat="45.1693965" lon="9.5962631"><ele>63.0</ele><time>2026-04-19T14:44:26.347Z</time></trkpt><trkpt lat="45.1695728" lon="9.5959778"><ele>63.0</ele><time>2026-04-19T14:44:27.334Z</time></trkpt><trkpt lat="45.1697511" lon="9.5956964"><ele>63.0</ele><time>2026-04-19T14:44:28.337Z</time></trkpt><trkpt lat="45.1699289" lon="9.5954143"><ele>63.0</ele><time>2026-04-19T14:44:29.349Z</time></trkpt><trkpt lat="45.1701096" lon="9.595137"><ele>65.0</ele><time>2026-04-19T14:44:30.361Z</time></trkpt><trkpt lat="45.1702931" lon="9.5948632"><ele>67.0</ele><time>2026-04-19T14:44:31.365Z</time></trkpt><trkpt lat="45.1704661" lon="9.5945922"><ele>66.5</ele><time>2026-04-19T14:44:32.348Z</time></trkpt><trkpt lat="45.1706457" lon="9.594309"><ele>66.0</ele><time>2026-04-19T14:44:33.345Z</time></trkpt><trkpt lat="45.1708188" lon="9.594027"><ele>66.0</ele><time>2026-04-19T14:44:34.339Z</time></trkpt><trkpt lat="45.1710012" lon="9.593745"><ele>66.0</ele><time>2026-04-19T14:44:35.361Z</time></trkpt><trkpt lat="45.1711752" lon="9.5934679"><ele>66.0</ele><time>2026-04-19T14:44:36.353Z</time></trkpt><trkpt lat="45.1713572" lon="9.5931855"><ele>66.0</ele><time>2026-04-19T14:44:37.342Z</time></trkpt><trkpt lat="45.1715398" lon="9.5928995"><ele>66.0</ele><time>2026-04-19T14:44:38.346Z</time></trkpt><trkpt lat="45.1717274" lon="9.5926111"><ele>66.0</ele><time>2026-04-19T14:44:39.353Z</time></trkpt><trkpt lat="45.171912" lon="9.5923274"><ele>66.0</ele><time>2026-04-19T14:44:40.352Z</time></trkpt><trkpt lat="45.1720952" lon="9.5920435"><ele>66.0</ele><time>2026-04-19T14:44:41.351Z</time></trkpt><trkpt lat="45.1722721" lon="9.5917724"><ele>64.5</ele><time>2026-04-19T14:44:42.346Z</time></trkpt><trkpt lat="45.1724531" lon="9.5914848"><ele>63.0</ele><time>2026-04-19T14:44:43.358Z</time></trkpt><trkpt lat="45.1726374" lon="9.5911986"><ele>64.0</ele><time>2026-04-19T14:44:44.36Z</time></trkpt><trkpt lat="45.17282" lon="9.5909049"><ele>65.0</ele><time>2026-04-19T14:44:45.321Z</time></trkpt><trkpt lat="45.1730073" lon="9.5906156"><ele>65.0</ele><time>2026-04-19T14:44:46.348Z</time></trkpt><trkpt lat="45.1731928" lon="9.5903242"><ele>65.0</ele><time>2026-04-19T14:44:47.347Z</time></trkpt><trkpt lat="45.1733839" lon="9.5900304"><ele>65.0</ele><time>2026-04-19T14:44:48.348Z</time></trkpt><trkpt lat="45.1735723" lon="9.5897309"><ele>65.0</ele><time>2026-04-19T14:44:49.341Z</time></trkpt><trkpt lat="45.1737645" lon="9.5894323"><ele>64.5</ele><time>2026-04-19T14:44:50.346Z</time></trkpt><trkpt lat="45.1739563" lon="9.5891382"><ele>64.0</ele><time>2026-04-19T14:44:51.349Z</time></trkpt><trkpt lat="45.1741467" lon="9.5888445"><ele>63.0</ele><time>2026-04-19T14:44:52.341Z</time></trkpt><trkpt lat="45.1743406" lon="9.5885477"><ele>62.0</ele><time>2026-04-19T14:44:53.346Z</time></trkpt><trkpt lat="45.1745249" lon="9.5882523"><ele>62.0</ele><time>2026-04-19T14:44:54.348Z</time></trkpt><trkpt lat="45.1747144" lon="9.5879605"><ele>62.0</ele><time>2026-04-19T14:44:55.348Z</time></trkpt><trkpt lat="45.1749012" lon="9.587666"><ele>62.5</ele><time>2026-04-19T14:44:56.356Z</time></trkpt><trkpt lat="45.1750874" lon="9.5873783"><ele>63.0</ele><time>2026-04-19T14:44:57.352Z</time></trkpt><trkpt lat="45.1752753" lon="9.5870916"><ele>63.5</ele><time>2026-04-19T14:44:58.345Z</time></trkpt><trkpt lat="45.1754568" lon="9.5867969"><ele>64.0</ele><time>2026-04-19T14:44:59.309Z</time></trkpt><trkpt lat="45.175643" lon="9.5865054"><ele>64.0</ele><time>2026-04-19T14:45:00.358Z</time></trkpt><trkpt lat="45.1758273" lon="9.5862175"><ele>64.0</ele><time>2026-04-19T14:45:01.344Z</time></trkpt><trkpt lat="45.1760126" lon="9.5859341"><ele>64.0</ele><time>2026-04-19T14:45:02.36Z</time></trkpt><trkpt lat="45.1761953" lon="9.5856444"><ele>64.0</ele><time>2026-04-19T14:45:03.35Z</time></trkpt><trkpt lat="45.1763824" lon="9.5853615"><ele>63.0</ele><time>2026-04-19T14:45:04.347Z</time></trkpt><trkpt lat="45.1765694" lon="9.5850649"><ele>62.0</ele><time>2026-04-19T14:45:05.34Z</time></trkpt><trkpt lat="45.176748" lon="9.5847749"><ele>62.5</ele><time>2026-04-19T14:45:06.341Z</time></trkpt><trkpt lat="45.1769293" lon="9.5844879"><ele>63.0</ele><time>2026-04-19T14:45:07.349Z</time></trkpt><trkpt lat="45.1771108" lon="9.5841985"><ele>63.0</ele><time>2026-04-19T14:45:08.36Z</time></trkpt><trkpt lat="45.1772944" lon="9.583912"><ele>63.0</ele><time>2026-04-19T14:45:09.349Z</time></trkpt><trkpt lat="45.1774785" lon="9.5836185"><ele>64.5</ele><time>2026-04-19T14:45:10.332Z</time></trkpt><trkpt lat="45.1776611" lon="9.5833184"><ele>66.0</ele><time>2026-04-19T14:45:11.36Z</time></trkpt><trkpt lat="45.1778481" lon="9.5830294"><ele>66.0</ele><time>2026-04-19T14:45:12.341Z</time></trkpt><trkpt lat="45.1780282" lon="9.5827455"><ele>66.0</ele><time>2026-04-19T14:45:13.33Z</time></trkpt><trkpt lat="45.1782123" lon="9.5824587"><ele>64.5</ele><time>2026-04-19T14:45:14.343Z</time></trkpt><trkpt lat="45.1783965" lon="9.5821759"><ele>63.0</ele><time>2026-04-19T14:45:15.321Z</time></trkpt><trkpt lat="45.1785873" lon="9.5818817"><ele>63.0</ele><time>2026-04-19T14:45:16.341Z</time></trkpt><trkpt lat="45.1787743" lon="9.5815906"><ele>63.0</ele><time>2026-04-19T14:45:17.332Z</time></trkpt><trkpt lat="45.1789619" lon="9.5812973"><ele>62.5</ele><time>2026-04-19T14:45:18.348Z</time></trkpt><trkpt lat="45.1791491" lon="9.5810057"><ele>62.0</ele><time>2026-04-19T14:45:19.359Z</time></trkpt><trkpt lat="45.1793327" lon="9.5807148"><ele>62.0</ele><time>2026-04-19T14:45:20.342Z</time></trkpt><trkpt lat="45.179515" lon="9.5804345"><ele>62.0</ele><time>2026-04-19T14:45:21.341Z</time></trkpt><trkpt lat="45.1797015" lon="9.5801496"><ele>62.5</ele><time>2026-04-19T14:45:22.354Z</time></trkpt><trkpt lat="45.1798826" lon="9.5798615"><ele>63.0</ele><time>2026-04-19T14:45:23.349Z</time></trkpt><trkpt lat="45.1800608" lon="9.5795699"><ele>64.0</ele><time>2026-04-19T14:45:24.351Z</time></trkpt><trkpt lat="45.180239" lon="9.5792877"><ele>65.0</ele><time>2026-04-19T14:45:25.348Z</time></trkpt><trkpt lat="45.1804204" lon="9.5790062"><ele>65.0</ele><time>2026-04-19T14:45:26.342Z</time></trkpt><trkpt lat="45.1805892" lon="9.5787215"><ele>65.0</ele><time>2026-04-19T14:45:27.344Z</time></trkpt><trkpt lat="45.1807671" lon="9.5784336"><ele>63.5</ele><time>2026-04-19T14:45:28.349Z</time></trkpt><trkpt lat="45.1809347" lon="9.5781524"><ele>62.0</ele><time>2026-04-19T14:45:29.349Z</time></trkpt><trkpt lat="45.1811064" lon="9.5778734"><ele>62.5</ele><time>2026-04-19T14:45:30.349Z</time></trkpt><trkpt lat="45.1812799" lon="9.5775992"><ele>63.0</ele><time>2026-04-19T14:45:31.341Z</time></trkpt><trkpt lat="45.1814542" lon="9.5773264"><ele>63.0</ele><time>2026-04-19T14:45:32.344Z</time></trkpt><trkpt lat="45.1816237" lon="9.577059"><ele>63.0</ele><time>2026-04-19T14:45:33.354Z</time></trkpt><trkpt lat="45.1818024" lon="9.576794"><ele>63.0</ele><time>2026-04-19T14:45:34.349Z</time></trkpt><trkpt lat="45.1819738" lon="9.5765245"><ele>63.0</ele><time>2026-04-19T14:45:35.346Z</time></trkpt><trkpt lat="45.182142" lon="9.5762609"><ele>62.5</ele><time>2026-04-19T14:45:36.342Z</time></trkpt><trkpt lat="45.1823072" lon="9.5759868"><ele>62.0</ele><time>2026-04-19T14:45:37.348Z</time></trkpt><trkpt lat="45.1824763" lon="9.5757212"><ele>62.0</ele><time>2026-04-19T14:45:38.349Z</time></trkpt><trkpt lat="45.182647" lon="9.5754499"><ele>62.0</ele><time>2026-04-19T14:45:39.356Z</time></trkpt><trkpt lat="45.1828199" lon="9.5751852"><ele>62.0</ele><time>2026-04-19T14:45:40.357Z</time></trkpt><trkpt lat="45.1829972" lon="9.5749088"><ele>62.0</ele><time>2026-04-19T14:45:41.347Z</time></trkpt><trkpt lat="45.183171" lon="9.5746327"><ele>62.0</ele><time>2026-04-19T14:45:42.343Z</time></trkpt><trkpt lat="45.1833502" lon="9.5743555"><ele>62.0</ele><time>2026-04-19T14:45:43.348Z</time></trkpt><trkpt lat="45.1835359" lon="9.5740727"><ele>62.0</ele><time>2026-04-19T14:45:44.347Z</time></trkpt><trkpt lat="45.1837235" lon="9.5738023"><ele>62.0</ele><time>2026-04-19T14:45:45.344Z</time></trkpt><trkpt lat="45.1839125" lon="9.573526"><ele>62.0</ele><time>2026-04-19T14:45:46.336Z</time></trkpt><trkpt lat="45.1840956" lon="9.5732406"><ele>62.0</ele><time>2026-04-19T14:45:47.341Z</time></trkpt><trkpt lat="45.1842764" lon="9.5729636"><ele>62.0</ele><time>2026-04-19T14:45:48.348Z</time></trkpt><trkpt lat="45.1844546" lon="9.5726829"><ele>62.0</ele><time>2026-04-19T14:45:49.338Z</time></trkpt><trkpt lat="45.1846306" lon="9.5724037"><ele>62.0</ele><time>2026-04-19T14:45:50.356Z</time></trkpt><trkpt lat="45.184808" lon="9.5721238"><ele>62.0</ele><time>2026-04-19T14:45:51.335Z</time></trkpt><trkpt lat="45.1849845" lon="9.5718479"><ele>61.0</ele><time>2026-04-19T14:45:52.351Z</time></trkpt><trkpt lat="45.185168" lon="9.5715689"><ele>60.0</ele><time>2026-04-19T14:45:53.351Z</time></trkpt><trkpt lat="45.1853498" lon="9.571291"><ele>60.0</ele><time>2026-04-19T14:45:54.352Z</time></trkpt><trkpt lat="45.1855309" lon="9.5710051"><ele>60.0</ele><time>2026-04-19T14:45:55.324Z</time></trkpt><trkpt lat="45.1857106" lon="9.570728"><ele>60.0</ele><time>2026-04-19T14:45:56.316Z</time></trkpt><trkpt lat="45.1858897" lon="9.5704506"><ele>60.0</ele><time>2026-04-19T14:45:57.349Z</time></trkpt><trkpt lat="45.186069" lon="9.5701706"><ele>61.5</ele><time>2026-04-19T14:45:58.348Z</time></trkpt><trkpt lat="45.1862466" lon="9.5698908"><ele>63.0</ele><time>2026-04-19T14:45:59.349Z</time></trkpt><trkpt lat="45.1864173" lon="9.5696133"><ele>62.5</ele><time>2026-04-19T14:46:00.344Z</time></trkpt><trkpt lat="45.186597" lon="9.5693302"><ele>62.0</ele><time>2026-04-19T14:46:01.355Z</time></trkpt><trkpt lat="45.1867735" lon="9.5690455"><ele>62.0</ele><time>2026-04-19T14:46:02.352Z</time></trkpt><trkpt lat="45.1869498" lon="9.5687638"><ele>62.0</ele><time>2026-04-19T14:46:03.338Z</time></trkpt><trkpt lat="45.1871283" lon="9.5684793"><ele>62.0</ele><time>2026-04-19T14:46:04.337Z</time></trkpt><trkpt lat="45.1873062" lon="9.5682039"><ele>62.0</ele><time>2026-04-19T14:46:05.345Z</time></trkpt><trkpt lat="45.1874822" lon="9.5679327"><ele>62.0</ele><time>2026-04-19T14:46:06.345Z</time></trkpt><trkpt lat="45.1876575" lon="9.5676525"><ele>62.0</ele><time>2026-04-19T14:46:07.344Z</time></trkpt><trkpt lat="45.1878309" lon="9.5673844"><ele>62.0</ele><time>2026-04-19T14:46:08.345Z</time></trkpt><trkpt lat="45.1880008" lon="9.5671096"><ele>62.0</ele><time>2026-04-19T14:46:09.35Z</time></trkpt><trkpt lat="45.18818" lon="9.5668361"><ele>62.5</ele><time>2026-04-19T14:46:10.343Z</time></trkpt><trkpt lat="45.1883605" lon="9.566563"><ele>63.0</ele><time>2026-04-19T14:46:11.321Z</time></trkpt><trkpt lat="45.1885407" lon="9.5662891"><ele>63.5</ele><time>2026-04-19T14:46:12.342Z</time></trkpt><trkpt lat="45.1887246" lon="9.5660147"><ele>64.0</ele><time>2026-04-19T14:46:13.34Z</time></trkpt><trkpt lat="45.1889039" lon="9.5657416"><ele>63.0</ele><time>2026-04-19T14:46:14.338Z</time></trkpt><trkpt lat="45.1890856" lon="9.5654551"><ele>62.0</ele><time>2026-04-19T14:46:15.329Z</time></trkpt><trkpt lat="45.1892643" lon="9.5651697"><ele>62.0</ele><time>2026-04-19T14:46:16.348Z</time></trkpt><trkpt lat="45.1894426" lon="9.5648966"><ele>62.0</ele><time>2026-04-19T14:46:17.334Z</time></trkpt><trkpt lat="45.1896221" lon="9.5646138"><ele>62.0</ele><time>2026-04-19T14:46:18.312Z</time></trkpt><trkpt lat="45.1897994" lon="9.5643367"><ele>62.0</ele><time>2026-04-19T14:46:19.356Z</time></trkpt><trkpt lat="45.1899832" lon="9.5640523"><ele>62.0</ele><time>2026-04-19T14:46:20.35Z</time></trkpt><trkpt lat="45.1901603" lon="9.563766"><ele>62.0</ele><time>2026-04-19T14:46:21.338Z</time></trkpt><trkpt lat="45.1903396" lon="9.5634842"><ele>62.0</ele><time>2026-04-19T14:46:22.348Z</time></trkpt><trkpt lat="45.1905191" lon="9.5632085"><ele>62.0</ele><time>2026-04-19T14:46:23.349Z</time></trkpt><trkpt lat="45.190703" lon="9.5629303"><ele>62.0</ele><time>2026-04-19T14:46:24.365Z</time></trkpt><trkpt lat="45.1908882" lon="9.5626492"><ele>62.0</ele><time>2026-04-19T14:46:25.35Z</time></trkpt><trkpt lat="45.1910682" lon="9.5623694"><ele>62.0</ele><time>2026-04-19T14:46:26.353Z</time></trkpt><trkpt lat="45.1912492" lon="9.5620922"><ele>62.0</ele><time>2026-04-19T14:46:27.357Z</time></trkpt><trkpt lat="45.1914337" lon="9.5618145"><ele>62.0</ele><time>2026-04-19T14:46:28.338Z</time></trkpt><trkpt lat="45.1916193" lon="9.5615391"><ele>62.0</ele><time>2026-04-19T14:46:29.349Z</time></trkpt><trkpt lat="45.1918019" lon="9.5612702"><ele>61.5</ele><time>2026-04-19T14:46:30.346Z</time></trkpt><trkpt lat="45.1919829" lon="9.5609992"><ele>61.0</ele><time>2026-04-19T14:46:31.361Z</time></trkpt><trkpt lat="45.192172" lon="9.5607287"><ele>61.5</ele><time>2026-04-19T14:46:32.347Z</time></trkpt><trkpt lat="45.1923598" lon="9.5604518"><ele>62.0</ele><time>2026-04-19T14:46:33.351Z</time></trkpt><trkpt lat="45.1925496" lon="9.5601779"><ele>61.0</ele><time>2026-04-19T14:46:34.343Z</time></trkpt><trkpt lat="45.1927405" lon="9.5599159"><ele>60.0</ele><time>2026-04-19T14:46:35.365Z</time></trkpt><trkpt lat="45.1929328" lon="9.5596465"><ele>61.0</ele><time>2026-04-19T14:46:36.325Z</time></trkpt><trkpt lat="45.1931183" lon="9.559383"><ele>62.0</ele><time>2026-04-19T14:46:37.358Z</time></trkpt><trkpt lat="45.1933104" lon="9.5591211"><ele>62.0</ele><time>2026-04-19T14:46:38.363Z</time></trkpt><trkpt lat="45.1934995" lon="9.558862"><ele>62.0</ele><time>2026-04-19T14:46:39.345Z</time></trkpt><trkpt lat="45.1936883" lon="9.5586027"><ele>62.5</ele><time>2026-04-19T14:46:40.36Z</time></trkpt><trkpt lat="45.1938772" lon="9.5583338"><ele>63.0</ele><time>2026-04-19T14:46:41.343Z</time></trkpt><trkpt lat="45.194059" lon="9.5580806"><ele>63.0</ele><time>2026-04-19T14:46:42.35Z</time></trkpt><trkpt lat="45.1942519" lon="9.5578234"><ele>63.0</ele><time>2026-04-19T14:46:43.349Z</time></trkpt><trkpt lat="45.1944427" lon="9.5575644"><ele>63.0</ele><time>2026-04-19T14:46:44.339Z</time></trkpt><trkpt lat="45.1946432" lon="9.557307"><ele>63.0</ele><time>2026-04-19T14:46:45.343Z</time></trkpt><trkpt lat="45.1948458" lon="9.5570462"><ele>62.5</ele><time>2026-04-19T14:46:46.342Z</time></trkpt><trkpt lat="45.1950441" lon="9.5567898"><ele>62.0</ele><time>2026-04-19T14:46:47.329Z</time></trkpt><trkpt lat="45.1952416" lon="9.5565355"><ele>62.0</ele><time>2026-04-19T14:46:48.347Z</time></trkpt><trkpt lat="45.195439" lon="9.5562724"><ele>62.0</ele><time>2026-04-19T14:46:49.36Z</time></trkpt><trkpt lat="45.1956348" lon="9.5560078"><ele>61.5</ele><time>2026-04-19T14:46:50.347Z</time></trkpt><trkpt lat="45.195837" lon="9.5557536"><ele>61.0</ele><time>2026-04-19T14:46:51.343Z</time></trkpt><trkpt lat="45.1960345" lon="9.5554896"><ele>62.0</ele><time>2026-04-19T14:46:52.345Z</time></trkpt><trkpt lat="45.1962432" lon="9.5552342"><ele>63.0</ele><time>2026-04-19T14:46:53.356Z</time></trkpt><trkpt lat="45.1964434" lon="9.5549693"><ele>63.0</ele><time>2026-04-19T14:46:54.351Z</time></trkpt><trkpt lat="45.1966428" lon="9.5547103"><ele>63.0</ele><time>2026-04-19T14:46:55.355Z</time></trkpt><trkpt lat="45.1968387" lon="9.5544529"><ele>63.0</ele><time>2026-04-19T14:46:56.339Z</time></trkpt><trkpt lat="45.1970326" lon="9.5541931"><ele>63.0</ele><time>2026-04-19T14:46:57.353Z</time></trkpt><trkpt lat="45.1972305" lon="9.553932"><ele>62.5</ele><time>2026-04-19T14:46:58.351Z</time></trkpt><trkpt lat="45.1974271" lon="9.553677"><ele>62.0</ele><time>2026-04-19T14:46:59.346Z</time></trkpt><trkpt lat="45.1976247" lon="9.5534202"><ele>62.0</ele><time>2026-04-19T14:47:00.341Z</time></trkpt><trkpt lat="45.1978149" lon="9.553165"><ele>62.0</ele><time>2026-04-19T14:47:01.356Z</time></trkpt><trkpt lat="45.1980121" lon="9.5529041"><ele>63.5</ele><time>2026-04-19T14:47:02.349Z</time></trkpt><trkpt lat="45.1982079" lon="9.5526527"><ele>65.0</ele><time>2026-04-19T14:47:03.357Z</time></trkpt><trkpt lat="45.1984059" lon="9.5523872"><ele>65.0</ele><time>2026-04-19T14:47:04.333Z</time></trkpt><trkpt lat="45.1986001" lon="9.5521248"><ele>65.0</ele><time>2026-04-19T14:47:05.344Z</time></trkpt><trkpt lat="45.1987981" lon="9.5518621"><ele>65.0</ele><time>2026-04-19T14:47:06.345Z</time></trkpt><trkpt lat="45.198996" lon="9.5515983"><ele>65.0</ele><time>2026-04-19T14:47:07.34Z</time></trkpt><trkpt lat="45.1991976" lon="9.5513353"><ele>63.5</ele><time>2026-04-19T14:47:08.341Z</time></trkpt><trkpt lat="45.1993982" lon="9.5510691"><ele>62.0</ele><time>2026-04-19T14:47:09.342Z</time></trkpt><trkpt lat="45.1996012" lon="9.550799"><ele>62.0</ele><time>2026-04-19T14:47:10.338Z</time></trkpt><trkpt lat="45.1997999" lon="9.5505299"><ele>62.0</ele><time>2026-04-19T14:47:11.339Z</time></trkpt><trkpt lat="45.1999977" lon="9.5502655"><ele>62.0</ele><time>2026-04-19T14:47:12.346Z</time></trkpt><trkpt lat="45.2001939" lon="9.5500013"><ele>62.0</ele><time>2026-04-19T14:47:13.348Z</time></trkpt><trkpt lat="45.2003935" lon="9.5497435"><ele>62.0</ele><time>2026-04-19T14:47:14.35Z</time></trkpt><trkpt lat="45.2005901" lon="9.5494921"><ele>62.0</ele><time>2026-04-19T14:47:15.324Z</time></trkpt><trkpt lat="45.200785" lon="9.5492379"><ele>62.5</ele><time>2026-04-19T14:47:16.345Z</time></trkpt><trkpt lat="45.2009776" lon="9.5489826"><ele>63.0</ele><time>2026-04-19T14:47:17.333Z</time></trkpt><trkpt lat="45.2011625" lon="9.5487399"><ele>63.0</ele><time>2026-04-19T14:47:18.331Z</time></trkpt><trkpt lat="45.2013533" lon="9.5484973"><ele>63.0</ele><time>2026-04-19T14:47:19.341Z</time></trkpt><trkpt lat="45.2015406" lon="9.5482529"><ele>62.5</ele><time>2026-04-19T14:47:20.343Z</time></trkpt><trkpt lat="45.2017286" lon="9.5480052"><ele>62.0</ele><time>2026-04-19T14:47:21.341Z</time></trkpt><trkpt lat="45.2019117" lon="9.5477557"><ele>62.0</ele><time>2026-04-19T14:47:22.336Z</time></trkpt><trkpt lat="45.2020986" lon="9.5475216"><ele>62.0</ele><time>2026-04-19T14:47:23.322Z</time></trkpt><trkpt lat="45.2022878" lon="9.5472685"><ele>63.0</ele><time>2026-04-19T14:47:24.351Z</time></trkpt><trkpt lat="45.2024698" lon="9.5470133"><ele>64.0</ele><time>2026-04-19T14:47:25.354Z</time></trkpt><trkpt lat="45.2026561" lon="9.5467549"><ele>64.0</ele><time>2026-04-19T14:47:26.36Z</time></trkpt><trkpt lat="45.2028448" lon="9.5465032"><ele>64.0</ele><time>2026-04-19T14:47:27.36Z</time></trkpt><trkpt lat="45.203039" lon="9.5462422"><ele>64.0</ele><time>2026-04-19T14:47:28.331Z</time></trkpt><trkpt lat="45.2032327" lon="9.5459878"><ele>64.0</ele><time>2026-04-19T14:47:29.347Z</time></trkpt><trkpt lat="45.203429" lon="9.545732"><ele>64.0</ele><time>2026-04-19T14:47:30.359Z</time></trkpt><trkpt lat="45.2036221" lon="9.5454677"><ele>64.0</ele><time>2026-04-19T14:47:31.354Z</time></trkpt><trkpt lat="45.2038276" lon="9.5451988"><ele>63.0</ele><time>2026-04-19T14:47:32.355Z</time></trkpt><trkpt lat="45.204029" lon="9.5449317"><ele>62.0</ele><time>2026-04-19T14:47:33.343Z</time></trkpt><trkpt lat="45.2042285" lon="9.5446659"><ele>62.0</ele><time>2026-04-19T14:47:34.346Z</time></trkpt><trkpt lat="45.2044319" lon="9.54439"><ele>62.0</ele><time>2026-04-19T14:47:35.351Z</time></trkpt><trkpt lat="45.2046385" lon="9.5441253"><ele>62.5</ele><time>2026-04-19T14:47:36.342Z</time></trkpt><trkpt lat="45.2048468" lon="9.5438547"><ele>63.0</ele><time>2026-04-19T14:47:37.352Z</time></trkpt><trkpt lat="45.2050532" lon="9.543582"><ele>63.0</ele><time>2026-04-19T14:47:38.345Z</time></trkpt><trkpt lat="45.2052598" lon="9.5433019"><ele>63.0</ele><time>2026-04-19T14:47:39.35Z</time></trkpt><trkpt lat="45.2054713" lon="9.5430363"><ele>64.0</ele><time>2026-04-19T14:47:40.35Z</time></trkpt><trkpt lat="45.205683" lon="9.542757"><ele>65.0</ele><time>2026-04-19T14:47:41.349Z</time></trkpt><trkpt lat="45.20589" lon="9.5424819"><ele>65.0</ele><time>2026-04-19T14:47:42.345Z</time></trkpt><trkpt lat="45.2060949" lon="9.5422103"><ele>65.0</ele><time>2026-04-19T14:47:43.35Z</time></trkpt><trkpt lat="45.2063028" lon="9.5419294"><ele>64.0</ele><time>2026-04-19T14:47:44.345Z</time></trkpt><trkpt lat="45.20651" lon="9.5416603"><ele>63.0</ele><time>2026-04-19T14:47:45.336Z</time></trkpt><trkpt lat="45.206716" lon="9.5413813"><ele>63.0</ele><time>2026-04-19T14:47:46.344Z</time></trkpt><trkpt lat="45.2069261" lon="9.5411042"><ele>63.0</ele><time>2026-04-19T14:47:47.342Z</time></trkpt><trkpt lat="45.2071366" lon="9.5408248"><ele>63.5</ele><time>2026-04-19T14:47:48.34Z</time></trkpt><trkpt lat="45.2073482" lon="9.5405471"><ele>64.0</ele><time>2026-04-19T14:47:49.305Z</time></trkpt><trkpt lat="45.2075612" lon="9.5402731"><ele>64.5</ele><time>2026-04-19T14:47:50.343Z</time></trkpt><trkpt lat="45.2077725" lon="9.5400076"><ele>65.0</ele><time>2026-04-19T14:47:51.345Z</time></trkpt><trkpt lat="45.2079898" lon="9.5397369"><ele>64.5</ele><time>2026-04-19T14:47:52.354Z</time></trkpt><trkpt lat="45.2082042" lon="9.5394644"><ele>64.0</ele><time>2026-04-19T14:47:53.342Z</time></trkpt><trkpt lat="45.2084181" lon="9.5392001"><ele>64.0</ele><time>2026-04-19T14:47:54.356Z</time></trkpt><trkpt lat="45.2086257" lon="9.5389238"><ele>64.0</ele><time>2026-04-19T14:47:55.358Z</time></trkpt><trkpt lat="45.2088338" lon="9.5386519"><ele>64.5</ele><time>2026-04-19T14:47:56.35Z</time></trkpt><trkpt lat="45.2090468" lon="9.5383757"><ele>65.0</ele><time>2026-04-19T14:47:57.353Z</time></trkpt><trkpt lat="45.2092581" lon="9.5381021"><ele>65.0</ele><time>2026-04-19T14:47:58.348Z</time></trkpt><trkpt lat="45.2094676" lon="9.5378273"><ele>65.0</ele><time>2026-04-19T14:47:59.327Z</time></trkpt><trkpt lat="45.2096772" lon="9.5375542"><ele>65.0</ele><time>2026-04-19T14:48:00.348Z</time></trkpt><trkpt lat="45.209886" lon="9.5372765"><ele>65.0</ele><time>2026-04-19T14:48:01.337Z</time></trkpt><trkpt lat="45.210096" lon="9.537006"><ele>64.5</ele><time>2026-04-19T14:48:02.348Z</time></trkpt><trkpt lat="45.2103033" lon="9.5367311"><ele>64.0</ele><time>2026-04-19T14:48:03.365Z</time></trkpt><trkpt lat="45.2105149" lon="9.536456"><ele>64.0</ele><time>2026-04-19T14:48:04.341Z</time></trkpt><trkpt lat="45.2107177" lon="9.5361838"><ele>64.0</ele><time>2026-04-19T14:48:05.345Z</time></trkpt><trkpt lat="45.2109188" lon="9.5359033"><ele>64.0</ele><time>2026-04-19T14:48:06.362Z</time></trkpt><trkpt lat="45.2111278" lon="9.5356346"><ele>64.0</ele><time>2026-04-19T14:48:07.352Z</time></trkpt><trkpt lat="45.2113346" lon="9.5353628"><ele>64.5</ele><time>2026-04-19T14:48:08.347Z</time></trkpt><trkpt lat="45.2115466" lon="9.5350917"><ele>65.0</ele><time>2026-04-19T14:48:09.352Z</time></trkpt><trkpt lat="45.2117593" lon="9.5348236"><ele>65.0</ele><time>2026-04-19T14:48:10.347Z</time></trkpt><trkpt lat="45.211966" lon="9.5345589"><ele>65.0</ele><time>2026-04-19T14:48:11.345Z</time></trkpt><trkpt lat="45.2121691" lon="9.534286"><ele>64.5</ele><time>2026-04-19T14:48:12.348Z</time></trkpt><trkpt lat="45.2123802" lon="9.5340127"><ele>64.0</ele><time>2026-04-19T14:48:13.351Z</time></trkpt><trkpt lat="45.2125921" lon="9.5337368"><ele>64.5</ele><time>2026-04-19T14:48:14.352Z</time></trkpt><trkpt lat="45.2127985" lon="9.5334638"><ele>65.0</ele><time>2026-04-19T14:48:15.353Z</time></trkpt><trkpt lat="45.2130038" lon="9.5331847"><ele>64.5</ele><time>2026-04-19T14:48:16.338Z</time></trkpt><trkpt lat="45.213209" lon="9.5329099"><ele>64.0</ele><time>2026-04-19T14:48:17.359Z</time></trkpt><trkpt lat="45.2134173" lon="9.53264"><ele>64.0</ele><time>2026-04-19T14:48:18.308Z</time></trkpt><trkpt lat="45.2136237" lon="9.5323567"><ele>64.0</ele><time>2026-04-19T14:48:19.345Z</time></trkpt><trkpt lat="45.2138299" lon="9.532082"><ele>63.5</ele><time>2026-04-19T14:48:20.339Z</time></trkpt><trkpt lat="45.2140427" lon="9.5318069"><ele>63.0</ele><time>2026-04-19T14:48:21.356Z</time></trkpt><trkpt lat="45.2142489" lon="9.5315316"><ele>63.0</ele><time>2026-04-19T14:48:22.346Z</time></trkpt><trkpt lat="45.2144561" lon="9.5312518"><ele>63.0</ele><time>2026-04-19T14:48:23.35Z</time></trkpt><trkpt lat="45.2146715" lon="9.5309772"><ele>63.0</ele><time>2026-04-19T14:48:24.349Z</time></trkpt><trkpt lat="45.2148841" lon="9.5307034"><ele>63.0</ele><time>2026-04-19T14:48:25.343Z</time></trkpt><trkpt lat="45.2150949" lon="9.5304231"><ele>63.5</ele><time>2026-04-19T14:48:26.344Z</time></trkpt><trkpt lat="45.21531" lon="9.5301417"><ele>64.0</ele><time>2026-04-19T14:48:27.355Z</time></trkpt><trkpt lat="45.2155227" lon="9.529854"><ele>64.5</ele><time>2026-04-19T14:48:28.323Z</time></trkpt><trkpt lat="45.2157381" lon="9.5295702"><ele>65.0</ele><time>2026-04-19T14:48:29.339Z</time></trkpt><trkpt lat="45.2159562" lon="9.5292887"><ele>66.5</ele><time>2026-04-19T14:48:30.325Z</time></trkpt><trkpt lat="45.2161689" lon="9.52901"><ele>68.0</ele><time>2026-04-19T14:48:31.353Z</time></trkpt><trkpt lat="45.2163821" lon="9.528731"><ele>66.5</ele><time>2026-04-19T14:48:32.35Z</time></trkpt><trkpt lat="45.216597" lon="9.5284493"><ele>65.0</ele><time>2026-04-19T14:48:33.353Z</time></trkpt><trkpt lat="45.2168099" lon="9.5281661"><ele>65.0</ele><time>2026-04-19T14:48:34.344Z</time></trkpt><trkpt lat="45.2170262" lon="9.5278882"><ele>65.0</ele><time>2026-04-19T14:48:35.337Z</time></trkpt><trkpt lat="45.2172396" lon="9.5276166"><ele>65.0</ele><time>2026-04-19T14:48:36.365Z</time></trkpt><trkpt lat="45.2174509" lon="9.5273422"><ele>65.0</ele><time>2026-04-19T14:48:37.356Z</time></trkpt><trkpt lat="45.21766" lon="9.5270623"><ele>65.0</ele><time>2026-04-19T14:48:38.352Z</time></trkpt><trkpt lat="45.2178695" lon="9.5267738"><ele>65.0</ele><time>2026-04-19T14:48:39.35Z</time></trkpt><trkpt lat="45.2180821" lon="9.5264901"><ele>65.5</ele><time>2026-04-19T14:48:40.347Z</time></trkpt><trkpt lat="45.2182941" lon="9.5262088"><ele>66.0</ele><time>2026-04-19T14:48:41.334Z</time></trkpt><trkpt lat="45.218505" lon="9.5259281"><ele>66.0</ele><time>2026-04-19T14:48:42.355Z</time></trkpt><trkpt lat="45.218711" lon="9.5256522"><ele>66.0</ele><time>2026-04-19T14:48:43.345Z</time></trkpt><trkpt lat="45.2189253" lon="9.5253788"><ele>65.5</ele><time>2026-04-19T14:48:44.351Z</time></trkpt><trkpt lat="45.2191411" lon="9.5251055"><ele>65.0</ele><time>2026-04-19T14:48:45.341Z</time></trkpt><trkpt lat="45.2193555" lon="9.52482"><ele>65.0</ele><time>2026-04-19T14:48:46.346Z</time></trkpt><trkpt lat="45.2195651" lon="9.5245401"><ele>65.0</ele><time>2026-04-19T14:48:47.321Z</time></trkpt><trkpt lat="45.2197779" lon="9.5242673"><ele>65.0</ele><time>2026-04-19T14:48:48.345Z</time></trkpt><trkpt lat="45.2199919" lon="9.5239839"><ele>65.0</ele><time>2026-04-19T14:48:49.34Z</time></trkpt><trkpt lat="45.2202103" lon="9.5237101"><ele>65.5</ele><time>2026-04-19T14:48:50.338Z</time></trkpt><trkpt lat="45.2204197" lon="9.5234279"><ele>66.0</ele><time>2026-04-19T14:48:51.35Z</time></trkpt><trkpt lat="45.2206326" lon="9.5231431"><ele>66.0</ele><time>2026-04-19T14:48:52.335Z</time></trkpt><trkpt lat="45.2208396" lon="9.5228611"><ele>66.0</ele><time>2026-04-19T14:48:53.34Z</time></trkpt><trkpt lat="45.2210501" lon="9.5225835"><ele>66.0</ele><time>2026-04-19T14:48:54.346Z</time></trkpt><trkpt lat="45.221268" lon="9.522305"><ele>66.0</ele><time>2026-04-19T14:48:55.353Z</time></trkpt><trkpt lat="45.2214844" lon="9.5220338"><ele>66.5</ele><time>2026-04-19T14:48:56.341Z</time></trkpt><trkpt lat="45.2216942" lon="9.5217677"><ele>67.0</ele><time>2026-04-19T14:48:57.344Z</time></trkpt><trkpt lat="45.2219025" lon="9.5214955"><ele>67.0</ele><time>2026-04-19T14:48:58.338Z</time></trkpt><trkpt lat="45.2221131" lon="9.5212204"><ele>67.0</ele><time>2026-04-19T14:48:59.313Z</time></trkpt><trkpt lat="45.2223218" lon="9.5209431"><ele>66.5</ele><time>2026-04-19T14:49:00.324Z</time></trkpt><trkpt lat="45.2225324" lon="9.5206736"><ele>66.0</ele><time>2026-04-19T14:49:01.352Z</time></trkpt><trkpt lat="45.2227412" lon="9.5203909"><ele>65.5</ele><time>2026-04-19T14:49:02.347Z</time></trkpt><trkpt lat="45.2229499" lon="9.5201154"><ele>65.0</ele><time>2026-04-19T14:49:03.318Z</time></trkpt><trkpt lat="45.2231548" lon="9.5198411"><ele>66.0</ele><time>2026-04-19T14:49:04.336Z</time></trkpt><trkpt lat="45.2233624" lon="9.5195598"><ele>67.0</ele><time>2026-04-19T14:49:05.303Z</time></trkpt><trkpt lat="45.2235706" lon="9.5192869"><ele>67.0</ele><time>2026-04-19T14:49:06.354Z</time></trkpt><trkpt lat="45.2237775" lon="9.5190211"><ele>67.0</ele><time>2026-04-19T14:49:07.337Z</time></trkpt><trkpt lat="45.2239849" lon="9.5187442"><ele>67.5</ele><time>2026-04-19T14:49:08.363Z</time></trkpt><trkpt lat="45.2241951" lon="9.5184696"><ele>68.0</ele><time>2026-04-19T14:49:09.337Z</time></trkpt><trkpt lat="45.2244069" lon="9.5181988"><ele>68.0</ele><time>2026-04-19T14:49:10.339Z</time></trkpt><trkpt lat="45.2246169" lon="9.5179313"><ele>68.0</ele><time>2026-04-19T14:49:11.339Z</time></trkpt><trkpt lat="45.2248315" lon="9.5176542"><ele>66.5</ele><time>2026-04-19T14:49:12.341Z</time></trkpt><trkpt lat="45.2250446" lon="9.5173744"><ele>65.0</ele><time>2026-04-19T14:49:13.354Z</time></trkpt><trkpt lat="45.2252528" lon="9.5170924"><ele>65.0</ele><time>2026-04-19T14:49:14.342Z</time></trkpt><trkpt lat="45.2254656" lon="9.5168168"><ele>65.0</ele><time>2026-04-19T14:49:15.345Z</time></trkpt><trkpt lat="45.2256781" lon="9.5165407"><ele>65.0</ele><time>2026-04-19T14:49:16.347Z</time></trkpt><trkpt lat="45.2258866" lon="9.5162606"><ele>65.0</ele><time>2026-04-19T14:49:17.34Z</time></trkpt><trkpt lat="45.2260962" lon="9.5159851"><ele>65.0</ele><time>2026-04-19T14:49:18.343Z</time></trkpt><trkpt lat="45.2263007" lon="9.5157054"><ele>65.0</ele><time>2026-04-19T14:49:19.342Z</time></trkpt><trkpt lat="45.2265071" lon="9.5154275"><ele>65.5</ele><time>2026-04-19T14:49:20.301Z</time></trkpt><trkpt lat="45.2267205" lon="9.5151589"><ele>66.0</ele><time>2026-04-19T14:49:21.355Z</time></trkpt><trkpt lat="45.226932" lon="9.5148835"><ele>66.0</ele><time>2026-04-19T14:49:22.343Z</time></trkpt><trkpt lat="45.2271371" lon="9.514607"><ele>66.0</ele><time>2026-04-19T14:49:23.348Z</time></trkpt><trkpt lat="45.2273504" lon="9.5143298"><ele>66.0</ele><time>2026-04-19T14:49:24.344Z</time></trkpt><trkpt lat="45.2275542" lon="9.5140553"><ele>66.0</ele><time>2026-04-19T14:49:25.358Z</time></trkpt><trkpt lat="45.2277659" lon="9.513778"><ele>66.0</ele><time>2026-04-19T14:49:26.345Z</time></trkpt><trkpt lat="45.2279726" lon="9.513505"><ele>66.0</ele><time>2026-04-19T14:49:27.349Z</time></trkpt><trkpt lat="45.2281806" lon="9.5132386"><ele>67.0</ele><time>2026-04-19T14:49:28.322Z</time></trkpt><trkpt lat="45.2283895" lon="9.5129677"><ele>68.0</ele><time>2026-04-19T14:49:29.348Z</time></trkpt><trkpt lat="45.228598" lon="9.5127041"><ele>68.5</ele><time>2026-04-19T14:49:30.336Z</time></trkpt><trkpt lat="45.2288069" lon="9.5124366"><ele>69.0</ele><time>2026-04-19T14:49:31.352Z</time></trkpt><trkpt lat="45.2290074" lon="9.5121727"><ele>68.5</ele><time>2026-04-19T14:49:32.351Z</time></trkpt><trkpt lat="45.2292108" lon="9.511906"><ele>68.0</ele><time>2026-04-19T14:49:33.296Z</time></trkpt><trkpt lat="45.229408" lon="9.5116282"><ele>68.0</ele><time>2026-04-19T14:49:34.339Z</time></trkpt><trkpt lat="45.2296075" lon="9.5113541"><ele>68.0</ele><time>2026-04-19T14:49:35.335Z</time></trkpt><trkpt lat="45.2298037" lon="9.5110837"><ele>68.0</ele><time>2026-04-19T14:49:36.335Z</time></trkpt><trkpt lat="45.2299993" lon="9.5108187"><ele>68.0</ele><time>2026-04-19T14:49:37.343Z</time></trkpt><trkpt lat="45.2301983" lon="9.5105617"><ele>68.0</ele><time>2026-04-19T14:49:38.344Z</time></trkpt><trkpt lat="45.2303987" lon="9.5103009"><ele>68.0</ele><time>2026-04-19T14:49:39.339Z</time></trkpt><trkpt lat="45.2305967" lon="9.5100464"><ele>67.5</ele><time>2026-04-19T14:49:40.331Z</time></trkpt><trkpt lat="45.2307966" lon="9.5097954"><ele>67.0</ele><time>2026-04-19T14:49:41.352Z</time></trkpt><trkpt lat="45.2309909" lon="9.509538"><ele>67.0</ele><time>2026-04-19T14:49:42.344Z</time></trkpt><trkpt lat="45.231183" lon="9.5092813"><ele>67.0</ele><time>2026-04-19T14:49:43.345Z</time></trkpt><trkpt lat="45.2313774" lon="9.5090216"><ele>67.0</ele><time>2026-04-19T14:49:44.344Z</time></trkpt><trkpt lat="45.2315705" lon="9.5087566"><ele>67.0</ele><time>2026-04-19T14:49:45.329Z</time></trkpt><trkpt lat="45.2317605" lon="9.5084934"><ele>67.0</ele><time>2026-04-19T14:49:46.342Z</time></trkpt><trkpt lat="45.2319598" lon="9.5082409"><ele>67.0</ele><time>2026-04-19T14:49:47.335Z</time></trkpt><trkpt lat="45.2321588" lon="9.5079762"><ele>68.5</ele><time>2026-04-19T14:49:48.341Z</time></trkpt><trkpt lat="45.2323593" lon="9.5077161"><ele>70.0</ele><time>2026-04-19T14:49:49.336Z</time></trkpt><trkpt lat="45.2325512" lon="9.5074586"><ele>70.0</ele><time>2026-04-19T14:49:50.348Z</time></trkpt><trkpt lat="45.2327446" lon="9.5072048"><ele>70.0</ele><time>2026-04-19T14:49:51.337Z</time></trkpt><trkpt lat="45.23294" lon="9.5069536"><ele>69.0</ele><time>2026-04-19T14:49:52.353Z</time></trkpt><trkpt lat="45.2331339" lon="9.5067092"><ele>68.0</ele><time>2026-04-19T14:49:53.349Z</time></trkpt><trkpt lat="45.2333232" lon="9.5064669"><ele>68.0</ele><time>2026-04-19T14:49:54.345Z</time></trkpt><trkpt lat="45.2335106" lon="9.5062212"><ele>68.0</ele><time>2026-04-19T14:49:55.353Z</time></trkpt><trkpt lat="45.2336893" lon="9.5059765"><ele>68.0</ele><time>2026-04-19T14:49:56.348Z</time></trkpt><trkpt lat="45.2338683" lon="9.5057443"><ele>68.0</ele><time>2026-04-19T14:49:57.349Z</time></trkpt><trkpt lat="45.2340545" lon="9.505507"><ele>68.0</ele><time>2026-04-19T14:49:58.345Z</time></trkpt><trkpt lat="45.2342313" lon="9.5052722"><ele>68.0</ele><time>2026-04-19T14:49:59.348Z</time></trkpt><trkpt lat="45.2344169" lon="9.5050314"><ele>68.0</ele><time>2026-04-19T14:50:00.353Z</time></trkpt><trkpt lat="45.2345974" lon="9.5047797"><ele>68.0</ele><time>2026-04-19T14:50:01.344Z</time></trkpt><trkpt lat="45.2347807" lon="9.5045267"><ele>68.0</ele><time>2026-04-19T14:50:02.345Z</time></trkpt><trkpt lat="45.2349652" lon="9.5042749"><ele>68.0</ele><time>2026-04-19T14:50:03.354Z</time></trkpt><trkpt lat="45.2351579" lon="9.504016"><ele>68.0</ele><time>2026-04-19T14:50:04.314Z</time></trkpt><trkpt lat="45.235347" lon="9.5037595"><ele>68.0</ele><time>2026-04-19T14:50:05.335Z</time></trkpt><trkpt lat="45.2355383" lon="9.5035053"><ele>69.5</ele><time>2026-04-19T14:50:06.347Z</time></trkpt><trkpt lat="45.2357201" lon="9.5032546"><ele>71.0</ele><time>2026-04-19T14:50:07.342Z</time></trkpt><trkpt lat="45.23591" lon="9.5030002"><ele>71.0</ele><time>2026-04-19T14:50:08.323Z</time></trkpt><trkpt lat="45.2361011" lon="9.5027495"><ele>71.0</ele><time>2026-04-19T14:50:09.347Z</time></trkpt><trkpt lat="45.2362896" lon="9.5024914"><ele>71.0</ele><time>2026-04-19T14:50:10.339Z</time></trkpt><trkpt lat="45.2364852" lon="9.5022327"><ele>71.0</ele><time>2026-04-19T14:50:11.35Z</time></trkpt><trkpt lat="45.2366772" lon="9.501974"><ele>71.0</ele><time>2026-04-19T14:50:12.349Z</time></trkpt><trkpt lat="45.2368696" lon="9.5017148"><ele>71.0</ele><time>2026-04-19T14:50:13.359Z</time></trkpt><trkpt lat="45.2370655" lon="9.5014563"><ele>70.5</ele><time>2026-04-19T14:50:14.345Z</time></trkpt><trkpt lat="45.2372611" lon="9.5011955"><ele>70.0</ele><time>2026-04-19T14:50:15.348Z</time></trkpt><trkpt lat="45.2374655" lon="9.5009418"><ele>70.0</ele><time>2026-04-19T14:50:16.344Z</time></trkpt><trkpt lat="45.2376607" lon="9.5006884"><ele>70.0</ele><time>2026-04-19T14:50:17.345Z</time></trkpt><trkpt lat="45.2378537" lon="9.5004335"><ele>69.5</ele><time>2026-04-19T14:50:18.355Z</time></trkpt><trkpt lat="45.2380462" lon="9.500172"><ele>69.0</ele><time>2026-04-19T14:50:19.338Z</time></trkpt><trkpt lat="45.2382465" lon="9.4999046"><ele>69.5</ele><time>2026-04-19T14:50:20.333Z</time></trkpt><trkpt lat="45.2384491" lon="9.4996398"><ele>70.0</ele><time>2026-04-19T14:50:21.354Z</time></trkpt><trkpt lat="45.2386578" lon="9.4993705"><ele>70.0</ele><time>2026-04-19T14:50:22.355Z</time></trkpt><trkpt lat="45.238863" lon="9.499103"><ele>70.0</ele><time>2026-04-19T14:50:23.362Z</time></trkpt><trkpt lat="45.2390756" lon="9.4988327"><ele>70.0</ele><time>2026-04-19T14:50:24.349Z</time></trkpt><trkpt lat="45.2392829" lon="9.4985568"><ele>70.0</ele><time>2026-04-19T14:50:25.335Z</time></trkpt><trkpt lat="45.2394922" lon="9.4982888"><ele>70.0</ele><time>2026-04-19T14:50:26.347Z</time></trkpt><trkpt lat="45.2396968" lon="9.4980177"><ele>70.0</ele><time>2026-04-19T14:50:27.358Z</time></trkpt><trkpt lat="45.2399029" lon="9.4977482"><ele>70.0</ele><time>2026-04-19T14:50:28.353Z</time></trkpt><trkpt lat="45.2401073" lon="9.4974725"><ele>70.0</ele><time>2026-04-19T14:50:29.327Z</time></trkpt><trkpt lat="45.2403134" lon="9.4971948"><ele>69.5</ele><time>2026-04-19T14:50:30.357Z</time></trkpt><trkpt lat="45.2405201" lon="9.4969198"><ele>69.0</ele><time>2026-04-19T14:50:31.349Z</time></trkpt><trkpt lat="45.2407304" lon="9.4966515"><ele>69.0</ele><time>2026-04-19T14:50:32.336Z</time></trkpt><trkpt lat="45.2409457" lon="9.4963763"><ele>69.0</ele><time>2026-04-19T14:50:33.355Z</time></trkpt><trkpt lat="45.2411567" lon="9.4961038"><ele>69.0</ele><time>2026-04-19T14:50:34.338Z</time></trkpt><trkpt lat="45.2413636" lon="9.4958309"><ele>69.0</ele><time>2026-04-19T14:50:35.345Z</time></trkpt><trkpt lat="45.2415756" lon="9.4955487"><ele>69.0</ele><time>2026-04-19T14:50:36.349Z</time></trkpt><trkpt lat="45.2417911" lon="9.4952651"><ele>69.0</ele><time>2026-04-19T14:50:37.34Z</time></trkpt><trkpt lat="45.2419994" lon="9.4949866"><ele>69.0</ele><time>2026-04-19T14:50:38.339Z</time></trkpt><trkpt lat="45.2422132" lon="9.4947038"><ele>69.0</ele><time>2026-04-19T14:50:39.341Z</time></trkpt><trkpt lat="45.2424248" lon="9.4944233"><ele>69.0</ele><time>2026-04-19T14:50:40.35Z</time></trkpt><trkpt lat="45.2426366" lon="9.4941399"><ele>69.0</ele><time>2026-04-19T14:50:41.347Z</time></trkpt><trkpt lat="45.2428564" lon="9.4938589"><ele>69.5</ele><time>2026-04-19T14:50:42.352Z</time></trkpt><trkpt lat="45.2430726" lon="9.493575"><ele>70.0</ele><time>2026-04-19T14:50:43.356Z</time></trkpt><trkpt lat="45.2432903" lon="9.4932882"><ele>70.0</ele><time>2026-04-19T14:50:44.345Z</time></trkpt><trkpt lat="45.2435061" lon="9.4930073"><ele>70.0</ele><time>2026-04-19T14:50:45.351Z</time></trkpt><trkpt lat="45.2437255" lon="9.4927224"><ele>70.5</ele><time>2026-04-19T14:50:46.349Z</time></trkpt><trkpt lat="45.2439411" lon="9.4924384"><ele>71.0</ele><time>2026-04-19T14:50:47.311Z</time></trkpt><trkpt lat="45.2441572" lon="9.4921489"><ele>70.5</ele><time>2026-04-19T14:50:48.346Z</time></trkpt><trkpt lat="45.2443771" lon="9.4918641"><ele>70.0</ele><time>2026-04-19T14:50:49.335Z</time></trkpt><trkpt lat="45.2446016" lon="9.4915755"><ele>70.5</ele><time>2026-04-19T14:50:50.348Z</time></trkpt><trkpt lat="45.2448261" lon="9.4912947"><ele>71.0</ele><time>2026-04-19T14:50:51.354Z</time></trkpt><trkpt lat="45.2450491" lon="9.4910096"><ele>71.0</ele><time>2026-04-19T14:50:52.333Z</time></trkpt><trkpt lat="45.2452685" lon="9.490718"><ele>71.0</ele><time>2026-04-19T14:50:53.358Z</time></trkpt><trkpt lat="45.2454869" lon="9.490422"><ele>70.5</ele><time>2026-04-19T14:50:54.341Z</time></trkpt><trkpt lat="45.2457043" lon="9.4901271"><ele>70.0</ele><time>2026-04-19T14:50:55.343Z</time></trkpt><trkpt lat="45.2459203" lon="9.489839"><ele>70.5</ele><time>2026-04-19T14:50:56.345Z</time></trkpt><trkpt lat="45.2461392" lon="9.48955"><ele>71.0</ele><time>2026-04-19T14:50:57.347Z</time></trkpt><trkpt lat="45.2463642" lon="9.4892553"><ele>71.5</ele><time>2026-04-19T14:50:58.35Z</time></trkpt><trkpt lat="45.2465858" lon="9.4889714"><ele>72.0</ele><time>2026-04-19T14:50:59.333Z</time></trkpt><trkpt lat="45.2468069" lon="9.4886839"><ele>72.0</ele><time>2026-04-19T14:51:00.342Z</time></trkpt><trkpt lat="45.2470258" lon="9.4883992"><ele>72.0</ele><time>2026-04-19T14:51:01.351Z</time></trkpt><trkpt lat="45.2472497" lon="9.488107"><ele>71.0</ele><time>2026-04-19T14:51:02.335Z</time></trkpt><trkpt lat="45.247471" lon="9.487808"><ele>70.0</ele><time>2026-04-19T14:51:03.349Z</time></trkpt><trkpt lat="45.2476935" lon="9.4875122"><ele>70.0</ele><time>2026-04-19T14:51:04.351Z</time></trkpt><trkpt lat="45.2479131" lon="9.4872255"><ele>70.0</ele><time>2026-04-19T14:51:05.336Z</time></trkpt><trkpt lat="45.2481306" lon="9.4869368"><ele>69.5</ele><time>2026-04-19T14:51:06.341Z</time></trkpt><trkpt lat="45.2483488" lon="9.4866539"><ele>69.0</ele><time>2026-04-19T14:51:07.337Z</time></trkpt><trkpt lat="45.2485679" lon="9.4863622"><ele>69.0</ele><time>2026-04-19T14:51:08.334Z</time></trkpt><trkpt lat="45.2487821" lon="9.4860711"><ele>69.0</ele><time>2026-04-19T14:51:09.345Z</time></trkpt><trkpt lat="45.2489955" lon="9.4857848"><ele>69.0</ele><time>2026-04-19T14:51:10.338Z</time></trkpt><trkpt lat="45.2492127" lon="9.4855045"><ele>69.0</ele><time>2026-04-19T14:51:11.341Z</time></trkpt><trkpt lat="45.2494336" lon="9.4852261"><ele>69.0</ele><time>2026-04-19T14:51:12.358Z</time></trkpt><trkpt lat="45.2496519" lon="9.4849441"><ele>69.0</ele><time>2026-04-19T14:51:13.331Z</time></trkpt><trkpt lat="45.249866" lon="9.4846664"><ele>69.5</ele><time>2026-04-19T14:51:14.342Z</time></trkpt><trkpt lat="45.2500778" lon="9.4843921"><ele>70.0</ele><time>2026-04-19T14:51:15.348Z</time></trkpt><trkpt lat="45.2502905" lon="9.4841104"><ele>70.0</ele><time>2026-04-19T14:51:16.344Z</time></trkpt><trkpt lat="45.2505073" lon="9.483826"><ele>70.0</ele><time>2026-04-19T14:51:17.335Z</time></trkpt><trkpt lat="45.2507212" lon="9.4835511"><ele>70.5</ele><time>2026-04-19T14:51:18.336Z</time></trkpt><trkpt lat="45.250926" lon="9.4832686"><ele>71.0</ele><time>2026-04-19T14:51:19.346Z</time></trkpt><trkpt lat="45.2511393" lon="9.4829905"><ele>70.5</ele><time>2026-04-19T14:51:20.334Z</time></trkpt><trkpt lat="45.2513441" lon="9.4827159"><ele>70.0</ele><time>2026-04-19T14:51:21.341Z</time></trkpt><trkpt lat="45.2515565" lon="9.4824379"><ele>70.0</ele><time>2026-04-19T14:51:22.335Z</time></trkpt><trkpt lat="45.2517595" lon="9.4821628"><ele>70.0</ele><time>2026-04-19T14:51:23.341Z</time></trkpt><trkpt lat="45.2519635" lon="9.4818915"><ele>70.0</ele><time>2026-04-19T14:51:24.344Z</time></trkpt><trkpt lat="45.252168" lon="9.4816207"><ele>70.0</ele><time>2026-04-19T14:51:25.348Z</time></trkpt><trkpt lat="45.2523675" lon="9.4813494"><ele>70.5</ele><time>2026-04-19T14:51:26.335Z</time></trkpt><trkpt lat="45.2525713" lon="9.4810956"><ele>71.0</ele><time>2026-04-19T14:51:27.344Z</time></trkpt><trkpt lat="45.2527742" lon="9.4808374"><ele>71.0</ele><time>2026-04-19T14:51:28.312Z</time></trkpt><trkpt lat="45.2529718" lon="9.4805798"><ele>71.0</ele><time>2026-04-19T14:51:29.339Z</time></trkpt><trkpt lat="45.2531702" lon="9.4803146"><ele>71.0</ele><time>2026-04-19T14:51:30.337Z</time></trkpt><trkpt lat="45.25337" lon="9.4800489"><ele>71.0</ele><time>2026-04-19T14:51:31.346Z</time></trkpt><trkpt lat="45.2535646" lon="9.4797814"><ele>71.0</ele><time>2026-04-19T14:51:32.345Z</time></trkpt><trkpt lat="45.253758" lon="9.4795146"><ele>71.0</ele><time>2026-04-19T14:51:33.352Z</time></trkpt><trkpt lat="45.2539595" lon="9.4792464"><ele>71.5</ele><time>2026-04-19T14:51:34.353Z</time></trkpt><trkpt lat="45.2541523" lon="9.4789825"><ele>72.0</ele><time>2026-04-19T14:51:35.35Z</time></trkpt><trkpt lat="45.2543509" lon="9.4787293"><ele>72.0</ele><time>2026-04-19T14:51:36.347Z</time></trkpt><trkpt lat="45.2545526" lon="9.4784765"><ele>72.0</ele><time>2026-04-19T14:51:37.354Z</time></trkpt><trkpt lat="45.2547509" lon="9.4782092"><ele>72.0</ele><time>2026-04-19T14:51:38.351Z</time></trkpt><trkpt lat="45.2549506" lon="9.4779497"><ele>72.0</ele><time>2026-04-19T14:51:39.356Z</time></trkpt><trkpt lat="45.2551409" lon="9.4776938"><ele>72.0</ele><time>2026-04-19T14:51:40.338Z</time></trkpt><trkpt lat="45.2553339" lon="9.4774444"><ele>72.0</ele><time>2026-04-19T14:51:41.355Z</time></trkpt><trkpt lat="45.2555279" lon="9.4771902"><ele>71.0</ele><time>2026-04-19T14:51:42.34Z</time></trkpt><trkpt lat="45.2557242" lon="9.4769435"><ele>70.0</ele><time>2026-04-19T14:51:43.353Z</time></trkpt><trkpt lat="45.2559181" lon="9.476685"><ele>70.0</ele><time>2026-04-19T14:51:44.342Z</time></trkpt><trkpt lat="45.2561157" lon="9.4764382"><ele>70.0</ele><time>2026-04-19T14:51:45.339Z</time></trkpt><trkpt lat="45.2563073" lon="9.4761854"><ele>70.0</ele><time>2026-04-19T14:51:46.351Z</time></trkpt><trkpt lat="45.2564915" lon="9.4759295"><ele>70.0</ele><time>2026-04-19T14:51:47.333Z</time></trkpt><trkpt lat="45.2566781" lon="9.4756777"><ele>69.5</ele><time>2026-04-19T14:51:48.345Z</time></trkpt><trkpt lat="45.2568707" lon="9.4754317"><ele>69.0</ele><time>2026-04-19T14:51:49.343Z</time></trkpt><trkpt lat="45.2570572" lon="9.4751819"><ele>69.0</ele><time>2026-04-19T14:51:50.351Z</time></trkpt><trkpt lat="45.2572402" lon="9.4749416"><ele>69.0</ele><time>2026-04-19T14:51:51.337Z</time></trkpt><trkpt lat="45.2574275" lon="9.474695"><ele>69.5</ele><time>2026-04-19T14:51:52.336Z</time></trkpt><trkpt lat="45.2576204" lon="9.4744487"><ele>70.0</ele><time>2026-04-19T14:51:53.34Z</time></trkpt><trkpt lat="45.2578216" lon="9.4741999"><ele>70.0</ele><time>2026-04-19T14:51:54.348Z</time></trkpt><trkpt lat="45.2580179" lon="9.473945"><ele>70.0</ele><time>2026-04-19T14:51:55.3Z</time></trkpt><trkpt lat="45.2582215" lon="9.473682"><ele>70.5</ele><time>2026-04-19T14:51:56.337Z</time></trkpt><trkpt lat="45.2584124" lon="9.4734155"><ele>71.0</ele><time>2026-04-19T14:51:57.341Z</time></trkpt><trkpt lat="45.2586116" lon="9.4731545"><ele>70.5</ele><time>2026-04-19T14:51:58.354Z</time></trkpt><trkpt lat="45.2588151" lon="9.4728926"><ele>70.0</ele><time>2026-04-19T14:51:59.344Z</time></trkpt><trkpt lat="45.2590205" lon="9.4726327"><ele>69.5</ele><time>2026-04-19T14:52:00.351Z</time></trkpt><trkpt lat="45.2592224" lon="9.4723671"><ele>69.0</ele><time>2026-04-19T14:52:01.344Z</time></trkpt><trkpt lat="45.2594228" lon="9.4721014"><ele>69.0</ele><time>2026-04-19T14:52:02.345Z</time></trkpt><trkpt lat="45.2596282" lon="9.4718389"><ele>69.0</ele><time>2026-04-19T14:52:03.351Z</time></trkpt><trkpt lat="45.2598366" lon="9.4715727"><ele>69.5</ele><time>2026-04-19T14:52:04.353Z</time></trkpt><trkpt lat="45.2600405" lon="9.4713031"><ele>70.0</ele><time>2026-04-19T14:52:05.341Z</time></trkpt><trkpt lat="45.2602383" lon="9.4710379"><ele>70.5</ele><time>2026-04-19T14:52:06.336Z</time></trkpt><trkpt lat="45.2604408" lon="9.470779"><ele>71.0</ele><time>2026-04-19T14:52:07.347Z</time></trkpt><trkpt lat="45.2606402" lon="9.4705168"><ele>71.0</ele><time>2026-04-19T14:52:08.346Z</time></trkpt><trkpt lat="45.2608367" lon="9.4702497"><ele>71.0</ele><time>2026-04-19T14:52:09.346Z</time></trkpt><trkpt lat="45.2610276" lon="9.4699968"><ele>71.0</ele><time>2026-04-19T14:52:10.337Z</time></trkpt><trkpt lat="45.2612221" lon="9.4697347"><ele>71.0</ele><time>2026-04-19T14:52:11.351Z</time></trkpt><trkpt lat="45.2614129" lon="9.4694734"><ele>71.5</ele><time>2026-04-19T14:52:12.342Z</time></trkpt><trkpt lat="45.2616047" lon="9.4692089"><ele>72.0</ele><time>2026-04-19T14:52:13.339Z</time></trkpt><trkpt lat="45.2618004" lon="9.4689462"><ele>72.5</ele><time>2026-04-19T14:52:14.341Z</time></trkpt><trkpt lat="45.2619983" lon="9.4686875"><ele>73.0</ele><time>2026-04-19T14:52:15.343Z</time></trkpt><trkpt lat="45.2621964" lon="9.4684343"><ele>73.0</ele><time>2026-04-19T14:52:16.349Z</time></trkpt><trkpt lat="45.262389" lon="9.4681636"><ele>73.0</ele><time>2026-04-19T14:52:17.323Z</time></trkpt><trkpt lat="45.2625872" lon="9.4679059"><ele>73.0</ele><time>2026-04-19T14:52:18.347Z</time></trkpt><trkpt lat="45.262785" lon="9.4676506"><ele>73.0</ele><time>2026-04-19T14:52:19.344Z</time></trkpt><trkpt lat="45.2629796" lon="9.4673932"><ele>73.0</ele><time>2026-04-19T14:52:20.32Z</time></trkpt><trkpt lat="45.2631758" lon="9.4671284"><ele>73.0</ele><time>2026-04-19T14:52:21.346Z</time></trkpt><trkpt lat="45.2633691" lon="9.4668668"><ele>74.0</ele><time>2026-04-19T14:52:22.356Z</time></trkpt><trkpt lat="45.2635646" lon="9.4666077"><ele>75.0</ele><time>2026-04-19T14:52:23.335Z</time></trkpt><trkpt lat="45.2637624" lon="9.4663454"><ele>73.5</ele><time>2026-04-19T14:52:24.333Z</time></trkpt><trkpt lat="45.2639619" lon="9.4660907"><ele>72.0</ele><time>2026-04-19T14:52:25.35Z</time></trkpt><trkpt lat="45.2641585" lon="9.4658306"><ele>72.0</ele><time>2026-04-19T14:52:26.346Z</time></trkpt><trkpt lat="45.264354" lon="9.4655704"><ele>72.0</ele><time>2026-04-19T14:52:27.337Z</time></trkpt><trkpt lat="45.2645629" lon="9.465301"><ele>72.0</ele><time>2026-04-19T14:52:28.37Z</time></trkpt><trkpt lat="45.2647683" lon="9.4650325"><ele>72.0</ele><time>2026-04-19T14:52:29.338Z</time></trkpt><trkpt lat="45.2649731" lon="9.46477"><ele>72.5</ele><time>2026-04-19T14:52:30.345Z</time></trkpt><trkpt lat="45.2651737" lon="9.4645006"><ele>73.0</ele><time>2026-04-19T14:52:31.343Z</time></trkpt><trkpt lat="45.2653745" lon="9.464234"><ele>73.0</ele><time>2026-04-19T14:52:32.348Z</time></trkpt><trkpt lat="45.2655757" lon="9.4639679"><ele>73.0</ele><time>2026-04-19T14:52:33.35Z</time></trkpt><trkpt lat="45.2657777" lon="9.4636923"><ele>72.5</ele><time>2026-04-19T14:52:34.365Z</time></trkpt><trkpt lat="45.2659798" lon="9.463426"><ele>72.0</ele><time>2026-04-19T14:52:35.342Z</time></trkpt><trkpt lat="45.2661845" lon="9.4631567"><ele>72.5</ele><time>2026-04-19T14:52:36.342Z</time></trkpt><trkpt lat="45.2663852" lon="9.4628933"><ele>73.0</ele><time>2026-04-19T14:52:37.354Z</time></trkpt><trkpt lat="45.2665893" lon="9.4626199"><ele>73.0</ele><time>2026-04-19T14:52:38.334Z</time></trkpt><trkpt lat="45.2667873" lon="9.4623546"><ele>73.0</ele><time>2026-04-19T14:52:39.348Z</time></trkpt><trkpt lat="45.2669924" lon="9.4620879"><ele>73.0</ele><time>2026-04-19T14:52:40.34Z</time></trkpt><trkpt lat="45.2671968" lon="9.4618148"><ele>73.0</ele><time>2026-04-19T14:52:41.354Z</time></trkpt><trkpt lat="45.2673991" lon="9.4615469"><ele>73.0</ele><time>2026-04-19T14:52:42.346Z</time></trkpt><trkpt lat="45.2676107" lon="9.461276"><ele>73.0</ele><time>2026-04-19T14:52:43.35Z</time></trkpt><trkpt lat="45.2678177" lon="9.4610023"><ele>73.0</ele><time>2026-04-19T14:52:44.345Z</time></trkpt><trkpt lat="45.2680253" lon="9.4607205"><ele>73.0</ele><time>2026-04-19T14:52:45.334Z</time></trkpt><trkpt lat="45.2682327" lon="9.4604421"><ele>73.5</ele><time>2026-04-19T14:52:46.343Z</time></trkpt><trkpt lat="45.2684387" lon="9.4601613"><ele>74.0</ele><time>2026-04-19T14:52:47.318Z</time></trkpt><trkpt lat="45.2686486" lon="9.4598806"><ele>74.0</ele><time>2026-04-19T14:52:48.336Z</time></trkpt><trkpt lat="45.2688533" lon="9.4595983"><ele>74.0</ele><time>2026-04-19T14:52:49.349Z</time></trkpt><trkpt lat="45.2690626" lon="9.4593097"><ele>73.5</ele><time>2026-04-19T14:52:50.335Z</time></trkpt><trkpt lat="45.2692698" lon="9.4590163"><ele>73.0</ele><time>2026-04-19T14:52:51.342Z</time></trkpt><trkpt lat="45.2694685" lon="9.4587303"><ele>73.0</ele><time>2026-04-19T14:52:52.339Z</time></trkpt><trkpt lat="45.2696773" lon="9.4584365"><ele>73.0</ele><time>2026-04-19T14:52:53.328Z</time></trkpt><trkpt lat="45.2698829" lon="9.4581348"><ele>74.0</ele><time>2026-04-19T14:52:54.358Z</time></trkpt><trkpt lat="45.2700816" lon="9.4578499"><ele>75.0</ele><time>2026-04-19T14:52:55.362Z</time></trkpt><trkpt lat="45.270284" lon="9.4575619"><ele>75.0</ele><time>2026-04-19T14:52:56.341Z</time></trkpt><trkpt lat="45.2704867" lon="9.4572757"><ele>75.0</ele><time>2026-04-19T14:52:57.342Z</time></trkpt><trkpt lat="45.2706901" lon="9.4569768"><ele>74.0</ele><time>2026-04-19T14:52:58.362Z</time></trkpt><trkpt lat="45.2708958" lon="9.4566872"><ele>73.0</ele><time>2026-04-19T14:52:59.356Z</time></trkpt><trkpt lat="45.271095" lon="9.4563957"><ele>73.0</ele><time>2026-04-19T14:53:00.343Z</time></trkpt><trkpt lat="45.2712901" lon="9.4560989"><ele>73.0</ele><time>2026-04-19T14:53:01.333Z</time></trkpt><trkpt lat="45.2714783" lon="9.4558097"><ele>73.0</ele><time>2026-04-19T14:53:02.343Z</time></trkpt><trkpt lat="45.2716683" lon="9.45552"><ele>73.0</ele><time>2026-04-19T14:53:03.355Z</time></trkpt><trkpt lat="45.271857" lon="9.4552356"><ele>73.5</ele><time>2026-04-19T14:53:04.348Z</time></trkpt><trkpt lat="45.2720372" lon="9.4549459"><ele>74.0</ele><time>2026-04-19T14:53:05.344Z</time></trkpt><trkpt lat="45.2722236" lon="9.4546626"><ele>73.5</ele><time>2026-04-19T14:53:06.339Z</time></trkpt><trkpt lat="45.2724065" lon="9.4543725"><ele>73.0</ele><time>2026-04-19T14:53:07.349Z</time></trkpt><trkpt lat="45.2725913" lon="9.4540918"><ele>73.0</ele><time>2026-04-19T14:53:08.313Z</time></trkpt><trkpt lat="45.2727661" lon="9.4538068"><ele>73.0</ele><time>2026-04-19T14:53:09.357Z</time></trkpt><trkpt lat="45.2729476" lon="9.4535201"><ele>73.5</ele><time>2026-04-19T14:53:10.343Z</time></trkpt><trkpt lat="45.2731213" lon="9.4532309"><ele>74.0</ele><time>2026-04-19T14:53:11.345Z</time></trkpt><trkpt lat="45.2733023" lon="9.4529433"><ele>74.0</ele><time>2026-04-19T14:53:12.352Z</time></trkpt><trkpt lat="45.2734805" lon="9.4526646"><ele>74.0</ele><time>2026-04-19T14:53:13.351Z</time></trkpt><trkpt lat="45.2736555" lon="9.4523891"><ele>74.0</ele><time>2026-04-19T14:53:14.353Z</time></trkpt><trkpt lat="45.2738328" lon="9.4520964"><ele>74.0</ele><time>2026-04-19T14:53:15.35Z</time></trkpt><trkpt lat="45.2740136" lon="9.4518093"><ele>74.5</ele><time>2026-04-19T14:53:16.345Z</time></trkpt><trkpt lat="45.2741953" lon="9.4515159"><ele>75.0</ele><time>2026-04-19T14:53:17.334Z</time></trkpt><trkpt lat="45.2743786" lon="9.4512305"><ele>75.0</ele><time>2026-04-19T14:53:18.346Z</time></trkpt><trkpt lat="45.2745567" lon="9.450928"><ele>75.0</ele><time>2026-04-19T14:53:19.338Z</time></trkpt><trkpt lat="45.2747354" lon="9.45063"><ele>76.0</ele><time>2026-04-19T14:53:20.353Z</time></trkpt><trkpt lat="45.2749115" lon="9.4503255"><ele>77.0</ele><time>2026-04-19T14:53:21.346Z</time></trkpt><trkpt lat="45.2750931" lon="9.4500166"><ele>77.0</ele><time>2026-04-19T14:53:22.34Z</time></trkpt><trkpt lat="45.2752801" lon="9.4497103"><ele>77.0</ele><time>2026-04-19T14:53:23.325Z</time></trkpt><trkpt lat="45.2754709" lon="9.4493938"><ele>76.5</ele><time>2026-04-19T14:53:24.349Z</time></trkpt><trkpt lat="45.2756603" lon="9.449079"><ele>76.0</ele><time>2026-04-19T14:53:25.345Z</time></trkpt><trkpt lat="45.2758446" lon="9.4487669"><ele>77.0</ele><time>2026-04-19T14:53:26.345Z</time></trkpt><trkpt lat="45.2760295" lon="9.4484545"><ele>78.0</ele><time>2026-04-19T14:53:27.343Z</time></trkpt><trkpt lat="45.2762134" lon="9.4481442"><ele>77.0</ele><time>2026-04-19T14:53:28.342Z</time></trkpt><trkpt lat="45.2764042" lon="9.4478339"><ele>76.0</ele><time>2026-04-19T14:53:29.35Z</time></trkpt><trkpt lat="45.2765963" lon="9.4475206"><ele>75.0</ele><time>2026-04-19T14:53:30.336Z</time></trkpt><trkpt lat="45.2767857" lon="9.4472058"><ele>74.0</ele><time>2026-04-19T14:53:31.348Z</time></trkpt><trkpt lat="45.2769748" lon="9.4468912"><ele>74.0</ele><time>2026-04-19T14:53:32.34Z</time></trkpt><trkpt lat="45.2771714" lon="9.4465775"><ele>74.0</ele><time>2026-04-19T14:53:33.303Z</time></trkpt><trkpt lat="45.2773675" lon="9.4462693"><ele>73.5</ele><time>2026-04-19T14:53:34.353Z</time></trkpt><trkpt lat="45.2775521" lon="9.445957"><ele>73.0</ele><time>2026-04-19T14:53:35.345Z</time></trkpt><trkpt lat="45.2777375" lon="9.445642"><ele>73.0</ele><time>2026-04-19T14:53:36.357Z</time></trkpt><trkpt lat="45.277923" lon="9.4453245"><ele>73.0</ele><time>2026-04-19T14:53:37.363Z</time></trkpt><trkpt lat="45.2781103" lon="9.4450021"><ele>73.0</ele><time>2026-04-19T14:53:38.34Z</time></trkpt><trkpt lat="45.2782962" lon="9.4446844"><ele>73.0</ele><time>2026-04-19T14:53:39.342Z</time></trkpt><trkpt lat="45.2784814" lon="9.4443773"><ele>73.0</ele><time>2026-04-19T14:53:40.345Z</time></trkpt><trkpt lat="45.27867" lon="9.4440658"><ele>73.0</ele><time>2026-04-19T14:53:41.341Z</time></trkpt><trkpt lat="45.2788634" lon="9.4437507"><ele>73.0</ele><time>2026-04-19T14:53:42.335Z</time></trkpt><trkpt lat="45.2790549" lon="9.4434337"><ele>73.0</ele><time>2026-04-19T14:53:43.318Z</time></trkpt><trkpt lat="45.279248" lon="9.4431135"><ele>73.0</ele><time>2026-04-19T14:53:44.34Z</time></trkpt><trkpt lat="45.27944" lon="9.4427959"><ele>73.0</ele><time>2026-04-19T14:53:45.348Z</time></trkpt><trkpt lat="45.2796303" lon="9.4424786"><ele>73.0</ele><time>2026-04-19T14:53:46.35Z</time></trkpt><trkpt lat="45.2798181" lon="9.4421671"><ele>73.0</ele><time>2026-04-19T14:53:47.346Z</time></trkpt><trkpt lat="45.2800067" lon="9.4418514"><ele>73.0</ele><time>2026-04-19T14:53:48.349Z</time></trkpt><trkpt lat="45.2801897" lon="9.4415389"><ele>73.0</ele><time>2026-04-19T14:53:49.312Z</time></trkpt><trkpt lat="45.2803782" lon="9.4412204"><ele>73.0</ele><time>2026-04-19T14:53:50.341Z</time></trkpt><trkpt lat="45.2805672" lon="9.4409123"><ele>73.0</ele><time>2026-04-19T14:53:51.347Z</time></trkpt><trkpt lat="45.2807559" lon="9.4406047"><ele>73.0</ele><time>2026-04-19T14:53:52.343Z</time></trkpt><trkpt lat="45.2809433" lon="9.4402907"><ele>73.0</ele><time>2026-04-19T14:53:53.345Z</time></trkpt><trkpt lat="45.2811279" lon="9.4399759"><ele>73.0</ele><time>2026-04-19T14:53:54.347Z</time></trkpt><trkpt lat="45.2813137" lon="9.4396702"><ele>73.0</ele><time>2026-04-19T14:53:55.349Z</time></trkpt><trkpt lat="45.2814945" lon="9.439367"><ele>73.0</ele><time>2026-04-19T14:53:56.341Z</time></trkpt><trkpt lat="45.2816792" lon="9.4390606"><ele>73.0</ele><time>2026-04-19T14:53:57.347Z</time></trkpt><trkpt lat="45.2818702" lon="9.4387508"><ele>73.0</ele><time>2026-04-19T14:53:58.345Z</time></trkpt><trkpt lat="45.282062" lon="9.4384468"><ele>73.0</ele><time>2026-04-19T14:53:59.352Z</time></trkpt><trkpt lat="45.2822504" lon="9.4381419"><ele>73.5</ele><time>2026-04-19T14:54:00.361Z</time></trkpt><trkpt lat="45.2824343" lon="9.4378337"><ele>74.0</ele><time>2026-04-19T14:54:01.343Z</time></trkpt><trkpt lat="45.2826109" lon="9.4375251"><ele>74.0</ele><time>2026-04-19T14:54:02.34Z</time></trkpt><trkpt lat="45.2827889" lon="9.4372237"><ele>74.0</ele><time>2026-04-19T14:54:03.349Z</time></trkpt><trkpt lat="45.2829687" lon="9.4369145"><ele>74.5</ele><time>2026-04-19T14:54:04.35Z</time></trkpt><trkpt lat="45.2831497" lon="9.43661"><ele>75.0</ele><time>2026-04-19T14:54:05.348Z</time></trkpt><trkpt lat="45.2833284" lon="9.4363057"><ele>75.0</ele><time>2026-04-19T14:54:06.345Z</time></trkpt><trkpt lat="45.283506" lon="9.4359972"><ele>75.0</ele><time>2026-04-19T14:54:07.36Z</time></trkpt><trkpt lat="45.2836883" lon="9.4356967"><ele>75.0</ele><time>2026-04-19T14:54:08.341Z</time></trkpt><trkpt lat="45.2838669" lon="9.4353917"><ele>75.0</ele><time>2026-04-19T14:54:09.355Z</time></trkpt><trkpt lat="45.2840471" lon="9.4350983"><ele>74.5</ele><time>2026-04-19T14:54:10.334Z</time></trkpt><trkpt lat="45.2842308" lon="9.4347977"><ele>74.0</ele><time>2026-04-19T14:54:11.332Z</time></trkpt><trkpt lat="45.2844121" lon="9.4345025"><ele>74.0</ele><time>2026-04-19T14:54:12.344Z</time></trkpt><trkpt lat="45.2845958" lon="9.4342038"><ele>74.0</ele><time>2026-04-19T14:54:13.345Z</time></trkpt><trkpt lat="45.2847793" lon="9.4339037"><ele>75.0</ele><time>2026-04-19T14:54:14.346Z</time></trkpt><trkpt lat="45.2849623" lon="9.4336062"><ele>76.0</ele><time>2026-04-19T14:54:15.353Z</time></trkpt><trkpt lat="45.2851476" lon="9.433304"><ele>76.0</ele><time>2026-04-19T14:54:16.347Z</time></trkpt><trkpt lat="45.2853228" lon="9.4329995"><ele>76.0</ele><time>2026-04-19T14:54:17.349Z</time></trkpt><trkpt lat="45.2855063" lon="9.4327018"><ele>76.0</ele><time>2026-04-19T14:54:18.338Z</time></trkpt><trkpt lat="45.2856932" lon="9.4323925"><ele>76.0</ele><time>2026-04-19T14:54:19.347Z</time></trkpt><trkpt lat="45.2858733" lon="9.4320916"><ele>75.5</ele><time>2026-04-19T14:54:20.343Z</time></trkpt><trkpt lat="45.2860489" lon="9.4317955"><ele>75.0</ele><time>2026-04-19T14:54:21.348Z</time></trkpt><trkpt lat="45.2862305" lon="9.431493"><ele>74.5</ele><time>2026-04-19T14:54:22.34Z</time></trkpt><trkpt lat="45.2864067" lon="9.4311871"><ele>74.0</ele><time>2026-04-19T14:54:23.343Z</time></trkpt><trkpt lat="45.2865903" lon="9.430873"><ele>74.0</ele><time>2026-04-19T14:54:24.347Z</time></trkpt><trkpt lat="45.2867725" lon="9.4305611"><ele>74.0</ele><time>2026-04-19T14:54:25.341Z</time></trkpt><trkpt lat="45.2869499" lon="9.4302447"><ele>75.5</ele><time>2026-04-19T14:54:26.347Z</time></trkpt><trkpt lat="45.2871289" lon="9.4299243"><ele>77.0</ele><time>2026-04-19T14:54:27.355Z</time></trkpt><trkpt lat="45.2873034" lon="9.4296122"><ele>78.5</ele><time>2026-04-19T14:54:28.339Z</time></trkpt><trkpt lat="45.2874797" lon="9.4292932"><ele>80.0</ele><time>2026-04-19T14:54:29.352Z</time></trkpt><trkpt lat="45.287652" lon="9.428978"><ele>79.0</ele><time>2026-04-19T14:54:30.356Z</time></trkpt><trkpt lat="45.2878239" lon="9.4286582"><ele>78.0</ele><time>2026-04-19T14:54:31.352Z</time></trkpt><trkpt lat="45.2880019" lon="9.4283439"><ele>77.5</ele><time>2026-04-19T14:54:32.357Z</time></trkpt><trkpt lat="45.2881767" lon="9.4280293"><ele>77.0</ele><time>2026-04-19T14:54:33.346Z</time></trkpt><trkpt lat="45.2883544" lon="9.4277086"><ele>77.0</ele><time>2026-04-19T14:54:34.341Z</time></trkpt><trkpt lat="45.288528" lon="9.4273971"><ele>77.0</ele><time>2026-04-19T14:54:35.354Z</time></trkpt><trkpt lat="45.2887073" lon="9.4270799"><ele>77.0</ele><time>2026-04-19T14:54:36.356Z</time></trkpt><trkpt lat="45.2888889" lon="9.4267627"><ele>77.0</ele><time>2026-04-19T14:54:37.346Z</time></trkpt><trkpt lat="45.2890645" lon="9.4264399"><ele>77.0</ele><time>2026-04-19T14:54:38.353Z</time></trkpt><trkpt lat="45.2892434" lon="9.4261182"><ele>77.0</ele><time>2026-04-19T14:54:39.365Z</time></trkpt><trkpt lat="45.2894269" lon="9.4257947"><ele>76.5</ele><time>2026-04-19T14:54:40.338Z</time></trkpt><trkpt lat="45.2896091" lon="9.4254743"><ele>76.0</ele><time>2026-04-19T14:54:41.362Z</time></trkpt><trkpt lat="45.2897897" lon="9.4251517"><ele>76.0</ele><time>2026-04-19T14:54:42.331Z</time></trkpt><trkpt lat="45.2899686" lon="9.4248241"><ele>76.0</ele><time>2026-04-19T14:54:43.332Z</time></trkpt><trkpt lat="45.2901488" lon="9.4245028"><ele>76.0</ele><time>2026-04-19T14:54:44.358Z</time></trkpt><trkpt lat="45.29033" lon="9.4241799"><ele>76.0</ele><time>2026-04-19T14:54:45.349Z</time></trkpt><trkpt lat="45.2905085" lon="9.4238505"><ele>76.0</ele><time>2026-04-19T14:54:46.346Z</time></trkpt><trkpt lat="45.2906867" lon="9.4235223"><ele>76.0</ele><time>2026-04-19T14:54:47.348Z</time></trkpt><trkpt lat="45.2908641" lon="9.4232039"><ele>76.0</ele><time>2026-04-19T14:54:48.337Z</time></trkpt><trkpt lat="45.2910368" lon="9.4228792"><ele>76.0</ele><time>2026-04-19T14:54:49.338Z</time></trkpt><trkpt lat="45.2912145" lon="9.4225631"><ele>76.0</ele><time>2026-04-19T14:54:50.339Z</time></trkpt><trkpt lat="45.2913892" lon="9.4222406"><ele>76.0</ele><time>2026-04-19T14:54:51.356Z</time></trkpt><trkpt lat="45.2915706" lon="9.4219177"><ele>76.0</ele><time>2026-04-19T14:54:52.349Z</time></trkpt><trkpt lat="45.2917591" lon="9.4215914"><ele>76.0</ele><time>2026-04-19T14:54:53.344Z</time></trkpt><trkpt lat="45.2919362" lon="9.4212763"><ele>76.0</ele><time>2026-04-19T14:54:54.351Z</time></trkpt><trkpt lat="45.2921198" lon="9.4209578"><ele>76.0</ele><time>2026-04-19T14:54:55.341Z</time></trkpt><trkpt lat="45.2922982" lon="9.4206391"><ele>75.5</ele><time>2026-04-19T14:54:56.35Z</time></trkpt><trkpt lat="45.2924759" lon="9.4203261"><ele>75.0</ele><time>2026-04-19T14:54:57.341Z</time></trkpt><trkpt lat="45.2926557" lon="9.420002"><ele>75.0</ele><time>2026-04-19T14:54:58.345Z</time></trkpt><trkpt lat="45.2928353" lon="9.4196866"><ele>75.0</ele><time>2026-04-19T14:54:59.35Z</time></trkpt><trkpt lat="45.2930123" lon="9.4193661"><ele>75.0</ele><time>2026-04-19T14:55:00.351Z</time></trkpt><trkpt lat="45.2931919" lon="9.4190585"><ele>75.0</ele><time>2026-04-19T14:55:01.356Z</time></trkpt><trkpt lat="45.2933681" lon="9.4187417"><ele>75.0</ele><time>2026-04-19T14:55:02.364Z</time></trkpt><trkpt lat="45.2935519" lon="9.4184367"><ele>75.0</ele><time>2026-04-19T14:55:03.344Z</time></trkpt><trkpt lat="45.2937342" lon="9.4181268"><ele>76.0</ele><time>2026-04-19T14:55:04.307Z</time></trkpt><trkpt lat="45.2939165" lon="9.4178165"><ele>77.0</ele><time>2026-04-19T14:55:05.337Z</time></trkpt><trkpt lat="45.294092" lon="9.4175097"><ele>77.0</ele><time>2026-04-19T14:55:06.344Z</time></trkpt><trkpt lat="45.294278" lon="9.4171997"><ele>77.0</ele><time>2026-04-19T14:55:07.333Z</time></trkpt><trkpt lat="45.2944547" lon="9.416891"><ele>77.0</ele><time>2026-04-19T14:55:08.351Z</time></trkpt><trkpt lat="45.2946381" lon="9.4165881"><ele>77.0</ele><time>2026-04-19T14:55:09.353Z</time></trkpt><trkpt lat="45.2948201" lon="9.4162712"><ele>77.0</ele><time>2026-04-19T14:55:10.35Z</time></trkpt><trkpt lat="45.2950092" lon="9.4159631"><ele>77.0</ele><time>2026-04-19T14:55:11.343Z</time></trkpt><trkpt lat="45.2951979" lon="9.4156653"><ele>76.5</ele><time>2026-04-19T14:55:12.343Z</time></trkpt><trkpt lat="45.29539" lon="9.4153498"><ele>76.0</ele><time>2026-04-19T14:55:13.332Z</time></trkpt><trkpt lat="45.295583" lon="9.4150414"><ele>76.0</ele><time>2026-04-19T14:55:14.347Z</time></trkpt><trkpt lat="45.2957729" lon="9.4147292"><ele>76.0</ele><time>2026-04-19T14:55:15.33Z</time></trkpt><trkpt lat="45.2959668" lon="9.4144225"><ele>76.0</ele><time>2026-04-19T14:55:16.339Z</time></trkpt><trkpt lat="45.296164" lon="9.4141106"><ele>76.0</ele><time>2026-04-19T14:55:17.342Z</time></trkpt><trkpt lat="45.2963566" lon="9.4137994"><ele>77.0</ele><time>2026-04-19T14:55:18.346Z</time></trkpt><trkpt lat="45.2965548" lon="9.4134864"><ele>78.0</ele><time>2026-04-19T14:55:19.328Z</time></trkpt><trkpt lat="45.2967511" lon="9.4131686"><ele>78.5</ele><time>2026-04-19T14:55:20.35Z</time></trkpt><trkpt lat="45.2969537" lon="9.4128485"><ele>79.0</ele><time>2026-04-19T14:55:21.345Z</time></trkpt><trkpt lat="45.2971543" lon="9.4125339"><ele>79.0</ele><time>2026-04-19T14:55:22.342Z</time></trkpt><trkpt lat="45.297359" lon="9.4122277"><ele>79.0</ele><time>2026-04-19T14:55:23.345Z</time></trkpt><trkpt lat="45.2975597" lon="9.4119287"><ele>78.0</ele><time>2026-04-19T14:55:24.345Z</time></trkpt><trkpt lat="45.29776" lon="9.411623"><ele>77.0</ele><time>2026-04-19T14:55:25.329Z</time></trkpt><trkpt lat="45.2979652" lon="9.4113182"><ele>78.0</ele><time>2026-04-19T14:55:26.343Z</time></trkpt><trkpt lat="45.2981741" lon="9.4110055"><ele>79.0</ele><time>2026-04-19T14:55:27.344Z</time></trkpt><trkpt lat="45.2983789" lon="9.4106987"><ele>78.0</ele><time>2026-04-19T14:55:28.344Z</time></trkpt><trkpt lat="45.2985813" lon="9.4104014"><ele>77.0</ele><time>2026-04-19T14:55:29.363Z</time></trkpt><trkpt lat="45.2987813" lon="9.410102"><ele>77.0</ele><time>2026-04-19T14:55:30.322Z</time></trkpt><trkpt lat="45.2989845" lon="9.4097979"><ele>77.0</ele><time>2026-04-19T14:55:31.353Z</time></trkpt><trkpt lat="45.2991929" lon="9.4094924"><ele>77.5</ele><time>2026-04-19T14:55:32.35Z</time></trkpt><trkpt lat="45.2994019" lon="9.4091911"><ele>78.0</ele><time>2026-04-19T14:55:33.344Z</time></trkpt><trkpt lat="45.2996129" lon="9.408889"><ele>79.0</ele><time>2026-04-19T14:55:34.349Z</time></trkpt><trkpt lat="45.2998247" lon="9.4085877"><ele>80.0</ele><time>2026-04-19T14:55:35.363Z</time></trkpt><trkpt lat="45.3000388" lon="9.4082911"><ele>80.0</ele><time>2026-04-19T14:55:36.319Z</time></trkpt><trkpt lat="45.3002571" lon="9.4079937"><ele>80.0</ele><time>2026-04-19T14:55:37.348Z</time></trkpt><trkpt lat="45.3004753" lon="9.4076984"><ele>80.0</ele><time>2026-04-19T14:55:38.318Z</time></trkpt><trkpt lat="45.3006913" lon="9.407402"><ele>80.0</ele><time>2026-04-19T14:55:39.337Z</time></trkpt><trkpt lat="45.3009102" lon="9.407099"><ele>80.0</ele><time>2026-04-19T14:55:40.333Z</time></trkpt><trkpt lat="45.3011243" lon="9.4067959"><ele>80.0</ele><time>2026-04-19T14:55:41.35Z</time></trkpt><trkpt lat="45.3013451" lon="9.406493"><ele>79.5</ele><time>2026-04-19T14:55:42.35Z</time></trkpt><trkpt lat="45.3015605" lon="9.4061848"><ele>79.0</ele><time>2026-04-19T14:55:43.34Z</time></trkpt><trkpt lat="45.3017785" lon="9.4058938"><ele>79.0</ele><time>2026-04-19T14:55:44.342Z</time></trkpt><trkpt lat="45.3019959" lon="9.4055905"><ele>79.0</ele><time>2026-04-19T14:55:45.348Z</time></trkpt><trkpt lat="45.3022157" lon="9.4052854"><ele>79.5</ele><time>2026-04-19T14:55:46.334Z</time></trkpt><trkpt lat="45.3024329" lon="9.4049791"><ele>80.0</ele><time>2026-04-19T14:55:47.341Z</time></trkpt><trkpt lat="45.3026486" lon="9.4046883"><ele>79.5</ele><time>2026-04-19T14:55:48.335Z</time></trkpt><trkpt lat="45.302874" lon="9.4043939"><ele>79.0</ele><time>2026-04-19T14:55:49.332Z</time></trkpt><trkpt lat="45.3030885" lon="9.4040954"><ele>79.0</ele><time>2026-04-19T14:55:50.338Z</time></trkpt><trkpt lat="45.3033015" lon="9.4038"><ele>79.0</ele><time>2026-04-19T14:55:51.34Z</time></trkpt><trkpt lat="45.3035166" lon="9.4034965"><ele>79.0</ele><time>2026-04-19T14:55:52.343Z</time></trkpt><trkpt lat="45.3037288" lon="9.4031887"><ele>79.0</ele><time>2026-04-19T14:55:53.319Z</time></trkpt><trkpt lat="45.3039409" lon="9.4028893"><ele>79.0</ele><time>2026-04-19T14:55:54.349Z</time></trkpt><trkpt lat="45.3041571" lon="9.4025854"><ele>79.0</ele><time>2026-04-19T14:55:55.335Z</time></trkpt><trkpt lat="45.3043653" lon="9.4022773"><ele>79.0</ele><time>2026-04-19T14:55:56.341Z</time></trkpt><trkpt lat="45.3045706" lon="9.4019763"><ele>79.0</ele><time>2026-04-19T14:55:57.36Z</time></trkpt><trkpt lat="45.3047718" lon="9.4016705"><ele>79.0</ele><time>2026-04-19T14:55:58.355Z</time></trkpt><trkpt lat="45.3049669" lon="9.4013689"><ele>79.0</ele><time>2026-04-19T14:55:59.35Z</time></trkpt><trkpt lat="45.3051587" lon="9.4010672"><ele>80.0</ele><time>2026-04-19T14:56:00.345Z</time></trkpt><trkpt lat="45.3053526" lon="9.4007622"><ele>81.0</ele><time>2026-04-19T14:56:01.343Z</time></trkpt><trkpt lat="45.3055416" lon="9.4004635"><ele>81.0</ele><time>2026-04-19T14:56:02.349Z</time></trkpt><trkpt lat="45.3057358" lon="9.4001648"><ele>81.0</ele><time>2026-04-19T14:56:03.335Z</time></trkpt><trkpt lat="45.3059364" lon="9.3998699"><ele>81.0</ele><time>2026-04-19T14:56:04.341Z</time></trkpt><trkpt lat="45.3061317" lon="9.3995785"><ele>81.0</ele><time>2026-04-19T14:56:05.345Z</time></trkpt><trkpt lat="45.3063274" lon="9.3992859"><ele>81.5</ele><time>2026-04-19T14:56:06.343Z</time></trkpt><trkpt lat="45.3065176" lon="9.3989952"><ele>82.0</ele><time>2026-04-19T14:56:07.349Z</time></trkpt><trkpt lat="45.3067208" lon="9.3986949"><ele>82.0</ele><time>2026-04-19T14:56:08.344Z</time></trkpt><trkpt lat="45.3069145" lon="9.398405"><ele>82.0</ele><time>2026-04-19T14:56:09.341Z</time></trkpt><trkpt lat="45.307109" lon="9.3981157"><ele>81.0</ele><time>2026-04-19T14:56:10.346Z</time></trkpt><trkpt lat="45.3072949" lon="9.3978286"><ele>80.0</ele><time>2026-04-19T14:56:11.321Z</time></trkpt><trkpt lat="45.3074815" lon="9.3975393"><ele>80.0</ele><time>2026-04-19T14:56:12.323Z</time></trkpt><trkpt lat="45.3076682" lon="9.3972548"><ele>80.0</ele><time>2026-04-19T14:56:13.348Z</time></trkpt><trkpt lat="45.3078576" lon="9.3969647"><ele>80.0</ele><time>2026-04-19T14:56:14.35Z</time></trkpt><trkpt lat="45.3080505" lon="9.3966655"><ele>80.0</ele><time>2026-04-19T14:56:15.35Z</time></trkpt><trkpt lat="45.3082411" lon="9.3963721"><ele>80.5</ele><time>2026-04-19T14:56:16.347Z</time></trkpt><trkpt lat="45.3084336" lon="9.3960804"><ele>81.0</ele><time>2026-04-19T14:56:17.34Z</time></trkpt><trkpt lat="45.3086217" lon="9.395787"><ele>81.0</ele><time>2026-04-19T14:56:18.34Z</time></trkpt><trkpt lat="45.3088101" lon="9.395501"><ele>81.0</ele><time>2026-04-19T14:56:19.334Z</time></trkpt><trkpt lat="45.3090002" lon="9.3952167"><ele>81.0</ele><time>2026-04-19T14:56:20.349Z</time></trkpt><trkpt lat="45.3091961" lon="9.3949316"><ele>81.0</ele><time>2026-04-19T14:56:21.353Z</time></trkpt><trkpt lat="45.3093859" lon="9.3946387"><ele>81.0</ele><time>2026-04-19T14:56:22.35Z</time></trkpt><trkpt lat="45.3095759" lon="9.3943412"><ele>81.0</ele><time>2026-04-19T14:56:23.352Z</time></trkpt><trkpt lat="45.3097611" lon="9.3940469"><ele>81.0</ele><time>2026-04-19T14:56:24.35Z</time></trkpt><trkpt lat="45.3099436" lon="9.3937491"><ele>81.0</ele><time>2026-04-19T14:56:25.34Z</time></trkpt><trkpt lat="45.3101307" lon="9.3934635"><ele>81.0</ele><time>2026-04-19T14:56:26.307Z</time></trkpt><trkpt lat="45.3103131" lon="9.3931739"><ele>81.0</ele><time>2026-04-19T14:56:27.296Z</time></trkpt><trkpt lat="45.3104997" lon="9.3928877"><ele>81.0</ele><time>2026-04-19T14:56:28.33Z</time></trkpt><trkpt lat="45.310684" lon="9.3926041"><ele>81.0</ele><time>2026-04-19T14:56:29.301Z</time></trkpt><trkpt lat="45.3108755" lon="9.3923174"><ele>80.5</ele><time>2026-04-19T14:56:30.299Z</time></trkpt><trkpt lat="45.3110655" lon="9.3920239"><ele>80.0</ele><time>2026-04-19T14:56:31.328Z</time></trkpt><trkpt lat="45.3112566" lon="9.3917403"><ele>80.0</ele><time>2026-04-19T14:56:32.312Z</time></trkpt><trkpt lat="45.3114467" lon="9.391463"><ele>80.0</ele><time>2026-04-19T14:56:33.324Z</time></trkpt><trkpt lat="45.3116358" lon="9.3911797"><ele>80.0</ele><time>2026-04-19T14:56:34.326Z</time></trkpt><trkpt lat="45.3118228" lon="9.390893"><ele>80.0</ele><time>2026-04-19T14:56:35.333Z</time></trkpt><trkpt lat="45.3120017" lon="9.3906105"><ele>80.0</ele><time>2026-04-19T14:56:36.355Z</time></trkpt><trkpt lat="45.312184" lon="9.3903309"><ele>80.0</ele><time>2026-04-19T14:56:37.332Z</time></trkpt><trkpt lat="45.3123585" lon="9.3900533"><ele>80.0</ele><time>2026-04-19T14:56:38.333Z</time></trkpt><trkpt lat="45.3125405" lon="9.3897844"><ele>80.0</ele><time>2026-04-19T14:56:39.305Z</time></trkpt><trkpt lat="45.3127192" lon="9.3895044"><ele>80.0</ele><time>2026-04-19T14:56:40.354Z</time></trkpt><trkpt lat="45.3128898" lon="9.3892345"><ele>80.0</ele><time>2026-04-19T14:56:41.333Z</time></trkpt><trkpt lat="45.3130753" lon="9.3889558"><ele>81.0</ele><time>2026-04-19T14:56:42.319Z</time></trkpt><trkpt lat="45.3132537" lon="9.3886826"><ele>82.0</ele><time>2026-04-19T14:56:43.327Z</time></trkpt><trkpt lat="45.3134337" lon="9.3884096"><ele>82.0</ele><time>2026-04-19T14:56:44.312Z</time></trkpt><trkpt lat="45.3136148" lon="9.3881383"><ele>82.0</ele><time>2026-04-19T14:56:45.349Z</time></trkpt><trkpt lat="45.3137941" lon="9.3878558"><ele>81.5</ele><time>2026-04-19T14:56:46.344Z</time></trkpt><trkpt lat="45.3139741" lon="9.3875639"><ele>81.0</ele><time>2026-04-19T14:56:47.344Z</time></trkpt><trkpt lat="45.3141502" lon="9.3872823"><ele>82.0</ele><time>2026-04-19T14:56:48.315Z</time></trkpt><trkpt lat="45.3143385" lon="9.3870039"><ele>83.0</ele><time>2026-04-19T14:56:49.338Z</time></trkpt><trkpt lat="45.3145237" lon="9.3867119"><ele>83.0</ele><time>2026-04-19T14:56:50.32Z</time></trkpt><trkpt lat="45.3147097" lon="9.3864276"><ele>83.0</ele><time>2026-04-19T14:56:51.336Z</time></trkpt><trkpt lat="45.3149001" lon="9.3861396"><ele>81.5</ele><time>2026-04-19T14:56:52.335Z</time></trkpt><trkpt lat="45.3150863" lon="9.3858488"><ele>80.0</ele><time>2026-04-19T14:56:53.349Z</time></trkpt><trkpt lat="45.3152773" lon="9.3855585"><ele>80.5</ele><time>2026-04-19T14:56:54.33Z</time></trkpt><trkpt lat="45.3154722" lon="9.3852647"><ele>81.0</ele><time>2026-04-19T14:56:55.306Z</time></trkpt><trkpt lat="45.3156662" lon="9.3849683"><ele>81.0</ele><time>2026-04-19T14:56:56.341Z</time></trkpt><trkpt lat="45.3158594" lon="9.3846761"><ele>81.0</ele><time>2026-04-19T14:56:57.329Z</time></trkpt><trkpt lat="45.3160491" lon="9.3843838"><ele>81.0</ele><time>2026-04-19T14:56:58.325Z</time></trkpt><trkpt lat="45.316241" lon="9.3840975"><ele>81.0</ele><time>2026-04-19T14:56:59.333Z</time></trkpt><trkpt lat="45.3164295" lon="9.3838081"><ele>81.5</ele><time>2026-04-19T14:57:00.362Z</time></trkpt><trkpt lat="45.3166225" lon="9.3835192"><ele>82.0</ele><time>2026-04-19T14:57:01.378Z</time></trkpt><trkpt lat="45.3168152" lon="9.3832239"><ele>82.0</ele><time>2026-04-19T14:57:02.346Z</time></trkpt><trkpt lat="45.3170017" lon="9.3829348"><ele>82.0</ele><time>2026-04-19T14:57:03.346Z</time></trkpt><trkpt lat="45.3171994" lon="9.3826355"><ele>82.0</ele><time>2026-04-19T14:57:04.35Z</time></trkpt><trkpt lat="45.3173857" lon="9.3823384"><ele>82.0</ele><time>2026-04-19T14:57:05.338Z</time></trkpt><trkpt lat="45.3175755" lon="9.3820381"><ele>82.0</ele><time>2026-04-19T14:57:06.351Z</time></trkpt><trkpt lat="45.3177652" lon="9.3817414"><ele>82.0</ele><time>2026-04-19T14:57:07.351Z</time></trkpt><trkpt lat="45.3179623" lon="9.3814556"><ele>82.5</ele><time>2026-04-19T14:57:08.337Z</time></trkpt><trkpt lat="45.3181513" lon="9.3811599"><ele>83.0</ele><time>2026-04-19T14:57:09.34Z</time></trkpt><trkpt lat="45.3183464" lon="9.3808585"><ele>83.0</ele><time>2026-04-19T14:57:10.339Z</time></trkpt><trkpt lat="45.3185422" lon="9.3805652"><ele>83.0</ele><time>2026-04-19T14:57:11.351Z</time></trkpt><trkpt lat="45.3187338" lon="9.3802686"><ele>83.5</ele><time>2026-04-19T14:57:12.339Z</time></trkpt><trkpt lat="45.3189231" lon="9.3799681"><ele>84.0</ele><time>2026-04-19T14:57:13.357Z</time></trkpt><trkpt lat="45.3191104" lon="9.3796774"><ele>84.0</ele><time>2026-04-19T14:57:14.335Z</time></trkpt><trkpt lat="45.3193029" lon="9.3793875"><ele>84.0</ele><time>2026-04-19T14:57:15.303Z</time></trkpt><trkpt lat="45.3194922" lon="9.3791074"><ele>84.0</ele><time>2026-04-19T14:57:16.341Z</time></trkpt><trkpt lat="45.3196764" lon="9.378825"><ele>84.0</ele><time>2026-04-19T14:57:17.34Z</time></trkpt><trkpt lat="45.319858" lon="9.3785561"><ele>84.0</ele><time>2026-04-19T14:57:18.332Z</time></trkpt><trkpt lat="45.3200369" lon="9.3782878"><ele>84.0</ele><time>2026-04-19T14:57:19.352Z</time></trkpt><trkpt lat="45.3202137" lon="9.378013"><ele>85.0</ele><time>2026-04-19T14:57:20.339Z</time></trkpt><trkpt lat="45.3203864" lon="9.3777383"><ele>86.0</ele><time>2026-04-19T14:57:21.304Z</time></trkpt><trkpt lat="45.3205613" lon="9.3774683"><ele>85.5</ele><time>2026-04-19T14:57:22.342Z</time></trkpt><trkpt lat="45.3207326" lon="9.3772021"><ele>85.0</ele><time>2026-04-19T14:57:23.36Z</time></trkpt><trkpt lat="45.3209074" lon="9.3769422"><ele>85.0</ele><time>2026-04-19T14:57:24.339Z</time></trkpt><trkpt lat="45.321078" lon="9.3766812"><ele>85.0</ele><time>2026-04-19T14:57:25.341Z</time></trkpt><trkpt lat="45.3212498" lon="9.3764257"><ele>84.5</ele><time>2026-04-19T14:57:26.337Z</time></trkpt><trkpt lat="45.3214182" lon="9.3761625"><ele>84.0</ele><time>2026-04-19T14:57:27.344Z</time></trkpt><trkpt lat="45.3215909" lon="9.3758944"><ele>84.0</ele><time>2026-04-19T14:57:28.344Z</time></trkpt><trkpt lat="45.3217631" lon="9.375635"><ele>84.0</ele><time>2026-04-19T14:57:29.35Z</time></trkpt><trkpt lat="45.321938" lon="9.375369"><ele>84.0</ele><time>2026-04-19T14:57:30.331Z</time></trkpt><trkpt lat="45.3221098" lon="9.3750968"><ele>84.0</ele><time>2026-04-19T14:57:31.335Z</time></trkpt><trkpt lat="45.3222862" lon="9.3748236"><ele>84.0</ele><time>2026-04-19T14:57:32.337Z</time></trkpt><trkpt lat="45.3224602" lon="9.374559"><ele>84.0</ele><time>2026-04-19T14:57:33.352Z</time></trkpt><trkpt lat="45.3226353" lon="9.3742958"><ele>84.0</ele><time>2026-04-19T14:57:34.344Z</time></trkpt><trkpt lat="45.3228167" lon="9.3740243"><ele>84.0</ele><time>2026-04-19T14:57:35.341Z</time></trkpt><trkpt lat="45.3229926" lon="9.3737529"><ele>83.5</ele><time>2026-04-19T14:57:36.353Z</time></trkpt><trkpt lat="45.3231753" lon="9.3734725"><ele>83.0</ele><time>2026-04-19T14:57:37.348Z</time></trkpt><trkpt lat="45.3233616" lon="9.3731872"><ele>82.5</ele><time>2026-04-19T14:57:38.338Z</time></trkpt><trkpt lat="45.3235465" lon="9.3728981"><ele>82.0</ele><time>2026-04-19T14:57:39.35Z</time></trkpt><trkpt lat="45.3237356" lon="9.3726088"><ele>83.5</ele><time>2026-04-19T14:57:40.336Z</time></trkpt><trkpt lat="45.3239218" lon="9.3723313"><ele>85.0</ele><time>2026-04-19T14:57:41.34Z</time></trkpt><trkpt lat="45.3241129" lon="9.372042"><ele>85.0</ele><time>2026-04-19T14:57:42.344Z</time></trkpt><trkpt lat="45.3243022" lon="9.3717453"><ele>85.0</ele><time>2026-04-19T14:57:43.338Z</time></trkpt><trkpt lat="45.3244899" lon="9.3714533"><ele>84.5</ele><time>2026-04-19T14:57:44.345Z</time></trkpt><trkpt lat="45.32468" lon="9.3711632"><ele>84.0</ele><time>2026-04-19T14:57:45.344Z</time></trkpt><trkpt lat="45.3248705" lon="9.3708709"><ele>83.0</ele><time>2026-04-19T14:57:46.353Z</time></trkpt><trkpt lat="45.3250585" lon="9.3705792"><ele>82.0</ele><time>2026-04-19T14:57:47.351Z</time></trkpt><trkpt lat="45.3252425" lon="9.3702952"><ele>82.0</ele><time>2026-04-19T14:57:48.347Z</time></trkpt><trkpt lat="45.3254283" lon="9.3700068"><ele>82.0</ele><time>2026-04-19T14:57:49.346Z</time></trkpt><trkpt lat="45.3256188" lon="9.3697166"><ele>82.5</ele><time>2026-04-19T14:57:50.349Z</time></trkpt><trkpt lat="45.3258041" lon="9.369433"><ele>83.0</ele><time>2026-04-19T14:57:51.338Z</time></trkpt><trkpt lat="45.3259881" lon="9.369154"><ele>83.0</ele><time>2026-04-19T14:57:52.345Z</time></trkpt><trkpt lat="45.3261737" lon="9.3688683"><ele>83.0</ele><time>2026-04-19T14:57:53.364Z</time></trkpt><trkpt lat="45.3263604" lon="9.3685855"><ele>83.0</ele><time>2026-04-19T14:57:54.341Z</time></trkpt><trkpt lat="45.3265439" lon="9.3683063"><ele>83.0</ele><time>2026-04-19T14:57:55.34Z</time></trkpt><trkpt lat="45.326727" lon="9.3680263"><ele>83.0</ele><time>2026-04-19T14:57:56.334Z</time></trkpt><trkpt lat="45.3269065" lon="9.3677516"><ele>83.0</ele><time>2026-04-19T14:57:57.345Z</time></trkpt><trkpt lat="45.3270831" lon="9.3674775"><ele>83.0</ele><time>2026-04-19T14:57:58.344Z</time></trkpt><trkpt lat="45.3272607" lon="9.3672093"><ele>83.0</ele><time>2026-04-19T14:57:59.338Z</time></trkpt><trkpt lat="45.3274374" lon="9.366937"><ele>83.0</ele><time>2026-04-19T14:58:00.331Z</time></trkpt><trkpt lat="45.3276199" lon="9.3666611"><ele>83.0</ele><time>2026-04-19T14:58:01.336Z</time></trkpt><trkpt lat="45.3278014" lon="9.3663751"><ele>83.0</ele><time>2026-04-19T14:58:02.339Z</time></trkpt><trkpt lat="45.3279794" lon="9.366101"><ele>83.0</ele><time>2026-04-19T14:58:03.34Z</time></trkpt><trkpt lat="45.3281565" lon="9.3658237"><ele>83.0</ele><time>2026-04-19T14:58:04.334Z</time></trkpt><trkpt lat="45.3283379" lon="9.365547"><ele>83.0</ele><time>2026-04-19T14:58:05.343Z</time></trkpt><trkpt lat="45.3285188" lon="9.3652747"><ele>83.0</ele><time>2026-04-19T14:58:06.35Z</time></trkpt><trkpt lat="45.3286972" lon="9.3649987"><ele>83.0</ele><time>2026-04-19T14:58:07.336Z</time></trkpt><trkpt lat="45.3288812" lon="9.3647192"><ele>84.0</ele><time>2026-04-19T14:58:08.344Z</time></trkpt><trkpt lat="45.3290608" lon="9.3644512"><ele>85.0</ele><time>2026-04-19T14:58:09.342Z</time></trkpt><trkpt lat="45.329239" lon="9.3641787"><ele>85.0</ele><time>2026-04-19T14:58:10.347Z</time></trkpt><trkpt lat="45.3294202" lon="9.3639083"><ele>85.0</ele><time>2026-04-19T14:58:11.345Z</time></trkpt><trkpt lat="45.3295985" lon="9.3636369"><ele>85.0</ele><time>2026-04-19T14:58:12.361Z</time></trkpt><trkpt lat="45.3297734" lon="9.363364"><ele>85.0</ele><time>2026-04-19T14:58:13.339Z</time></trkpt><trkpt lat="45.3299457" lon="9.3630924"><ele>85.5</ele><time>2026-04-19T14:58:14.337Z</time></trkpt><trkpt lat="45.3301213" lon="9.3628249"><ele>86.0</ele><time>2026-04-19T14:58:15.343Z</time></trkpt><trkpt lat="45.3302943" lon="9.3625509"><ele>86.0</ele><time>2026-04-19T14:58:16.333Z</time></trkpt><trkpt lat="45.3304661" lon="9.3622716"><ele>86.0</ele><time>2026-04-19T14:58:17.344Z</time></trkpt><trkpt lat="45.3306399" lon="9.3620035"><ele>86.0</ele><time>2026-04-19T14:58:18.341Z</time></trkpt><trkpt lat="45.330814" lon="9.3617218"><ele>86.0</ele><time>2026-04-19T14:58:19.354Z</time></trkpt><trkpt lat="45.3309813" lon="9.3614362"><ele>86.0</ele><time>2026-04-19T14:58:20.356Z</time></trkpt><trkpt lat="45.3311489" lon="9.3611449"><ele>86.0</ele><time>2026-04-19T14:58:21.346Z</time></trkpt><trkpt lat="45.3313166" lon="9.3608503"><ele>85.5</ele><time>2026-04-19T14:58:22.353Z</time></trkpt><trkpt lat="45.3314818" lon="9.3605546"><ele>85.0</ele><time>2026-04-19T14:58:23.362Z</time></trkpt><trkpt lat="45.3316425" lon="9.3602474"><ele>84.5</ele><time>2026-04-19T14:58:24.334Z</time></trkpt><trkpt lat="45.3318084" lon="9.359942"><ele>84.0</ele><time>2026-04-19T14:58:25.341Z</time></trkpt><trkpt lat="45.3319748" lon="9.3596254"><ele>84.0</ele><time>2026-04-19T14:58:26.344Z</time></trkpt><trkpt lat="45.3321345" lon="9.359307"><ele>84.0</ele><time>2026-04-19T14:58:27.355Z</time></trkpt><trkpt lat="45.332288" lon="9.3589856"><ele>84.5</ele><time>2026-04-19T14:58:28.346Z</time></trkpt><trkpt lat="45.3324471" lon="9.3586584"><ele>85.0</ele><time>2026-04-19T14:58:29.339Z</time></trkpt><trkpt lat="45.3326001" lon="9.3583261"><ele>83.5</ele><time>2026-04-19T14:58:30.332Z</time></trkpt><trkpt lat="45.3327506" lon="9.3579908"><ele>82.0</ele><time>2026-04-19T14:58:31.344Z</time></trkpt><trkpt lat="45.3329044" lon="9.3576405"><ele>82.0</ele><time>2026-04-19T14:58:32.352Z</time></trkpt><trkpt lat="45.3330509" lon="9.3572906"><ele>82.0</ele><time>2026-04-19T14:58:33.348Z</time></trkpt><trkpt lat="45.3331959" lon="9.3569405"><ele>81.0</ele><time>2026-04-19T14:58:34.315Z</time></trkpt><trkpt lat="45.3333459" lon="9.3565855"><ele>80.0</ele><time>2026-04-19T14:58:35.346Z</time></trkpt><trkpt lat="45.3334925" lon="9.3562284"><ele>80.0</ele><time>2026-04-19T14:58:36.354Z</time></trkpt><trkpt lat="45.3336311" lon="9.355863"><ele>80.0</ele><time>2026-04-19T14:58:37.361Z</time></trkpt><trkpt lat="45.33376" lon="9.3555001"><ele>80.5</ele><time>2026-04-19T14:58:38.331Z</time></trkpt><trkpt lat="45.3338951" lon="9.3551271"><ele>81.0</ele><time>2026-04-19T14:58:39.334Z</time></trkpt><trkpt lat="45.3340315" lon="9.3547516"><ele>81.0</ele><time>2026-04-19T14:58:40.352Z</time></trkpt><trkpt lat="45.3341537" lon="9.3543809"><ele>81.0</ele><time>2026-04-19T14:58:41.344Z</time></trkpt><trkpt lat="45.3342731" lon="9.3540019"><ele>80.5</ele><time>2026-04-19T14:58:42.345Z</time></trkpt><trkpt lat="45.3343872" lon="9.3536159"><ele>80.0</ele><time>2026-04-19T14:58:43.343Z</time></trkpt><trkpt lat="45.3344987" lon="9.3532287"><ele>79.5</ele><time>2026-04-19T14:58:44.338Z</time></trkpt><trkpt lat="45.3346045" lon="9.3528406"><ele>79.0</ele><time>2026-04-19T14:58:45.323Z</time></trkpt><trkpt lat="45.3347068" lon="9.3524613"><ele>79.0</ele><time>2026-04-19T14:58:46.35Z</time></trkpt><trkpt lat="45.3348072" lon="9.352078"><ele>79.0</ele><time>2026-04-19T14:58:47.342Z</time></trkpt><trkpt lat="45.3349028" lon="9.3516949"><ele>80.0</ele><time>2026-04-19T14:58:48.348Z</time></trkpt><trkpt lat="45.3349963" lon="9.351309"><ele>81.0</ele><time>2026-04-19T14:58:49.343Z</time></trkpt><trkpt lat="45.3350853" lon="9.3509279"><ele>81.0</ele><time>2026-04-19T14:58:50.34Z</time></trkpt><trkpt lat="45.33517" lon="9.3505509"><ele>81.0</ele><time>2026-04-19T14:58:51.347Z</time></trkpt><trkpt lat="45.3352563" lon="9.3501696"><ele>80.5</ele><time>2026-04-19T14:58:52.343Z</time></trkpt><trkpt lat="45.3353357" lon="9.3497887"><ele>80.0</ele><time>2026-04-19T14:58:53.336Z</time></trkpt><trkpt lat="45.3354055" lon="9.3494178"><ele>80.0</ele><time>2026-04-19T14:58:54.352Z</time></trkpt><trkpt lat="45.3354776" lon="9.3490457"><ele>80.0</ele><time>2026-04-19T14:58:55.359Z</time></trkpt><trkpt lat="45.3355436" lon="9.3486766"><ele>80.0</ele><time>2026-04-19T14:58:56.349Z</time></trkpt><trkpt lat="45.3356041" lon="9.3483078"><ele>80.0</ele><time>2026-04-19T14:58:57.35Z</time></trkpt><trkpt lat="45.3356638" lon="9.3479499"><ele>80.0</ele><time>2026-04-19T14:58:58.348Z</time></trkpt><trkpt lat="45.3357209" lon="9.3475866"><ele>80.0</ele><time>2026-04-19T14:58:59.342Z</time></trkpt><trkpt lat="45.3357763" lon="9.3472118"><ele>79.5</ele><time>2026-04-19T14:59:00.352Z</time></trkpt><trkpt lat="45.3358331" lon="9.3468352"><ele>79.0</ele><time>2026-04-19T14:59:01.341Z</time></trkpt><trkpt lat="45.3358899" lon="9.3464608"><ele>79.0</ele><time>2026-04-19T14:59:02.333Z</time></trkpt><trkpt lat="45.3359478" lon="9.3460867"><ele>79.0</ele><time>2026-04-19T14:59:03.352Z</time></trkpt><trkpt lat="45.3360056" lon="9.3457209"><ele>79.0</ele><time>2026-04-19T14:59:04.348Z</time></trkpt><trkpt lat="45.3360549" lon="9.3453562"><ele>79.0</ele><time>2026-04-19T14:59:05.348Z</time></trkpt><trkpt lat="45.3361058" lon="9.3450037"><ele>78.5</ele><time>2026-04-19T14:59:06.354Z</time></trkpt><trkpt lat="45.336161" lon="9.3446441"><ele>78.0</ele><time>2026-04-19T14:59:07.329Z</time></trkpt><trkpt lat="45.3362185" lon="9.34429"><ele>78.0</ele><time>2026-04-19T14:59:08.34Z</time></trkpt><trkpt lat="45.3362672" lon="9.3439464"><ele>78.0</ele><time>2026-04-19T14:59:09.344Z</time></trkpt><trkpt lat="45.336321" lon="9.3435991"><ele>77.5</ele><time>2026-04-19T14:59:10.353Z</time></trkpt><trkpt lat="45.3363729" lon="9.3432656"><ele>77.0</ele><time>2026-04-19T14:59:11.354Z</time></trkpt><trkpt lat="45.3364181" lon="9.3429396"><ele>77.0</ele><time>2026-04-19T14:59:12.34Z</time></trkpt><trkpt lat="45.3364644" lon="9.3426093"><ele>77.0</ele><time>2026-04-19T14:59:13.359Z</time></trkpt><trkpt lat="45.3365187" lon="9.3422772"><ele>76.5</ele><time>2026-04-19T14:59:14.346Z</time></trkpt><trkpt lat="45.3365699" lon="9.3419497"><ele>76.0</ele><time>2026-04-19T14:59:15.332Z</time></trkpt><trkpt lat="45.3366206" lon="9.3416138"><ele>74.5</ele><time>2026-04-19T14:59:16.349Z</time></trkpt><trkpt lat="45.3366725" lon="9.3412759"><ele>73.0</ele><time>2026-04-19T14:59:17.329Z</time></trkpt><trkpt lat="45.3367292" lon="9.3409326"><ele>73.0</ele><time>2026-04-19T14:59:18.345Z</time></trkpt><trkpt lat="45.3367853" lon="9.3405931"><ele>73.0</ele><time>2026-04-19T14:59:19.345Z</time></trkpt><trkpt lat="45.3368322" lon="9.340247"><ele>74.0</ele><time>2026-04-19T14:59:20.337Z</time></trkpt><trkpt lat="45.3368847" lon="9.3399011"><ele>75.0</ele><time>2026-04-19T14:59:21.349Z</time></trkpt><trkpt lat="45.336936" lon="9.3395502"><ele>77.0</ele><time>2026-04-19T14:59:22.35Z</time></trkpt><trkpt lat="45.3369927" lon="9.3391973"><ele>79.0</ele><time>2026-04-19T14:59:23.343Z</time></trkpt><trkpt lat="45.3370538" lon="9.338849"><ele>80.5</ele><time>2026-04-19T14:59:24.343Z</time></trkpt><trkpt lat="45.3371109" lon="9.3385033"><ele>82.0</ele><time>2026-04-19T14:59:25.353Z</time></trkpt><trkpt lat="45.3371622" lon="9.3381542"><ele>83.0</ele><time>2026-04-19T14:59:26.337Z</time></trkpt><trkpt lat="45.3372192" lon="9.3378019"><ele>84.0</ele><time>2026-04-19T14:59:27.353Z</time></trkpt><trkpt lat="45.3372718" lon="9.3374562"><ele>84.0</ele><time>2026-04-19T14:59:28.341Z</time></trkpt><trkpt lat="45.3373239" lon="9.3371072"><ele>84.0</ele><time>2026-04-19T14:59:29.318Z</time></trkpt><trkpt lat="45.3373762" lon="9.3367526"><ele>84.0</ele><time>2026-04-19T14:59:30.341Z</time></trkpt><trkpt lat="45.3374299" lon="9.3364047"><ele>84.0</ele><time>2026-04-19T14:59:31.346Z</time></trkpt><trkpt lat="45.3374862" lon="9.3360588"><ele>84.0</ele><time>2026-04-19T14:59:32.345Z</time></trkpt><trkpt lat="45.3375347" lon="9.3357083"><ele>84.0</ele><time>2026-04-19T14:59:33.339Z</time></trkpt><trkpt lat="45.3375917" lon="9.3353602"><ele>84.0</ele><time>2026-04-19T14:59:34.347Z</time></trkpt><trkpt lat="45.3376437" lon="9.3350116"><ele>84.0</ele><time>2026-04-19T14:59:35.34Z</time></trkpt><trkpt lat="45.3376987" lon="9.3346661"><ele>84.0</ele><time>2026-04-19T14:59:36.351Z</time></trkpt><trkpt lat="45.3377554" lon="9.3343367"><ele>84.0</ele><time>2026-04-19T14:59:37.345Z</time></trkpt><trkpt lat="45.3378003" lon="9.3340029"><ele>84.0</ele><time>2026-04-19T14:59:38.341Z</time></trkpt><trkpt lat="45.3378415" lon="9.3336824"><ele>84.0</ele><time>2026-04-19T14:59:39.319Z</time></trkpt><trkpt lat="45.3378875" lon="9.3333555"><ele>83.66666666666667</ele><time>2026-04-19T14:59:40.333Z</time></trkpt><trkpt lat="45.3379329" lon="9.3330428"><ele>83.33333333333334</ele><time>2026-04-19T14:59:41.344Z</time></trkpt><trkpt lat="45.3379807" lon="9.3327314"><ele>83.0</ele><time>2026-04-19T14:59:42.324Z</time></trkpt><trkpt lat="45.3380354" lon="9.3324087"><ele>84.5</ele><time>2026-04-19T14:59:43.338Z</time></trkpt><trkpt lat="45.3380818" lon="9.3320917"><ele>86.0</ele><time>2026-04-19T14:59:44.342Z</time></trkpt><trkpt lat="45.3381346" lon="9.3317756"><ele>86.0</ele><time>2026-04-19T14:59:45.337Z</time></trkpt><trkpt lat="45.3381845" lon="9.3314672"><ele>86.0</ele><time>2026-04-19T14:59:46.341Z</time></trkpt><trkpt lat="45.3382332" lon="9.3311753"><ele>86.0</ele><time>2026-04-19T14:59:47.345Z</time></trkpt><trkpt lat="45.3382852" lon="9.3308754"><ele>86.33333333333334</ele><time>2026-04-19T14:59:48.354Z</time></trkpt><trkpt lat="45.3383377" lon="9.3305728"><ele>86.66666666666667</ele><time>2026-04-19T14:59:49.327Z</time></trkpt><trkpt lat="45.3383878" lon="9.3302733"><ele>87.0</ele><time>2026-04-19T14:59:50.347Z</time></trkpt><trkpt lat="45.3384364" lon="9.3299817"><ele>87.33333333333333</ele><time>2026-04-19T14:59:51.331Z</time></trkpt><trkpt lat="45.3384945" lon="9.3296787"><ele>87.66666666666666</ele><time>2026-04-19T14:59:52.339Z</time></trkpt><trkpt lat="45.3385538" lon="9.3293644"><ele>88.0</ele><time>2026-04-19T14:59:53.329Z</time></trkpt><trkpt lat="45.3386229" lon="9.3290547"><ele>87.0</ele><time>2026-04-19T14:59:54.351Z</time></trkpt><trkpt lat="45.3386912" lon="9.3287469"><ele>86.0</ele><time>2026-04-19T14:59:55.344Z</time></trkpt><trkpt lat="45.338755" lon="9.3284363"><ele>86.0</ele><time>2026-04-19T14:59:56.345Z</time></trkpt><trkpt lat="45.3388254" lon="9.3281285"><ele>86.0</ele><time>2026-04-19T14:59:57.339Z</time></trkpt><trkpt lat="45.3389054" lon="9.3278168"><ele>86.0</ele><time>2026-04-19T14:59:58.342Z</time></trkpt><trkpt lat="45.3389784" lon="9.3275029"><ele>86.0</ele><time>2026-04-19T14:59:59.349Z</time></trkpt><trkpt lat="45.3390571" lon="9.3272035"><ele>86.0</ele><time>2026-04-19T15:00:00.342Z</time></trkpt><trkpt lat="45.3391392" lon="9.326913"><ele>86.0</ele><time>2026-04-19T15:00:01.348Z</time></trkpt><trkpt lat="45.3392239" lon="9.3266214"><ele>86.0</ele><time>2026-04-19T15:00:02.338Z</time></trkpt><trkpt lat="45.3393054" lon="9.3263329"><ele>86.66666666666667</ele><time>2026-04-19T15:00:03.328Z</time></trkpt><trkpt lat="45.3393877" lon="9.3260469"><ele>87.33333333333333</ele><time>2026-04-19T15:00:04.352Z</time></trkpt><trkpt lat="45.339469" lon="9.3257494"><ele>88.0</ele><time>2026-04-19T15:00:05.337Z</time></trkpt><trkpt lat="45.3395612" lon="9.3254476"><ele>88.0</ele><time>2026-04-19T15:00:06.338Z</time></trkpt><trkpt lat="45.3396527" lon="9.3251425"><ele>88.0</ele><time>2026-04-19T15:00:07.344Z</time></trkpt><trkpt lat="45.3397433" lon="9.3248364"><ele>88.5</ele><time>2026-04-19T15:00:08.371Z</time></trkpt><trkpt lat="45.3398474" lon="9.3245275"><ele>89.0</ele><time>2026-04-19T15:00:09.358Z</time></trkpt><trkpt lat="45.3399518" lon="9.3242158"><ele>89.0</ele><time>2026-04-19T15:00:10.332Z</time></trkpt><trkpt lat="45.3400592" lon="9.3239049"><ele>89.0</ele><time>2026-04-19T15:00:11.351Z</time></trkpt><trkpt lat="45.3401761" lon="9.3235978"><ele>88.5</ele><time>2026-04-19T15:00:12.366Z</time></trkpt><trkpt lat="45.3402947" lon="9.3232929"><ele>88.0</ele><time>2026-04-19T15:00:13.345Z</time></trkpt><trkpt lat="45.3404131" lon="9.3229906"><ele>88.0</ele><time>2026-04-19T15:00:14.339Z</time></trkpt><trkpt lat="45.3405398" lon="9.3226866"><ele>88.0</ele><time>2026-04-19T15:00:15.337Z</time></trkpt><trkpt lat="45.3406673" lon="9.3223867"><ele>89.0</ele><time>2026-04-19T15:00:16.347Z</time></trkpt><trkpt lat="45.340793" lon="9.322092"><ele>90.0</ele><time>2026-04-19T15:00:17.346Z</time></trkpt><trkpt lat="45.3409273" lon="9.3217847"><ele>90.0</ele><time>2026-04-19T15:00:18.341Z</time></trkpt><trkpt lat="45.3410597" lon="9.3214831"><ele>90.0</ele><time>2026-04-19T15:00:19.349Z</time></trkpt><trkpt lat="45.3411969" lon="9.3211737"><ele>90.5</ele><time>2026-04-19T15:00:20.348Z</time></trkpt><trkpt lat="45.3413406" lon="9.3208676"><ele>91.0</ele><time>2026-04-19T15:00:21.353Z</time></trkpt><trkpt lat="45.3414875" lon="9.3205527"><ele>90.0</ele><time>2026-04-19T15:00:22.35Z</time></trkpt><trkpt lat="45.341638" lon="9.3202357"><ele>89.0</ele><time>2026-04-19T15:00:23.358Z</time></trkpt><trkpt lat="45.3418033" lon="9.3199212"><ele>89.0</ele><time>2026-04-19T15:00:24.343Z</time></trkpt><trkpt lat="45.3419661" lon="9.3196059"><ele>89.0</ele><time>2026-04-19T15:00:25.358Z</time></trkpt><trkpt lat="45.3421289" lon="9.3192999"><ele>88.5</ele><time>2026-04-19T15:00:26.34Z</time></trkpt><trkpt lat="45.3422941" lon="9.3189993"><ele>88.0</ele><time>2026-04-19T15:00:27.34Z</time></trkpt><trkpt lat="45.3424585" lon="9.3187043"><ele>89.5</ele><time>2026-04-19T15:00:28.343Z</time></trkpt><trkpt lat="45.3426286" lon="9.3184182"><ele>91.0</ele><time>2026-04-19T15:00:29.363Z</time></trkpt><trkpt lat="45.3427964" lon="9.3181404"><ele>92.0</ele><time>2026-04-19T15:00:30.339Z</time></trkpt><trkpt lat="45.3429696" lon="9.3178489"><ele>93.0</ele><time>2026-04-19T15:00:31.356Z</time></trkpt><trkpt lat="45.3431441" lon="9.3175749"><ele>91.0</ele><time>2026-04-19T15:00:32.348Z</time></trkpt><trkpt lat="45.3433242" lon="9.3172966"><ele>89.0</ele><time>2026-04-19T15:00:33.342Z</time></trkpt><trkpt lat="45.3435074" lon="9.3170192"><ele>89.0</ele><time>2026-04-19T15:00:34.357Z</time></trkpt><trkpt lat="45.3436922" lon="9.3167471"><ele>89.0</ele><time>2026-04-19T15:00:35.347Z</time></trkpt><trkpt lat="45.3438819" lon="9.316471"><ele>89.0</ele><time>2026-04-19T15:00:36.334Z</time></trkpt><trkpt lat="45.3440666" lon="9.3162088"><ele>89.0</ele><time>2026-04-19T15:00:37.341Z</time></trkpt><trkpt lat="45.3442519" lon="9.3159442"><ele>89.0</ele><time>2026-04-19T15:00:38.358Z</time></trkpt><trkpt lat="45.3444404" lon="9.3156818"><ele>89.0</ele><time>2026-04-19T15:00:39.345Z</time></trkpt><trkpt lat="45.3446337" lon="9.3154271"><ele>89.5</ele><time>2026-04-19T15:00:40.336Z</time></trkpt><trkpt lat="45.3448291" lon="9.3151783"><ele>90.0</ele><time>2026-04-19T15:00:41.326Z</time></trkpt><trkpt lat="45.3450241" lon="9.3149332"><ele>89.5</ele><time>2026-04-19T15:00:42.341Z</time></trkpt><trkpt lat="45.3452231" lon="9.3146884"><ele>89.0</ele><time>2026-04-19T15:00:43.368Z</time></trkpt><trkpt lat="45.3454262" lon="9.314454"><ele>89.5</ele><time>2026-04-19T15:00:44.328Z</time></trkpt><trkpt lat="45.3456221" lon="9.3142202"><ele>90.0</ele><time>2026-04-19T15:00:45.334Z</time></trkpt><trkpt lat="45.3458208" lon="9.3139887"><ele>89.5</ele><time>2026-04-19T15:00:46.35Z</time></trkpt><trkpt lat="45.3460152" lon="9.3137603"><ele>89.0</ele><time>2026-04-19T15:00:47.334Z</time></trkpt><trkpt lat="45.3462094" lon="9.3135381"><ele>89.0</ele><time>2026-04-19T15:00:48.357Z</time></trkpt><trkpt lat="45.3463944" lon="9.3133156"><ele>89.0</ele><time>2026-04-19T15:00:49.339Z</time></trkpt><trkpt lat="45.3465779" lon="9.3131043"><ele>90.5</ele><time>2026-04-19T15:00:50.318Z</time></trkpt><trkpt lat="45.3467579" lon="9.3128877"><ele>92.0</ele><time>2026-04-19T15:00:51.345Z</time></trkpt><trkpt lat="45.3469417" lon="9.3126756"><ele>92.0</ele><time>2026-04-19T15:00:52.34Z</time></trkpt><trkpt lat="45.3471152" lon="9.3124622"><ele>92.0</ele><time>2026-04-19T15:00:53.363Z</time></trkpt><trkpt lat="45.347288" lon="9.3122472"><ele>91.0</ele><time>2026-04-19T15:00:54.321Z</time></trkpt><trkpt lat="45.3474528" lon="9.3120377"><ele>90.0</ele><time>2026-04-19T15:00:55.34Z</time></trkpt><trkpt lat="45.3476061" lon="9.3118262"><ele>89.0</ele><time>2026-04-19T15:00:56.326Z</time></trkpt><trkpt lat="45.3477502" lon="9.3116139"><ele>89.0</ele><time>2026-04-19T15:00:57.361Z</time></trkpt><trkpt lat="45.347881" lon="9.3113977"><ele>89.0</ele><time>2026-04-19T15:00:58.344Z</time></trkpt><trkpt lat="45.3480041" lon="9.3111777"><ele>89.0</ele><time>2026-04-19T15:00:59.351Z</time></trkpt><trkpt lat="45.3481309" lon="9.310962"><ele>89.0</ele><time>2026-04-19T15:01:00.348Z</time></trkpt><trkpt lat="45.3482503" lon="9.3107506"><ele>89.0</ele><time>2026-04-19T15:01:01.34Z</time></trkpt><trkpt lat="45.3483704" lon="9.310549"><ele>89.0</ele><time>2026-04-19T15:01:02.345Z</time></trkpt><trkpt lat="45.3484858" lon="9.3103638"><ele>89.66666666666667</ele><time>2026-04-19T15:01:03.349Z</time></trkpt><trkpt lat="45.3485953" lon="9.3101908"><ele>90.33333333333333</ele><time>2026-04-19T15:01:04.317Z</time></trkpt><trkpt lat="45.3486982" lon="9.3100434"><ele>91.0</ele><time>2026-04-19T15:01:05.346Z</time></trkpt><trkpt lat="45.3487995" lon="9.3098965"><ele>91.19999999999999</ele><time>2026-04-19T15:01:06.335Z</time></trkpt><trkpt lat="45.3488962" lon="9.3097855"><ele>91.39999999999999</ele><time>2026-04-19T15:01:07.355Z</time></trkpt><trkpt lat="45.3489853" lon="9.309682"><ele>91.6</ele><time>2026-04-19T15:01:08.341Z</time></trkpt><trkpt lat="45.3490609" lon="9.3095816"><ele>91.8</ele><time>2026-04-19T15:01:09.343Z</time></trkpt><trkpt lat="45.3491327" lon="9.3094979"><ele>92.0</ele><time>2026-04-19T15:01:10.349Z</time></trkpt><trkpt lat="45.3492101" lon="9.309409"><ele>92.0</ele><time>2026-04-19T15:01:11.349Z</time></trkpt><trkpt lat="45.3492899" lon="9.3093245"><ele>92.0</ele><time>2026-04-19T15:01:12.34Z</time></trkpt><trkpt lat="45.3493862" lon="9.3092266"><ele>92.0</ele><time>2026-04-19T15:01:13.346Z</time></trkpt><trkpt lat="45.3495004" lon="9.3091221"><ele>92.0</ele><time>2026-04-19T15:01:14.349Z</time></trkpt><trkpt lat="45.3496356" lon="9.3090164"><ele>91.5</ele><time>2026-04-19T15:01:15.346Z</time></trkpt><trkpt lat="45.3497639" lon="9.3089162"><ele>91.0</ele><time>2026-04-19T15:01:16.357Z</time></trkpt><trkpt lat="45.3498948" lon="9.3088229"><ele>90.5</ele><time>2026-04-19T15:01:17.34Z</time></trkpt><trkpt lat="45.3500368" lon="9.308733"><ele>90.0</ele><time>2026-04-19T15:01:18.345Z</time></trkpt><trkpt lat="45.3501853" lon="9.3086402"><ele>89.66666666666667</ele><time>2026-04-19T15:01:19.345Z</time></trkpt><trkpt lat="45.350326" lon="9.3085493"><ele>89.33333333333334</ele><time>2026-04-19T15:01:20.353Z</time></trkpt><trkpt lat="45.3504692" lon="9.308451"><ele>89.0</ele><time>2026-04-19T15:01:21.334Z</time></trkpt><trkpt lat="45.3506081" lon="9.3083383"><ele>89.33333333333334</ele><time>2026-04-19T15:01:22.343Z</time></trkpt><trkpt lat="45.3507512" lon="9.3082161"><ele>89.66666666666667</ele><time>2026-04-19T15:01:23.346Z</time></trkpt><trkpt lat="45.3508894" lon="9.3080715"><ele>90.0</ele><time>2026-04-19T15:01:24.344Z</time></trkpt><trkpt lat="45.3510325" lon="9.3079161"><ele>90.0</ele><time>2026-04-19T15:01:25.355Z</time></trkpt><trkpt lat="45.3511712" lon="9.3077519"><ele>90.0</ele><time>2026-04-19T15:01:26.352Z</time></trkpt><trkpt lat="45.3513148" lon="9.3075818"><ele>90.0</ele><time>2026-04-19T15:01:27.34Z</time></trkpt><trkpt lat="45.3514618" lon="9.3073959"><ele>90.0</ele><time>2026-04-19T15:01:28.357Z</time></trkpt><trkpt lat="45.3516092" lon="9.3072101"><ele>90.0</ele><time>2026-04-19T15:01:29.336Z</time></trkpt><trkpt lat="45.3517663" lon="9.3070204"><ele>90.0</ele><time>2026-04-19T15:01:30.345Z</time></trkpt><trkpt lat="45.3519249" lon="9.3068251"><ele>90.0</ele><time>2026-04-19T15:01:31.344Z</time></trkpt><trkpt lat="45.3520878" lon="9.3066357"><ele>90.0</ele><time>2026-04-19T15:01:32.338Z</time></trkpt><trkpt lat="45.3522529" lon="9.3064371"><ele>90.0</ele><time>2026-04-19T15:01:33.332Z</time></trkpt><trkpt lat="45.352425" lon="9.3062386"><ele>90.5</ele><time>2026-04-19T15:01:34.333Z</time></trkpt><trkpt lat="45.352597" lon="9.3060372"><ele>91.0</ele><time>2026-04-19T15:01:35.337Z</time></trkpt><trkpt lat="45.3527769" lon="9.3058305"><ele>91.0</ele><time>2026-04-19T15:01:36.346Z</time></trkpt><trkpt lat="45.3529483" lon="9.3056243"><ele>91.0</ele><time>2026-04-19T15:01:37.339Z</time></trkpt><trkpt lat="45.3531228" lon="9.305429"><ele>91.0</ele><time>2026-04-19T15:01:38.344Z</time></trkpt><trkpt lat="45.3533097" lon="9.3052114"><ele>91.0</ele><time>2026-04-19T15:01:39.347Z</time></trkpt><trkpt lat="45.3534888" lon="9.3050038"><ele>91.0</ele><time>2026-04-19T15:01:40.336Z</time></trkpt><trkpt lat="45.3536718" lon="9.304784"><ele>90.5</ele><time>2026-04-19T15:01:41.347Z</time></trkpt><trkpt lat="45.3538627" lon="9.3045612"><ele>90.0</ele><time>2026-04-19T15:01:42.343Z</time></trkpt><trkpt lat="45.3540501" lon="9.3043397"><ele>89.5</ele><time>2026-04-19T15:01:43.338Z</time></trkpt><trkpt lat="45.3542429" lon="9.3041114"><ele>89.0</ele><time>2026-04-19T15:01:44.354Z</time></trkpt><trkpt lat="45.3544344" lon="9.3038861"><ele>89.0</ele><time>2026-04-19T15:01:45.346Z</time></trkpt><trkpt lat="45.3546318" lon="9.3036543"><ele>89.0</ele><time>2026-04-19T15:01:46.336Z</time></trkpt><trkpt lat="45.3548372" lon="9.3034229"><ele>90.0</ele><time>2026-04-19T15:01:47.347Z</time></trkpt><trkpt lat="45.3550435" lon="9.3031778"><ele>91.0</ele><time>2026-04-19T15:01:48.303Z</time></trkpt><trkpt lat="45.3552494" lon="9.3029378"><ele>91.0</ele><time>2026-04-19T15:01:49.353Z</time></trkpt><trkpt lat="45.3554573" lon="9.3026919"><ele>91.0</ele><time>2026-04-19T15:01:50.337Z</time></trkpt><trkpt lat="45.3556617" lon="9.3024532"><ele>91.5</ele><time>2026-04-19T15:01:51.344Z</time></trkpt><trkpt lat="45.3558647" lon="9.3022065"><ele>92.0</ele><time>2026-04-19T15:01:52.335Z</time></trkpt><trkpt lat="45.3560697" lon="9.3019581"><ele>92.0</ele><time>2026-04-19T15:01:53.345Z</time></trkpt><trkpt lat="45.3562858" lon="9.3017062"><ele>92.0</ele><time>2026-04-19T15:01:54.353Z</time></trkpt><trkpt lat="45.3565016" lon="9.3014548"><ele>91.5</ele><time>2026-04-19T15:01:55.342Z</time></trkpt><trkpt lat="45.3567244" lon="9.3012086"><ele>91.0</ele><time>2026-04-19T15:01:56.32Z</time></trkpt><trkpt lat="45.3569408" lon="9.3009537"><ele>91.0</ele><time>2026-04-19T15:01:57.301Z</time></trkpt><trkpt lat="45.3571546" lon="9.3006917"><ele>91.0</ele><time>2026-04-19T15:01:58.321Z</time></trkpt><trkpt lat="45.3573696" lon="9.3004324"><ele>92.5</ele><time>2026-04-19T15:01:59.298Z</time></trkpt><trkpt lat="45.3575833" lon="9.300182"><ele>94.0</ele><time>2026-04-19T15:02:00.336Z</time></trkpt><trkpt lat="45.3578051" lon="9.299939"><ele>94.0</ele><time>2026-04-19T15:02:01.352Z</time></trkpt><trkpt lat="45.3580154" lon="9.2996918"><ele>94.0</ele><time>2026-04-19T15:02:02.332Z</time></trkpt><trkpt lat="45.3582257" lon="9.2994462"><ele>94.0</ele><time>2026-04-19T15:02:03.352Z</time></trkpt><trkpt lat="45.3584469" lon="9.2991923"><ele>94.0</ele><time>2026-04-19T15:02:04.341Z</time></trkpt><trkpt lat="45.358668" lon="9.2989424"><ele>92.5</ele><time>2026-04-19T15:02:05.344Z</time></trkpt><trkpt lat="45.3588876" lon="9.2986846"><ele>91.0</ele><time>2026-04-19T15:02:06.329Z</time></trkpt><trkpt lat="45.3591036" lon="9.2984266"><ele>91.0</ele><time>2026-04-19T15:02:07.342Z</time></trkpt><trkpt lat="45.3593216" lon="9.298168"><ele>91.0</ele><time>2026-04-19T15:02:08.338Z</time></trkpt><trkpt lat="45.3595362" lon="9.297917"><ele>91.0</ele><time>2026-04-19T15:02:09.338Z</time></trkpt><trkpt lat="45.3597513" lon="9.2976645"><ele>91.0</ele><time>2026-04-19T15:02:10.338Z</time></trkpt><trkpt lat="45.3599621" lon="9.2974101"><ele>90.5</ele><time>2026-04-19T15:02:11.35Z</time></trkpt><trkpt lat="45.3601827" lon="9.2971575"><ele>90.0</ele><time>2026-04-19T15:02:12.343Z</time></trkpt><trkpt lat="45.3603992" lon="9.2969084"><ele>90.5</ele><time>2026-04-19T15:02:13.337Z</time></trkpt><trkpt lat="45.3606138" lon="9.2966582"><ele>91.0</ele><time>2026-04-19T15:02:14.36Z</time></trkpt><trkpt lat="45.360826" lon="9.2964096"><ele>91.0</ele><time>2026-04-19T15:02:15.344Z</time></trkpt><trkpt lat="45.3610356" lon="9.29615"><ele>91.0</ele><time>2026-04-19T15:02:16.339Z</time></trkpt><trkpt lat="45.3612522" lon="9.2958927"><ele>91.0</ele><time>2026-04-19T15:02:17.34Z</time></trkpt><trkpt lat="45.3614686" lon="9.2956426"><ele>91.0</ele><time>2026-04-19T15:02:18.334Z</time></trkpt><trkpt lat="45.3616852" lon="9.2953938"><ele>91.0</ele><time>2026-04-19T15:02:19.347Z</time></trkpt><trkpt lat="45.3619005" lon="9.2951429"><ele>91.0</ele><time>2026-04-19T15:02:20.356Z</time></trkpt><trkpt lat="45.362118" lon="9.2948933"><ele>91.0</ele><time>2026-04-19T15:02:21.342Z</time></trkpt><trkpt lat="45.3623362" lon="9.2946283"><ele>91.0</ele><time>2026-04-19T15:02:22.352Z</time></trkpt><trkpt lat="45.3625614" lon="9.2943687"><ele>91.0</ele><time>2026-04-19T15:02:23.353Z</time></trkpt><trkpt lat="45.3627823" lon="9.2941004"><ele>91.0</ele><time>2026-04-19T15:02:24.35Z</time></trkpt><trkpt lat="45.3630096" lon="9.2938396"><ele>91.5</ele><time>2026-04-19T15:02:25.333Z</time></trkpt><trkpt lat="45.3632361" lon="9.2935738"><ele>92.0</ele><time>2026-04-19T15:02:26.344Z</time></trkpt><trkpt lat="45.3634578" lon="9.2933191"><ele>92.0</ele><time>2026-04-19T15:02:27.337Z</time></trkpt><trkpt lat="45.3636826" lon="9.2930615"><ele>92.0</ele><time>2026-04-19T15:02:28.34Z</time></trkpt><trkpt lat="45.3639117" lon="9.2927932"><ele>91.5</ele><time>2026-04-19T15:02:29.32Z</time></trkpt><trkpt lat="45.3641421" lon="9.2925321"><ele>91.0</ele><time>2026-04-19T15:02:30.319Z</time></trkpt><trkpt lat="45.3643704" lon="9.292272"><ele>91.0</ele><time>2026-04-19T15:02:31.348Z</time></trkpt><trkpt lat="45.3645992" lon="9.2920193"><ele>91.0</ele><time>2026-04-19T15:02:32.331Z</time></trkpt><trkpt lat="45.36483" lon="9.2917628"><ele>91.0</ele><time>2026-04-19T15:02:33.348Z</time></trkpt><trkpt lat="45.36506" lon="9.2915128"><ele>91.0</ele><time>2026-04-19T15:02:34.345Z</time></trkpt><trkpt lat="45.3652877" lon="9.2912619"><ele>91.5</ele><time>2026-04-19T15:02:35.337Z</time></trkpt><trkpt lat="45.3655135" lon="9.2909925"><ele>92.0</ele><time>2026-04-19T15:02:36.345Z</time></trkpt><trkpt lat="45.3657336" lon="9.2907306"><ele>92.5</ele><time>2026-04-19T15:02:37.347Z</time></trkpt><trkpt lat="45.3659546" lon="9.290474"><ele>93.0</ele><time>2026-04-19T15:02:38.34Z</time></trkpt><trkpt lat="45.3661693" lon="9.2902256"><ele>92.5</ele><time>2026-04-19T15:02:39.336Z</time></trkpt><trkpt lat="45.3663877" lon="9.2899691"><ele>92.0</ele><time>2026-04-19T15:02:40.333Z</time></trkpt><trkpt lat="45.3666045" lon="9.2897089"><ele>92.0</ele><time>2026-04-19T15:02:41.332Z</time></trkpt><trkpt lat="45.3668194" lon="9.2894563"><ele>92.0</ele><time>2026-04-19T15:02:42.34Z</time></trkpt><trkpt lat="45.3670361" lon="9.2892098"><ele>92.0</ele><time>2026-04-19T15:02:43.345Z</time></trkpt><trkpt lat="45.3672439" lon="9.2889476"><ele>92.0</ele><time>2026-04-19T15:02:44.321Z</time></trkpt><trkpt lat="45.3674546" lon="9.2886878"><ele>92.0</ele><time>2026-04-19T15:02:45.321Z</time></trkpt><trkpt lat="45.367664" lon="9.2884362"><ele>92.0</ele><time>2026-04-19T15:02:46.306Z</time></trkpt><trkpt lat="45.3678732" lon="9.288184"><ele>92.5</ele><time>2026-04-19T15:02:47.294Z</time></trkpt><trkpt lat="45.3680935" lon="9.2879266"><ele>93.0</ele><time>2026-04-19T15:02:48.307Z</time></trkpt><trkpt lat="45.3683101" lon="9.2876783"><ele>93.0</ele><time>2026-04-19T15:02:49.315Z</time></trkpt><trkpt lat="45.3685242" lon="9.2874242"><ele>93.0</ele><time>2026-04-19T15:02:50.314Z</time></trkpt><trkpt lat="45.3687384" lon="9.2871765"><ele>93.0</ele><time>2026-04-19T15:02:51.301Z</time></trkpt><trkpt lat="45.3689583" lon="9.2869346"><ele>93.0</ele><time>2026-04-19T15:02:52.326Z</time></trkpt><trkpt lat="45.3691661" lon="9.2866777"><ele>93.5</ele><time>2026-04-19T15:02:53.323Z</time></trkpt><trkpt lat="45.3693816" lon="9.2864277"><ele>94.0</ele><time>2026-04-19T15:02:54.313Z</time></trkpt><trkpt lat="45.3695924" lon="9.2861729"><ele>93.5</ele><time>2026-04-19T15:02:55.323Z</time></trkpt><trkpt lat="45.3698055" lon="9.28591"><ele>93.0</ele><time>2026-04-19T15:02:56.318Z</time></trkpt><trkpt lat="45.3700144" lon="9.285659"><ele>93.0</ele><time>2026-04-19T15:02:57.333Z</time></trkpt><trkpt lat="45.3702262" lon="9.2854079"><ele>93.0</ele><time>2026-04-19T15:02:58.31Z</time></trkpt><trkpt lat="45.3704318" lon="9.2851645"><ele>93.0</ele><time>2026-04-19T15:02:59.308Z</time></trkpt><trkpt lat="45.3706377" lon="9.2849196"><ele>93.0</ele><time>2026-04-19T15:03:00.294Z</time></trkpt><trkpt lat="45.3708431" lon="9.2846771"><ele>93.0</ele><time>2026-04-19T15:03:01.297Z</time></trkpt><trkpt lat="45.3710477" lon="9.2844357"><ele>93.0</ele><time>2026-04-19T15:03:02.342Z</time></trkpt><trkpt lat="45.37125" lon="9.2841984"><ele>93.5</ele><time>2026-04-19T15:03:03.293Z</time></trkpt><trkpt lat="45.3714536" lon="9.283949"><ele>94.0</ele><time>2026-04-19T15:03:04.29Z</time></trkpt><trkpt lat="45.3716564" lon="9.2837177"><ele>94.0</ele><time>2026-04-19T15:03:05.305Z</time></trkpt><trkpt lat="45.3718503" lon="9.283481"><ele>94.0</ele><time>2026-04-19T15:03:06.3Z</time></trkpt><trkpt lat="45.3720627" lon="9.2832504"><ele>93.5</ele><time>2026-04-19T15:03:07.336Z</time></trkpt><trkpt lat="45.3722724" lon="9.2830154"><ele>93.0</ele><time>2026-04-19T15:03:08.313Z</time></trkpt><trkpt lat="45.3724811" lon="9.2827709"><ele>93.0</ele><time>2026-04-19T15:03:09.316Z</time></trkpt><trkpt lat="45.3726892" lon="9.2825293"><ele>93.0</ele><time>2026-04-19T15:03:10.299Z</time></trkpt><trkpt lat="45.372892" lon="9.2822981"><ele>93.0</ele><time>2026-04-19T15:03:11.304Z</time></trkpt><trkpt lat="45.3731044" lon="9.2820625"><ele>93.0</ele><time>2026-04-19T15:03:12.296Z</time></trkpt><trkpt lat="45.3733086" lon="9.2818256"><ele>93.0</ele><time>2026-04-19T15:03:13.306Z</time></trkpt><trkpt lat="45.3735127" lon="9.2815939"><ele>93.0</ele><time>2026-04-19T15:03:14.302Z</time></trkpt><trkpt lat="45.3737128" lon="9.2813618"><ele>93.0</ele><time>2026-04-19T15:03:15.305Z</time></trkpt><trkpt lat="45.373912" lon="9.2811412"><ele>93.0</ele><time>2026-04-19T15:03:16.299Z</time></trkpt><trkpt lat="45.3741016" lon="9.2809098"><ele>93.0</ele><time>2026-04-19T15:03:17.303Z</time></trkpt><trkpt lat="45.3742905" lon="9.2806732"><ele>93.0</ele><time>2026-04-19T15:03:18.297Z</time></trkpt><trkpt lat="45.3744783" lon="9.2804483"><ele>93.5</ele><time>2026-04-19T15:03:19.315Z</time></trkpt><trkpt lat="45.3746678" lon="9.2802289"><ele>94.0</ele><time>2026-04-19T15:03:20.311Z</time></trkpt><trkpt lat="45.3748537" lon="9.2799949"><ele>94.5</ele><time>2026-04-19T15:03:21.307Z</time></trkpt><trkpt lat="45.3750445" lon="9.2797648"><ele>95.0</ele><time>2026-04-19T15:03:22.324Z</time></trkpt><trkpt lat="45.3752362" lon="9.2795338"><ele>95.0</ele><time>2026-04-19T15:03:23.316Z</time></trkpt><trkpt lat="45.3754222" lon="9.2793081"><ele>95.0</ele><time>2026-04-19T15:03:24.329Z</time></trkpt><trkpt lat="45.3756175" lon="9.2790875"><ele>94.5</ele><time>2026-04-19T15:03:25.309Z</time></trkpt><trkpt lat="45.3758121" lon="9.2788674"><ele>94.0</ele><time>2026-04-19T15:03:26.33Z</time></trkpt><trkpt lat="45.3760048" lon="9.2786414"><ele>94.0</ele><time>2026-04-19T15:03:27.316Z</time></trkpt><trkpt lat="45.3762022" lon="9.2784149"><ele>94.0</ele><time>2026-04-19T15:03:28.305Z</time></trkpt><trkpt lat="45.3763918" lon="9.2781864"><ele>95.0</ele><time>2026-04-19T15:03:29.306Z</time></trkpt><trkpt lat="45.3765834" lon="9.2779585"><ele>96.0</ele><time>2026-04-19T15:03:30.32Z</time></trkpt><trkpt lat="45.376781" lon="9.2777299"><ele>96.0</ele><time>2026-04-19T15:03:31.318Z</time></trkpt><trkpt lat="45.3769819" lon="9.277497"><ele>96.0</ele><time>2026-04-19T15:03:32.309Z</time></trkpt><trkpt lat="45.3771828" lon="9.277256"><ele>96.0</ele><time>2026-04-19T15:03:33.3Z</time></trkpt><trkpt lat="45.3773838" lon="9.2770166"><ele>96.0</ele><time>2026-04-19T15:03:34.311Z</time></trkpt><trkpt lat="45.3775897" lon="9.2767807"><ele>96.0</ele><time>2026-04-19T15:03:35.317Z</time></trkpt><trkpt lat="45.3777942" lon="9.2765444"><ele>96.0</ele><time>2026-04-19T15:03:36.316Z</time></trkpt><trkpt lat="45.3780001" lon="9.2763078"><ele>96.0</ele><time>2026-04-19T15:03:37.31Z</time></trkpt><trkpt lat="45.3782064" lon="9.2760647"><ele>96.0</ele><time>2026-04-19T15:03:38.29Z</time></trkpt><trkpt lat="45.3784172" lon="9.2758102"><ele>96.0</ele><time>2026-04-19T15:03:39.308Z</time></trkpt><trkpt lat="45.3786293" lon="9.2755524"><ele>96.0</ele><time>2026-04-19T15:03:40.304Z</time></trkpt><trkpt lat="45.3788525" lon="9.2753058"><ele>95.5</ele><time>2026-04-19T15:03:41.305Z</time></trkpt><trkpt lat="45.3790727" lon="9.2750571"><ele>95.0</ele><time>2026-04-19T15:03:42.308Z</time></trkpt><trkpt lat="45.3792781" lon="9.2747988"><ele>94.5</ele><time>2026-04-19T15:03:43.306Z</time></trkpt><trkpt lat="45.3794976" lon="9.2745497"><ele>94.0</ele><time>2026-04-19T15:03:44.318Z</time></trkpt><trkpt lat="45.3797372" lon="9.2742999"><ele>94.0</ele><time>2026-04-19T15:03:45.314Z</time></trkpt><trkpt lat="45.3799674" lon="9.2740338"><ele>94.0</ele><time>2026-04-19T15:03:46.321Z</time></trkpt><trkpt lat="45.380196" lon="9.2737848"><ele>94.0</ele><time>2026-04-19T15:03:47.327Z</time></trkpt><trkpt lat="45.38041" lon="9.2735337"><ele>94.0</ele><time>2026-04-19T15:03:48.326Z</time></trkpt><trkpt lat="45.380639" lon="9.2732628"><ele>95.0</ele><time>2026-04-19T15:03:49.324Z</time></trkpt><trkpt lat="45.3808714" lon="9.2730013"><ele>96.0</ele><time>2026-04-19T15:03:50.335Z</time></trkpt><trkpt lat="45.381093" lon="9.272733"><ele>96.0</ele><time>2026-04-19T15:03:51.303Z</time></trkpt><trkpt lat="45.381311" lon="9.2724723"><ele>96.0</ele><time>2026-04-19T15:03:52.347Z</time></trkpt><trkpt lat="45.3815381" lon="9.2722069"><ele>96.0</ele><time>2026-04-19T15:03:53.307Z</time></trkpt><trkpt lat="45.3817666" lon="9.2719437"><ele>96.0</ele><time>2026-04-19T15:03:54.327Z</time></trkpt><trkpt lat="45.3819897" lon="9.2716794"><ele>95.0</ele><time>2026-04-19T15:03:55.336Z</time></trkpt><trkpt lat="45.3822089" lon="9.2714202"><ele>94.0</ele><time>2026-04-19T15:03:56.335Z</time></trkpt><trkpt lat="45.3824235" lon="9.2711545"><ele>94.0</ele><time>2026-04-19T15:03:57.318Z</time></trkpt><trkpt lat="45.3826464" lon="9.2708987"><ele>94.0</ele><time>2026-04-19T15:03:58.326Z</time></trkpt><trkpt lat="45.3828715" lon="9.2706471"><ele>95.5</ele><time>2026-04-19T15:03:59.325Z</time></trkpt><trkpt lat="45.3830912" lon="9.2703942"><ele>97.0</ele><time>2026-04-19T15:04:00.328Z</time></trkpt><trkpt lat="45.383311" lon="9.2701423"><ele>97.0</ele><time>2026-04-19T15:04:01.303Z</time></trkpt><trkpt lat="45.3835305" lon="9.2698837"><ele>97.0</ele><time>2026-04-19T15:04:02.314Z</time></trkpt><trkpt lat="45.3837529" lon="9.2696286"><ele>97.5</ele><time>2026-04-19T15:04:03.313Z</time></trkpt><trkpt lat="45.3839693" lon="9.2693662"><ele>98.0</ele><time>2026-04-19T15:04:04.324Z</time></trkpt><trkpt lat="45.3841921" lon="9.2691068"><ele>98.0</ele><time>2026-04-19T15:04:05.333Z</time></trkpt><trkpt lat="45.3844118" lon="9.2688399"><ele>98.0</ele><time>2026-04-19T15:04:06.325Z</time></trkpt><trkpt lat="45.3846299" lon="9.2685768"><ele>97.5</ele><time>2026-04-19T15:04:07.33Z</time></trkpt><trkpt lat="45.3848509" lon="9.2683147"><ele>97.0</ele><time>2026-04-19T15:04:08.304Z</time></trkpt><trkpt lat="45.3850739" lon="9.2680514"><ele>97.0</ele><time>2026-04-19T15:04:09.302Z</time></trkpt><trkpt lat="45.3853013" lon="9.2677931"><ele>97.0</ele><time>2026-04-19T15:04:10.344Z</time></trkpt><trkpt lat="45.3855206" lon="9.2675302"><ele>97.0</ele><time>2026-04-19T15:04:11.311Z</time></trkpt><trkpt lat="45.3857419" lon="9.2672745"><ele>97.0</ele><time>2026-04-19T15:04:12.299Z</time></trkpt><trkpt lat="45.3859584" lon="9.2670181"><ele>97.0</ele><time>2026-04-19T15:04:13.325Z</time></trkpt><trkpt lat="45.3861729" lon="9.2667592"><ele>97.0</ele><time>2026-04-19T15:04:14.331Z</time></trkpt><trkpt lat="45.3863814" lon="9.2665039"><ele>97.0</ele><time>2026-04-19T15:04:15.328Z</time></trkpt><trkpt lat="45.3865903" lon="9.2662471"><ele>97.0</ele><time>2026-04-19T15:04:16.308Z</time></trkpt><trkpt lat="45.3867988" lon="9.2659937"><ele>97.0</ele><time>2026-04-19T15:04:17.3Z</time></trkpt><trkpt lat="45.3870092" lon="9.2657422"><ele>97.0</ele><time>2026-04-19T15:04:18.338Z</time></trkpt><trkpt lat="45.3872242" lon="9.2654838"><ele>97.5</ele><time>2026-04-19T15:04:19.322Z</time></trkpt><trkpt lat="45.3874414" lon="9.265231"><ele>98.0</ele><time>2026-04-19T15:04:20.328Z</time></trkpt><trkpt lat="45.3876593" lon="9.2649834"><ele>98.5</ele><time>2026-04-19T15:04:21.319Z</time></trkpt><trkpt lat="45.3878644" lon="9.2647406"><ele>99.0</ele><time>2026-04-19T15:04:22.351Z</time></trkpt><trkpt lat="45.3880729" lon="9.2645058"><ele>97.0</ele><time>2026-04-19T15:04:23.332Z</time></trkpt><trkpt lat="45.3882744" lon="9.2642644"><ele>95.0</ele><time>2026-04-19T15:04:24.327Z</time></trkpt><trkpt lat="45.3884793" lon="9.264029"><ele>95.5</ele><time>2026-04-19T15:04:25.326Z</time></trkpt><trkpt lat="45.3886861" lon="9.263793"><ele>96.0</ele><time>2026-04-19T15:04:26.331Z</time></trkpt><trkpt lat="45.3888877" lon="9.2635664"><ele>96.0</ele><time>2026-04-19T15:04:27.343Z</time></trkpt><trkpt lat="45.3890792" lon="9.2633486"><ele>96.0</ele><time>2026-04-19T15:04:28.333Z</time></trkpt><trkpt lat="45.3892698" lon="9.2631455"><ele>96.0</ele><time>2026-04-19T15:04:29.338Z</time></trkpt><trkpt lat="45.3894775" lon="9.2629587"><ele>96.0</ele><time>2026-04-19T15:04:30.344Z</time></trkpt><trkpt lat="45.3896783" lon="9.2627711"><ele>96.0</ele><time>2026-04-19T15:04:31.355Z</time></trkpt><trkpt lat="45.3898809" lon="9.2626047"><ele>96.0</ele><time>2026-04-19T15:04:32.306Z</time></trkpt><trkpt lat="45.3900847" lon="9.2624488"><ele>97.5</ele><time>2026-04-19T15:04:33.321Z</time></trkpt><trkpt lat="45.3902875" lon="9.262281"><ele>99.0</ele><time>2026-04-19T15:04:34.348Z</time></trkpt><trkpt lat="45.3904941" lon="9.2621247"><ele>99.0</ele><time>2026-04-19T15:04:35.341Z</time></trkpt><trkpt lat="45.3907031" lon="9.2619671"><ele>99.0</ele><time>2026-04-19T15:04:36.345Z</time></trkpt><trkpt lat="45.3909121" lon="9.2618256"><ele>99.0</ele><time>2026-04-19T15:04:37.341Z</time></trkpt><trkpt lat="45.3911339" lon="9.261681"><ele>99.0</ele><time>2026-04-19T15:04:38.344Z</time></trkpt><trkpt lat="45.3913582" lon="9.2615488"><ele>98.5</ele><time>2026-04-19T15:04:39.339Z</time></trkpt><trkpt lat="45.3915807" lon="9.2614238"><ele>98.0</ele><time>2026-04-19T15:04:40.347Z</time></trkpt><trkpt lat="45.3918125" lon="9.2613041"><ele>98.0</ele><time>2026-04-19T15:04:41.345Z</time></trkpt><trkpt lat="45.3920429" lon="9.2611898"><ele>98.0</ele><time>2026-04-19T15:04:42.344Z</time></trkpt><trkpt lat="45.3922772" lon="9.2610823"><ele>99.5</ele><time>2026-04-19T15:04:43.36Z</time></trkpt><trkpt lat="45.3925038" lon="9.2609757"><ele>101.0</ele><time>2026-04-19T15:04:44.342Z</time></trkpt><trkpt lat="45.3927299" lon="9.2608888"><ele>101.0</ele><time>2026-04-19T15:04:45.35Z</time></trkpt><trkpt lat="45.3929634" lon="9.260808"><ele>101.0</ele><time>2026-04-19T15:04:46.338Z</time></trkpt><trkpt lat="45.3931946" lon="9.260725"><ele>101.0</ele><time>2026-04-19T15:04:47.345Z</time></trkpt><trkpt lat="45.3934233" lon="9.2606523"><ele>101.0</ele><time>2026-04-19T15:04:48.345Z</time></trkpt><trkpt lat="45.393669" lon="9.2605888"><ele>101.5</ele><time>2026-04-19T15:04:49.335Z</time></trkpt><trkpt lat="45.393903" lon="9.2605342"><ele>102.0</ele><time>2026-04-19T15:04:50.332Z</time></trkpt><trkpt lat="45.3941424" lon="9.2604886"><ele>102.0</ele><time>2026-04-19T15:04:51.338Z</time></trkpt><trkpt lat="45.3943919" lon="9.2604476"><ele>102.0</ele><time>2026-04-19T15:04:52.32Z</time></trkpt><trkpt lat="45.3946367" lon="9.2604226"><ele>101.0</ele><time>2026-04-19T15:04:53.353Z</time></trkpt><trkpt lat="45.3948814" lon="9.2603958"><ele>100.0</ele><time>2026-04-19T15:04:54.344Z</time></trkpt><trkpt lat="45.3951351" lon="9.2603876"><ele>100.0</ele><time>2026-04-19T15:04:55.306Z</time></trkpt><trkpt lat="45.3953911" lon="9.260385"><ele>100.0</ele><time>2026-04-19T15:04:56.313Z</time></trkpt><trkpt lat="45.3956459" lon="9.2603943"><ele>100.0</ele><time>2026-04-19T15:04:57.327Z</time></trkpt><trkpt lat="45.3958975" lon="9.2604124"><ele>100.0</ele><time>2026-04-19T15:04:58.339Z</time></trkpt><trkpt lat="45.396147" lon="9.2604379"><ele>100.0</ele><time>2026-04-19T15:04:59.301Z</time></trkpt><trkpt lat="45.3963999" lon="9.260464"><ele>100.0</ele><time>2026-04-19T15:05:00.334Z</time></trkpt><trkpt lat="45.3966566" lon="9.2604916"><ele>100.0</ele><time>2026-04-19T15:05:01.337Z</time></trkpt><trkpt lat="45.3969059" lon="9.2605269"><ele>100.0</ele><time>2026-04-19T15:05:02.343Z</time></trkpt><trkpt lat="45.397162" lon="9.2605784"><ele>100.0</ele><time>2026-04-19T15:05:03.341Z</time></trkpt><trkpt lat="45.397423" lon="9.2606247"><ele>100.0</ele><time>2026-04-19T15:05:04.309Z</time></trkpt><trkpt lat="45.3976763" lon="9.2606699"><ele>100.0</ele><time>2026-04-19T15:05:05.347Z</time></trkpt><trkpt lat="45.3979279" lon="9.2606989"><ele>100.0</ele><time>2026-04-19T15:05:06.333Z</time></trkpt><trkpt lat="45.3981769" lon="9.2607248"><ele>100.5</ele><time>2026-04-19T15:05:07.35Z</time></trkpt><trkpt lat="45.3984226" lon="9.2607396"><ele>101.0</ele><time>2026-04-19T15:05:08.338Z</time></trkpt><trkpt lat="45.3986679" lon="9.2607567"><ele>101.0</ele><time>2026-04-19T15:05:09.331Z</time></trkpt><trkpt lat="45.3989005" lon="9.2607707"><ele>101.0</ele><time>2026-04-19T15:05:10.333Z</time></trkpt><trkpt lat="45.3991329" lon="9.2607837"><ele>101.0</ele><time>2026-04-19T15:05:11.353Z</time></trkpt><trkpt lat="45.3993612" lon="9.2608001"><ele>101.0</ele><time>2026-04-19T15:05:12.343Z</time></trkpt><trkpt lat="45.399595" lon="9.2608255"><ele>99.5</ele><time>2026-04-19T15:05:13.349Z</time></trkpt><trkpt lat="45.3998224" lon="9.2608509"><ele>98.0</ele><time>2026-04-19T15:05:14.34Z</time></trkpt><trkpt lat="45.4000707" lon="9.2608781"><ele>98.0</ele><time>2026-04-19T15:05:15.344Z</time></trkpt><trkpt lat="45.4003221" lon="9.2609037"><ele>98.0</ele><time>2026-04-19T15:05:16.352Z</time></trkpt><trkpt lat="45.4005633" lon="9.2609279"><ele>98.0</ele><time>2026-04-19T15:05:17.366Z</time></trkpt><trkpt lat="45.4008034" lon="9.2609559"><ele>98.0</ele><time>2026-04-19T15:05:18.309Z</time></trkpt><trkpt lat="45.4010552" lon="9.2609807"><ele>98.0</ele><time>2026-04-19T15:05:19.346Z</time></trkpt><trkpt lat="45.4013095" lon="9.2610135"><ele>98.0</ele><time>2026-04-19T15:05:20.34Z</time></trkpt><trkpt lat="45.4015498" lon="9.2610404"><ele>98.5</ele><time>2026-04-19T15:05:21.34Z</time></trkpt><trkpt lat="45.4018032" lon="9.2610642"><ele>99.0</ele><time>2026-04-19T15:05:22.341Z</time></trkpt><trkpt lat="45.4020522" lon="9.2610832"><ele>99.0</ele><time>2026-04-19T15:05:23.345Z</time></trkpt><trkpt lat="45.4023033" lon="9.2611118"><ele>99.0</ele><time>2026-04-19T15:05:24.339Z</time></trkpt><trkpt lat="45.4025548" lon="9.2611418"><ele>99.0</ele><time>2026-04-19T15:05:25.334Z</time></trkpt><trkpt lat="45.4028161" lon="9.2611696"><ele>99.0</ele><time>2026-04-19T15:05:26.343Z</time></trkpt><trkpt lat="45.4030702" lon="9.2611944"><ele>99.5</ele><time>2026-04-19T15:05:27.352Z</time></trkpt><trkpt lat="45.403325" lon="9.2612149"><ele>100.0</ele><time>2026-04-19T15:05:28.346Z</time></trkpt><trkpt lat="45.4035706" lon="9.2612367"><ele>100.0</ele><time>2026-04-19T15:05:29.346Z</time></trkpt><trkpt lat="45.4038228" lon="9.2612682"><ele>100.0</ele><time>2026-04-19T15:05:30.341Z</time></trkpt><trkpt lat="45.4040746" lon="9.2612958"><ele>99.5</ele><time>2026-04-19T15:05:31.351Z</time></trkpt><trkpt lat="45.4043282" lon="9.2613294"><ele>99.0</ele><time>2026-04-19T15:05:32.34Z</time></trkpt><trkpt lat="45.4045653" lon="9.2613598"><ele>98.5</ele><time>2026-04-19T15:05:33.355Z</time></trkpt><trkpt lat="45.4048004" lon="9.2613934"><ele>98.0</ele><time>2026-04-19T15:05:34.351Z</time></trkpt><trkpt lat="45.4050413" lon="9.2614225"><ele>98.0</ele><time>2026-04-19T15:05:35.342Z</time></trkpt><trkpt lat="45.4052838" lon="9.2614476"><ele>98.0</ele><time>2026-04-19T15:05:36.357Z</time></trkpt><trkpt lat="45.4055202" lon="9.2614597"><ele>98.5</ele><time>2026-04-19T15:05:37.347Z</time></trkpt><trkpt lat="45.4057531" lon="9.2614639"><ele>99.0</ele><time>2026-04-19T15:05:38.327Z</time></trkpt><trkpt lat="45.405988" lon="9.2614636"><ele>99.0</ele><time>2026-04-19T15:05:39.341Z</time></trkpt><trkpt lat="45.406218" lon="9.2614501"><ele>99.0</ele><time>2026-04-19T15:05:40.333Z</time></trkpt><trkpt lat="45.4064363" lon="9.2614017"><ele>99.0</ele><time>2026-04-19T15:05:41.337Z</time></trkpt><trkpt lat="45.4066612" lon="9.2613542"><ele>99.0</ele><time>2026-04-19T15:05:42.348Z</time></trkpt><trkpt lat="45.4068803" lon="9.2612938"><ele>99.0</ele><time>2026-04-19T15:05:43.347Z</time></trkpt><trkpt lat="45.4070932" lon="9.2612106"><ele>99.0</ele><time>2026-04-19T15:05:44.348Z</time></trkpt><trkpt lat="45.4073006" lon="9.2611123"><ele>99.0</ele><time>2026-04-19T15:05:45.348Z</time></trkpt><trkpt lat="45.4075084" lon="9.2610004"><ele>98.5</ele><time>2026-04-19T15:05:46.351Z</time></trkpt><trkpt lat="45.4077231" lon="9.2608728"><ele>98.0</ele><time>2026-04-19T15:05:47.344Z</time></trkpt><trkpt lat="45.4079393" lon="9.2607273"><ele>98.0</ele><time>2026-04-19T15:05:48.343Z</time></trkpt><trkpt lat="45.4081617" lon="9.2605521"><ele>98.0</ele><time>2026-04-19T15:05:49.349Z</time></trkpt><trkpt lat="45.408368" lon="9.2603606"><ele>98.0</ele><time>2026-04-19T15:05:50.336Z</time></trkpt><trkpt lat="45.4085723" lon="9.2601781"><ele>98.0</ele><time>2026-04-19T15:05:51.347Z</time></trkpt><trkpt lat="45.4087706" lon="9.2599898"><ele>98.0</ele><time>2026-04-19T15:05:52.327Z</time></trkpt><trkpt lat="45.4089545" lon="9.2597744"><ele>98.0</ele><time>2026-04-19T15:05:53.342Z</time></trkpt><trkpt lat="45.4091444" lon="9.2595462"><ele>98.0</ele><time>2026-04-19T15:05:54.345Z</time></trkpt><trkpt lat="45.4093339" lon="9.2593162"><ele>98.0</ele><time>2026-04-19T15:05:55.339Z</time></trkpt><trkpt lat="45.4095197" lon="9.2590806"><ele>100.0</ele><time>2026-04-19T15:05:56.341Z</time></trkpt><trkpt lat="45.4096954" lon="9.2588459"><ele>102.0</ele><time>2026-04-19T15:05:57.346Z</time></trkpt><trkpt lat="45.4098814" lon="9.2585996"><ele>102.0</ele><time>2026-04-19T15:05:58.362Z</time></trkpt><trkpt lat="45.4100699" lon="9.258359"><ele>102.0</ele><time>2026-04-19T15:05:59.347Z</time></trkpt><trkpt lat="45.4102592" lon="9.2581211"><ele>102.0</ele><time>2026-04-19T15:06:00.345Z</time></trkpt><trkpt lat="45.4104524" lon="9.2578824"><ele>102.0</ele><time>2026-04-19T15:06:01.351Z</time></trkpt><trkpt lat="45.4106495" lon="9.2576385"><ele>102.0</ele><time>2026-04-19T15:06:02.353Z</time></trkpt><trkpt lat="45.4108494" lon="9.2573987"><ele>102.0</ele><time>2026-04-19T15:06:03.338Z</time></trkpt><trkpt lat="45.4110424" lon="9.2571495"><ele>101.5</ele><time>2026-04-19T15:06:04.341Z</time></trkpt><trkpt lat="45.4112332" lon="9.2569082"><ele>101.0</ele><time>2026-04-19T15:06:05.339Z</time></trkpt><trkpt lat="45.4114253" lon="9.2566688"><ele>100.5</ele><time>2026-04-19T15:06:06.345Z</time></trkpt><trkpt lat="45.4116134" lon="9.2564252"><ele>100.0</ele><time>2026-04-19T15:06:07.336Z</time></trkpt><trkpt lat="45.4117986" lon="9.2561798"><ele>100.0</ele><time>2026-04-19T15:06:08.324Z</time></trkpt><trkpt lat="45.4119796" lon="9.2559381"><ele>100.0</ele><time>2026-04-19T15:06:09.345Z</time></trkpt><trkpt lat="45.4121581" lon="9.2556993"><ele>100.0</ele><time>2026-04-19T15:06:10.337Z</time></trkpt><trkpt lat="45.4123376" lon="9.2554639"><ele>100.0</ele><time>2026-04-19T15:06:11.355Z</time></trkpt><trkpt lat="45.4125206" lon="9.2552278"><ele>100.0</ele><time>2026-04-19T15:06:12.294Z</time></trkpt><trkpt lat="45.4127043" lon="9.2549925"><ele>100.0</ele><time>2026-04-19T15:06:13.343Z</time></trkpt><trkpt lat="45.4128842" lon="9.254761"><ele>100.5</ele><time>2026-04-19T15:06:14.339Z</time></trkpt><trkpt lat="45.4130612" lon="9.2545316"><ele>101.0</ele><time>2026-04-19T15:06:15.34Z</time></trkpt><trkpt lat="45.4132425" lon="9.2542891"><ele>101.0</ele><time>2026-04-19T15:06:16.341Z</time></trkpt><trkpt lat="45.4134236" lon="9.2540467"><ele>101.0</ele><time>2026-04-19T15:06:17.333Z</time></trkpt><trkpt lat="45.4136077" lon="9.2538128"><ele>102.0</ele><time>2026-04-19T15:06:18.354Z</time></trkpt><trkpt lat="45.4137906" lon="9.2535639"><ele>103.0</ele><time>2026-04-19T15:06:19.33Z</time></trkpt><trkpt lat="45.4139713" lon="9.253318"><ele>104.5</ele><time>2026-04-19T15:06:20.343Z</time></trkpt><trkpt lat="45.4141513" lon="9.2530702"><ele>106.0</ele><time>2026-04-19T15:06:21.34Z</time></trkpt><trkpt lat="45.4143248" lon="9.2528267"><ele>106.0</ele><time>2026-04-19T15:06:22.34Z</time></trkpt><trkpt lat="45.4144879" lon="9.2525808"><ele>106.0</ele><time>2026-04-19T15:06:23.339Z</time></trkpt><trkpt lat="45.4146572" lon="9.2523383"><ele>102.5</ele><time>2026-04-19T15:06:24.343Z</time></trkpt><trkpt lat="45.414825" lon="9.2520914"><ele>99.0</ele><time>2026-04-19T15:06:25.331Z</time></trkpt><trkpt lat="45.4149955" lon="9.2518479"><ele>99.0</ele><time>2026-04-19T15:06:26.333Z</time></trkpt><trkpt lat="45.4151637" lon="9.2515997"><ele>99.0</ele><time>2026-04-19T15:06:27.344Z</time></trkpt><trkpt lat="45.4153295" lon="9.2513423"><ele>99.5</ele><time>2026-04-19T15:06:28.352Z</time></trkpt><trkpt lat="45.4154966" lon="9.2510865"><ele>100.0</ele><time>2026-04-19T15:06:29.345Z</time></trkpt><trkpt lat="45.4156691" lon="9.2508379"><ele>101.5</ele><time>2026-04-19T15:06:30.349Z</time></trkpt><trkpt lat="45.4158334" lon="9.2505865"><ele>103.0</ele><time>2026-04-19T15:06:31.345Z</time></trkpt><trkpt lat="45.4160015" lon="9.2503369"><ele>103.0</ele><time>2026-04-19T15:06:32.348Z</time></trkpt><trkpt lat="45.4161641" lon="9.2500908"><ele>103.0</ele><time>2026-04-19T15:06:33.346Z</time></trkpt><trkpt lat="45.4163317" lon="9.249851"><ele>102.5</ele><time>2026-04-19T15:06:34.342Z</time></trkpt><trkpt lat="45.416493" lon="9.2496135"><ele>102.0</ele><time>2026-04-19T15:06:35.314Z</time></trkpt><trkpt lat="45.4166448" lon="9.2493746"><ele>102.0</ele><time>2026-04-19T15:06:36.356Z</time></trkpt><trkpt lat="45.4168022" lon="9.249139"><ele>102.0</ele><time>2026-04-19T15:06:37.348Z</time></trkpt><trkpt lat="45.4169645" lon="9.2489013"><ele>102.0</ele><time>2026-04-19T15:06:38.358Z</time></trkpt><trkpt lat="45.4171137" lon="9.2486716"><ele>102.0</ele><time>2026-04-19T15:06:39.34Z</time></trkpt><trkpt lat="45.4172703" lon="9.2484445"><ele>102.0</ele><time>2026-04-19T15:06:40.336Z</time></trkpt><trkpt lat="45.4174305" lon="9.2482211"><ele>101.33333333333334</ele><time>2026-04-19T15:06:41.352Z</time></trkpt><trkpt lat="45.4175948" lon="9.2480049"><ele>100.66666666666667</ele><time>2026-04-19T15:06:42.335Z</time></trkpt><trkpt lat="45.4177607" lon="9.2477995"><ele>100.0</ele><time>2026-04-19T15:06:43.321Z</time></trkpt><trkpt lat="45.4179387" lon="9.2476031"><ele>100.33333333333334</ele><time>2026-04-19T15:06:44.337Z</time></trkpt><trkpt lat="45.4181195" lon="9.247417"><ele>100.66666666666666</ele><time>2026-04-19T15:06:45.351Z</time></trkpt><trkpt lat="45.4183077" lon="9.2472408"><ele>101.0</ele><time>2026-04-19T15:06:46.348Z</time></trkpt><trkpt lat="45.4184935" lon="9.2470765"><ele>101.0</ele><time>2026-04-19T15:06:47.328Z</time></trkpt><trkpt lat="45.4186886" lon="9.2469304"><ele>101.0</ele><time>2026-04-19T15:06:48.349Z</time></trkpt><trkpt lat="45.4188924" lon="9.2467816"><ele>101.0</ele><time>2026-04-19T15:06:49.338Z</time></trkpt><trkpt lat="45.419092" lon="9.2466543"><ele>101.66666666666666</ele><time>2026-04-19T15:06:50.341Z</time></trkpt><trkpt lat="45.4192984" lon="9.2465432"><ele>102.33333333333334</ele><time>2026-04-19T15:06:51.337Z</time></trkpt><trkpt lat="45.4195088" lon="9.2464446"><ele>103.0</ele><time>2026-04-19T15:06:52.32Z</time></trkpt><trkpt lat="45.4197189" lon="9.2463506"><ele>103.66666666666667</ele><time>2026-04-19T15:06:53.325Z</time></trkpt><trkpt lat="45.4199267" lon="9.2462731"><ele>104.33333333333334</ele><time>2026-04-19T15:06:54.344Z</time></trkpt><trkpt lat="45.4201323" lon="9.2462171"><ele>105.0</ele><time>2026-04-19T15:06:55.335Z</time></trkpt><trkpt lat="45.4203485" lon="9.2461577"><ele>105.66666666666666</ele><time>2026-04-19T15:06:56.338Z</time></trkpt><trkpt lat="45.4205607" lon="9.2461126"><ele>106.33333333333333</ele><time>2026-04-19T15:06:57.339Z</time></trkpt><trkpt lat="45.4207769" lon="9.2460741"><ele>107.0</ele><time>2026-04-19T15:06:58.343Z</time></trkpt><trkpt lat="45.4209994" lon="9.246039"><ele>107.0</ele><time>2026-04-19T15:06:59.335Z</time></trkpt><trkpt lat="45.4212227" lon="9.2460033"><ele>107.0</ele><time>2026-04-19T15:07:00.341Z</time></trkpt><trkpt lat="45.421441" lon="9.2459784"><ele>107.0</ele><time>2026-04-19T15:07:01.336Z</time></trkpt><trkpt lat="45.4216608" lon="9.245939"><ele>107.0</ele><time>2026-04-19T15:07:02.347Z</time></trkpt><trkpt lat="45.4218791" lon="9.2459097"><ele>107.0</ele><time>2026-04-19T15:07:03.335Z</time></trkpt><trkpt lat="45.4220915" lon="9.2458835"><ele>107.0</ele><time>2026-04-19T15:07:04.338Z</time></trkpt><trkpt lat="45.4222995" lon="9.2458566"><ele>106.33333333333333</ele><time>2026-04-19T15:07:05.35Z</time></trkpt><trkpt lat="45.4225066" lon="9.2458334"><ele>105.66666666666666</ele><time>2026-04-19T15:07:06.336Z</time></trkpt><trkpt lat="45.4227148" lon="9.2458113"><ele>105.0</ele><time>2026-04-19T15:07:07.349Z</time></trkpt><trkpt lat="45.4229243" lon="9.2457849"><ele>104.33333333333334</ele><time>2026-04-19T15:07:08.353Z</time></trkpt><trkpt lat="45.4231256" lon="9.2457709"><ele>103.66666666666667</ele><time>2026-04-19T15:07:09.33Z</time></trkpt><trkpt lat="45.4233305" lon="9.2457502"><ele>103.0</ele><time>2026-04-19T15:07:10.33Z</time></trkpt><trkpt lat="45.4235378" lon="9.2457249"><ele>103.0</ele><time>2026-04-19T15:07:11.343Z</time></trkpt><trkpt lat="45.4237451" lon="9.2456962"><ele>103.0</ele><time>2026-04-19T15:07:12.368Z</time></trkpt><trkpt lat="45.4239494" lon="9.2456653"><ele>103.0</ele><time>2026-04-19T15:07:13.345Z</time></trkpt><trkpt lat="45.4241489" lon="9.2456388"><ele>103.33333333333334</ele><time>2026-04-19T15:07:14.338Z</time></trkpt><trkpt lat="45.4243504" lon="9.2456106"><ele>103.66666666666666</ele><time>2026-04-19T15:07:15.345Z</time></trkpt><trkpt lat="45.4245583" lon="9.2455896"><ele>104.0</ele><time>2026-04-19T15:07:16.349Z</time></trkpt><trkpt lat="45.4247653" lon="9.2455742"><ele>104.0</ele><time>2026-04-19T15:07:17.349Z</time></trkpt><trkpt lat="45.4249751" lon="9.2455685"><ele>104.0</ele><time>2026-04-19T15:07:18.352Z</time></trkpt><trkpt lat="45.4251831" lon="9.2455744"><ele>104.0</ele><time>2026-04-19T15:07:19.355Z</time></trkpt><trkpt lat="45.4253793" lon="9.2455787"><ele>104.0</ele><time>2026-04-19T15:07:20.344Z</time></trkpt><trkpt lat="45.4255781" lon="9.2455984"><ele>104.0</ele><time>2026-04-19T15:07:21.331Z</time></trkpt><trkpt lat="45.4257747" lon="9.2456351"><ele>104.0</ele><time>2026-04-19T15:07:22.348Z</time></trkpt><trkpt lat="45.4259758" lon="9.2456766"><ele>104.0</ele><time>2026-04-19T15:07:23.347Z</time></trkpt><trkpt lat="45.4261775" lon="9.2457392"><ele>104.0</ele><time>2026-04-19T15:07:24.333Z</time></trkpt><trkpt lat="45.426391" lon="9.2458152"><ele>104.0</ele><time>2026-04-19T15:07:25.344Z</time></trkpt><trkpt lat="45.4266064" lon="9.245913"><ele>102.5</ele><time>2026-04-19T15:07:26.349Z</time></trkpt><trkpt lat="45.4268175" lon="9.2460231"><ele>101.0</ele><time>2026-04-19T15:07:27.312Z</time></trkpt><trkpt lat="45.4270284" lon="9.2461398"><ele>102.0</ele><time>2026-04-19T15:07:28.334Z</time></trkpt><trkpt lat="45.4272254" lon="9.2462718"><ele>103.0</ele><time>2026-04-19T15:07:29.349Z</time></trkpt><trkpt lat="45.4274162" lon="9.246421"><ele>104.0</ele><time>2026-04-19T15:07:30.342Z</time></trkpt><trkpt lat="45.4276151" lon="9.2465785"><ele>104.66666666666666</ele><time>2026-04-19T15:07:31.329Z</time></trkpt><trkpt lat="45.4277931" lon="9.2467484"><ele>105.33333333333334</ele><time>2026-04-19T15:07:32.346Z</time></trkpt><trkpt lat="45.4279749" lon="9.2469258"><ele>106.0</ele><time>2026-04-19T15:07:33.322Z</time></trkpt><trkpt lat="45.4281549" lon="9.2471216"><ele>107.66666666666667</ele><time>2026-04-19T15:07:34.362Z</time></trkpt><trkpt lat="45.428321" lon="9.2473393"><ele>109.33333333333334</ele><time>2026-04-19T15:07:35.338Z</time></trkpt><trkpt lat="45.4284698" lon="9.247556"><ele>111.0</ele><time>2026-04-19T15:07:36.34Z</time></trkpt><trkpt lat="45.4286243" lon="9.2477721"><ele>111.0</ele><time>2026-04-19T15:07:37.32Z</time></trkpt><trkpt lat="45.4287679" lon="9.2479985"><ele>111.0</ele><time>2026-04-19T15:07:38.305Z</time></trkpt><trkpt lat="45.4289136" lon="9.2482315"><ele>111.0</ele><time>2026-04-19T15:07:39.295Z</time></trkpt><trkpt lat="45.4290508" lon="9.24846"><ele>110.66666666666666</ele><time>2026-04-19T15:07:40.315Z</time></trkpt><trkpt lat="45.4291968" lon="9.2486893"><ele>110.33333333333333</ele><time>2026-04-19T15:07:41.328Z</time></trkpt><trkpt lat="45.4293371" lon="9.2489189"><ele>110.0</ele><time>2026-04-19T15:07:42.328Z</time></trkpt><trkpt lat="45.4294807" lon="9.2491501"><ele>109.33333333333333</ele><time>2026-04-19T15:07:43.336Z</time></trkpt><trkpt lat="45.4296284" lon="9.2493891"><ele>108.66666666666666</ele><time>2026-04-19T15:07:44.351Z</time></trkpt><trkpt lat="45.4297799" lon="9.2496266"><ele>108.0</ele><time>2026-04-19T15:07:45.345Z</time></trkpt><trkpt lat="45.4299274" lon="9.249862"><ele>107.5</ele><time>2026-04-19T15:07:46.341Z</time></trkpt><trkpt lat="45.4300836" lon="9.2501095"><ele>107.0</ele><time>2026-04-19T15:07:47.318Z</time></trkpt><trkpt lat="45.4302334" lon="9.250359"><ele>107.0</ele><time>2026-04-19T15:07:48.353Z</time></trkpt><trkpt lat="45.4303854" lon="9.2506027"><ele>107.0</ele><time>2026-04-19T15:07:49.347Z</time></trkpt><trkpt lat="45.4305467" lon="9.2508539"><ele>106.5</ele><time>2026-04-19T15:07:50.354Z</time></trkpt><trkpt lat="45.4307079" lon="9.2510962"><ele>106.0</ele><time>2026-04-19T15:07:51.345Z</time></trkpt><trkpt lat="45.4308714" lon="9.2513383"><ele>106.0</ele><time>2026-04-19T15:07:52.332Z</time></trkpt><trkpt lat="45.4310395" lon="9.2515892"><ele>106.0</ele><time>2026-04-19T15:07:53.345Z</time></trkpt><trkpt lat="45.431213" lon="9.2518451"><ele>105.5</ele><time>2026-04-19T15:07:54.347Z</time></trkpt><trkpt lat="45.4313906" lon="9.2520919"><ele>105.0</ele><time>2026-04-19T15:07:55.346Z</time></trkpt><trkpt lat="45.4315713" lon="9.2523309"><ele>104.5</ele><time>2026-04-19T15:07:56.354Z</time></trkpt><trkpt lat="45.4317566" lon="9.2525664"><ele>104.0</ele><time>2026-04-19T15:07:57.337Z</time></trkpt><trkpt lat="45.4319465" lon="9.2527929"><ele>103.0</ele><time>2026-04-19T15:07:58.348Z</time></trkpt><trkpt lat="45.4321434" lon="9.2530078"><ele>102.0</ele><time>2026-04-19T15:07:59.348Z</time></trkpt><trkpt lat="45.4323405" lon="9.2532162"><ele>102.0</ele><time>2026-04-19T15:08:00.343Z</time></trkpt><trkpt lat="45.4325394" lon="9.2534287"><ele>102.0</ele><time>2026-04-19T15:08:01.324Z</time></trkpt><trkpt lat="45.4327383" lon="9.2536265"><ele>102.0</ele><time>2026-04-19T15:08:02.329Z</time></trkpt><trkpt lat="45.432947" lon="9.2538305"><ele>102.0</ele><time>2026-04-19T15:08:03.348Z</time></trkpt><trkpt lat="45.4331549" lon="9.2540294"><ele>104.5</ele><time>2026-04-19T15:08:04.296Z</time></trkpt><trkpt lat="45.4333752" lon="9.2542253"><ele>107.0</ele><time>2026-04-19T15:08:05.339Z</time></trkpt><trkpt lat="45.4335948" lon="9.2544121"><ele>107.0</ele><time>2026-04-19T15:08:06.346Z</time></trkpt><trkpt lat="45.433818" lon="9.2545905"><ele>107.0</ele><time>2026-04-19T15:08:07.325Z</time></trkpt><trkpt lat="45.4340503" lon="9.2547582"><ele>107.0</ele><time>2026-04-19T15:08:08.344Z</time></trkpt><trkpt lat="45.4342837" lon="9.2549178"><ele>107.0</ele><time>2026-04-19T15:08:09.353Z</time></trkpt><trkpt lat="45.4345234" lon="9.2550765"><ele>106.5</ele><time>2026-04-19T15:08:10.335Z</time></trkpt><trkpt lat="45.4347612" lon="9.2552331"><ele>106.0</ele><time>2026-04-19T15:08:11.344Z</time></trkpt><trkpt lat="45.4350005" lon="9.2553868"><ele>106.0</ele><time>2026-04-19T15:08:12.347Z</time></trkpt><trkpt lat="45.4352443" lon="9.2555137"><ele>106.0</ele><time>2026-04-19T15:08:13.34Z</time></trkpt><trkpt lat="45.435486" lon="9.2556373"><ele>107.0</ele><time>2026-04-19T15:08:14.342Z</time></trkpt><trkpt lat="45.4357265" lon="9.2557623"><ele>108.0</ele><time>2026-04-19T15:08:15.35Z</time></trkpt><trkpt lat="45.4359648" lon="9.2558661"><ele>108.0</ele><time>2026-04-19T15:08:16.344Z</time></trkpt><trkpt lat="45.4362035" lon="9.2559517"><ele>108.0</ele><time>2026-04-19T15:08:17.34Z</time></trkpt><trkpt lat="45.4364444" lon="9.2560508"><ele>107.0</ele><time>2026-04-19T15:08:18.358Z</time></trkpt><trkpt lat="45.4366873" lon="9.2561327"><ele>106.0</ele><time>2026-04-19T15:08:19.346Z</time></trkpt><trkpt lat="45.4369342" lon="9.2562139"><ele>107.0</ele><time>2026-04-19T15:08:20.354Z</time></trkpt><trkpt lat="45.4371773" lon="9.2563004"><ele>108.0</ele><time>2026-04-19T15:08:21.339Z</time></trkpt><trkpt lat="45.4374265" lon="9.2563809"><ele>105.5</ele><time>2026-04-19T15:08:22.345Z</time></trkpt><trkpt lat="45.4376819" lon="9.2564533"><ele>103.0</ele><time>2026-04-19T15:08:23.309Z</time></trkpt><trkpt lat="45.437928" lon="9.2565253"><ele>103.5</ele><time>2026-04-19T15:08:24.344Z</time></trkpt><trkpt lat="45.4381822" lon="9.2565906"><ele>104.0</ele><time>2026-04-19T15:08:25.356Z</time></trkpt><trkpt lat="45.4384317" lon="9.2566564"><ele>104.0</ele><time>2026-04-19T15:08:26.35Z</time></trkpt><trkpt lat="45.4386773" lon="9.2567241"><ele>104.0</ele><time>2026-04-19T15:08:27.329Z</time></trkpt><trkpt lat="45.4389162" lon="9.2567997"><ele>104.0</ele><time>2026-04-19T15:08:28.343Z</time></trkpt><trkpt lat="45.4391652" lon="9.256872"><ele>104.0</ele><time>2026-04-19T15:08:29.347Z</time></trkpt><trkpt lat="45.4394058" lon="9.2569454"><ele>104.5</ele><time>2026-04-19T15:08:30.349Z</time></trkpt><trkpt lat="45.4396362" lon="9.2570071"><ele>105.0</ele><time>2026-04-19T15:08:31.354Z</time></trkpt><trkpt lat="45.4398602" lon="9.2570725"><ele>105.0</ele><time>2026-04-19T15:08:32.35Z</time></trkpt><trkpt lat="45.4400774" lon="9.2571236"><ele>105.0</ele><time>2026-04-19T15:08:33.35Z</time></trkpt><trkpt lat="45.4402772" lon="9.2571761"><ele>105.0</ele><time>2026-04-19T15:08:34.351Z</time></trkpt><trkpt lat="45.4404658" lon="9.2572236"><ele>104.66666666666666</ele><time>2026-04-19T15:08:35.352Z</time></trkpt><trkpt lat="45.4406286" lon="9.2572666"><ele>104.33333333333333</ele><time>2026-04-19T15:08:36.343Z</time></trkpt><trkpt lat="45.4407798" lon="9.2573055"><ele>104.0</ele><time>2026-04-19T15:08:37.353Z</time></trkpt><trkpt lat="45.4409196" lon="9.2573447"><ele>103.80000000000001</ele><time>2026-04-19T15:08:38.325Z</time></trkpt><trkpt lat="45.4410268" lon="9.2573729"><ele>103.60000000000001</ele><time>2026-04-19T15:08:39.342Z</time></trkpt><trkpt lat="45.4411189" lon="9.257399"><ele>103.4</ele><time>2026-04-19T15:08:40.333Z</time></trkpt><trkpt lat="45.4412089" lon="9.2574189"><ele>103.2</ele><time>2026-04-19T15:08:41.344Z</time></trkpt><trkpt lat="45.4413007" lon="9.2574419"><ele>103.0</ele><time>2026-04-19T15:08:42.347Z</time></trkpt><trkpt lat="45.4413846" lon="9.2574647"><ele>102.0</ele><time>2026-04-19T15:08:43.358Z</time></trkpt><trkpt lat="45.4414762" lon="9.2574884"><ele>101.0</ele><time>2026-04-19T15:08:44.344Z</time></trkpt><trkpt lat="45.4415724" lon="9.2575164"><ele>100.0</ele><time>2026-04-19T15:08:45.342Z</time></trkpt><trkpt lat="45.4416732" lon="9.2575471"><ele>99.0</ele><time>2026-04-19T15:08:46.331Z</time></trkpt><trkpt lat="45.4417733" lon="9.2575763"><ele>98.0</ele><time>2026-04-19T15:08:47.344Z</time></trkpt><trkpt lat="45.4418708" lon="9.2576048"><ele>98.0</ele><time>2026-04-19T15:08:48.33Z</time></trkpt><trkpt lat="45.4419725" lon="9.2576346"><ele>98.0</ele><time>2026-04-19T15:08:49.35Z</time></trkpt><trkpt lat="45.4420738" lon="9.2576687"><ele>98.0</ele><time>2026-04-19T15:08:50.34Z</time></trkpt><trkpt lat="45.4421839" lon="9.2577045"><ele>98.0</ele><time>2026-04-19T15:08:51.327Z</time></trkpt><trkpt lat="45.442303" lon="9.2577476"><ele>98.0</ele><time>2026-04-19T15:08:52.34Z</time></trkpt><trkpt lat="45.4424249" lon="9.257786"><ele>99.5</ele><time>2026-04-19T15:08:53.332Z</time></trkpt><trkpt lat="45.4425502" lon="9.2578261"><ele>101.0</ele><time>2026-04-19T15:08:54.297Z</time></trkpt><trkpt lat="45.4426726" lon="9.257868"><ele>102.5</ele><time>2026-04-19T15:08:55.305Z</time></trkpt><trkpt lat="45.4428043" lon="9.2578929"><ele>104.0</ele><time>2026-04-19T15:08:56.297Z</time></trkpt><trkpt lat="45.442929" lon="9.2579293"><ele>102.25</ele><time>2026-04-19T15:08:57.343Z</time></trkpt><trkpt lat="45.4430528" lon="9.2579603"><ele>100.5</ele><time>2026-04-19T15:08:58.312Z</time></trkpt><trkpt lat="45.4431863" lon="9.2580002"><ele>98.75</ele><time>2026-04-19T15:08:59.325Z</time></trkpt><trkpt lat="45.4433136" lon="9.2580464"><ele>97.0</ele><time>2026-04-19T15:09:00.333Z</time></trkpt><trkpt lat="45.4434463" lon="9.2580921"><ele>98.0</ele><time>2026-04-19T15:09:01.322Z</time></trkpt><trkpt lat="45.4435836" lon="9.2581365"><ele>99.0</ele><time>2026-04-19T15:09:02.304Z</time></trkpt><trkpt lat="45.4437157" lon="9.2581764"><ele>100.0</ele><time>2026-04-19T15:09:03.346Z</time></trkpt><trkpt lat="45.4438617" lon="9.2582146"><ele>101.0</ele><time>2026-04-19T15:09:04.319Z</time></trkpt><trkpt lat="45.444004" lon="9.2582498"><ele>98.75</ele><time>2026-04-19T15:09:05.318Z</time></trkpt><trkpt lat="45.4441382" lon="9.2582832"><ele>96.5</ele><time>2026-04-19T15:09:06.324Z</time></trkpt><trkpt lat="45.444278" lon="9.2583263"><ele>94.25</ele><time>2026-04-19T15:09:07.32Z</time></trkpt><trkpt lat="45.4444138" lon="9.2583672"><ele>92.0</ele><time>2026-04-19T15:09:08.324Z</time></trkpt><trkpt lat="45.4445481" lon="9.2584092"><ele>91.75</ele><time>2026-04-19T15:09:09.299Z</time></trkpt><trkpt lat="45.4446799" lon="9.2584376"><ele>91.5</ele><time>2026-04-19T15:09:10.291Z</time></trkpt><trkpt lat="45.4448014" lon="9.2584738"><ele>91.25</ele><time>2026-04-19T15:09:11.296Z</time></trkpt><trkpt lat="45.4449049" lon="9.2585043"><ele>91.0</ele><time>2026-04-19T15:09:12.33Z</time></trkpt><trkpt lat="45.4450098" lon="9.2585331"><ele>91.0</ele><time>2026-04-19T15:09:13.321Z</time></trkpt><trkpt lat="45.4451188" lon="9.2585643"><ele>91.0</ele><time>2026-04-19T15:09:14.302Z</time></trkpt><trkpt lat="45.4452208" lon="9.2585969"><ele>91.0</ele><time>2026-04-19T15:09:15.308Z</time></trkpt><trkpt lat="45.4453314" lon="9.2586309"><ele>91.0</ele><time>2026-04-19T15:09:16.292Z</time></trkpt><trkpt lat="45.445442" lon="9.2586652"><ele>91.0</ele><time>2026-04-19T15:09:17.287Z</time></trkpt><trkpt lat="45.4455581" lon="9.2587036"><ele>93.5</ele><time>2026-04-19T15:09:18.307Z</time></trkpt><trkpt lat="45.445684" lon="9.2587448"><ele>96.0</ele><time>2026-04-19T15:09:19.288Z</time></trkpt><trkpt lat="45.4458205" lon="9.2587764"><ele>98.5</ele><time>2026-04-19T15:09:20.308Z</time></trkpt><trkpt lat="45.4459599" lon="9.2588175"><ele>101.0</ele><time>2026-04-19T15:09:21.313Z</time></trkpt><trkpt lat="45.4460963" lon="9.2588615"><ele>101.0</ele><time>2026-04-19T15:09:22.314Z</time></trkpt><trkpt lat="45.4462382" lon="9.2589009"><ele>101.0</ele><time>2026-04-19T15:09:23.323Z</time></trkpt><trkpt lat="45.4463813" lon="9.2589318"><ele>101.0</ele><time>2026-04-19T15:09:24.297Z</time></trkpt><trkpt lat="45.4465295" lon="9.2589687"><ele>101.0</ele><time>2026-04-19T15:09:25.304Z</time></trkpt><trkpt lat="45.446693" lon="9.2589896"><ele>102.66666666666666</ele><time>2026-04-19T15:09:26.315Z</time></trkpt><trkpt lat="45.4468616" lon="9.2590036"><ele>104.33333333333334</ele><time>2026-04-19T15:09:27.323Z</time></trkpt><trkpt lat="45.4470332" lon="9.2590111"><ele>106.0</ele><time>2026-04-19T15:09:28.323Z</time></trkpt><trkpt lat="45.4472167" lon="9.2590118"><ele>106.66666666666667</ele><time>2026-04-19T15:09:29.326Z</time></trkpt><trkpt lat="45.4474073" lon="9.2590164"><ele>107.33333333333334</ele><time>2026-04-19T15:09:30.345Z</time></trkpt><trkpt lat="45.4476053" lon="9.2590185"><ele>108.0</ele><time>2026-04-19T15:09:31.322Z</time></trkpt><trkpt lat="45.4477961" lon="9.2590274"><ele>107.0</ele><time>2026-04-19T15:09:32.31Z</time></trkpt><trkpt lat="45.4479876" lon="9.25902"><ele>106.0</ele><time>2026-04-19T15:09:33.317Z</time></trkpt><trkpt lat="45.4481773" lon="9.258988"><ele>105.0</ele><time>2026-04-19T15:09:34.334Z</time></trkpt><trkpt lat="45.4483704" lon="9.2589568"><ele>105.66666666666666</ele><time>2026-04-19T15:09:35.327Z</time></trkpt><trkpt lat="45.4485612" lon="9.2589249"><ele>106.33333333333333</ele><time>2026-04-19T15:09:36.341Z</time></trkpt><trkpt lat="45.4487483" lon="9.2588648"><ele>107.0</ele><time>2026-04-19T15:09:37.327Z</time></trkpt><trkpt lat="45.4489332" lon="9.25881"><ele>107.66666666666666</ele><time>2026-04-19T15:09:38.331Z</time></trkpt><trkpt lat="45.4491185" lon="9.2587492"><ele>108.33333333333334</ele><time>2026-04-19T15:09:39.352Z</time></trkpt><trkpt lat="45.4493079" lon="9.2586779"><ele>109.0</ele><time>2026-04-19T15:09:40.322Z</time></trkpt><trkpt lat="45.4494984" lon="9.2585971"><ele>110.0</ele><time>2026-04-19T15:09:41.305Z</time></trkpt><trkpt lat="45.4496883" lon="9.2585046"><ele>111.0</ele><time>2026-04-19T15:09:42.342Z</time></trkpt><trkpt lat="45.4498904" lon="9.2583995"><ele>112.0</ele><time>2026-04-19T15:09:43.338Z</time></trkpt><trkpt lat="45.4500756" lon="9.258285"><ele>112.0</ele><time>2026-04-19T15:09:44.313Z</time></trkpt><trkpt lat="45.4502655" lon="9.2581528"><ele>112.0</ele><time>2026-04-19T15:09:45.318Z</time></trkpt><trkpt lat="45.4504531" lon="9.2580184"><ele>112.0</ele><time>2026-04-19T15:09:46.342Z</time></trkpt><trkpt lat="45.4506394" lon="9.257891"><ele>112.0</ele><time>2026-04-19T15:09:47.329Z</time></trkpt><trkpt lat="45.4508193" lon="9.257748"><ele>112.0</ele><time>2026-04-19T15:09:48.333Z</time></trkpt><trkpt lat="45.4509963" lon="9.2576096"><ele>112.0</ele><time>2026-04-19T15:09:49.317Z</time></trkpt><trkpt lat="45.4511681" lon="9.2574727"><ele>111.66666666666667</ele><time>2026-04-19T15:09:50.346Z</time></trkpt><trkpt lat="45.4513264" lon="9.2573391"><ele>111.33333333333334</ele><time>2026-04-19T15:09:51.332Z</time></trkpt><trkpt lat="45.4514869" lon="9.2572024"><ele>111.0</ele><time>2026-04-19T15:09:52.333Z</time></trkpt><trkpt lat="45.4516426" lon="9.2570786"><ele>111.0</ele><time>2026-04-19T15:09:53.328Z</time></trkpt><trkpt lat="45.4517885" lon="9.2569547"><ele>111.0</ele><time>2026-04-19T15:09:54.301Z</time></trkpt><trkpt lat="45.4519248" lon="9.2568373"><ele>111.0</ele><time>2026-04-19T15:09:55.316Z</time></trkpt><trkpt lat="45.4520585" lon="9.2567281"><ele>110.75</ele><time>2026-04-19T15:09:56.327Z</time></trkpt><trkpt lat="45.4521849" lon="9.2566298"><ele>110.5</ele><time>2026-04-19T15:09:57.335Z</time></trkpt><trkpt lat="45.4523052" lon="9.25652"><ele>110.25</ele><time>2026-04-19T15:09:58.348Z</time></trkpt><trkpt lat="45.4524258" lon="9.2564222"><ele>110.0</ele><time>2026-04-19T15:09:59.312Z</time></trkpt><trkpt lat="45.4525456" lon="9.2563188"><ele>110.0</ele><time>2026-04-19T15:10:00.336Z</time></trkpt><trkpt lat="45.4526721" lon="9.2562143"><ele>110.0</ele><time>2026-04-19T15:10:01.339Z</time></trkpt><trkpt lat="45.4527886" lon="9.2561193"><ele>110.0</ele><time>2026-04-19T15:10:02.35Z</time></trkpt><trkpt lat="45.4529098" lon="9.2560188"><ele>110.0</ele><time>2026-04-19T15:10:03.344Z</time></trkpt><trkpt lat="45.4530291" lon="9.2559247"><ele>110.0</ele><time>2026-04-19T15:10:04.343Z</time></trkpt><trkpt lat="45.4531434" lon="9.2558271"><ele>110.0</ele><time>2026-04-19T15:10:05.322Z</time></trkpt><trkpt lat="45.4532664" lon="9.2557245"><ele>110.0</ele><time>2026-04-19T15:10:06.354Z</time></trkpt><trkpt lat="45.453382" lon="9.2556142"><ele>110.0</ele><time>2026-04-19T15:10:07.332Z</time></trkpt><trkpt lat="45.4535072" lon="9.2555044"><ele>110.0</ele><time>2026-04-19T15:10:08.345Z</time></trkpt><trkpt lat="45.4536382" lon="9.2553966"><ele>110.0</ele><time>2026-04-19T15:10:09.342Z</time></trkpt><trkpt lat="45.453767" lon="9.2552893"><ele>110.0</ele><time>2026-04-19T15:10:10.348Z</time></trkpt><trkpt lat="45.4538933" lon="9.2551795"><ele>110.0</ele><time>2026-04-19T15:10:11.349Z</time></trkpt><trkpt lat="45.45403" lon="9.2550642"><ele>110.33333333333333</ele><time>2026-04-19T15:10:12.348Z</time></trkpt><trkpt lat="45.4541639" lon="9.254947"><ele>110.66666666666666</ele><time>2026-04-19T15:10:13.346Z</time></trkpt><trkpt lat="45.4543032" lon="9.2548331"><ele>111.0</ele><time>2026-04-19T15:10:14.349Z</time></trkpt><trkpt lat="45.4544472" lon="9.2547151"><ele>110.33333333333334</ele><time>2026-04-19T15:10:15.338Z</time></trkpt><trkpt lat="45.4545829" lon="9.2545947"><ele>109.66666666666667</ele><time>2026-04-19T15:10:16.35Z</time></trkpt><trkpt lat="45.4547273" lon="9.2544797"><ele>109.0</ele><time>2026-04-19T15:10:17.338Z</time></trkpt><trkpt lat="45.4548707" lon="9.2543554"><ele>111.0</ele><time>2026-04-19T15:10:18.332Z</time></trkpt><trkpt lat="45.4550241" lon="9.2542299"><ele>113.0</ele><time>2026-04-19T15:10:19.355Z</time></trkpt><trkpt lat="45.4551805" lon="9.2541052"><ele>115.0</ele><time>2026-04-19T15:10:20.34Z</time></trkpt><trkpt lat="45.4553358" lon="9.2539703"><ele>113.66666666666667</ele><time>2026-04-19T15:10:21.318Z</time></trkpt><trkpt lat="45.4554954" lon="9.2538372"><ele>112.33333333333334</ele><time>2026-04-19T15:10:22.314Z</time></trkpt><trkpt lat="45.4556573" lon="9.2537062"><ele>111.0</ele><time>2026-04-19T15:10:23.365Z</time></trkpt><trkpt lat="45.4558203" lon="9.2535711"><ele>111.0</ele><time>2026-04-19T15:10:24.337Z</time></trkpt><trkpt lat="45.4559806" lon="9.2534339"><ele>111.0</ele><time>2026-04-19T15:10:25.336Z</time></trkpt><trkpt lat="45.4561452" lon="9.253299"><ele>111.0</ele><time>2026-04-19T15:10:26.342Z</time></trkpt><trkpt lat="45.4563145" lon="9.2531618"><ele>111.33333333333334</ele><time>2026-04-19T15:10:27.354Z</time></trkpt><trkpt lat="45.4564937" lon="9.2530225"><ele>111.66666666666667</ele><time>2026-04-19T15:10:28.33Z</time></trkpt><trkpt lat="45.4566623" lon="9.2528938"><ele>112.0</ele><time>2026-04-19T15:10:29.348Z</time></trkpt><trkpt lat="45.4568307" lon="9.2527684"><ele>112.0</ele><time>2026-04-19T15:10:30.316Z</time></trkpt><trkpt lat="45.4569907" lon="9.2526425"><ele>112.0</ele><time>2026-04-19T15:10:31.325Z</time></trkpt><trkpt lat="45.457154" lon="9.2525255"><ele>112.0</ele><time>2026-04-19T15:10:32.344Z</time></trkpt><trkpt lat="45.457325" lon="9.2524252"><ele>112.33333333333334</ele><time>2026-04-19T15:10:33.357Z</time></trkpt><trkpt lat="45.4574923" lon="9.2523232"><ele>112.66666666666666</ele><time>2026-04-19T15:10:34.349Z</time></trkpt><trkpt lat="45.4576626" lon="9.2522258"><ele>113.0</ele><time>2026-04-19T15:10:35.342Z</time></trkpt><trkpt lat="45.4578418" lon="9.2521308"><ele>113.33333333333333</ele><time>2026-04-19T15:10:36.349Z</time></trkpt><trkpt lat="45.4580176" lon="9.252031"><ele>113.66666666666666</ele><time>2026-04-19T15:10:37.348Z</time></trkpt><trkpt lat="45.4581968" lon="9.251948"><ele>114.0</ele><time>2026-04-19T15:10:38.336Z</time></trkpt><trkpt lat="45.4583696" lon="9.2518683"><ele>114.0</ele><time>2026-04-19T15:10:39.343Z</time></trkpt><trkpt lat="45.4585347" lon="9.2517983"><ele>114.0</ele><time>2026-04-19T15:10:40.342Z</time></trkpt><trkpt lat="45.4587037" lon="9.2517338"><ele>114.0</ele><time>2026-04-19T15:10:41.345Z</time></trkpt><trkpt lat="45.4588812" lon="9.2516624"><ele>113.66666666666666</ele><time>2026-04-19T15:10:42.348Z</time></trkpt><trkpt lat="45.4590567" lon="9.2515985"><ele>113.33333333333333</ele><time>2026-04-19T15:10:43.345Z</time></trkpt><trkpt lat="45.459239" lon="9.2515368"><ele>113.0</ele><time>2026-04-19T15:10:44.332Z</time></trkpt><trkpt lat="45.4594181" lon="9.2514863"><ele>113.0</ele><time>2026-04-19T15:10:45.349Z</time></trkpt><trkpt lat="45.4596023" lon="9.2514421"><ele>113.0</ele><time>2026-04-19T15:10:46.344Z</time></trkpt><trkpt lat="45.4597823" lon="9.2514068"><ele>113.0</ele><time>2026-04-19T15:10:47.338Z</time></trkpt><trkpt lat="45.4599575" lon="9.2513771"><ele>113.0</ele><time>2026-04-19T15:10:48.342Z</time></trkpt><trkpt lat="45.4601301" lon="9.2513519"><ele>113.0</ele><time>2026-04-19T15:10:49.342Z</time></trkpt><trkpt lat="45.4603057" lon="9.2513276"><ele>113.0</ele><time>2026-04-19T15:10:50.338Z</time></trkpt><trkpt lat="45.4604817" lon="9.2513112"><ele>114.33333333333333</ele><time>2026-04-19T15:10:51.324Z</time></trkpt><trkpt lat="45.4606601" lon="9.2512965"><ele>115.66666666666666</ele><time>2026-04-19T15:10:52.343Z</time></trkpt><trkpt lat="45.4608429" lon="9.2512934"><ele>117.0</ele><time>2026-04-19T15:10:53.352Z</time></trkpt><trkpt lat="45.4610299" lon="9.2512969"><ele>117.0</ele><time>2026-04-19T15:10:54.323Z</time></trkpt><trkpt lat="45.4612234" lon="9.2513052"><ele>117.0</ele><time>2026-04-19T15:10:55.333Z</time></trkpt><trkpt lat="45.4614167" lon="9.2513202"><ele>117.0</ele><time>2026-04-19T15:10:56.341Z</time></trkpt><trkpt lat="45.4616156" lon="9.2513311"><ele>116.66666666666666</ele><time>2026-04-19T15:10:57.347Z</time></trkpt><trkpt lat="45.4618186" lon="9.2513537"><ele>116.33333333333333</ele><time>2026-04-19T15:10:58.344Z</time></trkpt><trkpt lat="45.4620199" lon="9.2513782"><ele>116.0</ele><time>2026-04-19T15:10:59.307Z</time></trkpt><trkpt lat="45.4622296" lon="9.2514188"><ele>114.33333333333333</ele><time>2026-04-19T15:11:00.332Z</time></trkpt><trkpt lat="45.4624313" lon="9.2514558"><ele>112.66666666666666</ele><time>2026-04-19T15:11:01.361Z</time></trkpt><trkpt lat="45.4626407" lon="9.2514994"><ele>111.0</ele><time>2026-04-19T15:11:02.328Z</time></trkpt><trkpt lat="45.4628503" lon="9.2515576"><ele>110.0</ele><time>2026-04-19T15:11:03.319Z</time></trkpt><trkpt lat="45.4630678" lon="9.2516174"><ele>109.0</ele><time>2026-04-19T15:11:04.345Z</time></trkpt><trkpt lat="45.4632881" lon="9.251683"><ele>108.0</ele><time>2026-04-19T15:11:05.349Z</time></trkpt><trkpt lat="45.4635044" lon="9.2517501"><ele>108.0</ele><time>2026-04-19T15:11:06.336Z</time></trkpt><trkpt lat="45.4637259" lon="9.2518162"><ele>108.0</ele><time>2026-04-19T15:11:07.346Z</time></trkpt><trkpt lat="45.4639445" lon="9.2518717"><ele>108.0</ele><time>2026-04-19T15:11:08.347Z</time></trkpt><trkpt lat="45.464162" lon="9.2519316"><ele>108.5</ele><time>2026-04-19T15:11:09.344Z</time></trkpt><trkpt lat="45.4643814" lon="9.2519947"><ele>109.0</ele><time>2026-04-19T15:11:10.342Z</time></trkpt><trkpt lat="45.4646079" lon="9.2520504"><ele>111.0</ele><time>2026-04-19T15:11:11.338Z</time></trkpt><trkpt lat="45.464844" lon="9.2521026"><ele>113.0</ele><time>2026-04-19T15:11:12.341Z</time></trkpt><trkpt lat="45.4650735" lon="9.2521441"><ele>113.0</ele><time>2026-04-19T15:11:13.337Z</time></trkpt><trkpt lat="45.4653036" lon="9.2521781"><ele>113.0</ele><time>2026-04-19T15:11:14.311Z</time></trkpt><trkpt lat="45.4655325" lon="9.2522012"><ele>113.33333333333333</ele><time>2026-04-19T15:11:15.347Z</time></trkpt><trkpt lat="45.4657533" lon="9.2522259"><ele>113.66666666666666</ele><time>2026-04-19T15:11:16.345Z</time></trkpt><trkpt lat="45.4659764" lon="9.2522347"><ele>114.0</ele><time>2026-04-19T15:11:17.347Z</time></trkpt><trkpt lat="45.4662048" lon="9.2522404"><ele>114.5</ele><time>2026-04-19T15:11:18.351Z</time></trkpt><trkpt lat="45.4664371" lon="9.2522285"><ele>115.0</ele><time>2026-04-19T15:11:19.304Z</time></trkpt><trkpt lat="45.4666696" lon="9.2522223"><ele>115.0</ele><time>2026-04-19T15:11:20.34Z</time></trkpt><trkpt lat="45.4669062" lon="9.2522126"><ele>115.0</ele><time>2026-04-19T15:11:21.351Z</time></trkpt><trkpt lat="45.4671419" lon="9.2522028"><ele>115.0</ele><time>2026-04-19T15:11:22.346Z</time></trkpt><trkpt lat="45.4673765" lon="9.2521948"><ele>115.0</ele><time>2026-04-19T15:11:23.332Z</time></trkpt><trkpt lat="45.4676121" lon="9.2521859"><ele>115.0</ele><time>2026-04-19T15:11:24.344Z</time></trkpt><trkpt lat="45.4678384" lon="9.252179"><ele>115.0</ele><time>2026-04-19T15:11:25.357Z</time></trkpt><trkpt lat="45.4680691" lon="9.2521743"><ele>115.0</ele><time>2026-04-19T15:11:26.352Z</time></trkpt><trkpt lat="45.4682985" lon="9.2521694"><ele>115.0</ele><time>2026-04-19T15:11:27.358Z</time></trkpt><trkpt lat="45.4685318" lon="9.2521611"><ele>115.0</ele><time>2026-04-19T15:11:28.362Z</time></trkpt><trkpt lat="45.4687738" lon="9.2521496"><ele>115.0</ele><time>2026-04-19T15:11:29.346Z</time></trkpt><trkpt lat="45.469004" lon="9.2521391"><ele>113.5</ele><time>2026-04-19T15:11:30.342Z</time></trkpt><trkpt lat="45.4692346" lon="9.2521401"><ele>112.0</ele><time>2026-04-19T15:11:31.317Z</time></trkpt><trkpt lat="45.4694639" lon="9.2521449"><ele>113.0</ele><time>2026-04-19T15:11:32.335Z</time></trkpt><trkpt lat="45.4696957" lon="9.2521611"><ele>114.0</ele><time>2026-04-19T15:11:33.34Z</time></trkpt><trkpt lat="45.4699204" lon="9.2521768"><ele>114.0</ele><time>2026-04-19T15:11:34.345Z</time></trkpt><trkpt lat="45.4701501" lon="9.2521963"><ele>114.0</ele><time>2026-04-19T15:11:35.342Z</time></trkpt><trkpt lat="45.4703689" lon="9.2522154"><ele>114.0</ele><time>2026-04-19T15:11:36.346Z</time></trkpt><trkpt lat="45.4705852" lon="9.2522418"><ele>113.66666666666666</ele><time>2026-04-19T15:11:37.321Z</time></trkpt><trkpt lat="45.4708051" lon="9.2522803"><ele>113.33333333333333</ele><time>2026-04-19T15:11:38.341Z</time></trkpt><trkpt lat="45.471019" lon="9.2523175"><ele>113.0</ele><time>2026-04-19T15:11:39.341Z</time></trkpt><trkpt lat="45.4712361" lon="9.252359"><ele>114.33333333333333</ele><time>2026-04-19T15:11:40.338Z</time></trkpt><trkpt lat="45.4714492" lon="9.2523994"><ele>115.66666666666666</ele><time>2026-04-19T15:11:41.35Z</time></trkpt><trkpt lat="45.4716619" lon="9.2524444"><ele>117.0</ele><time>2026-04-19T15:11:42.337Z</time></trkpt><trkpt lat="45.4718728" lon="9.2524826"><ele>117.0</ele><time>2026-04-19T15:11:43.335Z</time></trkpt><trkpt lat="45.4720911" lon="9.2525332"><ele>117.0</ele><time>2026-04-19T15:11:44.34Z</time></trkpt><trkpt lat="45.4723096" lon="9.2525861"><ele>117.0</ele><time>2026-04-19T15:11:45.334Z</time></trkpt><trkpt lat="45.4725255" lon="9.2526507"><ele>117.66666666666666</ele><time>2026-04-19T15:11:46.337Z</time></trkpt><trkpt lat="45.4727406" lon="9.2527154"><ele>118.33333333333333</ele><time>2026-04-19T15:11:47.345Z</time></trkpt><trkpt lat="45.4729615" lon="9.2527864"><ele>119.0</ele><time>2026-04-19T15:11:48.352Z</time></trkpt><trkpt lat="45.4731736" lon="9.2528576"><ele>119.0</ele><time>2026-04-19T15:11:49.345Z</time></trkpt><trkpt lat="45.4733917" lon="9.2529271"><ele>119.0</ele><time>2026-04-19T15:11:50.339Z</time></trkpt><trkpt lat="45.4736069" lon="9.2529997"><ele>119.0</ele><time>2026-04-19T15:11:51.353Z</time></trkpt><trkpt lat="45.473823" lon="9.2530824"><ele>119.5</ele><time>2026-04-19T15:11:52.331Z</time></trkpt><trkpt lat="45.4740465" lon="9.2531567"><ele>120.0</ele><time>2026-04-19T15:11:53.351Z</time></trkpt><trkpt lat="45.4742659" lon="9.2532234"><ele>120.0</ele><time>2026-04-19T15:11:54.344Z</time></trkpt><trkpt lat="45.4744826" lon="9.2532898"><ele>120.0</ele><time>2026-04-19T15:11:55.327Z</time></trkpt><trkpt lat="45.4747075" lon="9.253366"><ele>120.0</ele><time>2026-04-19T15:11:56.36Z</time></trkpt><trkpt lat="45.474929" lon="9.2534318"><ele>120.0</ele><time>2026-04-19T15:11:57.35Z</time></trkpt><trkpt lat="45.475154" lon="9.2535033"><ele>120.0</ele><time>2026-04-19T15:11:58.348Z</time></trkpt><trkpt lat="45.4753789" lon="9.2535655"><ele>120.0</ele><time>2026-04-19T15:11:59.353Z</time></trkpt><trkpt lat="45.4756122" lon="9.253624"><ele>118.5</ele><time>2026-04-19T15:12:00.34Z</time></trkpt><trkpt lat="45.4758389" lon="9.2536634"><ele>117.0</ele><time>2026-04-19T15:12:01.344Z</time></trkpt><trkpt lat="45.4760701" lon="9.2536965"><ele>117.0</ele><time>2026-04-19T15:12:02.363Z</time></trkpt><trkpt lat="45.4762993" lon="9.2537028"><ele>117.0</ele><time>2026-04-19T15:12:03.34Z</time></trkpt><trkpt lat="45.4765263" lon="9.253684"><ele>117.0</ele><time>2026-04-19T15:12:04.336Z</time></trkpt><trkpt lat="45.4767552" lon="9.2536661"><ele>117.0</ele><time>2026-04-19T15:12:05.353Z</time></trkpt><trkpt lat="45.4769861" lon="9.2536342"><ele>115.5</ele><time>2026-04-19T15:12:06.352Z</time></trkpt><trkpt lat="45.4772191" lon="9.2535841"><ele>114.0</ele><time>2026-04-19T15:12:07.353Z</time></trkpt><trkpt lat="45.4774527" lon="9.253526"><ele>114.0</ele><time>2026-04-19T15:12:08.342Z</time></trkpt><trkpt lat="45.4776785" lon="9.2534549"><ele>114.0</ele><time>2026-04-19T15:12:09.318Z</time></trkpt><trkpt lat="45.4779087" lon="9.2533741"><ele>115.5</ele><time>2026-04-19T15:12:10.353Z</time></trkpt><trkpt lat="45.4781421" lon="9.2532813"><ele>117.0</ele><time>2026-04-19T15:12:11.34Z</time></trkpt><trkpt lat="45.4783739" lon="9.2531851"><ele>116.5</ele><time>2026-04-19T15:12:12.352Z</time></trkpt><trkpt lat="45.4786011" lon="9.2530816"><ele>116.0</ele><time>2026-04-19T15:12:13.342Z</time></trkpt><trkpt lat="45.4788281" lon="9.2529841"><ele>117.5</ele><time>2026-04-19T15:12:14.345Z</time></trkpt><trkpt lat="45.479061" lon="9.252881"><ele>119.0</ele><time>2026-04-19T15:12:15.343Z</time></trkpt><trkpt lat="45.4792901" lon="9.2527757"><ele>119.0</ele><time>2026-04-19T15:12:16.374Z</time></trkpt><trkpt lat="45.479521" lon="9.2526716"><ele>119.0</ele><time>2026-04-19T15:12:17.337Z</time></trkpt><trkpt lat="45.4797477" lon="9.2525631"><ele>118.0</ele><time>2026-04-19T15:12:18.365Z</time></trkpt><trkpt lat="45.4799778" lon="9.2524594"><ele>117.0</ele><time>2026-04-19T15:12:19.346Z</time></trkpt><trkpt lat="45.4801997" lon="9.2523485"><ele>116.5</ele><time>2026-04-19T15:12:20.346Z</time></trkpt><trkpt lat="45.4804285" lon="9.2522466"><ele>116.0</ele><time>2026-04-19T15:12:21.346Z</time></trkpt><trkpt lat="45.4806598" lon="9.2521478"><ele>118.5</ele><time>2026-04-19T15:12:22.356Z</time></trkpt><trkpt lat="45.4808858" lon="9.2520447"><ele>121.0</ele><time>2026-04-19T15:12:23.336Z</time></trkpt><trkpt lat="45.4811154" lon="9.251937"><ele>121.0</ele><time>2026-04-19T15:12:24.337Z</time></trkpt><trkpt lat="45.4813437" lon="9.251827"><ele>121.0</ele><time>2026-04-19T15:12:25.347Z</time></trkpt><trkpt lat="45.481574" lon="9.2517168"><ele>121.0</ele><time>2026-04-19T15:12:26.339Z</time></trkpt><trkpt lat="45.4818017" lon="9.2516102"><ele>121.0</ele><time>2026-04-19T15:12:27.337Z</time></trkpt><trkpt lat="45.4820273" lon="9.2515076"><ele>120.5</ele><time>2026-04-19T15:12:28.341Z</time></trkpt><trkpt lat="45.4822637" lon="9.2514191"><ele>120.0</ele><time>2026-04-19T15:12:29.351Z</time></trkpt><trkpt lat="45.4825057" lon="9.251348"><ele>120.0</ele><time>2026-04-19T15:12:30.347Z</time></trkpt><trkpt lat="45.4827429" lon="9.2512996"><ele>120.0</ele><time>2026-04-19T15:12:31.341Z</time></trkpt><trkpt lat="45.4829876" lon="9.2512454"><ele>119.0</ele><time>2026-04-19T15:12:32.352Z</time></trkpt><trkpt lat="45.4832309" lon="9.2511966"><ele>118.0</ele><time>2026-04-19T15:12:33.352Z</time></trkpt><trkpt lat="45.4834851" lon="9.2511633"><ele>118.0</ele><time>2026-04-19T15:12:34.341Z</time></trkpt><trkpt lat="45.4837444" lon="9.2511479"><ele>118.0</ele><time>2026-04-19T15:12:35.339Z</time></trkpt><trkpt lat="45.4840001" lon="9.2511308"><ele>119.0</ele><time>2026-04-19T15:12:36.315Z</time></trkpt><trkpt lat="45.4842548" lon="9.2511345"><ele>120.0</ele><time>2026-04-19T15:12:37.346Z</time></trkpt><trkpt lat="45.4845084" lon="9.2511397"><ele>119.0</ele><time>2026-04-19T15:12:38.339Z</time></trkpt><trkpt lat="45.4847644" lon="9.2511602"><ele>118.0</ele><time>2026-04-19T15:12:39.307Z</time></trkpt><trkpt lat="45.4850213" lon="9.2512007"><ele>118.0</ele><time>2026-04-19T15:12:40.342Z</time></trkpt><trkpt lat="45.4852838" lon="9.2512305"><ele>118.0</ele><time>2026-04-19T15:12:41.351Z</time></trkpt><trkpt lat="45.4855435" lon="9.2512717"><ele>118.0</ele><time>2026-04-19T15:12:42.344Z</time></trkpt><trkpt lat="45.4857996" lon="9.25131"><ele>118.0</ele><time>2026-04-19T15:12:43.344Z</time></trkpt><trkpt lat="45.486059" lon="9.251351"><ele>117.0</ele><time>2026-04-19T15:12:44.337Z</time></trkpt><trkpt lat="45.4863074" lon="9.251392"><ele>116.0</ele><time>2026-04-19T15:12:45.346Z</time></trkpt><trkpt lat="45.4865598" lon="9.2514291"><ele>117.5</ele><time>2026-04-19T15:12:46.344Z</time></trkpt><trkpt lat="45.4868041" lon="9.2514716"><ele>119.0</ele><time>2026-04-19T15:12:47.353Z</time></trkpt><trkpt lat="45.4870478" lon="9.2515001"><ele>118.5</ele><time>2026-04-19T15:12:48.339Z</time></trkpt><trkpt lat="45.4872881" lon="9.2515303"><ele>118.0</ele><time>2026-04-19T15:12:49.348Z</time></trkpt><trkpt lat="45.4875327" lon="9.251568"><ele>118.0</ele><time>2026-04-19T15:12:50.343Z</time></trkpt><trkpt lat="45.4877755" lon="9.2516034"><ele>118.0</ele><time>2026-04-19T15:12:51.338Z</time></trkpt><trkpt lat="45.4880189" lon="9.2516455"><ele>118.5</ele><time>2026-04-19T15:12:52.334Z</time></trkpt><trkpt lat="45.4882591" lon="9.2516856"><ele>119.0</ele><time>2026-04-19T15:12:53.309Z</time></trkpt><trkpt lat="45.4885" lon="9.2517234"><ele>119.0</ele><time>2026-04-19T15:12:54.352Z</time></trkpt><trkpt lat="45.4887406" lon="9.2517636"><ele>119.0</ele><time>2026-04-19T15:12:55.357Z</time></trkpt><trkpt lat="45.4889862" lon="9.2518032"><ele>120.0</ele><time>2026-04-19T15:12:56.351Z</time></trkpt><trkpt lat="45.4892291" lon="9.2518408"><ele>121.0</ele><time>2026-04-19T15:12:57.35Z</time></trkpt><trkpt lat="45.4894706" lon="9.2518844"><ele>121.0</ele><time>2026-04-19T15:12:58.347Z</time></trkpt><trkpt lat="45.4897092" lon="9.2519199"><ele>121.0</ele><time>2026-04-19T15:12:59.359Z</time></trkpt><trkpt lat="45.4899398" lon="9.2519497"><ele>121.0</ele><time>2026-04-19T15:13:00.352Z</time></trkpt><trkpt lat="45.4901771" lon="9.2519942"><ele>121.0</ele><time>2026-04-19T15:13:01.343Z</time></trkpt><trkpt lat="45.4904088" lon="9.2520417"><ele>123.5</ele><time>2026-04-19T15:13:02.359Z</time></trkpt><trkpt lat="45.4906355" lon="9.2520915"><ele>126.0</ele><time>2026-04-19T15:13:03.347Z</time></trkpt><trkpt lat="45.4908572" lon="9.2521505"><ele>126.0</ele><time>2026-04-19T15:13:04.35Z</time></trkpt><trkpt lat="45.4910726" lon="9.2522195"><ele>126.0</ele><time>2026-04-19T15:13:05.335Z</time></trkpt><trkpt lat="45.4912831" lon="9.2522948"><ele>126.0</ele><time>2026-04-19T15:13:06.33Z</time></trkpt><trkpt lat="45.4914909" lon="9.2523752"><ele>125.66666666666666</ele><time>2026-04-19T15:13:07.353Z</time></trkpt><trkpt lat="45.4916975" lon="9.2524569"><ele>125.33333333333333</ele><time>2026-04-19T15:13:08.341Z</time></trkpt><trkpt lat="45.4918945" lon="9.2525442"><ele>125.0</ele><time>2026-04-19T15:13:09.355Z</time></trkpt><trkpt lat="45.492089" lon="9.2526347"><ele>123.66666666666666</ele><time>2026-04-19T15:13:10.333Z</time></trkpt><trkpt lat="45.4922806" lon="9.2527292"><ele>122.33333333333334</ele><time>2026-04-19T15:13:11.357Z</time></trkpt><trkpt lat="45.4924606" lon="9.2528298"><ele>121.0</ele><time>2026-04-19T15:13:12.356Z</time></trkpt><trkpt lat="45.4926403" lon="9.2529344"><ele>121.0</ele><time>2026-04-19T15:13:13.349Z</time></trkpt><trkpt lat="45.4928067" lon="9.2530517"><ele>121.0</ele><time>2026-04-19T15:13:14.347Z</time></trkpt><trkpt lat="45.4929696" lon="9.2531589"><ele>121.0</ele><time>2026-04-19T15:13:15.344Z</time></trkpt><trkpt lat="45.4931302" lon="9.2532643"><ele>121.0</ele><time>2026-04-19T15:13:16.352Z</time></trkpt><trkpt lat="45.4932788" lon="9.2533664"><ele>121.0</ele><time>2026-04-19T15:13:17.344Z</time></trkpt><trkpt lat="45.4934182" lon="9.2534681"><ele>121.0</ele><time>2026-04-19T15:13:18.35Z</time></trkpt><trkpt lat="45.4935524" lon="9.2535675"><ele>121.0</ele><time>2026-04-19T15:13:19.366Z</time></trkpt><trkpt lat="45.4936832" lon="9.2536674"><ele>121.0</ele><time>2026-04-19T15:13:20.349Z</time></trkpt><trkpt lat="45.4938054" lon="9.2537583"><ele>121.0</ele><time>2026-04-19T15:13:21.349Z</time></trkpt><trkpt lat="45.4939119" lon="9.2538389"><ele>121.0</ele><time>2026-04-19T15:13:22.353Z</time></trkpt><trkpt lat="45.4940026" lon="9.2539047"><ele>120.83333333333334</ele><time>2026-04-19T15:13:23.345Z</time></trkpt><trkpt lat="45.4940773" lon="9.2539546"><ele>120.66666666666667</ele><time>2026-04-19T15:13:24.369Z</time></trkpt><trkpt lat="45.4941447" lon="9.2540029"><ele>120.5</ele><time>2026-04-19T15:13:25.348Z</time></trkpt><trkpt lat="45.4942164" lon="9.2540542"><ele>120.33333333333334</ele><time>2026-04-19T15:13:26.347Z</time></trkpt><trkpt lat="45.4942796" lon="9.2541022"><ele>120.16666666666667</ele><time>2026-04-19T15:13:27.305Z</time></trkpt><trkpt lat="45.4943442" lon="9.25414"><ele>120.0</ele><time>2026-04-19T15:13:28.295Z</time></trkpt><trkpt lat="45.4944393" lon="9.2542089"><ele>120.0</ele><time>2026-04-19T15:13:30.334Z</time></trkpt><trkpt lat="45.4945155" lon="9.2542687"><ele>120.0</ele><time>2026-04-19T15:13:32.311Z</time></trkpt><trkpt lat="45.4946133" lon="9.2543469"><ele>120.0</ele><time>2026-04-19T15:13:34.337Z</time></trkpt><trkpt lat="45.4946787" lon="9.254393"><ele>120.0</ele><time>2026-04-19T15:13:35.341Z</time></trkpt><trkpt lat="45.4947509" lon="9.2544375"><ele>120.0</ele><time>2026-04-19T15:13:36.337Z</time></trkpt><trkpt lat="45.49482" lon="9.2544863"><ele>120.0</ele><time>2026-04-19T15:13:37.342Z</time></trkpt><trkpt lat="45.4948894" lon="9.254537"><ele>120.0</ele><time>2026-04-19T15:13:38.348Z</time></trkpt><trkpt lat="45.494958" lon="9.2545804"><ele>120.0</ele><time>2026-04-19T15:13:39.338Z</time></trkpt><trkpt lat="45.4950289" lon="9.2546179"><ele>120.0</ele><time>2026-04-19T15:13:40.346Z</time></trkpt><trkpt lat="45.4950962" lon="9.2546544"><ele>120.0</ele><time>2026-04-19T15:13:41.346Z</time></trkpt><trkpt lat="45.4951617" lon="9.2546908"><ele>120.0</ele><time>2026-04-19T15:13:42.343Z</time></trkpt><trkpt lat="45.4952338" lon="9.2547331"><ele>120.0</ele><time>2026-04-19T15:13:43.347Z</time></trkpt><trkpt lat="45.4952995" lon="9.2547776"><ele>120.0</ele><time>2026-04-19T15:13:44.348Z</time></trkpt><trkpt lat="45.4953715" lon="9.2548219"><ele>120.6</ele><time>2026-04-19T15:13:45.334Z</time></trkpt><trkpt lat="45.4954521" lon="9.2548669"><ele>121.2</ele><time>2026-04-19T15:13:46.317Z</time></trkpt><trkpt lat="45.4955397" lon="9.2549109"><ele>121.80000000000001</ele><time>2026-04-19T15:13:47.339Z</time></trkpt><trkpt lat="45.4956356" lon="9.2549539"><ele>122.4</ele><time>2026-04-19T15:13:48.319Z</time></trkpt><trkpt lat="45.4957301" lon="9.2550066"><ele>123.0</ele><time>2026-04-19T15:13:49.354Z</time></trkpt><trkpt lat="45.4958311" lon="9.2550526"><ele>123.0</ele><time>2026-04-19T15:13:50.343Z</time></trkpt><trkpt lat="45.4959381" lon="9.2551063"><ele>123.0</ele><time>2026-04-19T15:13:51.346Z</time></trkpt><trkpt lat="45.4960467" lon="9.2551557"><ele>123.0</ele><time>2026-04-19T15:13:52.344Z</time></trkpt><trkpt lat="45.4961602" lon="9.2551952"><ele>123.0</ele><time>2026-04-19T15:13:53.344Z</time></trkpt><trkpt lat="45.4962765" lon="9.2552341"><ele>122.0</ele><time>2026-04-19T15:13:54.352Z</time></trkpt><trkpt lat="45.4963816" lon="9.2552766"><ele>121.0</ele><time>2026-04-19T15:13:55.344Z</time></trkpt><trkpt lat="45.4964928" lon="9.2553136"><ele>120.0</ele><time>2026-04-19T15:13:56.348Z</time></trkpt><trkpt lat="45.4966084" lon="9.2553422"><ele>119.0</ele><time>2026-04-19T15:13:57.332Z</time></trkpt><trkpt lat="45.4967316" lon="9.2553733"><ele>119.0</ele><time>2026-04-19T15:13:58.308Z</time></trkpt><trkpt lat="45.4968521" lon="9.2553941"><ele>119.0</ele><time>2026-04-19T15:13:59.334Z</time></trkpt><trkpt lat="45.4969806" lon="9.2554153"><ele>119.0</ele><time>2026-04-19T15:14:00.32Z</time></trkpt><trkpt lat="45.497113" lon="9.2554365"><ele>119.0</ele><time>2026-04-19T15:14:01.347Z</time></trkpt><trkpt lat="45.4972412" lon="9.2554477"><ele>120.25</ele><time>2026-04-19T15:14:02.348Z</time></trkpt><trkpt lat="45.4973769" lon="9.255467"><ele>121.5</ele><time>2026-04-19T15:14:03.333Z</time></trkpt><trkpt lat="45.4975109" lon="9.2554918"><ele>122.75</ele><time>2026-04-19T15:14:04.343Z</time></trkpt><trkpt lat="45.497642" lon="9.2555002"><ele>124.0</ele><time>2026-04-19T15:14:05.346Z</time></trkpt><trkpt lat="45.4977724" lon="9.2555126"><ele>124.0</ele><time>2026-04-19T15:14:06.345Z</time></trkpt><trkpt lat="45.4979073" lon="9.2555302"><ele>124.0</ele><time>2026-04-19T15:14:07.339Z</time></trkpt><trkpt lat="45.498047" lon="9.2555478"><ele>124.0</ele><time>2026-04-19T15:14:08.337Z</time></trkpt><trkpt lat="45.4981881" lon="9.2555671"><ele>124.0</ele><time>2026-04-19T15:14:09.31Z</time></trkpt><trkpt lat="45.4983323" lon="9.2555778"><ele>123.75</ele><time>2026-04-19T15:14:10.335Z</time></trkpt><trkpt lat="45.498475" lon="9.2555903"><ele>123.5</ele><time>2026-04-19T15:14:11.349Z</time></trkpt><trkpt lat="45.4986174" lon="9.2556067"><ele>123.25</ele><time>2026-04-19T15:14:12.345Z</time></trkpt><trkpt lat="45.4987557" lon="9.2556197"><ele>123.0</ele><time>2026-04-19T15:14:13.305Z</time></trkpt><trkpt lat="45.4988932" lon="9.2556302"><ele>123.75</ele><time>2026-04-19T15:14:14.338Z</time></trkpt><trkpt lat="45.4990327" lon="9.255652"><ele>124.5</ele><time>2026-04-19T15:14:15.34Z</time></trkpt><trkpt lat="45.4991717" lon="9.2556694"><ele>125.25</ele><time>2026-04-19T15:14:16.345Z</time></trkpt><trkpt lat="45.4993142" lon="9.2556869"><ele>126.0</ele><time>2026-04-19T15:14:17.349Z</time></trkpt><trkpt lat="45.4994493" lon="9.2556981"><ele>125.5</ele><time>2026-04-19T15:14:18.351Z</time></trkpt><trkpt lat="45.4995841" lon="9.2557072"><ele>125.0</ele><time>2026-04-19T15:14:19.344Z</time></trkpt><trkpt lat="45.4997193" lon="9.2557241"><ele>124.5</ele><time>2026-04-19T15:14:20.319Z</time></trkpt><trkpt lat="45.49985" lon="9.2557405"><ele>124.0</ele><time>2026-04-19T15:14:21.337Z</time></trkpt><trkpt lat="45.4999842" lon="9.2557624"><ele>124.0</ele><time>2026-04-19T15:14:22.343Z</time></trkpt><trkpt lat="45.5001236" lon="9.2557897"><ele>124.0</ele><time>2026-04-19T15:14:23.342Z</time></trkpt><trkpt lat="45.5002487" lon="9.2558229"><ele>124.0</ele><time>2026-04-19T15:14:24.338Z</time></trkpt><trkpt lat="45.5003828" lon="9.255861"><ele>124.0</ele><time>2026-04-19T15:14:25.344Z</time></trkpt><trkpt lat="45.5005172" lon="9.2559011"><ele>123.25</ele><time>2026-04-19T15:14:26.35Z</time></trkpt><trkpt lat="45.5006522" lon="9.2559399"><ele>122.5</ele><time>2026-04-19T15:14:27.309Z</time></trkpt><trkpt lat="45.5007827" lon="9.2559873"><ele>121.75</ele><time>2026-04-19T15:14:28.354Z</time></trkpt><trkpt lat="45.50091" lon="9.2560315"><ele>121.0</ele><time>2026-04-19T15:14:29.341Z</time></trkpt><trkpt lat="45.5010299" lon="9.2560824"><ele>121.0</ele><time>2026-04-19T15:14:30.337Z</time></trkpt><trkpt lat="45.5011447" lon="9.2561311"><ele>121.0</ele><time>2026-04-19T15:14:31.354Z</time></trkpt><trkpt lat="45.5012501" lon="9.2561954"><ele>121.0</ele><time>2026-04-19T15:14:32.342Z</time></trkpt><trkpt lat="45.5013553" lon="9.2562467"><ele>121.0</ele><time>2026-04-19T15:14:33.338Z</time></trkpt><trkpt lat="45.5014525" lon="9.2562941"><ele>121.0</ele><time>2026-04-19T15:14:34.351Z</time></trkpt><trkpt lat="45.5015418" lon="9.2563545"><ele>121.16666666666667</ele><time>2026-04-19T15:14:35.35Z</time></trkpt><trkpt lat="45.5016261" lon="9.2564101"><ele>121.33333333333334</ele><time>2026-04-19T15:14:36.352Z</time></trkpt><trkpt lat="45.5017093" lon="9.2564723"><ele>121.5</ele><time>2026-04-19T15:14:37.326Z</time></trkpt><trkpt lat="45.5017883" lon="9.2565292"><ele>121.66666666666666</ele><time>2026-04-19T15:14:38.356Z</time></trkpt><trkpt lat="45.5018642" lon="9.2565927"><ele>121.83333333333333</ele><time>2026-04-19T15:14:39.35Z</time></trkpt><trkpt lat="45.5019309" lon="9.2566531"><ele>122.0</ele><time>2026-04-19T15:14:40.324Z</time></trkpt><trkpt lat="45.5019957" lon="9.2567027"><ele>121.66666666666666</ele><time>2026-04-19T15:14:41.346Z</time></trkpt><trkpt lat="45.5020659" lon="9.2567488"><ele>121.33333333333333</ele><time>2026-04-19T15:14:42.353Z</time></trkpt><trkpt lat="45.5021348" lon="9.2568045"><ele>121.0</ele><time>2026-04-19T15:14:43.306Z</time></trkpt><trkpt lat="45.5022135" lon="9.2568553"><ele>120.66666666666666</ele><time>2026-04-19T15:14:44.323Z</time></trkpt><trkpt lat="45.502298" lon="9.2569175"><ele>120.33333333333333</ele><time>2026-04-19T15:14:45.295Z</time></trkpt><trkpt lat="45.5023892" lon="9.2569892"><ele>120.0</ele><time>2026-04-19T15:14:46.347Z</time></trkpt><trkpt lat="45.5024814" lon="9.2570564"><ele>120.0</ele><time>2026-04-19T15:14:47.325Z</time></trkpt><trkpt lat="45.502573" lon="9.2571216"><ele>120.0</ele><time>2026-04-19T15:14:48.332Z</time></trkpt><trkpt lat="45.502666" lon="9.2572019"><ele>120.0</ele><time>2026-04-19T15:14:49.345Z</time></trkpt><trkpt lat="45.5027558" lon="9.2572723"><ele>120.0</ele><time>2026-04-19T15:14:50.349Z</time></trkpt><trkpt lat="45.502839" lon="9.257341"><ele>120.0</ele><time>2026-04-19T15:14:51.312Z</time></trkpt><trkpt lat="45.5029175" lon="9.2573989"><ele>120.0</ele><time>2026-04-19T15:14:52.322Z</time></trkpt><trkpt lat="45.5029849" lon="9.2574506"><ele>120.0</ele><time>2026-04-19T15:14:53.319Z</time></trkpt><trkpt lat="45.5030527" lon="9.2575024"><ele>120.0</ele><time>2026-04-19T15:14:54.321Z</time></trkpt><trkpt lat="45.503119" lon="9.2575527"><ele>120.0</ele><time>2026-04-19T15:14:55.322Z</time></trkpt><trkpt lat="45.5031776" lon="9.2576068"><ele>120.0</ele><time>2026-04-19T15:14:56.337Z</time></trkpt><trkpt lat="45.5032442" lon="9.2576595"><ele>120.0</ele><time>2026-04-19T15:14:57.341Z</time></trkpt><trkpt lat="45.5033118" lon="9.2577126"><ele>120.0</ele><time>2026-04-19T15:14:58.333Z</time></trkpt><trkpt lat="45.5033897" lon="9.2577644"><ele>120.0</ele><time>2026-04-19T15:14:59.352Z</time></trkpt><trkpt lat="45.50348" lon="9.2578261"><ele>120.0</ele><time>2026-04-19T15:15:00.317Z</time></trkpt><trkpt lat="45.5035702" lon="9.2578887"><ele>120.0</ele><time>2026-04-19T15:15:01.336Z</time></trkpt><trkpt lat="45.5036603" lon="9.2579607"><ele>120.0</ele><time>2026-04-19T15:15:02.297Z</time></trkpt><trkpt lat="45.5037567" lon="9.2580336"><ele>119.8</ele><time>2026-04-19T15:15:03.297Z</time></trkpt><trkpt lat="45.5038494" lon="9.2581049"><ele>119.6</ele><time>2026-04-19T15:15:04.309Z</time></trkpt><trkpt lat="45.5039414" lon="9.2581762"><ele>119.4</ele><time>2026-04-19T15:15:05.314Z</time></trkpt><trkpt lat="45.5040329" lon="9.2582513"><ele>119.2</ele><time>2026-04-19T15:15:06.312Z</time></trkpt><trkpt lat="45.5041256" lon="9.2583197"><ele>119.0</ele><time>2026-04-19T15:15:07.317Z</time></trkpt><trkpt lat="45.5042235" lon="9.258401"><ele>120.0</ele><time>2026-04-19T15:15:08.318Z</time></trkpt><trkpt lat="45.5043224" lon="9.258473"><ele>121.0</ele><time>2026-04-19T15:15:09.315Z</time></trkpt><trkpt lat="45.5044236" lon="9.2585502"><ele>122.0</ele><time>2026-04-19T15:15:10.316Z</time></trkpt><trkpt lat="45.5045374" lon="9.2586335"><ele>123.0</ele><time>2026-04-19T15:15:11.296Z</time></trkpt><trkpt lat="45.504657" lon="9.2587171"><ele>123.0</ele><time>2026-04-19T15:15:12.306Z</time></trkpt><trkpt lat="45.5047677" lon="9.2588056"><ele>123.0</ele><time>2026-04-19T15:15:13.299Z</time></trkpt><trkpt lat="45.504887" lon="9.2588838"><ele>123.0</ele><time>2026-04-19T15:15:14.3Z</time></trkpt><trkpt lat="45.5050171" lon="9.2589849"><ele>123.0</ele><time>2026-04-19T15:15:15.306Z</time></trkpt><trkpt lat="45.5051439" lon="9.2590939"><ele>122.33333333333334</ele><time>2026-04-19T15:15:16.297Z</time></trkpt><trkpt lat="45.5052798" lon="9.2592078"><ele>121.66666666666667</ele><time>2026-04-19T15:15:17.322Z</time></trkpt><trkpt lat="45.5054241" lon="9.2593146"><ele>121.0</ele><time>2026-04-19T15:15:18.308Z</time></trkpt><trkpt lat="45.5055711" lon="9.2594265"><ele>121.0</ele><time>2026-04-19T15:15:19.294Z</time></trkpt><trkpt lat="45.5057268" lon="9.2595501"><ele>121.0</ele><time>2026-04-19T15:15:20.301Z</time></trkpt><trkpt lat="45.5058839" lon="9.2596744"><ele>121.0</ele><time>2026-04-19T15:15:21.323Z</time></trkpt><trkpt lat="45.5060427" lon="9.2597985"><ele>121.66666666666667</ele><time>2026-04-19T15:15:22.311Z</time></trkpt><trkpt lat="45.506212" lon="9.2599302"><ele>122.33333333333334</ele><time>2026-04-19T15:15:23.312Z</time></trkpt><trkpt lat="45.5063862" lon="9.2600641"><ele>123.0</ele><time>2026-04-19T15:15:24.323Z</time></trkpt><trkpt lat="45.5065581" lon="9.2601889"><ele>123.0</ele><time>2026-04-19T15:15:25.301Z</time></trkpt><trkpt lat="45.5067345" lon="9.2603166"><ele>123.0</ele><time>2026-04-19T15:15:26.311Z</time></trkpt><trkpt lat="45.5069081" lon="9.2604482"><ele>123.0</ele><time>2026-04-19T15:15:27.305Z</time></trkpt><trkpt lat="45.5070774" lon="9.2605788"><ele>123.33333333333334</ele><time>2026-04-19T15:15:28.312Z</time></trkpt><trkpt lat="45.5072454" lon="9.2607156"><ele>123.66666666666667</ele><time>2026-04-19T15:15:29.316Z</time></trkpt><trkpt lat="45.5074111" lon="9.2608483"><ele>124.0</ele><time>2026-04-19T15:15:30.317Z</time></trkpt><trkpt lat="45.5075773" lon="9.2609756"><ele>124.0</ele><time>2026-04-19T15:15:31.32Z</time></trkpt><trkpt lat="45.5077446" lon="9.2611053"><ele>124.0</ele><time>2026-04-19T15:15:32.314Z</time></trkpt><trkpt lat="45.507915" lon="9.261231"><ele>124.0</ele><time>2026-04-19T15:15:33.336Z</time></trkpt><trkpt lat="45.5080722" lon="9.2613515"><ele>124.33333333333334</ele><time>2026-04-19T15:15:34.316Z</time></trkpt><trkpt lat="45.5082302" lon="9.2614695"><ele>124.66666666666666</ele><time>2026-04-19T15:15:35.312Z</time></trkpt><trkpt lat="45.508392" lon="9.2615796"><ele>125.0</ele><time>2026-04-19T15:15:36.328Z</time></trkpt><trkpt lat="45.5085598" lon="9.2616754"><ele>125.0</ele><time>2026-04-19T15:15:37.324Z</time></trkpt><trkpt lat="45.508736" lon="9.2617549"><ele>125.0</ele><time>2026-04-19T15:15:38.325Z</time></trkpt><trkpt lat="45.5089171" lon="9.2618179"><ele>125.0</ele><time>2026-04-19T15:15:39.33Z</time></trkpt><trkpt lat="45.509106" lon="9.2618693"><ele>125.0</ele><time>2026-04-19T15:15:40.315Z</time></trkpt><trkpt lat="45.5092927" lon="9.2619177"><ele>125.0</ele><time>2026-04-19T15:15:41.314Z</time></trkpt><trkpt lat="45.5094899" lon="9.2619495"><ele>125.0</ele><time>2026-04-19T15:15:42.318Z</time></trkpt><trkpt lat="45.5096831" lon="9.2619525"><ele>125.0</ele><time>2026-04-19T15:15:43.32Z</time></trkpt><trkpt lat="45.5098849" lon="9.2619339"><ele>125.0</ele><time>2026-04-19T15:15:44.301Z</time></trkpt><trkpt lat="45.5100839" lon="9.2619119"><ele>125.0</ele><time>2026-04-19T15:15:45.297Z</time></trkpt><trkpt lat="45.5102887" lon="9.2618874"><ele>125.0</ele><time>2026-04-19T15:15:46.324Z</time></trkpt><trkpt lat="45.5104964" lon="9.2618318"><ele>125.0</ele><time>2026-04-19T15:15:47.318Z</time></trkpt><trkpt lat="45.5106913" lon="9.2617779"><ele>125.0</ele><time>2026-04-19T15:15:48.318Z</time></trkpt><trkpt lat="45.5108797" lon="9.2617262"><ele>125.0</ele><time>2026-04-19T15:15:49.329Z</time></trkpt><trkpt lat="45.5110839" lon="9.2616691"><ele>125.0</ele><time>2026-04-19T15:15:50.322Z</time></trkpt><trkpt lat="45.5112805" lon="9.2616187"><ele>125.0</ele><time>2026-04-19T15:15:51.315Z</time></trkpt><trkpt lat="45.5114755" lon="9.261591"><ele>126.0</ele><time>2026-04-19T15:15:52.314Z</time></trkpt><trkpt lat="45.5116847" lon="9.261584"><ele>127.0</ele><time>2026-04-19T15:15:53.327Z</time></trkpt><trkpt lat="45.5118762" lon="9.2616137"><ele>128.0</ele><time>2026-04-19T15:15:54.314Z</time></trkpt><trkpt lat="45.5120704" lon="9.2616581"><ele>127.66666666666666</ele><time>2026-04-19T15:15:55.338Z</time></trkpt><trkpt lat="45.512277" lon="9.2617122"><ele>127.33333333333334</ele><time>2026-04-19T15:15:56.311Z</time></trkpt><trkpt lat="45.5124921" lon="9.2617831"><ele>127.0</ele><time>2026-04-19T15:15:57.32Z</time></trkpt><trkpt lat="45.5126958" lon="9.2618682"><ele>127.0</ele><time>2026-04-19T15:15:58.331Z</time></trkpt><trkpt lat="45.5128977" lon="9.2619499"><ele>127.0</ele><time>2026-04-19T15:15:59.321Z</time></trkpt><trkpt lat="45.5131023" lon="9.2620258"><ele>127.0</ele><time>2026-04-19T15:16:00.303Z</time></trkpt><trkpt lat="45.5133054" lon="9.2620817"><ele>128.0</ele><time>2026-04-19T15:16:01.314Z</time></trkpt><trkpt lat="45.5135057" lon="9.2621172"><ele>129.0</ele><time>2026-04-19T15:16:02.304Z</time></trkpt><trkpt lat="45.5137115" lon="9.2621516"><ele>130.0</ele><time>2026-04-19T15:16:03.329Z</time></trkpt><trkpt lat="45.5139091" lon="9.2621671"><ele>130.33333333333334</ele><time>2026-04-19T15:16:04.324Z</time></trkpt><trkpt lat="45.5141082" lon="9.262154"><ele>130.66666666666666</ele><time>2026-04-19T15:16:05.318Z</time></trkpt><trkpt lat="45.5143054" lon="9.2621448"><ele>131.0</ele><time>2026-04-19T15:16:06.316Z</time></trkpt><trkpt lat="45.5145013" lon="9.2621345"><ele>130.33333333333331</ele><time>2026-04-19T15:16:07.313Z</time></trkpt><trkpt lat="45.5147072" lon="9.2621202"><ele>129.66666666666666</ele><time>2026-04-19T15:16:08.32Z</time></trkpt><trkpt lat="45.5149237" lon="9.26211"><ele>129.0</ele><time>2026-04-19T15:16:09.311Z</time></trkpt><trkpt lat="45.5151426" lon="9.2620872"><ele>129.0</ele><time>2026-04-19T15:16:10.324Z</time></trkpt><trkpt lat="45.5153646" lon="9.2620654"><ele>129.0</ele><time>2026-04-19T15:16:11.334Z</time></trkpt><trkpt lat="45.5155874" lon="9.2620395"><ele>129.0</ele><time>2026-04-19T15:16:12.323Z</time></trkpt><trkpt lat="45.5158111" lon="9.2620117"><ele>128.5</ele><time>2026-04-19T15:16:13.303Z</time></trkpt><trkpt lat="45.5160343" lon="9.2619862"><ele>128.0</ele><time>2026-04-19T15:16:14.298Z</time></trkpt><trkpt lat="45.5162619" lon="9.2619612"><ele>126.5</ele><time>2026-04-19T15:16:15.297Z</time></trkpt><trkpt lat="45.5164922" lon="9.2619296"><ele>125.0</ele><time>2026-04-19T15:16:16.334Z</time></trkpt><trkpt lat="45.516721" lon="9.2618883"><ele>125.0</ele><time>2026-04-19T15:16:17.33Z</time></trkpt><trkpt lat="45.5169429" lon="9.26185"><ele>125.0</ele><time>2026-04-19T15:16:18.308Z</time></trkpt><trkpt lat="45.5171664" lon="9.2618145"><ele>125.0</ele><time>2026-04-19T15:16:19.319Z</time></trkpt><trkpt lat="45.5173998" lon="9.2617724"><ele>124.0</ele><time>2026-04-19T15:16:20.354Z</time></trkpt><trkpt lat="45.5176382" lon="9.2617319"><ele>123.0</ele><time>2026-04-19T15:16:21.34Z</time></trkpt><trkpt lat="45.5178719" lon="9.2616916"><ele>124.0</ele><time>2026-04-19T15:16:22.342Z</time></trkpt><trkpt lat="45.5181009" lon="9.2616478"><ele>125.0</ele><time>2026-04-19T15:16:23.33Z</time></trkpt><trkpt lat="45.5183302" lon="9.2616126"><ele>125.0</ele><time>2026-04-19T15:16:24.34Z</time></trkpt><trkpt lat="45.5185629" lon="9.2615739"><ele>125.0</ele><time>2026-04-19T15:16:25.345Z</time></trkpt><trkpt lat="45.5187966" lon="9.2615383"><ele>127.0</ele><time>2026-04-19T15:16:26.33Z</time></trkpt><trkpt lat="45.5190319" lon="9.2615047"><ele>129.0</ele><time>2026-04-19T15:16:27.318Z</time></trkpt><trkpt lat="45.5192695" lon="9.2614619"><ele>129.5</ele><time>2026-04-19T15:16:28.34Z</time></trkpt><trkpt lat="45.5195037" lon="9.2614201"><ele>130.0</ele><time>2026-04-19T15:16:29.345Z</time></trkpt><trkpt lat="45.5197437" lon="9.2613785"><ele>130.0</ele><time>2026-04-19T15:16:30.309Z</time></trkpt><trkpt lat="45.5199818" lon="9.2613244"><ele>130.0</ele><time>2026-04-19T15:16:31.344Z</time></trkpt><trkpt lat="45.520217" lon="9.2612637"><ele>129.5</ele><time>2026-04-19T15:16:32.337Z</time></trkpt><trkpt lat="45.520455" lon="9.261201"><ele>129.0</ele><time>2026-04-19T15:16:33.334Z</time></trkpt><trkpt lat="45.5206831" lon="9.2611439"><ele>129.0</ele><time>2026-04-19T15:16:34.338Z</time></trkpt><trkpt lat="45.5209152" lon="9.2610829"><ele>129.0</ele><time>2026-04-19T15:16:35.321Z</time></trkpt><trkpt lat="45.5211485" lon="9.2610229"><ele>130.0</ele><time>2026-04-19T15:16:36.341Z</time></trkpt><trkpt lat="45.5213791" lon="9.260957"><ele>131.0</ele><time>2026-04-19T15:16:37.34Z</time></trkpt><trkpt lat="45.5216083" lon="9.2608962"><ele>131.0</ele><time>2026-04-19T15:16:38.328Z</time></trkpt><trkpt lat="45.5218426" lon="9.2608383"><ele>131.0</ele><time>2026-04-19T15:16:39.351Z</time></trkpt><trkpt lat="45.5220648" lon="9.2607737"><ele>129.5</ele><time>2026-04-19T15:16:40.334Z</time></trkpt><trkpt lat="45.522303" lon="9.2607032"><ele>128.0</ele><time>2026-04-19T15:16:41.344Z</time></trkpt><trkpt lat="45.5225332" lon="9.260642"><ele>128.0</ele><time>2026-04-19T15:16:42.326Z</time></trkpt><trkpt lat="45.5227619" lon="9.2605923"><ele>128.0</ele><time>2026-04-19T15:16:43.339Z</time></trkpt><trkpt lat="45.5229875" lon="9.2605607"><ele>129.0</ele><time>2026-04-19T15:16:44.34Z</time></trkpt><trkpt lat="45.5232255" lon="9.2605484"><ele>130.0</ele><time>2026-04-19T15:16:45.357Z</time></trkpt><trkpt lat="45.5234587" lon="9.2605732"><ele>130.0</ele><time>2026-04-19T15:16:46.35Z</time></trkpt><trkpt lat="45.5236946" lon="9.2606334"><ele>130.0</ele><time>2026-04-19T15:16:47.317Z</time></trkpt><trkpt lat="45.5239239" lon="9.2606953"><ele>131.0</ele><time>2026-04-19T15:16:48.319Z</time></trkpt><trkpt lat="45.5241591" lon="9.2607751"><ele>132.0</ele><time>2026-04-19T15:16:49.347Z</time></trkpt><trkpt lat="45.524383" lon="9.2608756"><ele>130.5</ele><time>2026-04-19T15:16:50.361Z</time></trkpt><trkpt lat="45.5246027" lon="9.2610137"><ele>129.0</ele><time>2026-04-19T15:16:51.345Z</time></trkpt><trkpt lat="45.5248047" lon="9.2611822"><ele>129.0</ele><time>2026-04-19T15:16:52.342Z</time></trkpt><trkpt lat="45.525" lon="9.2613653"><ele>129.0</ele><time>2026-04-19T15:16:53.308Z</time></trkpt><trkpt lat="45.5251846" lon="9.2615744"><ele>130.0</ele><time>2026-04-19T15:16:54.325Z</time></trkpt><trkpt lat="45.5253539" lon="9.2618011"><ele>131.0</ele><time>2026-04-19T15:16:55.328Z</time></trkpt><trkpt lat="45.5255135" lon="9.2620453"><ele>132.0</ele><time>2026-04-19T15:16:56.334Z</time></trkpt><trkpt lat="45.5256529" lon="9.2623325"><ele>133.0</ele><time>2026-04-19T15:16:57.329Z</time></trkpt><trkpt lat="45.5257782" lon="9.262616"><ele>133.0</ele><time>2026-04-19T15:16:58.334Z</time></trkpt><trkpt lat="45.525898" lon="9.2629182"><ele>133.0</ele><time>2026-04-19T15:16:59.349Z</time></trkpt><trkpt lat="45.5260083" lon="9.2632008"><ele>134.0</ele><time>2026-04-19T15:17:00.329Z</time></trkpt><trkpt lat="45.5261078" lon="9.2634941"><ele>135.0</ele><time>2026-04-19T15:17:01.331Z</time></trkpt><trkpt lat="45.5262079" lon="9.2637846"><ele>136.0</ele><time>2026-04-19T15:17:02.347Z</time></trkpt><trkpt lat="45.5263176" lon="9.2640658"><ele>137.0</ele><time>2026-04-19T15:17:03.343Z</time></trkpt><trkpt lat="45.5264354" lon="9.2643462"><ele>137.0</ele><time>2026-04-19T15:17:04.331Z</time></trkpt><trkpt lat="45.5265642" lon="9.2646141"><ele>137.0</ele><time>2026-04-19T15:17:05.313Z</time></trkpt><trkpt lat="45.5267037" lon="9.2648613"><ele>137.0</ele><time>2026-04-19T15:17:06.344Z</time></trkpt><trkpt lat="45.5268629" lon="9.265089"><ele>137.0</ele><time>2026-04-19T15:17:07.323Z</time></trkpt><trkpt lat="45.5270211" lon="9.2652977"><ele>137.0</ele><time>2026-04-19T15:17:08.322Z</time></trkpt><trkpt lat="45.5271904" lon="9.2655029"><ele>137.33333333333331</ele><time>2026-04-19T15:17:09.333Z</time></trkpt><trkpt lat="45.5273647" lon="9.2656894"><ele>137.66666666666666</ele><time>2026-04-19T15:17:10.332Z</time></trkpt><trkpt lat="45.527547" lon="9.2658663"><ele>138.0</ele><time>2026-04-19T15:17:11.343Z</time></trkpt><trkpt lat="45.5277478" lon="9.2660231"><ele>138.5</ele><time>2026-04-19T15:17:12.345Z</time></trkpt><trkpt lat="45.5279451" lon="9.2661665"><ele>139.0</ele><time>2026-04-19T15:17:13.325Z</time></trkpt><trkpt lat="45.5281399" lon="9.2663394"><ele>137.5</ele><time>2026-04-19T15:17:14.345Z</time></trkpt><trkpt lat="45.5283423" lon="9.2665025"><ele>136.0</ele><time>2026-04-19T15:17:15.346Z</time></trkpt><trkpt lat="45.5285434" lon="9.2666629"><ele>135.0</ele><time>2026-04-19T15:17:16.348Z</time></trkpt><trkpt lat="45.5287443" lon="9.2668244"><ele>134.0</ele><time>2026-04-19T15:17:17.342Z</time></trkpt><trkpt lat="45.528943" lon="9.2669948"><ele>134.0</ele><time>2026-04-19T15:17:18.347Z</time></trkpt><trkpt lat="45.5291393" lon="9.2671697"><ele>134.0</ele><time>2026-04-19T15:17:19.328Z</time></trkpt><trkpt lat="45.5293304" lon="9.2673669"><ele>134.0</ele><time>2026-04-19T15:17:20.328Z</time></trkpt><trkpt lat="45.5295219" lon="9.2675812"><ele>134.0</ele><time>2026-04-19T15:17:21.334Z</time></trkpt><trkpt lat="45.5297061" lon="9.2678042"><ele>134.0</ele><time>2026-04-19T15:17:22.345Z</time></trkpt><trkpt lat="45.5298773" lon="9.2680567"><ele>134.0</ele><time>2026-04-19T15:17:23.348Z</time></trkpt><trkpt lat="45.5300311" lon="9.2683074"><ele>135.0</ele><time>2026-04-19T15:17:24.344Z</time></trkpt><trkpt lat="45.5301857" lon="9.2685679"><ele>136.0</ele><time>2026-04-19T15:17:25.34Z</time></trkpt><trkpt lat="45.5303423" lon="9.268835"><ele>136.5</ele><time>2026-04-19T15:17:26.341Z</time></trkpt><trkpt lat="45.5304875" lon="9.2691284"><ele>137.0</ele><time>2026-04-19T15:17:27.34Z</time></trkpt><trkpt lat="45.5306254" lon="9.2694233"><ele>137.0</ele><time>2026-04-19T15:17:28.312Z</time></trkpt><trkpt lat="45.5307607" lon="9.2697171"><ele>137.0</ele><time>2026-04-19T15:17:29.326Z</time></trkpt><trkpt lat="45.530904" lon="9.2700104"><ele>136.5</ele><time>2026-04-19T15:17:30.328Z</time></trkpt><trkpt lat="45.5310461" lon="9.2702971"><ele>136.0</ele><time>2026-04-19T15:17:31.301Z</time></trkpt><trkpt lat="45.5311884" lon="9.270581"><ele>135.5</ele><time>2026-04-19T15:17:32.35Z</time></trkpt><trkpt lat="45.5313278" lon="9.2708797"><ele>135.0</ele><time>2026-04-19T15:17:33.342Z</time></trkpt><trkpt lat="45.531468" lon="9.2711654"><ele>134.0</ele><time>2026-04-19T15:17:34.342Z</time></trkpt><trkpt lat="45.5316081" lon="9.2714466"><ele>133.0</ele><time>2026-04-19T15:17:35.344Z</time></trkpt><trkpt lat="45.5317484" lon="9.2717322"><ele>133.0</ele><time>2026-04-19T15:17:36.344Z</time></trkpt><trkpt lat="45.5318888" lon="9.2720236"><ele>133.0</ele><time>2026-04-19T15:17:37.333Z</time></trkpt><trkpt lat="45.5320272" lon="9.2723092"><ele>134.0</ele><time>2026-04-19T15:17:38.338Z</time></trkpt><trkpt lat="45.5321703" lon="9.272594"><ele>135.0</ele><time>2026-04-19T15:17:39.354Z</time></trkpt><trkpt lat="45.5323098" lon="9.2728884"><ele>135.5</ele><time>2026-04-19T15:17:40.334Z</time></trkpt><trkpt lat="45.5324503" lon="9.2731752"><ele>136.0</ele><time>2026-04-19T15:17:41.34Z</time></trkpt><trkpt lat="45.5325895" lon="9.2734684"><ele>136.0</ele><time>2026-04-19T15:17:42.339Z</time></trkpt><trkpt lat="45.5327311" lon="9.2737635"><ele>136.0</ele><time>2026-04-19T15:17:43.347Z</time></trkpt><trkpt lat="45.5328725" lon="9.2740473"><ele>136.5</ele><time>2026-04-19T15:17:44.336Z</time></trkpt><trkpt lat="45.5330116" lon="9.2743392"><ele>137.0</ele><time>2026-04-19T15:17:45.352Z</time></trkpt><trkpt lat="45.5331507" lon="9.2746332"><ele>136.5</ele><time>2026-04-19T15:17:46.338Z</time></trkpt><trkpt lat="45.533287" lon="9.2749286"><ele>136.0</ele><time>2026-04-19T15:17:47.346Z</time></trkpt><trkpt lat="45.5334291" lon="9.275226"><ele>136.0</ele><time>2026-04-19T15:17:48.343Z</time></trkpt><trkpt lat="45.5335686" lon="9.2755234"><ele>136.0</ele><time>2026-04-19T15:17:49.347Z</time></trkpt><trkpt lat="45.5337125" lon="9.2758203"><ele>136.0</ele><time>2026-04-19T15:17:50.341Z</time></trkpt><trkpt lat="45.5338527" lon="9.2761204"><ele>136.0</ele><time>2026-04-19T15:17:51.34Z</time></trkpt><trkpt lat="45.5339907" lon="9.2764219"><ele>135.5</ele><time>2026-04-19T15:17:52.348Z</time></trkpt><trkpt lat="45.534131" lon="9.2767241"><ele>135.0</ele><time>2026-04-19T15:17:53.339Z</time></trkpt><trkpt lat="45.5342724" lon="9.2770261"><ele>136.0</ele><time>2026-04-19T15:17:54.352Z</time></trkpt><trkpt lat="45.5344179" lon="9.2773252"><ele>137.0</ele><time>2026-04-19T15:17:55.344Z</time></trkpt><trkpt lat="45.5345607" lon="9.2776254"><ele>137.0</ele><time>2026-04-19T15:17:56.335Z</time></trkpt><trkpt lat="45.5347041" lon="9.2779256"><ele>137.0</ele><time>2026-04-19T15:17:57.349Z</time></trkpt><trkpt lat="45.5348461" lon="9.2782257"><ele>137.0</ele><time>2026-04-19T15:17:58.341Z</time></trkpt><trkpt lat="45.5349904" lon="9.2785231"><ele>137.0</ele><time>2026-04-19T15:17:59.338Z</time></trkpt><trkpt lat="45.5351313" lon="9.2788239"><ele>137.5</ele><time>2026-04-19T15:18:00.352Z</time></trkpt><trkpt lat="45.535274" lon="9.2791214"><ele>138.0</ele><time>2026-04-19T15:18:01.338Z</time></trkpt><trkpt lat="45.5354198" lon="9.279422"><ele>137.5</ele><time>2026-04-19T15:18:02.31Z</time></trkpt><trkpt lat="45.535563" lon="9.2797128"><ele>137.0</ele><time>2026-04-19T15:18:03.344Z</time></trkpt><trkpt lat="45.5357056" lon="9.2800017"><ele>137.0</ele><time>2026-04-19T15:18:04.352Z</time></trkpt><trkpt lat="45.5358487" lon="9.2802989"><ele>137.0</ele><time>2026-04-19T15:18:05.34Z</time></trkpt><trkpt lat="45.5359937" lon="9.2805963"><ele>137.5</ele><time>2026-04-19T15:18:06.342Z</time></trkpt><trkpt lat="45.5361353" lon="9.2808867"><ele>138.0</ele><time>2026-04-19T15:18:07.335Z</time></trkpt><trkpt lat="45.5362863" lon="9.2811764"><ele>138.0</ele><time>2026-04-19T15:18:08.338Z</time></trkpt><trkpt lat="45.5364302" lon="9.2814629"><ele>138.0</ele><time>2026-04-19T15:18:09.35Z</time></trkpt><trkpt lat="45.5365809" lon="9.2817509"><ele>138.0</ele><time>2026-04-19T15:18:10.338Z</time></trkpt><trkpt lat="45.5367251" lon="9.2820363"><ele>138.0</ele><time>2026-04-19T15:18:11.353Z</time></trkpt><trkpt lat="45.5368671" lon="9.2823176"><ele>138.5</ele><time>2026-04-19T15:18:12.345Z</time></trkpt><trkpt lat="45.5370043" lon="9.2825902"><ele>139.0</ele><time>2026-04-19T15:18:13.355Z</time></trkpt><trkpt lat="45.5371434" lon="9.2828589"><ele>139.0</ele><time>2026-04-19T15:18:14.341Z</time></trkpt><trkpt lat="45.5372774" lon="9.283121"><ele>139.0</ele><time>2026-04-19T15:18:15.344Z</time></trkpt><trkpt lat="45.5374106" lon="9.2833813"><ele>139.0</ele><time>2026-04-19T15:18:16.335Z</time></trkpt><trkpt lat="45.5375276" lon="9.2836375"><ele>139.0</ele><time>2026-04-19T15:18:17.317Z</time></trkpt><trkpt lat="45.537641" lon="9.2839151"><ele>139.0</ele><time>2026-04-19T15:18:18.337Z</time></trkpt><trkpt lat="45.5377353" lon="9.2841942"><ele>140.0</ele><time>2026-04-19T15:18:19.33Z</time></trkpt><trkpt lat="45.5378124" lon="9.2844958"><ele>141.0</ele><time>2026-04-19T15:18:20.352Z</time></trkpt><trkpt lat="45.5378743" lon="9.2848004"><ele>142.0</ele><time>2026-04-19T15:18:21.333Z</time></trkpt><trkpt lat="45.5379122" lon="9.2851164"><ele>139.5</ele><time>2026-04-19T15:18:22.349Z</time></trkpt><trkpt lat="45.5379261" lon="9.2854549"><ele>137.0</ele><time>2026-04-19T15:18:23.348Z</time></trkpt><trkpt lat="45.5379336" lon="9.2857988"><ele>137.0</ele><time>2026-04-19T15:18:24.345Z</time></trkpt><trkpt lat="45.537925" lon="9.2861305"><ele>137.0</ele><time>2026-04-19T15:18:25.34Z</time></trkpt><trkpt lat="45.5378676" lon="9.2864601"><ele>138.0</ele><time>2026-04-19T15:18:26.337Z</time></trkpt><trkpt lat="45.5377928" lon="9.286776"><ele>139.0</ele><time>2026-04-19T15:18:27.328Z</time></trkpt><trkpt lat="45.5377122" lon="9.2871039"><ele>137.5</ele><time>2026-04-19T15:18:28.332Z</time></trkpt><trkpt lat="45.537627" lon="9.2874343"><ele>136.0</ele><time>2026-04-19T15:18:29.347Z</time></trkpt><trkpt lat="45.537514" lon="9.2877328"><ele>136.0</ele><time>2026-04-19T15:18:30.352Z</time></trkpt><trkpt lat="45.5373957" lon="9.2880279"><ele>136.0</ele><time>2026-04-19T15:18:31.348Z</time></trkpt><trkpt lat="45.5372675" lon="9.2883018"><ele>135.5</ele><time>2026-04-19T15:18:32.346Z</time></trkpt><trkpt lat="45.5371645" lon="9.2886129"><ele>135.0</ele><time>2026-04-19T15:18:33.338Z</time></trkpt><trkpt lat="45.5370513" lon="9.2889098"><ele>133.5</ele><time>2026-04-19T15:18:34.351Z</time></trkpt><trkpt lat="45.5369386" lon="9.2892211"><ele>132.0</ele><time>2026-04-19T15:18:35.34Z</time></trkpt><trkpt lat="45.5368595" lon="9.2895405"><ele>133.5</ele><time>2026-04-19T15:18:36.339Z</time></trkpt><trkpt lat="45.5368013" lon="9.2898661"><ele>135.0</ele><time>2026-04-19T15:18:37.357Z</time></trkpt><trkpt lat="45.5367737" lon="9.2902131"><ele>135.0</ele><time>2026-04-19T15:18:38.344Z</time></trkpt><trkpt lat="45.5367529" lon="9.290571"><ele>135.0</ele><time>2026-04-19T15:18:39.35Z</time></trkpt><trkpt lat="45.5367561" lon="9.290926"><ele>135.0</ele><time>2026-04-19T15:18:40.328Z</time></trkpt><trkpt lat="45.5367646" lon="9.291268"><ele>135.0</ele><time>2026-04-19T15:18:41.344Z</time></trkpt><trkpt lat="45.5367896" lon="9.2916112"><ele>135.0</ele><time>2026-04-19T15:18:42.331Z</time></trkpt><trkpt lat="45.5368241" lon="9.2919592"><ele>135.0</ele><time>2026-04-19T15:18:43.352Z</time></trkpt><trkpt lat="45.5368573" lon="9.2923107"><ele>135.0</ele><time>2026-04-19T15:18:44.338Z</time></trkpt><trkpt lat="45.5368983" lon="9.2926433"><ele>135.0</ele><time>2026-04-19T15:18:45.337Z</time></trkpt><trkpt lat="45.5369317" lon="9.2929947"><ele>135.0</ele><time>2026-04-19T15:18:46.345Z</time></trkpt><trkpt lat="45.5369697" lon="9.2933428"><ele>135.0</ele><time>2026-04-19T15:18:47.343Z</time></trkpt><trkpt lat="45.5370093" lon="9.2936903"><ele>135.5</ele><time>2026-04-19T15:18:48.348Z</time></trkpt><trkpt lat="45.5370475" lon="9.2940251"><ele>136.0</ele><time>2026-04-19T15:18:49.341Z</time></trkpt><trkpt lat="45.5370821" lon="9.2943655"><ele>138.0</ele><time>2026-04-19T15:18:50.338Z</time></trkpt><trkpt lat="45.5371163" lon="9.2947164"><ele>140.0</ele><time>2026-04-19T15:18:51.337Z</time></trkpt><trkpt lat="45.53715" lon="9.2950672"><ele>140.0</ele><time>2026-04-19T15:18:52.335Z</time></trkpt><trkpt lat="45.5371838" lon="9.2954179"><ele>140.0</ele><time>2026-04-19T15:18:53.345Z</time></trkpt><trkpt lat="45.5372199" lon="9.295774"><ele>137.0</ele><time>2026-04-19T15:18:54.333Z</time></trkpt><trkpt lat="45.5372604" lon="9.2961199"><ele>134.0</ele><time>2026-04-19T15:18:55.344Z</time></trkpt><trkpt lat="45.5373034" lon="9.2964658"><ele>133.5</ele><time>2026-04-19T15:18:56.338Z</time></trkpt><trkpt lat="45.5373433" lon="9.2968211"><ele>133.0</ele><time>2026-04-19T15:18:57.338Z</time></trkpt><trkpt lat="45.5373811" lon="9.2971789"><ele>132.0</ele><time>2026-04-19T15:18:58.332Z</time></trkpt><trkpt lat="45.5374237" lon="9.2975294"><ele>131.0</ele><time>2026-04-19T15:18:59.321Z</time></trkpt><trkpt lat="45.5374596" lon="9.2978835"><ele>132.5</ele><time>2026-04-19T15:19:00.338Z</time></trkpt><trkpt lat="45.5374935" lon="9.2982417"><ele>134.0</ele><time>2026-04-19T15:19:01.332Z</time></trkpt><trkpt lat="45.5375362" lon="9.2985895"><ele>133.0</ele><time>2026-04-19T15:19:02.332Z</time></trkpt><trkpt lat="45.5375746" lon="9.2989408"><ele>132.0</ele><time>2026-04-19T15:19:03.358Z</time></trkpt><trkpt lat="45.5376115" lon="9.299301"><ele>132.0</ele><time>2026-04-19T15:19:04.359Z</time></trkpt><trkpt lat="45.5376514" lon="9.299651"><ele>132.0</ele><time>2026-04-19T15:19:05.351Z</time></trkpt><trkpt lat="45.5376871" lon="9.2999988"><ele>132.0</ele><time>2026-04-19T15:19:06.352Z</time></trkpt><trkpt lat="45.5377254" lon="9.3003405"><ele>132.0</ele><time>2026-04-19T15:19:07.338Z</time></trkpt><trkpt lat="45.537763" lon="9.3006962"><ele>133.0</ele><time>2026-04-19T15:19:08.334Z</time></trkpt><trkpt lat="45.5377982" lon="9.3010536"><ele>134.0</ele><time>2026-04-19T15:19:09.341Z</time></trkpt><trkpt lat="45.5378397" lon="9.3014064"><ele>133.5</ele><time>2026-04-19T15:19:10.342Z</time></trkpt><trkpt lat="45.5378775" lon="9.3017624"><ele>133.0</ele><time>2026-04-19T15:19:11.349Z</time></trkpt><trkpt lat="45.5379118" lon="9.3021081"><ele>134.5</ele><time>2026-04-19T15:19:12.353Z</time></trkpt><trkpt lat="45.5379498" lon="9.3024524"><ele>136.0</ele><time>2026-04-19T15:19:13.353Z</time></trkpt><trkpt lat="45.537985" lon="9.3028035"><ele>134.5</ele><time>2026-04-19T15:19:14.356Z</time></trkpt><trkpt lat="45.5380164" lon="9.3031529"><ele>133.0</ele><time>2026-04-19T15:19:15.335Z</time></trkpt><trkpt lat="45.5380531" lon="9.3035026"><ele>133.0</ele><time>2026-04-19T15:19:16.333Z</time></trkpt><trkpt lat="45.5380866" lon="9.3038565"><ele>133.0</ele><time>2026-04-19T15:19:17.344Z</time></trkpt><trkpt lat="45.5381263" lon="9.3042017"><ele>133.5</ele><time>2026-04-19T15:19:18.322Z</time></trkpt><trkpt lat="45.5381656" lon="9.3045449"><ele>134.0</ele><time>2026-04-19T15:19:19.338Z</time></trkpt><trkpt lat="45.5382056" lon="9.3048907"><ele>134.5</ele><time>2026-04-19T15:19:20.35Z</time></trkpt><trkpt lat="45.5382427" lon="9.3052307"><ele>135.0</ele><time>2026-04-19T15:19:21.357Z</time></trkpt><trkpt lat="45.5382849" lon="9.3055751"><ele>134.0</ele><time>2026-04-19T15:19:22.34Z</time></trkpt><trkpt lat="45.5383266" lon="9.305917"><ele>133.0</ele><time>2026-04-19T15:19:23.353Z</time></trkpt><trkpt lat="45.538363" lon="9.306259"><ele>133.0</ele><time>2026-04-19T15:19:24.338Z</time></trkpt><trkpt lat="45.5384036" lon="9.306605"><ele>133.0</ele><time>2026-04-19T15:19:25.346Z</time></trkpt><trkpt lat="45.5384389" lon="9.3069475"><ele>135.0</ele><time>2026-04-19T15:19:26.344Z</time></trkpt><trkpt lat="45.538475" lon="9.3072949"><ele>137.0</ele><time>2026-04-19T15:19:27.347Z</time></trkpt><trkpt lat="45.5385123" lon="9.3076412"><ele>137.0</ele><time>2026-04-19T15:19:28.335Z</time></trkpt><trkpt lat="45.5385566" lon="9.3079907"><ele>137.0</ele><time>2026-04-19T15:19:29.337Z</time></trkpt><trkpt lat="45.5386032" lon="9.3083439"><ele>137.5</ele><time>2026-04-19T15:19:30.34Z</time></trkpt><trkpt lat="45.5386407" lon="9.3086988"><ele>138.0</ele><time>2026-04-19T15:19:31.336Z</time></trkpt><trkpt lat="45.5386835" lon="9.3090525"><ele>137.5</ele><time>2026-04-19T15:19:32.323Z</time></trkpt><trkpt lat="45.5387259" lon="9.3094071"><ele>137.0</ele><time>2026-04-19T15:19:33.341Z</time></trkpt><trkpt lat="45.5387678" lon="9.3097555"><ele>137.0</ele><time>2026-04-19T15:19:34.34Z</time></trkpt><trkpt lat="45.538807" lon="9.3101146"><ele>137.0</ele><time>2026-04-19T15:19:35.329Z</time></trkpt><trkpt lat="45.5388501" lon="9.3104711"><ele>136.0</ele><time>2026-04-19T15:19:36.334Z</time></trkpt><trkpt lat="45.5388909" lon="9.3108253"><ele>135.0</ele><time>2026-04-19T15:19:37.333Z</time></trkpt><trkpt lat="45.5389353" lon="9.3111844"><ele>134.5</ele><time>2026-04-19T15:19:38.32Z</time></trkpt><trkpt lat="45.5389822" lon="9.3115409"><ele>134.0</ele><time>2026-04-19T15:19:39.346Z</time></trkpt><trkpt lat="45.5390432" lon="9.3118939"><ele>134.5</ele><time>2026-04-19T15:19:40.345Z</time></trkpt><trkpt lat="45.5391118" lon="9.3122434"><ele>135.0</ele><time>2026-04-19T15:19:41.337Z</time></trkpt><trkpt lat="45.5391932" lon="9.3125836"><ele>135.0</ele><time>2026-04-19T15:19:42.328Z</time></trkpt><trkpt lat="45.5392889" lon="9.3129119"><ele>135.0</ele><time>2026-04-19T15:19:43.348Z</time></trkpt><trkpt lat="45.539394" lon="9.3132327"><ele>135.5</ele><time>2026-04-19T15:19:44.317Z</time></trkpt><trkpt lat="45.5395001" lon="9.313543"><ele>136.0</ele><time>2026-04-19T15:19:45.301Z</time></trkpt><trkpt lat="45.5396137" lon="9.313852"><ele>135.5</ele><time>2026-04-19T15:19:46.331Z</time></trkpt><trkpt lat="45.5397439" lon="9.3141459"><ele>135.0</ele><time>2026-04-19T15:19:47.345Z</time></trkpt><trkpt lat="45.5399013" lon="9.3144226"><ele>135.0</ele><time>2026-04-19T15:19:48.329Z</time></trkpt><trkpt lat="45.5400724" lon="9.3146844"><ele>135.0</ele><time>2026-04-19T15:19:49.337Z</time></trkpt><trkpt lat="45.5402544" lon="9.3149228"><ele>136.5</ele><time>2026-04-19T15:19:50.344Z</time></trkpt><trkpt lat="45.5404427" lon="9.3151628"><ele>138.0</ele><time>2026-04-19T15:19:51.329Z</time></trkpt><trkpt lat="45.5406376" lon="9.315391"><ele>137.0</ele><time>2026-04-19T15:19:52.346Z</time></trkpt><trkpt lat="45.5408331" lon="9.3156069"><ele>136.0</ele><time>2026-04-19T15:19:53.33Z</time></trkpt><trkpt lat="45.5410429" lon="9.3158082"><ele>136.5</ele><time>2026-04-19T15:19:54.344Z</time></trkpt><trkpt lat="45.5412545" lon="9.3159966"><ele>137.0</ele><time>2026-04-19T15:19:55.305Z</time></trkpt><trkpt lat="45.5414739" lon="9.3161556"><ele>137.0</ele><time>2026-04-19T15:19:56.331Z</time></trkpt><trkpt lat="45.5416878" lon="9.3163228"><ele>137.0</ele><time>2026-04-19T15:19:57.331Z</time></trkpt><trkpt lat="45.5419105" lon="9.3164679"><ele>138.5</ele><time>2026-04-19T15:19:58.33Z</time></trkpt><trkpt lat="45.5421314" lon="9.3166167"><ele>140.0</ele><time>2026-04-19T15:19:59.326Z</time></trkpt><trkpt lat="45.5423516" lon="9.3167644"><ele>140.0</ele><time>2026-04-19T15:20:00.347Z</time></trkpt><trkpt lat="45.5425726" lon="9.3169118"><ele>140.0</ele><time>2026-04-19T15:20:01.354Z</time></trkpt><trkpt lat="45.5427907" lon="9.3170641"><ele>140.0</ele><time>2026-04-19T15:20:02.339Z</time></trkpt><trkpt lat="45.543013" lon="9.3172126"><ele>140.0</ele><time>2026-04-19T15:20:03.36Z</time></trkpt><trkpt lat="45.5432283" lon="9.3173655"><ele>140.0</ele><time>2026-04-19T15:20:04.31Z</time></trkpt><trkpt lat="45.5434427" lon="9.3175299"><ele>140.0</ele><time>2026-04-19T15:20:05.331Z</time></trkpt><trkpt lat="45.5436542" lon="9.317728"><ele>140.0</ele><time>2026-04-19T15:20:06.335Z</time></trkpt><trkpt lat="45.5438515" lon="9.3179287"><ele>140.0</ele><time>2026-04-19T15:20:07.338Z</time></trkpt><trkpt lat="45.5440372" lon="9.3181426"><ele>140.0</ele><time>2026-04-19T15:20:08.332Z</time></trkpt><trkpt lat="45.5442099" lon="9.3183798"><ele>140.0</ele><time>2026-04-19T15:20:09.349Z</time></trkpt><trkpt lat="45.544384" lon="9.3186266"><ele>140.0</ele><time>2026-04-19T15:20:10.343Z</time></trkpt><trkpt lat="45.5445446" lon="9.3188904"><ele>140.0</ele><time>2026-04-19T15:20:11.342Z</time></trkpt><trkpt lat="45.5446996" lon="9.3191755"><ele>140.5</ele><time>2026-04-19T15:20:12.35Z</time></trkpt><trkpt lat="45.5448404" lon="9.3194586"><ele>141.0</ele><time>2026-04-19T15:20:13.342Z</time></trkpt><trkpt lat="45.5449685" lon="9.3197552"><ele>141.5</ele><time>2026-04-19T15:20:14.333Z</time></trkpt><trkpt lat="45.5450941" lon="9.3200558"><ele>142.0</ele><time>2026-04-19T15:20:15.35Z</time></trkpt><trkpt lat="45.5452125" lon="9.3203599"><ele>141.0</ele><time>2026-04-19T15:20:16.356Z</time></trkpt><trkpt lat="45.5453291" lon="9.3206625"><ele>140.0</ele><time>2026-04-19T15:20:17.336Z</time></trkpt><trkpt lat="45.545446" lon="9.3209711"><ele>140.0</ele><time>2026-04-19T15:20:18.328Z</time></trkpt><trkpt lat="45.5455641" lon="9.3212771"><ele>140.0</ele><time>2026-04-19T15:20:19.348Z</time></trkpt><trkpt lat="45.5456859" lon="9.3215809"><ele>140.5</ele><time>2026-04-19T15:20:20.341Z</time></trkpt><trkpt lat="45.545813" lon="9.3218798"><ele>141.0</ele><time>2026-04-19T15:20:21.361Z</time></trkpt><trkpt lat="45.545943" lon="9.3221743"><ele>141.0</ele><time>2026-04-19T15:20:22.315Z</time></trkpt><trkpt lat="45.5460826" lon="9.3224644"><ele>141.0</ele><time>2026-04-19T15:20:23.354Z</time></trkpt><trkpt lat="45.5462282" lon="9.3227397"><ele>141.5</ele><time>2026-04-19T15:20:24.356Z</time></trkpt><trkpt lat="45.5463854" lon="9.323002"><ele>142.0</ele><time>2026-04-19T15:20:25.344Z</time></trkpt><trkpt lat="45.5465499" lon="9.3232696"><ele>142.0</ele><time>2026-04-19T15:20:26.347Z</time></trkpt><trkpt lat="45.5467206" lon="9.3235311"><ele>142.0</ele><time>2026-04-19T15:20:27.326Z</time></trkpt><trkpt lat="45.5468996" lon="9.3237839"><ele>142.5</ele><time>2026-04-19T15:20:28.353Z</time></trkpt><trkpt lat="45.5470825" lon="9.324034"><ele>143.0</ele><time>2026-04-19T15:20:29.35Z</time></trkpt><trkpt lat="45.5472593" lon="9.3242871"><ele>143.0</ele><time>2026-04-19T15:20:30.342Z</time></trkpt><trkpt lat="45.5474555" lon="9.3245265"><ele>143.0</ele><time>2026-04-19T15:20:31.338Z</time></trkpt><trkpt lat="45.5476521" lon="9.3247511"><ele>143.5</ele><time>2026-04-19T15:20:32.352Z</time></trkpt><trkpt lat="45.5478548" lon="9.324977"><ele>144.0</ele><time>2026-04-19T15:20:33.33Z</time></trkpt><trkpt lat="45.548055" lon="9.3251908"><ele>144.5</ele><time>2026-04-19T15:20:34.355Z</time></trkpt><trkpt lat="45.5482651" lon="9.3253901"><ele>145.0</ele><time>2026-04-19T15:20:35.331Z</time></trkpt><trkpt lat="45.5484777" lon="9.32559"><ele>144.0</ele><time>2026-04-19T15:20:36.359Z</time></trkpt><trkpt lat="45.548697" lon="9.3257767"><ele>143.0</ele><time>2026-04-19T15:20:37.345Z</time></trkpt><trkpt lat="45.5489243" lon="9.325957"><ele>142.0</ele><time>2026-04-19T15:20:38.349Z</time></trkpt><trkpt lat="45.5491485" lon="9.3261294"><ele>141.0</ele><time>2026-04-19T15:20:39.338Z</time></trkpt><trkpt lat="45.5493817" lon="9.3262873"><ele>142.5</ele><time>2026-04-19T15:20:40.354Z</time></trkpt><trkpt lat="45.5496131" lon="9.3264375"><ele>144.0</ele><time>2026-04-19T15:20:41.347Z</time></trkpt><trkpt lat="45.549848" lon="9.3265853"><ele>144.0</ele><time>2026-04-19T15:20:42.344Z</time></trkpt><trkpt lat="45.5500813" lon="9.3267244"><ele>144.0</ele><time>2026-04-19T15:20:43.352Z</time></trkpt><trkpt lat="45.5503177" lon="9.3268644"><ele>143.0</ele><time>2026-04-19T15:20:44.36Z</time></trkpt><trkpt lat="45.5505509" lon="9.3270028"><ele>142.0</ele><time>2026-04-19T15:20:45.327Z</time></trkpt><trkpt lat="45.5507843" lon="9.3271441"><ele>143.0</ele><time>2026-04-19T15:20:46.351Z</time></trkpt><trkpt lat="45.5510175" lon="9.3272836"><ele>144.0</ele><time>2026-04-19T15:20:47.354Z</time></trkpt><trkpt lat="45.5512486" lon="9.3274181"><ele>144.0</ele><time>2026-04-19T15:20:48.345Z</time></trkpt><trkpt lat="45.5514862" lon="9.3275545"><ele>144.0</ele><time>2026-04-19T15:20:49.348Z</time></trkpt><trkpt lat="45.5517215" lon="9.3276962"><ele>144.0</ele><time>2026-04-19T15:20:50.354Z</time></trkpt><trkpt lat="45.5519532" lon="9.3278362"><ele>144.0</ele><time>2026-04-19T15:20:51.351Z</time></trkpt><trkpt lat="45.552189" lon="9.3279833"><ele>144.5</ele><time>2026-04-19T15:20:52.349Z</time></trkpt><trkpt lat="45.5524261" lon="9.3281195"><ele>145.0</ele><time>2026-04-19T15:20:53.355Z</time></trkpt><trkpt lat="45.5526565" lon="9.3282605"><ele>144.0</ele><time>2026-04-19T15:20:54.341Z</time></trkpt><trkpt lat="45.5528932" lon="9.3284017"><ele>143.0</ele><time>2026-04-19T15:20:55.351Z</time></trkpt><trkpt lat="45.5531241" lon="9.3285423"><ele>143.0</ele><time>2026-04-19T15:20:56.353Z</time></trkpt><trkpt lat="45.5533621" lon="9.3286869"><ele>143.0</ele><time>2026-04-19T15:20:57.339Z</time></trkpt><trkpt lat="45.5535931" lon="9.3288248"><ele>145.0</ele><time>2026-04-19T15:20:58.345Z</time></trkpt><trkpt lat="45.5538268" lon="9.3289688"><ele>147.0</ele><time>2026-04-19T15:20:59.341Z</time></trkpt><trkpt lat="45.5540628" lon="9.3291021"><ele>147.0</ele><time>2026-04-19T15:21:00.346Z</time></trkpt><trkpt lat="45.5542993" lon="9.3292358"><ele>147.0</ele><time>2026-04-19T15:21:01.349Z</time></trkpt><trkpt lat="45.5545321" lon="9.3293782"><ele>148.0</ele><time>2026-04-19T15:21:02.358Z</time></trkpt><trkpt lat="45.5547612" lon="9.3295167"><ele>149.0</ele><time>2026-04-19T15:21:03.332Z</time></trkpt><trkpt lat="45.5549996" lon="9.3296496"><ele>148.0</ele><time>2026-04-19T15:21:04.352Z</time></trkpt><trkpt lat="45.5552331" lon="9.3297872"><ele>147.0</ele><time>2026-04-19T15:21:05.347Z</time></trkpt><trkpt lat="45.5554637" lon="9.3299214"><ele>147.0</ele><time>2026-04-19T15:21:06.356Z</time></trkpt><trkpt lat="45.5556975" lon="9.3300532"><ele>147.0</ele><time>2026-04-19T15:21:07.344Z</time></trkpt><trkpt lat="45.5559224" lon="9.3301919"><ele>147.0</ele><time>2026-04-19T15:21:08.298Z</time></trkpt><trkpt lat="45.5561443" lon="9.3303241"><ele>147.0</ele><time>2026-04-19T15:21:09.338Z</time></trkpt><trkpt lat="45.5563707" lon="9.3304524"><ele>148.5</ele><time>2026-04-19T15:21:10.355Z</time></trkpt><trkpt lat="45.556594" lon="9.3305806"><ele>150.0</ele><time>2026-04-19T15:21:11.348Z</time></trkpt><trkpt lat="45.556815" lon="9.3307033"><ele>150.0</ele><time>2026-04-19T15:21:12.354Z</time></trkpt><trkpt lat="45.5570283" lon="9.3308257"><ele>150.0</ele><time>2026-04-19T15:21:13.348Z</time></trkpt><trkpt lat="45.55724" lon="9.3309489"><ele>151.0</ele><time>2026-04-19T15:21:14.344Z</time></trkpt><trkpt lat="45.5574507" lon="9.3310726"><ele>152.0</ele><time>2026-04-19T15:21:15.345Z</time></trkpt><trkpt lat="45.5576675" lon="9.3311893"><ele>152.0</ele><time>2026-04-19T15:21:16.354Z</time></trkpt><trkpt lat="45.5578848" lon="9.3313218"><ele>152.0</ele><time>2026-04-19T15:21:17.342Z</time></trkpt><trkpt lat="45.5580965" lon="9.3314512"><ele>151.5</ele><time>2026-04-19T15:21:18.337Z</time></trkpt><trkpt lat="45.558308" lon="9.3315751"><ele>151.0</ele><time>2026-04-19T15:21:19.34Z</time></trkpt><trkpt lat="45.5585148" lon="9.331691"><ele>150.33333333333334</ele><time>2026-04-19T15:21:20.351Z</time></trkpt><trkpt lat="45.5587217" lon="9.3318166"><ele>149.66666666666666</ele><time>2026-04-19T15:21:21.357Z</time></trkpt><trkpt lat="45.5589237" lon="9.331932"><ele>149.0</ele><time>2026-04-19T15:21:22.346Z</time></trkpt><trkpt lat="45.559128" lon="9.3320504"><ele>149.0</ele><time>2026-04-19T15:21:23.363Z</time></trkpt><trkpt lat="45.5593294" lon="9.3321719"><ele>149.0</ele><time>2026-04-19T15:21:24.365Z</time></trkpt><trkpt lat="45.5595234" lon="9.3322894"><ele>149.0</ele><time>2026-04-19T15:21:25.358Z</time></trkpt><trkpt lat="45.5597094" lon="9.3324082"><ele>149.66666666666666</ele><time>2026-04-19T15:21:26.346Z</time></trkpt><trkpt lat="45.5598903" lon="9.3325186"><ele>150.33333333333334</ele><time>2026-04-19T15:21:27.35Z</time></trkpt><trkpt lat="45.5600662" lon="9.3326387"><ele>151.0</ele><time>2026-04-19T15:21:28.342Z</time></trkpt><trkpt lat="45.5602416" lon="9.3327631"><ele>151.0</ele><time>2026-04-19T15:21:29.346Z</time></trkpt><trkpt lat="45.5604024" lon="9.3328759"><ele>151.0</ele><time>2026-04-19T15:21:30.348Z</time></trkpt><trkpt lat="45.5605532" lon="9.3329779"><ele>151.0</ele><time>2026-04-19T15:21:31.356Z</time></trkpt><trkpt lat="45.5606965" lon="9.3330775"><ele>151.25</ele><time>2026-04-19T15:21:32.356Z</time></trkpt><trkpt lat="45.5608292" lon="9.3331775"><ele>151.5</ele><time>2026-04-19T15:21:33.352Z</time></trkpt><trkpt lat="45.5609502" lon="9.3332691"><ele>151.75</ele><time>2026-04-19T15:21:34.35Z</time></trkpt><trkpt lat="45.561054" lon="9.3333399"><ele>152.0</ele><time>2026-04-19T15:21:35.339Z</time></trkpt><trkpt lat="45.5611422" lon="9.3334065"><ele>152.66666666666666</ele><time>2026-04-19T15:21:36.351Z</time></trkpt><trkpt lat="45.5612111" lon="9.3334442"><ele>153.33333333333331</ele><time>2026-04-19T15:21:37.354Z</time></trkpt><trkpt lat="45.5612729" lon="9.3334741"><ele>154.0</ele><time>2026-04-19T15:21:38.327Z</time></trkpt><trkpt lat="45.5613367" lon="9.333496"><ele>154.66666666666666</ele><time>2026-04-19T15:21:39.346Z</time></trkpt><trkpt lat="45.561427" lon="9.3335529"><ele>155.33333333333334</ele><time>2026-04-19T15:21:40.349Z</time></trkpt><trkpt lat="45.561529" lon="9.3335914"><ele>156.0</ele><time>2026-04-19T15:21:41.357Z</time></trkpt><trkpt lat="45.561657" lon="9.333642"><ele>156.0</ele><time>2026-04-19T15:21:42.346Z</time></trkpt><trkpt lat="45.5617947" lon="9.3337059"><ele>156.0</ele><time>2026-04-19T15:21:43.345Z</time></trkpt><trkpt lat="45.5619409" lon="9.3337775"><ele>156.0</ele><time>2026-04-19T15:21:44.347Z</time></trkpt><trkpt lat="45.5620838" lon="9.3338467"><ele>155.33333333333334</ele><time>2026-04-19T15:21:45.341Z</time></trkpt><trkpt lat="45.5622428" lon="9.3339364"><ele>154.66666666666669</ele><time>2026-04-19T15:21:46.317Z</time></trkpt><trkpt lat="45.5624005" lon="9.3340312"><ele>154.0</ele><time>2026-04-19T15:21:47.345Z</time></trkpt><trkpt lat="45.5625448" lon="9.334133"><ele>154.0</ele><time>2026-04-19T15:21:48.349Z</time></trkpt><trkpt lat="45.5627029" lon="9.3342368"><ele>154.0</ele><time>2026-04-19T15:21:49.348Z</time></trkpt><trkpt lat="45.5628651" lon="9.3343597"><ele>154.0</ele><time>2026-04-19T15:21:50.344Z</time></trkpt><trkpt lat="45.5630252" lon="9.3344944"><ele>154.0</ele><time>2026-04-19T15:21:51.339Z</time></trkpt><trkpt lat="45.5631898" lon="9.3346482"><ele>154.0</ele><time>2026-04-19T15:21:52.346Z</time></trkpt><trkpt lat="45.5633585" lon="9.3347987"><ele>154.0</ele><time>2026-04-19T15:21:53.341Z</time></trkpt><trkpt lat="45.5635223" lon="9.3349526"><ele>154.0</ele><time>2026-04-19T15:21:54.339Z</time></trkpt><trkpt lat="45.5636931" lon="9.3351003"><ele>154.0</ele><time>2026-04-19T15:21:55.338Z</time></trkpt><trkpt lat="45.5638682" lon="9.3352494"><ele>154.0</ele><time>2026-04-19T15:21:56.337Z</time></trkpt><trkpt lat="45.5640507" lon="9.3353936"><ele>154.0</ele><time>2026-04-19T15:21:57.328Z</time></trkpt><trkpt lat="45.5642316" lon="9.3355105"><ele>154.0</ele><time>2026-04-19T15:21:58.345Z</time></trkpt><trkpt lat="45.5644195" lon="9.3356149"><ele>154.0</ele><time>2026-04-19T15:21:59.309Z</time></trkpt><trkpt lat="45.5646084" lon="9.3357101"><ele>154.0</ele><time>2026-04-19T15:22:00.352Z</time></trkpt><trkpt lat="45.56481" lon="9.3357829"><ele>154.0</ele><time>2026-04-19T15:22:01.356Z</time></trkpt><trkpt lat="45.5650064" lon="9.3358382"><ele>154.0</ele><time>2026-04-19T15:22:02.342Z</time></trkpt><trkpt lat="45.5652166" lon="9.3359042"><ele>155.66666666666669</ele><time>2026-04-19T15:22:03.335Z</time></trkpt><trkpt lat="45.5654253" lon="9.335976"><ele>157.33333333333334</ele><time>2026-04-19T15:22:04.345Z</time></trkpt><trkpt lat="45.5656333" lon="9.3360448"><ele>159.0</ele><time>2026-04-19T15:22:05.353Z</time></trkpt><trkpt lat="45.5658323" lon="9.3361173"><ele>159.0</ele><time>2026-04-19T15:22:06.339Z</time></trkpt><trkpt lat="45.5660375" lon="9.3362037"><ele>159.0</ele><time>2026-04-19T15:22:07.342Z</time></trkpt><trkpt lat="45.56624" lon="9.3362875"><ele>159.0</ele><time>2026-04-19T15:22:08.321Z</time></trkpt><trkpt lat="45.5664467" lon="9.3363837"><ele>158.66666666666666</ele><time>2026-04-19T15:22:09.346Z</time></trkpt><trkpt lat="45.5666517" lon="9.3364765"><ele>158.33333333333331</ele><time>2026-04-19T15:22:10.327Z</time></trkpt><trkpt lat="45.566861" lon="9.3365672"><ele>158.0</ele><time>2026-04-19T15:22:11.347Z</time></trkpt><trkpt lat="45.5670649" lon="9.3366532"><ele>157.66666666666666</ele><time>2026-04-19T15:22:12.353Z</time></trkpt><trkpt lat="45.5672691" lon="9.3367322"><ele>157.33333333333334</ele><time>2026-04-19T15:22:13.319Z</time></trkpt><trkpt lat="45.5674694" lon="9.3368259"><ele>157.0</ele><time>2026-04-19T15:22:14.354Z</time></trkpt><trkpt lat="45.5676695" lon="9.3369255"><ele>157.0</ele><time>2026-04-19T15:22:15.324Z</time></trkpt><trkpt lat="45.5678694" lon="9.3370256"><ele>157.0</ele><time>2026-04-19T15:22:16.318Z</time></trkpt><trkpt lat="45.568072" lon="9.3371212"><ele>157.0</ele><time>2026-04-19T15:22:17.322Z</time></trkpt><trkpt lat="45.5682741" lon="9.3372199"><ele>157.33333333333334</ele><time>2026-04-19T15:22:18.32Z</time></trkpt><trkpt lat="45.5684686" lon="9.3373276"><ele>157.66666666666666</ele><time>2026-04-19T15:22:19.342Z</time></trkpt><trkpt lat="45.5686682" lon="9.3374339"><ele>158.0</ele><time>2026-04-19T15:22:20.336Z</time></trkpt><trkpt lat="45.5688613" lon="9.3375475"><ele>158.0</ele><time>2026-04-19T15:22:21.334Z</time></trkpt><trkpt lat="45.5690586" lon="9.3376628"><ele>158.0</ele><time>2026-04-19T15:22:22.343Z</time></trkpt><trkpt lat="45.5692618" lon="9.3377793"><ele>158.0</ele><time>2026-04-19T15:22:23.342Z</time></trkpt><trkpt lat="45.5694678" lon="9.3378951"><ele>158.0</ele><time>2026-04-19T15:22:24.344Z</time></trkpt><trkpt lat="45.5696819" lon="9.3380209"><ele>158.0</ele><time>2026-04-19T15:22:25.332Z</time></trkpt><trkpt lat="45.5699005" lon="9.338157"><ele>156.5</ele><time>2026-04-19T15:22:26.341Z</time></trkpt><trkpt lat="45.5701167" lon="9.3382844"><ele>155.0</ele><time>2026-04-19T15:22:27.351Z</time></trkpt><trkpt lat="45.5703347" lon="9.3384178"><ele>155.5</ele><time>2026-04-19T15:22:28.328Z</time></trkpt><trkpt lat="45.5705582" lon="9.3385536"><ele>156.0</ele><time>2026-04-19T15:22:29.335Z</time></trkpt><trkpt lat="45.5707801" lon="9.338691"><ele>156.0</ele><time>2026-04-19T15:22:30.297Z</time></trkpt><trkpt lat="45.5710075" lon="9.3388293"><ele>156.0</ele><time>2026-04-19T15:22:31.335Z</time></trkpt><trkpt lat="45.5712301" lon="9.3389675"><ele>157.0</ele><time>2026-04-19T15:22:32.316Z</time></trkpt><trkpt lat="45.5714584" lon="9.3391113"><ele>158.0</ele><time>2026-04-19T15:22:33.301Z</time></trkpt><trkpt lat="45.571683" lon="9.3392466"><ele>158.0</ele><time>2026-04-19T15:22:34.332Z</time></trkpt><trkpt lat="45.5719044" lon="9.3393973"><ele>158.0</ele><time>2026-04-19T15:22:35.34Z</time></trkpt><trkpt lat="45.5721254" lon="9.339545"><ele>159.0</ele><time>2026-04-19T15:22:36.336Z</time></trkpt><trkpt lat="45.5723514" lon="9.3396893"><ele>160.0</ele><time>2026-04-19T15:22:37.333Z</time></trkpt><trkpt lat="45.5725757" lon="9.3398311"><ele>160.5</ele><time>2026-04-19T15:22:38.341Z</time></trkpt><trkpt lat="45.5727921" lon="9.3399745"><ele>161.0</ele><time>2026-04-19T15:22:39.334Z</time></trkpt><trkpt lat="45.5730118" lon="9.3401188"><ele>161.5</ele><time>2026-04-19T15:22:40.341Z</time></trkpt><trkpt lat="45.5732331" lon="9.3402483"><ele>162.0</ele><time>2026-04-19T15:22:41.348Z</time></trkpt><trkpt lat="45.5734471" lon="9.3403779"><ele>162.0</ele><time>2026-04-19T15:22:42.343Z</time></trkpt><trkpt lat="45.573666" lon="9.3404985"><ele>162.0</ele><time>2026-04-19T15:22:43.304Z</time></trkpt><trkpt lat="45.5738766" lon="9.3406253"><ele>161.0</ele><time>2026-04-19T15:22:44.307Z</time></trkpt><trkpt lat="45.5740932" lon="9.3407483"><ele>160.0</ele><time>2026-04-19T15:22:45.309Z</time></trkpt><trkpt lat="45.5743075" lon="9.3408688"><ele>160.0</ele><time>2026-04-19T15:22:46.301Z</time></trkpt><trkpt lat="45.5745201" lon="9.3409891"><ele>160.0</ele><time>2026-04-19T15:22:47.307Z</time></trkpt><trkpt lat="45.5747397" lon="9.3411082"><ele>160.0</ele><time>2026-04-19T15:22:48.343Z</time></trkpt><trkpt lat="45.5749579" lon="9.3412194"><ele>160.0</ele><time>2026-04-19T15:22:49.329Z</time></trkpt><trkpt lat="45.5751776" lon="9.34134"><ele>161.0</ele><time>2026-04-19T15:22:50.355Z</time></trkpt><trkpt lat="45.5753936" lon="9.3414602"><ele>162.0</ele><time>2026-04-19T15:22:51.301Z</time></trkpt><trkpt lat="45.5756236" lon="9.3415738"><ele>162.0</ele><time>2026-04-19T15:22:52.36Z</time></trkpt><trkpt lat="45.5758521" lon="9.3416805"><ele>162.0</ele><time>2026-04-19T15:22:53.348Z</time></trkpt><trkpt lat="45.5760685" lon="9.3417836"><ele>163.0</ele><time>2026-04-19T15:22:54.336Z</time></trkpt><trkpt lat="45.5762881" lon="9.3418825"><ele>164.0</ele><time>2026-04-19T15:22:55.342Z</time></trkpt><trkpt lat="45.5765121" lon="9.3419804"><ele>164.0</ele><time>2026-04-19T15:22:56.327Z</time></trkpt><trkpt lat="45.5767323" lon="9.3420704"><ele>164.0</ele><time>2026-04-19T15:22:57.341Z</time></trkpt><trkpt lat="45.576959" lon="9.3421628"><ele>164.0</ele><time>2026-04-19T15:22:58.322Z</time></trkpt><trkpt lat="45.5771847" lon="9.3422631"><ele>164.0</ele><time>2026-04-19T15:22:59.34Z</time></trkpt><trkpt lat="45.5774144" lon="9.3423586"><ele>164.0</ele><time>2026-04-19T15:23:00.328Z</time></trkpt><trkpt lat="45.5776393" lon="9.3424492"><ele>164.0</ele><time>2026-04-19T15:23:01.348Z</time></trkpt><trkpt lat="45.5778729" lon="9.342537"><ele>163.5</ele><time>2026-04-19T15:23:02.332Z</time></trkpt><trkpt lat="45.5780939" lon="9.3426173"><ele>163.0</ele><time>2026-04-19T15:23:03.34Z</time></trkpt><trkpt lat="45.5783136" lon="9.3427212"><ele>163.0</ele><time>2026-04-19T15:23:04.361Z</time></trkpt><trkpt lat="45.5785387" lon="9.342835"><ele>163.0</ele><time>2026-04-19T15:23:05.336Z</time></trkpt><trkpt lat="45.5787668" lon="9.3429391"><ele>162.5</ele><time>2026-04-19T15:23:06.302Z</time></trkpt><trkpt lat="45.5789844" lon="9.3430494"><ele>162.0</ele><time>2026-04-19T15:23:07.331Z</time></trkpt><trkpt lat="45.5792045" lon="9.3431593"><ele>162.0</ele><time>2026-04-19T15:23:08.333Z</time></trkpt><trkpt lat="45.5794232" lon="9.3432617"><ele>162.0</ele><time>2026-04-19T15:23:09.348Z</time></trkpt><trkpt lat="45.5796427" lon="9.3433664"><ele>164.0</ele><time>2026-04-19T15:23:10.335Z</time></trkpt><trkpt lat="45.5798555" lon="9.3434847"><ele>166.0</ele><time>2026-04-19T15:23:11.31Z</time></trkpt><trkpt lat="45.5800658" lon="9.3436011"><ele>166.0</ele><time>2026-04-19T15:23:12.321Z</time></trkpt><trkpt lat="45.580266" lon="9.3437305"><ele>166.0</ele><time>2026-04-19T15:23:13.34Z</time></trkpt><trkpt lat="45.5804776" lon="9.3438642"><ele>165.5</ele><time>2026-04-19T15:23:14.346Z</time></trkpt><trkpt lat="45.5806936" lon="9.3439972"><ele>165.0</ele><time>2026-04-19T15:23:15.329Z</time></trkpt><trkpt lat="45.5809055" lon="9.344148"><ele>165.0</ele><time>2026-04-19T15:23:16.342Z</time></trkpt><trkpt lat="45.5811137" lon="9.3442981"><ele>165.0</ele><time>2026-04-19T15:23:17.34Z</time></trkpt><trkpt lat="45.5813209" lon="9.3444503"><ele>164.5</ele><time>2026-04-19T15:23:18.332Z</time></trkpt><trkpt lat="45.5815309" lon="9.3446072"><ele>164.0</ele><time>2026-04-19T15:23:19.337Z</time></trkpt><trkpt lat="45.5817313" lon="9.34478"><ele>164.0</ele><time>2026-04-19T15:23:20.352Z</time></trkpt><trkpt lat="45.5819394" lon="9.3449502"><ele>164.0</ele><time>2026-04-19T15:23:21.362Z</time></trkpt><trkpt lat="45.5821379" lon="9.3451268"><ele>164.0</ele><time>2026-04-19T15:23:22.345Z</time></trkpt><trkpt lat="45.5823335" lon="9.3453099"><ele>164.0</ele><time>2026-04-19T15:23:23.359Z</time></trkpt><trkpt lat="45.5825356" lon="9.3454941"><ele>164.0</ele><time>2026-04-19T15:23:24.353Z</time></trkpt><trkpt lat="45.5827249" lon="9.3456787"><ele>164.0</ele><time>2026-04-19T15:23:25.355Z</time></trkpt><trkpt lat="45.5829145" lon="9.3458693"><ele>165.0</ele><time>2026-04-19T15:23:26.347Z</time></trkpt><trkpt lat="45.5831034" lon="9.3460741"><ele>166.0</ele><time>2026-04-19T15:23:27.347Z</time></trkpt><trkpt lat="45.5832892" lon="9.3462812"><ele>166.0</ele><time>2026-04-19T15:23:28.349Z</time></trkpt><trkpt lat="45.5834676" lon="9.3464897"><ele>166.0</ele><time>2026-04-19T15:23:29.348Z</time></trkpt><trkpt lat="45.583643" lon="9.3467047"><ele>166.5</ele><time>2026-04-19T15:23:30.338Z</time></trkpt><trkpt lat="45.5838204" lon="9.3469258"><ele>167.0</ele><time>2026-04-19T15:23:31.332Z</time></trkpt><trkpt lat="45.5839967" lon="9.3471463"><ele>167.0</ele><time>2026-04-19T15:23:32.349Z</time></trkpt><trkpt lat="45.5841753" lon="9.347376"><ele>167.0</ele><time>2026-04-19T15:23:33.338Z</time></trkpt><trkpt lat="45.5843461" lon="9.3476117"><ele>166.5</ele><time>2026-04-19T15:23:34.355Z</time></trkpt><trkpt lat="45.584514" lon="9.3478445"><ele>166.0</ele><time>2026-04-19T15:23:35.352Z</time></trkpt><trkpt lat="45.5846882" lon="9.3480794"><ele>167.0</ele><time>2026-04-19T15:23:36.344Z</time></trkpt><trkpt lat="45.5848619" lon="9.3483112"><ele>168.0</ele><time>2026-04-19T15:23:37.332Z</time></trkpt><trkpt lat="45.585036" lon="9.3485394"><ele>168.0</ele><time>2026-04-19T15:23:38.344Z</time></trkpt><trkpt lat="45.5852087" lon="9.3487655"><ele>168.0</ele><time>2026-04-19T15:23:39.35Z</time></trkpt><trkpt lat="45.5853844" lon="9.3490002"><ele>168.5</ele><time>2026-04-19T15:23:40.356Z</time></trkpt><trkpt lat="45.5855565" lon="9.3492393"><ele>169.0</ele><time>2026-04-19T15:23:41.332Z</time></trkpt><trkpt lat="45.5857312" lon="9.3494729"><ele>169.0</ele><time>2026-04-19T15:23:42.354Z</time></trkpt><trkpt lat="45.5859069" lon="9.3497039"><ele>169.0</ele><time>2026-04-19T15:23:43.338Z</time></trkpt><trkpt lat="45.586085" lon="9.3499337"><ele>168.5</ele><time>2026-04-19T15:23:44.351Z</time></trkpt><trkpt lat="45.5862635" lon="9.3501688"><ele>168.0</ele><time>2026-04-19T15:23:45.336Z</time></trkpt><trkpt lat="45.5864406" lon="9.3504073"><ele>168.0</ele><time>2026-04-19T15:23:46.352Z</time></trkpt><trkpt lat="45.5866154" lon="9.3506379"><ele>168.0</ele><time>2026-04-19T15:23:47.361Z</time></trkpt><trkpt lat="45.5867863" lon="9.3508716"><ele>168.0</ele><time>2026-04-19T15:23:48.342Z</time></trkpt><trkpt lat="45.5869561" lon="9.3511034"><ele>168.0</ele><time>2026-04-19T15:23:49.354Z</time></trkpt><trkpt lat="45.5871293" lon="9.351333"><ele>169.0</ele><time>2026-04-19T15:23:50.355Z</time></trkpt><trkpt lat="45.5873024" lon="9.3515637"><ele>170.0</ele><time>2026-04-19T15:23:51.35Z</time></trkpt><trkpt lat="45.5874741" lon="9.3517827"><ele>170.0</ele><time>2026-04-19T15:23:52.35Z</time></trkpt><trkpt lat="45.5876435" lon="9.352011"><ele>170.0</ele><time>2026-04-19T15:23:53.35Z</time></trkpt><trkpt lat="45.5878157" lon="9.352244"><ele>171.0</ele><time>2026-04-19T15:23:54.352Z</time></trkpt><trkpt lat="45.587988" lon="9.3524736"><ele>172.0</ele><time>2026-04-19T15:23:55.354Z</time></trkpt><trkpt lat="45.5881635" lon="9.3527051"><ele>172.0</ele><time>2026-04-19T15:23:56.342Z</time></trkpt><trkpt lat="45.5883405" lon="9.3529369"><ele>172.0</ele><time>2026-04-19T15:23:57.333Z</time></trkpt><trkpt lat="45.5885147" lon="9.3531695"><ele>172.5</ele><time>2026-04-19T15:23:58.351Z</time></trkpt><trkpt lat="45.5886874" lon="9.3533996"><ele>173.0</ele><time>2026-04-19T15:23:59.359Z</time></trkpt><trkpt lat="45.5888567" lon="9.3536258"><ele>173.0</ele><time>2026-04-19T15:24:00.358Z</time></trkpt><trkpt lat="45.5890183" lon="9.3538428"><ele>173.0</ele><time>2026-04-19T15:24:01.363Z</time></trkpt><trkpt lat="45.5891885" lon="9.3540573"><ele>173.0</ele><time>2026-04-19T15:24:02.343Z</time></trkpt><trkpt lat="45.5893507" lon="9.3542816"><ele>173.0</ele><time>2026-04-19T15:24:03.336Z</time></trkpt><trkpt lat="45.5895119" lon="9.3544983"><ele>173.0</ele><time>2026-04-19T15:24:04.349Z</time></trkpt><trkpt lat="45.5896699" lon="9.3547198"><ele>173.0</ele><time>2026-04-19T15:24:05.347Z</time></trkpt><trkpt lat="45.5898318" lon="9.3549352"><ele>173.0</ele><time>2026-04-19T15:24:06.344Z</time></trkpt><trkpt lat="45.5899901" lon="9.3551479"><ele>173.0</ele><time>2026-04-19T15:24:07.348Z</time></trkpt><trkpt lat="45.5901549" lon="9.355365"><ele>173.0</ele><time>2026-04-19T15:24:08.35Z</time></trkpt><trkpt lat="45.5903279" lon="9.3555833"><ele>172.5</ele><time>2026-04-19T15:24:09.348Z</time></trkpt><trkpt lat="45.5905002" lon="9.3558177"><ele>172.0</ele><time>2026-04-19T15:24:10.357Z</time></trkpt><trkpt lat="45.5906776" lon="9.3560409"><ele>172.0</ele><time>2026-04-19T15:24:11.346Z</time></trkpt><trkpt lat="45.5908516" lon="9.3562726"><ele>172.0</ele><time>2026-04-19T15:24:12.341Z</time></trkpt><trkpt lat="45.5910344" lon="9.3565214"><ele>173.0</ele><time>2026-04-19T15:24:13.346Z</time></trkpt><trkpt lat="45.5912161" lon="9.3567629"><ele>174.0</ele><time>2026-04-19T15:24:14.35Z</time></trkpt><trkpt lat="45.5914086" lon="9.3570121"><ele>175.0</ele><time>2026-04-19T15:24:15.35Z</time></trkpt><trkpt lat="45.5915903" lon="9.3572594"><ele>176.0</ele><time>2026-04-19T15:24:16.322Z</time></trkpt><trkpt lat="45.5917836" lon="9.3575116"><ele>176.0</ele><time>2026-04-19T15:24:17.331Z</time></trkpt><trkpt lat="45.5919794" lon="9.3577662"><ele>176.0</ele><time>2026-04-19T15:24:18.351Z</time></trkpt><trkpt lat="45.5921713" lon="9.3580246"><ele>175.5</ele><time>2026-04-19T15:24:19.345Z</time></trkpt><trkpt lat="45.5923636" lon="9.3582796"><ele>175.0</ele><time>2026-04-19T15:24:20.351Z</time></trkpt><trkpt lat="45.5925535" lon="9.3585303"><ele>175.0</ele><time>2026-04-19T15:24:21.327Z</time></trkpt><trkpt lat="45.5927446" lon="9.3587856"><ele>175.0</ele><time>2026-04-19T15:24:22.312Z</time></trkpt><trkpt lat="45.5929399" lon="9.3590442"><ele>174.5</ele><time>2026-04-19T15:24:23.325Z</time></trkpt><trkpt lat="45.5931279" lon="9.3592974"><ele>174.0</ele><time>2026-04-19T15:24:24.337Z</time></trkpt><trkpt lat="45.5933193" lon="9.359544"><ele>174.5</ele><time>2026-04-19T15:24:25.31Z</time></trkpt><trkpt lat="45.5935075" lon="9.3597886"><ele>175.0</ele><time>2026-04-19T15:24:26.358Z</time></trkpt><trkpt lat="45.5937029" lon="9.3600358"><ele>176.0</ele><time>2026-04-19T15:24:27.337Z</time></trkpt><trkpt lat="45.5939031" lon="9.3602711"><ele>177.0</ele><time>2026-04-19T15:24:28.353Z</time></trkpt><trkpt lat="45.5941123" lon="9.360492"><ele>176.5</ele><time>2026-04-19T15:24:29.347Z</time></trkpt><trkpt lat="45.5943244" lon="9.3607"><ele>176.0</ele><time>2026-04-19T15:24:30.339Z</time></trkpt><trkpt lat="45.5945347" lon="9.360901"><ele>176.0</ele><time>2026-04-19T15:24:31.366Z</time></trkpt><trkpt lat="45.5947593" lon="9.361096"><ele>176.0</ele><time>2026-04-19T15:24:32.338Z</time></trkpt><trkpt lat="45.5949781" lon="9.3612819"><ele>176.5</ele><time>2026-04-19T15:24:33.348Z</time></trkpt><trkpt lat="45.595205" lon="9.3614485"><ele>177.0</ele><time>2026-04-19T15:24:34.344Z</time></trkpt><trkpt lat="45.5954351" lon="9.3616102"><ele>178.0</ele><time>2026-04-19T15:24:35.354Z</time></trkpt><trkpt lat="45.5956615" lon="9.3617593"><ele>179.0</ele><time>2026-04-19T15:24:36.344Z</time></trkpt><trkpt lat="45.5958845" lon="9.3619019"><ele>179.0</ele><time>2026-04-19T15:24:37.34Z</time></trkpt><trkpt lat="45.5961135" lon="9.3620309"><ele>179.0</ele><time>2026-04-19T15:24:38.346Z</time></trkpt><trkpt lat="45.5963343" lon="9.362146"><ele>179.5</ele><time>2026-04-19T15:24:39.342Z</time></trkpt><trkpt lat="45.5965508" lon="9.362252"><ele>180.0</ele><time>2026-04-19T15:24:40.338Z</time></trkpt><trkpt lat="45.5967712" lon="9.3623517"><ele>180.0</ele><time>2026-04-19T15:24:41.366Z</time></trkpt><trkpt lat="45.5969761" lon="9.3624452"><ele>180.0</ele><time>2026-04-19T15:24:42.35Z</time></trkpt><trkpt lat="45.5971904" lon="9.3625383"><ele>180.0</ele><time>2026-04-19T15:24:43.358Z</time></trkpt><trkpt lat="45.5974061" lon="9.3626325"><ele>180.66666666666666</ele><time>2026-04-19T15:24:44.342Z</time></trkpt><trkpt lat="45.5976037" lon="9.3627105"><ele>181.33333333333331</ele><time>2026-04-19T15:24:45.354Z</time></trkpt><trkpt lat="45.5978081" lon="9.3628035"><ele>182.0</ele><time>2026-04-19T15:24:46.352Z</time></trkpt><trkpt lat="45.5980068" lon="9.3628931"><ele>182.0</ele><time>2026-04-19T15:24:47.356Z</time></trkpt><trkpt lat="45.5981943" lon="9.3629742"><ele>182.0</ele><time>2026-04-19T15:24:48.343Z</time></trkpt><trkpt lat="45.5983823" lon="9.363071"><ele>182.0</ele><time>2026-04-19T15:24:49.341Z</time></trkpt><trkpt lat="45.5985717" lon="9.3631635"><ele>183.0</ele><time>2026-04-19T15:24:50.352Z</time></trkpt><trkpt lat="45.5987587" lon="9.3632522"><ele>184.0</ele><time>2026-04-19T15:24:51.366Z</time></trkpt><trkpt lat="45.5989485" lon="9.3633317"><ele>185.0</ele><time>2026-04-19T15:24:52.354Z</time></trkpt><trkpt lat="45.5991382" lon="9.3634154"><ele>185.0</ele><time>2026-04-19T15:24:53.365Z</time></trkpt><trkpt lat="45.5993249" lon="9.3634891"><ele>185.0</ele><time>2026-04-19T15:24:54.347Z</time></trkpt><trkpt lat="45.5995179" lon="9.3635589"><ele>185.0</ele><time>2026-04-19T15:24:55.346Z</time></trkpt><trkpt lat="45.5997064" lon="9.3636192"><ele>185.0</ele><time>2026-04-19T15:24:56.359Z</time></trkpt><trkpt lat="45.5998948" lon="9.3636632"><ele>185.0</ele><time>2026-04-19T15:24:57.352Z</time></trkpt><trkpt lat="45.6000903" lon="9.3637122"><ele>185.0</ele><time>2026-04-19T15:24:58.332Z</time></trkpt><trkpt lat="45.6002889" lon="9.3637383"><ele>184.0</ele><time>2026-04-19T15:24:59.342Z</time></trkpt><trkpt lat="45.6004976" lon="9.3637509"><ele>183.0</ele><time>2026-04-19T15:25:00.347Z</time></trkpt><trkpt lat="45.6007024" lon="9.3637638"><ele>182.0</ele><time>2026-04-19T15:25:01.354Z</time></trkpt><trkpt lat="45.6009053" lon="9.3637639"><ele>182.0</ele><time>2026-04-19T15:25:02.339Z</time></trkpt><trkpt lat="45.6011031" lon="9.3637645"><ele>182.0</ele><time>2026-04-19T15:25:03.367Z</time></trkpt><trkpt lat="45.6013035" lon="9.3637533"><ele>182.0</ele><time>2026-04-19T15:25:04.349Z</time></trkpt><trkpt lat="45.6015113" lon="9.3637279"><ele>181.0</ele><time>2026-04-19T15:25:05.34Z</time></trkpt><trkpt lat="45.6017158" lon="9.3636932"><ele>180.0</ele><time>2026-04-19T15:25:06.344Z</time></trkpt><trkpt lat="45.6019286" lon="9.3636498"><ele>179.0</ele><time>2026-04-19T15:25:07.354Z</time></trkpt><trkpt lat="45.6021447" lon="9.3636037"><ele>179.0</ele><time>2026-04-19T15:25:08.342Z</time></trkpt><trkpt lat="45.6023612" lon="9.3635511"><ele>179.0</ele><time>2026-04-19T15:25:09.348Z</time></trkpt><trkpt lat="45.6025901" lon="9.3634825"><ele>179.0</ele><time>2026-04-19T15:25:10.331Z</time></trkpt><trkpt lat="45.6028111" lon="9.3634104"><ele>179.0</ele><time>2026-04-19T15:25:11.35Z</time></trkpt><trkpt lat="45.603047" lon="9.3633296"><ele>179.5</ele><time>2026-04-19T15:25:12.344Z</time></trkpt><trkpt lat="45.6032745" lon="9.3632406"><ele>180.0</ele><time>2026-04-19T15:25:13.349Z</time></trkpt><trkpt lat="45.6035031" lon="9.3631436"><ele>180.5</ele><time>2026-04-19T15:25:14.342Z</time></trkpt><trkpt lat="45.6037284" lon="9.3630501"><ele>181.0</ele><time>2026-04-19T15:25:15.337Z</time></trkpt><trkpt lat="45.6039584" lon="9.3629535"><ele>180.0</ele><time>2026-04-19T15:25:16.342Z</time></trkpt><trkpt lat="45.6041895" lon="9.3628621"><ele>179.0</ele><time>2026-04-19T15:25:17.321Z</time></trkpt><trkpt lat="45.6044297" lon="9.3627591"><ele>181.0</ele><time>2026-04-19T15:25:18.336Z</time></trkpt><trkpt lat="45.6046646" lon="9.362663"><ele>183.0</ele><time>2026-04-19T15:25:19.342Z</time></trkpt><trkpt lat="45.6049" lon="9.3625608"><ele>183.0</ele><time>2026-04-19T15:25:20.331Z</time></trkpt><trkpt lat="45.605138" lon="9.3624635"><ele>183.0</ele><time>2026-04-19T15:25:21.338Z</time></trkpt><trkpt lat="45.6053723" lon="9.3623682"><ele>184.5</ele><time>2026-04-19T15:25:22.334Z</time></trkpt><trkpt lat="45.6056133" lon="9.3622672"><ele>186.0</ele><time>2026-04-19T15:25:23.338Z</time></trkpt><trkpt lat="45.6058528" lon="9.3621685"><ele>186.5</ele><time>2026-04-19T15:25:24.349Z</time></trkpt><trkpt lat="45.6060859" lon="9.3620728"><ele>187.0</ele><time>2026-04-19T15:25:25.355Z</time></trkpt><trkpt lat="45.6063278" lon="9.3619731"><ele>184.5</ele><time>2026-04-19T15:25:26.339Z</time></trkpt><trkpt lat="45.606566" lon="9.3618675"><ele>182.0</ele><time>2026-04-19T15:25:27.334Z</time></trkpt><trkpt lat="45.6067966" lon="9.3617633"><ele>183.0</ele><time>2026-04-19T15:25:28.335Z</time></trkpt><trkpt lat="45.6070289" lon="9.3616618"><ele>184.0</ele><time>2026-04-19T15:25:29.342Z</time></trkpt><trkpt lat="45.6072664" lon="9.3615653"><ele>184.0</ele><time>2026-04-19T15:25:30.332Z</time></trkpt><trkpt lat="45.6075089" lon="9.3614685"><ele>184.0</ele><time>2026-04-19T15:25:31.328Z</time></trkpt><trkpt lat="45.607748" lon="9.3613651"><ele>184.5</ele><time>2026-04-19T15:25:32.335Z</time></trkpt><trkpt lat="45.6079957" lon="9.3612715"><ele>185.0</ele><time>2026-04-19T15:25:33.317Z</time></trkpt><trkpt lat="45.6082311" lon="9.3611659"><ele>185.0</ele><time>2026-04-19T15:25:34.342Z</time></trkpt><trkpt lat="45.6091593" lon="9.3607451"><ele>185.0</ele><time>2026-04-19T15:25:38.327Z</time></trkpt><trkpt lat="45.6093776" lon="9.3606616"><ele>185.0</ele><time>2026-04-19T15:25:39.338Z</time></trkpt><trkpt lat="45.6096678" lon="9.360548"><ele>184.0</ele><time>2026-04-19T15:25:40.336Z</time></trkpt><trkpt lat="45.6099198" lon="9.3604487"><ele>183.0</ele><time>2026-04-19T15:25:41.344Z</time></trkpt><trkpt lat="45.6101611" lon="9.3603698"><ele>184.5</ele><time>2026-04-19T15:25:42.327Z</time></trkpt><trkpt lat="45.6103946" lon="9.3602733"><ele>186.0</ele><time>2026-04-19T15:25:43.338Z</time></trkpt><trkpt lat="45.6106234" lon="9.3601669"><ele>186.0</ele><time>2026-04-19T15:25:44.329Z</time></trkpt><trkpt lat="45.6108531" lon="9.3600695"><ele>186.0</ele><time>2026-04-19T15:25:45.337Z</time></trkpt><trkpt lat="45.6110957" lon="9.3599738"><ele>187.5</ele><time>2026-04-19T15:25:46.337Z</time></trkpt><trkpt lat="45.6113239" lon="9.3598845"><ele>189.0</ele><time>2026-04-19T15:25:47.334Z</time></trkpt><trkpt lat="45.6115377" lon="9.3597657"><ele>189.0</ele><time>2026-04-19T15:25:48.34Z</time></trkpt><trkpt lat="45.6117632" lon="9.3596663"><ele>189.0</ele><time>2026-04-19T15:25:49.324Z</time></trkpt><trkpt lat="45.6119915" lon="9.3595726"><ele>188.5</ele><time>2026-04-19T15:25:50.318Z</time></trkpt><trkpt lat="45.6122167" lon="9.3594745"><ele>188.0</ele><time>2026-04-19T15:25:51.326Z</time></trkpt><trkpt lat="45.612445" lon="9.3594103"><ele>188.0</ele><time>2026-04-19T15:25:52.331Z</time></trkpt><trkpt lat="45.6126742" lon="9.3593105"><ele>188.0</ele><time>2026-04-19T15:25:53.338Z</time></trkpt><trkpt lat="45.6128905" lon="9.3592411"><ele>188.5</ele><time>2026-04-19T15:25:54.335Z</time></trkpt><trkpt lat="45.6131416" lon="9.3591851"><ele>189.0</ele><time>2026-04-19T15:25:55.302Z</time></trkpt><trkpt lat="45.6133633" lon="9.3591672"><ele>189.0</ele><time>2026-04-19T15:25:56.325Z</time></trkpt><trkpt lat="45.6135833" lon="9.3591043"><ele>189.0</ele><time>2026-04-19T15:25:57.318Z</time></trkpt><trkpt lat="45.6138793" lon="9.3590958"><ele>189.5</ele><time>2026-04-19T15:25:58.33Z</time></trkpt><trkpt lat="45.6141295" lon="9.3591084"><ele>190.0</ele><time>2026-04-19T15:25:59.319Z</time></trkpt><trkpt lat="45.6143286" lon="9.3591776"><ele>190.0</ele><time>2026-04-19T15:26:00.324Z</time></trkpt><trkpt lat="45.6145222" lon="9.3591935"><ele>190.0</ele><time>2026-04-19T15:26:01.326Z</time></trkpt><trkpt lat="45.6147536" lon="9.3592454"><ele>190.0</ele><time>2026-04-19T15:26:02.318Z</time></trkpt><trkpt lat="45.6149996" lon="9.3592818"><ele>190.0</ele><time>2026-04-19T15:26:03.318Z</time></trkpt><trkpt lat="45.6152483" lon="9.3592974"><ele>190.0</ele><time>2026-04-19T15:26:04.329Z</time></trkpt><trkpt lat="45.6154671" lon="9.3593317"><ele>190.0</ele><time>2026-04-19T15:26:05.329Z</time></trkpt><trkpt lat="45.6156977" lon="9.3593757"><ele>190.0</ele><time>2026-04-19T15:26:06.32Z</time></trkpt><trkpt lat="45.6159057" lon="9.3594177"><ele>190.0</ele><time>2026-04-19T15:26:07.328Z</time></trkpt><trkpt lat="45.6199036" lon="9.3604247"><ele>190.0</ele><time>2026-04-19T15:26:25.319Z</time></trkpt><trkpt lat="45.6201061" lon="9.3604526"><ele>190.0</ele><time>2026-04-19T15:26:26.314Z</time></trkpt><trkpt lat="45.6203386" lon="9.3604769"><ele>190.0</ele><time>2026-04-19T15:26:27.323Z</time></trkpt><trkpt lat="45.6205674" lon="9.3605382"><ele>190.0</ele><time>2026-04-19T15:26:28.329Z</time></trkpt><trkpt lat="45.6207871" lon="9.3605737"><ele>190.0</ele><time>2026-04-19T15:26:29.329Z</time></trkpt><trkpt lat="45.6210111" lon="9.360611"><ele>190.0</ele><time>2026-04-19T15:26:30.343Z</time></trkpt><trkpt lat="45.6212242" lon="9.3606489"><ele>191.33333333333334</ele><time>2026-04-19T15:26:31.337Z</time></trkpt><trkpt lat="45.6214458" lon="9.3607044"><ele>192.66666666666669</ele><time>2026-04-19T15:26:32.337Z</time></trkpt><trkpt lat="45.6216581" lon="9.3607412"><ele>194.0</ele><time>2026-04-19T15:26:33.338Z</time></trkpt><trkpt lat="45.6218782" lon="9.3608012"><ele>194.66666666666669</ele><time>2026-04-19T15:26:34.344Z</time></trkpt><trkpt lat="45.622088" lon="9.3608482"><ele>195.33333333333331</ele><time>2026-04-19T15:26:35.343Z</time></trkpt><trkpt lat="45.6222935" lon="9.3608902"><ele>196.0</ele><time>2026-04-19T15:26:36.349Z</time></trkpt><trkpt lat="45.6225035" lon="9.3609349"><ele>196.0</ele><time>2026-04-19T15:26:37.296Z</time></trkpt><trkpt lat="45.6227109" lon="9.3609789"><ele>196.0</ele><time>2026-04-19T15:26:38.33Z</time></trkpt><trkpt lat="45.6229166" lon="9.3610209"><ele>196.0</ele><time>2026-04-19T15:26:39.332Z</time></trkpt><trkpt lat="45.6231217" lon="9.3610576"><ele>197.0</ele><time>2026-04-19T15:26:40.335Z</time></trkpt><trkpt lat="45.6233302" lon="9.3610916"><ele>198.0</ele><time>2026-04-19T15:26:41.357Z</time></trkpt><trkpt lat="45.6235438" lon="9.361139"><ele>199.0</ele><time>2026-04-19T15:26:42.33Z</time></trkpt><trkpt lat="45.6237583" lon="9.3611828"><ele>199.0</ele><time>2026-04-19T15:26:43.332Z</time></trkpt><trkpt lat="45.62398" lon="9.3612257"><ele>199.0</ele><time>2026-04-19T15:26:44.352Z</time></trkpt><trkpt lat="45.624208" lon="9.3612737"><ele>199.0</ele><time>2026-04-19T15:26:45.349Z</time></trkpt><trkpt lat="45.6244334" lon="9.3613213"><ele>199.0</ele><time>2026-04-19T15:26:46.342Z</time></trkpt><trkpt lat="45.6246558" lon="9.3613675"><ele>200.5</ele><time>2026-04-19T15:26:47.331Z</time></trkpt><trkpt lat="45.6248807" lon="9.3614137"><ele>202.0</ele><time>2026-04-19T15:26:48.348Z</time></trkpt><trkpt lat="45.625113" lon="9.36145"><ele>202.5</ele><time>2026-04-19T15:26:49.345Z</time></trkpt><trkpt lat="45.6253479" lon="9.3614949"><ele>203.0</ele><time>2026-04-19T15:26:50.334Z</time></trkpt><trkpt lat="45.6255877" lon="9.3615451"><ele>203.0</ele><time>2026-04-19T15:26:51.333Z</time></trkpt><trkpt lat="45.6258182" lon="9.3615937"><ele>203.0</ele><time>2026-04-19T15:26:52.34Z</time></trkpt><trkpt lat="45.626059" lon="9.3616432"><ele>203.0</ele><time>2026-04-19T15:26:53.352Z</time></trkpt><trkpt lat="45.626298" lon="9.3616907"><ele>203.0</ele><time>2026-04-19T15:26:54.336Z</time></trkpt><trkpt lat="45.6265412" lon="9.361733"><ele>203.0</ele><time>2026-04-19T15:26:55.346Z</time></trkpt><trkpt lat="45.6267851" lon="9.3617762"><ele>203.0</ele><time>2026-04-19T15:26:56.346Z</time></trkpt><trkpt lat="45.6270317" lon="9.3618228"><ele>204.5</ele><time>2026-04-19T15:26:57.342Z</time></trkpt><trkpt lat="45.6272745" lon="9.361867"><ele>206.0</ele><time>2026-04-19T15:26:58.334Z</time></trkpt><trkpt lat="45.6275189" lon="9.3619093"><ele>206.0</ele><time>2026-04-19T15:26:59.354Z</time></trkpt><trkpt lat="45.6277634" lon="9.3619568"><ele>206.0</ele><time>2026-04-19T15:27:00.332Z</time></trkpt><trkpt lat="45.6280097" lon="9.3620101"><ele>207.0</ele><time>2026-04-19T15:27:01.349Z</time></trkpt><trkpt lat="45.6282598" lon="9.3620662"><ele>208.0</ele><time>2026-04-19T15:27:02.346Z</time></trkpt><trkpt lat="45.6285109" lon="9.3621232"><ele>208.5</ele><time>2026-04-19T15:27:03.344Z</time></trkpt><trkpt lat="45.6287649" lon="9.3621645"><ele>209.0</ele><time>2026-04-19T15:27:04.342Z</time></trkpt><trkpt lat="45.6290115" lon="9.3622163"><ele>208.0</ele><time>2026-04-19T15:27:05.336Z</time></trkpt><trkpt lat="45.6292626" lon="9.3622697"><ele>207.0</ele><time>2026-04-19T15:27:06.317Z</time></trkpt><trkpt lat="45.6295166" lon="9.3623195"><ele>206.5</ele><time>2026-04-19T15:27:07.337Z</time></trkpt><trkpt lat="45.6297644" lon="9.3623641"><ele>206.0</ele><time>2026-04-19T15:27:08.344Z</time></trkpt><trkpt lat="45.63002" lon="9.3624108"><ele>206.0</ele><time>2026-04-19T15:27:09.336Z</time></trkpt><trkpt lat="45.630284" lon="9.3624602"><ele>206.0</ele><time>2026-04-19T15:27:10.357Z</time></trkpt><trkpt lat="45.6305405" lon="9.3625061"><ele>207.5</ele><time>2026-04-19T15:27:11.355Z</time></trkpt><trkpt lat="45.6307982" lon="9.3625522"><ele>209.0</ele><time>2026-04-19T15:27:12.336Z</time></trkpt><trkpt lat="45.6310587" lon="9.3625982"><ele>209.0</ele><time>2026-04-19T15:27:13.339Z</time></trkpt><trkpt lat="45.6313192" lon="9.3626459"><ele>209.0</ele><time>2026-04-19T15:27:14.312Z</time></trkpt><trkpt lat="45.6315753" lon="9.3626922"><ele>209.0</ele><time>2026-04-19T15:27:15.328Z</time></trkpt><trkpt lat="45.6318365" lon="9.3627492"><ele>209.0</ele><time>2026-04-19T15:27:16.327Z</time></trkpt><trkpt lat="45.632098" lon="9.3628035"><ele>209.5</ele><time>2026-04-19T15:27:17.33Z</time></trkpt><trkpt lat="45.632355" lon="9.3628613"><ele>210.0</ele><time>2026-04-19T15:27:18.342Z</time></trkpt><trkpt lat="45.6326172" lon="9.3629187"><ele>210.0</ele><time>2026-04-19T15:27:19.333Z</time></trkpt><trkpt lat="45.6328775" lon="9.3629643"><ele>210.0</ele><time>2026-04-19T15:27:20.345Z</time></trkpt><trkpt lat="45.6331373" lon="9.3630178"><ele>210.5</ele><time>2026-04-19T15:27:21.339Z</time></trkpt><trkpt lat="45.6334017" lon="9.3630689"><ele>211.0</ele><time>2026-04-19T15:27:22.336Z</time></trkpt><trkpt lat="45.6336662" lon="9.3631164"><ele>211.0</ele><time>2026-04-19T15:27:23.334Z</time></trkpt><trkpt lat="45.6339244" lon="9.3631718"><ele>211.0</ele><time>2026-04-19T15:27:24.335Z</time></trkpt><trkpt lat="45.6341864" lon="9.3632267"><ele>211.0</ele><time>2026-04-19T15:27:25.335Z</time></trkpt><trkpt lat="45.6344506" lon="9.3632757"><ele>211.0</ele><time>2026-04-19T15:27:26.332Z</time></trkpt><trkpt lat="45.634713" lon="9.3633333"><ele>211.0</ele><time>2026-04-19T15:27:27.328Z</time></trkpt><trkpt lat="45.634974" lon="9.3633853"><ele>211.0</ele><time>2026-04-19T15:27:28.328Z</time></trkpt><trkpt lat="45.6352339" lon="9.3634355"><ele>211.0</ele><time>2026-04-19T15:27:29.315Z</time></trkpt><trkpt lat="45.6355008" lon="9.363483"><ele>211.0</ele><time>2026-04-19T15:27:30.351Z</time></trkpt><trkpt lat="45.6357608" lon="9.3635371"><ele>211.0</ele><time>2026-04-19T15:27:31.355Z</time></trkpt><trkpt lat="45.6360154" lon="9.3635869"><ele>211.0</ele><time>2026-04-19T15:27:32.343Z</time></trkpt><trkpt lat="45.6362747" lon="9.3636364"><ele>211.0</ele><time>2026-04-19T15:27:33.34Z</time></trkpt><trkpt lat="45.6365314" lon="9.3636909"><ele>211.0</ele><time>2026-04-19T15:27:34.346Z</time></trkpt><trkpt lat="45.6367938" lon="9.3637508"><ele>211.5</ele><time>2026-04-19T15:27:35.347Z</time></trkpt><trkpt lat="45.6370495" lon="9.3638067"><ele>212.0</ele><time>2026-04-19T15:27:36.349Z</time></trkpt><trkpt lat="45.6373057" lon="9.363874"><ele>212.0</ele><time>2026-04-19T15:27:37.352Z</time></trkpt><trkpt lat="45.6375634" lon="9.3639494"><ele>212.0</ele><time>2026-04-19T15:27:38.361Z</time></trkpt><trkpt lat="45.6378222" lon="9.3640227"><ele>212.0</ele><time>2026-04-19T15:27:39.336Z</time></trkpt><trkpt lat="45.6380812" lon="9.3640961"><ele>212.0</ele><time>2026-04-19T15:27:40.367Z</time></trkpt><trkpt lat="45.6383334" lon="9.3641617"><ele>212.0</ele><time>2026-04-19T15:27:41.35Z</time></trkpt><trkpt lat="45.6385821" lon="9.3642321"><ele>212.0</ele><time>2026-04-19T15:27:42.338Z</time></trkpt><trkpt lat="45.6388197" lon="9.3642994"><ele>211.5</ele><time>2026-04-19T15:27:43.348Z</time></trkpt><trkpt lat="45.6390522" lon="9.3643714"><ele>211.0</ele><time>2026-04-19T15:27:44.348Z</time></trkpt><trkpt lat="45.639293" lon="9.3644556"><ele>211.5</ele><time>2026-04-19T15:27:45.342Z</time></trkpt><trkpt lat="45.6395296" lon="9.3645359"><ele>212.0</ele><time>2026-04-19T15:27:46.319Z</time></trkpt><trkpt lat="45.6397652" lon="9.3646169"><ele>211.5</ele><time>2026-04-19T15:27:47.349Z</time></trkpt><trkpt lat="45.6400058" lon="9.3646975"><ele>211.0</ele><time>2026-04-19T15:27:48.34Z</time></trkpt><trkpt lat="45.6402454" lon="9.3647749"><ele>211.5</ele><time>2026-04-19T15:27:49.332Z</time></trkpt><trkpt lat="45.6404819" lon="9.3648653"><ele>212.0</ele><time>2026-04-19T15:27:50.348Z</time></trkpt><trkpt lat="45.6407229" lon="9.3649533"><ele>212.0</ele><time>2026-04-19T15:27:51.345Z</time></trkpt><trkpt lat="45.6409573" lon="9.3650405"><ele>212.0</ele><time>2026-04-19T15:27:52.352Z</time></trkpt><trkpt lat="45.6411979" lon="9.3651246"><ele>213.5</ele><time>2026-04-19T15:27:53.335Z</time></trkpt><trkpt lat="45.6414352" lon="9.365206"><ele>215.0</ele><time>2026-04-19T15:27:54.347Z</time></trkpt><trkpt lat="45.6416757" lon="9.3652891"><ele>215.0</ele><time>2026-04-19T15:27:55.333Z</time></trkpt><trkpt lat="45.6419184" lon="9.3653829"><ele>215.0</ele><time>2026-04-19T15:27:56.312Z</time></trkpt><trkpt lat="45.6421599" lon="9.3654606"><ele>215.5</ele><time>2026-04-19T15:27:57.337Z</time></trkpt><trkpt lat="45.6423949" lon="9.3655428"><ele>216.0</ele><time>2026-04-19T15:27:58.345Z</time></trkpt><trkpt lat="45.6426333" lon="9.365628"><ele>216.0</ele><time>2026-04-19T15:27:59.337Z</time></trkpt><trkpt lat="45.6428711" lon="9.3657132"><ele>216.0</ele><time>2026-04-19T15:28:00.332Z</time></trkpt><trkpt lat="45.6431117" lon="9.3657981"><ele>216.0</ele><time>2026-04-19T15:28:01.332Z</time></trkpt><trkpt lat="45.6433393" lon="9.3658751"><ele>216.0</ele><time>2026-04-19T15:28:02.346Z</time></trkpt><trkpt lat="45.6435676" lon="9.3659544"><ele>217.5</ele><time>2026-04-19T15:28:03.351Z</time></trkpt><trkpt lat="45.6437971" lon="9.3660371"><ele>219.0</ele><time>2026-04-19T15:28:04.342Z</time></trkpt><trkpt lat="45.6440284" lon="9.3661128"><ele>219.0</ele><time>2026-04-19T15:28:05.356Z</time></trkpt><trkpt lat="45.6442594" lon="9.3661952"><ele>219.0</ele><time>2026-04-19T15:28:06.34Z</time></trkpt><trkpt lat="45.6444892" lon="9.3662787"><ele>216.5</ele><time>2026-04-19T15:28:07.334Z</time></trkpt><trkpt lat="45.6447218" lon="9.3663729"><ele>214.0</ele><time>2026-04-19T15:28:08.35Z</time></trkpt><trkpt lat="45.6449535" lon="9.3664591"><ele>214.0</ele><time>2026-04-19T15:28:09.342Z</time></trkpt><trkpt lat="45.64518" lon="9.3665458"><ele>214.0</ele><time>2026-04-19T15:28:10.334Z</time></trkpt><trkpt lat="45.6453999" lon="9.3666206"><ele>214.33333333333331</ele><time>2026-04-19T15:28:11.349Z</time></trkpt><trkpt lat="45.6456132" lon="9.3667015"><ele>214.66666666666669</ele><time>2026-04-19T15:28:12.346Z</time></trkpt><trkpt lat="45.6458181" lon="9.3667799"><ele>215.0</ele><time>2026-04-19T15:28:13.349Z</time></trkpt><trkpt lat="45.6460281" lon="9.3668556"><ele>216.66666666666669</ele><time>2026-04-19T15:28:14.338Z</time></trkpt><trkpt lat="45.6462321" lon="9.3669326"><ele>218.33333333333331</ele><time>2026-04-19T15:28:15.349Z</time></trkpt><trkpt lat="45.6464296" lon="9.3670006"><ele>220.0</ele><time>2026-04-19T15:28:16.344Z</time></trkpt><trkpt lat="45.646619" lon="9.3670615"><ele>220.0</ele><time>2026-04-19T15:28:17.3Z</time></trkpt><trkpt lat="45.6468049" lon="9.3671324"><ele>220.0</ele><time>2026-04-19T15:28:18.308Z</time></trkpt><trkpt lat="45.6469811" lon="9.3671982"><ele>220.0</ele><time>2026-04-19T15:28:19.309Z</time></trkpt><trkpt lat="45.6471635" lon="9.3672702"><ele>219.66666666666666</ele><time>2026-04-19T15:28:20.293Z</time></trkpt><trkpt lat="45.6473431" lon="9.367338"><ele>219.33333333333331</ele><time>2026-04-19T15:28:21.336Z</time></trkpt><trkpt lat="45.6475262" lon="9.3674021"><ele>219.0</ele><time>2026-04-19T15:28:22.34Z</time></trkpt><trkpt lat="45.6477021" lon="9.3674662"><ele>218.66666666666669</ele><time>2026-04-19T15:28:23.342Z</time></trkpt><trkpt lat="45.6478681" lon="9.3675224"><ele>218.33333333333334</ele><time>2026-04-19T15:28:24.349Z</time></trkpt><trkpt lat="45.6480352" lon="9.3675778"><ele>218.0</ele><time>2026-04-19T15:28:25.339Z</time></trkpt><trkpt lat="45.6482053" lon="9.3676382"><ele>218.0</ele><time>2026-04-19T15:28:26.337Z</time></trkpt><trkpt lat="45.6483764" lon="9.367706"><ele>218.0</ele><time>2026-04-19T15:28:27.345Z</time></trkpt><trkpt lat="45.6485478" lon="9.3677617"><ele>218.0</ele><time>2026-04-19T15:28:28.385Z</time></trkpt><trkpt lat="45.6487153" lon="9.3678193"><ele>217.33333333333334</ele><time>2026-04-19T15:28:29.342Z</time></trkpt><trkpt lat="45.648898" lon="9.3678825"><ele>216.66666666666669</ele><time>2026-04-19T15:28:30.337Z</time></trkpt><trkpt lat="45.6490844" lon="9.3679493"><ele>216.0</ele><time>2026-04-19T15:28:31.345Z</time></trkpt><trkpt lat="45.6492705" lon="9.3680203"><ele>216.33333333333331</ele><time>2026-04-19T15:28:32.336Z</time></trkpt><trkpt lat="45.6494567" lon="9.3680939"><ele>216.66666666666666</ele><time>2026-04-19T15:28:33.342Z</time></trkpt><trkpt lat="45.6496587" lon="9.3681686"><ele>217.0</ele><time>2026-04-19T15:28:34.351Z</time></trkpt><trkpt lat="45.6498621" lon="9.3682363"><ele>217.0</ele><time>2026-04-19T15:28:35.345Z</time></trkpt><trkpt lat="45.6500648" lon="9.3683102"><ele>217.0</ele><time>2026-04-19T15:28:36.35Z</time></trkpt><trkpt lat="45.6502731" lon="9.3683803"><ele>217.0</ele><time>2026-04-19T15:28:37.347Z</time></trkpt><trkpt lat="45.6504788" lon="9.3684644"><ele>218.0</ele><time>2026-04-19T15:28:38.312Z</time></trkpt><trkpt lat="45.6506793" lon="9.368537"><ele>219.0</ele><time>2026-04-19T15:28:39.342Z</time></trkpt><trkpt lat="45.6508842" lon="9.3686077"><ele>220.0</ele><time>2026-04-19T15:28:40.353Z</time></trkpt><trkpt lat="45.651086" lon="9.3686797"><ele>220.0</ele><time>2026-04-19T15:28:41.351Z</time></trkpt><trkpt lat="45.6512776" lon="9.3687449"><ele>220.0</ele><time>2026-04-19T15:28:42.348Z</time></trkpt><trkpt lat="45.6514679" lon="9.3688087"><ele>220.0</ele><time>2026-04-19T15:28:43.345Z</time></trkpt><trkpt lat="45.6516566" lon="9.368875"><ele>220.0</ele><time>2026-04-19T15:28:44.344Z</time></trkpt><trkpt lat="45.6518433" lon="9.3689495"><ele>220.0</ele><time>2026-04-19T15:28:45.345Z</time></trkpt><trkpt lat="45.6520272" lon="9.3690259"><ele>220.0</ele><time>2026-04-19T15:28:46.343Z</time></trkpt><trkpt lat="45.6522173" lon="9.3690941"><ele>220.0</ele><time>2026-04-19T15:28:47.344Z</time></trkpt><trkpt lat="45.6524046" lon="9.3691748"><ele>220.0</ele><time>2026-04-19T15:28:48.337Z</time></trkpt><trkpt lat="45.6525841" lon="9.3692541"><ele>220.0</ele><time>2026-04-19T15:28:49.341Z</time></trkpt><trkpt lat="45.652751" lon="9.369338"><ele>219.33333333333331</ele><time>2026-04-19T15:28:50.346Z</time></trkpt><trkpt lat="45.6529202" lon="9.3694154"><ele>218.66666666666669</ele><time>2026-04-19T15:28:51.338Z</time></trkpt><trkpt lat="45.6530805" lon="9.3695002"><ele>218.0</ele><time>2026-04-19T15:28:52.344Z</time></trkpt><trkpt lat="45.6532337" lon="9.3695707"><ele>218.0</ele><time>2026-04-19T15:28:53.323Z</time></trkpt><trkpt lat="45.6533859" lon="9.3696329"><ele>218.0</ele><time>2026-04-19T15:28:54.353Z</time></trkpt><trkpt lat="45.6535314" lon="9.3697034"><ele>218.0</ele><time>2026-04-19T15:28:55.334Z</time></trkpt><trkpt lat="45.6536691" lon="9.3697661"><ele>218.5</ele><time>2026-04-19T15:28:56.34Z</time></trkpt><trkpt lat="45.6538059" lon="9.3698291"><ele>219.0</ele><time>2026-04-19T15:28:57.337Z</time></trkpt><trkpt lat="45.6539491" lon="9.3698965"><ele>219.5</ele><time>2026-04-19T15:28:58.347Z</time></trkpt><trkpt lat="45.6540882" lon="9.3699695"><ele>220.0</ele><time>2026-04-19T15:28:59.341Z</time></trkpt><trkpt lat="45.6542235" lon="9.3700539"><ele>220.0</ele><time>2026-04-19T15:29:00.347Z</time></trkpt><trkpt lat="45.6543493" lon="9.3701539"><ele>220.0</ele><time>2026-04-19T15:29:01.35Z</time></trkpt><trkpt lat="45.6544542" lon="9.3702818"><ele>220.0</ele><time>2026-04-19T15:29:02.354Z</time></trkpt><trkpt lat="45.6545448" lon="9.3704308"><ele>220.0</ele><time>2026-04-19T15:29:03.351Z</time></trkpt><trkpt lat="45.6546288" lon="9.3706077"><ele>221.75</ele><time>2026-04-19T15:29:04.342Z</time></trkpt><trkpt lat="45.6547024" lon="9.3707889"><ele>223.5</ele><time>2026-04-19T15:29:05.336Z</time></trkpt><trkpt lat="45.6547554" lon="9.3709507"><ele>225.25</ele><time>2026-04-19T15:29:06.328Z</time></trkpt><trkpt lat="45.6548029" lon="9.3711015"><ele>227.0</ele><time>2026-04-19T15:29:07.337Z</time></trkpt><trkpt lat="45.654852" lon="9.371249"><ele>226.0</ele><time>2026-04-19T15:29:08.323Z</time></trkpt><trkpt lat="45.6549009" lon="9.3713928"><ele>225.0</ele><time>2026-04-19T15:29:09.343Z</time></trkpt><trkpt lat="45.6549484" lon="9.3715268"><ele>224.0</ele><time>2026-04-19T15:29:10.338Z</time></trkpt><trkpt lat="45.6549996" lon="9.371676"><ele>223.0</ele><time>2026-04-19T15:29:11.35Z</time></trkpt><trkpt lat="45.6550532" lon="9.3718243"><ele>223.0</ele><time>2026-04-19T15:29:12.341Z</time></trkpt><trkpt lat="45.6551149" lon="9.3719775"><ele>223.0</ele><time>2026-04-19T15:29:13.344Z</time></trkpt><trkpt lat="45.6551728" lon="9.3721415"><ele>223.0</ele><time>2026-04-19T15:29:14.334Z</time></trkpt><trkpt lat="45.655228" lon="9.3722912"><ele>223.0</ele><time>2026-04-19T15:29:15.342Z</time></trkpt><trkpt lat="45.6552744" lon="9.3724258"><ele>223.8</ele><time>2026-04-19T15:29:16.339Z</time></trkpt><trkpt lat="45.6553165" lon="9.3725588"><ele>224.60000000000002</ele><time>2026-04-19T15:29:17.331Z</time></trkpt><trkpt lat="45.6553643" lon="9.3726894"><ele>225.39999999999998</ele><time>2026-04-19T15:29:18.343Z</time></trkpt><trkpt lat="45.6554186" lon="9.3728151"><ele>226.2</ele><time>2026-04-19T15:29:19.335Z</time></trkpt><trkpt lat="45.6554705" lon="9.3729619"><ele>227.0</ele><time>2026-04-19T15:29:20.332Z</time></trkpt><trkpt lat="45.6555286" lon="9.3731105"><ele>227.0</ele><time>2026-04-19T15:29:21.343Z</time></trkpt><trkpt lat="45.6555943" lon="9.3732676"><ele>227.0</ele><time>2026-04-19T15:29:22.291Z</time></trkpt><trkpt lat="45.6556549" lon="9.3734338"><ele>227.0</ele><time>2026-04-19T15:29:23.327Z</time></trkpt><trkpt lat="45.6557211" lon="9.3735954"><ele>227.0</ele><time>2026-04-19T15:29:24.345Z</time></trkpt><trkpt lat="45.6557911" lon="9.3737647"><ele>226.25</ele><time>2026-04-19T15:29:25.338Z</time></trkpt><trkpt lat="45.6558581" lon="9.3739434"><ele>225.5</ele><time>2026-04-19T15:29:26.336Z</time></trkpt><trkpt lat="45.6559283" lon="9.3741165"><ele>224.75</ele><time>2026-04-19T15:29:27.341Z</time></trkpt><trkpt lat="45.6560024" lon="9.3743054"><ele>224.0</ele><time>2026-04-19T15:29:28.338Z</time></trkpt><trkpt lat="45.6560761" lon="9.3744935"><ele>226.33333333333334</ele><time>2026-04-19T15:29:29.345Z</time></trkpt><trkpt lat="45.6561531" lon="9.3746839"><ele>228.66666666666669</ele><time>2026-04-19T15:29:30.342Z</time></trkpt><trkpt lat="45.6562353" lon="9.3748788"><ele>231.0</ele><time>2026-04-19T15:29:31.344Z</time></trkpt><trkpt lat="45.6563218" lon="9.3750725"><ele>231.0</ele><time>2026-04-19T15:29:32.343Z</time></trkpt><trkpt lat="45.6564068" lon="9.3752693"><ele>231.0</ele><time>2026-04-19T15:29:33.337Z</time></trkpt><trkpt lat="45.6565012" lon="9.3754718"><ele>231.0</ele><time>2026-04-19T15:29:34.355Z</time></trkpt><trkpt lat="45.6565909" lon="9.3756725"><ele>229.33333333333331</ele><time>2026-04-19T15:29:35.321Z</time></trkpt><trkpt lat="45.656678" lon="9.3758747"><ele>227.66666666666666</ele><time>2026-04-19T15:29:36.311Z</time></trkpt><trkpt lat="45.6567753" lon="9.3760646"><ele>226.0</ele><time>2026-04-19T15:29:37.31Z</time></trkpt><trkpt lat="45.6568577" lon="9.3762568"><ele>226.0</ele><time>2026-04-19T15:29:38.317Z</time></trkpt><trkpt lat="45.6569348" lon="9.3764434"><ele>226.0</ele><time>2026-04-19T15:29:39.296Z</time></trkpt><trkpt lat="45.6570208" lon="9.376605"><ele>226.0</ele><time>2026-04-19T15:29:40.315Z</time></trkpt><trkpt lat="45.6571102" lon="9.376778"><ele>226.0</ele><time>2026-04-19T15:29:41.338Z</time></trkpt><trkpt lat="45.6572197" lon="9.3769466"><ele>226.0</ele><time>2026-04-19T15:29:42.347Z</time></trkpt><trkpt lat="45.6573442" lon="9.377094"><ele>226.0</ele><time>2026-04-19T15:29:43.304Z</time></trkpt><trkpt lat="45.657475" lon="9.377222"><ele>226.0</ele><time>2026-04-19T15:29:44.299Z</time></trkpt><trkpt lat="45.6576091" lon="9.3773561"><ele>226.33333333333331</ele><time>2026-04-19T15:29:45.297Z</time></trkpt><trkpt lat="45.6577475" lon="9.3775005"><ele>226.66666666666669</ele><time>2026-04-19T15:29:46.309Z</time></trkpt><trkpt lat="45.6578802" lon="9.377651"><ele>227.0</ele><time>2026-04-19T15:29:47.308Z</time></trkpt><trkpt lat="45.6579976" lon="9.377816"><ele>228.66666666666669</ele><time>2026-04-19T15:29:48.308Z</time></trkpt><trkpt lat="45.6581026" lon="9.3779941"><ele>230.33333333333331</ele><time>2026-04-19T15:29:49.317Z</time></trkpt><trkpt lat="45.6582154" lon="9.3781644"><ele>232.0</ele><time>2026-04-19T15:29:50.313Z</time></trkpt><trkpt lat="45.6583228" lon="9.3783378"><ele>232.0</ele><time>2026-04-19T15:29:51.304Z</time></trkpt><trkpt lat="45.6584368" lon="9.3785074"><ele>232.0</ele><time>2026-04-19T15:29:52.304Z</time></trkpt><trkpt lat="45.6585492" lon="9.3786696"><ele>232.0</ele><time>2026-04-19T15:29:53.292Z</time></trkpt><trkpt lat="45.6586647" lon="9.3788404"><ele>233.0</ele><time>2026-04-19T15:29:54.298Z</time></trkpt><trkpt lat="45.6587784" lon="9.3790077"><ele>234.0</ele><time>2026-04-19T15:29:55.303Z</time></trkpt><trkpt lat="45.6588945" lon="9.3791575"><ele>235.0</ele><time>2026-04-19T15:29:56.296Z</time></trkpt><trkpt lat="45.6589898" lon="9.3793065"><ele>235.0</ele><time>2026-04-19T15:29:57.288Z</time></trkpt><trkpt lat="45.6590923" lon="9.3794605"><ele>235.0</ele><time>2026-04-19T15:29:58.303Z</time></trkpt><trkpt lat="45.659189" lon="9.3796138"><ele>235.0</ele><time>2026-04-19T15:29:59.29Z</time></trkpt><trkpt lat="45.6592858" lon="9.3797722"><ele>235.0</ele><time>2026-04-19T15:30:00.303Z</time></trkpt><trkpt lat="45.6593845" lon="9.3799341"><ele>236.25</ele><time>2026-04-19T15:30:01.292Z</time></trkpt><trkpt lat="45.659482" lon="9.3800802"><ele>237.5</ele><time>2026-04-19T15:30:02.291Z</time></trkpt><trkpt lat="45.6595805" lon="9.3802258"><ele>238.75</ele><time>2026-04-19T15:30:03.301Z</time></trkpt><trkpt lat="45.6596837" lon="9.3803706"><ele>240.0</ele><time>2026-04-19T15:30:04.298Z</time></trkpt><trkpt lat="45.6597803" lon="9.3805147"><ele>238.25</ele><time>2026-04-19T15:30:05.32Z</time></trkpt><trkpt lat="45.6598856" lon="9.3806561"><ele>236.5</ele><time>2026-04-19T15:30:06.303Z</time></trkpt><trkpt lat="45.6599915" lon="9.3807913"><ele>234.75</ele><time>2026-04-19T15:30:07.325Z</time></trkpt><trkpt lat="45.660096" lon="9.3809392"><ele>233.0</ele><time>2026-04-19T15:30:08.315Z</time></trkpt><trkpt lat="45.660196" lon="9.3810718"><ele>233.75</ele><time>2026-04-19T15:30:09.301Z</time></trkpt><trkpt lat="45.6603009" lon="9.3811953"><ele>234.5</ele><time>2026-04-19T15:30:10.313Z</time></trkpt><trkpt lat="45.6603979" lon="9.3813196"><ele>235.25</ele><time>2026-04-19T15:30:11.299Z</time></trkpt><trkpt lat="45.6604885" lon="9.3814443"><ele>236.0</ele><time>2026-04-19T15:30:12.32Z</time></trkpt><trkpt lat="45.6605735" lon="9.3815618"><ele>236.0</ele><time>2026-04-19T15:30:13.315Z</time></trkpt><trkpt lat="45.6606643" lon="9.3816724"><ele>236.0</ele><time>2026-04-19T15:30:14.303Z</time></trkpt><trkpt lat="45.6607621" lon="9.3817926"><ele>236.0</ele><time>2026-04-19T15:30:15.307Z</time></trkpt><trkpt lat="45.6608623" lon="9.3819209"><ele>236.0</ele><time>2026-04-19T15:30:16.302Z</time></trkpt><trkpt lat="45.6609642" lon="9.3820422"><ele>236.0</ele><time>2026-04-19T15:30:17.317Z</time></trkpt><trkpt lat="45.6610629" lon="9.3821489"><ele>236.0</ele><time>2026-04-19T15:30:18.324Z</time></trkpt><trkpt lat="45.661175" lon="9.3822686"><ele>236.0</ele><time>2026-04-19T15:30:19.319Z</time></trkpt><trkpt lat="45.6612853" lon="9.3823898"><ele>236.0</ele><time>2026-04-19T15:30:20.314Z</time></trkpt><trkpt lat="45.6613923" lon="9.382504"><ele>234.25</ele><time>2026-04-19T15:30:21.321Z</time></trkpt><trkpt lat="45.6615016" lon="9.3826266"><ele>232.5</ele><time>2026-04-19T15:30:22.331Z</time></trkpt><trkpt lat="45.6616178" lon="9.3827421"><ele>230.75</ele><time>2026-04-19T15:30:23.318Z</time></trkpt><trkpt lat="45.6617267" lon="9.3828554"><ele>229.0</ele><time>2026-04-19T15:30:24.31Z</time></trkpt><trkpt lat="45.6618283" lon="9.3829519"><ele>229.0</ele><time>2026-04-19T15:30:25.307Z</time></trkpt><trkpt lat="45.6619275" lon="9.3830516"><ele>229.0</ele><time>2026-04-19T15:30:26.323Z</time></trkpt><trkpt lat="45.6620207" lon="9.383148"><ele>229.0</ele><time>2026-04-19T15:30:27.314Z</time></trkpt><trkpt lat="45.6621097" lon="9.383252"><ele>229.0</ele><time>2026-04-19T15:30:28.324Z</time></trkpt><trkpt lat="45.6622086" lon="9.3833527"><ele>229.0</ele><time>2026-04-19T15:30:29.312Z</time></trkpt><trkpt lat="45.6623047" lon="9.383445"><ele>229.0</ele><time>2026-04-19T15:30:30.308Z</time></trkpt><trkpt lat="45.6624081" lon="9.3835409"><ele>229.0</ele><time>2026-04-19T15:30:31.322Z</time></trkpt><trkpt lat="45.6625043" lon="9.3836388"><ele>229.0</ele><time>2026-04-19T15:30:32.333Z</time></trkpt><trkpt lat="45.6626022" lon="9.3837329"><ele>229.0</ele><time>2026-04-19T15:30:33.304Z</time></trkpt><trkpt lat="45.6627009" lon="9.3838227"><ele>229.0</ele><time>2026-04-19T15:30:34.331Z</time></trkpt><trkpt lat="45.6628016" lon="9.3839088"><ele>229.0</ele><time>2026-04-19T15:30:35.324Z</time></trkpt><trkpt lat="45.6628943" lon="9.3839964"><ele>229.0</ele><time>2026-04-19T15:30:36.335Z</time></trkpt><trkpt lat="45.6629853" lon="9.3840768"><ele>229.5</ele><time>2026-04-19T15:30:37.301Z</time></trkpt><trkpt lat="45.6630873" lon="9.3841576"><ele>230.0</ele><time>2026-04-19T15:30:38.301Z</time></trkpt><trkpt lat="45.6631831" lon="9.3842405"><ele>230.5</ele><time>2026-04-19T15:30:39.301Z</time></trkpt><trkpt lat="45.6632765" lon="9.3843302"><ele>231.0</ele><time>2026-04-19T15:30:40.306Z</time></trkpt><trkpt lat="45.6633766" lon="9.3844146"><ele>231.0</ele><time>2026-04-19T15:30:41.309Z</time></trkpt><trkpt lat="45.6634791" lon="9.3844983"><ele>231.00000000000003</ele><time>2026-04-19T15:30:42.307Z</time></trkpt><trkpt lat="45.6635783" lon="9.3845869"><ele>231.00000000000003</ele><time>2026-04-19T15:30:43.302Z</time></trkpt><trkpt lat="45.6636726" lon="9.3846659"><ele>231.0</ele><time>2026-04-19T15:30:44.315Z</time></trkpt><trkpt lat="45.6637644" lon="9.3847332"><ele>231.0</ele><time>2026-04-19T15:30:45.301Z</time></trkpt><trkpt lat="45.6638412" lon="9.3847918"><ele>230.8</ele><time>2026-04-19T15:30:46.312Z</time></trkpt><trkpt lat="45.6639188" lon="9.3848568"><ele>230.60000000000002</ele><time>2026-04-19T15:30:47.317Z</time></trkpt><trkpt lat="45.664006" lon="9.384927"><ele>230.4</ele><time>2026-04-19T15:30:48.309Z</time></trkpt><trkpt lat="45.6640994" lon="9.385"><ele>230.2</ele><time>2026-04-19T15:30:49.316Z</time></trkpt><trkpt lat="45.6642011" lon="9.3850876"><ele>230.0</ele><time>2026-04-19T15:30:50.333Z</time></trkpt><trkpt lat="45.6643079" lon="9.3851755"><ele>230.0</ele><time>2026-04-19T15:30:51.323Z</time></trkpt><trkpt lat="45.6644324" lon="9.3852724"><ele>230.0</ele><time>2026-04-19T15:30:52.326Z</time></trkpt><trkpt lat="45.6645577" lon="9.3853831"><ele>230.0</ele><time>2026-04-19T15:30:53.327Z</time></trkpt><trkpt lat="45.6646867" lon="9.3854941"><ele>230.0</ele><time>2026-04-19T15:30:54.338Z</time></trkpt><trkpt lat="45.6648264" lon="9.3855968"><ele>230.25</ele><time>2026-04-19T15:30:55.303Z</time></trkpt><trkpt lat="45.664944" lon="9.3856988"><ele>230.5</ele><time>2026-04-19T15:30:56.322Z</time></trkpt><trkpt lat="45.6650683" lon="9.3858035"><ele>230.75</ele><time>2026-04-19T15:30:57.307Z</time></trkpt><trkpt lat="45.6651976" lon="9.3859053"><ele>231.0</ele><time>2026-04-19T15:30:58.335Z</time></trkpt><trkpt lat="45.6653299" lon="9.3860058"><ele>231.75</ele><time>2026-04-19T15:30:59.336Z</time></trkpt><trkpt lat="45.6654613" lon="9.3861152"><ele>232.5</ele><time>2026-04-19T15:31:00.307Z</time></trkpt><trkpt lat="45.6655801" lon="9.3862146"><ele>233.25</ele><time>2026-04-19T15:31:01.309Z</time></trkpt><trkpt lat="45.6657038" lon="9.3863177"><ele>234.0</ele><time>2026-04-19T15:31:02.317Z</time></trkpt><trkpt lat="45.6658334" lon="9.3864287"><ele>233.33333333333331</ele><time>2026-04-19T15:31:03.317Z</time></trkpt><trkpt lat="45.6659641" lon="9.3865313"><ele>232.66666666666666</ele><time>2026-04-19T15:31:04.327Z</time></trkpt><trkpt lat="45.6661041" lon="9.3866356"><ele>232.0</ele><time>2026-04-19T15:31:05.326Z</time></trkpt><trkpt lat="45.6662396" lon="9.3867485"><ele>232.0</ele><time>2026-04-19T15:31:06.348Z</time></trkpt><trkpt lat="45.6663734" lon="9.3868552"><ele>232.0</ele><time>2026-04-19T15:31:07.325Z</time></trkpt><trkpt lat="45.6665121" lon="9.3869688"><ele>232.0</ele><time>2026-04-19T15:31:08.333Z</time></trkpt><trkpt lat="45.6666542" lon="9.3870768"><ele>232.66666666666666</ele><time>2026-04-19T15:31:09.332Z</time></trkpt><trkpt lat="45.6667878" lon="9.3871892"><ele>233.33333333333331</ele><time>2026-04-19T15:31:10.323Z</time></trkpt><trkpt lat="45.6669268" lon="9.3872951"><ele>234.0</ele><time>2026-04-19T15:31:11.325Z</time></trkpt><trkpt lat="45.6670616" lon="9.3874146"><ele>234.0</ele><time>2026-04-19T15:31:12.325Z</time></trkpt><trkpt lat="45.6672106" lon="9.3875262"><ele>234.0</ele><time>2026-04-19T15:31:13.339Z</time></trkpt><trkpt lat="45.6673538" lon="9.3876405"><ele>234.0</ele><time>2026-04-19T15:31:14.298Z</time></trkpt><trkpt lat="45.6675006" lon="9.3877563"><ele>234.0</ele><time>2026-04-19T15:31:15.302Z</time></trkpt><trkpt lat="45.6676426" lon="9.3878726"><ele>234.0</ele><time>2026-04-19T15:31:16.326Z</time></trkpt><trkpt lat="45.6677888" lon="9.387997"><ele>234.0</ele><time>2026-04-19T15:31:17.334Z</time></trkpt><trkpt lat="45.6679337" lon="9.3881127"><ele>234.66666666666669</ele><time>2026-04-19T15:31:18.32Z</time></trkpt><trkpt lat="45.6680865" lon="9.3882311"><ele>235.33333333333334</ele><time>2026-04-19T15:31:19.331Z</time></trkpt><trkpt lat="45.6682438" lon="9.3883457"><ele>236.0</ele><time>2026-04-19T15:31:20.329Z</time></trkpt><trkpt lat="45.6683929" lon="9.3884661"><ele>236.0</ele><time>2026-04-19T15:31:21.336Z</time></trkpt><trkpt lat="45.6685482" lon="9.3885992"><ele>236.0</ele><time>2026-04-19T15:31:22.339Z</time></trkpt><trkpt lat="45.6687033" lon="9.3887177"><ele>236.0</ele><time>2026-04-19T15:31:23.324Z</time></trkpt><trkpt lat="45.668848" lon="9.388839"><ele>236.66666666666669</ele><time>2026-04-19T15:31:24.327Z</time></trkpt><trkpt lat="45.6689889" lon="9.3889556"><ele>237.33333333333331</ele><time>2026-04-19T15:31:25.324Z</time></trkpt><trkpt lat="45.669146" lon="9.3890737"><ele>238.0</ele><time>2026-04-19T15:31:26.295Z</time></trkpt><trkpt lat="45.6692893" lon="9.3891898"><ele>238.0</ele><time>2026-04-19T15:31:27.33Z</time></trkpt><trkpt lat="45.6694324" lon="9.3892974"><ele>238.0</ele><time>2026-04-19T15:31:28.336Z</time></trkpt><trkpt lat="45.6695798" lon="9.3893938"><ele>238.0</ele><time>2026-04-19T15:31:29.342Z</time></trkpt><trkpt lat="45.6697224" lon="9.3894933"><ele>238.33333333333331</ele><time>2026-04-19T15:31:30.34Z</time></trkpt><trkpt lat="45.6698678" lon="9.3895941"><ele>238.66666666666669</ele><time>2026-04-19T15:31:31.35Z</time></trkpt><trkpt lat="45.6700159" lon="9.3896934"><ele>239.0</ele><time>2026-04-19T15:31:32.354Z</time></trkpt><trkpt lat="45.6701554" lon="9.3897824"><ele>239.25</ele><time>2026-04-19T15:31:33.343Z</time></trkpt><trkpt lat="45.670285" lon="9.3898708"><ele>239.5</ele><time>2026-04-19T15:31:34.345Z</time></trkpt><trkpt lat="45.6704168" lon="9.3899503"><ele>239.75</ele><time>2026-04-19T15:31:35.337Z</time></trkpt><trkpt lat="45.6705463" lon="9.3900252"><ele>240.0</ele><time>2026-04-19T15:31:36.333Z</time></trkpt><trkpt lat="45.6706748" lon="9.3901069"><ele>240.0</ele><time>2026-04-19T15:31:37.347Z</time></trkpt><trkpt lat="45.6708102" lon="9.3901897"><ele>240.0</ele><time>2026-04-19T15:31:38.356Z</time></trkpt><trkpt lat="45.670947" lon="9.3902894"><ele>240.0</ele><time>2026-04-19T15:31:39.348Z</time></trkpt><trkpt lat="45.6710875" lon="9.3903898"><ele>240.0</ele><time>2026-04-19T15:31:40.36Z</time></trkpt><trkpt lat="45.6712218" lon="9.390488"><ele>240.0</ele><time>2026-04-19T15:31:41.345Z</time></trkpt><trkpt lat="45.671351" lon="9.3905854"><ele>240.0</ele><time>2026-04-19T15:31:42.337Z</time></trkpt><trkpt lat="45.6714694" lon="9.3906933"><ele>240.0</ele><time>2026-04-19T15:31:43.338Z</time></trkpt><trkpt lat="45.671578" lon="9.3908132"><ele>240.0</ele><time>2026-04-19T15:31:44.329Z</time></trkpt><trkpt lat="45.6716862" lon="9.3909349"><ele>240.0</ele><time>2026-04-19T15:31:45.349Z</time></trkpt><trkpt lat="45.6717882" lon="9.3910539"><ele>240.0</ele><time>2026-04-19T15:31:46.307Z</time></trkpt><trkpt lat="45.6718937" lon="9.3911774"><ele>240.0</ele><time>2026-04-19T15:31:47.356Z</time></trkpt><trkpt lat="45.6719938" lon="9.3912955"><ele>240.25</ele><time>2026-04-19T15:31:48.349Z</time></trkpt><trkpt lat="45.6720939" lon="9.3914192"><ele>240.5</ele><time>2026-04-19T15:31:49.35Z</time></trkpt><trkpt lat="45.6721933" lon="9.3915465"><ele>240.75</ele><time>2026-04-19T15:31:50.349Z</time></trkpt><trkpt lat="45.6722919" lon="9.391657"><ele>241.0</ele><time>2026-04-19T15:31:51.353Z</time></trkpt><trkpt lat="45.6723842" lon="9.3917726"><ele>241.0</ele><time>2026-04-19T15:31:52.347Z</time></trkpt><trkpt lat="45.6724775" lon="9.3918946"><ele>241.0</ele><time>2026-04-19T15:31:53.32Z</time></trkpt><trkpt lat="45.6725774" lon="9.3920191"><ele>241.0</ele><time>2026-04-19T15:31:54.343Z</time></trkpt><trkpt lat="45.6726828" lon="9.3921419"><ele>241.0</ele><time>2026-04-19T15:31:55.346Z</time></trkpt><trkpt lat="45.6727852" lon="9.3922724"><ele>241.75</ele><time>2026-04-19T15:31:56.349Z</time></trkpt><trkpt lat="45.6728901" lon="9.3924182"><ele>242.5</ele><time>2026-04-19T15:31:57.342Z</time></trkpt><trkpt lat="45.6729973" lon="9.3925621"><ele>243.25</ele><time>2026-04-19T15:31:58.339Z</time></trkpt><trkpt lat="45.6731019" lon="9.392709"><ele>244.0</ele><time>2026-04-19T15:31:59.328Z</time></trkpt><trkpt lat="45.6731989" lon="9.3928703"><ele>244.5</ele><time>2026-04-19T15:32:00.312Z</time></trkpt><trkpt lat="45.6732954" lon="9.3930158"><ele>245.0</ele><time>2026-04-19T15:32:01.339Z</time></trkpt><trkpt lat="45.6733938" lon="9.393174"><ele>245.5</ele><time>2026-04-19T15:32:02.354Z</time></trkpt><trkpt lat="45.6734788" lon="9.393317"><ele>246.0</ele><time>2026-04-19T15:32:03.329Z</time></trkpt><trkpt lat="45.6735656" lon="9.3934592"><ele>245.75</ele><time>2026-04-19T15:32:04.333Z</time></trkpt><trkpt lat="45.6736515" lon="9.3935901"><ele>245.5</ele><time>2026-04-19T15:32:05.357Z</time></trkpt><trkpt lat="45.67373" lon="9.3937196"><ele>245.25</ele><time>2026-04-19T15:32:06.35Z</time></trkpt><trkpt lat="45.6738138" lon="9.393841"><ele>245.0</ele><time>2026-04-19T15:32:07.342Z</time></trkpt><trkpt lat="45.6738995" lon="9.3939523"><ele>245.0</ele><time>2026-04-19T15:32:08.339Z</time></trkpt><trkpt lat="45.6739874" lon="9.3940628"><ele>245.0</ele><time>2026-04-19T15:32:09.334Z</time></trkpt><trkpt lat="45.6740744" lon="9.3941672"><ele>245.0</ele><time>2026-04-19T15:32:10.339Z</time></trkpt><trkpt lat="45.6741655" lon="9.39426"><ele>245.0</ele><time>2026-04-19T15:32:11.349Z</time></trkpt><trkpt lat="45.6742532" lon="9.3943559"><ele>245.0</ele><time>2026-04-19T15:32:12.345Z</time></trkpt><trkpt lat="45.674345" lon="9.3944564"><ele>245.0</ele><time>2026-04-19T15:32:13.356Z</time></trkpt><trkpt lat="45.6744429" lon="9.3945578"><ele>245.0</ele><time>2026-04-19T15:32:14.356Z</time></trkpt><trkpt lat="45.6745366" lon="9.3946549"><ele>245.0</ele><time>2026-04-19T15:32:15.341Z</time></trkpt><trkpt lat="45.6746273" lon="9.3947471"><ele>244.75</ele><time>2026-04-19T15:32:16.342Z</time></trkpt><trkpt lat="45.6747269" lon="9.3948426"><ele>244.5</ele><time>2026-04-19T15:32:17.346Z</time></trkpt><trkpt lat="45.6748357" lon="9.3949324"><ele>244.25</ele><time>2026-04-19T15:32:18.348Z</time></trkpt><trkpt lat="45.6749498" lon="9.39503"><ele>244.0</ele><time>2026-04-19T15:32:19.363Z</time></trkpt><trkpt lat="45.6750638" lon="9.3951271"><ele>244.0</ele><time>2026-04-19T15:32:20.32Z</time></trkpt><trkpt lat="45.6751806" lon="9.3952249"><ele>244.0</ele><time>2026-04-19T15:32:21.339Z</time></trkpt><trkpt lat="45.6753039" lon="9.3953156"><ele>244.0</ele><time>2026-04-19T15:32:22.35Z</time></trkpt><trkpt lat="45.6754291" lon="9.3954037"><ele>244.0</ele><time>2026-04-19T15:32:23.31Z</time></trkpt><trkpt lat="45.6755554" lon="9.3954884"><ele>244.75</ele><time>2026-04-19T15:32:24.35Z</time></trkpt><trkpt lat="45.6756783" lon="9.3955602"><ele>245.5</ele><time>2026-04-19T15:32:25.345Z</time></trkpt><trkpt lat="45.6757953" lon="9.3956323"><ele>246.25</ele><time>2026-04-19T15:32:26.332Z</time></trkpt><trkpt lat="45.6759168" lon="9.3956898"><ele>247.0</ele><time>2026-04-19T15:32:27.323Z</time></trkpt><trkpt lat="45.6760339" lon="9.3957456"><ele>247.5</ele><time>2026-04-19T15:32:28.337Z</time></trkpt><trkpt lat="45.676147" lon="9.3957951"><ele>248.0</ele><time>2026-04-19T15:32:29.332Z</time></trkpt><trkpt lat="45.6762524" lon="9.3958334"><ele>248.5</ele><time>2026-04-19T15:32:30.333Z</time></trkpt><trkpt lat="45.6763641" lon="9.3958834"><ele>249.0</ele><time>2026-04-19T15:32:31.339Z</time></trkpt><trkpt lat="45.6764774" lon="9.3959256"><ele>249.0</ele><time>2026-04-19T15:32:32.356Z</time></trkpt><trkpt lat="45.6765902" lon="9.3959591"><ele>249.0</ele><time>2026-04-19T15:32:33.349Z</time></trkpt><trkpt lat="45.6767032" lon="9.3959985"><ele>249.0</ele><time>2026-04-19T15:32:34.344Z</time></trkpt><trkpt lat="45.6768159" lon="9.3960319"><ele>249.0</ele><time>2026-04-19T15:32:35.346Z</time></trkpt><trkpt lat="45.6769285" lon="9.3960706"><ele>249.0</ele><time>2026-04-19T15:32:36.343Z</time></trkpt><trkpt lat="45.677041" lon="9.3961101"><ele>249.0</ele><time>2026-04-19T15:32:37.353Z</time></trkpt><trkpt lat="45.67715" lon="9.3961383"><ele>249.0</ele><time>2026-04-19T15:32:38.351Z</time></trkpt><trkpt lat="45.6772594" lon="9.396172"><ele>249.0</ele><time>2026-04-19T15:32:39.358Z</time></trkpt><trkpt lat="45.6773683" lon="9.3962088"><ele>249.0</ele><time>2026-04-19T15:32:40.345Z</time></trkpt><trkpt lat="45.6774706" lon="9.3962443"><ele>248.99999999999997</ele><time>2026-04-19T15:32:41.33Z</time></trkpt><trkpt lat="45.6775795" lon="9.3962822"><ele>248.99999999999997</ele><time>2026-04-19T15:32:42.339Z</time></trkpt><trkpt lat="45.6776894" lon="9.3963261"><ele>249.0</ele><time>2026-04-19T15:32:43.355Z</time></trkpt><trkpt lat="45.6777951" lon="9.3963746"><ele>249.0</ele><time>2026-04-19T15:32:44.331Z</time></trkpt><trkpt lat="45.6778997" lon="9.3964093"><ele>249.0</ele><time>2026-04-19T15:32:45.345Z</time></trkpt><trkpt lat="45.6779835" lon="9.3964428"><ele>249.0</ele><time>2026-04-19T15:32:46.352Z</time></trkpt><trkpt lat="45.6780609" lon="9.3964608"><ele>249.0</ele><time>2026-04-19T15:32:47.363Z</time></trkpt><trkpt lat="45.6781263" lon="9.3964916"><ele>249.0</ele><time>2026-04-19T15:32:48.348Z</time></trkpt><trkpt lat="45.67819" lon="9.3965196"><ele>249.0</ele><time>2026-04-19T15:32:49.344Z</time></trkpt><trkpt lat="45.678309" lon="9.3965557"><ele>249.0</ele><time>2026-04-19T15:32:51.347Z</time></trkpt><trkpt lat="45.6784193" lon="9.3965958"><ele>249.0</ele><time>2026-04-19T15:32:53.35Z</time></trkpt><trkpt lat="45.6784838" lon="9.3966143"><ele>248.99999999999997</ele><time>2026-04-19T15:32:54.362Z</time></trkpt><trkpt lat="45.6785941" lon="9.3966632"><ele>248.99999999999997</ele><time>2026-04-19T15:32:56.346Z</time></trkpt><trkpt lat="45.6786767" lon="9.3966891"><ele>249.0</ele><time>2026-04-19T15:32:58.345Z</time></trkpt><trkpt lat="45.6787709" lon="9.3967229"><ele>249.0</ele><time>2026-04-19T15:33:01.337Z</time></trkpt><trkpt lat="45.6788819" lon="9.3967595"><ele>249.16666666666666</ele><time>2026-04-19T15:33:03.36Z</time></trkpt><trkpt lat="45.6790038" lon="9.3968092"><ele>249.33333333333331</ele><time>2026-04-19T15:33:05.351Z</time></trkpt><trkpt lat="45.6790718" lon="9.3968353"><ele>249.5</ele><time>2026-04-19T15:33:06.344Z</time></trkpt><trkpt lat="45.6791306" lon="9.3968743"><ele>249.66666666666666</ele><time>2026-04-19T15:33:07.355Z</time></trkpt><trkpt lat="45.6791912" lon="9.3969122"><ele>249.83333333333331</ele><time>2026-04-19T15:33:11.33Z</time></trkpt><trkpt lat="45.6792575" lon="9.3969676"><ele>250.0</ele><time>2026-04-19T15:33:15.344Z</time></trkpt><trkpt lat="45.67932" lon="9.3970244"><ele>250.0</ele><time>2026-04-19T15:33:17.349Z</time></trkpt><trkpt lat="45.6794231" lon="9.3971126"><ele>250.0</ele><time>2026-04-19T15:33:19.328Z</time></trkpt><trkpt lat="45.6794932" lon="9.3971312"><ele>250.0</ele><time>2026-04-19T15:33:20.345Z</time></trkpt><trkpt lat="45.6796252" lon="9.3970967"><ele>250.0</ele><time>2026-04-19T15:33:22.348Z</time></trkpt><trkpt lat="45.6796921" lon="9.3970786"><ele>250.0</ele><time>2026-04-19T15:33:23.349Z</time></trkpt><trkpt lat="45.679765" lon="9.3970749"><ele>249.99999999999997</ele><time>2026-04-19T15:33:24.342Z</time></trkpt><trkpt lat="45.679838" lon="9.3970807"><ele>250.0</ele><time>2026-04-19T15:33:25.364Z</time></trkpt><trkpt lat="45.6799025" lon="9.3971031"><ele>250.0</ele><time>2026-04-19T15:33:26.341Z</time></trkpt><trkpt lat="45.6799733" lon="9.3971496"><ele>250.0</ele><time>2026-04-19T15:33:27.322Z</time></trkpt><trkpt lat="45.6800514" lon="9.397202"><ele>249.99999999999997</ele><time>2026-04-19T15:33:28.337Z</time></trkpt><trkpt lat="45.6801488" lon="9.3972431"><ele>250.0</ele><time>2026-04-19T15:33:29.343Z</time></trkpt><trkpt lat="45.6802344" lon="9.3972795"><ele>250.8</ele><time>2026-04-19T15:33:30.344Z</time></trkpt><trkpt lat="45.6803256" lon="9.3973209"><ele>251.6</ele><time>2026-04-19T15:33:31.34Z</time></trkpt><trkpt lat="45.6804148" lon="9.3973535"><ele>252.39999999999998</ele><time>2026-04-19T15:33:32.347Z</time></trkpt><trkpt lat="45.6805168" lon="9.3973883"><ele>253.2</ele><time>2026-04-19T15:33:33.342Z</time></trkpt><trkpt lat="45.6806244" lon="9.3974297"><ele>254.0</ele><time>2026-04-19T15:33:34.342Z</time></trkpt><trkpt lat="45.6807345" lon="9.3974701"><ele>254.0</ele><time>2026-04-19T15:33:35.355Z</time></trkpt><trkpt lat="45.6808358" lon="9.3974973"><ele>253.99999999999997</ele><time>2026-04-19T15:33:36.333Z</time></trkpt><trkpt lat="45.680936" lon="9.3975276"><ele>253.99999999999997</ele><time>2026-04-19T15:33:37.334Z</time></trkpt><trkpt lat="45.6810503" lon="9.3975662"><ele>254.0</ele><time>2026-04-19T15:33:38.338Z</time></trkpt><trkpt lat="45.6811721" lon="9.3976031"><ele>254.0</ele><time>2026-04-19T15:33:39.347Z</time></trkpt><trkpt lat="45.6812919" lon="9.3976479"><ele>254.25</ele><time>2026-04-19T15:33:40.345Z</time></trkpt><trkpt lat="45.6814107" lon="9.3976905"><ele>254.5</ele><time>2026-04-19T15:33:41.353Z</time></trkpt><trkpt lat="45.6815325" lon="9.3977329"><ele>254.75</ele><time>2026-04-19T15:33:42.344Z</time></trkpt><trkpt lat="45.6816532" lon="9.3977778"><ele>255.0</ele><time>2026-04-19T15:33:43.347Z</time></trkpt><trkpt lat="45.6817712" lon="9.3978218"><ele>255.0</ele><time>2026-04-19T15:33:44.365Z</time></trkpt><trkpt lat="45.6818897" lon="9.3978591"><ele>255.0</ele><time>2026-04-19T15:33:45.347Z</time></trkpt><trkpt lat="45.6820049" lon="9.3978962"><ele>255.0</ele><time>2026-04-19T15:33:46.357Z</time></trkpt><trkpt lat="45.6821213" lon="9.3979359"><ele>255.0</ele><time>2026-04-19T15:33:47.342Z</time></trkpt><trkpt lat="45.682226" lon="9.3979822"><ele>255.16666666666666</ele><time>2026-04-19T15:33:48.337Z</time></trkpt><trkpt lat="45.6823304" lon="9.3980184"><ele>255.33333333333331</ele><time>2026-04-19T15:33:49.358Z</time></trkpt><trkpt lat="45.6824238" lon="9.3980575"><ele>255.5</ele><time>2026-04-19T15:33:50.345Z</time></trkpt><trkpt lat="45.6825033" lon="9.3980967"><ele>255.66666666666666</ele><time>2026-04-19T15:33:51.352Z</time></trkpt><trkpt lat="45.6825558" lon="9.398151"><ele>255.83333333333331</ele><time>2026-04-19T15:33:52.34Z</time></trkpt><trkpt lat="45.6826165" lon="9.3982235"><ele>256.0</ele><time>2026-04-19T15:33:53.366Z</time></trkpt><trkpt lat="45.6826709" lon="9.3982912"><ele>255.99999999999997</ele><time>2026-04-19T15:33:54.332Z</time></trkpt><trkpt lat="45.6827393" lon="9.3983425"><ele>256.0</ele><time>2026-04-19T15:33:55.359Z</time></trkpt><trkpt lat="45.682803" lon="9.3983627"><ele>256.0</ele><time>2026-04-19T15:33:56.342Z</time></trkpt><trkpt lat="45.6828664" lon="9.3983533"><ele>256.0</ele><time>2026-04-19T15:33:57.342Z</time></trkpt><trkpt lat="45.6829647" lon="9.3983033"><ele>255.99999999999997</ele><time>2026-04-19T15:33:58.361Z</time></trkpt><trkpt lat="45.6830496" lon="9.3982891"><ele>256.0</ele><time>2026-04-19T15:33:59.342Z</time></trkpt><trkpt lat="45.6831371" lon="9.3982961"><ele>255.25</ele><time>2026-04-19T15:34:00.349Z</time></trkpt><trkpt lat="45.6832405" lon="9.3983171"><ele>254.5</ele><time>2026-04-19T15:34:01.353Z</time></trkpt><trkpt lat="45.683352" lon="9.3983399"><ele>253.75</ele><time>2026-04-19T15:34:02.341Z</time></trkpt><trkpt lat="45.6834662" lon="9.3983824"><ele>253.0</ele><time>2026-04-19T15:34:03.352Z</time></trkpt><trkpt lat="45.6835886" lon="9.3984295"><ele>253.0</ele><time>2026-04-19T15:34:04.348Z</time></trkpt><trkpt lat="45.6836995" lon="9.398473"><ele>253.0</ele><time>2026-04-19T15:34:05.345Z</time></trkpt><trkpt lat="45.6838113" lon="9.3985253"><ele>253.0</ele><time>2026-04-19T15:34:06.346Z</time></trkpt><trkpt lat="45.683932" lon="9.3985761"><ele>253.0</ele><time>2026-04-19T15:34:07.336Z</time></trkpt><trkpt lat="45.6840663" lon="9.3986185"><ele>253.0</ele><time>2026-04-19T15:34:08.323Z</time></trkpt><trkpt lat="45.6841997" lon="9.3986641"><ele>253.0</ele><time>2026-04-19T15:34:09.338Z</time></trkpt><trkpt lat="45.6843301" lon="9.3987111"><ele>253.0</ele><time>2026-04-19T15:34:10.346Z</time></trkpt><trkpt lat="45.6844678" lon="9.3987615"><ele>253.0</ele><time>2026-04-19T15:34:11.343Z</time></trkpt><trkpt lat="45.6846066" lon="9.3988094"><ele>253.75</ele><time>2026-04-19T15:34:12.346Z</time></trkpt><trkpt lat="45.6847453" lon="9.3988628"><ele>254.5</ele><time>2026-04-19T15:34:13.353Z</time></trkpt><trkpt lat="45.6848877" lon="9.3989228"><ele>255.25</ele><time>2026-04-19T15:34:14.347Z</time></trkpt><trkpt lat="45.6850294" lon="9.398977"><ele>256.0</ele><time>2026-04-19T15:34:15.356Z</time></trkpt><trkpt lat="45.6851734" lon="9.3990193"><ele>255.25</ele><time>2026-04-19T15:34:16.337Z</time></trkpt><trkpt lat="45.6853149" lon="9.3990761"><ele>254.5</ele><time>2026-04-19T15:34:17.346Z</time></trkpt><trkpt lat="45.6854546" lon="9.3991316"><ele>253.75</ele><time>2026-04-19T15:34:18.363Z</time></trkpt><trkpt lat="45.6855902" lon="9.3991813"><ele>253.0</ele><time>2026-04-19T15:34:19.349Z</time></trkpt><trkpt lat="45.6857163" lon="9.399234"><ele>253.0</ele><time>2026-04-19T15:34:20.349Z</time></trkpt><trkpt lat="45.6858484" lon="9.3992779"><ele>253.0</ele><time>2026-04-19T15:34:21.321Z</time></trkpt><trkpt lat="45.6859807" lon="9.3993266"><ele>253.0</ele><time>2026-04-19T15:34:22.358Z</time></trkpt><trkpt lat="45.6861128" lon="9.3993685"><ele>253.0</ele><time>2026-04-19T15:34:23.351Z</time></trkpt><trkpt lat="45.6862507" lon="9.3994261"><ele>254.0</ele><time>2026-04-19T15:34:24.355Z</time></trkpt><trkpt lat="45.6863957" lon="9.3994727"><ele>255.0</ele><time>2026-04-19T15:34:25.357Z</time></trkpt><trkpt lat="45.6865333" lon="9.399522"><ele>256.0</ele><time>2026-04-19T15:34:26.339Z</time></trkpt><trkpt lat="45.6866717" lon="9.3995748"><ele>257.0</ele><time>2026-04-19T15:34:27.317Z</time></trkpt><trkpt lat="45.686815" lon="9.3996277"><ele>257.25</ele><time>2026-04-19T15:34:28.355Z</time></trkpt><trkpt lat="45.6869557" lon="9.3996787"><ele>257.5</ele><time>2026-04-19T15:34:29.347Z</time></trkpt><trkpt lat="45.6870915" lon="9.3997259"><ele>257.75</ele><time>2026-04-19T15:34:30.34Z</time></trkpt><trkpt lat="45.6872273" lon="9.399771"><ele>258.0</ele><time>2026-04-19T15:34:31.334Z</time></trkpt><trkpt lat="45.6873589" lon="9.3998117"><ele>258.0</ele><time>2026-04-19T15:34:32.333Z</time></trkpt><trkpt lat="45.6874928" lon="9.3998672"><ele>258.0</ele><time>2026-04-19T15:34:33.336Z</time></trkpt><trkpt lat="45.6876194" lon="9.3999152"><ele>258.0</ele><time>2026-04-19T15:34:34.322Z</time></trkpt><trkpt lat="45.687738" lon="9.3999727"><ele>258.0</ele><time>2026-04-19T15:34:35.347Z</time></trkpt><trkpt lat="45.6878458" lon="9.400021"><ele>258.8</ele><time>2026-04-19T15:34:36.345Z</time></trkpt><trkpt lat="45.6879559" lon="9.4000759"><ele>259.6</ele><time>2026-04-19T15:34:37.339Z</time></trkpt><trkpt lat="45.6880625" lon="9.4001382"><ele>260.4</ele><time>2026-04-19T15:34:38.363Z</time></trkpt><trkpt lat="45.6881599" lon="9.4001805"><ele>261.2</ele><time>2026-04-19T15:34:39.361Z</time></trkpt><trkpt lat="45.688234" lon="9.4002108"><ele>262.0</ele><time>2026-04-19T15:34:40.357Z</time></trkpt><trkpt lat="45.6882965" lon="9.4002572"><ele>262.0</ele><time>2026-04-19T15:34:41.364Z</time></trkpt><trkpt lat="45.6883574" lon="9.4003292"><ele>262.0</ele><time>2026-04-19T15:34:42.346Z</time></trkpt><trkpt lat="45.6884235" lon="9.4004136"><ele>262.0</ele><time>2026-04-19T15:34:43.352Z</time></trkpt><trkpt lat="45.6884853" lon="9.4004936"><ele>262.0</ele><time>2026-04-19T15:34:44.354Z</time></trkpt><trkpt lat="45.6885675" lon="9.4005441"><ele>262.0</ele><time>2026-04-19T15:34:45.354Z</time></trkpt><trkpt lat="45.6886562" lon="9.4005437"><ele>262.0</ele><time>2026-04-19T15:34:46.354Z</time></trkpt><trkpt lat="45.6887397" lon="9.400517"><ele>262.2</ele><time>2026-04-19T15:34:47.355Z</time></trkpt><trkpt lat="45.6888251" lon="9.4004951"><ele>262.4</ele><time>2026-04-19T15:34:48.351Z</time></trkpt><trkpt lat="45.6889208" lon="9.4004938"><ele>262.6</ele><time>2026-04-19T15:34:49.339Z</time></trkpt><trkpt lat="45.6890244" lon="9.4005178"><ele>262.8</ele><time>2026-04-19T15:34:50.353Z</time></trkpt><trkpt lat="45.6891351" lon="9.4005435"><ele>263.0</ele><time>2026-04-19T15:34:51.349Z</time></trkpt><trkpt lat="45.6892384" lon="9.4005751"><ele>262.75</ele><time>2026-04-19T15:34:52.347Z</time></trkpt><trkpt lat="45.6893527" lon="9.4006134"><ele>262.5</ele><time>2026-04-19T15:34:53.332Z</time></trkpt><trkpt lat="45.6894866" lon="9.4006434"><ele>262.25</ele><time>2026-04-19T15:34:54.347Z</time></trkpt><trkpt lat="45.6896143" lon="9.4006911"><ele>262.0</ele><time>2026-04-19T15:34:55.345Z</time></trkpt><trkpt lat="45.6897429" lon="9.4007307"><ele>262.0</ele><time>2026-04-19T15:34:56.341Z</time></trkpt><trkpt lat="45.6898696" lon="9.4007831"><ele>262.0</ele><time>2026-04-19T15:34:57.34Z</time></trkpt><trkpt lat="45.6899894" lon="9.400847"><ele>262.0</ele><time>2026-04-19T15:34:58.335Z</time></trkpt><trkpt lat="45.6901009" lon="9.4009071"><ele>262.0</ele><time>2026-04-19T15:34:59.338Z</time></trkpt><trkpt lat="45.6902204" lon="9.400961"><ele>262.75</ele><time>2026-04-19T15:35:00.341Z</time></trkpt><trkpt lat="45.690339" lon="9.4010189"><ele>263.5</ele><time>2026-04-19T15:35:01.342Z</time></trkpt><trkpt lat="45.6904576" lon="9.4010728"><ele>264.25</ele><time>2026-04-19T15:35:02.356Z</time></trkpt><trkpt lat="45.6905665" lon="9.40112"><ele>265.0</ele><time>2026-04-19T15:35:03.347Z</time></trkpt><trkpt lat="45.6906648" lon="9.4011689"><ele>265.0</ele><time>2026-04-19T15:35:04.348Z</time></trkpt><trkpt lat="45.6907669" lon="9.4012275"><ele>265.0</ele><time>2026-04-19T15:35:05.343Z</time></trkpt><trkpt lat="45.690865" lon="9.4012863"><ele>265.0</ele><time>2026-04-19T15:35:06.334Z</time></trkpt><trkpt lat="45.6909589" lon="9.4013321"><ele>265.0</ele><time>2026-04-19T15:35:07.297Z</time></trkpt><trkpt lat="45.6910438" lon="9.4013863"><ele>265.0</ele><time>2026-04-19T15:35:08.295Z</time></trkpt><trkpt lat="45.6911193" lon="9.4014384"><ele>265.5</ele><time>2026-04-19T15:35:09.298Z</time></trkpt><trkpt lat="45.6911932" lon="9.4014801"><ele>266.0</ele><time>2026-04-19T15:35:10.297Z</time></trkpt><trkpt lat="45.691257" lon="9.4015063"><ele>266.5</ele><time>2026-04-19T15:35:11.316Z</time></trkpt><trkpt lat="45.6913423" lon="9.4015578"><ele>267.0</ele><time>2026-04-19T15:35:13.322Z</time></trkpt><trkpt lat="45.6913897" lon="9.4016206"><ele>267.5</ele><time>2026-04-19T15:35:45.322Z</time></trkpt><trkpt lat="45.6914774" lon="9.401608"><ele>268.0</ele><time>2026-04-19T15:35:50.319Z</time></trkpt><trkpt lat="45.6915654" lon="9.4016417"><ele>268.0</ele><time>2026-04-19T15:35:52.326Z</time></trkpt><trkpt lat="45.6916625" lon="9.401696"><ele>268.0</ele><time>2026-04-19T15:35:54.352Z</time></trkpt><trkpt lat="45.6917684" lon="9.4017437"><ele>268.0</ele><time>2026-04-19T15:35:56.333Z</time></trkpt><trkpt lat="45.6918889" lon="9.401828"><ele>268.0</ele><time>2026-04-19T15:35:58.303Z</time></trkpt><trkpt lat="45.6919648" lon="9.4018685"><ele>268.0</ele><time>2026-04-19T15:35:59.318Z</time></trkpt><trkpt lat="45.6920442" lon="9.4019101"><ele>268.16666666666663</ele><time>2026-04-19T15:36:00.339Z</time></trkpt><trkpt lat="45.6921253" lon="9.4019503"><ele>268.3333333333333</ele><time>2026-04-19T15:36:01.304Z</time></trkpt><trkpt lat="45.6922101" lon="9.4019929"><ele>268.5</ele><time>2026-04-19T15:36:02.309Z</time></trkpt><trkpt lat="45.6922978" lon="9.4020359"><ele>268.6666666666667</ele><time>2026-04-19T15:36:03.31Z</time></trkpt><trkpt lat="45.6923803" lon="9.4020762"><ele>268.83333333333337</ele><time>2026-04-19T15:36:04.316Z</time></trkpt><trkpt lat="45.6924634" lon="9.402116"><ele>269.0</ele><time>2026-04-19T15:36:05.319Z</time></trkpt><trkpt lat="45.6925463" lon="9.402166"><ele>269.0</ele><time>2026-04-19T15:36:06.311Z</time></trkpt><trkpt lat="45.6926281" lon="9.4022156"><ele>269.0</ele><time>2026-04-19T15:36:07.321Z</time></trkpt><trkpt lat="45.6927166" lon="9.4022524"><ele>269.0</ele><time>2026-04-19T15:36:08.338Z</time></trkpt><trkpt lat="45.692802" lon="9.4022724"><ele>269.0</ele><time>2026-04-19T15:36:09.304Z</time></trkpt><trkpt lat="45.692899" lon="9.4022742"><ele>269.0</ele><time>2026-04-19T15:36:10.321Z</time></trkpt><trkpt lat="45.6929857" lon="9.40228"><ele>269.0</ele><time>2026-04-19T15:36:11.328Z</time></trkpt><trkpt lat="45.6930801" lon="9.4022862"><ele>269.0</ele><time>2026-04-19T15:36:12.336Z</time></trkpt><trkpt lat="45.6931841" lon="9.4022878"><ele>269.0</ele><time>2026-04-19T15:36:13.323Z</time></trkpt><trkpt lat="45.693281" lon="9.4022905"><ele>269.0</ele><time>2026-04-19T15:36:14.333Z</time></trkpt><trkpt lat="45.6933761" lon="9.4022877"><ele>269.0</ele><time>2026-04-19T15:36:15.291Z</time></trkpt><trkpt lat="45.6934693" lon="9.402295"><ele>269.0</ele><time>2026-04-19T15:36:16.325Z</time></trkpt><trkpt lat="45.6935586" lon="9.4022995"><ele>269.0</ele><time>2026-04-19T15:36:17.334Z</time></trkpt><trkpt lat="45.6936515" lon="9.4023125"><ele>269.0</ele><time>2026-04-19T15:36:18.333Z</time></trkpt><trkpt lat="45.6937359" lon="9.4023099"><ele>269.0</ele><time>2026-04-19T15:36:19.326Z</time></trkpt><trkpt lat="45.6938057" lon="9.4023159"><ele>269.0</ele><time>2026-04-19T15:36:20.295Z</time></trkpt><trkpt lat="45.6939271" lon="9.4023353"><ele>269.2</ele><time>2026-04-19T15:36:22.305Z</time></trkpt><trkpt lat="45.6940306" lon="9.4023579"><ele>269.4</ele><time>2026-04-19T15:36:24.302Z</time></trkpt><trkpt lat="45.6941331" lon="9.4023958"><ele>269.6</ele><time>2026-04-19T15:36:26.323Z</time></trkpt><trkpt lat="45.694231" lon="9.4024439"><ele>269.8</ele><time>2026-04-19T15:36:28.334Z</time></trkpt><trkpt lat="45.6943027" lon="9.4024985"><ele>270.0</ele><time>2026-04-19T15:36:30.31Z</time></trkpt><trkpt lat="45.6943717" lon="9.4025502"><ele>270.6666666666667</ele><time>2026-04-19T15:36:32.293Z</time></trkpt><trkpt lat="45.6944407" lon="9.4026062"><ele>271.3333333333333</ele><time>2026-04-19T15:36:34.312Z</time></trkpt><trkpt lat="45.6945181" lon="9.4026932"><ele>272.0</ele><time>2026-04-19T15:36:37.31Z</time></trkpt><trkpt lat="45.6945897" lon="9.4027549"><ele>272.66666666666663</ele><time>2026-04-19T15:36:39.318Z</time></trkpt><trkpt lat="45.6946455" lon="9.4028024"><ele>273.3333333333333</ele><time>2026-04-19T15:36:40.299Z</time></trkpt><trkpt lat="45.694734" lon="9.4028891"><ele>274.0</ele><time>2026-04-19T15:36:42.308Z</time></trkpt><trkpt lat="45.6948196" lon="9.4029955"><ele>274.0</ele><time>2026-04-19T15:36:44.304Z</time></trkpt><trkpt lat="45.6949096" lon="9.4030971"><ele>274.0</ele><time>2026-04-19T15:36:46.296Z</time></trkpt><trkpt lat="45.6950232" lon="9.4031983"><ele>274.0</ele><time>2026-04-19T15:36:48.312Z</time></trkpt><trkpt lat="45.6950988" lon="9.4032661"><ele>274.0</ele><time>2026-04-19T15:36:49.322Z</time></trkpt><trkpt lat="45.6951682" lon="9.4033432"><ele>274.0</ele><time>2026-04-19T15:36:50.321Z</time></trkpt><trkpt lat="45.6952609" lon="9.4034138"><ele>274.0</ele><time>2026-04-19T15:36:51.324Z</time></trkpt><trkpt lat="45.6953362" lon="9.4034754"><ele>274.0</ele><time>2026-04-19T15:36:52.32Z</time></trkpt><trkpt lat="45.695409" lon="9.403539"><ele>274.0</ele><time>2026-04-19T15:36:53.313Z</time></trkpt><trkpt lat="45.6954831" lon="9.4036007"><ele>274.0</ele><time>2026-04-19T15:36:54.332Z</time></trkpt><trkpt lat="45.6955477" lon="9.403671"><ele>274.0</ele><time>2026-04-19T15:36:55.316Z</time></trkpt><trkpt lat="45.6956163" lon="9.4037438"><ele>274.0</ele><time>2026-04-19T15:36:56.307Z</time></trkpt><trkpt lat="45.6956859" lon="9.4038135"><ele>274.0</ele><time>2026-04-19T15:36:57.317Z</time></trkpt><trkpt lat="45.6957506" lon="9.4038792"><ele>274.0</ele><time>2026-04-19T15:36:58.327Z</time></trkpt><trkpt lat="45.6958082" lon="9.4039598"><ele>274.0</ele><time>2026-04-19T15:36:59.318Z</time></trkpt><trkpt lat="45.6958689" lon="9.404028"><ele>274.0</ele><time>2026-04-19T15:37:00.318Z</time></trkpt><trkpt lat="45.695938" lon="9.4040907"><ele>274.0</ele><time>2026-04-19T15:37:01.286Z</time></trkpt><trkpt lat="45.6960042" lon="9.4041534"><ele>274.0</ele><time>2026-04-19T15:37:02.32Z</time></trkpt><trkpt lat="45.6960752" lon="9.4042239"><ele>274.3333333333333</ele><time>2026-04-19T15:37:03.306Z</time></trkpt><trkpt lat="45.696151" lon="9.4042939"><ele>274.66666666666663</ele><time>2026-04-19T15:37:04.309Z</time></trkpt><trkpt lat="45.6962182" lon="9.4043589"><ele>275.0</ele><time>2026-04-19T15:37:05.318Z</time></trkpt><trkpt lat="45.6962962" lon="9.4044253"><ele>275.3333333333333</ele><time>2026-04-19T15:37:06.313Z</time></trkpt><trkpt lat="45.6963746" lon="9.4044988"><ele>275.6666666666667</ele><time>2026-04-19T15:37:07.314Z</time></trkpt><trkpt lat="45.6964514" lon="9.4045729"><ele>276.0</ele><time>2026-04-19T15:37:08.292Z</time></trkpt><trkpt lat="45.6965326" lon="9.4046488"><ele>276.0</ele><time>2026-04-19T15:37:09.325Z</time></trkpt><trkpt lat="45.6966055" lon="9.4047202"><ele>276.0</ele><time>2026-04-19T15:37:10.333Z</time></trkpt><trkpt lat="45.6966791" lon="9.4048021"><ele>276.0</ele><time>2026-04-19T15:37:11.314Z</time></trkpt><trkpt lat="45.696762" lon="9.4048852"><ele>276.0</ele><time>2026-04-19T15:37:12.32Z</time></trkpt><trkpt lat="45.6968484" lon="9.4049763"><ele>276.0</ele><time>2026-04-19T15:37:13.316Z</time></trkpt><trkpt lat="45.6969287" lon="9.4050677"><ele>276.0</ele><time>2026-04-19T15:37:14.313Z</time></trkpt><trkpt lat="45.6970102" lon="9.4051656"><ele>276.0</ele><time>2026-04-19T15:37:15.306Z</time></trkpt><trkpt lat="45.697096" lon="9.4052646"><ele>276.0</ele><time>2026-04-19T15:37:16.298Z</time></trkpt><trkpt lat="45.6971746" lon="9.4053577"><ele>276.0</ele><time>2026-04-19T15:37:17.3Z</time></trkpt><trkpt lat="45.69727" lon="9.4054443"><ele>276.0</ele><time>2026-04-19T15:37:18.315Z</time></trkpt><trkpt lat="45.6973532" lon="9.4055388"><ele>276.2</ele><time>2026-04-19T15:37:19.333Z</time></trkpt><trkpt lat="45.6974409" lon="9.4056309"><ele>276.40000000000003</ele><time>2026-04-19T15:37:20.298Z</time></trkpt><trkpt lat="45.6975275" lon="9.4057194"><ele>276.6</ele><time>2026-04-19T15:37:21.332Z</time></trkpt><trkpt lat="45.6976013" lon="9.4058046"><ele>276.8</ele><time>2026-04-19T15:37:22.339Z</time></trkpt><trkpt lat="45.6976769" lon="9.4058834"><ele>277.0</ele><time>2026-04-19T15:37:23.345Z</time></trkpt><trkpt lat="45.6977335" lon="9.4059498"><ele>277.16666666666663</ele><time>2026-04-19T15:37:24.322Z</time></trkpt><trkpt lat="45.6977891" lon="9.4059976"><ele>277.3333333333333</ele><time>2026-04-19T15:37:25.321Z</time></trkpt><trkpt lat="45.6978697" lon="9.4060847"><ele>277.5</ele><time>2026-04-19T15:37:27.338Z</time></trkpt><trkpt lat="45.697919" lon="9.4061561"><ele>277.6666666666667</ele><time>2026-04-19T15:37:29.344Z</time></trkpt><trkpt lat="45.6979761" lon="9.4062215"><ele>277.83333333333337</ele><time>2026-04-19T15:37:31.29Z</time></trkpt><trkpt lat="45.6980508" lon="9.4062832"><ele>278.0</ele><time>2026-04-19T15:37:33.326Z</time></trkpt><trkpt lat="45.6981024" lon="9.406344"><ele>278.33333333333337</ele><time>2026-04-19T15:37:35.323Z</time></trkpt><trkpt lat="45.6981474" lon="9.4064244"><ele>278.6666666666667</ele><time>2026-04-19T15:37:38.327Z</time></trkpt><trkpt lat="45.6982114" lon="9.4065432"><ele>279.0</ele><time>2026-04-19T15:37:41.313Z</time></trkpt><trkpt lat="45.698292" lon="9.406664"><ele>279.3333333333333</ele><time>2026-04-19T15:37:43.335Z</time></trkpt><trkpt lat="45.6983522" lon="9.406726"><ele>279.66666666666663</ele><time>2026-04-19T15:37:44.343Z</time></trkpt><trkpt lat="45.698414" lon="9.4067804"><ele>280.0</ele><time>2026-04-19T15:37:45.3Z</time></trkpt><trkpt lat="45.6984775" lon="9.4068353"><ele>280.0</ele><time>2026-04-19T15:37:46.308Z</time></trkpt><trkpt lat="45.6985608" lon="9.406884"><ele>280.0</ele><time>2026-04-19T15:37:47.295Z</time></trkpt><trkpt lat="45.6986353" lon="9.4069431"><ele>280.0</ele><time>2026-04-19T15:37:48.34Z</time></trkpt><trkpt lat="45.6987119" lon="9.407011"><ele>280.0</ele><time>2026-04-19T15:37:49.309Z</time></trkpt><trkpt lat="45.6987714" lon="9.4070732"><ele>280.0</ele><time>2026-04-19T15:37:50.337Z</time></trkpt><trkpt lat="45.6988233" lon="9.4071304"><ele>280.0</ele><time>2026-04-19T15:37:51.334Z</time></trkpt><trkpt lat="45.6988885" lon="9.407206"><ele>280.66666666666663</ele><time>2026-04-19T15:37:53.333Z</time></trkpt><trkpt lat="45.6989453" lon="9.4072663"><ele>281.3333333333333</ele><time>2026-04-19T15:37:56.32Z</time></trkpt><trkpt lat="45.6989928" lon="9.4073368"><ele>282.0</ele><time>2026-04-19T15:37:59.298Z</time></trkpt><trkpt lat="45.6990466" lon="9.4074236"><ele>282.6666666666667</ele><time>2026-04-19T15:38:02.327Z</time></trkpt><trkpt lat="45.6991203" lon="9.4075277"><ele>283.33333333333337</ele><time>2026-04-19T15:38:04.324Z</time></trkpt><trkpt lat="45.6991683" lon="9.4075957"><ele>284.0</ele><time>2026-04-19T15:38:05.331Z</time></trkpt><trkpt lat="45.6992638" lon="9.4077375"><ele>284.0</ele><time>2026-04-19T15:38:07.311Z</time></trkpt><trkpt lat="45.6993245" lon="9.4078231"><ele>284.0</ele><time>2026-04-19T15:38:08.333Z</time></trkpt><trkpt lat="45.699382" lon="9.4079138"><ele>284.0</ele><time>2026-04-19T15:38:09.327Z</time></trkpt><trkpt lat="45.6994415" lon="9.4080013"><ele>284.0</ele><time>2026-04-19T15:38:10.294Z</time></trkpt><trkpt lat="45.6995101" lon="9.4080776"><ele>284.0</ele><time>2026-04-19T15:38:11.331Z</time></trkpt><trkpt lat="45.6995718" lon="9.4081629"><ele>284.0</ele><time>2026-04-19T15:38:12.324Z</time></trkpt><trkpt lat="45.6996312" lon="9.4082489"><ele>284.59999999999997</ele><time>2026-04-19T15:38:13.338Z</time></trkpt><trkpt lat="45.6996987" lon="9.4083428"><ele>285.2</ele><time>2026-04-19T15:38:14.332Z</time></trkpt><trkpt lat="45.6997673" lon="9.4084298"><ele>285.79999999999995</ele><time>2026-04-19T15:38:15.314Z</time></trkpt><trkpt lat="45.6998379" lon="9.4085235"><ele>286.4</ele><time>2026-04-19T15:38:16.318Z</time></trkpt><trkpt lat="45.699905" lon="9.4086088"><ele>287.0</ele><time>2026-04-19T15:38:17.321Z</time></trkpt><trkpt lat="45.6999726" lon="9.4087004"><ele>287.0</ele><time>2026-04-19T15:38:18.317Z</time></trkpt><trkpt lat="45.7000377" lon="9.4087949"><ele>287.0</ele><time>2026-04-19T15:38:19.31Z</time></trkpt><trkpt lat="45.7001057" lon="9.4088835"><ele>287.0</ele><time>2026-04-19T15:38:20.325Z</time></trkpt><trkpt lat="45.700175" lon="9.408976"><ele>287.0</ele><time>2026-04-19T15:38:21.306Z</time></trkpt><trkpt lat="45.7002516" lon="9.4090803"><ele>287.0</ele><time>2026-04-19T15:38:22.342Z</time></trkpt><trkpt lat="45.7003395" lon="9.4091881"><ele>286.5</ele><time>2026-04-19T15:38:23.334Z</time></trkpt><trkpt lat="45.7004398" lon="9.4092918"><ele>286.0</ele><time>2026-04-19T15:38:24.331Z</time></trkpt><trkpt lat="45.7005317" lon="9.4093968"><ele>285.5</ele><time>2026-04-19T15:38:25.333Z</time></trkpt><trkpt lat="45.700628" lon="9.4094942"><ele>285.0</ele><time>2026-04-19T15:38:26.304Z</time></trkpt><trkpt lat="45.700724" lon="9.4096013"><ele>284.5</ele><time>2026-04-19T15:38:27.327Z</time></trkpt><trkpt lat="45.70082" lon="9.4097175"><ele>284.0</ele><time>2026-04-19T15:38:28.333Z</time></trkpt><trkpt lat="45.7009162" lon="9.4098338"><ele>283.5</ele><time>2026-04-19T15:38:29.335Z</time></trkpt><trkpt lat="45.7010027" lon="9.4099524"><ele>283.0</ele><time>2026-04-19T15:38:30.344Z</time></trkpt><trkpt lat="45.7010972" lon="9.4100645"><ele>283.0</ele><time>2026-04-19T15:38:31.298Z</time></trkpt><trkpt lat="45.7012058" lon="9.4101627"><ele>283.0</ele><time>2026-04-19T15:38:32.33Z</time></trkpt><trkpt lat="45.7013036" lon="9.410267"><ele>283.0</ele><time>2026-04-19T15:38:33.338Z</time></trkpt><trkpt lat="45.7014048" lon="9.4103642"><ele>283.0</ele><time>2026-04-19T15:38:34.334Z</time></trkpt><trkpt lat="45.7014942" lon="9.4104703"><ele>284.5</ele><time>2026-04-19T15:38:35.32Z</time></trkpt><trkpt lat="45.7015793" lon="9.4105742"><ele>286.0</ele><time>2026-04-19T15:38:36.338Z</time></trkpt><trkpt lat="45.7016703" lon="9.4106655"><ele>287.5</ele><time>2026-04-19T15:38:37.315Z</time></trkpt><trkpt lat="45.7017694" lon="9.4107445"><ele>289.0</ele><time>2026-04-19T15:38:38.324Z</time></trkpt><trkpt lat="45.7018775" lon="9.4108238"><ele>288.75</ele><time>2026-04-19T15:38:39.339Z</time></trkpt><trkpt lat="45.7019877" lon="9.4108969"><ele>288.5</ele><time>2026-04-19T15:38:40.336Z</time></trkpt><trkpt lat="45.7021061" lon="9.4109657"><ele>288.25</ele><time>2026-04-19T15:38:41.341Z</time></trkpt><trkpt lat="45.7022353" lon="9.4110334"><ele>288.0</ele><time>2026-04-19T15:38:42.339Z</time></trkpt><trkpt lat="45.7023701" lon="9.4110911"><ele>288.0</ele><time>2026-04-19T15:38:43.336Z</time></trkpt><trkpt lat="45.7025065" lon="9.4111509"><ele>288.0</ele><time>2026-04-19T15:38:44.349Z</time></trkpt><trkpt lat="45.7026384" lon="9.4112184"><ele>288.0</ele><time>2026-04-19T15:38:45.332Z</time></trkpt><trkpt lat="45.7027641" lon="9.411264"><ele>288.0</ele><time>2026-04-19T15:38:46.33Z</time></trkpt><trkpt lat="45.7028816" lon="9.4113273"><ele>288.5</ele><time>2026-04-19T15:38:47.339Z</time></trkpt><trkpt lat="45.7030033" lon="9.4113839"><ele>289.0</ele><time>2026-04-19T15:38:48.286Z</time></trkpt><trkpt lat="45.7031286" lon="9.4114292"><ele>289.5</ele><time>2026-04-19T15:38:49.346Z</time></trkpt><trkpt lat="45.7032586" lon="9.4114766"><ele>290.0</ele><time>2026-04-19T15:38:50.35Z</time></trkpt><trkpt lat="45.7033781" lon="9.4115251"><ele>290.0</ele><time>2026-04-19T15:38:51.339Z</time></trkpt><trkpt lat="45.7035069" lon="9.4115512"><ele>290.0</ele><time>2026-04-19T15:38:52.332Z</time></trkpt><trkpt lat="45.7036368" lon="9.4115644"><ele>290.0</ele><time>2026-04-19T15:38:53.345Z</time></trkpt><trkpt lat="45.7037614" lon="9.4115724"><ele>290.0</ele><time>2026-04-19T15:38:54.344Z</time></trkpt><trkpt lat="45.7038899" lon="9.4115668"><ele>289.25</ele><time>2026-04-19T15:38:55.321Z</time></trkpt><trkpt lat="45.7040178" lon="9.4115476"><ele>288.5</ele><time>2026-04-19T15:38:56.352Z</time></trkpt><trkpt lat="45.7041488" lon="9.4115165"><ele>287.75</ele><time>2026-04-19T15:38:57.343Z</time></trkpt><trkpt lat="45.7042702" lon="9.4114901"><ele>287.0</ele><time>2026-04-19T15:38:58.341Z</time></trkpt><trkpt lat="45.7043832" lon="9.411456"><ele>287.6</ele><time>2026-04-19T15:38:59.305Z</time></trkpt><trkpt lat="45.7044935" lon="9.4114169"><ele>288.2</ele><time>2026-04-19T15:39:00.344Z</time></trkpt><trkpt lat="45.7046013" lon="9.4113723"><ele>288.8</ele><time>2026-04-19T15:39:01.332Z</time></trkpt><trkpt lat="45.7046965" lon="9.4113297"><ele>289.4</ele><time>2026-04-19T15:39:02.337Z</time></trkpt><trkpt lat="45.7047812" lon="9.4112969"><ele>290.0</ele><time>2026-04-19T15:39:03.333Z</time></trkpt><trkpt lat="45.7048503" lon="9.4112549"><ele>290.0</ele><time>2026-04-19T15:39:04.343Z</time></trkpt><trkpt lat="45.7049256" lon="9.4111996"><ele>290.0</ele><time>2026-04-19T15:39:05.34Z</time></trkpt><trkpt lat="45.7050046" lon="9.4111367"><ele>290.0</ele><time>2026-04-19T15:39:06.338Z</time></trkpt><trkpt lat="45.7050904" lon="9.411057"><ele>290.0</ele><time>2026-04-19T15:39:07.336Z</time></trkpt><trkpt lat="45.7051776" lon="9.4109862"><ele>290.0</ele><time>2026-04-19T15:39:08.342Z</time></trkpt><trkpt lat="45.7052757" lon="9.4109208"><ele>291.25</ele><time>2026-04-19T15:39:09.345Z</time></trkpt><trkpt lat="45.7053715" lon="9.4108392"><ele>292.5</ele><time>2026-04-19T15:39:10.327Z</time></trkpt><trkpt lat="45.7054773" lon="9.4107536"><ele>293.75</ele><time>2026-04-19T15:39:11.356Z</time></trkpt><trkpt lat="45.7055849" lon="9.4106739"><ele>295.0</ele><time>2026-04-19T15:39:12.347Z</time></trkpt><trkpt lat="45.7056838" lon="9.4105917"><ele>295.0</ele><time>2026-04-19T15:39:13.337Z</time></trkpt><trkpt lat="45.705777" lon="9.4105218"><ele>295.0</ele><time>2026-04-19T15:39:14.332Z</time></trkpt><trkpt lat="45.7058578" lon="9.4104572"><ele>295.0</ele><time>2026-04-19T15:39:15.306Z</time></trkpt><trkpt lat="45.7059103" lon="9.4103807"><ele>295.0</ele><time>2026-04-19T15:39:16.343Z</time></trkpt><trkpt lat="45.7059923" lon="9.4102873"><ele>295.0</ele><time>2026-04-19T15:39:18.343Z</time></trkpt><trkpt lat="45.7060647" lon="9.4102235"><ele>295.66666666666663</ele><time>2026-04-19T15:39:20.346Z</time></trkpt><trkpt lat="45.7061292" lon="9.4101536"><ele>296.3333333333333</ele><time>2026-04-19T15:39:22.333Z</time></trkpt><trkpt lat="45.7061987" lon="9.4101246"><ele>297.0</ele><time>2026-04-19T15:39:24.333Z</time></trkpt><trkpt lat="45.7063004" lon="9.4101214"><ele>297.6666666666667</ele><time>2026-04-19T15:39:26.33Z</time></trkpt><trkpt lat="45.7063665" lon="9.4101231"><ele>298.33333333333337</ele><time>2026-04-19T15:39:27.326Z</time></trkpt><trkpt lat="45.7064499" lon="9.4100395"><ele>299.0</ele><time>2026-04-19T15:39:29.346Z</time></trkpt><trkpt lat="45.7064815" lon="9.4099567"><ele>299.0</ele><time>2026-04-19T15:39:30.349Z</time></trkpt><trkpt lat="45.7065187" lon="9.4098666"><ele>299.0</ele><time>2026-04-19T15:39:31.343Z</time></trkpt><trkpt lat="45.7065688" lon="9.4097858"><ele>299.0</ele><time>2026-04-19T15:39:32.36Z</time></trkpt><trkpt lat="45.7066231" lon="9.4097216"><ele>299.0</ele><time>2026-04-19T15:39:33.352Z</time></trkpt><trkpt lat="45.7066962" lon="9.4096512"><ele>299.0</ele><time>2026-04-19T15:39:34.328Z</time></trkpt><trkpt lat="45.7067869" lon="9.4095781"><ele>299.0</ele><time>2026-04-19T15:39:35.337Z</time></trkpt><trkpt lat="45.7068839" lon="9.4094985"><ele>299.4</ele><time>2026-04-19T15:39:36.353Z</time></trkpt><trkpt lat="45.7069733" lon="9.4094195"><ele>299.79999999999995</ele><time>2026-04-19T15:39:37.342Z</time></trkpt><trkpt lat="45.7070615" lon="9.4093498"><ele>300.20000000000005</ele><time>2026-04-19T15:39:38.334Z</time></trkpt><trkpt lat="45.7071547" lon="9.409283"><ele>300.6</ele><time>2026-04-19T15:39:39.339Z</time></trkpt><trkpt lat="45.7072406" lon="9.4092042"><ele>301.0</ele><time>2026-04-19T15:39:40.344Z</time></trkpt><trkpt lat="45.7073425" lon="9.4091329"><ele>301.0</ele><time>2026-04-19T15:39:41.343Z</time></trkpt><trkpt lat="45.7074344" lon="9.4090534"><ele>301.0</ele><time>2026-04-19T15:39:42.337Z</time></trkpt><trkpt lat="45.7075247" lon="9.4089703"><ele>301.0</ele><time>2026-04-19T15:39:43.34Z</time></trkpt><trkpt lat="45.7076171" lon="9.4088866"><ele>301.0</ele><time>2026-04-19T15:39:44.325Z</time></trkpt><trkpt lat="45.7077145" lon="9.4088041"><ele>301.0</ele><time>2026-04-19T15:39:45.346Z</time></trkpt><trkpt lat="45.7078148" lon="9.4087241"><ele>302.0</ele><time>2026-04-19T15:39:46.337Z</time></trkpt><trkpt lat="45.7079225" lon="9.4086398"><ele>303.0</ele><time>2026-04-19T15:39:47.351Z</time></trkpt><trkpt lat="45.7080299" lon="9.4085705"><ele>304.0</ele><time>2026-04-19T15:39:48.332Z</time></trkpt><trkpt lat="45.7081415" lon="9.4084964"><ele>305.0</ele><time>2026-04-19T15:39:49.345Z</time></trkpt><trkpt lat="45.7082554" lon="9.4084082"><ele>305.0</ele><time>2026-04-19T15:39:50.34Z</time></trkpt><trkpt lat="45.7083683" lon="9.4083206"><ele>305.0</ele><time>2026-04-19T15:39:51.327Z</time></trkpt><trkpt lat="45.7084708" lon="9.4082405"><ele>305.0</ele><time>2026-04-19T15:39:52.337Z</time></trkpt><trkpt lat="45.7085663" lon="9.40816"><ele>305.0</ele><time>2026-04-19T15:39:53.354Z</time></trkpt><trkpt lat="45.7086665" lon="9.4080809"><ele>305.25</ele><time>2026-04-19T15:39:54.347Z</time></trkpt><trkpt lat="45.7087684" lon="9.4080014"><ele>305.5</ele><time>2026-04-19T15:39:55.327Z</time></trkpt><trkpt lat="45.7088746" lon="9.4079179"><ele>305.75</ele><time>2026-04-19T15:39:56.333Z</time></trkpt><trkpt lat="45.708978" lon="9.4078328"><ele>306.0</ele><time>2026-04-19T15:39:57.321Z</time></trkpt><trkpt lat="45.709077" lon="9.4077475"><ele>306.2</ele><time>2026-04-19T15:39:58.314Z</time></trkpt><trkpt lat="45.7091703" lon="9.4076682"><ele>306.40000000000003</ele><time>2026-04-19T15:39:59.332Z</time></trkpt><trkpt lat="45.7092708" lon="9.4075892"><ele>306.6</ele><time>2026-04-19T15:40:00.335Z</time></trkpt><trkpt lat="45.7093691" lon="9.4075072"><ele>306.8</ele><time>2026-04-19T15:40:01.336Z</time></trkpt><trkpt lat="45.7094651" lon="9.4074333"><ele>307.0</ele><time>2026-04-19T15:40:02.348Z</time></trkpt><trkpt lat="45.7095639" lon="9.4073545"><ele>307.6</ele><time>2026-04-19T15:40:03.334Z</time></trkpt><trkpt lat="45.7096578" lon="9.4072735"><ele>308.2</ele><time>2026-04-19T15:40:04.345Z</time></trkpt><trkpt lat="45.7097501" lon="9.4071929"><ele>308.8</ele><time>2026-04-19T15:40:05.345Z</time></trkpt><trkpt lat="45.7098499" lon="9.4071162"><ele>309.4</ele><time>2026-04-19T15:40:06.335Z</time></trkpt><trkpt lat="45.70995" lon="9.4070327"><ele>310.0</ele><time>2026-04-19T15:40:07.35Z</time></trkpt><trkpt lat="45.7100536" lon="9.406952"><ele>310.25</ele><time>2026-04-19T15:40:08.351Z</time></trkpt><trkpt lat="45.7101562" lon="9.4068645"><ele>310.5</ele><time>2026-04-19T15:40:09.339Z</time></trkpt><trkpt lat="45.7102652" lon="9.4067746"><ele>310.75</ele><time>2026-04-19T15:40:10.336Z</time></trkpt><trkpt lat="45.7103751" lon="9.4066914"><ele>311.0</ele><time>2026-04-19T15:40:11.341Z</time></trkpt><trkpt lat="45.710477" lon="9.4066167"><ele>310.5</ele><time>2026-04-19T15:40:12.335Z</time></trkpt><trkpt lat="45.71058" lon="9.4065392"><ele>310.0</ele><time>2026-04-19T15:40:13.33Z</time></trkpt><trkpt lat="45.7106832" lon="9.4064787"><ele>309.5</ele><time>2026-04-19T15:40:14.326Z</time></trkpt><trkpt lat="45.7107959" lon="9.4064583"><ele>309.0</ele><time>2026-04-19T15:40:15.336Z</time></trkpt><trkpt lat="45.7109099" lon="9.4064576"><ele>309.0</ele><time>2026-04-19T15:40:16.335Z</time></trkpt><trkpt lat="45.7110249" lon="9.40647"><ele>309.0</ele><time>2026-04-19T15:40:17.331Z</time></trkpt><trkpt lat="45.7111251" lon="9.406476"><ele>309.0</ele><time>2026-04-19T15:40:18.322Z</time></trkpt><trkpt lat="45.7112222" lon="9.4064317"><ele>309.0</ele><time>2026-04-19T15:40:19.346Z</time></trkpt><trkpt lat="45.7113207" lon="9.4063701"><ele>309.0</ele><time>2026-04-19T15:40:20.345Z</time></trkpt><trkpt lat="45.71143" lon="9.4062982"><ele>307.75</ele><time>2026-04-19T15:40:21.359Z</time></trkpt><trkpt lat="45.7115432" lon="9.406238"><ele>306.5</ele><time>2026-04-19T15:40:22.328Z</time></trkpt><trkpt lat="45.7116748" lon="9.4061973"><ele>305.25</ele><time>2026-04-19T15:40:23.346Z</time></trkpt><trkpt lat="45.7118245" lon="9.406167"><ele>304.0</ele><time>2026-04-19T15:40:24.339Z</time></trkpt><trkpt lat="45.7119764" lon="9.406171"><ele>303.0</ele><time>2026-04-19T15:40:25.337Z</time></trkpt><trkpt lat="45.7121293" lon="9.4061907"><ele>302.0</ele><time>2026-04-19T15:40:26.316Z</time></trkpt><trkpt lat="45.7122981" lon="9.4062103"><ele>301.0</ele><time>2026-04-19T15:40:27.347Z</time></trkpt><trkpt lat="45.7124575" lon="9.4062513"><ele>301.0</ele><time>2026-04-19T15:40:28.332Z</time></trkpt><trkpt lat="45.7126021" lon="9.4063012"><ele>301.0</ele><time>2026-04-19T15:40:29.34Z</time></trkpt><trkpt lat="45.7127624" lon="9.4063571"><ele>301.0</ele><time>2026-04-19T15:40:30.343Z</time></trkpt><trkpt lat="45.7128952" lon="9.4064292"><ele>301.5</ele><time>2026-04-19T15:40:31.34Z</time></trkpt><trkpt lat="45.7130322" lon="9.4064912"><ele>302.0</ele><time>2026-04-19T15:40:32.343Z</time></trkpt><trkpt lat="45.713165" lon="9.4065635"><ele>302.5</ele><time>2026-04-19T15:40:33.34Z</time></trkpt><trkpt lat="45.7133018" lon="9.4066275"><ele>303.0</ele><time>2026-04-19T15:40:34.343Z</time></trkpt><trkpt lat="45.7134476" lon="9.4067035"><ele>302.0</ele><time>2026-04-19T15:40:35.349Z</time></trkpt><trkpt lat="45.7135944" lon="9.4067648"><ele>301.0</ele><time>2026-04-19T15:40:36.332Z</time></trkpt><trkpt lat="45.7137401" lon="9.4068266"><ele>300.0</ele><time>2026-04-19T15:40:37.352Z</time></trkpt><trkpt lat="45.7138778" lon="9.4069034"><ele>300.0</ele><time>2026-04-19T15:40:38.338Z</time></trkpt><trkpt lat="45.7140318" lon="9.406986"><ele>300.0</ele><time>2026-04-19T15:40:39.284Z</time></trkpt><trkpt lat="45.7141891" lon="9.4070672"><ele>300.0</ele><time>2026-04-19T15:40:40.323Z</time></trkpt><trkpt lat="45.7143359" lon="9.407144"><ele>300.3333333333333</ele><time>2026-04-19T15:40:41.331Z</time></trkpt><trkpt lat="45.714486" lon="9.4072206"><ele>300.66666666666663</ele><time>2026-04-19T15:40:42.318Z</time></trkpt><trkpt lat="45.7146307" lon="9.4073007"><ele>301.0</ele><time>2026-04-19T15:40:43.348Z</time></trkpt><trkpt lat="45.7147772" lon="9.4073648"><ele>301.0</ele><time>2026-04-19T15:40:44.315Z</time></trkpt><trkpt lat="45.714918" lon="9.40744"><ele>301.0</ele><time>2026-04-19T15:40:45.315Z</time></trkpt><trkpt lat="45.7150502" lon="9.4074949"><ele>301.0</ele><time>2026-04-19T15:40:46.337Z</time></trkpt><trkpt lat="45.715176" lon="9.4075641"><ele>301.0</ele><time>2026-04-19T15:40:47.347Z</time></trkpt><trkpt lat="45.7153122" lon="9.407627"><ele>300.75</ele><time>2026-04-19T15:40:48.336Z</time></trkpt><trkpt lat="45.7154424" lon="9.4076761"><ele>300.5</ele><time>2026-04-19T15:40:49.34Z</time></trkpt><trkpt lat="45.7155687" lon="9.4077185"><ele>300.25</ele><time>2026-04-19T15:40:50.332Z</time></trkpt><trkpt lat="45.7156973" lon="9.4077657"><ele>300.0</ele><time>2026-04-19T15:40:51.342Z</time></trkpt><trkpt lat="45.7158282" lon="9.4078074"><ele>300.0</ele><time>2026-04-19T15:40:52.348Z</time></trkpt><trkpt lat="45.7159491" lon="9.4078514"><ele>300.0</ele><time>2026-04-19T15:40:53.351Z</time></trkpt><trkpt lat="45.7160713" lon="9.4078867"><ele>300.0</ele><time>2026-04-19T15:40:54.337Z</time></trkpt><trkpt lat="45.7161948" lon="9.4079221"><ele>300.0</ele><time>2026-04-19T15:40:55.338Z</time></trkpt><trkpt lat="45.7163169" lon="9.4079591"><ele>300.25</ele><time>2026-04-19T15:40:56.337Z</time></trkpt><trkpt lat="45.7164345" lon="9.4079884"><ele>300.5</ele><time>2026-04-19T15:40:57.297Z</time></trkpt><trkpt lat="45.7165458" lon="9.4080252"><ele>300.75</ele><time>2026-04-19T15:40:58.343Z</time></trkpt><trkpt lat="45.7166577" lon="9.4080614"><ele>301.0</ele><time>2026-04-19T15:40:59.345Z</time></trkpt><trkpt lat="45.7167591" lon="9.4080956"><ele>301.0</ele><time>2026-04-19T15:41:00.299Z</time></trkpt><trkpt lat="45.7168631" lon="9.4081338"><ele>301.0</ele><time>2026-04-19T15:41:01.319Z</time></trkpt><trkpt lat="45.7169569" lon="9.4081634"><ele>301.0</ele><time>2026-04-19T15:41:02.32Z</time></trkpt><trkpt lat="45.7170354" lon="9.4081853"><ele>301.0</ele><time>2026-04-19T15:41:03.334Z</time></trkpt><trkpt lat="45.7170987" lon="9.4082111"><ele>301.0</ele><time>2026-04-19T15:41:04.345Z</time></trkpt><trkpt lat="45.7172005" lon="9.4082603"><ele>300.3333333333333</ele><time>2026-04-19T15:41:06.337Z</time></trkpt><trkpt lat="45.7172636" lon="9.4082927"><ele>299.66666666666663</ele><time>2026-04-19T15:41:07.349Z</time></trkpt><trkpt lat="45.7173348" lon="9.4083423"><ele>299.0</ele><time>2026-04-19T15:41:08.351Z</time></trkpt><trkpt lat="45.717409" lon="9.4084018"><ele>298.3333333333333</ele><time>2026-04-19T15:41:09.345Z</time></trkpt><trkpt lat="45.7174848" lon="9.4084857"><ele>297.6666666666667</ele><time>2026-04-19T15:41:10.335Z</time></trkpt><trkpt lat="45.7175646" lon="9.4085697"><ele>297.0</ele><time>2026-04-19T15:41:11.311Z</time></trkpt><trkpt lat="45.7176464" lon="9.4086564"><ele>297.0</ele><time>2026-04-19T15:41:12.348Z</time></trkpt><trkpt lat="45.7177346" lon="9.4087531"><ele>297.0</ele><time>2026-04-19T15:41:13.334Z</time></trkpt><trkpt lat="45.7178323" lon="9.4088581"><ele>297.0</ele><time>2026-04-19T15:41:14.344Z</time></trkpt><trkpt lat="45.7179318" lon="9.4089655"><ele>297.0</ele><time>2026-04-19T15:41:15.338Z</time></trkpt><trkpt lat="45.7180331" lon="9.4090736"><ele>297.25</ele><time>2026-04-19T15:41:16.356Z</time></trkpt><trkpt lat="45.7181479" lon="9.4091865"><ele>297.5</ele><time>2026-04-19T15:41:17.334Z</time></trkpt><trkpt lat="45.7182636" lon="9.4093075"><ele>297.75</ele><time>2026-04-19T15:41:18.336Z</time></trkpt><trkpt lat="45.7183855" lon="9.409431"><ele>298.0</ele><time>2026-04-19T15:41:19.35Z</time></trkpt><trkpt lat="45.7185026" lon="9.4095493"><ele>298.3333333333333</ele><time>2026-04-19T15:41:20.328Z</time></trkpt><trkpt lat="45.7186248" lon="9.409678"><ele>298.6666666666667</ele><time>2026-04-19T15:41:21.351Z</time></trkpt><trkpt lat="45.7187412" lon="9.4098019"><ele>299.0</ele><time>2026-04-19T15:41:22.335Z</time></trkpt><trkpt lat="45.7188664" lon="9.4099302"><ele>299.0</ele><time>2026-04-19T15:41:23.345Z</time></trkpt><trkpt lat="45.7189912" lon="9.4100615"><ele>299.0</ele><time>2026-04-19T15:41:24.345Z</time></trkpt><trkpt lat="45.7191134" lon="9.4101867"><ele>299.0</ele><time>2026-04-19T15:41:25.346Z</time></trkpt><trkpt lat="45.7192349" lon="9.410324"><ele>299.0</ele><time>2026-04-19T15:41:26.325Z</time></trkpt><trkpt lat="45.7193505" lon="9.4104495"><ele>299.0</ele><time>2026-04-19T15:41:27.351Z</time></trkpt><trkpt lat="45.7194588" lon="9.4105686"><ele>299.0</ele><time>2026-04-19T15:41:28.333Z</time></trkpt><trkpt lat="45.7195653" lon="9.4106847"><ele>299.0</ele><time>2026-04-19T15:41:29.332Z</time></trkpt><trkpt lat="45.7196792" lon="9.4107911"><ele>298.25</ele><time>2026-04-19T15:41:30.34Z</time></trkpt><trkpt lat="45.7197855" lon="9.4109058"><ele>297.5</ele><time>2026-04-19T15:41:31.312Z</time></trkpt><trkpt lat="45.7198927" lon="9.4110177"><ele>296.75</ele><time>2026-04-19T15:41:32.34Z</time></trkpt><trkpt lat="45.7199929" lon="9.4111235"><ele>296.0</ele><time>2026-04-19T15:41:33.344Z</time></trkpt><trkpt lat="45.7200916" lon="9.4112318"><ele>296.0</ele><time>2026-04-19T15:41:34.345Z</time></trkpt><trkpt lat="45.7201885" lon="9.4113436"><ele>296.0</ele><time>2026-04-19T15:41:35.359Z</time></trkpt><trkpt lat="45.7202856" lon="9.4114469"><ele>296.0</ele><time>2026-04-19T15:41:36.347Z</time></trkpt><trkpt lat="45.7203829" lon="9.4115482"><ele>296.0</ele><time>2026-04-19T15:41:37.357Z</time></trkpt><trkpt lat="45.720478" lon="9.4116481"><ele>296.0</ele><time>2026-04-19T15:41:38.324Z</time></trkpt><trkpt lat="45.7205705" lon="9.4117481"><ele>296.0</ele><time>2026-04-19T15:41:39.336Z</time></trkpt><trkpt lat="45.7206669" lon="9.4118449"><ele>296.0</ele><time>2026-04-19T15:41:40.334Z</time></trkpt><trkpt lat="45.7207684" lon="9.4119498"><ele>296.0</ele><time>2026-04-19T15:41:41.337Z</time></trkpt><trkpt lat="45.7208624" lon="9.4120581"><ele>295.8</ele><time>2026-04-19T15:41:42.336Z</time></trkpt><trkpt lat="45.7209603" lon="9.4121573"><ele>295.6</ele><time>2026-04-19T15:41:43.339Z</time></trkpt><trkpt lat="45.7210506" lon="9.4122622"><ele>295.4</ele><time>2026-04-19T15:41:44.334Z</time></trkpt><trkpt lat="45.7211355" lon="9.4123458"><ele>295.2</ele><time>2026-04-19T15:41:45.333Z</time></trkpt><trkpt lat="45.7212143" lon="9.4124241"><ele>295.0</ele><time>2026-04-19T15:41:46.349Z</time></trkpt><trkpt lat="45.7212919" lon="9.4125017"><ele>294.0</ele><time>2026-04-19T15:41:47.334Z</time></trkpt><trkpt lat="45.7213591" lon="9.4125764"><ele>293.0</ele><time>2026-04-19T15:41:48.341Z</time></trkpt><trkpt lat="45.7214172" lon="9.4126391"><ele>292.0</ele><time>2026-04-19T15:41:49.314Z</time></trkpt><trkpt lat="45.7215015" lon="9.4127304"><ele>291.0</ele><time>2026-04-19T15:41:51.316Z</time></trkpt><trkpt lat="45.7215697" lon="9.4128433"><ele>290.0</ele><time>2026-04-19T15:41:53.34Z</time></trkpt><trkpt lat="45.721599" lon="9.4129586"><ele>290.0</ele><time>2026-04-19T15:41:55.335Z</time></trkpt><trkpt lat="45.7216415" lon="9.4130897"><ele>290.0</ele><time>2026-04-19T15:41:57.319Z</time></trkpt><trkpt lat="45.7217123" lon="9.4132085"><ele>290.0</ele><time>2026-04-19T15:41:59.347Z</time></trkpt><trkpt lat="45.7218196" lon="9.4132219"><ele>290.0</ele><time>2026-04-19T15:42:01.335Z</time></trkpt><trkpt lat="45.721899" lon="9.4132186"><ele>290.0</ele><time>2026-04-19T15:42:02.334Z</time></trkpt><trkpt lat="45.7219756" lon="9.413245"><ele>289.6666666666667</ele><time>2026-04-19T15:42:03.333Z</time></trkpt><trkpt lat="45.722052" lon="9.4132759"><ele>289.33333333333337</ele><time>2026-04-19T15:42:04.339Z</time></trkpt><trkpt lat="45.7221354" lon="9.4133228"><ele>289.0</ele><time>2026-04-19T15:42:05.343Z</time></trkpt><trkpt lat="45.7222067" lon="9.4133933"><ele>288.6666666666667</ele><time>2026-04-19T15:42:06.353Z</time></trkpt><trkpt lat="45.7222725" lon="9.4134695"><ele>288.3333333333333</ele><time>2026-04-19T15:42:07.355Z</time></trkpt><trkpt lat="45.7223496" lon="9.4135471"><ele>288.0</ele><time>2026-04-19T15:42:08.353Z</time></trkpt><trkpt lat="45.7224268" lon="9.4136333"><ele>288.0</ele><time>2026-04-19T15:42:09.351Z</time></trkpt><trkpt lat="45.7225044" lon="9.4137176"><ele>288.0</ele><time>2026-04-19T15:42:10.328Z</time></trkpt><trkpt lat="45.7225829" lon="9.4137963"><ele>288.0</ele><time>2026-04-19T15:42:11.334Z</time></trkpt><trkpt lat="45.7226602" lon="9.4138791"><ele>288.0</ele><time>2026-04-19T15:42:12.335Z</time></trkpt><trkpt lat="45.7227379" lon="9.4139634"><ele>288.0</ele><time>2026-04-19T15:42:13.343Z</time></trkpt><trkpt lat="45.7228157" lon="9.4140356"><ele>287.6666666666667</ele><time>2026-04-19T15:42:14.344Z</time></trkpt><trkpt lat="45.72289" lon="9.4141174"><ele>287.3333333333333</ele><time>2026-04-19T15:42:15.347Z</time></trkpt><trkpt lat="45.7229621" lon="9.414197"><ele>287.0</ele><time>2026-04-19T15:42:16.335Z</time></trkpt><trkpt lat="45.7230342" lon="9.4142769"><ele>286.66666666666663</ele><time>2026-04-19T15:42:17.346Z</time></trkpt><trkpt lat="45.7231048" lon="9.4143601"><ele>286.3333333333333</ele><time>2026-04-19T15:42:18.338Z</time></trkpt><trkpt lat="45.7231697" lon="9.4144234"><ele>286.0</ele><time>2026-04-19T15:42:19.357Z</time></trkpt><trkpt lat="45.7232346" lon="9.4144872"><ele>286.0</ele><time>2026-04-19T15:42:20.348Z</time></trkpt><trkpt lat="45.7232831" lon="9.4145569"><ele>286.0</ele><time>2026-04-19T15:42:21.337Z</time></trkpt><trkpt lat="45.7233665" lon="9.4146283"><ele>286.0</ele><time>2026-04-19T15:42:23.352Z</time></trkpt><trkpt lat="45.7234173" lon="9.4147002"><ele>286.0</ele><time>2026-04-19T15:42:27.351Z</time></trkpt><trkpt lat="45.7234751" lon="9.4148002"><ele>286.0</ele><time>2026-04-19T15:42:41.33Z</time></trkpt><trkpt lat="45.7235342" lon="9.4148492"><ele>286.0</ele><time>2026-04-19T15:42:43.339Z</time></trkpt><trkpt lat="45.7235976" lon="9.4149075"><ele>285.66666666666663</ele><time>2026-04-19T15:42:45.342Z</time></trkpt><trkpt lat="45.7236515" lon="9.4149639"><ele>285.3333333333333</ele><time>2026-04-19T15:42:47.33Z</time></trkpt><trkpt lat="45.7237304" lon="9.4150478"><ele>285.0</ele><time>2026-04-19T15:42:50.35Z</time></trkpt><trkpt lat="45.7237938" lon="9.4151281"><ele>284.6666666666667</ele><time>2026-04-19T15:42:52.315Z</time></trkpt><trkpt lat="45.7238572" lon="9.4151971"><ele>284.33333333333337</ele><time>2026-04-19T15:42:54.342Z</time></trkpt><trkpt lat="45.7239249" lon="9.4152588"><ele>284.0</ele><time>2026-04-19T15:42:56.336Z</time></trkpt><trkpt lat="45.7239914" lon="9.4153371"><ele>284.0</ele><time>2026-04-19T15:42:58.331Z</time></trkpt><trkpt lat="45.7240625" lon="9.4153987"><ele>284.0</ele><time>2026-04-19T15:43:00.314Z</time></trkpt><trkpt lat="45.7241226" lon="9.4154537"><ele>284.0</ele><time>2026-04-19T15:43:02.318Z</time></trkpt><trkpt lat="45.7241578" lon="9.4155316"><ele>284.0</ele><time>2026-04-19T15:43:07.33Z</time></trkpt><trkpt lat="45.7242282" lon="9.4156088"><ele>284.0</ele><time>2026-04-19T15:43:12.33Z</time></trkpt><trkpt lat="45.7242823" lon="9.4156734"><ele>284.0</ele><time>2026-04-19T15:43:14.337Z</time></trkpt><trkpt lat="45.7243617" lon="9.4157387"><ele>284.0</ele><time>2026-04-19T15:43:17.324Z</time></trkpt><trkpt lat="45.7244162" lon="9.4157953"><ele>284.0</ele><time>2026-04-19T15:43:19.324Z</time></trkpt><trkpt lat="45.7244885" lon="9.4158383"><ele>284.0</ele><time>2026-04-19T15:43:21.339Z</time></trkpt><trkpt lat="45.7245517" lon="9.4158949"><ele>284.0</ele><time>2026-04-19T15:43:23.331Z</time></trkpt><trkpt lat="45.7246106" lon="9.4159344"><ele>284.0</ele><time>2026-04-19T15:43:25.318Z</time></trkpt><trkpt lat="45.7246833" lon="9.4160032"><ele>284.0</ele><time>2026-04-19T15:43:27.319Z</time></trkpt><trkpt lat="45.7247594" lon="9.416027"><ele>284.0</ele><time>2026-04-19T15:43:28.318Z</time></trkpt><trkpt lat="45.7248987" lon="9.4160025"><ele>284.0</ele><time>2026-04-19T15:43:30.344Z</time></trkpt><trkpt lat="45.7249722" lon="9.4159502"><ele>284.0</ele><time>2026-04-19T15:43:31.341Z</time></trkpt><trkpt lat="45.7250562" lon="9.415894"><ele>284.0</ele><time>2026-04-19T15:43:32.328Z</time></trkpt><trkpt lat="45.7251473" lon="9.41584"><ele>284.0</ele><time>2026-04-19T15:43:33.344Z</time></trkpt><trkpt lat="45.7252458" lon="9.415789"><ele>283.2</ele><time>2026-04-19T15:43:34.333Z</time></trkpt><trkpt lat="45.7253469" lon="9.4157488"><ele>282.4</ele><time>2026-04-19T15:43:35.309Z</time></trkpt><trkpt lat="45.7254457" lon="9.4157057"><ele>281.6</ele><time>2026-04-19T15:43:36.337Z</time></trkpt><trkpt lat="45.725546" lon="9.4156651"><ele>280.8</ele><time>2026-04-19T15:43:37.332Z</time></trkpt><trkpt lat="45.7256379" lon="9.4156378"><ele>280.0</ele><time>2026-04-19T15:43:38.342Z</time></trkpt><trkpt lat="45.725726" lon="9.4156062"><ele>280.0</ele><time>2026-04-19T15:43:39.344Z</time></trkpt><trkpt lat="45.7258031" lon="9.4155859"><ele>280.0</ele><time>2026-04-19T15:43:40.346Z</time></trkpt><trkpt lat="45.7258767" lon="9.4155714"><ele>280.0</ele><time>2026-04-19T15:43:41.351Z</time></trkpt><trkpt lat="45.7259459" lon="9.4155737"><ele>280.0</ele><time>2026-04-19T15:43:42.326Z</time></trkpt><trkpt lat="45.7260208" lon="9.415558"><ele>280.0</ele><time>2026-04-19T15:43:43.343Z</time></trkpt><trkpt lat="45.7260946" lon="9.4155544"><ele>280.0</ele><time>2026-04-19T15:43:44.332Z</time></trkpt><trkpt lat="45.7261777" lon="9.4155461"><ele>280.2</ele><time>2026-04-19T15:43:45.311Z</time></trkpt><trkpt lat="45.7262601" lon="9.4155388"><ele>280.4</ele><time>2026-04-19T15:43:46.323Z</time></trkpt><trkpt lat="45.7263513" lon="9.4155356"><ele>280.6</ele><time>2026-04-19T15:43:47.34Z</time></trkpt><trkpt lat="45.7264488" lon="9.4155305"><ele>280.8</ele><time>2026-04-19T15:43:48.33Z</time></trkpt><trkpt lat="45.7265391" lon="9.4155322"><ele>281.0</ele><time>2026-04-19T15:43:49.347Z</time></trkpt><trkpt lat="45.7266439" lon="9.4155441"><ele>281.0</ele><time>2026-04-19T15:43:50.339Z</time></trkpt><trkpt lat="45.7267449" lon="9.4155627"><ele>281.0</ele><time>2026-04-19T15:43:51.337Z</time></trkpt><trkpt lat="45.7268541" lon="9.4155881"><ele>281.0</ele><time>2026-04-19T15:43:52.347Z</time></trkpt><trkpt lat="45.7269659" lon="9.4156126"><ele>281.0</ele><time>2026-04-19T15:43:53.342Z</time></trkpt><trkpt lat="45.727098" lon="9.4156422"><ele>279.0</ele><time>2026-04-19T15:43:54.346Z</time></trkpt><trkpt lat="45.72722" lon="9.415673"><ele>277.0</ele><time>2026-04-19T15:43:55.346Z</time></trkpt><trkpt lat="45.7273346" lon="9.415715"><ele>275.0</ele><time>2026-04-19T15:43:56.352Z</time></trkpt><trkpt lat="45.7274543" lon="9.4157573"><ele>273.0</ele><time>2026-04-19T15:43:57.329Z</time></trkpt><trkpt lat="45.7275717" lon="9.4158109"><ele>273.0</ele><time>2026-04-19T15:43:58.36Z</time></trkpt><trkpt lat="45.727695" lon="9.4158783"><ele>273.0</ele><time>2026-04-19T15:43:59.343Z</time></trkpt><trkpt lat="45.7278183" lon="9.4159537"><ele>273.0</ele><time>2026-04-19T15:44:00.346Z</time></trkpt><trkpt lat="45.7279309" lon="9.4160294"><ele>273.0</ele><time>2026-04-19T15:44:01.339Z</time></trkpt><trkpt lat="45.7280451" lon="9.4161126"><ele>274.0</ele><time>2026-04-19T15:44:02.316Z</time></trkpt><trkpt lat="45.7281565" lon="9.4162067"><ele>275.0</ele><time>2026-04-19T15:44:03.331Z</time></trkpt><trkpt lat="45.7282622" lon="9.4163148"><ele>276.0</ele><time>2026-04-19T15:44:04.338Z</time></trkpt><trkpt lat="45.7283749" lon="9.4164237"><ele>277.0</ele><time>2026-04-19T15:44:05.344Z</time></trkpt><trkpt lat="45.7284826" lon="9.4165438"><ele>273.5</ele><time>2026-04-19T15:44:06.344Z</time></trkpt><trkpt lat="45.7285892" lon="9.4166739"><ele>270.0</ele><time>2026-04-19T15:44:07.353Z</time></trkpt><trkpt lat="45.7286881" lon="9.4168177"><ele>266.5</ele><time>2026-04-19T15:44:08.345Z</time></trkpt><trkpt lat="45.72878" lon="9.4169584"><ele>263.0</ele><time>2026-04-19T15:44:09.331Z</time></trkpt><trkpt lat="45.7288746" lon="9.4171036"><ele>263.75</ele><time>2026-04-19T15:44:10.343Z</time></trkpt><trkpt lat="45.7289682" lon="9.4172512"><ele>264.5</ele><time>2026-04-19T15:44:11.332Z</time></trkpt><trkpt lat="45.7290725" lon="9.4173985"><ele>265.25</ele><time>2026-04-19T15:44:12.333Z</time></trkpt><trkpt lat="45.7291676" lon="9.4175412"><ele>266.0</ele><time>2026-04-19T15:44:13.335Z</time></trkpt><trkpt lat="45.7292661" lon="9.4176802"><ele>266.0</ele><time>2026-04-19T15:44:14.342Z</time></trkpt><trkpt lat="45.7293819" lon="9.4177936"><ele>266.0</ele><time>2026-04-19T15:44:15.334Z</time></trkpt><trkpt lat="45.7295067" lon="9.4179045"><ele>266.0</ele><time>2026-04-19T15:44:16.301Z</time></trkpt><trkpt lat="45.7296299" lon="9.418003"><ele>266.0</ele><time>2026-04-19T15:44:17.328Z</time></trkpt><trkpt lat="45.7297554" lon="9.418098"><ele>265.25</ele><time>2026-04-19T15:44:18.315Z</time></trkpt><trkpt lat="45.7298766" lon="9.4181944"><ele>264.5</ele><time>2026-04-19T15:44:19.334Z</time></trkpt><trkpt lat="45.7299999" lon="9.4182958"><ele>263.75</ele><time>2026-04-19T15:44:20.34Z</time></trkpt><trkpt lat="45.7301223" lon="9.4184038"><ele>263.0</ele><time>2026-04-19T15:44:21.332Z</time></trkpt><trkpt lat="45.7302419" lon="9.41852"><ele>262.5</ele><time>2026-04-19T15:44:22.339Z</time></trkpt><trkpt lat="45.7303581" lon="9.4186345"><ele>262.0</ele><time>2026-04-19T15:44:23.317Z</time></trkpt><trkpt lat="45.730482" lon="9.41875"><ele>261.5</ele><time>2026-04-19T15:44:24.336Z</time></trkpt><trkpt lat="45.7306035" lon="9.418866"><ele>261.0</ele><time>2026-04-19T15:44:25.337Z</time></trkpt><trkpt lat="45.7307248" lon="9.4189852"><ele>261.0</ele><time>2026-04-19T15:44:26.337Z</time></trkpt><trkpt lat="45.7308516" lon="9.4190945"><ele>261.0</ele><time>2026-04-19T15:44:27.318Z</time></trkpt><trkpt lat="45.7309636" lon="9.4192029"><ele>261.0</ele><time>2026-04-19T15:44:28.333Z</time></trkpt><trkpt lat="45.7310781" lon="9.4193128"><ele>261.0</ele><time>2026-04-19T15:44:29.335Z</time></trkpt><trkpt lat="45.731186" lon="9.4194151"><ele>260.5</ele><time>2026-04-19T15:44:30.342Z</time></trkpt><trkpt lat="45.7312969" lon="9.419519"><ele>260.0</ele><time>2026-04-19T15:44:31.344Z</time></trkpt><trkpt lat="45.7314029" lon="9.4196189"><ele>259.5</ele><time>2026-04-19T15:44:32.337Z</time></trkpt><trkpt lat="45.7315122" lon="9.4197187"><ele>259.0</ele><time>2026-04-19T15:44:33.327Z</time></trkpt><trkpt lat="45.7316352" lon="9.4198144"><ele>259.0</ele><time>2026-04-19T15:44:34.335Z</time></trkpt><trkpt lat="45.7317553" lon="9.4198873"><ele>259.0</ele><time>2026-04-19T15:44:35.346Z</time></trkpt><trkpt lat="45.7318754" lon="9.4199126"><ele>259.0</ele><time>2026-04-19T15:44:36.342Z</time></trkpt><trkpt lat="45.7319927" lon="9.4199074"><ele>259.0</ele><time>2026-04-19T15:44:37.351Z</time></trkpt><trkpt lat="45.7321162" lon="9.4198664"><ele>257.75</ele><time>2026-04-19T15:44:38.338Z</time></trkpt><trkpt lat="45.7322385" lon="9.4197985"><ele>256.5</ele><time>2026-04-19T15:44:39.334Z</time></trkpt><trkpt lat="45.7323551" lon="9.4197001"><ele>255.25</ele><time>2026-04-19T15:44:40.341Z</time></trkpt><trkpt lat="45.7324728" lon="9.4195917"><ele>254.0</ele><time>2026-04-19T15:44:41.339Z</time></trkpt><trkpt lat="45.7325606" lon="9.4194528"><ele>253.75</ele><time>2026-04-19T15:44:42.332Z</time></trkpt><trkpt lat="45.7326385" lon="9.4192903"><ele>253.5</ele><time>2026-04-19T15:44:43.338Z</time></trkpt><trkpt lat="45.7326865" lon="9.4191033"><ele>253.25</ele><time>2026-04-19T15:44:44.374Z</time></trkpt><trkpt lat="45.7327088" lon="9.4188971"><ele>253.0</ele><time>2026-04-19T15:44:45.331Z</time></trkpt><trkpt lat="45.7327335" lon="9.4187092"><ele>253.0</ele><time>2026-04-19T15:44:46.328Z</time></trkpt><trkpt lat="45.7327545" lon="9.4185065"><ele>253.0</ele><time>2026-04-19T15:44:47.342Z</time></trkpt><trkpt lat="45.7327685" lon="9.4183082"><ele>253.0</ele><time>2026-04-19T15:44:48.34Z</time></trkpt><trkpt lat="45.7327874" lon="9.4181113"><ele>253.0</ele><time>2026-04-19T15:44:49.342Z</time></trkpt><trkpt lat="45.7328106" lon="9.4179227"><ele>250.75</ele><time>2026-04-19T15:44:50.339Z</time></trkpt><trkpt lat="45.7328318" lon="9.4177374"><ele>248.5</ele><time>2026-04-19T15:44:51.327Z</time></trkpt><trkpt lat="45.732891" lon="9.4175594"><ele>246.25</ele><time>2026-04-19T15:44:52.337Z</time></trkpt><trkpt lat="45.7329743" lon="9.4174021"><ele>244.0</ele><time>2026-04-19T15:44:53.349Z</time></trkpt><trkpt lat="45.7330691" lon="9.4172815"><ele>244.0</ele><time>2026-04-19T15:44:54.345Z</time></trkpt><trkpt lat="45.7331898" lon="9.4171997"><ele>244.0</ele><time>2026-04-19T15:44:55.336Z</time></trkpt><trkpt lat="45.7333163" lon="9.4171058"><ele>244.0</ele><time>2026-04-19T15:44:56.308Z</time></trkpt><trkpt lat="45.7334723" lon="9.4170799"><ele>244.0</ele><time>2026-04-19T15:44:57.293Z</time></trkpt><trkpt lat="45.733619" lon="9.4170941"><ele>241.25</ele><time>2026-04-19T15:44:58.314Z</time></trkpt><trkpt lat="45.7337822" lon="9.4171289"><ele>238.5</ele><time>2026-04-19T15:44:59.334Z</time></trkpt><trkpt lat="45.733923" lon="9.4171857"><ele>235.75</ele><time>2026-04-19T15:45:00.337Z</time></trkpt><trkpt lat="45.7340271" lon="9.4172626"><ele>233.0</ele><time>2026-04-19T15:45:01.344Z</time></trkpt><trkpt lat="45.7341262" lon="9.4173418"><ele>233.0</ele><time>2026-04-19T15:45:02.328Z</time></trkpt><trkpt lat="45.7342105" lon="9.417444"><ele>233.0</ele><time>2026-04-19T15:45:03.341Z</time></trkpt><trkpt lat="45.7343095" lon="9.4175524"><ele>233.0</ele><time>2026-04-19T15:45:04.34Z</time></trkpt><trkpt lat="45.7343957" lon="9.4176663"><ele>233.0</ele><time>2026-04-19T15:45:05.346Z</time></trkpt><trkpt lat="45.7344715" lon="9.417773"><ele>231.50000000000003</ele><time>2026-04-19T15:45:06.344Z</time></trkpt><trkpt lat="45.7345285" lon="9.4178825"><ele>230.0</ele><time>2026-04-19T15:45:07.334Z</time></trkpt><trkpt lat="45.7345664" lon="9.4179933"><ele>228.5</ele><time>2026-04-19T15:45:08.339Z</time></trkpt><trkpt lat="45.7345787" lon="9.4181112"><ele>227.0</ele><time>2026-04-19T15:45:09.345Z</time></trkpt><trkpt lat="45.7345965" lon="9.418224"><ele>225.50000000000003</ele><time>2026-04-19T15:45:10.348Z</time></trkpt><trkpt lat="45.7346378" lon="9.4183244"><ele>224.0</ele><time>2026-04-19T15:45:11.329Z</time></trkpt><trkpt lat="45.7347045" lon="9.418395"><ele>224.00000000000003</ele><time>2026-04-19T15:45:12.327Z</time></trkpt><trkpt lat="45.7347795" lon="9.4184256"><ele>224.0</ele><time>2026-04-19T15:45:13.343Z</time></trkpt><trkpt lat="45.7348542" lon="9.4184278"><ele>224.0</ele><time>2026-04-19T15:45:14.356Z</time></trkpt><trkpt lat="45.7349264" lon="9.4184071"><ele>224.0</ele><time>2026-04-19T15:45:15.339Z</time></trkpt><trkpt lat="45.7349921" lon="9.4184089"><ele>224.00000000000003</ele><time>2026-04-19T15:45:16.339Z</time></trkpt><trkpt lat="45.7350693" lon="9.4184433"><ele>224.0</ele><time>2026-04-19T15:45:17.344Z</time></trkpt><trkpt lat="45.7351672" lon="9.4185193"><ele>223.0</ele><time>2026-04-19T15:45:18.348Z</time></trkpt><trkpt lat="45.7352649" lon="9.4186052"><ele>222.0</ele><time>2026-04-19T15:45:19.349Z</time></trkpt><trkpt lat="45.7353688" lon="9.4186868"><ele>221.0</ele><time>2026-04-19T15:45:20.337Z</time></trkpt><trkpt lat="45.7354753" lon="9.4187738"><ele>220.0</ele><time>2026-04-19T15:45:21.327Z</time></trkpt><trkpt lat="45.7356024" lon="9.4188712"><ele>220.0</ele><time>2026-04-19T15:45:22.333Z</time></trkpt><trkpt lat="45.7357241" lon="9.4189628"><ele>220.0</ele><time>2026-04-19T15:45:23.327Z</time></trkpt><trkpt lat="45.7358483" lon="9.4190699"><ele>220.0</ele><time>2026-04-19T15:45:24.35Z</time></trkpt><trkpt lat="45.7359749" lon="9.4191764"><ele>220.0</ele><time>2026-04-19T15:45:25.342Z</time></trkpt><trkpt lat="45.7360943" lon="9.4192808"><ele>220.0</ele><time>2026-04-19T15:45:26.33Z</time></trkpt><trkpt lat="45.7362111" lon="9.4193846"><ele>220.0</ele><time>2026-04-19T15:45:27.337Z</time></trkpt><trkpt lat="45.7363266" lon="9.4194939"><ele>220.0</ele><time>2026-04-19T15:45:28.342Z</time></trkpt><trkpt lat="45.7364497" lon="9.4195985"><ele>220.0</ele><time>2026-04-19T15:45:29.349Z</time></trkpt><trkpt lat="45.7365739" lon="9.419708"><ele>220.0</ele><time>2026-04-19T15:45:30.342Z</time></trkpt><trkpt lat="45.7367001" lon="9.4198068"><ele>220.0</ele><time>2026-04-19T15:45:31.336Z</time></trkpt><trkpt lat="45.7368307" lon="9.419899"><ele>220.0</ele><time>2026-04-19T15:45:32.324Z</time></trkpt><trkpt lat="45.7369579" lon="9.4199974"><ele>220.0</ele><time>2026-04-19T15:45:33.332Z</time></trkpt><trkpt lat="45.7370822" lon="9.4201051"><ele>220.33333333333331</ele><time>2026-04-19T15:45:34.34Z</time></trkpt><trkpt lat="45.7372106" lon="9.4202054"><ele>220.66666666666669</ele><time>2026-04-19T15:45:35.358Z</time></trkpt><trkpt lat="45.7373407" lon="9.4203088"><ele>221.0</ele><time>2026-04-19T15:45:36.341Z</time></trkpt><trkpt lat="45.737478" lon="9.4204105"><ele>220.33333333333334</ele><time>2026-04-19T15:45:37.332Z</time></trkpt><trkpt lat="45.7376175" lon="9.4205144"><ele>219.66666666666669</ele><time>2026-04-19T15:45:38.302Z</time></trkpt><trkpt lat="45.73775" lon="9.4206231"><ele>219.0</ele><time>2026-04-19T15:45:39.321Z</time></trkpt><trkpt lat="45.7378795" lon="9.4207245"><ele>219.0</ele><time>2026-04-19T15:45:40.343Z</time></trkpt><trkpt lat="45.7380042" lon="9.4208162"><ele>219.0</ele><time>2026-04-19T15:45:41.329Z</time></trkpt><trkpt lat="45.7381256" lon="9.4209042"><ele>219.0</ele><time>2026-04-19T15:45:42.295Z</time></trkpt><trkpt lat="45.7382489" lon="9.4209968"><ele>219.0</ele><time>2026-04-19T15:45:43.344Z</time></trkpt><trkpt lat="45.7383693" lon="9.4210961"><ele>219.0</ele><time>2026-04-19T15:45:44.328Z</time></trkpt><trkpt lat="45.7384891" lon="9.4211924"><ele>219.0</ele><time>2026-04-19T15:45:45.34Z</time></trkpt><trkpt lat="45.7386105" lon="9.4212863"><ele>219.0</ele><time>2026-04-19T15:45:46.355Z</time></trkpt><trkpt lat="45.7387303" lon="9.4213824"><ele>219.0</ele><time>2026-04-19T15:45:47.332Z</time></trkpt><trkpt lat="45.7388573" lon="9.4214835"><ele>218.5</ele><time>2026-04-19T15:45:48.308Z</time></trkpt><trkpt lat="45.7389801" lon="9.4215785"><ele>218.0</ele><time>2026-04-19T15:45:49.336Z</time></trkpt><trkpt lat="45.7391029" lon="9.421676"><ele>217.5</ele><time>2026-04-19T15:45:50.336Z</time></trkpt><trkpt lat="45.7392285" lon="9.4217699"><ele>217.0</ele><time>2026-04-19T15:45:51.349Z</time></trkpt><trkpt lat="45.7393519" lon="9.4218634"><ele>217.5</ele><time>2026-04-19T15:45:52.351Z</time></trkpt><trkpt lat="45.7394676" lon="9.4219528"><ele>218.0</ele><time>2026-04-19T15:45:53.335Z</time></trkpt><trkpt lat="45.7395944" lon="9.4220552"><ele>218.5</ele><time>2026-04-19T15:45:54.335Z</time></trkpt><trkpt lat="45.7397278" lon="9.4221586"><ele>219.0</ele><time>2026-04-19T15:45:55.358Z</time></trkpt><trkpt lat="45.7398635" lon="9.4222645"><ele>219.0</ele><time>2026-04-19T15:45:56.347Z</time></trkpt><trkpt lat="45.739984" lon="9.422356"><ele>219.0</ele><time>2026-04-19T15:45:57.358Z</time></trkpt><trkpt lat="45.7401179" lon="9.4224654"><ele>219.0</ele><time>2026-04-19T15:45:58.306Z</time></trkpt><trkpt lat="45.7402526" lon="9.4225607"><ele>219.0</ele><time>2026-04-19T15:45:59.338Z</time></trkpt><trkpt lat="45.7403896" lon="9.4226634"><ele>220.0</ele><time>2026-04-19T15:46:00.351Z</time></trkpt><trkpt lat="45.7405247" lon="9.4227647"><ele>221.0</ele><time>2026-04-19T15:46:01.337Z</time></trkpt><trkpt lat="45.740665" lon="9.4228717"><ele>222.0</ele><time>2026-04-19T15:46:02.332Z</time></trkpt><trkpt lat="45.740806" lon="9.4229764"><ele>221.0</ele><time>2026-04-19T15:46:03.336Z</time></trkpt><trkpt lat="45.7409399" lon="9.4230837"><ele>220.0</ele><time>2026-04-19T15:46:04.334Z</time></trkpt><trkpt lat="45.7410749" lon="9.4231898"><ele>219.0</ele><time>2026-04-19T15:46:05.336Z</time></trkpt><trkpt lat="45.7412096" lon="9.4232915"><ele>219.0</ele><time>2026-04-19T15:46:06.328Z</time></trkpt><trkpt lat="45.7413439" lon="9.4234007"><ele>219.0</ele><time>2026-04-19T15:46:07.332Z</time></trkpt><trkpt lat="45.7414868" lon="9.4235094"><ele>219.0</ele><time>2026-04-19T15:46:08.328Z</time></trkpt><trkpt lat="45.7416254" lon="9.423622"><ele>219.0</ele><time>2026-04-19T15:46:09.339Z</time></trkpt><trkpt lat="45.74178" lon="9.4237263"><ele>219.0</ele><time>2026-04-19T15:46:10.338Z</time></trkpt><trkpt lat="45.7419301" lon="9.4238192"><ele>219.0</ele><time>2026-04-19T15:46:11.344Z</time></trkpt><trkpt lat="45.7420778" lon="9.4239066"><ele>218.0</ele><time>2026-04-19T15:46:12.338Z</time></trkpt><trkpt lat="45.742226" lon="9.4239985"><ele>217.0</ele><time>2026-04-19T15:46:13.344Z</time></trkpt><trkpt lat="45.7423819" lon="9.4240758"><ele>216.0</ele><time>2026-04-19T15:46:14.326Z</time></trkpt><trkpt lat="45.7425343" lon="9.4241601"><ele>216.0</ele><time>2026-04-19T15:46:15.313Z</time></trkpt><trkpt lat="45.742686" lon="9.4242458"><ele>216.0</ele><time>2026-04-19T15:46:16.322Z</time></trkpt><trkpt lat="45.7428426" lon="9.4243332"><ele>216.0</ele><time>2026-04-19T15:46:17.338Z</time></trkpt><trkpt lat="45.7430014" lon="9.4244187"><ele>215.33333333333331</ele><time>2026-04-19T15:46:18.313Z</time></trkpt><trkpt lat="45.7431617" lon="9.4245016"><ele>214.66666666666666</ele><time>2026-04-19T15:46:19.344Z</time></trkpt><trkpt lat="45.7433181" lon="9.4245945"><ele>214.0</ele><time>2026-04-19T15:46:20.323Z</time></trkpt><trkpt lat="45.743477" lon="9.424688"><ele>215.33333333333331</ele><time>2026-04-19T15:46:21.341Z</time></trkpt><trkpt lat="45.7436391" lon="9.4247793"><ele>216.66666666666669</ele><time>2026-04-19T15:46:22.326Z</time></trkpt><trkpt lat="45.7437955" lon="9.4248671"><ele>218.0</ele><time>2026-04-19T15:46:23.32Z</time></trkpt><trkpt lat="45.7439567" lon="9.4249531"><ele>218.0</ele><time>2026-04-19T15:46:24.333Z</time></trkpt><trkpt lat="45.7441138" lon="9.4250438"><ele>218.0</ele><time>2026-04-19T15:46:25.342Z</time></trkpt><trkpt lat="45.7442737" lon="9.4251292"><ele>218.0</ele><time>2026-04-19T15:46:26.301Z</time></trkpt><trkpt lat="45.744434" lon="9.4252215"><ele>219.33333333333334</ele><time>2026-04-19T15:46:27.323Z</time></trkpt><trkpt lat="45.7445948" lon="9.4253054"><ele>220.66666666666669</ele><time>2026-04-19T15:46:28.331Z</time></trkpt><trkpt lat="45.7447511" lon="9.4253873"><ele>222.0</ele><time>2026-04-19T15:46:29.342Z</time></trkpt><trkpt lat="45.7449114" lon="9.4254799"><ele>220.0</ele><time>2026-04-19T15:46:30.333Z</time></trkpt><trkpt lat="45.7450632" lon="9.4255828"><ele>218.0</ele><time>2026-04-19T15:46:31.337Z</time></trkpt><trkpt lat="45.745215" lon="9.4256823"><ele>216.0</ele><time>2026-04-19T15:46:32.33Z</time></trkpt><trkpt lat="45.7453596" lon="9.4257909"><ele>216.0</ele><time>2026-04-19T15:46:33.334Z</time></trkpt><trkpt lat="45.7455048" lon="9.4258867"><ele>216.0</ele><time>2026-04-19T15:46:34.315Z</time></trkpt><trkpt lat="45.7456482" lon="9.4259654"><ele>216.0</ele><time>2026-04-19T15:46:35.336Z</time></trkpt><trkpt lat="45.7457966" lon="9.426038"><ele>216.0</ele><time>2026-04-19T15:46:36.351Z</time></trkpt><trkpt lat="45.7459516" lon="9.4260901"><ele>216.0</ele><time>2026-04-19T15:46:37.306Z</time></trkpt><trkpt lat="45.7461071" lon="9.4261279"><ele>216.0</ele><time>2026-04-19T15:46:38.346Z</time></trkpt><trkpt lat="45.7462663" lon="9.4261477"><ele>216.0</ele><time>2026-04-19T15:46:39.323Z</time></trkpt><trkpt lat="45.746429" lon="9.4261539"><ele>216.0</ele><time>2026-04-19T15:46:40.325Z</time></trkpt><trkpt lat="45.7465924" lon="9.4261493"><ele>216.0</ele><time>2026-04-19T15:46:41.323Z</time></trkpt><trkpt lat="45.746765" lon="9.4261538"><ele>216.66666666666669</ele><time>2026-04-19T15:46:42.338Z</time></trkpt><trkpt lat="45.7469251" lon="9.4261653"><ele>217.33333333333334</ele><time>2026-04-19T15:46:43.33Z</time></trkpt><trkpt lat="45.7470872" lon="9.426184"><ele>218.0</ele><time>2026-04-19T15:46:44.335Z</time></trkpt><trkpt lat="45.7472428" lon="9.4261978"><ele>218.0</ele><time>2026-04-19T15:46:45.334Z</time></trkpt><trkpt lat="45.7473951" lon="9.4262114"><ele>218.0</ele><time>2026-04-19T15:46:46.326Z</time></trkpt><trkpt lat="45.7475431" lon="9.4262315"><ele>218.0</ele><time>2026-04-19T15:46:47.343Z</time></trkpt><trkpt lat="45.7476915" lon="9.4262436"><ele>217.25</ele><time>2026-04-19T15:46:48.33Z</time></trkpt><trkpt lat="45.7478365" lon="9.426253"><ele>216.5</ele><time>2026-04-19T15:46:49.316Z</time></trkpt><trkpt lat="45.7479859" lon="9.4262755"><ele>215.75</ele><time>2026-04-19T15:46:50.346Z</time></trkpt><trkpt lat="45.7481313" lon="9.4262862"><ele>215.0</ele><time>2026-04-19T15:46:51.335Z</time></trkpt><trkpt lat="45.7482885" lon="9.4263057"><ele>213.75</ele><time>2026-04-19T15:46:52.329Z</time></trkpt><trkpt lat="45.7484411" lon="9.4263202"><ele>212.5</ele><time>2026-04-19T15:46:53.328Z</time></trkpt><trkpt lat="45.7485894" lon="9.4263425"><ele>211.25</ele><time>2026-04-19T15:46:54.326Z</time></trkpt><trkpt lat="45.7487312" lon="9.426359"><ele>210.0</ele><time>2026-04-19T15:46:55.347Z</time></trkpt><trkpt lat="45.748881" lon="9.4263737"><ele>210.0</ele><time>2026-04-19T15:46:56.342Z</time></trkpt><trkpt lat="45.7490334" lon="9.4263918"><ele>210.0</ele><time>2026-04-19T15:46:57.334Z</time></trkpt><trkpt lat="45.7491663" lon="9.4264002"><ele>210.0</ele><time>2026-04-19T15:46:58.337Z</time></trkpt><trkpt lat="45.749313" lon="9.4264181"><ele>210.0</ele><time>2026-04-19T15:46:59.34Z</time></trkpt><trkpt lat="45.7494504" lon="9.4264324"><ele>209.75</ele><time>2026-04-19T15:47:00.331Z</time></trkpt><trkpt lat="45.749587" lon="9.4264503"><ele>209.5</ele><time>2026-04-19T15:47:01.331Z</time></trkpt><trkpt lat="45.7497138" lon="9.4264608"><ele>209.25</ele><time>2026-04-19T15:47:02.328Z</time></trkpt><trkpt lat="45.7498438" lon="9.4264787"><ele>209.0</ele><time>2026-04-19T15:47:03.344Z</time></trkpt><trkpt lat="45.7499536" lon="9.4264966"><ele>209.00000000000003</ele><time>2026-04-19T15:47:04.333Z</time></trkpt><trkpt lat="45.7500543" lon="9.4265096"><ele>209.0</ele><time>2026-04-19T15:47:05.343Z</time></trkpt><trkpt lat="45.7501341" lon="9.4265216"><ele>209.0</ele><time>2026-04-19T15:47:06.34Z</time></trkpt><trkpt lat="45.7502083" lon="9.4265492"><ele>209.0</ele><time>2026-04-19T15:47:07.334Z</time></trkpt><trkpt lat="45.750269" lon="9.4265774"><ele>209.00000000000003</ele><time>2026-04-19T15:47:08.338Z</time></trkpt><trkpt lat="45.7503384" lon="9.426626"><ele>209.0</ele><time>2026-04-19T15:47:09.337Z</time></trkpt><trkpt lat="45.7504101" lon="9.4266783"><ele>208.83333333333334</ele><time>2026-04-19T15:47:10.338Z</time></trkpt><trkpt lat="45.7504851" lon="9.4266927"><ele>208.66666666666669</ele><time>2026-04-19T15:47:11.339Z</time></trkpt><trkpt lat="45.7505494" lon="9.4266815"><ele>208.5</ele><time>2026-04-19T15:47:12.348Z</time></trkpt><trkpt lat="45.7506119" lon="9.4266176"><ele>208.33333333333331</ele><time>2026-04-19T15:47:13.331Z</time></trkpt><trkpt lat="45.7506819" lon="9.4265819"><ele>208.16666666666666</ele><time>2026-04-19T15:47:14.334Z</time></trkpt><trkpt lat="45.7507546" lon="9.4265534"><ele>208.0</ele><time>2026-04-19T15:47:15.332Z</time></trkpt><trkpt lat="45.7508684" lon="9.4265327"><ele>208.0</ele><time>2026-04-19T15:47:16.356Z</time></trkpt><trkpt lat="45.7509842" lon="9.4265498"><ele>208.0</ele><time>2026-04-19T15:47:17.331Z</time></trkpt><trkpt lat="45.7510993" lon="9.426558"><ele>208.0</ele><time>2026-04-19T15:47:18.332Z</time></trkpt><trkpt lat="45.7512071" lon="9.4265563"><ele>208.0</ele><time>2026-04-19T15:47:19.337Z</time></trkpt><trkpt lat="45.7513227" lon="9.4265624"><ele>208.5</ele><time>2026-04-19T15:47:20.315Z</time></trkpt><trkpt lat="45.7514433" lon="9.4265647"><ele>209.0</ele><time>2026-04-19T15:47:21.335Z</time></trkpt><trkpt lat="45.751567" lon="9.4265616"><ele>209.5</ele><time>2026-04-19T15:47:22.331Z</time></trkpt><trkpt lat="45.7516992" lon="9.4265678"><ele>210.0</ele><time>2026-04-19T15:47:23.336Z</time></trkpt><trkpt lat="45.7518387" lon="9.4265692"><ele>211.0</ele><time>2026-04-19T15:47:24.335Z</time></trkpt><trkpt lat="45.7519711" lon="9.4265725"><ele>212.0</ele><time>2026-04-19T15:47:25.335Z</time></trkpt><trkpt lat="45.7521179" lon="9.4265756"><ele>213.0</ele><time>2026-04-19T15:47:26.335Z</time></trkpt><trkpt lat="45.7522603" lon="9.426582"><ele>214.0</ele><time>2026-04-19T15:47:27.334Z</time></trkpt><trkpt lat="45.7524059" lon="9.4265815"><ele>214.0</ele><time>2026-04-19T15:47:28.339Z</time></trkpt><trkpt lat="45.7525494" lon="9.4265759"><ele>214.0</ele><time>2026-04-19T15:47:29.336Z</time></trkpt><trkpt lat="45.7526943" lon="9.4265808"><ele>214.0</ele><time>2026-04-19T15:47:30.35Z</time></trkpt><trkpt lat="45.7528356" lon="9.4265818"><ele>214.0</ele><time>2026-04-19T15:47:31.321Z</time></trkpt><trkpt lat="45.7529754" lon="9.4265917"><ele>214.5</ele><time>2026-04-19T15:47:32.337Z</time></trkpt><trkpt lat="45.7531139" lon="9.4265931"><ele>215.0</ele><time>2026-04-19T15:47:33.343Z</time></trkpt><trkpt lat="45.7532596" lon="9.4266002"><ele>215.5</ele><time>2026-04-19T15:47:34.339Z</time></trkpt><trkpt lat="45.7534072" lon="9.4266113"><ele>216.0</ele><time>2026-04-19T15:47:35.31Z</time></trkpt><trkpt lat="45.7535505" lon="9.4266086"><ele>216.5</ele><time>2026-04-19T15:47:36.322Z</time></trkpt><trkpt lat="45.7536871" lon="9.4266124"><ele>217.0</ele><time>2026-04-19T15:47:37.334Z</time></trkpt><trkpt lat="45.7538273" lon="9.4266027"><ele>217.5</ele><time>2026-04-19T15:47:38.336Z</time></trkpt><trkpt lat="45.7539631" lon="9.4266017"><ele>218.0</ele><time>2026-04-19T15:47:39.345Z</time></trkpt><trkpt lat="45.7540949" lon="9.4266035"><ele>218.0</ele><time>2026-04-19T15:47:40.337Z</time></trkpt><trkpt lat="45.7542189" lon="9.4265957"><ele>218.0</ele><time>2026-04-19T15:47:41.335Z</time></trkpt><trkpt lat="45.7543354" lon="9.4265903"><ele>218.0</ele><time>2026-04-19T15:47:42.349Z</time></trkpt><trkpt lat="45.7544382" lon="9.4265829"><ele>218.0</ele><time>2026-04-19T15:47:43.34Z</time></trkpt><trkpt lat="45.7545256" lon="9.4265839"><ele>218.0</ele><time>2026-04-19T15:47:44.333Z</time></trkpt><trkpt lat="45.7546133" lon="9.4265746"><ele>218.4</ele><time>2026-04-19T15:47:45.334Z</time></trkpt><trkpt lat="45.7546815" lon="9.4265782"><ele>218.8</ele><time>2026-04-19T15:47:46.342Z</time></trkpt><trkpt lat="45.7547884" lon="9.4266326"><ele>219.2</ele><time>2026-04-19T15:47:48.345Z</time></trkpt><trkpt lat="45.7548699" lon="9.4267369"><ele>219.6</ele><time>2026-04-19T15:47:50.343Z</time></trkpt><trkpt lat="45.7549661" lon="9.4267656"><ele>220.0</ele><time>2026-04-19T15:47:52.352Z</time></trkpt><trkpt lat="45.7550736" lon="9.4267027"><ele>219.99999999999997</ele><time>2026-04-19T15:47:54.344Z</time></trkpt><trkpt lat="45.7551521" lon="9.4266764"><ele>220.0</ele><time>2026-04-19T15:47:55.344Z</time></trkpt><trkpt lat="45.7552214" lon="9.426698"><ele>220.0</ele><time>2026-04-19T15:47:56.32Z</time></trkpt><trkpt lat="45.7552974" lon="9.4267187"><ele>220.0</ele><time>2026-04-19T15:47:57.346Z</time></trkpt><trkpt lat="45.755375" lon="9.4267354"><ele>219.99999999999997</ele><time>2026-04-19T15:47:58.333Z</time></trkpt><trkpt lat="45.7554469" lon="9.4267382"><ele>220.0</ele><time>2026-04-19T15:47:59.317Z</time></trkpt><trkpt lat="45.7555192" lon="9.4267528"><ele>219.66666666666666</ele><time>2026-04-19T15:48:00.333Z</time></trkpt><trkpt lat="45.7556435" lon="9.426774"><ele>219.33333333333331</ele><time>2026-04-19T15:48:02.292Z</time></trkpt><trkpt lat="45.7557067" lon="9.4268097"><ele>219.0</ele><time>2026-04-19T15:48:03.315Z</time></trkpt><trkpt lat="45.7557667" lon="9.4268432"><ele>218.66666666666669</ele><time>2026-04-19T15:48:04.333Z</time></trkpt><trkpt lat="45.7558695" lon="9.4268286"><ele>218.33333333333334</ele><time>2026-04-19T15:48:06.335Z</time></trkpt><trkpt lat="45.7559392" lon="9.4268005"><ele>218.0</ele><time>2026-04-19T15:48:07.333Z</time></trkpt><trkpt lat="45.7560122" lon="9.4267639"><ele>218.0</ele><time>2026-04-19T15:48:08.329Z</time></trkpt><trkpt lat="45.7560935" lon="9.4267443"><ele>218.0</ele><time>2026-04-19T15:48:09.343Z</time></trkpt><trkpt lat="45.7561942" lon="9.4267336"><ele>218.0</ele><time>2026-04-19T15:48:10.344Z</time></trkpt><trkpt lat="45.7562943" lon="9.4267284"><ele>218.0</ele><time>2026-04-19T15:48:11.337Z</time></trkpt><trkpt lat="45.7563988" lon="9.4267292"><ele>218.0</ele><time>2026-04-19T15:48:12.318Z</time></trkpt><trkpt lat="45.7565018" lon="9.4267368"><ele>218.0</ele><time>2026-04-19T15:48:13.334Z</time></trkpt><trkpt lat="45.7566145" lon="9.4267479"><ele>218.0</ele><time>2026-04-19T15:48:14.357Z</time></trkpt><trkpt lat="45.7567263" lon="9.4267583"><ele>218.0</ele><time>2026-04-19T15:48:15.336Z</time></trkpt><trkpt lat="45.7568329" lon="9.4267562"><ele>218.0</ele><time>2026-04-19T15:48:16.337Z</time></trkpt><trkpt lat="45.7569333" lon="9.426761"><ele>218.0</ele><time>2026-04-19T15:48:17.318Z</time></trkpt><trkpt lat="45.7570472" lon="9.4267698"><ele>216.5</ele><time>2026-04-19T15:48:18.333Z</time></trkpt><trkpt lat="45.7571571" lon="9.4267781"><ele>215.0</ele><time>2026-04-19T15:48:19.329Z</time></trkpt><trkpt lat="45.7572718" lon="9.4267802"><ele>213.5</ele><time>2026-04-19T15:48:20.327Z</time></trkpt><trkpt lat="45.7573887" lon="9.4267858"><ele>212.0</ele><time>2026-04-19T15:48:21.327Z</time></trkpt><trkpt lat="45.7575154" lon="9.4268001"><ele>212.0</ele><time>2026-04-19T15:48:22.344Z</time></trkpt><trkpt lat="45.7576406" lon="9.4268061"><ele>212.0</ele><time>2026-04-19T15:48:23.34Z</time></trkpt><trkpt lat="45.7577678" lon="9.426813"><ele>212.0</ele><time>2026-04-19T15:48:24.335Z</time></trkpt><trkpt lat="45.7578998" lon="9.4268174"><ele>212.0</ele><time>2026-04-19T15:48:25.332Z</time></trkpt><trkpt lat="45.7580281" lon="9.4268186"><ele>212.0</ele><time>2026-04-19T15:48:26.337Z</time></trkpt><trkpt lat="45.7581651" lon="9.4268157"><ele>212.0</ele><time>2026-04-19T15:48:27.333Z</time></trkpt><trkpt lat="45.7583087" lon="9.4268232"><ele>212.0</ele><time>2026-04-19T15:48:28.347Z</time></trkpt><trkpt lat="45.7584614" lon="9.4268274"><ele>212.0</ele><time>2026-04-19T15:48:29.346Z</time></trkpt><trkpt lat="45.7586131" lon="9.4268313"><ele>214.5</ele><time>2026-04-19T15:48:30.328Z</time></trkpt><trkpt lat="45.7587572" lon="9.4268418"><ele>217.0</ele><time>2026-04-19T15:48:31.329Z</time></trkpt><trkpt lat="45.7588937" lon="9.4268413"><ele>219.5</ele><time>2026-04-19T15:48:32.337Z</time></trkpt><trkpt lat="45.7590484" lon="9.42683"><ele>222.0</ele><time>2026-04-19T15:48:33.33Z</time></trkpt><trkpt lat="45.7592014" lon="9.4268112"><ele>222.0</ele><time>2026-04-19T15:48:34.332Z</time></trkpt><trkpt lat="45.7593616" lon="9.4267999"><ele>222.0</ele><time>2026-04-19T15:48:35.336Z</time></trkpt><trkpt lat="45.7595197" lon="9.426789"><ele>222.0</ele><time>2026-04-19T15:48:36.338Z</time></trkpt><trkpt lat="45.759681" lon="9.4267813"><ele>219.33333333333331</ele><time>2026-04-19T15:48:37.321Z</time></trkpt><trkpt lat="45.759841" lon="9.4267605"><ele>216.66666666666666</ele><time>2026-04-19T15:48:38.33Z</time></trkpt><trkpt lat="45.7600031" lon="9.426741"><ele>214.0</ele><time>2026-04-19T15:48:39.321Z</time></trkpt><trkpt lat="45.7601627" lon="9.4267258"><ele>212.66666666666666</ele><time>2026-04-19T15:48:40.335Z</time></trkpt><trkpt lat="45.7603206" lon="9.4267037"><ele>211.33333333333331</ele><time>2026-04-19T15:48:41.342Z</time></trkpt><trkpt lat="45.7604757" lon="9.426691"><ele>210.0</ele><time>2026-04-19T15:48:42.329Z</time></trkpt><trkpt lat="45.7606271" lon="9.4266781"><ele>210.0</ele><time>2026-04-19T15:48:43.345Z</time></trkpt><trkpt lat="45.7607811" lon="9.4266554"><ele>210.0</ele><time>2026-04-19T15:48:44.329Z</time></trkpt><trkpt lat="45.7609415" lon="9.4266558"><ele>210.0</ele><time>2026-04-19T15:48:45.324Z</time></trkpt><trkpt lat="45.7611059" lon="9.4266445"><ele>210.33333333333331</ele><time>2026-04-19T15:48:46.338Z</time></trkpt><trkpt lat="45.7612649" lon="9.426644"><ele>210.66666666666666</ele><time>2026-04-19T15:48:47.331Z</time></trkpt><trkpt lat="45.7614174" lon="9.4266275"><ele>211.0</ele><time>2026-04-19T15:48:48.326Z</time></trkpt><trkpt lat="45.7615792" lon="9.4265932"><ele>211.0</ele><time>2026-04-19T15:48:49.32Z</time></trkpt><trkpt lat="45.7617465" lon="9.4265597"><ele>211.0</ele><time>2026-04-19T15:48:50.324Z</time></trkpt><trkpt lat="45.7618987" lon="9.4265441"><ele>211.0</ele><time>2026-04-19T15:48:51.33Z</time></trkpt><trkpt lat="45.762053" lon="9.4265181"><ele>212.0</ele><time>2026-04-19T15:48:52.336Z</time></trkpt><trkpt lat="45.7622004" lon="9.4264956"><ele>213.0</ele><time>2026-04-19T15:48:53.333Z</time></trkpt><trkpt lat="45.7623548" lon="9.426496"><ele>214.0</ele><time>2026-04-19T15:48:54.333Z</time></trkpt><trkpt lat="45.7624898" lon="9.4264854"><ele>215.0</ele><time>2026-04-19T15:48:55.341Z</time></trkpt><trkpt lat="45.762622" lon="9.4264709"><ele>212.5</ele><time>2026-04-19T15:48:56.327Z</time></trkpt><trkpt lat="45.7627687" lon="9.4264575"><ele>210.0</ele><time>2026-04-19T15:48:57.332Z</time></trkpt><trkpt lat="45.7629093" lon="9.426438"><ele>207.5</ele><time>2026-04-19T15:48:58.319Z</time></trkpt><trkpt lat="45.7630592" lon="9.4263995"><ele>205.0</ele><time>2026-04-19T15:48:59.32Z</time></trkpt><trkpt lat="45.7632141" lon="9.4263648"><ele>207.0</ele><time>2026-04-19T15:49:00.338Z</time></trkpt><trkpt lat="45.7633657" lon="9.4262993"><ele>209.0</ele><time>2026-04-19T15:49:01.349Z</time></trkpt><trkpt lat="45.7635059" lon="9.4262363"><ele>211.0</ele><time>2026-04-19T15:49:02.337Z</time></trkpt><trkpt lat="45.7636441" lon="9.4261786"><ele>213.0</ele><time>2026-04-19T15:49:03.33Z</time></trkpt><trkpt lat="45.7637938" lon="9.4261299"><ele>213.0</ele><time>2026-04-19T15:49:04.33Z</time></trkpt><trkpt lat="45.7639453" lon="9.426075"><ele>213.0</ele><time>2026-04-19T15:49:05.337Z</time></trkpt><trkpt lat="45.7640857" lon="9.4260021"><ele>213.0</ele><time>2026-04-19T15:49:06.333Z</time></trkpt><trkpt lat="45.7642242" lon="9.4259379"><ele>213.0</ele><time>2026-04-19T15:49:07.33Z</time></trkpt><trkpt lat="45.7643613" lon="9.4258713"><ele>213.0</ele><time>2026-04-19T15:49:08.321Z</time></trkpt><trkpt lat="45.7645092" lon="9.425809"><ele>213.0</ele><time>2026-04-19T15:49:09.322Z</time></trkpt><trkpt lat="45.7646598" lon="9.4257717"><ele>210.5</ele><time>2026-04-19T15:49:10.333Z</time></trkpt><trkpt lat="45.7648107" lon="9.4257164"><ele>208.0</ele><time>2026-04-19T15:49:11.333Z</time></trkpt><trkpt lat="45.764947" lon="9.4256519"><ele>205.5</ele><time>2026-04-19T15:49:12.326Z</time></trkpt><trkpt lat="45.7650887" lon="9.4256001"><ele>203.0</ele><time>2026-04-19T15:49:13.337Z</time></trkpt><trkpt lat="45.76523" lon="9.4255452"><ele>201.33333333333334</ele><time>2026-04-19T15:49:14.334Z</time></trkpt><trkpt lat="45.7653747" lon="9.4254888"><ele>199.66666666666669</ele><time>2026-04-19T15:49:15.334Z</time></trkpt><trkpt lat="45.7655245" lon="9.4254251"><ele>198.0</ele><time>2026-04-19T15:49:16.332Z</time></trkpt><trkpt lat="45.765667" lon="9.4253679"><ele>200.0</ele><time>2026-04-19T15:49:17.334Z</time></trkpt><trkpt lat="45.7658164" lon="9.4253122"><ele>202.0</ele><time>2026-04-19T15:49:18.327Z</time></trkpt><trkpt lat="45.7659522" lon="9.4252569"><ele>204.0</ele><time>2026-04-19T15:49:19.317Z</time></trkpt><trkpt lat="45.7660857" lon="9.4252023"><ele>206.0</ele><time>2026-04-19T15:49:20.325Z</time></trkpt><trkpt lat="45.7662248" lon="9.4251428"><ele>206.0</ele><time>2026-04-19T15:49:21.333Z</time></trkpt><trkpt lat="45.7663561" lon="9.4250871"><ele>206.0</ele><time>2026-04-19T15:49:22.33Z</time></trkpt><trkpt lat="45.7664918" lon="9.4250286"><ele>206.0</ele><time>2026-04-19T15:49:23.33Z</time></trkpt><trkpt lat="45.766638" lon="9.4249697"><ele>206.0</ele><time>2026-04-19T15:49:24.333Z</time></trkpt><trkpt lat="45.7667881" lon="9.4249179"><ele>205.0</ele><time>2026-04-19T15:49:25.334Z</time></trkpt><trkpt lat="45.7669385" lon="9.4248653"><ele>204.0</ele><time>2026-04-19T15:49:26.314Z</time></trkpt><trkpt lat="45.767084" lon="9.4248211"><ele>203.0</ele><time>2026-04-19T15:49:27.332Z</time></trkpt><trkpt lat="45.7672313" lon="9.4247859"><ele>203.0</ele><time>2026-04-19T15:49:28.326Z</time></trkpt><trkpt lat="45.7673696" lon="9.4247661"><ele>203.0</ele><time>2026-04-19T15:49:29.327Z</time></trkpt><trkpt lat="45.7675183" lon="9.4247483"><ele>203.0</ele><time>2026-04-19T15:49:30.33Z</time></trkpt><trkpt lat="45.7676653" lon="9.4247554"><ele>203.0</ele><time>2026-04-19T15:49:31.325Z</time></trkpt><trkpt lat="45.7678122" lon="9.4247702"><ele>202.5</ele><time>2026-04-19T15:49:32.333Z</time></trkpt><trkpt lat="45.7679483" lon="9.4247802"><ele>202.0</ele><time>2026-04-19T15:49:33.332Z</time></trkpt><trkpt lat="45.7680877" lon="9.424789"><ele>201.5</ele><time>2026-04-19T15:49:34.328Z</time></trkpt><trkpt lat="45.7682311" lon="9.4248033"><ele>201.0</ele><time>2026-04-19T15:49:35.336Z</time></trkpt><trkpt lat="45.7683782" lon="9.4248196"><ele>201.0</ele><time>2026-04-19T15:49:36.337Z</time></trkpt><trkpt lat="45.7685217" lon="9.4248348"><ele>201.0</ele><time>2026-04-19T15:49:37.327Z</time></trkpt><trkpt lat="45.7686636" lon="9.4248439"><ele>201.0</ele><time>2026-04-19T15:49:38.329Z</time></trkpt><trkpt lat="45.7688113" lon="9.4248575"><ele>201.0</ele><time>2026-04-19T15:49:39.327Z</time></trkpt><trkpt lat="45.7689591" lon="9.4248707"><ele>201.33333333333331</ele><time>2026-04-19T15:49:40.331Z</time></trkpt><trkpt lat="45.7691072" lon="9.4248853"><ele>201.66666666666666</ele><time>2026-04-19T15:49:41.34Z</time></trkpt><trkpt lat="45.7692587" lon="9.4248961"><ele>202.0</ele><time>2026-04-19T15:49:42.338Z</time></trkpt><trkpt lat="45.7694143" lon="9.4249036"><ele>202.33333333333331</ele><time>2026-04-19T15:49:43.324Z</time></trkpt><trkpt lat="45.7695687" lon="9.424915"><ele>202.66666666666669</ele><time>2026-04-19T15:49:44.329Z</time></trkpt><trkpt lat="45.7697202" lon="9.4249217"><ele>203.0</ele><time>2026-04-19T15:49:45.324Z</time></trkpt><trkpt lat="45.7698712" lon="9.4249381"><ele>203.0</ele><time>2026-04-19T15:49:46.332Z</time></trkpt><trkpt lat="45.7700193" lon="9.4249512"><ele>203.0</ele><time>2026-04-19T15:49:47.331Z</time></trkpt><trkpt lat="45.7701719" lon="9.4249627"><ele>203.0</ele><time>2026-04-19T15:49:48.333Z</time></trkpt><trkpt lat="45.7703297" lon="9.4249786"><ele>202.0</ele><time>2026-04-19T15:49:49.332Z</time></trkpt><trkpt lat="45.7704875" lon="9.4249981"><ele>201.0</ele><time>2026-04-19T15:49:50.325Z</time></trkpt><trkpt lat="45.7706401" lon="9.4250115"><ele>200.0</ele><time>2026-04-19T15:49:51.332Z</time></trkpt><trkpt lat="45.7707939" lon="9.4250194"><ele>200.0</ele><time>2026-04-19T15:49:52.325Z</time></trkpt><trkpt lat="45.7709587" lon="9.4250252"><ele>200.0</ele><time>2026-04-19T15:49:53.329Z</time></trkpt><trkpt lat="45.7711143" lon="9.4250415"><ele>200.0</ele><time>2026-04-19T15:49:54.335Z</time></trkpt><trkpt lat="45.7712792" lon="9.4250463"><ele>200.66666666666669</ele><time>2026-04-19T15:49:55.33Z</time></trkpt><trkpt lat="45.7714357" lon="9.425051"><ele>201.33333333333331</ele><time>2026-04-19T15:49:56.329Z</time></trkpt><trkpt lat="45.7715965" lon="9.4250566"><ele>202.0</ele><time>2026-04-19T15:49:57.307Z</time></trkpt><trkpt lat="45.7717584" lon="9.4250666"><ele>203.0</ele><time>2026-04-19T15:49:58.299Z</time></trkpt><trkpt lat="45.7719153" lon="9.4250746"><ele>204.0</ele><time>2026-04-19T15:49:59.315Z</time></trkpt><trkpt lat="45.7720795" lon="9.4250799"><ele>205.0</ele><time>2026-04-19T15:50:00.328Z</time></trkpt><trkpt lat="45.7722289" lon="9.4250936"><ele>205.0</ele><time>2026-04-19T15:50:01.313Z</time></trkpt><trkpt lat="45.7723847" lon="9.4250998"><ele>205.0</ele><time>2026-04-19T15:50:02.332Z</time></trkpt><trkpt lat="45.7725381" lon="9.4251067"><ele>205.0</ele><time>2026-04-19T15:50:03.324Z</time></trkpt><trkpt lat="45.7726842" lon="9.4251147"><ele>205.0</ele><time>2026-04-19T15:50:04.339Z</time></trkpt><trkpt lat="45.7728295" lon="9.4251275"><ele>205.0</ele><time>2026-04-19T15:50:05.33Z</time></trkpt><trkpt lat="45.7729713" lon="9.4251396"><ele>205.0</ele><time>2026-04-19T15:50:06.354Z</time></trkpt><trkpt lat="45.7731149" lon="9.425156"><ele>205.0</ele><time>2026-04-19T15:50:07.33Z</time></trkpt><trkpt lat="45.7732587" lon="9.4251658"><ele>205.0</ele><time>2026-04-19T15:50:08.333Z</time></trkpt><trkpt lat="45.7734009" lon="9.4251811"><ele>205.0</ele><time>2026-04-19T15:50:09.326Z</time></trkpt><trkpt lat="45.7735425" lon="9.4251928"><ele>205.0</ele><time>2026-04-19T15:50:10.338Z</time></trkpt><trkpt lat="45.773676" lon="9.4252069"><ele>205.0</ele><time>2026-04-19T15:50:11.324Z</time></trkpt><trkpt lat="45.7738067" lon="9.4252164"><ele>205.75</ele><time>2026-04-19T15:50:12.332Z</time></trkpt><trkpt lat="45.7739378" lon="9.4252256"><ele>206.5</ele><time>2026-04-19T15:50:13.325Z</time></trkpt><trkpt lat="45.774071" lon="9.4252278"><ele>207.25</ele><time>2026-04-19T15:50:14.326Z</time></trkpt><trkpt lat="45.7742045" lon="9.4252348"><ele>208.0</ele><time>2026-04-19T15:50:15.322Z</time></trkpt><trkpt lat="45.7743434" lon="9.4252484"><ele>208.25</ele><time>2026-04-19T15:50:16.306Z</time></trkpt><trkpt lat="45.7744765" lon="9.4252625"><ele>208.5</ele><time>2026-04-19T15:50:17.328Z</time></trkpt><trkpt lat="45.7746062" lon="9.4252723"><ele>208.75</ele><time>2026-04-19T15:50:18.325Z</time></trkpt><trkpt lat="45.7747429" lon="9.4252908"><ele>209.0</ele><time>2026-04-19T15:50:19.343Z</time></trkpt><trkpt lat="45.774875" lon="9.4253028"><ele>209.0</ele><time>2026-04-19T15:50:20.291Z</time></trkpt><trkpt lat="45.7750057" lon="9.4253233"><ele>209.0</ele><time>2026-04-19T15:50:21.294Z</time></trkpt><trkpt lat="45.7751317" lon="9.4253465"><ele>209.0</ele><time>2026-04-19T15:50:22.294Z</time></trkpt><trkpt lat="45.7752432" lon="9.4253746"><ele>209.0</ele><time>2026-04-19T15:50:23.291Z</time></trkpt><trkpt lat="45.7753601" lon="9.4254064"><ele>209.39999999999998</ele><time>2026-04-19T15:50:24.335Z</time></trkpt><trkpt lat="45.7754705" lon="9.4254458"><ele>209.8</ele><time>2026-04-19T15:50:25.325Z</time></trkpt><trkpt lat="45.7755532" lon="9.4254871"><ele>210.2</ele><time>2026-04-19T15:50:26.341Z</time></trkpt><trkpt lat="45.7756329" lon="9.4255473"><ele>210.60000000000002</ele><time>2026-04-19T15:50:27.333Z</time></trkpt><trkpt lat="45.7757078" lon="9.4256087"><ele>211.0</ele><time>2026-04-19T15:50:28.352Z</time></trkpt><trkpt lat="45.7757828" lon="9.425674"><ele>211.0</ele><time>2026-04-19T15:50:29.333Z</time></trkpt><trkpt lat="45.775851" lon="9.4257383"><ele>211.0</ele><time>2026-04-19T15:50:30.328Z</time></trkpt><trkpt lat="45.7759293" lon="9.4257727"><ele>211.0</ele><time>2026-04-19T15:50:31.325Z</time></trkpt><trkpt lat="45.776038" lon="9.4257576"><ele>211.0</ele><time>2026-04-19T15:50:32.341Z</time></trkpt><trkpt lat="45.7761454" lon="9.4257609"><ele>211.0</ele><time>2026-04-19T15:50:33.341Z</time></trkpt><trkpt lat="45.7762501" lon="9.4257723"><ele>211.0</ele><time>2026-04-19T15:50:34.333Z</time></trkpt><trkpt lat="45.7763644" lon="9.4257977"><ele>211.0</ele><time>2026-04-19T15:50:35.344Z</time></trkpt><trkpt lat="45.776487" lon="9.4258202"><ele>211.0</ele><time>2026-04-19T15:50:36.352Z</time></trkpt><trkpt lat="45.7766107" lon="9.4258359"><ele>211.0</ele><time>2026-04-19T15:50:37.335Z</time></trkpt><trkpt lat="45.7767509" lon="9.4258336"><ele>211.5</ele><time>2026-04-19T15:50:38.315Z</time></trkpt><trkpt lat="45.7768922" lon="9.425826"><ele>212.0</ele><time>2026-04-19T15:50:39.338Z</time></trkpt><trkpt lat="45.7770376" lon="9.4258053"><ele>212.5</ele><time>2026-04-19T15:50:40.344Z</time></trkpt><trkpt lat="45.7771894" lon="9.4257731"><ele>213.0</ele><time>2026-04-19T15:50:41.35Z</time></trkpt><trkpt lat="45.7773343" lon="9.4257124"><ele>213.0</ele><time>2026-04-19T15:50:42.326Z</time></trkpt><trkpt lat="45.7774755" lon="9.4256473"><ele>213.0</ele><time>2026-04-19T15:50:43.336Z</time></trkpt><trkpt lat="45.7776273" lon="9.4255747"><ele>213.0</ele><time>2026-04-19T15:50:44.348Z</time></trkpt><trkpt lat="45.7777707" lon="9.4255075"><ele>218.33333333333331</ele><time>2026-04-19T15:50:45.339Z</time></trkpt><trkpt lat="45.7779222" lon="9.4254463"><ele>223.66666666666666</ele><time>2026-04-19T15:50:46.331Z</time></trkpt><trkpt lat="45.7780731" lon="9.4253841"><ele>229.0</ele><time>2026-04-19T15:50:47.319Z</time></trkpt><trkpt lat="45.7782236" lon="9.4253141"><ele>229.0</ele><time>2026-04-19T15:50:48.316Z</time></trkpt><trkpt lat="45.778374" lon="9.4252412"><ele>229.0</ele><time>2026-04-19T15:50:49.329Z</time></trkpt><trkpt lat="45.7785258" lon="9.4251704"><ele>229.0</ele><time>2026-04-19T15:50:50.328Z</time></trkpt><trkpt lat="45.7786669" lon="9.4250987"><ele>226.33333333333331</ele><time>2026-04-19T15:50:51.324Z</time></trkpt><trkpt lat="45.778816" lon="9.4250417"><ele>223.66666666666669</ele><time>2026-04-19T15:50:52.329Z</time></trkpt><trkpt lat="45.7789661" lon="9.4249829"><ele>221.0</ele><time>2026-04-19T15:50:53.343Z</time></trkpt><trkpt lat="45.7791043" lon="9.4249337"><ele>221.0</ele><time>2026-04-19T15:50:54.333Z</time></trkpt><trkpt lat="45.7792347" lon="9.4248994"><ele>221.0</ele><time>2026-04-19T15:50:55.337Z</time></trkpt><trkpt lat="45.7793667" lon="9.4248588"><ele>221.0</ele><time>2026-04-19T15:50:56.325Z</time></trkpt><trkpt lat="45.7795058" lon="9.4248216"><ele>221.0</ele><time>2026-04-19T15:50:57.322Z</time></trkpt><trkpt lat="45.7796415" lon="9.424792"><ele>220.5</ele><time>2026-04-19T15:50:58.346Z</time></trkpt><trkpt lat="45.7797659" lon="9.4247587"><ele>220.0</ele><time>2026-04-19T15:50:59.317Z</time></trkpt><trkpt lat="45.7798901" lon="9.4247169"><ele>219.5</ele><time>2026-04-19T15:51:00.328Z</time></trkpt><trkpt lat="45.7800024" lon="9.4246864"><ele>219.0</ele><time>2026-04-19T15:51:01.316Z</time></trkpt><trkpt lat="45.780109" lon="9.4246616"><ele>219.39999999999998</ele><time>2026-04-19T15:51:02.335Z</time></trkpt><trkpt lat="45.7802124" lon="9.4246352"><ele>219.79999999999998</ele><time>2026-04-19T15:51:03.325Z</time></trkpt><trkpt lat="45.7803137" lon="9.4246008"><ele>220.20000000000002</ele><time>2026-04-19T15:51:04.332Z</time></trkpt><trkpt lat="45.7803989" lon="9.4245714"><ele>220.60000000000002</ele><time>2026-04-19T15:51:05.34Z</time></trkpt><trkpt lat="45.7804896" lon="9.4245448"><ele>221.0</ele><time>2026-04-19T15:51:06.337Z</time></trkpt><trkpt lat="45.7805679" lon="9.4245165"><ele>221.00000000000003</ele><time>2026-04-19T15:51:07.329Z</time></trkpt><trkpt lat="45.7806615" lon="9.4244897"><ele>221.0</ele><time>2026-04-19T15:51:08.338Z</time></trkpt><trkpt lat="45.7807354" lon="9.424474"><ele>221.0</ele><time>2026-04-19T15:51:09.294Z</time></trkpt><trkpt lat="45.7808157" lon="9.4244547"><ele>221.0</ele><time>2026-04-19T15:51:10.325Z</time></trkpt><trkpt lat="45.7808878" lon="9.4244274"><ele>221.00000000000003</ele><time>2026-04-19T15:51:11.338Z</time></trkpt><trkpt lat="45.7809646" lon="9.4244121"><ele>221.0</ele><time>2026-04-19T15:51:12.328Z</time></trkpt><trkpt lat="45.7810498" lon="9.4243958"><ele>220.83333333333334</ele><time>2026-04-19T15:51:13.341Z</time></trkpt><trkpt lat="45.7811347" lon="9.4243866"><ele>220.66666666666669</ele><time>2026-04-19T15:51:14.351Z</time></trkpt><trkpt lat="45.7812192" lon="9.4243693"><ele>220.5</ele><time>2026-04-19T15:51:15.345Z</time></trkpt><trkpt lat="45.7813064" lon="9.424344"><ele>220.33333333333331</ele><time>2026-04-19T15:51:16.347Z</time></trkpt><trkpt lat="45.7813891" lon="9.4243163"><ele>220.16666666666666</ele><time>2026-04-19T15:51:17.341Z</time></trkpt><trkpt lat="45.7814766" lon="9.4242922"><ele>220.0</ele><time>2026-04-19T15:51:18.348Z</time></trkpt><trkpt lat="45.7815551" lon="9.4242695"><ele>219.99999999999997</ele><time>2026-04-19T15:51:19.327Z</time></trkpt><trkpt lat="45.7816359" lon="9.4242499"><ele>220.0</ele><time>2026-04-19T15:51:20.353Z</time></trkpt><trkpt lat="45.7817147" lon="9.4242334"><ele>220.0</ele><time>2026-04-19T15:51:21.338Z</time></trkpt><trkpt lat="45.7817822" lon="9.4242329"><ele>220.0</ele><time>2026-04-19T15:51:22.332Z</time></trkpt><trkpt lat="45.7819005" lon="9.4242302"><ele>219.99999999999997</ele><time>2026-04-19T15:51:24.355Z</time></trkpt><trkpt lat="45.7819643" lon="9.4242181"><ele>220.0</ele><time>2026-04-19T15:51:25.332Z</time></trkpt><trkpt lat="45.7820354" lon="9.4241736"><ele>220.6</ele><time>2026-04-19T15:51:26.346Z</time></trkpt><trkpt lat="45.7821123" lon="9.4241319"><ele>221.2</ele><time>2026-04-19T15:51:27.35Z</time></trkpt><trkpt lat="45.7822026" lon="9.4240967"><ele>221.8</ele><time>2026-04-19T15:51:28.346Z</time></trkpt><trkpt lat="45.7822992" lon="9.4240784"><ele>222.4</ele><time>2026-04-19T15:51:29.335Z</time></trkpt><trkpt lat="45.7823902" lon="9.4240582"><ele>223.0</ele><time>2026-04-19T15:51:30.353Z</time></trkpt><trkpt lat="45.7824934" lon="9.4240478"><ele>223.0</ele><time>2026-04-19T15:51:31.344Z</time></trkpt><trkpt lat="45.7826048" lon="9.4240128"><ele>223.0</ele><time>2026-04-19T15:51:32.35Z</time></trkpt><trkpt lat="45.7827318" lon="9.4239803"><ele>223.0</ele><time>2026-04-19T15:51:33.342Z</time></trkpt><trkpt lat="45.782857" lon="9.4239449"><ele>223.0</ele><time>2026-04-19T15:51:34.348Z</time></trkpt><trkpt lat="45.7829797" lon="9.4239151"><ele>223.0</ele><time>2026-04-19T15:51:35.364Z</time></trkpt><trkpt lat="45.7831103" lon="9.4238707"><ele>223.0</ele><time>2026-04-19T15:51:36.338Z</time></trkpt><trkpt lat="45.7832282" lon="9.4238386"><ele>223.0</ele><time>2026-04-19T15:51:37.312Z</time></trkpt><trkpt lat="45.7833412" lon="9.4237981"><ele>223.0</ele><time>2026-04-19T15:51:38.341Z</time></trkpt><trkpt lat="45.7834516" lon="9.4237408"><ele>222.25</ele><time>2026-04-19T15:51:39.334Z</time></trkpt><trkpt lat="45.7835642" lon="9.4236809"><ele>221.5</ele><time>2026-04-19T15:51:40.346Z</time></trkpt><trkpt lat="45.7836757" lon="9.4236171"><ele>220.75</ele><time>2026-04-19T15:51:41.329Z</time></trkpt><trkpt lat="45.7837876" lon="9.4235531"><ele>220.0</ele><time>2026-04-19T15:51:42.334Z</time></trkpt><trkpt lat="45.783896" lon="9.4234898"><ele>220.0</ele><time>2026-04-19T15:51:43.328Z</time></trkpt><trkpt lat="45.7840018" lon="9.4234131"><ele>220.0</ele><time>2026-04-19T15:51:44.343Z</time></trkpt><trkpt lat="45.7841004" lon="9.4233342"><ele>220.0</ele><time>2026-04-19T15:51:45.357Z</time></trkpt><trkpt lat="45.7841925" lon="9.423252"><ele>220.0</ele><time>2026-04-19T15:51:46.336Z</time></trkpt><trkpt lat="45.7842715" lon="9.4231789"><ele>220.0</ele><time>2026-04-19T15:51:47.342Z</time></trkpt><trkpt lat="45.7843406" lon="9.4231205"><ele>219.8</ele><time>2026-04-19T15:51:48.334Z</time></trkpt><trkpt lat="45.7843935" lon="9.4230627"><ele>219.6</ele><time>2026-04-19T15:51:49.339Z</time></trkpt><trkpt lat="45.7844931" lon="9.4229919"><ele>219.39999999999998</ele><time>2026-04-19T15:51:51.338Z</time></trkpt><trkpt lat="45.7845895" lon="9.4228858"><ele>219.2</ele><time>2026-04-19T15:51:53.345Z</time></trkpt><trkpt lat="45.7846411" lon="9.4227605"><ele>219.0</ele><time>2026-04-19T15:51:55.344Z</time></trkpt><trkpt lat="45.7846111" lon="9.4225651"><ele>219.39999999999998</ele><time>2026-04-19T15:51:57.342Z</time></trkpt><trkpt lat="45.7845838" lon="9.4224519"><ele>219.79999999999998</ele><time>2026-04-19T15:51:58.333Z</time></trkpt><trkpt lat="45.7845573" lon="9.422328"><ele>220.20000000000002</ele><time>2026-04-19T15:51:59.324Z</time></trkpt><trkpt lat="45.7845275" lon="9.4222044"><ele>220.60000000000002</ele><time>2026-04-19T15:52:00.337Z</time></trkpt><trkpt lat="45.7844952" lon="9.4220741"><ele>221.0</ele><time>2026-04-19T15:52:01.33Z</time></trkpt><trkpt lat="45.7844694" lon="9.4219424"><ele>221.0</ele><time>2026-04-19T15:52:02.34Z</time></trkpt><trkpt lat="45.7844277" lon="9.4218157"><ele>221.00000000000003</ele><time>2026-04-19T15:52:03.333Z</time></trkpt><trkpt lat="45.7843749" lon="9.4216896"><ele>221.00000000000003</ele><time>2026-04-19T15:52:04.342Z</time></trkpt><trkpt lat="45.7843207" lon="9.4215622"><ele>221.0</ele><time>2026-04-19T15:52:05.34Z</time></trkpt><trkpt lat="45.7842702" lon="9.4214462"><ele>221.0</ele><time>2026-04-19T15:52:06.342Z</time></trkpt><trkpt lat="45.7842192" lon="9.4213361"><ele>222.0</ele><time>2026-04-19T15:52:07.345Z</time></trkpt><trkpt lat="45.7841738" lon="9.4212234"><ele>223.00000000000003</ele><time>2026-04-19T15:52:08.34Z</time></trkpt><trkpt lat="45.7841267" lon="9.4211192"><ele>224.00000000000003</ele><time>2026-04-19T15:52:09.344Z</time></trkpt><trkpt lat="45.7840745" lon="9.421006"><ele>225.0</ele><time>2026-04-19T15:52:10.33Z</time></trkpt><trkpt lat="45.7840296" lon="9.4209016"><ele>226.0</ele><time>2026-04-19T15:52:11.339Z</time></trkpt><trkpt lat="45.7839755" lon="9.4207901"><ele>226.0</ele><time>2026-04-19T15:52:12.309Z</time></trkpt><trkpt lat="45.7839216" lon="9.4206786"><ele>226.00000000000003</ele><time>2026-04-19T15:52:13.335Z</time></trkpt><trkpt lat="45.7838677" lon="9.4205542"><ele>226.00000000000003</ele><time>2026-04-19T15:52:14.346Z</time></trkpt><trkpt lat="45.7838091" lon="9.4204278"><ele>226.0</ele><time>2026-04-19T15:52:15.36Z</time></trkpt><trkpt lat="45.7837496" lon="9.4203128"><ele>226.0</ele><time>2026-04-19T15:52:16.342Z</time></trkpt><trkpt lat="45.783702" lon="9.4201958"><ele>226.0</ele><time>2026-04-19T15:52:17.342Z</time></trkpt><trkpt lat="45.7836488" lon="9.4200722"><ele>226.00000000000003</ele><time>2026-04-19T15:52:18.322Z</time></trkpt><trkpt lat="45.7835863" lon="9.4199538"><ele>226.00000000000003</ele><time>2026-04-19T15:52:19.331Z</time></trkpt><trkpt lat="45.7835065" lon="9.419843"><ele>226.0</ele><time>2026-04-19T15:52:20.363Z</time></trkpt><trkpt lat="45.7834322" lon="9.4197313"><ele>226.0</ele><time>2026-04-19T15:52:21.338Z</time></trkpt><trkpt lat="45.783355" lon="9.4196273"><ele>226.8</ele><time>2026-04-19T15:52:22.302Z</time></trkpt><trkpt lat="45.7832773" lon="9.4195208"><ele>227.60000000000002</ele><time>2026-04-19T15:52:23.301Z</time></trkpt><trkpt lat="45.7832011" lon="9.419417"><ele>228.4</ele><time>2026-04-19T15:52:24.333Z</time></trkpt><trkpt lat="45.7831262" lon="9.4193188"><ele>229.2</ele><time>2026-04-19T15:52:25.294Z</time></trkpt><trkpt lat="45.7830522" lon="9.4192164"><ele>230.0</ele><time>2026-04-19T15:52:26.344Z</time></trkpt><trkpt lat="45.782977" lon="9.41912"><ele>230.0</ele><time>2026-04-19T15:52:27.34Z</time></trkpt><trkpt lat="45.7829007" lon="9.4190401"><ele>230.0</ele><time>2026-04-19T15:52:28.34Z</time></trkpt><trkpt lat="45.7828364" lon="9.4189432"><ele>230.0</ele><time>2026-04-19T15:52:29.328Z</time></trkpt><trkpt lat="45.7827682" lon="9.4188506"><ele>230.0</ele><time>2026-04-19T15:52:30.335Z</time></trkpt><trkpt lat="45.7827036" lon="9.4187546"><ele>230.0</ele><time>2026-04-19T15:52:31.337Z</time></trkpt><trkpt lat="45.7826326" lon="9.4186521"><ele>231.2</ele><time>2026-04-19T15:52:32.331Z</time></trkpt><trkpt lat="45.782554" lon="9.4185574"><ele>232.4</ele><time>2026-04-19T15:52:33.331Z</time></trkpt><trkpt lat="45.7824727" lon="9.4184553"><ele>233.60000000000002</ele><time>2026-04-19T15:52:34.361Z</time></trkpt><trkpt lat="45.7823861" lon="9.4183705"><ele>234.8</ele><time>2026-04-19T15:52:35.34Z</time></trkpt><trkpt lat="45.7822883" lon="9.4183087"><ele>236.0</ele><time>2026-04-19T15:52:36.337Z</time></trkpt><trkpt lat="45.7821848" lon="9.4182439"><ele>236.0</ele><time>2026-04-19T15:52:37.333Z</time></trkpt><trkpt lat="45.7820804" lon="9.4182047"><ele>236.0</ele><time>2026-04-19T15:52:38.342Z</time></trkpt><trkpt lat="45.781967" lon="9.4181756"><ele>236.0</ele><time>2026-04-19T15:52:39.35Z</time></trkpt><trkpt lat="45.7818433" lon="9.4181556"><ele>236.0</ele><time>2026-04-19T15:52:40.332Z</time></trkpt><trkpt lat="45.7817283" lon="9.4181273"><ele>236.4</ele><time>2026-04-19T15:52:41.335Z</time></trkpt><trkpt lat="45.7816173" lon="9.4180958"><ele>236.8</ele><time>2026-04-19T15:52:42.323Z</time></trkpt><trkpt lat="45.7815123" lon="9.4180453"><ele>237.20000000000002</ele><time>2026-04-19T15:52:43.335Z</time></trkpt><trkpt lat="45.7814099" lon="9.4179808"><ele>237.60000000000002</ele><time>2026-04-19T15:52:44.347Z</time></trkpt><trkpt lat="45.7813093" lon="9.4179052"><ele>238.0</ele><time>2026-04-19T15:52:45.333Z</time></trkpt><trkpt lat="45.7812085" lon="9.4178219"><ele>238.5</ele><time>2026-04-19T15:52:46.332Z</time></trkpt><trkpt lat="45.7811082" lon="9.4177355"><ele>239.0</ele><time>2026-04-19T15:52:47.331Z</time></trkpt><trkpt lat="45.7810057" lon="9.4176565"><ele>239.5</ele><time>2026-04-19T15:52:48.337Z</time></trkpt><trkpt lat="45.7809028" lon="9.4175684"><ele>240.0</ele><time>2026-04-19T15:52:49.34Z</time></trkpt><trkpt lat="45.7808025" lon="9.4174755"><ele>240.2</ele><time>2026-04-19T15:52:50.329Z</time></trkpt><trkpt lat="45.7807073" lon="9.4174042"><ele>240.4</ele><time>2026-04-19T15:52:51.338Z</time></trkpt><trkpt lat="45.7806094" lon="9.4173401"><ele>240.60000000000002</ele><time>2026-04-19T15:52:52.304Z</time></trkpt><trkpt lat="45.7805246" lon="9.4172729"><ele>240.8</ele><time>2026-04-19T15:52:53.341Z</time></trkpt><trkpt lat="45.780448" lon="9.4172016"><ele>241.0</ele><time>2026-04-19T15:52:54.33Z</time></trkpt><trkpt lat="45.7803789" lon="9.4171261"><ele>241.60000000000002</ele><time>2026-04-19T15:52:55.356Z</time></trkpt><trkpt lat="45.7803146" lon="9.4170469"><ele>242.20000000000002</ele><time>2026-04-19T15:52:56.345Z</time></trkpt><trkpt lat="45.7802613" lon="9.4169408"><ele>242.79999999999998</ele><time>2026-04-19T15:52:57.344Z</time></trkpt><trkpt lat="45.7802316" lon="9.4167883"><ele>243.39999999999998</ele><time>2026-04-19T15:52:58.332Z</time></trkpt><trkpt lat="45.7801968" lon="9.4166327"><ele>244.0</ele><time>2026-04-19T15:52:59.315Z</time></trkpt><trkpt lat="45.7801446" lon="9.416507"><ele>244.0</ele><time>2026-04-19T15:53:00.325Z</time></trkpt><trkpt lat="45.780098" lon="9.4163703"><ele>243.99999999999997</ele><time>2026-04-19T15:53:01.329Z</time></trkpt><trkpt lat="45.7800416" lon="9.4162424"><ele>243.99999999999997</ele><time>2026-04-19T15:53:02.334Z</time></trkpt><trkpt lat="45.7799848" lon="9.4161078"><ele>244.0</ele><time>2026-04-19T15:53:03.321Z</time></trkpt><trkpt lat="45.7799351" lon="9.4159794"><ele>244.0</ele><time>2026-04-19T15:53:04.323Z</time></trkpt><trkpt lat="45.7798797" lon="9.4158425"><ele>244.5</ele><time>2026-04-19T15:53:05.35Z</time></trkpt><trkpt lat="45.7798232" lon="9.4156827"><ele>245.0</ele><time>2026-04-19T15:53:06.333Z</time></trkpt><trkpt lat="45.7797675" lon="9.4155357"><ele>245.5</ele><time>2026-04-19T15:53:07.337Z</time></trkpt><trkpt lat="45.7797201" lon="9.4153869"><ele>246.0</ele><time>2026-04-19T15:53:08.34Z</time></trkpt><trkpt lat="45.7796708" lon="9.4152482"><ele>246.8</ele><time>2026-04-19T15:53:09.336Z</time></trkpt><trkpt lat="45.7796184" lon="9.4151109"><ele>247.60000000000002</ele><time>2026-04-19T15:53:10.324Z</time></trkpt><trkpt lat="45.7795605" lon="9.4149798"><ele>248.4</ele><time>2026-04-19T15:53:11.342Z</time></trkpt><trkpt lat="45.7795005" lon="9.414835"><ele>249.2</ele><time>2026-04-19T15:53:12.332Z</time></trkpt><trkpt lat="45.7794444" lon="9.4147132"><ele>250.0</ele><time>2026-04-19T15:53:13.309Z</time></trkpt><trkpt lat="45.779382" lon="9.4146023"><ele>250.8</ele><time>2026-04-19T15:53:14.331Z</time></trkpt><trkpt lat="45.7793129" lon="9.414515"><ele>251.6</ele><time>2026-04-19T15:53:15.334Z</time></trkpt><trkpt lat="45.7792426" lon="9.4144279"><ele>252.39999999999998</ele><time>2026-04-19T15:53:16.342Z</time></trkpt><trkpt lat="45.7791573" lon="9.414339"><ele>253.2</ele><time>2026-04-19T15:53:17.335Z</time></trkpt><trkpt lat="45.7790712" lon="9.4142334"><ele>254.0</ele><time>2026-04-19T15:53:18.339Z</time></trkpt><trkpt lat="45.7789711" lon="9.4141203"><ele>254.0</ele><time>2026-04-19T15:53:19.338Z</time></trkpt><trkpt lat="45.7788685" lon="9.4140135"><ele>254.0</ele><time>2026-04-19T15:53:20.343Z</time></trkpt><trkpt lat="45.7787672" lon="9.4139132"><ele>254.0</ele><time>2026-04-19T15:53:21.335Z</time></trkpt><trkpt lat="45.7786642" lon="9.4138299"><ele>254.0</ele><time>2026-04-19T15:53:22.336Z</time></trkpt><trkpt lat="45.7785725" lon="9.4137642"><ele>254.6</ele><time>2026-04-19T15:53:23.323Z</time></trkpt><trkpt lat="45.7784766" lon="9.4136989"><ele>255.2</ele><time>2026-04-19T15:53:24.341Z</time></trkpt><trkpt lat="45.7783829" lon="9.4136219"><ele>255.79999999999998</ele><time>2026-04-19T15:53:25.335Z</time></trkpt><trkpt lat="45.7782871" lon="9.4135689"><ele>256.4</ele><time>2026-04-19T15:53:26.335Z</time></trkpt><trkpt lat="45.7781909" lon="9.4135352"><ele>257.0</ele><time>2026-04-19T15:53:27.317Z</time></trkpt><trkpt lat="45.7780858" lon="9.4135046"><ele>257.0</ele><time>2026-04-19T15:53:28.327Z</time></trkpt><trkpt lat="45.7779837" lon="9.4134703"><ele>257.0</ele><time>2026-04-19T15:53:29.328Z</time></trkpt><trkpt lat="45.7778927" lon="9.4134658"><ele>257.0</ele><time>2026-04-19T15:53:30.346Z</time></trkpt><trkpt lat="45.7777916" lon="9.4134592"><ele>257.0</ele><time>2026-04-19T15:53:31.335Z</time></trkpt><trkpt lat="45.7776823" lon="9.41346"><ele>257.0</ele><time>2026-04-19T15:53:32.336Z</time></trkpt><trkpt lat="45.7775814" lon="9.4134638"><ele>257.2</ele><time>2026-04-19T15:53:33.339Z</time></trkpt><trkpt lat="45.7774985" lon="9.4134744"><ele>257.4</ele><time>2026-04-19T15:53:34.297Z</time></trkpt><trkpt lat="45.7774057" lon="9.4134695"><ele>257.6</ele><time>2026-04-19T15:53:35.34Z</time></trkpt><trkpt lat="45.7773199" lon="9.4134528"><ele>257.8</ele><time>2026-04-19T15:53:36.341Z</time></trkpt><trkpt lat="45.7772274" lon="9.4134327"><ele>258.0</ele><time>2026-04-19T15:53:37.333Z</time></trkpt><trkpt lat="45.7771328" lon="9.4134006"><ele>258.0</ele><time>2026-04-19T15:53:38.34Z</time></trkpt><trkpt lat="45.7770466" lon="9.4133497"><ele>258.0</ele><time>2026-04-19T15:53:39.31Z</time></trkpt><trkpt lat="45.7769685" lon="9.4132549"><ele>258.0</ele><time>2026-04-19T15:53:40.34Z</time></trkpt><trkpt lat="45.7768902" lon="9.4131441"><ele>258.0</ele><time>2026-04-19T15:53:41.337Z</time></trkpt><trkpt lat="45.7768243" lon="9.413036"><ele>258.0</ele><time>2026-04-19T15:53:42.35Z</time></trkpt><trkpt lat="45.7767619" lon="9.4129217"><ele>259.4</ele><time>2026-04-19T15:53:43.337Z</time></trkpt><trkpt lat="45.7767007" lon="9.4128005"><ele>260.8</ele><time>2026-04-19T15:53:44.33Z</time></trkpt><trkpt lat="45.7766436" lon="9.4126748"><ele>262.2</ele><time>2026-04-19T15:53:45.338Z</time></trkpt><trkpt lat="45.7765855" lon="9.4125515"><ele>263.6</ele><time>2026-04-19T15:53:46.33Z</time></trkpt><trkpt lat="45.7765224" lon="9.4124387"><ele>265.0</ele><time>2026-04-19T15:53:47.328Z</time></trkpt><trkpt lat="45.7764515" lon="9.4123121"><ele>265.0</ele><time>2026-04-19T15:53:48.338Z</time></trkpt><trkpt lat="45.7763767" lon="9.4121786"><ele>265.0</ele><time>2026-04-19T15:53:49.335Z</time></trkpt><trkpt lat="45.776303" lon="9.4120471"><ele>265.0</ele><time>2026-04-19T15:53:50.341Z</time></trkpt><trkpt lat="45.7762367" lon="9.4119118"><ele>265.0</ele><time>2026-04-19T15:53:51.346Z</time></trkpt><trkpt lat="45.7761759" lon="9.4117855"><ele>266.0</ele><time>2026-04-19T15:53:52.355Z</time></trkpt><trkpt lat="45.7761127" lon="9.4116852"><ele>267.0</ele><time>2026-04-19T15:53:53.339Z</time></trkpt><trkpt lat="45.7760364" lon="9.4115863"><ele>268.0</ele><time>2026-04-19T15:53:54.356Z</time></trkpt><trkpt lat="45.7759424" lon="9.4115267"><ele>269.0</ele><time>2026-04-19T15:53:55.35Z</time></trkpt><trkpt lat="45.7758353" lon="9.4114867"><ele>270.0</ele><time>2026-04-19T15:53:56.331Z</time></trkpt><trkpt lat="45.7757396" lon="9.4114689"><ele>270.6</ele><time>2026-04-19T15:53:57.331Z</time></trkpt><trkpt lat="45.775634" lon="9.4114412"><ele>271.2</ele><time>2026-04-19T15:53:58.338Z</time></trkpt><trkpt lat="45.7755299" lon="9.4113852"><ele>271.8</ele><time>2026-04-19T15:53:59.312Z</time></trkpt><trkpt lat="45.7754356" lon="9.4113128"><ele>272.4</ele><time>2026-04-19T15:54:00.34Z</time></trkpt><trkpt lat="45.7753496" lon="9.4112489"><ele>273.0</ele><time>2026-04-19T15:54:01.319Z</time></trkpt><trkpt lat="45.7752661" lon="9.411181"><ele>274.2</ele><time>2026-04-19T15:54:02.325Z</time></trkpt><trkpt lat="45.7751805" lon="9.4111352"><ele>275.4</ele><time>2026-04-19T15:54:03.334Z</time></trkpt><trkpt lat="45.7750953" lon="9.4110786"><ele>276.59999999999997</ele><time>2026-04-19T15:54:04.338Z</time></trkpt><trkpt lat="45.7750035" lon="9.4110123"><ele>277.8</ele><time>2026-04-19T15:54:05.339Z</time></trkpt><trkpt lat="45.7749183" lon="9.4109488"><ele>279.0</ele><time>2026-04-19T15:54:06.336Z</time></trkpt><trkpt lat="45.7748235" lon="9.410884"><ele>279.0</ele><time>2026-04-19T15:54:07.334Z</time></trkpt><trkpt lat="45.774728" lon="9.4108096"><ele>279.0</ele><time>2026-04-19T15:54:08.336Z</time></trkpt><trkpt lat="45.7746344" lon="9.410741"><ele>279.0</ele><time>2026-04-19T15:54:09.333Z</time></trkpt><trkpt lat="45.7745487" lon="9.4106882"><ele>279.0</ele><time>2026-04-19T15:54:10.336Z</time></trkpt><trkpt lat="45.7744553" lon="9.4106474"><ele>279.0</ele><time>2026-04-19T15:54:11.336Z</time></trkpt><trkpt lat="45.7743639" lon="9.410624"><ele>280.0</ele><time>2026-04-19T15:54:12.335Z</time></trkpt><trkpt lat="45.7742803" lon="9.4106212"><ele>281.0</ele><time>2026-04-19T15:54:13.334Z</time></trkpt><trkpt lat="45.774188" lon="9.4106276"><ele>282.0</ele><time>2026-04-19T15:54:15.344Z</time></trkpt><trkpt lat="45.7741177" lon="9.4105827"><ele>283.0</ele><time>2026-04-19T15:54:17.33Z</time></trkpt><trkpt lat="45.7740546" lon="9.4104687"><ele>284.0</ele><time>2026-04-19T15:54:19.333Z</time></trkpt><trkpt lat="45.774017" lon="9.4103888"><ele>285.0</ele><time>2026-04-19T15:54:20.327Z</time></trkpt><trkpt lat="45.7739753" lon="9.4103156"><ele>285.6666666666667</ele><time>2026-04-19T15:54:21.341Z</time></trkpt><trkpt lat="45.7739307" lon="9.4102372"><ele>286.3333333333333</ele><time>2026-04-19T15:54:22.33Z</time></trkpt><trkpt lat="45.7738725" lon="9.4101428"><ele>287.0</ele><time>2026-04-19T15:54:23.31Z</time></trkpt><trkpt lat="45.7738148" lon="9.4100454"><ele>287.66666666666663</ele><time>2026-04-19T15:54:24.321Z</time></trkpt><trkpt lat="45.773755" lon="9.4099497"><ele>288.3333333333333</ele><time>2026-04-19T15:54:25.335Z</time></trkpt><trkpt lat="45.7736953" lon="9.4098583"><ele>289.0</ele><time>2026-04-19T15:54:26.34Z</time></trkpt><trkpt lat="45.7736329" lon="9.4097606"><ele>289.0</ele><time>2026-04-19T15:54:27.332Z</time></trkpt><trkpt lat="45.7735762" lon="9.4096594"><ele>289.0</ele><time>2026-04-19T15:54:28.335Z</time></trkpt><trkpt lat="45.7735177" lon="9.4095489"><ele>289.0</ele><time>2026-04-19T15:54:29.289Z</time></trkpt><trkpt lat="45.7734588" lon="9.4094456"><ele>289.0</ele><time>2026-04-19T15:54:30.332Z</time></trkpt><trkpt lat="45.7733975" lon="9.4093416"><ele>289.0</ele><time>2026-04-19T15:54:31.333Z</time></trkpt><trkpt lat="45.773343" lon="9.4092492"><ele>290.5</ele><time>2026-04-19T15:54:32.318Z</time></trkpt><trkpt lat="45.7732861" lon="9.4091711"><ele>292.0</ele><time>2026-04-19T15:54:33.29Z</time></trkpt><trkpt lat="45.7732308" lon="9.4091005"><ele>293.5</ele><time>2026-04-19T15:54:34.285Z</time></trkpt><trkpt lat="45.7731817" lon="9.4089974"><ele>295.0</ele><time>2026-04-19T15:54:36.316Z</time></trkpt><trkpt lat="45.7731724" lon="9.4089017"><ele>296.5</ele><time>2026-04-19T15:54:38.296Z</time></trkpt><trkpt lat="45.7731576" lon="9.4087401"><ele>298.0</ele><time>2026-04-19T15:54:40.329Z</time></trkpt><trkpt lat="45.7731414" lon="9.4086396"><ele>299.0</ele><time>2026-04-19T15:54:41.333Z</time></trkpt><trkpt lat="45.7731164" lon="9.4084893"><ele>300.0</ele><time>2026-04-19T15:54:43.345Z</time></trkpt><trkpt lat="45.7731287" lon="9.4083929"><ele>301.0</ele><time>2026-04-19T15:54:47.33Z</time></trkpt><trkpt lat="45.7730845" lon="9.4084877"><ele>302.0</ele><time>2026-04-19T15:59:42.329Z</time></trkpt><trkpt lat="45.7730859" lon="9.4086234"><ele>303.0</ele><time>2026-04-19T15:59:44.337Z</time></trkpt><trkpt lat="45.7730993" lon="9.4087742"><ele>302.1666666666667</ele><time>2026-04-19T15:59:46.332Z</time></trkpt><trkpt lat="45.7730919" lon="9.4089046"><ele>301.3333333333333</ele><time>2026-04-19T15:59:49.33Z</time></trkpt><trkpt lat="45.7731323" lon="9.4090311"><ele>300.5</ele><time>2026-04-19T15:59:51.351Z</time></trkpt><trkpt lat="45.7731681" lon="9.4091099"><ele>299.66666666666663</ele><time>2026-04-19T15:59:52.34Z</time></trkpt><trkpt lat="45.7732174" lon="9.4091884"><ele>298.8333333333333</ele><time>2026-04-19T15:59:53.324Z</time></trkpt><trkpt lat="45.7732748" lon="9.4092669"><ele>298.0</ele><time>2026-04-19T15:59:54.347Z</time></trkpt><trkpt lat="45.7733228" lon="9.4093615"><ele>298.0</ele><time>2026-04-19T15:59:55.343Z</time></trkpt><trkpt lat="45.7733788" lon="9.4094545"><ele>298.0</ele><time>2026-04-19T15:59:56.337Z</time></trkpt><trkpt lat="45.7734366" lon="9.4095566"><ele>298.0</ele><time>2026-04-19T15:59:57.338Z</time></trkpt><trkpt lat="45.7735024" lon="9.4096643"><ele>298.0</ele><time>2026-04-19T15:59:58.34Z</time></trkpt><trkpt lat="45.7735679" lon="9.409776"><ele>298.0</ele><time>2026-04-19T15:59:59.311Z</time></trkpt><trkpt lat="45.7736349" lon="9.4098957"><ele>296.2</ele><time>2026-04-19T16:00:00.333Z</time></trkpt><trkpt lat="45.7736994" lon="9.4100097"><ele>294.4</ele><time>2026-04-19T16:00:01.335Z</time></trkpt><trkpt lat="45.773752" lon="9.4101239"><ele>292.59999999999997</ele><time>2026-04-19T16:00:02.338Z</time></trkpt><trkpt lat="45.7738142" lon="9.4102304"><ele>290.8</ele><time>2026-04-19T16:00:03.35Z</time></trkpt><trkpt lat="45.7738737" lon="9.4103427"><ele>289.0</ele><time>2026-04-19T16:00:04.35Z</time></trkpt><trkpt lat="45.7739263" lon="9.4104336"><ele>288.3333333333333</ele><time>2026-04-19T16:00:05.361Z</time></trkpt><trkpt lat="45.7739681" lon="9.4105163"><ele>287.66666666666663</ele><time>2026-04-19T16:00:06.341Z</time></trkpt><trkpt lat="45.7740306" lon="9.4106465"><ele>287.0</ele><time>2026-04-19T16:00:08.4Z</time></trkpt><trkpt lat="45.7740278" lon="9.4107636"><ele>286.3333333333333</ele><time>2026-04-19T16:00:13.346Z</time></trkpt><trkpt lat="45.7739648" lon="9.4107893"><ele>285.6666666666667</ele><time>2026-04-19T16:00:15.336Z</time></trkpt><trkpt lat="45.77386" lon="9.4108305"><ele>285.0</ele><time>2026-04-19T16:00:17.336Z</time></trkpt><trkpt lat="45.7737932" lon="9.4108635"><ele>285.0</ele><time>2026-04-19T16:00:18.343Z</time></trkpt><trkpt lat="45.7737186" lon="9.4108989"><ele>285.0</ele><time>2026-04-19T16:00:19.35Z</time></trkpt><trkpt lat="45.7736298" lon="9.4109411"><ele>285.0</ele><time>2026-04-19T16:00:20.343Z</time></trkpt><trkpt lat="45.7735334" lon="9.4109819"><ele>285.0</ele><time>2026-04-19T16:00:21.334Z</time></trkpt><trkpt lat="45.7734198" lon="9.4110342"><ele>285.0</ele><time>2026-04-19T16:00:22.329Z</time></trkpt><trkpt lat="45.7733124" lon="9.4110853"><ele>286.0</ele><time>2026-04-19T16:00:23.354Z</time></trkpt><trkpt lat="45.7732026" lon="9.4111377"><ele>287.0</ele><time>2026-04-19T16:00:24.349Z</time></trkpt><trkpt lat="45.7730906" lon="9.4111834"><ele>288.0</ele><time>2026-04-19T16:00:25.33Z</time></trkpt><trkpt lat="45.7729767" lon="9.4112329"><ele>289.0</ele><time>2026-04-19T16:00:26.318Z</time></trkpt><trkpt lat="45.7728613" lon="9.4112909"><ele>289.25</ele><time>2026-04-19T16:00:27.339Z</time></trkpt><trkpt lat="45.7727551" lon="9.4113685"><ele>289.5</ele><time>2026-04-19T16:00:28.334Z</time></trkpt><trkpt lat="45.7726476" lon="9.4114605"><ele>289.75</ele><time>2026-04-19T16:00:29.298Z</time></trkpt><trkpt lat="45.7725358" lon="9.4115454"><ele>290.0</ele><time>2026-04-19T16:00:30.305Z</time></trkpt><trkpt lat="45.7724282" lon="9.4116302"><ele>290.0</ele><time>2026-04-19T16:00:31.324Z</time></trkpt><trkpt lat="45.7723295" lon="9.4116948"><ele>290.0</ele><time>2026-04-19T16:00:32.3Z</time></trkpt><trkpt lat="45.7722389" lon="9.4117626"><ele>290.0</ele><time>2026-04-19T16:00:33.322Z</time></trkpt><trkpt lat="45.7721555" lon="9.4118168"><ele>290.0</ele><time>2026-04-19T16:00:34.349Z</time></trkpt><trkpt lat="45.7720793" lon="9.4118514"><ele>290.0</ele><time>2026-04-19T16:00:35.335Z</time></trkpt><trkpt lat="45.7720182" lon="9.4118784"><ele>290.0</ele><time>2026-04-19T16:00:36.329Z</time></trkpt><trkpt lat="45.7719148" lon="9.4119437"><ele>290.0</ele><time>2026-04-19T16:00:38.322Z</time></trkpt><trkpt lat="45.7718689" lon="9.4120648"><ele>290.0</ele><time>2026-04-19T16:00:40.393Z</time></trkpt><trkpt lat="45.771917" lon="9.4122147"><ele>290.0</ele><time>2026-04-19T16:00:42.398Z</time></trkpt><trkpt lat="45.7719716" lon="9.412313"><ele>290.0</ele><time>2026-04-19T16:00:43.389Z</time></trkpt><trkpt lat="45.7720258" lon="9.4124321"><ele>290.0</ele><time>2026-04-19T16:00:44.394Z</time></trkpt><trkpt lat="45.7720758" lon="9.4125528"><ele>289.6</ele><time>2026-04-19T16:00:45.374Z</time></trkpt><trkpt lat="45.7721136" lon="9.412668"><ele>289.2</ele><time>2026-04-19T16:00:46.383Z</time></trkpt><trkpt lat="45.7721463" lon="9.4128047"><ele>288.8</ele><time>2026-04-19T16:00:47.39Z</time></trkpt><trkpt lat="45.772188" lon="9.4129515"><ele>288.4</ele><time>2026-04-19T16:00:48.387Z</time></trkpt><trkpt lat="45.7722451" lon="9.4130944"><ele>288.0</ele><time>2026-04-19T16:00:49.39Z</time></trkpt><trkpt lat="45.7723239" lon="9.4132157"><ele>286.5</ele><time>2026-04-19T16:00:50.395Z</time></trkpt><trkpt lat="45.772407" lon="9.4133327"><ele>285.0</ele><time>2026-04-19T16:00:51.407Z</time></trkpt><trkpt lat="45.7724937" lon="9.4134559"><ele>283.5</ele><time>2026-04-19T16:00:52.402Z</time></trkpt><trkpt lat="45.7725886" lon="9.4135741"><ele>282.0</ele><time>2026-04-19T16:00:53.409Z</time></trkpt><trkpt lat="45.7726704" lon="9.4136867"><ele>281.4</ele><time>2026-04-19T16:00:54.416Z</time></trkpt><trkpt lat="45.7727549" lon="9.413802"><ele>280.79999999999995</ele><time>2026-04-19T16:00:55.409Z</time></trkpt><trkpt lat="45.7728373" lon="9.4139113"><ele>280.2</ele><time>2026-04-19T16:00:56.407Z</time></trkpt><trkpt lat="45.7729101" lon="9.4140118"><ele>279.59999999999997</ele><time>2026-04-19T16:00:57.398Z</time></trkpt><trkpt lat="45.7729747" lon="9.4140966"><ele>279.0</ele><time>2026-04-19T16:00:58.391Z</time></trkpt><trkpt lat="45.7730253" lon="9.4141682"><ele>278.8333333333333</ele><time>2026-04-19T16:00:59.393Z</time></trkpt><trkpt lat="45.77306" lon="9.4142516"><ele>278.6666666666667</ele><time>2026-04-19T16:01:00.403Z</time></trkpt><trkpt lat="45.7730494" lon="9.414416"><ele>278.5</ele><time>2026-04-19T16:01:02.402Z</time></trkpt><trkpt lat="45.7730015" lon="9.4144933"><ele>278.33333333333337</ele><time>2026-04-19T16:01:03.414Z</time></trkpt><trkpt lat="45.772932" lon="9.4145467"><ele>278.1666666666667</ele><time>2026-04-19T16:01:04.405Z</time></trkpt><trkpt lat="45.772849" lon="9.4145784"><ele>278.0</ele><time>2026-04-19T16:01:05.392Z</time></trkpt><trkpt lat="45.7727663" lon="9.4146215"><ele>279.0</ele><time>2026-04-19T16:01:06.39Z</time></trkpt><trkpt lat="45.7726759" lon="9.4146588"><ele>280.0</ele><time>2026-04-19T16:01:07.411Z</time></trkpt><trkpt lat="45.772574" lon="9.4147035"><ele>281.0</ele><time>2026-04-19T16:01:08.404Z</time></trkpt><trkpt lat="45.7724428" lon="9.4147271"><ele>282.0</ele><time>2026-04-19T16:01:09.399Z</time></trkpt><trkpt lat="45.7723401" lon="9.4147749"><ele>283.0</ele><time>2026-04-19T16:01:10.398Z</time></trkpt><trkpt lat="45.7722392" lon="9.4148277"><ele>283.0</ele><time>2026-04-19T16:01:11.398Z</time></trkpt><trkpt lat="45.7721238" lon="9.4148828"><ele>283.0</ele><time>2026-04-19T16:01:12.389Z</time></trkpt><trkpt lat="45.7720118" lon="9.4149391"><ele>283.0</ele><time>2026-04-19T16:01:13.402Z</time></trkpt><trkpt lat="45.7718969" lon="9.4149994"><ele>283.0</ele><time>2026-04-19T16:01:14.404Z</time></trkpt><trkpt lat="45.7717834" lon="9.4150535"><ele>283.25</ele><time>2026-04-19T16:01:15.398Z</time></trkpt><trkpt lat="45.7716685" lon="9.415112"><ele>283.5</ele><time>2026-04-19T16:01:16.399Z</time></trkpt><trkpt lat="45.771551" lon="9.4151789"><ele>283.75</ele><time>2026-04-19T16:01:17.375Z</time></trkpt><trkpt lat="45.7714372" lon="9.4152593"><ele>284.0</ele><time>2026-04-19T16:01:18.386Z</time></trkpt><trkpt lat="45.7713223" lon="9.4153563"><ele>284.0</ele><time>2026-04-19T16:01:19.4Z</time></trkpt><trkpt lat="45.7712505" lon="9.4154563"><ele>284.0</ele><time>2026-04-19T16:01:20.335Z</time></trkpt><trkpt lat="45.7711477" lon="9.4155602"><ele>284.0</ele><time>2026-04-19T16:01:21.339Z</time></trkpt><trkpt lat="45.7710442" lon="9.4156744"><ele>284.0</ele><time>2026-04-19T16:01:22.328Z</time></trkpt><trkpt lat="45.7709405" lon="9.415791"><ele>283.5</ele><time>2026-04-19T16:01:23.347Z</time></trkpt><trkpt lat="45.7708333" lon="9.4158971"><ele>283.0</ele><time>2026-04-19T16:01:24.352Z</time></trkpt><trkpt lat="45.7707251" lon="9.4160158"><ele>282.5</ele><time>2026-04-19T16:01:25.337Z</time></trkpt><trkpt lat="45.7706189" lon="9.4161149"><ele>282.0</ele><time>2026-04-19T16:01:26.293Z</time></trkpt><trkpt lat="45.7705211" lon="9.4162234"><ele>282.0</ele><time>2026-04-19T16:01:27.288Z</time></trkpt><trkpt lat="45.7704246" lon="9.4163182"><ele>282.0</ele><time>2026-04-19T16:01:28.302Z</time></trkpt><trkpt lat="45.7703179" lon="9.4164171"><ele>282.0</ele><time>2026-04-19T16:01:29.289Z</time></trkpt><trkpt lat="45.7702136" lon="9.4165098"><ele>282.0</ele><time>2026-04-19T16:01:30.29Z</time></trkpt><trkpt lat="45.7701033" lon="9.4165624"><ele>283.25</ele><time>2026-04-19T16:01:31.293Z</time></trkpt><trkpt lat="45.7699833" lon="9.4166096"><ele>284.5</ele><time>2026-04-19T16:01:32.311Z</time></trkpt><trkpt lat="45.7698573" lon="9.4166674"><ele>285.75</ele><time>2026-04-19T16:01:33.327Z</time></trkpt><trkpt lat="45.7697233" lon="9.4167248"><ele>287.0</ele><time>2026-04-19T16:01:34.312Z</time></trkpt><trkpt lat="45.769602" lon="9.4167935"><ele>287.0</ele><time>2026-04-19T16:01:35.294Z</time></trkpt><trkpt lat="45.7694783" lon="9.4168586"><ele>287.0</ele><time>2026-04-19T16:01:36.293Z</time></trkpt><trkpt lat="45.7693508" lon="9.4169195"><ele>287.0</ele><time>2026-04-19T16:01:37.291Z</time></trkpt><trkpt lat="45.7692247" lon="9.4169796"><ele>287.0</ele><time>2026-04-19T16:01:38.286Z</time></trkpt><trkpt lat="45.769097" lon="9.4170378"><ele>286.75</ele><time>2026-04-19T16:01:39.303Z</time></trkpt><trkpt lat="45.7689758" lon="9.417099"><ele>286.5</ele><time>2026-04-19T16:01:40.287Z</time></trkpt><trkpt lat="45.768851" lon="9.4171668"><ele>286.25</ele><time>2026-04-19T16:01:41.294Z</time></trkpt><trkpt lat="45.7687322" lon="9.4172302"><ele>286.0</ele><time>2026-04-19T16:01:42.293Z</time></trkpt><trkpt lat="45.7686136" lon="9.41728"><ele>286.25</ele><time>2026-04-19T16:01:43.289Z</time></trkpt><trkpt lat="45.7684936" lon="9.4173384"><ele>286.5</ele><time>2026-04-19T16:01:44.294Z</time></trkpt><trkpt lat="45.7683581" lon="9.4173999"><ele>286.75</ele><time>2026-04-19T16:01:45.3Z</time></trkpt><trkpt lat="45.7682255" lon="9.4174598"><ele>287.0</ele><time>2026-04-19T16:01:46.29Z</time></trkpt><trkpt lat="45.7680939" lon="9.4175323"><ele>287.0</ele><time>2026-04-19T16:01:47.285Z</time></trkpt><trkpt lat="45.7679646" lon="9.4176052"><ele>287.0</ele><time>2026-04-19T16:01:48.282Z</time></trkpt><trkpt lat="45.7678357" lon="9.4176586"><ele>287.0</ele><time>2026-04-19T16:01:49.303Z</time></trkpt><trkpt lat="45.7677032" lon="9.417722"><ele>287.0</ele><time>2026-04-19T16:01:50.338Z</time></trkpt><trkpt lat="45.7675753" lon="9.4177877"><ele>286.75</ele><time>2026-04-19T16:01:51.308Z</time></trkpt><trkpt lat="45.7674508" lon="9.4178487"><ele>286.5</ele><time>2026-04-19T16:01:52.308Z</time></trkpt><trkpt lat="45.7673246" lon="9.4179124"><ele>286.25</ele><time>2026-04-19T16:01:53.294Z</time></trkpt><trkpt lat="45.7671974" lon="9.4179789"><ele>286.0</ele><time>2026-04-19T16:01:54.325Z</time></trkpt><trkpt lat="45.76707" lon="9.4180427"><ele>286.5</ele><time>2026-04-19T16:01:55.294Z</time></trkpt><trkpt lat="45.766941" lon="9.4181115"><ele>287.0</ele><time>2026-04-19T16:01:56.296Z</time></trkpt><trkpt lat="45.7668173" lon="9.4181658"><ele>287.5</ele><time>2026-04-19T16:01:57.303Z</time></trkpt><trkpt lat="45.7666881" lon="9.4182174"><ele>288.0</ele><time>2026-04-19T16:01:58.282Z</time></trkpt><trkpt lat="45.7665649" lon="9.4182627"><ele>288.0</ele><time>2026-04-19T16:01:59.304Z</time></trkpt><trkpt lat="45.7664471" lon="9.4183102"><ele>288.0</ele><time>2026-04-19T16:02:00.282Z</time></trkpt><trkpt lat="45.7663238" lon="9.4183561"><ele>288.0</ele><time>2026-04-19T16:02:01.29Z</time></trkpt><trkpt lat="45.7662178" lon="9.418407"><ele>288.0</ele><time>2026-04-19T16:02:02.293Z</time></trkpt><trkpt lat="45.76612" lon="9.4184494"><ele>288.0</ele><time>2026-04-19T16:02:03.324Z</time></trkpt><trkpt lat="45.7660338" lon="9.4184644"><ele>288.0</ele><time>2026-04-19T16:02:04.329Z</time></trkpt><trkpt lat="45.765957" lon="9.4184458"><ele>288.0</ele><time>2026-04-19T16:02:05.302Z</time></trkpt><trkpt lat="45.7658884" lon="9.418427"><ele>288.0</ele><time>2026-04-19T16:02:06.291Z</time></trkpt><trkpt lat="45.7658376" lon="9.418363"><ele>288.0</ele><time>2026-04-19T16:02:07.318Z</time></trkpt><trkpt lat="45.7657641" lon="9.4182977"><ele>288.0</ele><time>2026-04-19T16:02:09.326Z</time></trkpt><trkpt lat="45.7657261" lon="9.4181634"><ele>288.6</ele><time>2026-04-19T16:02:11.328Z</time></trkpt><trkpt lat="45.7656769" lon="9.4180469"><ele>289.20000000000005</ele><time>2026-04-19T16:02:13.297Z</time></trkpt><trkpt lat="45.7655747" lon="9.4180595"><ele>289.8</ele><time>2026-04-19T16:02:15.332Z</time></trkpt><trkpt lat="45.7654693" lon="9.4181599"><ele>290.40000000000003</ele><time>2026-04-19T16:02:17.311Z</time></trkpt><trkpt lat="45.7654097" lon="9.4182422"><ele>291.0</ele><time>2026-04-19T16:02:18.325Z</time></trkpt><trkpt lat="45.7653359" lon="9.4183144"><ele>291.0</ele><time>2026-04-19T16:02:19.33Z</time></trkpt><trkpt lat="45.7652557" lon="9.4184024"><ele>291.0</ele><time>2026-04-19T16:02:20.31Z</time></trkpt><trkpt lat="45.7651781" lon="9.418493"><ele>291.0</ele><time>2026-04-19T16:02:21.316Z</time></trkpt><trkpt lat="45.7650946" lon="9.4185945"><ele>291.0</ele><time>2026-04-19T16:02:22.308Z</time></trkpt><trkpt lat="45.7650073" lon="9.4187082"><ele>291.0</ele><time>2026-04-19T16:02:23.288Z</time></trkpt><trkpt lat="45.7649257" lon="9.4188093"><ele>290.5</ele><time>2026-04-19T16:02:24.288Z</time></trkpt><trkpt lat="45.7648361" lon="9.4189263"><ele>290.0</ele><time>2026-04-19T16:02:25.315Z</time></trkpt><trkpt lat="45.7647434" lon="9.4190314"><ele>289.5</ele><time>2026-04-19T16:02:26.33Z</time></trkpt><trkpt lat="45.7646553" lon="9.419136"><ele>289.0</ele><time>2026-04-19T16:02:27.311Z</time></trkpt><trkpt lat="45.7645669" lon="9.4192515"><ele>289.0</ele><time>2026-04-19T16:02:28.325Z</time></trkpt><trkpt lat="45.7644781" lon="9.4193699"><ele>289.0</ele><time>2026-04-19T16:02:29.318Z</time></trkpt><trkpt lat="45.7643873" lon="9.419478"><ele>289.0</ele><time>2026-04-19T16:02:30.294Z</time></trkpt><trkpt lat="45.7642938" lon="9.4195866"><ele>289.0</ele><time>2026-04-19T16:02:31.291Z</time></trkpt><trkpt lat="45.764196" lon="9.4197078"><ele>289.0</ele><time>2026-04-19T16:02:32.327Z</time></trkpt><trkpt lat="45.7640949" lon="9.419818"><ele>289.0</ele><time>2026-04-19T16:02:33.319Z</time></trkpt><trkpt lat="45.7639855" lon="9.4199465"><ele>289.0</ele><time>2026-04-19T16:02:34.335Z</time></trkpt><trkpt lat="45.7638734" lon="9.4200692"><ele>289.0</ele><time>2026-04-19T16:02:35.296Z</time></trkpt><trkpt lat="45.7637534" lon="9.4201832"><ele>289.0</ele><time>2026-04-19T16:02:36.333Z</time></trkpt><trkpt lat="45.7636298" lon="9.4203149"><ele>289.0</ele><time>2026-04-19T16:02:37.336Z</time></trkpt><trkpt lat="45.7635078" lon="9.4204341"><ele>289.0</ele><time>2026-04-19T16:02:38.33Z</time></trkpt><trkpt lat="45.7633822" lon="9.420546"><ele>286.5</ele><time>2026-04-19T16:02:39.319Z</time></trkpt><trkpt lat="45.7632628" lon="9.4206563"><ele>284.0</ele><time>2026-04-19T16:02:40.35Z</time></trkpt><trkpt lat="45.76315" lon="9.4207684"><ele>281.5</ele><time>2026-04-19T16:02:41.328Z</time></trkpt><trkpt lat="45.7630351" lon="9.4208794"><ele>279.0</ele><time>2026-04-19T16:02:42.319Z</time></trkpt><trkpt lat="45.7629147" lon="9.4209961"><ele>279.0</ele><time>2026-04-19T16:02:43.327Z</time></trkpt><trkpt lat="45.7628001" lon="9.4210892"><ele>279.0</ele><time>2026-04-19T16:02:44.325Z</time></trkpt><trkpt lat="45.7626916" lon="9.4211786"><ele>279.0</ele><time>2026-04-19T16:02:45.337Z</time></trkpt><trkpt lat="45.7625818" lon="9.4212735"><ele>279.0</ele><time>2026-04-19T16:02:46.33Z</time></trkpt><trkpt lat="45.7624763" lon="9.4213406"><ele>278.25</ele><time>2026-04-19T16:02:47.326Z</time></trkpt><trkpt lat="45.7623668" lon="9.4213985"><ele>277.5</ele><time>2026-04-19T16:02:48.335Z</time></trkpt><trkpt lat="45.7622489" lon="9.4214501"><ele>276.75</ele><time>2026-04-19T16:02:49.34Z</time></trkpt><trkpt lat="45.7621207" lon="9.4214815"><ele>276.0</ele><time>2026-04-19T16:02:50.3Z</time></trkpt><trkpt lat="45.7619911" lon="9.4214701"><ele>273.5</ele><time>2026-04-19T16:02:51.334Z</time></trkpt><trkpt lat="45.7618643" lon="9.4214685"><ele>271.0</ele><time>2026-04-19T16:02:52.296Z</time></trkpt><trkpt lat="45.7617276" lon="9.4214804"><ele>268.5</ele><time>2026-04-19T16:02:53.334Z</time></trkpt><trkpt lat="45.7615857" lon="9.4214934"><ele>266.0</ele><time>2026-04-19T16:02:54.299Z</time></trkpt><trkpt lat="45.7614448" lon="9.4215155"><ele>266.0</ele><time>2026-04-19T16:02:55.326Z</time></trkpt><trkpt lat="45.7612961" lon="9.4215601"><ele>266.0</ele><time>2026-04-19T16:02:56.344Z</time></trkpt><trkpt lat="45.7611517" lon="9.4216188"><ele>266.0</ele><time>2026-04-19T16:02:57.333Z</time></trkpt><trkpt lat="45.7610168" lon="9.4216628"><ele>266.0</ele><time>2026-04-19T16:02:58.317Z</time></trkpt><trkpt lat="45.7608877" lon="9.4217061"><ele>266.5</ele><time>2026-04-19T16:02:59.327Z</time></trkpt><trkpt lat="45.7607628" lon="9.421765"><ele>267.0</ele><time>2026-04-19T16:03:00.329Z</time></trkpt><trkpt lat="45.7606362" lon="9.4218194"><ele>267.5</ele><time>2026-04-19T16:03:01.331Z</time></trkpt><trkpt lat="45.7605087" lon="9.4218756"><ele>268.0</ele><time>2026-04-19T16:03:02.328Z</time></trkpt><trkpt lat="45.760394" lon="9.4219481"><ele>268.0</ele><time>2026-04-19T16:03:03.307Z</time></trkpt><trkpt lat="45.7602783" lon="9.4220026"><ele>268.0</ele><time>2026-04-19T16:03:04.317Z</time></trkpt><trkpt lat="45.7601532" lon="9.4220358"><ele>268.0</ele><time>2026-04-19T16:03:05.32Z</time></trkpt><trkpt lat="45.7600195" lon="9.4220704"><ele>268.0</ele><time>2026-04-19T16:03:06.33Z</time></trkpt><trkpt lat="45.7598795" lon="9.4220905"><ele>266.75</ele><time>2026-04-19T16:03:07.34Z</time></trkpt><trkpt lat="45.7597422" lon="9.4221069"><ele>265.5</ele><time>2026-04-19T16:03:08.322Z</time></trkpt><trkpt lat="45.7596078" lon="9.4221225"><ele>264.25</ele><time>2026-04-19T16:03:09.328Z</time></trkpt><trkpt lat="45.7594814" lon="9.4221424"><ele>263.0</ele><time>2026-04-19T16:03:10.343Z</time></trkpt><trkpt lat="45.7593555" lon="9.4221729"><ele>263.0</ele><time>2026-04-19T16:03:11.328Z</time></trkpt><trkpt lat="45.7592299" lon="9.4222166"><ele>263.0</ele><time>2026-04-19T16:03:12.345Z</time></trkpt><trkpt lat="45.7591259" lon="9.4223077"><ele>263.0</ele><time>2026-04-19T16:03:13.326Z</time></trkpt><trkpt lat="45.7590447" lon="9.4224165"><ele>263.0</ele><time>2026-04-19T16:03:14.332Z</time></trkpt><trkpt lat="45.7589711" lon="9.4225071"><ele>263.0</ele><time>2026-04-19T16:03:15.323Z</time></trkpt><trkpt lat="45.7588918" lon="9.4225783"><ele>263.0</ele><time>2026-04-19T16:03:16.336Z</time></trkpt><trkpt lat="45.7588017" lon="9.4226104"><ele>263.0</ele><time>2026-04-19T16:03:17.325Z</time></trkpt><trkpt lat="45.7587064" lon="9.4226159"><ele>263.0</ele><time>2026-04-19T16:03:18.333Z</time></trkpt><trkpt lat="45.7586036" lon="9.4226289"><ele>263.0</ele><time>2026-04-19T16:03:19.329Z</time></trkpt><trkpt lat="45.758518" lon="9.4226866"><ele>264.8</ele><time>2026-04-19T16:03:20.335Z</time></trkpt><trkpt lat="45.7584168" lon="9.422745"><ele>266.6</ele><time>2026-04-19T16:03:21.34Z</time></trkpt><trkpt lat="45.7583267" lon="9.4228112"><ele>268.4</ele><time>2026-04-19T16:03:22.33Z</time></trkpt><trkpt lat="45.7582346" lon="9.422889"><ele>270.2</ele><time>2026-04-19T16:03:23.312Z</time></trkpt><trkpt lat="45.7581509" lon="9.4229207"><ele>272.0</ele><time>2026-04-19T16:03:24.331Z</time></trkpt><trkpt lat="45.7580604" lon="9.4229153"><ele>272.0</ele><time>2026-04-19T16:03:25.32Z</time></trkpt><trkpt lat="45.7579456" lon="9.4229106"><ele>272.0</ele><time>2026-04-19T16:03:26.324Z</time></trkpt><trkpt lat="45.7578545" lon="9.4228893"><ele>272.0</ele><time>2026-04-19T16:03:27.344Z</time></trkpt><trkpt lat="45.7577643" lon="9.4228495"><ele>272.0</ele><time>2026-04-19T16:03:28.327Z</time></trkpt><trkpt lat="45.7576799" lon="9.4228075"><ele>272.0</ele><time>2026-04-19T16:03:29.346Z</time></trkpt><trkpt lat="45.757593" lon="9.4227439"><ele>269.33333333333337</ele><time>2026-04-19T16:03:30.332Z</time></trkpt><trkpt lat="45.7575248" lon="9.422661"><ele>266.6666666666667</ele><time>2026-04-19T16:03:31.327Z</time></trkpt><trkpt lat="45.7574654" lon="9.4225647"><ele>264.0</ele><time>2026-04-19T16:03:32.337Z</time></trkpt><trkpt lat="45.7574132" lon="9.4224601"><ele>261.3333333333333</ele><time>2026-04-19T16:03:33.289Z</time></trkpt><trkpt lat="45.7573324" lon="9.4223734"><ele>258.66666666666663</ele><time>2026-04-19T16:03:35.326Z</time></trkpt><trkpt lat="45.7572593" lon="9.4223631"><ele>256.0</ele><time>2026-04-19T16:03:39.338Z</time></trkpt><trkpt lat="45.7571912" lon="9.4224478"><ele>255.99999999999997</ele><time>2026-04-19T16:03:41.327Z</time></trkpt><trkpt lat="45.7571397" lon="9.4225086"><ele>256.0</ele><time>2026-04-19T16:03:42.348Z</time></trkpt><trkpt lat="45.7570346" lon="9.4226353"><ele>256.0</ele><time>2026-04-19T16:03:44.325Z</time></trkpt><trkpt lat="45.7569706" lon="9.4227211"><ele>256.0</ele><time>2026-04-19T16:03:45.355Z</time></trkpt><trkpt lat="45.7569065" lon="9.4227853"><ele>255.99999999999997</ele><time>2026-04-19T16:03:46.341Z</time></trkpt><trkpt lat="45.7568438" lon="9.4228304"><ele>256.0</ele><time>2026-04-19T16:03:47.336Z</time></trkpt><trkpt lat="45.7567762" lon="9.4228273"><ele>254.0</ele><time>2026-04-19T16:03:48.34Z</time></trkpt><trkpt lat="45.7567045" lon="9.4227853"><ele>252.00000000000003</ele><time>2026-04-19T16:03:49.348Z</time></trkpt><trkpt lat="45.7566196" lon="9.4227205"><ele>250.00000000000003</ele><time>2026-04-19T16:03:50.331Z</time></trkpt><trkpt lat="45.7565217" lon="9.4226633"><ele>248.0</ele><time>2026-04-19T16:03:51.338Z</time></trkpt><trkpt lat="45.7564192" lon="9.4226191"><ele>246.0</ele><time>2026-04-19T16:03:52.339Z</time></trkpt><trkpt lat="45.7563113" lon="9.422571"><ele>246.0</ele><time>2026-04-19T16:03:53.302Z</time></trkpt><trkpt lat="45.7562131" lon="9.422518"><ele>246.00000000000003</ele><time>2026-04-19T16:03:54.328Z</time></trkpt><trkpt lat="45.7561283" lon="9.4224727"><ele>246.00000000000003</ele><time>2026-04-19T16:03:55.337Z</time></trkpt><trkpt lat="45.7560496" lon="9.4224457"><ele>246.0</ele><time>2026-04-19T16:03:56.332Z</time></trkpt><trkpt lat="45.7559714" lon="9.4224493"><ele>246.0</ele><time>2026-04-19T16:03:57.334Z</time></trkpt><trkpt lat="45.7558686" lon="9.4225734"><ele>245.5</ele><time>2026-04-19T16:03:59.33Z</time></trkpt><trkpt lat="45.7558434" lon="9.4226641"><ele>245.0</ele><time>2026-04-19T16:04:00.336Z</time></trkpt><trkpt lat="45.7558463" lon="9.422786"><ele>244.5</ele><time>2026-04-19T16:04:01.326Z</time></trkpt><trkpt lat="45.7558803" lon="9.4229136"><ele>244.0</ele><time>2026-04-19T16:04:02.292Z</time></trkpt><trkpt lat="45.7559369" lon="9.423034"><ele>243.5</ele><time>2026-04-19T16:04:03.322Z</time></trkpt><trkpt lat="45.7559957" lon="9.4231494"><ele>243.0</ele><time>2026-04-19T16:04:04.327Z</time></trkpt><trkpt lat="45.7560427" lon="9.4232785"><ele>241.5</ele><time>2026-04-19T16:04:05.322Z</time></trkpt><trkpt lat="45.7560734" lon="9.4234144"><ele>240.0</ele><time>2026-04-19T16:04:06.329Z</time></trkpt><trkpt lat="45.7561064" lon="9.423532"><ele>238.5</ele><time>2026-04-19T16:04:07.333Z</time></trkpt><trkpt lat="45.7561138" lon="9.4236587"><ele>237.0</ele><time>2026-04-19T16:04:08.329Z</time></trkpt><trkpt lat="45.7561353" lon="9.4237752"><ele>235.5</ele><time>2026-04-19T16:04:09.332Z</time></trkpt><trkpt lat="45.7561574" lon="9.4238966"><ele>234.0</ele><time>2026-04-19T16:04:10.326Z</time></trkpt><trkpt lat="45.7561902" lon="9.4239924"><ele>233.2</ele><time>2026-04-19T16:04:11.342Z</time></trkpt><trkpt lat="45.7561792" lon="9.4241499"><ele>232.39999999999998</ele><time>2026-04-19T16:04:13.352Z</time></trkpt><trkpt lat="45.7561221" lon="9.4242309"><ele>231.6</ele><time>2026-04-19T16:04:14.336Z</time></trkpt><trkpt lat="45.756045" lon="9.4242923"><ele>230.8</ele><time>2026-04-19T16:04:15.346Z</time></trkpt><trkpt lat="45.7559751" lon="9.4243901"><ele>230.0</ele><time>2026-04-19T16:04:16.331Z</time></trkpt><trkpt lat="45.75591" lon="9.4244718"><ele>229.8</ele><time>2026-04-19T16:04:17.35Z</time></trkpt><trkpt lat="45.7558574" lon="9.4245561"><ele>229.6</ele><time>2026-04-19T16:04:18.349Z</time></trkpt><trkpt lat="45.755846" lon="9.4246455"><ele>229.39999999999998</ele><time>2026-04-19T16:04:19.335Z</time></trkpt><trkpt lat="45.7558377" lon="9.424819"><ele>229.2</ele><time>2026-04-19T16:04:21.334Z</time></trkpt><trkpt lat="45.7558317" lon="9.425"><ele>229.0</ele><time>2026-04-19T16:04:23.343Z</time></trkpt><trkpt lat="45.7558157" lon="9.4251093"><ele>228.33333333333331</ele><time>2026-04-19T16:04:24.345Z</time></trkpt><trkpt lat="45.755789" lon="9.4252265"><ele>227.66666666666666</ele><time>2026-04-19T16:04:25.316Z</time></trkpt><trkpt lat="45.7557627" lon="9.4253459"><ele>227.0</ele><time>2026-04-19T16:04:26.306Z</time></trkpt><trkpt lat="45.7557412" lon="9.4254463"><ele>226.33333333333331</ele><time>2026-04-19T16:04:27.333Z</time></trkpt><trkpt lat="45.7557175" lon="9.4255407"><ele>225.66666666666666</ele><time>2026-04-19T16:04:28.336Z</time></trkpt><trkpt lat="45.7556952" lon="9.4256272"><ele>225.0</ele><time>2026-04-19T16:04:29.342Z</time></trkpt><trkpt lat="45.7557335" lon="9.4258063"><ele>224.5714285714286</ele><time>2026-04-19T16:04:31.297Z</time></trkpt><trkpt lat="45.7557916" lon="9.4258861"><ele>224.14285714285717</ele><time>2026-04-19T16:04:32.327Z</time></trkpt><trkpt lat="45.755852" lon="9.4259659"><ele>223.71428571428572</ele><time>2026-04-19T16:04:33.321Z</time></trkpt><trkpt lat="45.7558801" lon="9.4260493"><ele>223.2857142857143</ele><time>2026-04-19T16:04:34.336Z</time></trkpt><trkpt lat="45.7558991" lon="9.4261494"><ele>222.8571428571429</ele><time>2026-04-19T16:04:35.314Z</time></trkpt><trkpt lat="45.7558903" lon="9.426247"><ele>222.42857142857142</ele><time>2026-04-19T16:04:36.338Z</time></trkpt><trkpt lat="45.7558845" lon="9.4263528"><ele>222.0</ele><time>2026-04-19T16:04:37.34Z</time></trkpt><trkpt lat="45.7558792" lon="9.4264704"><ele>221.33333333333334</ele><time>2026-04-19T16:04:39.329Z</time></trkpt><trkpt lat="45.755865" lon="9.4265604"><ele>220.66666666666669</ele><time>2026-04-19T16:04:43.332Z</time></trkpt><trkpt lat="45.7558076" lon="9.426639"><ele>220.0</ele><time>2026-04-19T16:04:45.333Z</time></trkpt><trkpt lat="45.7557082" lon="9.4266521"><ele>219.33333333333334</ele><time>2026-04-19T16:04:47.333Z</time></trkpt><trkpt lat="45.755574" lon="9.4266484"><ele>218.66666666666669</ele><time>2026-04-19T16:04:49.345Z</time></trkpt><trkpt lat="45.7555038" lon="9.4266414"><ele>218.0</ele><time>2026-04-19T16:04:50.339Z</time></trkpt><trkpt lat="45.755435" lon="9.4266394"><ele>218.00000000000003</ele><time>2026-04-19T16:04:51.333Z</time></trkpt><trkpt lat="45.7553702" lon="9.4266321"><ele>218.0</ele><time>2026-04-19T16:04:52.338Z</time></trkpt><trkpt lat="45.7553072" lon="9.4266285"><ele>218.0</ele><time>2026-04-19T16:04:53.33Z</time></trkpt><trkpt lat="45.7552041" lon="9.4266072"><ele>218.0</ele><time>2026-04-19T16:04:55.336Z</time></trkpt><trkpt lat="45.7551349" lon="9.4266041"><ele>218.00000000000003</ele><time>2026-04-19T16:04:58.337Z</time></trkpt><trkpt lat="45.7550395" lon="9.4266072"><ele>218.0</ele><time>2026-04-19T16:05:01.337Z</time></trkpt><trkpt lat="45.7549713" lon="9.4265953"><ele>218.4</ele><time>2026-04-19T16:05:02.335Z</time></trkpt><trkpt lat="45.7548883" lon="9.4266051"><ele>218.8</ele><time>2026-04-19T16:05:03.34Z</time></trkpt><trkpt lat="45.7547903" lon="9.4265918"><ele>219.2</ele><time>2026-04-19T16:05:04.332Z</time></trkpt><trkpt lat="45.7546823" lon="9.4265882"><ele>219.6</ele><time>2026-04-19T16:05:05.328Z</time></trkpt><trkpt lat="45.7545595" lon="9.426585"><ele>220.0</ele><time>2026-04-19T16:05:06.311Z</time></trkpt><trkpt lat="45.7544289" lon="9.4265899"><ele>219.5</ele><time>2026-04-19T16:05:07.328Z</time></trkpt><trkpt lat="45.7542917" lon="9.4265854"><ele>219.0</ele><time>2026-04-19T16:05:08.35Z</time></trkpt><trkpt lat="45.7541467" lon="9.4265709"><ele>218.5</ele><time>2026-04-19T16:05:09.324Z</time></trkpt><trkpt lat="45.7540025" lon="9.4265625"><ele>218.0</ele><time>2026-04-19T16:05:10.33Z</time></trkpt><trkpt lat="45.7538542" lon="9.426562"><ele>218.0</ele><time>2026-04-19T16:05:11.349Z</time></trkpt><trkpt lat="45.7537017" lon="9.4265676"><ele>218.0</ele><time>2026-04-19T16:05:12.328Z</time></trkpt><trkpt lat="45.7535536" lon="9.426561"><ele>218.0</ele><time>2026-04-19T16:05:13.341Z</time></trkpt><trkpt lat="45.7533996" lon="9.4265567"><ele>217.5</ele><time>2026-04-19T16:05:14.339Z</time></trkpt><trkpt lat="45.7532504" lon="9.4265538"><ele>217.0</ele><time>2026-04-19T16:05:15.347Z</time></trkpt><trkpt lat="45.7530997" lon="9.426548"><ele>216.5</ele><time>2026-04-19T16:05:16.309Z</time></trkpt><trkpt lat="45.7529521" lon="9.4265454"><ele>216.0</ele><time>2026-04-19T16:05:17.315Z</time></trkpt><trkpt lat="45.752797" lon="9.4265445"><ele>215.5</ele><time>2026-04-19T16:05:18.332Z</time></trkpt><trkpt lat="45.7526466" lon="9.4265424"><ele>215.0</ele><time>2026-04-19T16:05:19.34Z</time></trkpt><trkpt lat="45.7525014" lon="9.4265473"><ele>214.5</ele><time>2026-04-19T16:05:20.349Z</time></trkpt><trkpt lat="45.752361" lon="9.4265472"><ele>214.0</ele><time>2026-04-19T16:05:21.339Z</time></trkpt><trkpt lat="45.7522208" lon="9.4265487"><ele>214.0</ele><time>2026-04-19T16:05:22.327Z</time></trkpt><trkpt lat="45.752079" lon="9.4265471"><ele>214.0</ele><time>2026-04-19T16:05:23.332Z</time></trkpt><trkpt lat="45.7519369" lon="9.4265318"><ele>214.0</ele><time>2026-04-19T16:05:24.333Z</time></trkpt><trkpt lat="45.751789" lon="9.426524"><ele>214.0</ele><time>2026-04-19T16:05:25.327Z</time></trkpt><trkpt lat="45.7516439" lon="9.4265153"><ele>213.0</ele><time>2026-04-19T16:05:26.339Z</time></trkpt><trkpt lat="45.7514967" lon="9.4265054"><ele>212.0</ele><time>2026-04-19T16:05:27.332Z</time></trkpt><trkpt lat="45.7513532" lon="9.4264984"><ele>211.0</ele><time>2026-04-19T16:05:28.331Z</time></trkpt><trkpt lat="45.7512113" lon="9.4264876"><ele>210.0</ele><time>2026-04-19T16:05:29.343Z</time></trkpt><trkpt lat="45.7510758" lon="9.4264678"><ele>209.6</ele><time>2026-04-19T16:05:30.325Z</time></trkpt><trkpt lat="45.7509474" lon="9.4264642"><ele>209.2</ele><time>2026-04-19T16:05:31.338Z</time></trkpt><trkpt lat="45.7508295" lon="9.4264585"><ele>208.8</ele><time>2026-04-19T16:05:32.328Z</time></trkpt><trkpt lat="45.7507328" lon="9.4264416"><ele>208.4</ele><time>2026-04-19T16:05:33.332Z</time></trkpt><trkpt lat="45.7506363" lon="9.4264148"><ele>208.0</ele><time>2026-04-19T16:05:34.329Z</time></trkpt><trkpt lat="45.7505397" lon="9.4263745"><ele>208.0</ele><time>2026-04-19T16:05:35.35Z</time></trkpt><trkpt lat="45.7504363" lon="9.4263512"><ele>208.0</ele><time>2026-04-19T16:05:36.339Z</time></trkpt><trkpt lat="45.7503265" lon="9.4263549"><ele>208.0</ele><time>2026-04-19T16:05:37.35Z</time></trkpt><trkpt lat="45.7502082" lon="9.4263714"><ele>208.0</ele><time>2026-04-19T16:05:38.353Z</time></trkpt><trkpt lat="45.7500808" lon="9.4263856"><ele>208.25</ele><time>2026-04-19T16:05:39.342Z</time></trkpt><trkpt lat="45.7499521" lon="9.4263736"><ele>208.5</ele><time>2026-04-19T16:05:40.352Z</time></trkpt><trkpt lat="45.749821" lon="9.4263611"><ele>208.75</ele><time>2026-04-19T16:05:41.349Z</time></trkpt><trkpt lat="45.7496837" lon="9.4263586"><ele>209.0</ele><time>2026-04-19T16:05:42.348Z</time></trkpt><trkpt lat="45.7495479" lon="9.4263525"><ele>209.0</ele><time>2026-04-19T16:05:43.333Z</time></trkpt><trkpt lat="45.7494058" lon="9.4263371"><ele>209.0</ele><time>2026-04-19T16:05:44.338Z</time></trkpt><trkpt lat="45.7492674" lon="9.426326"><ele>209.0</ele><time>2026-04-19T16:05:45.346Z</time></trkpt><trkpt lat="45.7491264" lon="9.4263144"><ele>209.0</ele><time>2026-04-19T16:05:46.334Z</time></trkpt><trkpt lat="45.7489892" lon="9.4263044"><ele>210.25</ele><time>2026-04-19T16:05:47.34Z</time></trkpt><trkpt lat="45.7488512" lon="9.4262929"><ele>211.5</ele><time>2026-04-19T16:05:48.336Z</time></trkpt><trkpt lat="45.7487142" lon="9.4262732"><ele>212.75</ele><time>2026-04-19T16:05:49.34Z</time></trkpt><trkpt lat="45.7485716" lon="9.4262601"><ele>214.0</ele><time>2026-04-19T16:05:50.332Z</time></trkpt><trkpt lat="45.7484245" lon="9.426244"><ele>214.25</ele><time>2026-04-19T16:05:51.337Z</time></trkpt><trkpt lat="45.7482822" lon="9.4262249"><ele>214.5</ele><time>2026-04-19T16:05:52.342Z</time></trkpt><trkpt lat="45.7481346" lon="9.4262078"><ele>214.75</ele><time>2026-04-19T16:05:53.345Z</time></trkpt><trkpt lat="45.74799" lon="9.4261906"><ele>215.0</ele><time>2026-04-19T16:05:54.337Z</time></trkpt><trkpt lat="45.7478445" lon="9.426179"><ele>215.75</ele><time>2026-04-19T16:05:55.333Z</time></trkpt><trkpt lat="45.7477018" lon="9.4261646"><ele>216.5</ele><time>2026-04-19T16:05:56.322Z</time></trkpt><trkpt lat="45.7475666" lon="9.4261464"><ele>217.25</ele><time>2026-04-19T16:05:57.359Z</time></trkpt><trkpt lat="45.7474283" lon="9.4261269"><ele>218.0</ele><time>2026-04-19T16:05:58.349Z</time></trkpt><trkpt lat="45.7472885" lon="9.4261102"><ele>218.0</ele><time>2026-04-19T16:05:59.334Z</time></trkpt><trkpt lat="45.7471476" lon="9.4260985"><ele>218.0</ele><time>2026-04-19T16:06:00.347Z</time></trkpt><trkpt lat="45.7470005" lon="9.4260811"><ele>218.0</ele><time>2026-04-19T16:06:01.34Z</time></trkpt><trkpt lat="45.7468607" lon="9.4260653"><ele>218.0</ele><time>2026-04-19T16:06:02.328Z</time></trkpt><trkpt lat="45.7467143" lon="9.4260546"><ele>217.5</ele><time>2026-04-19T16:06:03.336Z</time></trkpt><trkpt lat="45.7465686" lon="9.4260379"><ele>217.0</ele><time>2026-04-19T16:06:04.328Z</time></trkpt><trkpt lat="45.7464304" lon="9.426019"><ele>216.5</ele><time>2026-04-19T16:06:05.332Z</time></trkpt><trkpt lat="45.7462855" lon="9.4259944"><ele>216.0</ele><time>2026-04-19T16:06:06.329Z</time></trkpt><trkpt lat="45.7461425" lon="9.4259689"><ele>216.0</ele><time>2026-04-19T16:06:07.321Z</time></trkpt><trkpt lat="45.746004" lon="9.4259344"><ele>216.0</ele><time>2026-04-19T16:06:08.333Z</time></trkpt><trkpt lat="45.7458659" lon="9.425891"><ele>216.0</ele><time>2026-04-19T16:06:09.341Z</time></trkpt><trkpt lat="45.7457351" lon="9.4258325"><ele>216.0</ele><time>2026-04-19T16:06:10.336Z</time></trkpt><trkpt lat="45.7455979" lon="9.4257617"><ele>216.0</ele><time>2026-04-19T16:06:11.323Z</time></trkpt><trkpt lat="45.7454658" lon="9.4256892"><ele>216.0</ele><time>2026-04-19T16:06:12.334Z</time></trkpt><trkpt lat="45.7453378" lon="9.42561"><ele>216.0</ele><time>2026-04-19T16:06:13.345Z</time></trkpt><trkpt lat="45.7452068" lon="9.425537"><ele>216.0</ele><time>2026-04-19T16:06:14.334Z</time></trkpt><trkpt lat="45.7450718" lon="9.4254644"><ele>217.5</ele><time>2026-04-19T16:06:15.326Z</time></trkpt><trkpt lat="45.7449377" lon="9.4254007"><ele>219.0</ele><time>2026-04-19T16:06:16.345Z</time></trkpt><trkpt lat="45.7448136" lon="9.4253331"><ele>220.5</ele><time>2026-04-19T16:06:17.34Z</time></trkpt><trkpt lat="45.7446967" lon="9.4252686"><ele>222.0</ele><time>2026-04-19T16:06:18.345Z</time></trkpt><trkpt lat="45.7445718" lon="9.425208"><ele>222.0</ele><time>2026-04-19T16:06:19.34Z</time></trkpt><trkpt lat="45.7444521" lon="9.4251426"><ele>222.0</ele><time>2026-04-19T16:06:20.325Z</time></trkpt><trkpt lat="45.7443328" lon="9.4250812"><ele>222.0</ele><time>2026-04-19T16:06:21.339Z</time></trkpt><trkpt lat="45.744207" lon="9.4250187"><ele>222.0</ele><time>2026-04-19T16:06:22.326Z</time></trkpt><trkpt lat="45.7440872" lon="9.424953"><ele>221.0</ele><time>2026-04-19T16:06:23.341Z</time></trkpt><trkpt lat="45.7439671" lon="9.4248905"><ele>220.0</ele><time>2026-04-19T16:06:24.334Z</time></trkpt><trkpt lat="45.7438524" lon="9.4248211"><ele>219.0</ele><time>2026-04-19T16:06:25.341Z</time></trkpt><trkpt lat="45.7437406" lon="9.4247498"><ele>218.0</ele><time>2026-04-19T16:06:26.357Z</time></trkpt><trkpt lat="45.7436284" lon="9.4246786"><ele>219.75</ele><time>2026-04-19T16:06:27.337Z</time></trkpt><trkpt lat="45.7435149" lon="9.4246135"><ele>221.5</ele><time>2026-04-19T16:06:28.333Z</time></trkpt><trkpt lat="45.743394" lon="9.4245486"><ele>223.25</ele><time>2026-04-19T16:06:29.328Z</time></trkpt><trkpt lat="45.7432778" lon="9.4244727"><ele>225.0</ele><time>2026-04-19T16:06:30.352Z</time></trkpt><trkpt lat="45.7431472" lon="9.424409"><ele>225.0</ele><time>2026-04-19T16:06:31.337Z</time></trkpt><trkpt lat="45.7430263" lon="9.4243422"><ele>225.0</ele><time>2026-04-19T16:06:32.339Z</time></trkpt><trkpt lat="45.7429138" lon="9.4242785"><ele>225.0</ele><time>2026-04-19T16:06:33.347Z</time></trkpt><trkpt lat="45.7427999" lon="9.4242162"><ele>225.0</ele><time>2026-04-19T16:06:34.348Z</time></trkpt><trkpt lat="45.7426872" lon="9.4241606"><ele>222.75</ele><time>2026-04-19T16:06:35.33Z</time></trkpt><trkpt lat="45.7425651" lon="9.4240959"><ele>220.5</ele><time>2026-04-19T16:06:36.342Z</time></trkpt><trkpt lat="45.7424423" lon="9.4240301"><ele>218.25</ele><time>2026-04-19T16:06:37.351Z</time></trkpt><trkpt lat="45.7423224" lon="9.4239583"><ele>216.0</ele><time>2026-04-19T16:06:38.333Z</time></trkpt><trkpt lat="45.7421972" lon="9.4238829"><ele>216.0</ele><time>2026-04-19T16:06:39.344Z</time></trkpt><trkpt lat="45.7420741" lon="9.4238174"><ele>216.0</ele><time>2026-04-19T16:06:40.343Z</time></trkpt><trkpt lat="45.7419599" lon="9.4237538"><ele>216.0</ele><time>2026-04-19T16:06:41.348Z</time></trkpt><trkpt lat="45.7418444" lon="9.4236842"><ele>216.0</ele><time>2026-04-19T16:06:42.295Z</time></trkpt><trkpt lat="45.741728" lon="9.4236084"><ele>216.75</ele><time>2026-04-19T16:06:43.311Z</time></trkpt><trkpt lat="45.7416098" lon="9.4235266"><ele>217.5</ele><time>2026-04-19T16:06:44.351Z</time></trkpt><trkpt lat="45.7414866" lon="9.423436"><ele>218.25</ele><time>2026-04-19T16:06:45.325Z</time></trkpt><trkpt lat="45.7413686" lon="9.4233415"><ele>219.0</ele><time>2026-04-19T16:06:46.344Z</time></trkpt><trkpt lat="45.7412516" lon="9.4232573"><ele>219.0</ele><time>2026-04-19T16:06:47.342Z</time></trkpt><trkpt lat="45.74113" lon="9.4231705"><ele>219.0</ele><time>2026-04-19T16:06:48.336Z</time></trkpt><trkpt lat="45.7410133" lon="9.4230791"><ele>219.0</ele><time>2026-04-19T16:06:49.325Z</time></trkpt><trkpt lat="45.7408969" lon="9.4229974"><ele>219.0</ele><time>2026-04-19T16:06:50.345Z</time></trkpt><trkpt lat="45.7407794" lon="9.4229039"><ele>219.75</ele><time>2026-04-19T16:06:51.333Z</time></trkpt><trkpt lat="45.7406655" lon="9.4228089"><ele>220.5</ele><time>2026-04-19T16:06:52.331Z</time></trkpt><trkpt lat="45.7405535" lon="9.4227133"><ele>221.25</ele><time>2026-04-19T16:06:53.345Z</time></trkpt><trkpt lat="45.7404365" lon="9.4226188"><ele>222.0</ele><time>2026-04-19T16:06:54.347Z</time></trkpt><trkpt lat="45.7403186" lon="9.4225312"><ele>221.25</ele><time>2026-04-19T16:06:55.324Z</time></trkpt><trkpt lat="45.7402006" lon="9.4224401"><ele>220.5</ele><time>2026-04-19T16:06:56.335Z</time></trkpt><trkpt lat="45.7400672" lon="9.4223533"><ele>219.75</ele><time>2026-04-19T16:06:57.341Z</time></trkpt><trkpt lat="45.7399593" lon="9.4222603"><ele>219.0</ele><time>2026-04-19T16:06:58.328Z</time></trkpt><trkpt lat="45.7398407" lon="9.4221716"><ele>219.25</ele><time>2026-04-19T16:06:59.335Z</time></trkpt><trkpt lat="45.7397251" lon="9.4220769"><ele>219.5</ele><time>2026-04-19T16:07:00.338Z</time></trkpt><trkpt lat="45.7396068" lon="9.4219865"><ele>219.75</ele><time>2026-04-19T16:07:01.327Z</time></trkpt><trkpt lat="45.73948" lon="9.4218998"><ele>220.0</ele><time>2026-04-19T16:07:02.325Z</time></trkpt><trkpt lat="45.739364" lon="9.4218207"><ele>219.25</ele><time>2026-04-19T16:07:03.322Z</time></trkpt><trkpt lat="45.7392444" lon="9.4217306"><ele>218.5</ele><time>2026-04-19T16:07:04.345Z</time></trkpt><trkpt lat="45.7391233" lon="9.4216374"><ele>217.75</ele><time>2026-04-19T16:07:05.337Z</time></trkpt><trkpt lat="45.7389984" lon="9.4215405"><ele>217.0</ele><time>2026-04-19T16:07:06.323Z</time></trkpt><trkpt lat="45.738875" lon="9.4214436"><ele>217.0</ele><time>2026-04-19T16:07:07.347Z</time></trkpt><trkpt lat="45.7387471" lon="9.421351"><ele>217.0</ele><time>2026-04-19T16:07:08.334Z</time></trkpt><trkpt lat="45.7386287" lon="9.4212566"><ele>217.0</ele><time>2026-04-19T16:07:09.341Z</time></trkpt><trkpt lat="45.7385046" lon="9.4211588"><ele>217.0</ele><time>2026-04-19T16:07:10.337Z</time></trkpt><trkpt lat="45.7383737" lon="9.4210567"><ele>217.66666666666666</ele><time>2026-04-19T16:07:11.367Z</time></trkpt><trkpt lat="45.7382394" lon="9.4209454"><ele>218.33333333333331</ele><time>2026-04-19T16:07:12.344Z</time></trkpt><trkpt lat="45.7381044" lon="9.4208419"><ele>219.0</ele><time>2026-04-19T16:07:13.296Z</time></trkpt><trkpt lat="45.737968" lon="9.4207404"><ele>219.0</ele><time>2026-04-19T16:07:14.337Z</time></trkpt><trkpt lat="45.7378336" lon="9.4206402"><ele>219.0</ele><time>2026-04-19T16:07:15.326Z</time></trkpt><trkpt lat="45.7376991" lon="9.4205382"><ele>219.0</ele><time>2026-04-19T16:07:16.336Z</time></trkpt><trkpt lat="45.7375634" lon="9.4204354"><ele>219.66666666666669</ele><time>2026-04-19T16:07:17.316Z</time></trkpt><trkpt lat="45.7374283" lon="9.4203232"><ele>220.33333333333334</ele><time>2026-04-19T16:07:18.336Z</time></trkpt><trkpt lat="45.7372944" lon="9.4202156"><ele>221.0</ele><time>2026-04-19T16:07:19.34Z</time></trkpt><trkpt lat="45.7371641" lon="9.4201137"><ele>221.0</ele><time>2026-04-19T16:07:20.341Z</time></trkpt><trkpt lat="45.7370313" lon="9.4200079"><ele>221.0</ele><time>2026-04-19T16:07:21.343Z</time></trkpt><trkpt lat="45.7369027" lon="9.4199058"><ele>221.0</ele><time>2026-04-19T16:07:22.35Z</time></trkpt><trkpt lat="45.7367724" lon="9.4198028"><ele>221.0</ele><time>2026-04-19T16:07:23.351Z</time></trkpt><trkpt lat="45.7366465" lon="9.4196999"><ele>221.25</ele><time>2026-04-19T16:07:24.342Z</time></trkpt><trkpt lat="45.7365209" lon="9.4195993"><ele>221.5</ele><time>2026-04-19T16:07:25.348Z</time></trkpt><trkpt lat="45.7363934" lon="9.4194972"><ele>221.75</ele><time>2026-04-19T16:07:26.347Z</time></trkpt><trkpt lat="45.7362588" lon="9.4193995"><ele>222.0</ele><time>2026-04-19T16:07:27.35Z</time></trkpt><trkpt lat="45.7361349" lon="9.4192967"><ele>221.5</ele><time>2026-04-19T16:07:28.341Z</time></trkpt><trkpt lat="45.7360141" lon="9.4192042"><ele>221.0</ele><time>2026-04-19T16:07:29.323Z</time></trkpt><trkpt lat="45.7358897" lon="9.4191095"><ele>220.5</ele><time>2026-04-19T16:07:30.345Z</time></trkpt><trkpt lat="45.7357741" lon="9.4190164"><ele>220.0</ele><time>2026-04-19T16:07:31.337Z</time></trkpt><trkpt lat="45.7356608" lon="9.4189344"><ele>220.0</ele><time>2026-04-19T16:07:32.346Z</time></trkpt><trkpt lat="45.7355595" lon="9.4188581"><ele>220.0</ele><time>2026-04-19T16:07:33.32Z</time></trkpt><trkpt lat="45.7354658" lon="9.4187779"><ele>220.0</ele><time>2026-04-19T16:07:34.348Z</time></trkpt><trkpt lat="45.7353789" lon="9.4187005"><ele>220.0</ele><time>2026-04-19T16:07:35.324Z</time></trkpt><trkpt lat="45.7353032" lon="9.4186304"><ele>220.0</ele><time>2026-04-19T16:07:36.338Z</time></trkpt><trkpt lat="45.7352384" lon="9.4185601"><ele>220.66666666666666</ele><time>2026-04-19T16:07:37.342Z</time></trkpt><trkpt lat="45.7351841" lon="9.4185039"><ele>221.33333333333331</ele><time>2026-04-19T16:07:38.338Z</time></trkpt><trkpt lat="45.7351075" lon="9.4184203"><ele>222.0</ele><time>2026-04-19T16:07:40.341Z</time></trkpt><trkpt lat="45.7350698" lon="9.4183451"><ele>222.66666666666669</ele><time>2026-04-19T16:07:42.335Z</time></trkpt><trkpt lat="45.735031" lon="9.4182719"><ele>223.33333333333334</ele><time>2026-04-19T16:07:52.337Z</time></trkpt><trkpt lat="45.7349645" lon="9.4181608"><ele>224.0</ele><time>2026-04-19T16:07:55.357Z</time></trkpt><trkpt lat="45.7348962" lon="9.4180639"><ele>224.00000000000003</ele><time>2026-04-19T16:07:57.329Z</time></trkpt><trkpt lat="45.7348378" lon="9.4180103"><ele>224.0</ele><time>2026-04-19T16:07:58.325Z</time></trkpt><trkpt lat="45.7347781" lon="9.4179647"><ele>224.0</ele><time>2026-04-19T16:07:59.34Z</time></trkpt><trkpt lat="45.7347134" lon="9.4179202"><ele>224.0</ele><time>2026-04-19T16:08:00.336Z</time></trkpt><trkpt lat="45.7346448" lon="9.4178632"><ele>224.00000000000003</ele><time>2026-04-19T16:08:01.348Z</time></trkpt><trkpt lat="45.7345696" lon="9.4177916"><ele>224.0</ele><time>2026-04-19T16:08:02.357Z</time></trkpt><trkpt lat="45.7344909" lon="9.4177112"><ele>223.79999999999998</ele><time>2026-04-19T16:08:03.351Z</time></trkpt><trkpt lat="45.7344183" lon="9.4176086"><ele>223.59999999999997</ele><time>2026-04-19T16:08:04.334Z</time></trkpt><trkpt lat="45.7343394" lon="9.417503"><ele>223.4</ele><time>2026-04-19T16:08:05.353Z</time></trkpt><trkpt lat="45.7342627" lon="9.4173971"><ele>223.2</ele><time>2026-04-19T16:08:06.321Z</time></trkpt><trkpt lat="45.7341787" lon="9.4172941"><ele>223.0</ele><time>2026-04-19T16:08:07.316Z</time></trkpt><trkpt lat="45.7340764" lon="9.4172141"><ele>224.75</ele><time>2026-04-19T16:08:08.317Z</time></trkpt><trkpt lat="45.733975" lon="9.4171383"><ele>226.5</ele><time>2026-04-19T16:08:09.336Z</time></trkpt><trkpt lat="45.7338644" lon="9.4170644"><ele>228.25</ele><time>2026-04-19T16:08:10.328Z</time></trkpt><trkpt lat="45.7337484" lon="9.4170125"><ele>230.0</ele><time>2026-04-19T16:08:11.336Z</time></trkpt><trkpt lat="45.7336306" lon="9.4169815"><ele>231.0</ele><time>2026-04-19T16:08:12.346Z</time></trkpt><trkpt lat="45.7334998" lon="9.4169949"><ele>232.0</ele><time>2026-04-19T16:08:13.327Z</time></trkpt><trkpt lat="45.7333666" lon="9.417052"><ele>233.0</ele><time>2026-04-19T16:08:14.346Z</time></trkpt><trkpt lat="45.7332437" lon="9.4171175"><ele>234.0</ele><time>2026-04-19T16:08:15.327Z</time></trkpt><trkpt lat="45.7331224" lon="9.4172092"><ele>236.5</ele><time>2026-04-19T16:08:16.321Z</time></trkpt><trkpt lat="45.7330099" lon="9.4173208"><ele>239.0</ele><time>2026-04-19T16:08:17.334Z</time></trkpt><trkpt lat="45.7329114" lon="9.4174569"><ele>241.5</ele><time>2026-04-19T16:08:18.324Z</time></trkpt><trkpt lat="45.7328324" lon="9.4176202"><ele>244.0</ele><time>2026-04-19T16:08:19.331Z</time></trkpt><trkpt lat="45.7327841" lon="9.4178167"><ele>245.5</ele><time>2026-04-19T16:08:20.302Z</time></trkpt><trkpt lat="45.7327457" lon="9.4180042"><ele>247.0</ele><time>2026-04-19T16:08:21.328Z</time></trkpt><trkpt lat="45.7327265" lon="9.4181885"><ele>248.5</ele><time>2026-04-19T16:08:22.34Z</time></trkpt><trkpt lat="45.7327117" lon="9.4183688"><ele>250.0</ele><time>2026-04-19T16:08:23.329Z</time></trkpt><trkpt lat="45.7326966" lon="9.4185583"><ele>250.0</ele><time>2026-04-19T16:08:24.336Z</time></trkpt><trkpt lat="45.7326748" lon="9.4187415"><ele>250.0</ele><time>2026-04-19T16:08:25.333Z</time></trkpt><trkpt lat="45.7326476" lon="9.4189308"><ele>250.0</ele><time>2026-04-19T16:08:26.335Z</time></trkpt><trkpt lat="45.7326002" lon="9.4191142"><ele>250.0</ele><time>2026-04-19T16:08:27.336Z</time></trkpt><trkpt lat="45.7325418" lon="9.4192833"><ele>250.75</ele><time>2026-04-19T16:08:28.357Z</time></trkpt><trkpt lat="45.7324764" lon="9.4194289"><ele>251.5</ele><time>2026-04-19T16:08:29.333Z</time></trkpt><trkpt lat="45.7323961" lon="9.4195558"><ele>252.25</ele><time>2026-04-19T16:08:30.336Z</time></trkpt><trkpt lat="45.7323109" lon="9.4196613"><ele>253.0</ele><time>2026-04-19T16:08:31.341Z</time></trkpt><trkpt lat="45.7321986" lon="9.419757"><ele>253.2</ele><time>2026-04-19T16:08:32.336Z</time></trkpt><trkpt lat="45.732102" lon="9.4198092"><ele>253.4</ele><time>2026-04-19T16:08:33.337Z</time></trkpt><trkpt lat="45.7319821" lon="9.419826"><ele>253.59999999999997</ele><time>2026-04-19T16:08:34.343Z</time></trkpt><trkpt lat="45.731871" lon="9.4198202"><ele>253.79999999999998</ele><time>2026-04-19T16:08:35.354Z</time></trkpt><trkpt lat="45.7317655" lon="9.4197939"><ele>254.0</ele><time>2026-04-19T16:08:36.336Z</time></trkpt><trkpt lat="45.7316318" lon="9.4197083"><ele>253.5</ele><time>2026-04-19T16:08:37.348Z</time></trkpt><trkpt lat="45.7314982" lon="9.4196316"><ele>253.0</ele><time>2026-04-19T16:08:38.333Z</time></trkpt><trkpt lat="45.7313702" lon="9.4195174"><ele>252.5</ele><time>2026-04-19T16:08:39.347Z</time></trkpt><trkpt lat="45.7312475" lon="9.4193904"><ele>252.0</ele><time>2026-04-19T16:08:40.345Z</time></trkpt><trkpt lat="45.7311171" lon="9.419267"><ele>255.0</ele><time>2026-04-19T16:08:41.333Z</time></trkpt><trkpt lat="45.7309923" lon="9.4191481"><ele>258.0</ele><time>2026-04-19T16:08:42.326Z</time></trkpt><trkpt lat="45.7308563" lon="9.4190163"><ele>261.0</ele><time>2026-04-19T16:08:43.338Z</time></trkpt><trkpt lat="45.7307313" lon="9.4188852"><ele>260.0</ele><time>2026-04-19T16:08:44.331Z</time></trkpt><trkpt lat="45.7306049" lon="9.418764"><ele>259.0</ele><time>2026-04-19T16:08:45.35Z</time></trkpt><trkpt lat="45.7304809" lon="9.4186537"><ele>258.0</ele><time>2026-04-19T16:08:46.329Z</time></trkpt><trkpt lat="45.7303599" lon="9.418535"><ele>257.0</ele><time>2026-04-19T16:08:47.337Z</time></trkpt><trkpt lat="45.7302343" lon="9.4184117"><ele>259.0</ele><time>2026-04-19T16:08:48.29Z</time></trkpt><trkpt lat="45.7301054" lon="9.4182964"><ele>261.0</ele><time>2026-04-19T16:08:49.324Z</time></trkpt><trkpt lat="45.7299709" lon="9.4181668"><ele>263.0</ele><time>2026-04-19T16:08:50.336Z</time></trkpt><trkpt lat="45.7298318" lon="9.4180495"><ele>261.33333333333337</ele><time>2026-04-19T16:08:51.343Z</time></trkpt><trkpt lat="45.7297033" lon="9.417935"><ele>259.6666666666667</ele><time>2026-04-19T16:08:52.335Z</time></trkpt><trkpt lat="45.7295723" lon="9.4178179"><ele>258.0</ele><time>2026-04-19T16:08:53.341Z</time></trkpt><trkpt lat="45.7294504" lon="9.417701"><ele>260.6666666666667</ele><time>2026-04-19T16:08:54.328Z</time></trkpt><trkpt lat="45.7293358" lon="9.4175585"><ele>263.33333333333337</ele><time>2026-04-19T16:08:55.332Z</time></trkpt><trkpt lat="45.7292279" lon="9.4174084"><ele>266.0</ele><time>2026-04-19T16:08:56.332Z</time></trkpt><trkpt lat="45.7291223" lon="9.4172421"><ele>265.0</ele><time>2026-04-19T16:08:57.344Z</time></trkpt><trkpt lat="45.7290099" lon="9.4170717"><ele>264.0</ele><time>2026-04-19T16:08:58.342Z</time></trkpt><trkpt lat="45.7289077" lon="9.4168963"><ele>263.0</ele><time>2026-04-19T16:08:59.346Z</time></trkpt><trkpt lat="45.728803" lon="9.4167227"><ele>263.0</ele><time>2026-04-19T16:09:00.34Z</time></trkpt><trkpt lat="45.728694" lon="9.4165572"><ele>263.0</ele><time>2026-04-19T16:09:01.33Z</time></trkpt><trkpt lat="45.7285818" lon="9.4164139"><ele>263.0</ele><time>2026-04-19T16:09:02.341Z</time></trkpt><trkpt lat="45.7284748" lon="9.4163047"><ele>263.0</ele><time>2026-04-19T16:09:03.343Z</time></trkpt><trkpt lat="45.728357" lon="9.4161919"><ele>264.0</ele><time>2026-04-19T16:09:04.319Z</time></trkpt><trkpt lat="45.7282399" lon="9.4160999"><ele>265.0</ele><time>2026-04-19T16:09:05.334Z</time></trkpt><trkpt lat="45.7281279" lon="9.4160245"><ele>266.0</ele><time>2026-04-19T16:09:06.343Z</time></trkpt><trkpt lat="45.7280239" lon="9.4159371"><ele>267.0</ele><time>2026-04-19T16:09:07.329Z</time></trkpt><trkpt lat="45.7279126" lon="9.4158703"><ele>267.0</ele><time>2026-04-19T16:09:08.342Z</time></trkpt><trkpt lat="45.727813" lon="9.4158128"><ele>267.0</ele><time>2026-04-19T16:09:09.33Z</time></trkpt><trkpt lat="45.7277173" lon="9.4157657"><ele>267.0</ele><time>2026-04-19T16:09:10.338Z</time></trkpt><trkpt lat="45.7276254" lon="9.4157247"><ele>267.0</ele><time>2026-04-19T16:09:11.345Z</time></trkpt><trkpt lat="45.7275319" lon="9.4156964"><ele>267.0</ele><time>2026-04-19T16:09:12.344Z</time></trkpt><trkpt lat="45.727438" lon="9.4156658"><ele>268.2</ele><time>2026-04-19T16:09:13.34Z</time></trkpt><trkpt lat="45.7273413" lon="9.4156384"><ele>269.4</ele><time>2026-04-19T16:09:14.33Z</time></trkpt><trkpt lat="45.7272424" lon="9.4156095"><ele>270.6</ele><time>2026-04-19T16:09:15.329Z</time></trkpt><trkpt lat="45.727138" lon="9.4155685"><ele>271.8</ele><time>2026-04-19T16:09:16.339Z</time></trkpt><trkpt lat="45.7270368" lon="9.4155367"><ele>273.0</ele><time>2026-04-19T16:09:17.333Z</time></trkpt><trkpt lat="45.7269528" lon="9.4155111"><ele>274.2</ele><time>2026-04-19T16:09:18.34Z</time></trkpt><trkpt lat="45.7268741" lon="9.4154891"><ele>275.4</ele><time>2026-04-19T16:09:19.339Z</time></trkpt><trkpt lat="45.7268068" lon="9.4154689"><ele>276.59999999999997</ele><time>2026-04-19T16:09:20.326Z</time></trkpt><trkpt lat="45.7266967" lon="9.4154328"><ele>277.8</ele><time>2026-04-19T16:09:22.332Z</time></trkpt><trkpt lat="45.7265937" lon="9.4154152"><ele>279.0</ele><time>2026-04-19T16:09:24.341Z</time></trkpt><trkpt lat="45.7264774" lon="9.4154114"><ele>279.0</ele><time>2026-04-19T16:09:26.33Z</time></trkpt><trkpt lat="45.7263631" lon="9.4154191"><ele>279.0</ele><time>2026-04-19T16:09:28.344Z</time></trkpt><trkpt lat="45.726262" lon="9.4154228"><ele>279.0</ele><time>2026-04-19T16:09:30.329Z</time></trkpt><trkpt lat="45.7261792" lon="9.4154159"><ele>279.0</ele><time>2026-04-19T16:09:32.337Z</time></trkpt><trkpt lat="45.7260887" lon="9.4154316"><ele>279.0</ele><time>2026-04-19T16:09:35.31Z</time></trkpt><trkpt lat="45.7260055" lon="9.4154433"><ele>279.1428571428571</ele><time>2026-04-19T16:09:38.327Z</time></trkpt><trkpt lat="45.7259326" lon="9.4154577"><ele>279.2857142857143</ele><time>2026-04-19T16:09:41.341Z</time></trkpt><trkpt lat="45.7258559" lon="9.4154885"><ele>279.42857142857144</ele><time>2026-04-19T16:09:44.337Z</time></trkpt><trkpt lat="45.7257828" lon="9.4155109"><ele>279.57142857142856</ele><time>2026-04-19T16:09:47.325Z</time></trkpt><trkpt lat="45.7257159" lon="9.4155274"><ele>279.7142857142857</ele><time>2026-04-19T16:09:50.338Z</time></trkpt><trkpt lat="45.7256464" lon="9.4155539"><ele>279.85714285714283</ele><time>2026-04-19T16:09:55.34Z</time></trkpt><trkpt lat="45.7255844" lon="9.4155757"><ele>280.0</ele><time>2026-04-19T16:09:59.337Z</time></trkpt><trkpt lat="45.7255217" lon="9.4156077"><ele>280.0</ele><time>2026-04-19T16:10:01.344Z</time></trkpt><trkpt lat="45.7254289" lon="9.4156548"><ele>280.0</ele><time>2026-04-19T16:10:03.336Z</time></trkpt><trkpt lat="45.7253133" lon="9.4157212"><ele>280.0</ele><time>2026-04-19T16:10:05.337Z</time></trkpt><trkpt lat="45.7252506" lon="9.4157492"><ele>280.0</ele><time>2026-04-19T16:10:06.342Z</time></trkpt><trkpt lat="45.7251888" lon="9.4157745"><ele>280.0</ele><time>2026-04-19T16:10:07.347Z</time></trkpt><trkpt lat="45.725095" lon="9.4158196"><ele>280.66666666666663</ele><time>2026-04-19T16:10:09.345Z</time></trkpt><trkpt lat="45.7250274" lon="9.4158179"><ele>281.3333333333333</ele><time>2026-04-19T16:10:13.334Z</time></trkpt><trkpt lat="45.7249594" lon="9.4158002"><ele>282.0</ele><time>2026-04-19T16:10:15.343Z</time></trkpt><trkpt lat="45.7248597" lon="9.4158082"><ele>282.6666666666667</ele><time>2026-04-19T16:10:17.345Z</time></trkpt><trkpt lat="45.7247936" lon="9.4158989"><ele>283.33333333333337</ele><time>2026-04-19T16:10:19.334Z</time></trkpt><trkpt lat="45.7247651" lon="9.4160356"><ele>284.0</ele><time>2026-04-19T16:10:21.337Z</time></trkpt><trkpt lat="45.7247378" lon="9.4162061"><ele>284.5</ele><time>2026-04-19T16:10:23.339Z</time></trkpt><trkpt lat="45.7247225" lon="9.4163258"><ele>285.0</ele><time>2026-04-19T16:10:24.316Z</time></trkpt><trkpt lat="45.7247093" lon="9.4164528"><ele>285.5</ele><time>2026-04-19T16:10:25.371Z</time></trkpt><trkpt lat="45.7247038" lon="9.4165795"><ele>286.0</ele><time>2026-04-19T16:10:26.339Z</time></trkpt><trkpt lat="45.7246998" lon="9.4166953"><ele>286.5</ele><time>2026-04-19T16:10:27.335Z</time></trkpt><trkpt lat="45.7246897" lon="9.4168106"><ele>287.0</ele><time>2026-04-19T16:10:28.334Z</time></trkpt><trkpt lat="45.7246714" lon="9.4169357"><ele>287.0</ele><time>2026-04-19T16:10:29.337Z</time></trkpt><trkpt lat="45.7246613" lon="9.4170539"><ele>287.0</ele><time>2026-04-19T16:10:30.353Z</time></trkpt><trkpt lat="45.7246575" lon="9.4171544"><ele>287.0</ele><time>2026-04-19T16:10:31.335Z</time></trkpt><trkpt lat="45.7246659" lon="9.4172495"><ele>287.0</ele><time>2026-04-19T16:10:32.345Z</time></trkpt><trkpt lat="45.7247005" lon="9.4173638"><ele>287.0</ele><time>2026-04-19T16:10:33.336Z</time></trkpt><trkpt lat="45.7247367" lon="9.4174732"><ele>287.0</ele><time>2026-04-19T16:10:34.349Z</time></trkpt><trkpt lat="45.7247773" lon="9.4175627"><ele>287.2</ele><time>2026-04-19T16:10:35.351Z</time></trkpt><trkpt lat="45.7248107" lon="9.4176392"><ele>287.4</ele><time>2026-04-19T16:10:36.343Z</time></trkpt><trkpt lat="45.7248656" lon="9.4177205"><ele>287.6</ele><time>2026-04-19T16:10:37.36Z</time></trkpt><trkpt lat="45.7249342" lon="9.4178177"><ele>287.8</ele><time>2026-04-19T16:10:38.343Z</time></trkpt><trkpt lat="45.7250108" lon="9.417918"><ele>288.0</ele><time>2026-04-19T16:10:39.337Z</time></trkpt><trkpt lat="45.7250857" lon="9.4180331"><ele>288.1666666666667</ele><time>2026-04-19T16:10:40.325Z</time></trkpt><trkpt lat="45.7251569" lon="9.4181346"><ele>288.3333333333333</ele><time>2026-04-19T16:10:41.336Z</time></trkpt><trkpt lat="45.7252246" lon="9.4182105"><ele>288.5</ele><time>2026-04-19T16:10:42.331Z</time></trkpt><trkpt lat="45.7252883" lon="9.4182629"><ele>288.66666666666663</ele><time>2026-04-19T16:10:43.338Z</time></trkpt><trkpt lat="45.7253426" lon="9.418324"><ele>288.8333333333333</ele><time>2026-04-19T16:10:44.344Z</time></trkpt><trkpt lat="45.7254007" lon="9.4183896"><ele>289.0</ele><time>2026-04-19T16:10:45.334Z</time></trkpt><trkpt lat="45.725457" lon="9.418451"><ele>289.0</ele><time>2026-04-19T16:10:46.343Z</time></trkpt><trkpt lat="45.7255142" lon="9.4185301"><ele>289.0</ele><time>2026-04-19T16:10:47.342Z</time></trkpt><trkpt lat="45.72557" lon="9.4185896"><ele>289.0</ele><time>2026-04-19T16:10:48.342Z</time></trkpt><trkpt lat="45.7256447" lon="9.418649"><ele>289.0</ele><time>2026-04-19T16:10:49.342Z</time></trkpt><trkpt lat="45.7257105" lon="9.4187109"><ele>289.0</ele><time>2026-04-19T16:10:50.333Z</time></trkpt><trkpt lat="45.725782" lon="9.4187789"><ele>289.0</ele><time>2026-04-19T16:10:51.34Z</time></trkpt><trkpt lat="45.7258631" lon="9.4188569"><ele>289.59999999999997</ele><time>2026-04-19T16:10:52.337Z</time></trkpt><trkpt lat="45.7259493" lon="9.4189339"><ele>290.2</ele><time>2026-04-19T16:10:53.343Z</time></trkpt><trkpt lat="45.7260297" lon="9.4190082"><ele>290.79999999999995</ele><time>2026-04-19T16:10:54.329Z</time></trkpt><trkpt lat="45.7261216" lon="9.4190834"><ele>291.4</ele><time>2026-04-19T16:10:55.342Z</time></trkpt><trkpt lat="45.7262085" lon="9.4191652"><ele>292.0</ele><time>2026-04-19T16:10:56.332Z</time></trkpt><trkpt lat="45.726291" lon="9.4192627"><ele>292.0</ele><time>2026-04-19T16:10:57.342Z</time></trkpt><trkpt lat="45.7263626" lon="9.4193579"><ele>292.0</ele><time>2026-04-19T16:10:58.344Z</time></trkpt><trkpt lat="45.7264353" lon="9.4194426"><ele>292.0</ele><time>2026-04-19T16:10:59.333Z</time></trkpt><trkpt lat="45.7265078" lon="9.4195215"><ele>292.0</ele><time>2026-04-19T16:11:00.327Z</time></trkpt><trkpt lat="45.7265748" lon="9.4195906"><ele>292.0</ele><time>2026-04-19T16:11:01.339Z</time></trkpt><trkpt lat="45.7266349" lon="9.4196558"><ele>292.0</ele><time>2026-04-19T16:11:02.336Z</time></trkpt><trkpt lat="45.7266901" lon="9.4197219"><ele>292.8333333333333</ele><time>2026-04-19T16:11:03.332Z</time></trkpt><trkpt lat="45.7267624" lon="9.4198177"><ele>293.66666666666663</ele><time>2026-04-19T16:11:05.34Z</time></trkpt><trkpt lat="45.7267765" lon="9.4199217"><ele>294.5</ele><time>2026-04-19T16:11:09.321Z</time></trkpt><trkpt lat="45.7267528" lon="9.4200151"><ele>295.3333333333333</ele><time>2026-04-19T16:11:11.334Z</time></trkpt><trkpt lat="45.7266685" lon="9.420093"><ele>296.1666666666667</ele><time>2026-04-19T16:11:12.334Z</time></trkpt><trkpt lat="45.7265814" lon="9.4201631"><ele>297.0</ele><time>2026-04-19T16:11:13.322Z</time></trkpt><trkpt lat="45.7264989" lon="9.4202355"><ele>297.0</ele><time>2026-04-19T16:11:14.322Z</time></trkpt><trkpt lat="45.7263995" lon="9.4202978"><ele>297.0</ele><time>2026-04-19T16:11:15.337Z</time></trkpt><trkpt lat="45.7263356" lon="9.4203739"><ele>297.0</ele><time>2026-04-19T16:11:16.33Z</time></trkpt><trkpt lat="45.7262787" lon="9.4204486"><ele>297.0</ele><time>2026-04-19T16:11:17.34Z</time></trkpt><trkpt lat="45.7261857" lon="9.4205213"><ele>297.0</ele><time>2026-04-19T16:11:19.337Z</time></trkpt><trkpt lat="45.7261151" lon="9.4205386"><ele>297.0</ele><time>2026-04-19T16:11:21.329Z</time></trkpt><trkpt lat="45.7260346" lon="9.420526"><ele>297.3333333333333</ele><time>2026-04-19T16:11:23.329Z</time></trkpt><trkpt lat="45.7258954" lon="9.420507"><ele>297.6666666666667</ele><time>2026-04-19T16:11:25.315Z</time></trkpt><trkpt lat="45.7258213" lon="9.4204845"><ele>298.0</ele><time>2026-04-19T16:11:26.337Z</time></trkpt><trkpt lat="45.7257528" lon="9.4204456"><ele>298.33333333333337</ele><time>2026-04-19T16:11:27.334Z</time></trkpt><trkpt lat="45.7256829" lon="9.4204273"><ele>298.6666666666667</ele><time>2026-04-19T16:11:28.339Z</time></trkpt><trkpt lat="45.7256004" lon="9.4203978"><ele>299.0</ele><time>2026-04-19T16:11:29.346Z</time></trkpt><trkpt lat="45.7255253" lon="9.4203784"><ele>299.0</ele><time>2026-04-19T16:11:30.329Z</time></trkpt><trkpt lat="45.7254422" lon="9.4203564"><ele>299.0</ele><time>2026-04-19T16:11:31.327Z</time></trkpt><trkpt lat="45.7253622" lon="9.420346"><ele>299.0</ele><time>2026-04-19T16:11:32.324Z</time></trkpt><trkpt lat="45.7252706" lon="9.4203331"><ele>299.0</ele><time>2026-04-19T16:11:33.334Z</time></trkpt><trkpt lat="45.7251835" lon="9.420315"><ele>299.0</ele><time>2026-04-19T16:11:34.338Z</time></trkpt><trkpt lat="45.725101" lon="9.4203532"><ele>299.0</ele><time>2026-04-19T16:11:35.339Z</time></trkpt><trkpt lat="45.7250291" lon="9.4204115"><ele>301.42857142857144</ele><time>2026-04-19T16:11:36.33Z</time></trkpt><trkpt lat="45.7249562" lon="9.420489"><ele>303.8571428571429</ele><time>2026-04-19T16:11:37.356Z</time></trkpt><trkpt lat="45.7249029" lon="9.4205631"><ele>306.28571428571433</ele><time>2026-04-19T16:11:38.345Z</time></trkpt><trkpt lat="45.724849" lon="9.4206113"><ele>308.7142857142857</ele><time>2026-04-19T16:11:39.344Z</time></trkpt><trkpt lat="45.7247931" lon="9.4206552"><ele>311.14285714285717</ele><time>2026-04-19T16:11:40.344Z</time></trkpt><trkpt lat="45.7247372" lon="9.4207052"><ele>313.5714285714286</ele><time>2026-04-19T16:11:41.35Z</time></trkpt><trkpt lat="45.7246732" lon="9.4207386"><ele>316.0</ele><time>2026-04-19T16:11:42.33Z</time></trkpt><trkpt lat="45.7245926" lon="9.4207642"><ele>316.0</ele><time>2026-04-19T16:11:43.338Z</time></trkpt><trkpt lat="45.7245024" lon="9.4207937"><ele>316.0</ele><time>2026-04-19T16:11:44.329Z</time></trkpt><trkpt lat="45.724408" lon="9.4208263"><ele>316.0</ele><time>2026-04-19T16:11:45.328Z</time></trkpt><trkpt lat="45.7243343" lon="9.4208655"><ele>316.0</ele><time>2026-04-19T16:11:46.334Z</time></trkpt><trkpt lat="45.7242577" lon="9.4208996"><ele>316.0</ele><time>2026-04-19T16:11:47.337Z</time></trkpt><trkpt lat="45.7241835" lon="9.4209492"><ele>316.0</ele><time>2026-04-19T16:11:48.343Z</time></trkpt><trkpt lat="45.7241164" lon="9.4210032"><ele>317.16666666666663</ele><time>2026-04-19T16:11:49.342Z</time></trkpt><trkpt lat="45.7240568" lon="9.4210862"><ele>318.3333333333333</ele><time>2026-04-19T16:11:50.347Z</time></trkpt><trkpt lat="45.7239975" lon="9.4211916"><ele>319.5</ele><time>2026-04-19T16:11:51.339Z</time></trkpt><trkpt lat="45.7239513" lon="9.4212979"><ele>320.6666666666667</ele><time>2026-04-19T16:11:52.334Z</time></trkpt><trkpt lat="45.7239119" lon="9.4214147"><ele>321.83333333333337</ele><time>2026-04-19T16:11:53.332Z</time></trkpt><trkpt lat="45.7238777" lon="9.4214952"><ele>323.0</ele><time>2026-04-19T16:11:54.33Z</time></trkpt><trkpt lat="45.7238116" lon="9.4216383"><ele>323.2</ele><time>2026-04-19T16:11:56.338Z</time></trkpt><trkpt lat="45.7238008" lon="9.4218255"><ele>323.4</ele><time>2026-04-19T16:11:58.327Z</time></trkpt><trkpt lat="45.7238053" lon="9.4219381"><ele>323.59999999999997</ele><time>2026-04-19T16:11:59.358Z</time></trkpt><trkpt lat="45.7238244" lon="9.4220726"><ele>323.79999999999995</ele><time>2026-04-19T16:12:00.332Z</time></trkpt><trkpt lat="45.7238506" lon="9.4222297"><ele>324.0</ele><time>2026-04-19T16:12:01.344Z</time></trkpt><trkpt lat="45.7238709" lon="9.4223741"><ele>325.3333333333333</ele><time>2026-04-19T16:12:02.335Z</time></trkpt><trkpt lat="45.7238947" lon="9.4225076"><ele>326.6666666666667</ele><time>2026-04-19T16:12:03.309Z</time></trkpt><trkpt lat="45.7239129" lon="9.422641"><ele>328.0</ele><time>2026-04-19T16:12:04.34Z</time></trkpt><trkpt lat="45.7239421" lon="9.4227547"><ele>329.33333333333337</ele><time>2026-04-19T16:12:05.332Z</time></trkpt><trkpt lat="45.7239758" lon="9.422855"><ele>330.6666666666667</ele><time>2026-04-19T16:12:06.345Z</time></trkpt><trkpt lat="45.7240368" lon="9.4229345"><ele>332.0</ele><time>2026-04-19T16:12:07.331Z</time></trkpt><trkpt lat="45.724122" lon="9.4229727"><ele>332.0</ele><time>2026-04-19T16:12:08.342Z</time></trkpt><trkpt lat="45.7242169" lon="9.422959"><ele>332.0</ele><time>2026-04-19T16:12:09.331Z</time></trkpt><trkpt lat="45.7243178" lon="9.4229236"><ele>332.0</ele><time>2026-04-19T16:12:10.326Z</time></trkpt><trkpt lat="45.7244116" lon="9.4229056"><ele>332.0</ele><time>2026-04-19T16:12:11.319Z</time></trkpt><trkpt lat="45.7245077" lon="9.4228927"><ele>332.0</ele><time>2026-04-19T16:12:12.329Z</time></trkpt><trkpt lat="45.7246003" lon="9.4228952"><ele>332.5</ele><time>2026-04-19T16:12:13.335Z</time></trkpt><trkpt lat="45.724686" lon="9.4229107"><ele>333.0</ele><time>2026-04-19T16:12:14.338Z</time></trkpt><trkpt lat="45.7247571" lon="9.4229367"><ele>333.5</ele><time>2026-04-19T16:12:15.33Z</time></trkpt><trkpt lat="45.7248356" lon="9.42298"><ele>334.0</ele><time>2026-04-19T16:12:16.32Z</time></trkpt><trkpt lat="45.7249312" lon="9.4230393"><ele>334.5</ele><time>2026-04-19T16:12:17.335Z</time></trkpt><trkpt lat="45.7250054" lon="9.4230849"><ele>335.0</ele><time>2026-04-19T16:12:18.335Z</time></trkpt><trkpt lat="45.7251126" lon="9.42316"><ele>336.5</ele><time>2026-04-19T16:12:20.34Z</time></trkpt><trkpt lat="45.7252092" lon="9.4232432"><ele>338.0</ele><time>2026-04-19T16:12:22.338Z</time></trkpt><trkpt lat="45.725252" lon="9.4233228"><ele>339.5</ele><time>2026-04-19T16:12:23.346Z</time></trkpt><trkpt lat="45.7252782" lon="9.4234058"><ele>341.0</ele><time>2026-04-19T16:12:24.334Z</time></trkpt><trkpt lat="45.7253082" lon="9.4235776"><ele>342.5</ele><time>2026-04-19T16:12:26.328Z</time></trkpt><trkpt lat="45.7253287" lon="9.4236691"><ele>344.0</ele><time>2026-04-19T16:12:27.328Z</time></trkpt><trkpt lat="45.7253528" lon="9.423761"><ele>345.0</ele><time>2026-04-19T16:12:28.303Z</time></trkpt><trkpt lat="45.7253807" lon="9.4238496"><ele>346.0</ele><time>2026-04-19T16:12:29.309Z</time></trkpt><trkpt lat="45.7254035" lon="9.4239452"><ele>347.0</ele><time>2026-04-19T16:12:30.281Z</time></trkpt><trkpt lat="45.7254098" lon="9.4240398"><ele>348.0</ele><time>2026-04-19T16:12:31.301Z</time></trkpt><trkpt lat="45.7254126" lon="9.424142"><ele>349.0</ele><time>2026-04-19T16:12:32.292Z</time></trkpt><trkpt lat="45.7253974" lon="9.4242564"><ele>350.0</ele><time>2026-04-19T16:12:33.296Z</time></trkpt><trkpt lat="45.7253821" lon="9.4243869"><ele>350.0</ele><time>2026-04-19T16:12:34.293Z</time></trkpt><trkpt lat="45.7253662" lon="9.4245064"><ele>350.0</ele><time>2026-04-19T16:12:35.301Z</time></trkpt><trkpt lat="45.7253458" lon="9.4246284"><ele>350.0</ele><time>2026-04-19T16:12:36.294Z</time></trkpt><trkpt lat="45.7253154" lon="9.4247387"><ele>350.0</ele><time>2026-04-19T16:12:37.304Z</time></trkpt><trkpt lat="45.7252821" lon="9.4248455"><ele>350.0</ele><time>2026-04-19T16:12:38.312Z</time></trkpt><trkpt lat="45.7252684" lon="9.4249381"><ele>350.0</ele><time>2026-04-19T16:12:39.33Z</time></trkpt><trkpt lat="45.7252481" lon="9.4250291"><ele>350.83333333333337</ele><time>2026-04-19T16:12:40.283Z</time></trkpt><trkpt lat="45.7252306" lon="9.4251542"><ele>351.6666666666667</ele><time>2026-04-19T16:12:41.286Z</time></trkpt><trkpt lat="45.7251952" lon="9.4252807"><ele>352.5</ele><time>2026-04-19T16:12:42.307Z</time></trkpt><trkpt lat="45.7251671" lon="9.425392"><ele>353.3333333333333</ele><time>2026-04-19T16:12:43.291Z</time></trkpt><trkpt lat="45.7251424" lon="9.4254937"><ele>354.16666666666663</ele><time>2026-04-19T16:12:44.297Z</time></trkpt><trkpt lat="45.7251149" lon="9.4256131"><ele>355.0</ele><time>2026-04-19T16:12:45.321Z</time></trkpt><trkpt lat="45.725084" lon="9.425738"><ele>357.75</ele><time>2026-04-19T16:12:46.313Z</time></trkpt><trkpt lat="45.7250324" lon="9.4259876"><ele>360.5</ele><time>2026-04-19T16:12:48.303Z</time></trkpt><trkpt lat="45.7249849" lon="9.4261145"><ele>363.25</ele><time>2026-04-19T16:12:49.321Z</time></trkpt><trkpt lat="45.7249475" lon="9.4262058"><ele>366.0</ele><time>2026-04-19T16:12:50.3Z</time></trkpt><trkpt lat="45.7248775" lon="9.4263088"><ele>365.0</ele><time>2026-04-19T16:12:52.324Z</time></trkpt><trkpt lat="45.7243368" lon="9.4257647"><ele>365.0</ele><time>2026-04-19T16:12:57.305Z</time></trkpt><trkpt lat="45.7242185" lon="9.4254809"><ele>365.0</ele><time>2026-04-19T16:12:58.332Z</time></trkpt><trkpt lat="45.7240986" lon="9.4251883"><ele>350.0</ele><time>2026-04-19T16:12:59.306Z</time></trkpt><trkpt lat="45.7217534" lon="9.4234088"><ele>350.0</ele><time>2026-04-19T16:13:39.273Z</time></trkpt><trkpt lat="45.7216269" lon="9.4233164"><ele>350.0</ele><time>2026-04-19T16:13:40.3Z</time></trkpt><trkpt lat="45.7215554" lon="9.4232777"><ele>350.0</ele><time>2026-04-19T16:13:41.285Z</time></trkpt><trkpt lat="45.7214675" lon="9.4233122"><ele>350.0</ele><time>2026-04-19T16:13:42.305Z</time></trkpt><trkpt lat="45.7213111" lon="9.4233197"><ele>350.0</ele><time>2026-04-19T16:13:43.312Z</time></trkpt><trkpt lat="45.7211917" lon="9.4232614"><ele>350.0</ele><time>2026-04-19T16:13:44.303Z</time></trkpt><trkpt lat="45.7210942" lon="9.4231785"><ele>350.0</ele><time>2026-04-19T16:13:45.306Z</time></trkpt><trkpt lat="45.7209903" lon="9.423107"><ele>350.0</ele><time>2026-04-19T16:13:46.31Z</time></trkpt><trkpt lat="45.7209012" lon="9.4230655"><ele>350.0</ele><time>2026-04-19T16:13:47.33Z</time></trkpt><trkpt lat="45.7207799" lon="9.4230141"><ele>347.75</ele><time>2026-04-19T16:13:48.307Z</time></trkpt><trkpt lat="45.7206633" lon="9.4229573"><ele>345.5</ele><time>2026-04-19T16:13:49.295Z</time></trkpt><trkpt lat="45.7205357" lon="9.4229066"><ele>343.25</ele><time>2026-04-19T16:13:50.322Z</time></trkpt><trkpt lat="45.7204291" lon="9.4228473"><ele>341.0</ele><time>2026-04-19T16:13:51.32Z</time></trkpt><trkpt lat="45.7203286" lon="9.4227976"><ele>339.8</ele><time>2026-04-19T16:13:52.322Z</time></trkpt><trkpt lat="45.7202275" lon="9.4227619"><ele>338.6</ele><time>2026-04-19T16:13:53.325Z</time></trkpt><trkpt lat="45.7201439" lon="9.4227439"><ele>337.4</ele><time>2026-04-19T16:13:54.341Z</time></trkpt><trkpt lat="45.7200652" lon="9.4227648"><ele>336.2</ele><time>2026-04-19T16:13:55.332Z</time></trkpt><trkpt lat="45.7199724" lon="9.4228679"><ele>335.0</ele><time>2026-04-19T16:13:57.333Z</time></trkpt><trkpt lat="45.7199467" lon="9.4229521"><ele>335.33333333333337</ele><time>2026-04-19T16:13:58.33Z</time></trkpt><trkpt lat="45.7199242" lon="9.4230534"><ele>335.6666666666667</ele><time>2026-04-19T16:13:59.338Z</time></trkpt><trkpt lat="45.7199134" lon="9.4231779"><ele>336.0</ele><time>2026-04-19T16:14:00.319Z</time></trkpt><trkpt lat="45.719921" lon="9.4233079"><ele>336.3333333333333</ele><time>2026-04-19T16:14:01.322Z</time></trkpt><trkpt lat="45.7199446" lon="9.4234334"><ele>336.66666666666663</ele><time>2026-04-19T16:14:02.336Z</time></trkpt><trkpt lat="45.7199637" lon="9.4235539"><ele>337.0</ele><time>2026-04-19T16:14:03.329Z</time></trkpt><trkpt lat="45.7199797" lon="9.4236581"><ele>337.0</ele><time>2026-04-19T16:14:04.324Z</time></trkpt><trkpt lat="45.7199318" lon="9.423771"><ele>337.0</ele><time>2026-04-19T16:14:06.331Z</time></trkpt><trkpt lat="45.7198031" lon="9.4237906"><ele>337.0</ele><time>2026-04-19T16:14:08.331Z</time></trkpt><trkpt lat="45.719729" lon="9.4237721"><ele>337.0</ele><time>2026-04-19T16:14:09.331Z</time></trkpt><trkpt lat="45.7196371" lon="9.4237385"><ele>337.0</ele><time>2026-04-19T16:14:10.328Z</time></trkpt><trkpt lat="45.7195429" lon="9.4236772"><ele>337.0</ele><time>2026-04-19T16:14:11.336Z</time></trkpt><trkpt lat="45.7194377" lon="9.4236265"><ele>337.0</ele><time>2026-04-19T16:14:12.331Z</time></trkpt><trkpt lat="45.7193385" lon="9.423572"><ele>337.0</ele><time>2026-04-19T16:14:13.348Z</time></trkpt><trkpt lat="45.7192193" lon="9.4234985"><ele>337.0</ele><time>2026-04-19T16:14:14.329Z</time></trkpt><trkpt lat="45.7191004" lon="9.4234284"><ele>335.25</ele><time>2026-04-19T16:14:15.313Z</time></trkpt><trkpt lat="45.7189717" lon="9.4233618"><ele>333.5</ele><time>2026-04-19T16:14:16.329Z</time></trkpt><trkpt lat="45.7188468" lon="9.4233174"><ele>331.75</ele><time>2026-04-19T16:14:17.356Z</time></trkpt><trkpt lat="45.7187239" lon="9.4232678"><ele>330.0</ele><time>2026-04-19T16:14:18.34Z</time></trkpt><trkpt lat="45.7186065" lon="9.4232123"><ele>329.0</ele><time>2026-04-19T16:14:19.353Z</time></trkpt><trkpt lat="45.7184892" lon="9.4231398"><ele>328.0</ele><time>2026-04-19T16:14:20.352Z</time></trkpt><trkpt lat="45.7183812" lon="9.423053"><ele>327.0</ele><time>2026-04-19T16:14:21.337Z</time></trkpt><trkpt lat="45.7182833" lon="9.4229615"><ele>326.0</ele><time>2026-04-19T16:14:22.332Z</time></trkpt><trkpt lat="45.7181867" lon="9.4228653"><ele>326.20000000000005</ele><time>2026-04-19T16:14:23.353Z</time></trkpt><trkpt lat="45.7180981" lon="9.4227729"><ele>326.40000000000003</ele><time>2026-04-19T16:14:24.345Z</time></trkpt><trkpt lat="45.7180108" lon="9.4226815"><ele>326.6</ele><time>2026-04-19T16:14:25.347Z</time></trkpt><trkpt lat="45.7179189" lon="9.4225787"><ele>326.8</ele><time>2026-04-19T16:14:26.354Z</time></trkpt><trkpt lat="45.7178241" lon="9.422493"><ele>327.0</ele><time>2026-04-19T16:14:27.34Z</time></trkpt><trkpt lat="45.7177156" lon="9.4224232"><ele>327.0</ele><time>2026-04-19T16:14:28.337Z</time></trkpt><trkpt lat="45.717613" lon="9.4223505"><ele>327.0</ele><time>2026-04-19T16:14:29.329Z</time></trkpt><trkpt lat="45.7175263" lon="9.4222797"><ele>327.0</ele><time>2026-04-19T16:14:30.332Z</time></trkpt><trkpt lat="45.7174477" lon="9.4222121"><ele>327.0</ele><time>2026-04-19T16:14:31.356Z</time></trkpt><trkpt lat="45.7173747" lon="9.4221396"><ele>327.0</ele><time>2026-04-19T16:14:32.336Z</time></trkpt><trkpt lat="45.7172891" lon="9.422066"><ele>327.5</ele><time>2026-04-19T16:14:33.351Z</time></trkpt><trkpt lat="45.7171946" lon="9.4219832"><ele>328.0</ele><time>2026-04-19T16:14:34.327Z</time></trkpt><trkpt lat="45.7171059" lon="9.4218814"><ele>328.5</ele><time>2026-04-19T16:14:35.337Z</time></trkpt><trkpt lat="45.7170154" lon="9.4217681"><ele>329.0</ele><time>2026-04-19T16:14:36.341Z</time></trkpt><trkpt lat="45.7169198" lon="9.4216644"><ele>328.0</ele><time>2026-04-19T16:14:37.342Z</time></trkpt><trkpt lat="45.7168288" lon="9.4215467"><ele>327.0</ele><time>2026-04-19T16:14:38.336Z</time></trkpt><trkpt lat="45.7167453" lon="9.4214468"><ele>326.0</ele><time>2026-04-19T16:14:39.34Z</time></trkpt><trkpt lat="45.7166622" lon="9.4213393"><ele>325.0</ele><time>2026-04-19T16:14:40.354Z</time></trkpt><trkpt lat="45.7165681" lon="9.4212529"><ele>325.2</ele><time>2026-04-19T16:14:41.337Z</time></trkpt><trkpt lat="45.7164736" lon="9.4211905"><ele>325.4</ele><time>2026-04-19T16:14:42.337Z</time></trkpt><trkpt lat="45.7163696" lon="9.4211347"><ele>325.6</ele><time>2026-04-19T16:14:43.342Z</time></trkpt><trkpt lat="45.7162626" lon="9.4210765"><ele>325.8</ele><time>2026-04-19T16:14:44.353Z</time></trkpt><trkpt lat="45.7161475" lon="9.4210287"><ele>326.0</ele><time>2026-04-19T16:14:45.338Z</time></trkpt><trkpt lat="45.7160423" lon="9.4209689"><ele>326.0</ele><time>2026-04-19T16:14:46.338Z</time></trkpt><trkpt lat="45.7159354" lon="9.4209106"><ele>326.0</ele><time>2026-04-19T16:14:47.337Z</time></trkpt><trkpt lat="45.7158409" lon="9.4208616"><ele>326.0</ele><time>2026-04-19T16:14:48.333Z</time></trkpt><trkpt lat="45.7157643" lon="9.4208223"><ele>326.0</ele><time>2026-04-19T16:14:49.338Z</time></trkpt><trkpt lat="45.7157029" lon="9.4207933"><ele>326.0</ele><time>2026-04-19T16:14:50.345Z</time></trkpt><trkpt lat="45.715608" lon="9.4207537"><ele>326.0</ele><time>2026-04-19T16:14:52.344Z</time></trkpt><trkpt lat="45.7155443" lon="9.4207375"><ele>326.0</ele><time>2026-04-19T16:14:55.305Z</time></trkpt><trkpt lat="45.7155355" lon="9.4208272"><ele>326.0</ele><time>2026-04-19T16:16:37.329Z</time></trkpt><trkpt lat="45.7155949" lon="9.4207684"><ele>326.0</ele><time>2026-04-19T16:17:16.314Z</time></trkpt><trkpt lat="45.715565" lon="9.4208591"><ele>326.0</ele><time>2026-04-19T16:17:31.318Z</time></trkpt><trkpt lat="45.7154833" lon="9.4208074"><ele>326.0</ele><time>2026-04-19T16:17:52.34Z</time></trkpt><trkpt lat="45.7154177" lon="9.4208087"><ele>326.0</ele><time>2026-04-19T16:18:00.324Z</time></trkpt><trkpt lat="45.7153605" lon="9.4207533"><ele>326.0</ele><time>2026-04-19T16:18:46.323Z</time></trkpt><trkpt lat="45.7153192" lon="9.4208314"><ele>326.0</ele><time>2026-04-19T16:18:52.328Z</time></trkpt><trkpt lat="45.7153523" lon="9.4209094"><ele>326.0</ele><time>2026-04-19T16:19:01.321Z</time></trkpt><trkpt lat="45.715389" lon="9.4210004"><ele>326.0</ele><time>2026-04-19T16:19:09.301Z</time></trkpt><trkpt lat="45.7154468" lon="9.4210586"><ele>326.0</ele><time>2026-04-19T16:19:14.279Z</time></trkpt><trkpt lat="45.7155077" lon="9.421029"><ele>326.0</ele><time>2026-04-19T16:19:22.707Z</time></trkpt><trkpt lat="45.7155586" lon="9.4209715"><ele>326.0</ele><time>2026-04-19T16:19:40.308Z</time></trkpt><trkpt lat="45.7155897" lon="9.4208912"><ele>326.0</ele><time>2026-04-19T16:23:31.282Z</time></trkpt><trkpt lat="45.715456" lon="9.4209049"><ele>326.0</ele><time>2026-04-19T16:27:32.282Z</time></trkpt><trkpt lat="45.7154136" lon="9.4209886"><ele>326.0</ele><time>2026-04-19T16:27:38.313Z</time></trkpt><trkpt lat="45.7154786" lon="9.4210613"><ele>326.0</ele><time>2026-04-19T16:27:39.293Z</time></trkpt><trkpt lat="45.7155718" lon="9.4211798"><ele>326.0</ele><time>2026-04-19T16:27:40.296Z</time></trkpt><trkpt lat="45.7156413" lon="9.4212506"><ele>326.0</ele><time>2026-04-19T16:27:43.302Z</time></trkpt></trkseg><trkseg><trkpt lat="45.5442366" lon="9.1160013"><ele>153.0</ele><time>2026-04-20T13:09:04.341Z</time></trkpt><trkpt lat="45.5443021" lon="9.1159018"><ele>153.0</ele><time>2026-04-20T13:09:07.34Z</time></trkpt><trkpt lat="45.5445002" lon="9.1158135"><ele>153.0</ele><time>2026-04-20T13:09:13.331Z</time></trkpt></trkseg></trk></gpx>